<?xml version="1.0" encoding="UTF-8"?>
<gpx version="1.1" creator=" " xmlns="http://www.topografix.com/GPX/1/1" xmlns:xsi="http://www.w3.org/2001/XMLSchema-instance" xsi:schemaLocation="http://www.topografix.com/GPX/1/1 http://www.topografix.com/GPX/1/1/gpx.xsd">
<metadata>
<name>Bad Wörishofen - Lermoos</name>
<desc></desc>
<link href="">
<text>  </text>
</link>
<time>2020-09-11T09:47:00Z</time>
</metadata>
<trk>
<trkseg>
<trkpt lat="47.999111" lon="10.582935">
<ele>606.326</ele>
</trkpt>
<trkpt lat="47.999111" lon="10.582935">
<ele>606.326</ele>
<time>2020-09-11T09:47:00Z</time>
</trkpt>
<trkpt lat="47.999138" lon="10.582911">
<ele>609.342</ele>
<time>2020-09-11T09:47:07Z</time>
</trkpt>
<trkpt lat="47.999138" lon="10.582905">
<ele>609.743</ele>
<time>2020-09-11T09:47:08Z</time>
</trkpt>
<trkpt lat="47.999146" lon="10.582896">
<ele>610.204</ele>
<time>2020-09-11T09:47:09Z</time>
</trkpt>
<trkpt lat="47.999149" lon="10.582882">
<ele>610.204</ele>
<time>2020-09-11T09:47:10Z</time>
</trkpt>
<trkpt lat="47.999157" lon="10.58287">
<ele>610.204</ele>
<time>2020-09-11T09:47:11Z</time>
</trkpt>
<trkpt lat="47.999168" lon="10.582848">
<ele>610.096</ele>
<time>2020-09-11T09:47:12Z</time>
</trkpt>
<trkpt lat="47.999176" lon="10.58283">
<ele>610.121</ele>
<time>2020-09-11T09:47:13Z</time>
</trkpt>
<trkpt lat="47.99918" lon="10.58281">
<ele>610.139</ele>
<time>2020-09-11T09:47:14Z</time>
</trkpt>
<trkpt lat="47.999184" lon="10.582791">
<ele>610.204</ele>
<time>2020-09-11T09:47:15Z</time>
</trkpt>
<trkpt lat="47.999187" lon="10.582772">
<ele>610.204</ele>
<time>2020-09-11T09:47:16Z</time>
</trkpt>
<trkpt lat="47.999195" lon="10.582749">
<ele>610.204</ele>
<time>2020-09-11T09:47:17Z</time>
</trkpt>
<trkpt lat="47.999195" lon="10.58273">
<ele>610.527</ele>
<time>2020-09-11T09:47:18Z</time>
</trkpt>
<trkpt lat="47.999203" lon="10.582713">
<ele>610.757</ele>
<time>2020-09-11T09:47:19Z</time>
</trkpt>
<trkpt lat="47.999207" lon="10.5827">
<ele>610.916</ele>
<time>2020-09-11T09:47:20Z</time>
</trkpt>
<trkpt lat="47.99921" lon="10.582685">
<ele>611.061</ele>
<time>2020-09-11T09:47:21Z</time>
</trkpt>
<trkpt lat="47.999207" lon="10.582675">
<ele>611.152</ele>
<time>2020-09-11T09:47:22Z</time>
</trkpt>
<trkpt lat="47.999214" lon="10.58267">
<ele>611.216</ele>
<time>2020-09-11T09:47:23Z</time>
</trkpt>
<trkpt lat="47.99921" lon="10.582664">
<ele>611.243</ele>
<time>2020-09-11T09:47:24Z</time>
</trkpt>
<trkpt lat="47.999218" lon="10.582583">
<ele>611.261</ele>
<time>2020-09-11T09:47:43Z</time>
</trkpt>
<trkpt lat="47.999226" lon="10.582571">
<ele>611.262</ele>
<time>2020-09-11T09:47:44Z</time>
</trkpt>
<trkpt lat="47.999233" lon="10.582557">
<ele>611.262</ele>
<time>2020-09-11T09:47:45Z</time>
</trkpt>
<trkpt lat="47.999241" lon="10.582538">
<ele>611.262</ele>
<time>2020-09-11T09:47:46Z</time>
</trkpt>
<trkpt lat="47.999249" lon="10.582515">
<ele>611.262</ele>
<time>2020-09-11T09:47:47Z</time>
</trkpt>
<trkpt lat="47.99926" lon="10.582488">
<ele>611.261</ele>
<time>2020-09-11T09:47:48Z</time>
</trkpt>
<trkpt lat="47.999268" lon="10.58246">
<ele>611.261</ele>
<time>2020-09-11T09:47:49Z</time>
</trkpt>
<trkpt lat="47.999279" lon="10.582431">
<ele>611.262</ele>
<time>2020-09-11T09:47:50Z</time>
</trkpt>
<trkpt lat="47.999287" lon="10.58241">
<ele>611.262</ele>
<time>2020-09-11T09:47:51Z</time>
</trkpt>
<trkpt lat="47.999306" lon="10.582394">
<ele>611.262</ele>
<time>2020-09-11T09:47:52Z</time>
</trkpt>
<trkpt lat="47.999317" lon="10.582394">
<ele>611.262</ele>
<time>2020-09-11T09:47:53Z</time>
</trkpt>
<trkpt lat="47.999332" lon="10.582403">
<ele>611.261</ele>
<time>2020-09-11T09:47:54Z</time>
</trkpt>
<trkpt lat="47.999344" lon="10.582418">
<ele>611.262</ele>
<time>2020-09-11T09:47:55Z</time>
</trkpt>
<trkpt lat="47.999359" lon="10.582433">
<ele>611.262</ele>
<time>2020-09-11T09:47:56Z</time>
</trkpt>
<trkpt lat="47.999378" lon="10.582452">
<ele>611.261</ele>
<time>2020-09-11T09:47:57Z</time>
</trkpt>
<trkpt lat="47.999393" lon="10.582475">
<ele>611.262</ele>
<time>2020-09-11T09:47:58Z</time>
</trkpt>
<trkpt lat="47.999409" lon="10.5825">
<ele>611.262</ele>
<time>2020-09-11T09:47:59Z</time>
</trkpt>
<trkpt lat="47.999432" lon="10.582523">
<ele>611.261</ele>
<time>2020-09-11T09:48:00Z</time>
</trkpt>
<trkpt lat="47.999447" lon="10.582546">
<ele>611.262</ele>
<time>2020-09-11T09:48:01Z</time>
</trkpt>
<trkpt lat="47.999462" lon="10.582573">
<ele>611.262</ele>
<time>2020-09-11T09:48:02Z</time>
</trkpt>
<trkpt lat="47.999481" lon="10.582601">
<ele>611.262</ele>
<time>2020-09-11T09:48:03Z</time>
</trkpt>
<trkpt lat="47.999504" lon="10.582626">
<ele>611.262</ele>
<time>2020-09-11T09:48:04Z</time>
</trkpt>
<trkpt lat="47.999523" lon="10.58265">
<ele>611.262</ele>
<time>2020-09-11T09:48:05Z</time>
</trkpt>
<trkpt lat="47.999538" lon="10.582675">
<ele>611.262</ele>
<time>2020-09-11T09:48:06Z</time>
</trkpt>
<trkpt lat="47.999557" lon="10.5827">
<ele>611.262</ele>
<time>2020-09-11T09:48:07Z</time>
</trkpt>
<trkpt lat="47.999577" lon="10.582725">
<ele>611.261</ele>
<time>2020-09-11T09:48:08Z</time>
</trkpt>
<trkpt lat="47.999599" lon="10.582745">
<ele>611.262</ele>
<time>2020-09-11T09:48:09Z</time>
</trkpt>
<trkpt lat="47.999619" lon="10.582766">
<ele>611.262</ele>
<time>2020-09-11T09:48:10Z</time>
</trkpt>
<trkpt lat="47.999638" lon="10.582788">
<ele>611.262</ele>
<time>2020-09-11T09:48:11Z</time>
</trkpt>
<trkpt lat="47.99966" lon="10.582813">
<ele>611.261</ele>
<time>2020-09-11T09:48:12Z</time>
</trkpt>
<trkpt lat="47.999676" lon="10.58284">
<ele>611.262</ele>
<time>2020-09-11T09:48:13Z</time>
</trkpt>
<trkpt lat="47.999702" lon="10.582863">
<ele>611.262</ele>
<time>2020-09-11T09:48:14Z</time>
</trkpt>
<trkpt lat="47.999725" lon="10.582888">
<ele>611.262</ele>
<time>2020-09-11T09:48:15Z</time>
</trkpt>
<trkpt lat="47.999748" lon="10.582918">
<ele>611.261</ele>
<time>2020-09-11T09:48:16Z</time>
</trkpt>
<trkpt lat="47.999767" lon="10.582952">
<ele>611.262</ele>
<time>2020-09-11T09:48:17Z</time>
</trkpt>
<trkpt lat="47.999794" lon="10.582987">
<ele>611.262</ele>
<time>2020-09-11T09:48:18Z</time>
</trkpt>
<trkpt lat="47.999817" lon="10.583017">
<ele>611.262</ele>
<time>2020-09-11T09:48:19Z</time>
</trkpt>
<trkpt lat="47.99984" lon="10.583054">
<ele>611.262</ele>
<time>2020-09-11T09:48:20Z</time>
</trkpt>
<trkpt lat="47.999866" lon="10.583083">
<ele>611.262</ele>
<time>2020-09-11T09:48:21Z</time>
</trkpt>
<trkpt lat="47.999889" lon="10.58311">
<ele>611.261</ele>
<time>2020-09-11T09:48:22Z</time>
</trkpt>
<trkpt lat="47.999908" lon="10.58314">
<ele>611.262</ele>
<time>2020-09-11T09:48:23Z</time>
</trkpt>
<trkpt lat="47.999935" lon="10.583173">
<ele>611.262</ele>
<time>2020-09-11T09:48:24Z</time>
</trkpt>
<trkpt lat="47.99995" lon="10.583206">
<ele>611.262</ele>
<time>2020-09-11T09:48:25Z</time>
</trkpt>
<trkpt lat="47.999969" lon="10.58324">
<ele>611.262</ele>
<time>2020-09-11T09:48:26Z</time>
</trkpt>
<trkpt lat="47.999992" lon="10.583273">
<ele>611.262</ele>
<time>2020-09-11T09:48:27Z</time>
</trkpt>
<trkpt lat="48.000011" lon="10.583304">
<ele>611.262</ele>
<time>2020-09-11T09:48:28Z</time>
</trkpt>
<trkpt lat="48.000031" lon="10.583336">
<ele>611.262</ele>
<time>2020-09-11T09:48:29Z</time>
</trkpt>
<trkpt lat="48.000061" lon="10.583369">
<ele>611.262</ele>
<time>2020-09-11T09:48:30Z</time>
</trkpt>
<trkpt lat="48.000084" lon="10.583406">
<ele>611.262</ele>
<time>2020-09-11T09:48:31Z</time>
</trkpt>
<trkpt lat="48.000111" lon="10.583443">
<ele>611.262</ele>
<time>2020-09-11T09:48:32Z</time>
</trkpt>
<trkpt lat="48.000137" lon="10.58348">
<ele>611.262</ele>
<time>2020-09-11T09:48:33Z</time>
</trkpt>
<trkpt lat="48.000175" lon="10.583515">
<ele>611.261</ele>
<time>2020-09-11T09:48:34Z</time>
</trkpt>
<trkpt lat="48.000214" lon="10.583551">
<ele>611.262</ele>
<time>2020-09-11T09:48:35Z</time>
</trkpt>
<trkpt lat="48.000248" lon="10.58359">
<ele>611.262</ele>
<time>2020-09-11T09:48:36Z</time>
</trkpt>
<trkpt lat="48.000275" lon="10.583629">
<ele>611.262</ele>
<time>2020-09-11T09:48:37Z</time>
</trkpt>
<trkpt lat="48.000298" lon="10.583669">
<ele>611.262</ele>
<time>2020-09-11T09:48:38Z</time>
</trkpt>
<trkpt lat="48.000328" lon="10.583709">
<ele>611.262</ele>
<time>2020-09-11T09:48:39Z</time>
</trkpt>
<trkpt lat="48.000355" lon="10.583749">
<ele>611.261</ele>
<time>2020-09-11T09:48:40Z</time>
</trkpt>
<trkpt lat="48.000385" lon="10.58379">
<ele>611.261</ele>
<time>2020-09-11T09:48:41Z</time>
</trkpt>
<trkpt lat="48.000412" lon="10.583835">
<ele>611.261</ele>
<time>2020-09-11T09:48:42Z</time>
</trkpt>
<trkpt lat="48.000439" lon="10.583879">
<ele>611.262</ele>
<time>2020-09-11T09:48:43Z</time>
</trkpt>
<trkpt lat="48.000465" lon="10.583925">
<ele>611.262</ele>
<time>2020-09-11T09:48:44Z</time>
</trkpt>
<trkpt lat="48.000488" lon="10.583971">
<ele>611.262</ele>
<time>2020-09-11T09:48:45Z</time>
</trkpt>
<trkpt lat="48.000515" lon="10.584023">
<ele>610.965</ele>
<time>2020-09-11T09:48:46Z</time>
</trkpt>
<trkpt lat="48.000542" lon="10.584078">
<ele>610.739</ele>
<time>2020-09-11T09:48:47Z</time>
</trkpt>
<trkpt lat="48.000572" lon="10.584134">
<ele>610.569</ele>
<time>2020-09-11T09:48:48Z</time>
</trkpt>
<trkpt lat="48.000603" lon="10.584187">
<ele>610.448</ele>
<time>2020-09-11T09:48:49Z</time>
</trkpt>
<trkpt lat="48.000629" lon="10.584237">
<ele>610.366</ele>
<time>2020-09-11T09:48:50Z</time>
</trkpt>
<trkpt lat="48.000652" lon="10.584289">
<ele>610.314</ele>
<time>2020-09-11T09:48:51Z</time>
</trkpt>
<trkpt lat="48.000683" lon="10.584345">
<ele>610.292</ele>
<time>2020-09-11T09:48:52Z</time>
</trkpt>
<trkpt lat="48.00071" lon="10.584403">
<ele>610.052</ele>
<time>2020-09-11T09:48:53Z</time>
</trkpt>
<trkpt lat="48.000732" lon="10.584465">
<ele>609.887</ele>
<time>2020-09-11T09:48:54Z</time>
</trkpt>
<trkpt lat="48.000755" lon="10.584528">
<ele>609.716</ele>
<time>2020-09-11T09:48:55Z</time>
</trkpt>
<trkpt lat="48.000782" lon="10.584585">
<ele>609.577</ele>
<time>2020-09-11T09:48:56Z</time>
</trkpt>
<trkpt lat="48.000813" lon="10.584645">
<ele>609.47</ele>
<time>2020-09-11T09:48:57Z</time>
</trkpt>
<trkpt lat="48.000847" lon="10.584706">
<ele>609.391</ele>
<time>2020-09-11T09:48:58Z</time>
</trkpt>
<trkpt lat="48.000881" lon="10.584766">
<ele>609.344</ele>
<time>2020-09-11T09:48:59Z</time>
</trkpt>
<trkpt lat="48.000919" lon="10.584827">
<ele>609.323</ele>
<time>2020-09-11T09:49:00Z</time>
</trkpt>
<trkpt lat="48.000957" lon="10.584882">
<ele>609.068</ele>
<time>2020-09-11T09:49:01Z</time>
</trkpt>
<trkpt lat="48.000996" lon="10.584935">
<ele>608.87</ele>
<time>2020-09-11T09:49:02Z</time>
</trkpt>
<trkpt lat="48.001038" lon="10.584989">
<ele>608.716</ele>
<time>2020-09-11T09:49:03Z</time>
</trkpt>
<trkpt lat="48.001072" lon="10.585043">
<ele>608.614</ele>
<time>2020-09-11T09:49:04Z</time>
</trkpt>
<trkpt lat="48.001106" lon="10.585093">
<ele>608.507</ele>
<time>2020-09-11T09:49:05Z</time>
</trkpt>
<trkpt lat="48.001137" lon="10.58514">
<ele>608.429</ele>
<time>2020-09-11T09:49:06Z</time>
</trkpt>
<trkpt lat="48.001167" lon="10.58519">
<ele>608.378</ele>
<time>2020-09-11T09:49:07Z</time>
</trkpt>
<trkpt lat="48.001198" lon="10.585238">
<ele>608.353</ele>
<time>2020-09-11T09:49:08Z</time>
</trkpt>
<trkpt lat="48.001232" lon="10.585286">
<ele>608.353</ele>
<time>2020-09-11T09:49:09Z</time>
</trkpt>
<trkpt lat="48.001266" lon="10.585337">
<ele>608.353</ele>
<time>2020-09-11T09:49:10Z</time>
</trkpt>
<trkpt lat="48.001301" lon="10.585383">
<ele>608.353</ele>
<time>2020-09-11T09:49:11Z</time>
</trkpt>
<trkpt lat="48.001335" lon="10.585433">
<ele>608.353</ele>
<time>2020-09-11T09:49:12Z</time>
</trkpt>
<trkpt lat="48.001381" lon="10.585487">
<ele>608.353</ele>
<time>2020-09-11T09:49:13Z</time>
</trkpt>
<trkpt lat="48.001427" lon="10.585538">
<ele>608.353</ele>
<time>2020-09-11T09:49:14Z</time>
</trkpt>
<trkpt lat="48.001472" lon="10.585592">
<ele>608.353</ele>
<time>2020-09-11T09:49:15Z</time>
</trkpt>
<trkpt lat="48.001511" lon="10.585645">
<ele>608.353</ele>
<time>2020-09-11T09:49:16Z</time>
</trkpt>
<trkpt lat="48.001545" lon="10.585699">
<ele>608.353</ele>
<time>2020-09-11T09:49:17Z</time>
</trkpt>
<trkpt lat="48.001575" lon="10.585752">
<ele>608.353</ele>
<time>2020-09-11T09:49:18Z</time>
</trkpt>
<trkpt lat="48.001606" lon="10.585802">
<ele>608.353</ele>
<time>2020-09-11T09:49:19Z</time>
</trkpt>
<trkpt lat="48.001637" lon="10.585852">
<ele>608.353</ele>
<time>2020-09-11T09:49:20Z</time>
</trkpt>
<trkpt lat="48.001671" lon="10.585903">
<ele>608.116</ele>
<time>2020-09-11T09:49:21Z</time>
</trkpt>
<trkpt lat="48.001705" lon="10.585958">
<ele>607.924</ele>
<time>2020-09-11T09:49:22Z</time>
</trkpt>
<trkpt lat="48.00174" lon="10.586012">
<ele>607.77</ele>
<time>2020-09-11T09:49:23Z</time>
</trkpt>
<trkpt lat="48.001778" lon="10.586066">
<ele>607.659</ele>
<time>2020-09-11T09:49:24Z</time>
</trkpt>
<trkpt lat="48.00182" lon="10.586123">
<ele>607.541</ele>
<time>2020-09-11T09:49:25Z</time>
</trkpt>
<trkpt lat="48.001858" lon="10.586179">
<ele>607.458</ele>
<time>2020-09-11T09:49:26Z</time>
</trkpt>
<trkpt lat="48.001896" lon="10.586235">
<ele>607.407</ele>
<time>2020-09-11T09:49:27Z</time>
</trkpt>
<trkpt lat="48.001938" lon="10.586296">
<ele>607.384</ele>
<time>2020-09-11T09:49:28Z</time>
</trkpt>
<trkpt lat="48.00198" lon="10.586349">
<ele>607.384</ele>
<time>2020-09-11T09:49:29Z</time>
</trkpt>
<trkpt lat="48.002022" lon="10.586395">
<ele>607.384</ele>
<time>2020-09-11T09:49:30Z</time>
</trkpt>
<trkpt lat="48.002068" lon="10.586441">
<ele>607.384</ele>
<time>2020-09-11T09:49:31Z</time>
</trkpt>
<trkpt lat="48.002102" lon="10.5865">
<ele>607.384</ele>
<time>2020-09-11T09:49:32Z</time>
</trkpt>
<trkpt lat="48.002125" lon="10.586563">
<ele>607.384</ele>
<time>2020-09-11T09:49:33Z</time>
</trkpt>
<trkpt lat="48.002144" lon="10.586627">
<ele>607.384</ele>
<time>2020-09-11T09:49:34Z</time>
</trkpt>
<trkpt lat="48.002171" lon="10.586692">
<ele>607.155</ele>
<time>2020-09-11T09:49:35Z</time>
</trkpt>
<trkpt lat="48.002193" lon="10.586763">
<ele>606.96</ele>
<time>2020-09-11T09:49:36Z</time>
</trkpt>
<trkpt lat="48.00222" lon="10.586833">
<ele>606.794</ele>
<time>2020-09-11T09:49:37Z</time>
</trkpt>
<trkpt lat="48.002243" lon="10.586902">
<ele>606.692</ele>
<time>2020-09-11T09:49:38Z</time>
</trkpt>
<trkpt lat="48.002258" lon="10.586973">
<ele>606.361</ele>
<time>2020-09-11T09:49:39Z</time>
</trkpt>
<trkpt lat="48.002277" lon="10.58705">
<ele>606.092</ele>
<time>2020-09-11T09:49:40Z</time>
</trkpt>
<trkpt lat="48.002293" lon="10.587129">
<ele>605.889</ele>
<time>2020-09-11T09:49:41Z</time>
</trkpt>
<trkpt lat="48.002312" lon="10.587212">
<ele>605.747</ele>
<time>2020-09-11T09:49:42Z</time>
</trkpt>
<trkpt lat="48.002335" lon="10.587294">
<ele>605.661</ele>
<time>2020-09-11T09:49:43Z</time>
</trkpt>
<trkpt lat="48.00235" lon="10.587375">
<ele>605.607</ele>
<time>2020-09-11T09:49:44Z</time>
</trkpt>
<trkpt lat="48.002365" lon="10.587459">
<ele>605.315</ele>
<time>2020-09-11T09:49:45Z</time>
</trkpt>
<trkpt lat="48.002377" lon="10.587543">
<ele>605.09</ele>
<time>2020-09-11T09:49:46Z</time>
</trkpt>
<trkpt lat="48.002384" lon="10.58763">
<ele>604.929</ele>
<time>2020-09-11T09:49:47Z</time>
</trkpt>
<trkpt lat="48.002407" lon="10.587719">
<ele>604.802</ele>
<time>2020-09-11T09:49:48Z</time>
</trkpt>
<trkpt lat="48.002434" lon="10.587802">
<ele>604.724</ele>
<time>2020-09-11T09:49:49Z</time>
</trkpt>
<trkpt lat="48.002453" lon="10.587882">
<ele>604.385</ele>
<time>2020-09-11T09:49:50Z</time>
</trkpt>
<trkpt lat="48.002476" lon="10.587966">
<ele>604.112</ele>
<time>2020-09-11T09:49:51Z</time>
</trkpt>
<trkpt lat="48.002491" lon="10.588052">
<ele>603.908</ele>
<time>2020-09-11T09:49:52Z</time>
</trkpt>
<trkpt lat="48.00251" lon="10.588137">
<ele>603.767</ele>
<time>2020-09-11T09:49:53Z</time>
</trkpt>
<trkpt lat="48.002533" lon="10.588222">
<ele>603.681</ele>
<time>2020-09-11T09:49:54Z</time>
</trkpt>
<trkpt lat="48.002552" lon="10.588312">
<ele>603.595</ele>
<time>2020-09-11T09:49:55Z</time>
</trkpt>
<trkpt lat="48.002575" lon="10.588406">
<ele>603.299</ele>
<time>2020-09-11T09:49:56Z</time>
</trkpt>
<trkpt lat="48.002598" lon="10.588498">
<ele>603.068</ele>
<time>2020-09-11T09:49:57Z</time>
</trkpt>
<trkpt lat="48.002617" lon="10.588592">
<ele>602.844</ele>
<time>2020-09-11T09:49:58Z</time>
</trkpt>
<trkpt lat="48.002636" lon="10.588685">
<ele>602.469</ele>
<time>2020-09-11T09:49:59Z</time>
</trkpt>
<trkpt lat="48.002659" lon="10.588777">
<ele>602.188</ele>
<time>2020-09-11T09:50:00Z</time>
</trkpt>
<trkpt lat="48.002678" lon="10.58887">
<ele>602.017</ele>
<time>2020-09-11T09:50:01Z</time>
</trkpt>
<trkpt lat="48.002701" lon="10.588964">
<ele>601.616</ele>
<time>2020-09-11T09:50:02Z</time>
</trkpt>
<trkpt lat="48.002716" lon="10.589055">
<ele>601.362</ele>
<time>2020-09-11T09:50:03Z</time>
</trkpt>
<trkpt lat="48.002735" lon="10.589148">
<ele>600.882</ele>
<time>2020-09-11T09:50:04Z</time>
</trkpt>
<trkpt lat="48.00275" lon="10.589245">
<ele>600.455</ele>
<time>2020-09-11T09:50:05Z</time>
</trkpt>
<trkpt lat="48.002766" lon="10.589342">
<ele>600.129</ele>
<time>2020-09-11T09:50:06Z</time>
</trkpt>
<trkpt lat="48.002781" lon="10.589438">
<ele>599.926</ele>
<time>2020-09-11T09:50:07Z</time>
</trkpt>
<trkpt lat="48.0028" lon="10.589535">
<ele>599.464</ele>
<time>2020-09-11T09:50:08Z</time>
</trkpt>
<trkpt lat="48.002811" lon="10.589627">
<ele>599.155</ele>
<time>2020-09-11T09:50:09Z</time>
</trkpt>
<trkpt lat="48.002834" lon="10.589722">
<ele>598.61</ele>
<time>2020-09-11T09:50:10Z</time>
</trkpt>
<trkpt lat="48.002861" lon="10.589815">
<ele>598.183</ele>
<time>2020-09-11T09:50:11Z</time>
</trkpt>
<trkpt lat="48.002899" lon="10.589904">
<ele>597.832</ele>
<time>2020-09-11T09:50:12Z</time>
</trkpt>
<trkpt lat="48.002918" lon="10.589982">
<ele>597.669</ele>
<time>2020-09-11T09:50:13Z</time>
</trkpt>
<trkpt lat="48.002937" lon="10.590055">
<ele>597.266</ele>
<time>2020-09-11T09:50:14Z</time>
</trkpt>
<trkpt lat="48.002953" lon="10.590116">
<ele>596.943</ele>
<time>2020-09-11T09:50:15Z</time>
</trkpt>
<trkpt lat="48.002972" lon="10.590165">
<ele>596.721</ele>
<time>2020-09-11T09:50:16Z</time>
</trkpt>
<trkpt lat="48.002995" lon="10.590217">
<ele>596.558</ele>
<time>2020-09-11T09:50:17Z</time>
</trkpt>
<trkpt lat="48.00301" lon="10.590263">
<ele>596.457</ele>
<time>2020-09-11T09:50:18Z</time>
</trkpt>
<trkpt lat="48.003029" lon="10.590302">
<ele>596.376</ele>
<time>2020-09-11T09:50:19Z</time>
</trkpt>
<trkpt lat="48.003033" lon="10.590337">
<ele>596.32</ele>
<time>2020-09-11T09:50:20Z</time>
</trkpt>
<trkpt lat="48.003044" lon="10.590378">
<ele>596.287</ele>
<time>2020-09-11T09:50:21Z</time>
</trkpt>
<trkpt lat="48.003048" lon="10.59043">
<ele>596.287</ele>
<time>2020-09-11T09:50:22Z</time>
</trkpt>
<trkpt lat="48.003048" lon="10.590488">
<ele>596.287</ele>
<time>2020-09-11T09:50:23Z</time>
</trkpt>
<trkpt lat="48.003052" lon="10.590549">
<ele>596.287</ele>
<time>2020-09-11T09:50:24Z</time>
</trkpt>
<trkpt lat="48.003052" lon="10.590611">
<ele>596.287</ele>
<time>2020-09-11T09:50:25Z</time>
</trkpt>
<trkpt lat="48.003052" lon="10.590675">
<ele>596.287</ele>
<time>2020-09-11T09:50:26Z</time>
</trkpt>
<trkpt lat="48.003052" lon="10.59074">
<ele>596.287</ele>
<time>2020-09-11T09:50:27Z</time>
</trkpt>
<trkpt lat="48.003052" lon="10.590807">
<ele>596.287</ele>
<time>2020-09-11T09:50:28Z</time>
</trkpt>
<trkpt lat="48.00304" lon="10.59087">
<ele>596.007</ele>
<time>2020-09-11T09:50:29Z</time>
</trkpt>
<trkpt lat="48.003033" lon="10.590935">
<ele>595.807</ele>
<time>2020-09-11T09:50:30Z</time>
</trkpt>
<trkpt lat="48.003029" lon="10.591005">
<ele>595.654</ele>
<time>2020-09-11T09:50:31Z</time>
</trkpt>
<trkpt lat="48.003021" lon="10.591066">
<ele>595.541</ele>
<time>2020-09-11T09:50:32Z</time>
</trkpt>
<trkpt lat="48.003021" lon="10.591132">
<ele>595.457</ele>
<time>2020-09-11T09:50:33Z</time>
</trkpt>
<trkpt lat="48.003017" lon="10.591199">
<ele>595.398</ele>
<time>2020-09-11T09:50:34Z</time>
</trkpt>
<trkpt lat="48.003021" lon="10.591271">
<ele>595.345</ele>
<time>2020-09-11T09:50:35Z</time>
</trkpt>
<trkpt lat="48.003017" lon="10.591345">
<ele>595.319</ele>
<time>2020-09-11T09:50:36Z</time>
</trkpt>
<trkpt lat="48.003014" lon="10.591425">
<ele>595.319</ele>
<time>2020-09-11T09:50:37Z</time>
</trkpt>
<trkpt lat="48.00301" lon="10.591502">
<ele>595.319</ele>
<time>2020-09-11T09:50:38Z</time>
</trkpt>
<trkpt lat="48.00301" lon="10.591574">
<ele>595.319</ele>
<time>2020-09-11T09:50:39Z</time>
</trkpt>
<trkpt lat="48.00301" lon="10.591647">
<ele>595.319</ele>
<time>2020-09-11T09:50:40Z</time>
</trkpt>
<trkpt lat="48.00301" lon="10.591721">
<ele>595.319</ele>
<time>2020-09-11T09:50:41Z</time>
</trkpt>
<trkpt lat="48.003006" lon="10.591792">
<ele>595.319</ele>
<time>2020-09-11T09:50:42Z</time>
</trkpt>
<trkpt lat="48.003014" lon="10.591863">
<ele>595.319</ele>
<time>2020-09-11T09:50:43Z</time>
</trkpt>
<trkpt lat="48.003014" lon="10.591928">
<ele>595.319</ele>
<time>2020-09-11T09:50:44Z</time>
</trkpt>
<trkpt lat="48.003014" lon="10.592">
<ele>595.319</ele>
<time>2020-09-11T09:50:45Z</time>
</trkpt>
<trkpt lat="48.00301" lon="10.592072">
<ele>595.319</ele>
<time>2020-09-11T09:50:46Z</time>
</trkpt>
<trkpt lat="48.003006" lon="10.592138">
<ele>595.319</ele>
<time>2020-09-11T09:50:47Z</time>
</trkpt>
<trkpt lat="48.002995" lon="10.592205">
<ele>595.319</ele>
<time>2020-09-11T09:50:48Z</time>
</trkpt>
<trkpt lat="48.002987" lon="10.592274">
<ele>595.319</ele>
<time>2020-09-11T09:50:49Z</time>
</trkpt>
<trkpt lat="48.002979" lon="10.59234">
<ele>595.319</ele>
<time>2020-09-11T09:50:50Z</time>
</trkpt>
<trkpt lat="48.002968" lon="10.592402">
<ele>595.564</ele>
<time>2020-09-11T09:50:51Z</time>
</trkpt>
<trkpt lat="48.002956" lon="10.59246">
<ele>595.757</ele>
<time>2020-09-11T09:50:52Z</time>
</trkpt>
<trkpt lat="48.002956" lon="10.592521">
<ele>595.878</ele>
<time>2020-09-11T09:50:53Z</time>
</trkpt>
<trkpt lat="48.002941" lon="10.592573">
<ele>596.221</ele>
<time>2020-09-11T09:50:54Z</time>
</trkpt>
<trkpt lat="48.002937" lon="10.592626">
<ele>596.532</ele>
<time>2020-09-11T09:50:55Z</time>
</trkpt>
<trkpt lat="48.002922" lon="10.592669">
<ele>596.774</ele>
<time>2020-09-11T09:50:56Z</time>
</trkpt>
<trkpt lat="48.002899" lon="10.592709">
<ele>596.941</ele>
<time>2020-09-11T09:50:57Z</time>
</trkpt>
<trkpt lat="48.002876" lon="10.59274">
<ele>597.286</ele>
<time>2020-09-11T09:50:58Z</time>
</trkpt>
<trkpt lat="48.00285" lon="10.592774">
<ele>597.548</ele>
<time>2020-09-11T09:50:59Z</time>
</trkpt>
<trkpt lat="48.002827" lon="10.592813">
<ele>597.755</ele>
<time>2020-09-11T09:51:00Z</time>
</trkpt>
<trkpt lat="48.002804" lon="10.592856">
<ele>597.905</ele>
<time>2020-09-11T09:51:01Z</time>
</trkpt>
<trkpt lat="48.0028" lon="10.592907">
<ele>598.017</ele>
<time>2020-09-11T09:51:02Z</time>
</trkpt>
<trkpt lat="48.002781" lon="10.592967">
<ele>598.061</ele>
<time>2020-09-11T09:51:03Z</time>
</trkpt>
<trkpt lat="48.002769" lon="10.593023">
<ele>598.334</ele>
<time>2020-09-11T09:51:04Z</time>
</trkpt>
<trkpt lat="48.002762" lon="10.593081">
<ele>598.569</ele>
<time>2020-09-11T09:51:05Z</time>
</trkpt>
<trkpt lat="48.00275" lon="10.593137">
<ele>598.714</ele>
<time>2020-09-11T09:51:06Z</time>
</trkpt>
<trkpt lat="48.002743" lon="10.593193">
<ele>599.095</ele>
<time>2020-09-11T09:51:07Z</time>
</trkpt>
<trkpt lat="48.002739" lon="10.593246">
<ele>599.4</ele>
<time>2020-09-11T09:51:08Z</time>
</trkpt>
<trkpt lat="48.002739" lon="10.5933">
<ele>599.602</ele>
<time>2020-09-11T09:51:09Z</time>
</trkpt>
<trkpt lat="48.002735" lon="10.59335">
<ele>600.017</ele>
<time>2020-09-11T09:51:10Z</time>
</trkpt>
<trkpt lat="48.002731" lon="10.593398">
<ele>600.331</ele>
<time>2020-09-11T09:51:11Z</time>
</trkpt>
<trkpt lat="48.002728" lon="10.593443">
<ele>600.618</ele>
<time>2020-09-11T09:51:12Z</time>
</trkpt>
<trkpt lat="48.002724" lon="10.593487">
<ele>600.732</ele>
<time>2020-09-11T09:51:13Z</time>
</trkpt>
<trkpt lat="48.00272" lon="10.593532">
<ele>601.076</ele>
<time>2020-09-11T09:51:14Z</time>
</trkpt>
<trkpt lat="48.002728" lon="10.593576">
<ele>601.359</ele>
<time>2020-09-11T09:51:15Z</time>
</trkpt>
<trkpt lat="48.002731" lon="10.593623">
<ele>601.586</ele>
<time>2020-09-11T09:51:16Z</time>
</trkpt>
<trkpt lat="48.002728" lon="10.593672">
<ele>601.75</ele>
<time>2020-09-11T09:51:17Z</time>
</trkpt>
<trkpt lat="48.00272" lon="10.593719">
<ele>601.842</ele>
<time>2020-09-11T09:51:18Z</time>
</trkpt>
<trkpt lat="48.002712" lon="10.593765">
<ele>602.167</ele>
<time>2020-09-11T09:51:19Z</time>
</trkpt>
<trkpt lat="48.002705" lon="10.593817">
<ele>602.426</ele>
<time>2020-09-11T09:51:20Z</time>
</trkpt>
<trkpt lat="48.002701" lon="10.593868">
<ele>602.616</ele>
<time>2020-09-11T09:51:21Z</time>
</trkpt>
<trkpt lat="48.002701" lon="10.593922">
<ele>602.757</ele>
<time>2020-09-11T09:51:22Z</time>
</trkpt>
<trkpt lat="48.002697" lon="10.593966">
<ele>602.842</ele>
<time>2020-09-11T09:51:23Z</time>
</trkpt>
<trkpt lat="48.002693" lon="10.594012">
<ele>602.901</ele>
<time>2020-09-11T09:51:24Z</time>
</trkpt>
<trkpt lat="48.002689" lon="10.594058">
<ele>602.953</ele>
<time>2020-09-11T09:51:25Z</time>
</trkpt>
<trkpt lat="48.002682" lon="10.594102">
<ele>602.979</ele>
<time>2020-09-11T09:51:26Z</time>
</trkpt>
<trkpt lat="48.002678" lon="10.594147">
<ele>603.353</ele>
<time>2020-09-11T09:51:27Z</time>
</trkpt>
<trkpt lat="48.002674" lon="10.594198">
<ele>603.643</ele>
<time>2020-09-11T09:51:28Z</time>
</trkpt>
<trkpt lat="48.00267" lon="10.594257">
<ele>603.868</ele>
<time>2020-09-11T09:51:29Z</time>
</trkpt>
<trkpt lat="48.00267" lon="10.594316">
<ele>604.048</ele>
<time>2020-09-11T09:51:30Z</time>
</trkpt>
<trkpt lat="48.002666" lon="10.594385">
<ele>604.173</ele>
<time>2020-09-11T09:51:31Z</time>
</trkpt>
<trkpt lat="48.002663" lon="10.59445">
<ele>604.233</ele>
<time>2020-09-11T09:51:32Z</time>
</trkpt>
<trkpt lat="48.002659" lon="10.594513">
<ele>604.273</ele>
<time>2020-09-11T09:51:33Z</time>
</trkpt>
<trkpt lat="48.002651" lon="10.594574">
<ele>604.3</ele>
<time>2020-09-11T09:51:34Z</time>
</trkpt>
<trkpt lat="48.002644" lon="10.594637">
<ele>604.3</ele>
<time>2020-09-11T09:51:35Z</time>
</trkpt>
<trkpt lat="48.002644" lon="10.594691">
<ele>604.3</ele>
<time>2020-09-11T09:51:36Z</time>
</trkpt>
<trkpt lat="48.00264" lon="10.594746">
<ele>604.3</ele>
<time>2020-09-11T09:51:37Z</time>
</trkpt>
<trkpt lat="48.00264" lon="10.594802">
<ele>604.3</ele>
<time>2020-09-11T09:51:38Z</time>
</trkpt>
<trkpt lat="48.002644" lon="10.594855">
<ele>604.3</ele>
<time>2020-09-11T09:51:39Z</time>
</trkpt>
<trkpt lat="48.002647" lon="10.594907">
<ele>604.3</ele>
<time>2020-09-11T09:51:40Z</time>
</trkpt>
<trkpt lat="48.002647" lon="10.594963">
<ele>604.3</ele>
<time>2020-09-11T09:51:41Z</time>
</trkpt>
<trkpt lat="48.002651" lon="10.595016">
<ele>604.3</ele>
<time>2020-09-11T09:51:42Z</time>
</trkpt>
<trkpt lat="48.002655" lon="10.595064">
<ele>604.3</ele>
<time>2020-09-11T09:51:43Z</time>
</trkpt>
<trkpt lat="48.002659" lon="10.595113">
<ele>604.3</ele>
<time>2020-09-11T09:51:44Z</time>
</trkpt>
<trkpt lat="48.002659" lon="10.595163">
<ele>604.3</ele>
<time>2020-09-11T09:51:45Z</time>
</trkpt>
<trkpt lat="48.002659" lon="10.595219">
<ele>604.3</ele>
<time>2020-09-11T09:51:46Z</time>
</trkpt>
<trkpt lat="48.002663" lon="10.595272">
<ele>604.3</ele>
<time>2020-09-11T09:51:47Z</time>
</trkpt>
<trkpt lat="48.002663" lon="10.595324">
<ele>604.3</ele>
<time>2020-09-11T09:51:48Z</time>
</trkpt>
<trkpt lat="48.002663" lon="10.595377">
<ele>604.3</ele>
<time>2020-09-11T09:51:49Z</time>
</trkpt>
<trkpt lat="48.002666" lon="10.595435">
<ele>604.3</ele>
<time>2020-09-11T09:51:50Z</time>
</trkpt>
<trkpt lat="48.00267" lon="10.595487">
<ele>604.3</ele>
<time>2020-09-11T09:51:51Z</time>
</trkpt>
<trkpt lat="48.002666" lon="10.595542">
<ele>604.3</ele>
<time>2020-09-11T09:51:52Z</time>
</trkpt>
<trkpt lat="48.00267" lon="10.595596">
<ele>604.3</ele>
<time>2020-09-11T09:51:53Z</time>
</trkpt>
<trkpt lat="48.00267" lon="10.595658">
<ele>604.3</ele>
<time>2020-09-11T09:51:54Z</time>
</trkpt>
<trkpt lat="48.00267" lon="10.595722">
<ele>604.3</ele>
<time>2020-09-11T09:51:55Z</time>
</trkpt>
<trkpt lat="48.002674" lon="10.595785">
<ele>604.3</ele>
<time>2020-09-11T09:51:56Z</time>
</trkpt>
<trkpt lat="48.002678" lon="10.59585">
<ele>604.3</ele>
<time>2020-09-11T09:51:57Z</time>
</trkpt>
<trkpt lat="48.002678" lon="10.595917">
<ele>604.3</ele>
<time>2020-09-11T09:51:58Z</time>
</trkpt>
<trkpt lat="48.002682" lon="10.595984">
<ele>604.3</ele>
<time>2020-09-11T09:51:59Z</time>
</trkpt>
<trkpt lat="48.002693" lon="10.596057">
<ele>604.3</ele>
<time>2020-09-11T09:52:00Z</time>
</trkpt>
<trkpt lat="48.002701" lon="10.596135">
<ele>604.3</ele>
<time>2020-09-11T09:52:01Z</time>
</trkpt>
<trkpt lat="48.002705" lon="10.596213">
<ele>604.3</ele>
<time>2020-09-11T09:52:02Z</time>
</trkpt>
<trkpt lat="48.002716" lon="10.596294">
<ele>604.3</ele>
<time>2020-09-11T09:52:03Z</time>
</trkpt>
<trkpt lat="48.002731" lon="10.59638">
<ele>604.095</ele>
<time>2020-09-11T09:52:04Z</time>
</trkpt>
<trkpt lat="48.002743" lon="10.59647">
<ele>603.9</ele>
<time>2020-09-11T09:52:05Z</time>
</trkpt>
<trkpt lat="48.002758" lon="10.596557">
<ele>603.747</ele>
<time>2020-09-11T09:52:06Z</time>
</trkpt>
<trkpt lat="48.002769" lon="10.59665">
<ele>603.649</ele>
<time>2020-09-11T09:52:07Z</time>
</trkpt>
<trkpt lat="48.002781" lon="10.596735">
<ele>603.308</ele>
<time>2020-09-11T09:52:08Z</time>
</trkpt>
<trkpt lat="48.0028" lon="10.596825">
<ele>603.039</ele>
<time>2020-09-11T09:52:09Z</time>
</trkpt>
<trkpt lat="48.002815" lon="10.596922">
<ele>602.866</ele>
<time>2020-09-11T09:52:10Z</time>
</trkpt>
<trkpt lat="48.002831" lon="10.597016">
<ele>602.441</ele>
<time>2020-09-11T09:52:11Z</time>
</trkpt>
<trkpt lat="48.00285" lon="10.597114">
<ele>602.133</ele>
<time>2020-09-11T09:52:12Z</time>
</trkpt>
<trkpt lat="48.002865" lon="10.597214">
<ele>601.65</ele>
<time>2020-09-11T09:52:13Z</time>
</trkpt>
<trkpt lat="48.00288" lon="10.597314">
<ele>601.294</ele>
<time>2020-09-11T09:52:14Z</time>
</trkpt>
<trkpt lat="48.002895" lon="10.597415">
<ele>600.991</ele>
<time>2020-09-11T09:52:15Z</time>
</trkpt>
<trkpt lat="48.002911" lon="10.59752">
<ele>600.512</ele>
<time>2020-09-11T09:52:16Z</time>
</trkpt>
<trkpt lat="48.00293" lon="10.597625">
<ele>600.158</ele>
<time>2020-09-11T09:52:17Z</time>
</trkpt>
<trkpt lat="48.002941" lon="10.597729">
<ele>599.933</ele>
<time>2020-09-11T09:52:18Z</time>
</trkpt>
<trkpt lat="48.002956" lon="10.597836">
<ele>599.475</ele>
<time>2020-09-11T09:52:19Z</time>
</trkpt>
<trkpt lat="48.002968" lon="10.597943">
<ele>599.128</ele>
<time>2020-09-11T09:52:20Z</time>
</trkpt>
<trkpt lat="48.002995" lon="10.598048">
<ele>598.797</ele>
<time>2020-09-11T09:52:21Z</time>
</trkpt>
<trkpt lat="48.003006" lon="10.598153">
<ele>598.645</ele>
<time>2020-09-11T09:52:22Z</time>
</trkpt>
<trkpt lat="48.003021" lon="10.598259">
<ele>598.552</ele>
<time>2020-09-11T09:52:23Z</time>
</trkpt>
<trkpt lat="48.00304" lon="10.598362">
<ele>598.487</ele>
<time>2020-09-11T09:52:24Z</time>
</trkpt>
<trkpt lat="48.003059" lon="10.59846">
<ele>598.428</ele>
<time>2020-09-11T09:52:25Z</time>
</trkpt>
<trkpt lat="48.003067" lon="10.598546">
<ele>598.4</ele>
<time>2020-09-11T09:52:26Z</time>
</trkpt>
<trkpt lat="48.00309" lon="10.598635">
<ele>598.078</ele>
<time>2020-09-11T09:52:27Z</time>
</trkpt>
<trkpt lat="48.003098" lon="10.598716">
<ele>597.827</ele>
<time>2020-09-11T09:52:28Z</time>
</trkpt>
<trkpt lat="48.003113" lon="10.598793">
<ele>597.635</ele>
<time>2020-09-11T09:52:29Z</time>
</trkpt>
<trkpt lat="48.003124" lon="10.598868">
<ele>597.492</ele>
<time>2020-09-11T09:52:30Z</time>
</trkpt>
<trkpt lat="48.003132" lon="10.598945">
<ele>597.39</ele>
<time>2020-09-11T09:52:31Z</time>
</trkpt>
<trkpt lat="48.003139" lon="10.599015">
<ele>597.323</ele>
<time>2020-09-11T09:52:32Z</time>
</trkpt>
<trkpt lat="48.003143" lon="10.59908">
<ele>597.286</ele>
<time>2020-09-11T09:52:33Z</time>
</trkpt>
<trkpt lat="48.003151" lon="10.59915">
<ele>597.255</ele>
<time>2020-09-11T09:52:34Z</time>
</trkpt>
<trkpt lat="48.003155" lon="10.59922">
<ele>597.255</ele>
<time>2020-09-11T09:52:35Z</time>
</trkpt>
<trkpt lat="48.003151" lon="10.59929">
<ele>597.255</ele>
<time>2020-09-11T09:52:36Z</time>
</trkpt>
<trkpt lat="48.003155" lon="10.599355">
<ele>597.255</ele>
<time>2020-09-11T09:52:37Z</time>
</trkpt>
<trkpt lat="48.003162" lon="10.599418">
<ele>597.255</ele>
<time>2020-09-11T09:52:38Z</time>
</trkpt>
<trkpt lat="48.003162" lon="10.599479">
<ele>597.255</ele>
<time>2020-09-11T09:52:39Z</time>
</trkpt>
<trkpt lat="48.003166" lon="10.599531">
<ele>597.255</ele>
<time>2020-09-11T09:52:40Z</time>
</trkpt>
<trkpt lat="48.003174" lon="10.599584">
<ele>597.255</ele>
<time>2020-09-11T09:52:41Z</time>
</trkpt>
<trkpt lat="48.003197" lon="10.599647">
<ele>597.255</ele>
<time>2020-09-11T09:52:42Z</time>
</trkpt>
<trkpt lat="48.003216" lon="10.599707">
<ele>597.255</ele>
<time>2020-09-11T09:52:43Z</time>
</trkpt>
<trkpt lat="48.003223" lon="10.599775">
<ele>597.255</ele>
<time>2020-09-11T09:52:44Z</time>
</trkpt>
<trkpt lat="48.003231" lon="10.599848">
<ele>597.255</ele>
<time>2020-09-11T09:52:45Z</time>
</trkpt>
<trkpt lat="48.003239" lon="10.59992">
<ele>597.255</ele>
<time>2020-09-11T09:52:46Z</time>
</trkpt>
<trkpt lat="48.003254" lon="10.59999">
<ele>597.255</ele>
<time>2020-09-11T09:52:47Z</time>
</trkpt>
<trkpt lat="48.003269" lon="10.600063">
<ele>597.255</ele>
<time>2020-09-11T09:52:48Z</time>
</trkpt>
<trkpt lat="48.003288" lon="10.600137">
<ele>597.255</ele>
<time>2020-09-11T09:52:49Z</time>
</trkpt>
<trkpt lat="48.003307" lon="10.600208">
<ele>597.255</ele>
<time>2020-09-11T09:52:50Z</time>
</trkpt>
<trkpt lat="48.003323" lon="10.600279">
<ele>597.255</ele>
<time>2020-09-11T09:52:51Z</time>
</trkpt>
<trkpt lat="48.003345" lon="10.60035">
<ele>597.255</ele>
<time>2020-09-11T09:52:52Z</time>
</trkpt>
<trkpt lat="48.003361" lon="10.60042">
<ele>597.255</ele>
<time>2020-09-11T09:52:53Z</time>
</trkpt>
<trkpt lat="48.003384" lon="10.600491">
<ele>597.255</ele>
<time>2020-09-11T09:52:54Z</time>
</trkpt>
<trkpt lat="48.003399" lon="10.600564">
<ele>597.255</ele>
<time>2020-09-11T09:52:55Z</time>
</trkpt>
<trkpt lat="48.003418" lon="10.600638">
<ele>597.255</ele>
<time>2020-09-11T09:52:56Z</time>
</trkpt>
<trkpt lat="48.003433" lon="10.600717">
<ele>597.255</ele>
<time>2020-09-11T09:52:57Z</time>
</trkpt>
<trkpt lat="48.003452" lon="10.600792">
<ele>597.255</ele>
<time>2020-09-11T09:52:58Z</time>
</trkpt>
<trkpt lat="48.003464" lon="10.600865">
<ele>597.255</ele>
<time>2020-09-11T09:52:59Z</time>
</trkpt>
<trkpt lat="48.003483" lon="10.600939">
<ele>597.255</ele>
<time>2020-09-11T09:53:00Z</time>
</trkpt>
<trkpt lat="48.003494" lon="10.60101">
<ele>597.255</ele>
<time>2020-09-11T09:53:01Z</time>
</trkpt>
<trkpt lat="48.003506" lon="10.601084">
<ele>597.255</ele>
<time>2020-09-11T09:53:02Z</time>
</trkpt>
<trkpt lat="48.003517" lon="10.601158">
<ele>597.255</ele>
<time>2020-09-11T09:53:03Z</time>
</trkpt>
<trkpt lat="48.003536" lon="10.60123">
<ele>597.255</ele>
<time>2020-09-11T09:53:04Z</time>
</trkpt>
<trkpt lat="48.003551" lon="10.601298">
<ele>597.255</ele>
<time>2020-09-11T09:53:05Z</time>
</trkpt>
<trkpt lat="48.003559" lon="10.60137">
<ele>596.942</ele>
<time>2020-09-11T09:53:06Z</time>
</trkpt>
<trkpt lat="48.003571" lon="10.601438">
<ele>596.701</ele>
<time>2020-09-11T09:53:07Z</time>
</trkpt>
<trkpt lat="48.003582" lon="10.601504">
<ele>596.519</ele>
<time>2020-09-11T09:53:08Z</time>
</trkpt>
<trkpt lat="48.003593" lon="10.601575">
<ele>596.378</ele>
<time>2020-09-11T09:53:09Z</time>
</trkpt>
<trkpt lat="48.003609" lon="10.601645">
<ele>596.29</ele>
<time>2020-09-11T09:53:10Z</time>
</trkpt>
<trkpt lat="48.003616" lon="10.601715">
<ele>596.232</ele>
<time>2020-09-11T09:53:11Z</time>
</trkpt>
<trkpt lat="48.003624" lon="10.601787">
<ele>596.203</ele>
<time>2020-09-11T09:53:12Z</time>
</trkpt>
<trkpt lat="48.003635" lon="10.60186">
<ele>596.199</ele>
<time>2020-09-11T09:53:13Z</time>
</trkpt>
<trkpt lat="48.003647" lon="10.60193">
<ele>596.199</ele>
<time>2020-09-11T09:53:14Z</time>
</trkpt>
<trkpt lat="48.003662" lon="10.602003">
<ele>596.199</ele>
<time>2020-09-11T09:53:15Z</time>
</trkpt>
<trkpt lat="48.003677" lon="10.602074">
<ele>596.199</ele>
<time>2020-09-11T09:53:16Z</time>
</trkpt>
<trkpt lat="48.003689" lon="10.602143">
<ele>596.199</ele>
<time>2020-09-11T09:53:17Z</time>
</trkpt>
<trkpt lat="48.003704" lon="10.602215">
<ele>596.199</ele>
<time>2020-09-11T09:53:18Z</time>
</trkpt>
<trkpt lat="48.003712" lon="10.602286">
<ele>596.199</ele>
<time>2020-09-11T09:53:19Z</time>
</trkpt>
<trkpt lat="48.003731" lon="10.602357">
<ele>596.199</ele>
<time>2020-09-11T09:53:20Z</time>
</trkpt>
<trkpt lat="48.003754" lon="10.602427">
<ele>596.199</ele>
<time>2020-09-11T09:53:21Z</time>
</trkpt>
<trkpt lat="48.003777" lon="10.602498">
<ele>596.199</ele>
<time>2020-09-11T09:53:22Z</time>
</trkpt>
<trkpt lat="48.003792" lon="10.602571">
<ele>596.199</ele>
<time>2020-09-11T09:53:23Z</time>
</trkpt>
<trkpt lat="48.003807" lon="10.602642">
<ele>596.199</ele>
<time>2020-09-11T09:53:24Z</time>
</trkpt>
<trkpt lat="48.003815" lon="10.602709">
<ele>596.199</ele>
<time>2020-09-11T09:53:25Z</time>
</trkpt>
<trkpt lat="48.003819" lon="10.602774">
<ele>596.199</ele>
<time>2020-09-11T09:53:26Z</time>
</trkpt>
<trkpt lat="48.003822" lon="10.602831">
<ele>596.199</ele>
<time>2020-09-11T09:53:27Z</time>
</trkpt>
<trkpt lat="48.003822" lon="10.602881">
<ele>596.199</ele>
<time>2020-09-11T09:53:28Z</time>
</trkpt>
<trkpt lat="48.003822" lon="10.602923">
<ele>596.199</ele>
<time>2020-09-11T09:53:29Z</time>
</trkpt>
<trkpt lat="48.003822" lon="10.602955">
<ele>596.199</ele>
<time>2020-09-11T09:53:30Z</time>
</trkpt>
<trkpt lat="48.003822" lon="10.602986">
<ele>596.199</ele>
<time>2020-09-11T09:53:31Z</time>
</trkpt>
<trkpt lat="48.003822" lon="10.603028">
<ele>596.199</ele>
<time>2020-09-11T09:53:32Z</time>
</trkpt>
<trkpt lat="48.003815" lon="10.603073">
<ele>596.199</ele>
<time>2020-09-11T09:53:33Z</time>
</trkpt>
<trkpt lat="48.003811" lon="10.603118">
<ele>596.199</ele>
<time>2020-09-11T09:53:34Z</time>
</trkpt>
<trkpt lat="48.003803" lon="10.603166">
<ele>596.199</ele>
<time>2020-09-11T09:53:35Z</time>
</trkpt>
<trkpt lat="48.003788" lon="10.603209">
<ele>596.199</ele>
<time>2020-09-11T09:53:36Z</time>
</trkpt>
<trkpt lat="48.003777" lon="10.60326">
<ele>596.199</ele>
<time>2020-09-11T09:53:37Z</time>
</trkpt>
<trkpt lat="48.003757" lon="10.603314">
<ele>596.199</ele>
<time>2020-09-11T09:53:38Z</time>
</trkpt>
<trkpt lat="48.003731" lon="10.603365">
<ele>596.199</ele>
<time>2020-09-11T09:53:39Z</time>
</trkpt>
<trkpt lat="48.003704" lon="10.603409">
<ele>596.199</ele>
<time>2020-09-11T09:53:40Z</time>
</trkpt>
<trkpt lat="48.00367" lon="10.603445">
<ele>596.199</ele>
<time>2020-09-11T09:53:41Z</time>
</trkpt>
<trkpt lat="48.003639" lon="10.603476">
<ele>596.199</ele>
<time>2020-09-11T09:53:42Z</time>
</trkpt>
<trkpt lat="48.003609" lon="10.603499">
<ele>596.199</ele>
<time>2020-09-11T09:53:43Z</time>
</trkpt>
<trkpt lat="48.003571" lon="10.603523">
<ele>596.199</ele>
<time>2020-09-11T09:53:44Z</time>
</trkpt>
<trkpt lat="48.003536" lon="10.603545">
<ele>596.199</ele>
<time>2020-09-11T09:53:45Z</time>
</trkpt>
<trkpt lat="48.003502" lon="10.603568">
<ele>596.199</ele>
<time>2020-09-11T09:53:46Z</time>
</trkpt>
<trkpt lat="48.003468" lon="10.603598">
<ele>596.199</ele>
<time>2020-09-11T09:53:47Z</time>
</trkpt>
<trkpt lat="48.003433" lon="10.603623">
<ele>596.199</ele>
<time>2020-09-11T09:53:48Z</time>
</trkpt>
<trkpt lat="48.003395" lon="10.603643">
<ele>596.199</ele>
<time>2020-09-11T09:53:49Z</time>
</trkpt>
<trkpt lat="48.003357" lon="10.60367">
<ele>596.199</ele>
<time>2020-09-11T09:53:50Z</time>
</trkpt>
<trkpt lat="48.003326" lon="10.603698">
<ele>596.199</ele>
<time>2020-09-11T09:53:51Z</time>
</trkpt>
<trkpt lat="48.003292" lon="10.603724">
<ele>596.199</ele>
<time>2020-09-11T09:53:52Z</time>
</trkpt>
<trkpt lat="48.003258" lon="10.603745">
<ele>596.199</ele>
<time>2020-09-11T09:53:53Z</time>
</trkpt>
<trkpt lat="48.003223" lon="10.603765">
<ele>596.199</ele>
<time>2020-09-11T09:53:54Z</time>
</trkpt>
<trkpt lat="48.003189" lon="10.603786">
<ele>596.199</ele>
<time>2020-09-11T09:53:55Z</time>
</trkpt>
<trkpt lat="48.003147" lon="10.603813">
<ele>596.199</ele>
<time>2020-09-11T09:53:56Z</time>
</trkpt>
<trkpt lat="48.003105" lon="10.603838">
<ele>596.199</ele>
<time>2020-09-11T09:53:57Z</time>
</trkpt>
<trkpt lat="48.003067" lon="10.603873">
<ele>596.453</ele>
<time>2020-09-11T09:53:58Z</time>
</trkpt>
<trkpt lat="48.003029" lon="10.603913">
<ele>596.651</ele>
<time>2020-09-11T09:53:59Z</time>
</trkpt>
<trkpt lat="48.002979" lon="10.603955">
<ele>596.8</ele>
<time>2020-09-11T09:54:00Z</time>
</trkpt>
<trkpt lat="48.00293" lon="10.603993">
<ele>596.906</ele>
<time>2020-09-11T09:54:01Z</time>
</trkpt>
<trkpt lat="48.00288" lon="10.60403">
<ele>596.976</ele>
<time>2020-09-11T09:54:02Z</time>
</trkpt>
<trkpt lat="48.002834" lon="10.60407">
<ele>597.024</ele>
<time>2020-09-11T09:54:03Z</time>
</trkpt>
<trkpt lat="48.002785" lon="10.604109">
<ele>597.057</ele>
<time>2020-09-11T09:54:04Z</time>
</trkpt>
<trkpt lat="48.002735" lon="10.604149">
<ele>597.079</ele>
<time>2020-09-11T09:54:05Z</time>
</trkpt>
<trkpt lat="48.002686" lon="10.604197">
<ele>597.079</ele>
<time>2020-09-11T09:54:06Z</time>
</trkpt>
<trkpt lat="48.002636" lon="10.604235">
<ele>597.08</ele>
<time>2020-09-11T09:54:07Z</time>
</trkpt>
<trkpt lat="48.002583" lon="10.60427">
<ele>597.08</ele>
<time>2020-09-11T09:54:08Z</time>
</trkpt>
<trkpt lat="48.002537" lon="10.60431">
<ele>597.079</ele>
<time>2020-09-11T09:54:09Z</time>
</trkpt>
<trkpt lat="48.002491" lon="10.604345">
<ele>597.079</ele>
<time>2020-09-11T09:54:10Z</time>
</trkpt>
<trkpt lat="48.002445" lon="10.604375">
<ele>597.079</ele>
<time>2020-09-11T09:54:11Z</time>
</trkpt>
<trkpt lat="48.002399" lon="10.604403">
<ele>597.08</ele>
<time>2020-09-11T09:54:12Z</time>
</trkpt>
<trkpt lat="48.002357" lon="10.604429">
<ele>597.079</ele>
<time>2020-09-11T09:54:13Z</time>
</trkpt>
<trkpt lat="48.002312" lon="10.604455">
<ele>597.08</ele>
<time>2020-09-11T09:54:14Z</time>
</trkpt>
<trkpt lat="48.002274" lon="10.604478">
<ele>597.079</ele>
<time>2020-09-11T09:54:15Z</time>
</trkpt>
<trkpt lat="48.002228" lon="10.604511">
<ele>597.079</ele>
<time>2020-09-11T09:54:16Z</time>
</trkpt>
<trkpt lat="48.002182" lon="10.604535">
<ele>597.079</ele>
<time>2020-09-11T09:54:17Z</time>
</trkpt>
<trkpt lat="48.002148" lon="10.604559">
<ele>597.08</ele>
<time>2020-09-11T09:54:18Z</time>
</trkpt>
<trkpt lat="48.002102" lon="10.604576">
<ele>597.079</ele>
<time>2020-09-11T09:54:19Z</time>
</trkpt>
<trkpt lat="48.002056" lon="10.604593">
<ele>597.079</ele>
<time>2020-09-11T09:54:20Z</time>
</trkpt>
<trkpt lat="48.002018" lon="10.604615">
<ele>597.079</ele>
<time>2020-09-11T09:54:21Z</time>
</trkpt>
<trkpt lat="48.001972" lon="10.604635">
<ele>597.08</ele>
<time>2020-09-11T09:54:22Z</time>
</trkpt>
<trkpt lat="48.001926" lon="10.604658">
<ele>597.079</ele>
<time>2020-09-11T09:54:23Z</time>
</trkpt>
<trkpt lat="48.001881" lon="10.60468">
<ele>597.079</ele>
<time>2020-09-11T09:54:24Z</time>
</trkpt>
<trkpt lat="48.001831" lon="10.604702">
<ele>597.08</ele>
<time>2020-09-11T09:54:25Z</time>
</trkpt>
<trkpt lat="48.001785" lon="10.604723">
<ele>597.08</ele>
<time>2020-09-11T09:54:26Z</time>
</trkpt>
<trkpt lat="48.00174" lon="10.604748">
<ele>597.08</ele>
<time>2020-09-11T09:54:27Z</time>
</trkpt>
<trkpt lat="48.00169" lon="10.604776">
<ele>597.08</ele>
<time>2020-09-11T09:54:28Z</time>
</trkpt>
<trkpt lat="48.00164" lon="10.604805">
<ele>597.08</ele>
<time>2020-09-11T09:54:29Z</time>
</trkpt>
<trkpt lat="48.001595" lon="10.604834">
<ele>597.08</ele>
<time>2020-09-11T09:54:30Z</time>
</trkpt>
<trkpt lat="48.001549" lon="10.60486">
<ele>597.353</ele>
<time>2020-09-11T09:54:31Z</time>
</trkpt>
<trkpt lat="48.001495" lon="10.60489">
<ele>597.567</ele>
<time>2020-09-11T09:54:32Z</time>
</trkpt>
<trkpt lat="48.00145" lon="10.604917">
<ele>597.733</ele>
<time>2020-09-11T09:54:33Z</time>
</trkpt>
<trkpt lat="48.0014" lon="10.604945">
<ele>597.844</ele>
<time>2020-09-11T09:54:34Z</time>
</trkpt>
<trkpt lat="48.00135" lon="10.604979">
<ele>597.966</ele>
<time>2020-09-11T09:54:35Z</time>
</trkpt>
<trkpt lat="48.001301" lon="10.605007">
<ele>598.052</ele>
<time>2020-09-11T09:54:36Z</time>
</trkpt>
<trkpt lat="48.001255" lon="10.605037">
<ele>598.109</ele>
<time>2020-09-11T09:54:37Z</time>
</trkpt>
<trkpt lat="48.001205" lon="10.605064">
<ele>598.136</ele>
<time>2020-09-11T09:54:38Z</time>
</trkpt>
<trkpt lat="48.00116" lon="10.605093">
<ele>598.136</ele>
<time>2020-09-11T09:54:39Z</time>
</trkpt>
<trkpt lat="48.00111" lon="10.605122">
<ele>598.136</ele>
<time>2020-09-11T09:54:40Z</time>
</trkpt>
<trkpt lat="48.00106" lon="10.60515">
<ele>598.136</ele>
<time>2020-09-11T09:54:41Z</time>
</trkpt>
<trkpt lat="48.001011" lon="10.605179">
<ele>598.136</ele>
<time>2020-09-11T09:54:42Z</time>
</trkpt>
<trkpt lat="48.000965" lon="10.605205">
<ele>598.136</ele>
<time>2020-09-11T09:54:43Z</time>
</trkpt>
<trkpt lat="48.000916" lon="10.605233">
<ele>598.136</ele>
<time>2020-09-11T09:54:44Z</time>
</trkpt>
<trkpt lat="48.000866" lon="10.605267">
<ele>598.136</ele>
<time>2020-09-11T09:54:45Z</time>
</trkpt>
<trkpt lat="48.000816" lon="10.605297">
<ele>598.136</ele>
<time>2020-09-11T09:54:46Z</time>
</trkpt>
<trkpt lat="48.000771" lon="10.60533">
<ele>598.136</ele>
<time>2020-09-11T09:54:47Z</time>
</trkpt>
<trkpt lat="48.000725" lon="10.605364">
<ele>598.136</ele>
<time>2020-09-11T09:54:48Z</time>
</trkpt>
<trkpt lat="48.000683" lon="10.605393">
<ele>598.136</ele>
<time>2020-09-11T09:54:49Z</time>
</trkpt>
<trkpt lat="48.000645" lon="10.605422">
<ele>598.136</ele>
<time>2020-09-11T09:54:50Z</time>
</trkpt>
<trkpt lat="48.000603" lon="10.605453">
<ele>598.136</ele>
<time>2020-09-11T09:54:51Z</time>
</trkpt>
<trkpt lat="48.000565" lon="10.605487">
<ele>598.136</ele>
<time>2020-09-11T09:54:52Z</time>
</trkpt>
<trkpt lat="48.000523" lon="10.605523">
<ele>598.136</ele>
<time>2020-09-11T09:54:53Z</time>
</trkpt>
<trkpt lat="48.000488" lon="10.60556">
<ele>598.136</ele>
<time>2020-09-11T09:54:54Z</time>
</trkpt>
<trkpt lat="48.000454" lon="10.605597">
<ele>598.136</ele>
<time>2020-09-11T09:54:55Z</time>
</trkpt>
<trkpt lat="48.00042" lon="10.60563">
<ele>598.136</ele>
<time>2020-09-11T09:54:56Z</time>
</trkpt>
<trkpt lat="48.000381" lon="10.605665">
<ele>598.136</ele>
<time>2020-09-11T09:54:57Z</time>
</trkpt>
<trkpt lat="48.000347" lon="10.6057">
<ele>598.136</ele>
<time>2020-09-11T09:54:58Z</time>
</trkpt>
<trkpt lat="48.000309" lon="10.605737">
<ele>598.136</ele>
<time>2020-09-11T09:54:59Z</time>
</trkpt>
<trkpt lat="48.000271" lon="10.605774">
<ele>598.136</ele>
<time>2020-09-11T09:55:00Z</time>
</trkpt>
<trkpt lat="48.000237" lon="10.605812">
<ele>598.136</ele>
<time>2020-09-11T09:55:01Z</time>
</trkpt>
<trkpt lat="48.000198" lon="10.605856">
<ele>598.136</ele>
<time>2020-09-11T09:55:02Z</time>
</trkpt>
<trkpt lat="48.000164" lon="10.605908">
<ele>598.136</ele>
<time>2020-09-11T09:55:03Z</time>
</trkpt>
<trkpt lat="48.000126" lon="10.60596">
<ele>598.136</ele>
<time>2020-09-11T09:55:04Z</time>
</trkpt>
<trkpt lat="48.000095" lon="10.606013">
<ele>598.136</ele>
<time>2020-09-11T09:55:05Z</time>
</trkpt>
<trkpt lat="48.000065" lon="10.606065">
<ele>598.432</ele>
<time>2020-09-11T09:55:06Z</time>
</trkpt>
<trkpt lat="48.000038" lon="10.606112">
<ele>598.658</ele>
<time>2020-09-11T09:55:07Z</time>
</trkpt>
<trkpt lat="48.000019" lon="10.606149">
<ele>598.818</ele>
<time>2020-09-11T09:55:08Z</time>
</trkpt>
<trkpt lat="47.999996" lon="10.606173">
<ele>598.936</ele>
<time>2020-09-11T09:55:09Z</time>
</trkpt>
<trkpt lat="47.999977" lon="10.606185">
<ele>599.017</ele>
<time>2020-09-11T09:55:10Z</time>
</trkpt>
<trkpt lat="47.999966" lon="10.606195">
<ele>599.071</ele>
<time>2020-09-11T09:55:11Z</time>
</trkpt>
<trkpt lat="47.99995" lon="10.606205">
<ele>599.104</ele>
<time>2020-09-11T09:55:12Z</time>
</trkpt>
<trkpt lat="47.999935" lon="10.606212">
<ele>599.104</ele>
<time>2020-09-11T09:55:13Z</time>
</trkpt>
<trkpt lat="47.999924" lon="10.606206">
<ele>599.104</ele>
<time>2020-09-11T09:55:14Z</time>
</trkpt>
<trkpt lat="47.999905" lon="10.606195">
<ele>599.104</ele>
<time>2020-09-11T09:55:15Z</time>
</trkpt>
<trkpt lat="47.999886" lon="10.60618">
<ele>599.104</ele>
<time>2020-09-11T09:55:16Z</time>
</trkpt>
<trkpt lat="47.999866" lon="10.606158">
<ele>599.104</ele>
<time>2020-09-11T09:55:17Z</time>
</trkpt>
<trkpt lat="47.999844" lon="10.606125">
<ele>599.104</ele>
<time>2020-09-11T09:55:18Z</time>
</trkpt>
<trkpt lat="47.999817" lon="10.606087">
<ele>599.104</ele>
<time>2020-09-11T09:55:19Z</time>
</trkpt>
<trkpt lat="47.99979" lon="10.606051">
<ele>599.104</ele>
<time>2020-09-11T09:55:20Z</time>
</trkpt>
<trkpt lat="47.999752" lon="10.606022">
<ele>599.104</ele>
<time>2020-09-11T09:55:21Z</time>
</trkpt>
<trkpt lat="47.999714" lon="10.605998">
<ele>599.104</ele>
<time>2020-09-11T09:55:22Z</time>
</trkpt>
<trkpt lat="47.999676" lon="10.60598">
<ele>599.104</ele>
<time>2020-09-11T09:55:23Z</time>
</trkpt>
<trkpt lat="47.999638" lon="10.605959">
<ele>599.104</ele>
<time>2020-09-11T09:55:24Z</time>
</trkpt>
<trkpt lat="47.999603" lon="10.605933">
<ele>599.104</ele>
<time>2020-09-11T09:55:25Z</time>
</trkpt>
<trkpt lat="47.999573" lon="10.605906">
<ele>599.104</ele>
<time>2020-09-11T09:55:26Z</time>
</trkpt>
<trkpt lat="47.999538" lon="10.605886">
<ele>599.104</ele>
<time>2020-09-11T09:55:27Z</time>
</trkpt>
<trkpt lat="47.999519" lon="10.605882">
<ele>599.104</ele>
<time>2020-09-11T09:55:28Z</time>
</trkpt>
<trkpt lat="47.9995" lon="10.605898">
<ele>599.104</ele>
<time>2020-09-11T09:55:29Z</time>
</trkpt>
<trkpt lat="47.999493" lon="10.605928">
<ele>599.104</ele>
<time>2020-09-11T09:55:30Z</time>
</trkpt>
<trkpt lat="47.9995" lon="10.60596">
<ele>599.104</ele>
<time>2020-09-11T09:55:31Z</time>
</trkpt>
<trkpt lat="47.999516" lon="10.605989">
<ele>599.104</ele>
<time>2020-09-11T09:55:32Z</time>
</trkpt>
<trkpt lat="47.999535" lon="10.606009">
<ele>599.104</ele>
<time>2020-09-11T09:55:33Z</time>
</trkpt>
<trkpt lat="47.999561" lon="10.606017">
<ele>599.104</ele>
<time>2020-09-11T09:55:34Z</time>
</trkpt>
<trkpt lat="47.999592" lon="10.606013">
<ele>599.104</ele>
<time>2020-09-11T09:55:35Z</time>
</trkpt>
<trkpt lat="47.999619" lon="10.606018">
<ele>599.104</ele>
<time>2020-09-11T09:55:36Z</time>
</trkpt>
<trkpt lat="47.999653" lon="10.606031">
<ele>599.104</ele>
<time>2020-09-11T09:55:37Z</time>
</trkpt>
<trkpt lat="47.99968" lon="10.606051">
<ele>599.104</ele>
<time>2020-09-11T09:55:38Z</time>
</trkpt>
<trkpt lat="47.999714" lon="10.606076">
<ele>599.104</ele>
<time>2020-09-11T09:55:39Z</time>
</trkpt>
<trkpt lat="47.999748" lon="10.606099">
<ele>599.104</ele>
<time>2020-09-11T09:55:40Z</time>
</trkpt>
<trkpt lat="47.999786" lon="10.606124">
<ele>599.104</ele>
<time>2020-09-11T09:55:41Z</time>
</trkpt>
<trkpt lat="47.999821" lon="10.60615">
<ele>599.104</ele>
<time>2020-09-11T09:55:42Z</time>
</trkpt>
<trkpt lat="47.999855" lon="10.60618">
<ele>599.104</ele>
<time>2020-09-11T09:55:43Z</time>
</trkpt>
<trkpt lat="47.999886" lon="10.606216">
<ele>599.104</ele>
<time>2020-09-11T09:55:44Z</time>
</trkpt>
<trkpt lat="47.999901" lon="10.606265">
<ele>599.104</ele>
<time>2020-09-11T09:55:45Z</time>
</trkpt>
<trkpt lat="47.999905" lon="10.606318">
<ele>599.104</ele>
<time>2020-09-11T09:55:46Z</time>
</trkpt>
<trkpt lat="47.999901" lon="10.606374">
<ele>599.104</ele>
<time>2020-09-11T09:55:47Z</time>
</trkpt>
<trkpt lat="47.999893" lon="10.606428">
<ele>599.104</ele>
<time>2020-09-11T09:55:48Z</time>
</trkpt>
<trkpt lat="47.999874" lon="10.606483">
<ele>599.104</ele>
<time>2020-09-11T09:55:49Z</time>
</trkpt>
<trkpt lat="47.999859" lon="10.606535">
<ele>599.104</ele>
<time>2020-09-11T09:55:50Z</time>
</trkpt>
<trkpt lat="47.999836" lon="10.606586">
<ele>599.104</ele>
<time>2020-09-11T09:55:51Z</time>
</trkpt>
<trkpt lat="47.999821" lon="10.606638">
<ele>599.104</ele>
<time>2020-09-11T09:55:52Z</time>
</trkpt>
<trkpt lat="47.999802" lon="10.60669">
<ele>599.104</ele>
<time>2020-09-11T09:55:53Z</time>
</trkpt>
<trkpt lat="47.999779" lon="10.606742">
<ele>599.104</ele>
<time>2020-09-11T09:55:54Z</time>
</trkpt>
<trkpt lat="47.99976" lon="10.606795">
<ele>599.104</ele>
<time>2020-09-11T09:55:55Z</time>
</trkpt>
<trkpt lat="47.999741" lon="10.606849">
<ele>599.104</ele>
<time>2020-09-11T09:55:56Z</time>
</trkpt>
<trkpt lat="47.999722" lon="10.606899">
<ele>599.104</ele>
<time>2020-09-11T09:55:57Z</time>
</trkpt>
<trkpt lat="47.999702" lon="10.606945">
<ele>599.104</ele>
<time>2020-09-11T09:55:58Z</time>
</trkpt>
<trkpt lat="47.999676" lon="10.606979">
<ele>599.104</ele>
<time>2020-09-11T09:55:59Z</time>
</trkpt>
<trkpt lat="47.999649" lon="10.607004">
<ele>599.104</ele>
<time>2020-09-11T09:56:00Z</time>
</trkpt>
<trkpt lat="47.999615" lon="10.607013">
<ele>599.104</ele>
<time>2020-09-11T09:56:01Z</time>
</trkpt>
<trkpt lat="47.999584" lon="10.607013">
<ele>599.104</ele>
<time>2020-09-11T09:56:02Z</time>
</trkpt>
<trkpt lat="47.999546" lon="10.607">
<ele>599.104</ele>
<time>2020-09-11T09:56:03Z</time>
</trkpt>
<trkpt lat="47.999508" lon="10.606979">
<ele>599.104</ele>
<time>2020-09-11T09:56:04Z</time>
</trkpt>
<trkpt lat="47.99947" lon="10.606963">
<ele>599.104</ele>
<time>2020-09-11T09:56:05Z</time>
</trkpt>
<trkpt lat="47.999428" lon="10.606947">
<ele>599.104</ele>
<time>2020-09-11T09:56:06Z</time>
</trkpt>
<trkpt lat="47.999386" lon="10.606931">
<ele>599.104</ele>
<time>2020-09-11T09:56:07Z</time>
</trkpt>
<trkpt lat="47.999344" lon="10.606914">
<ele>599.104</ele>
<time>2020-09-11T09:56:08Z</time>
</trkpt>
<trkpt lat="47.999306" lon="10.606897">
<ele>599.104</ele>
<time>2020-09-11T09:56:09Z</time>
</trkpt>
<trkpt lat="47.99926" lon="10.60688">
<ele>599.104</ele>
<time>2020-09-11T09:56:10Z</time>
</trkpt>
<trkpt lat="47.999214" lon="10.606864">
<ele>599.104</ele>
<time>2020-09-11T09:56:11Z</time>
</trkpt>
<trkpt lat="47.999172" lon="10.606849">
<ele>599.329</ele>
<time>2020-09-11T09:56:12Z</time>
</trkpt>
<trkpt lat="47.999123" lon="10.606833">
<ele>599.506</ele>
<time>2020-09-11T09:56:13Z</time>
</trkpt>
<trkpt lat="47.999077" lon="10.60682">
<ele>599.624</ele>
<time>2020-09-11T09:56:14Z</time>
</trkpt>
<trkpt lat="47.999027" lon="10.606807">
<ele>599.752</ele>
<time>2020-09-11T09:56:15Z</time>
</trkpt>
<trkpt lat="47.998981" lon="10.606795">
<ele>599.853</ele>
<time>2020-09-11T09:56:16Z</time>
</trkpt>
<trkpt lat="47.998932" lon="10.606784">
<ele>599.921</ele>
<time>2020-09-11T09:56:17Z</time>
</trkpt>
<trkpt lat="47.998886" lon="10.606771">
<ele>599.964</ele>
<time>2020-09-11T09:56:18Z</time>
</trkpt>
<trkpt lat="47.998833" lon="10.60676">
<ele>599.985</ele>
<time>2020-09-11T09:56:19Z</time>
</trkpt>
<trkpt lat="47.998787" lon="10.606749">
<ele>599.985</ele>
<time>2020-09-11T09:56:20Z</time>
</trkpt>
<trkpt lat="47.998734" lon="10.606735">
<ele>599.985</ele>
<time>2020-09-11T09:56:21Z</time>
</trkpt>
<trkpt lat="47.998684" lon="10.606726">
<ele>599.985</ele>
<time>2020-09-11T09:56:22Z</time>
</trkpt>
<trkpt lat="47.998627" lon="10.606717">
<ele>599.985</ele>
<time>2020-09-11T09:56:23Z</time>
</trkpt>
<trkpt lat="47.998573" lon="10.606707">
<ele>599.985</ele>
<time>2020-09-11T09:56:24Z</time>
</trkpt>
<trkpt lat="47.99852" lon="10.606696">
<ele>599.985</ele>
<time>2020-09-11T09:56:25Z</time>
</trkpt>
<trkpt lat="47.998463" lon="10.606688">
<ele>599.985</ele>
<time>2020-09-11T09:56:26Z</time>
</trkpt>
<trkpt lat="47.998405" lon="10.606686">
<ele>599.985</ele>
<time>2020-09-11T09:56:27Z</time>
</trkpt>
<trkpt lat="47.998344" lon="10.60668">
<ele>599.985</ele>
<time>2020-09-11T09:56:28Z</time>
</trkpt>
<trkpt lat="47.998287" lon="10.60668">
<ele>599.985</ele>
<time>2020-09-11T09:56:29Z</time>
</trkpt>
<trkpt lat="47.99823" lon="10.60668">
<ele>599.985</ele>
<time>2020-09-11T09:56:30Z</time>
</trkpt>
<trkpt lat="47.998169" lon="10.606678">
<ele>599.985</ele>
<time>2020-09-11T09:56:31Z</time>
</trkpt>
<trkpt lat="47.998108" lon="10.606677">
<ele>599.985</ele>
<time>2020-09-11T09:56:32Z</time>
</trkpt>
<trkpt lat="47.998051" lon="10.606675">
<ele>599.985</ele>
<time>2020-09-11T09:56:33Z</time>
</trkpt>
<trkpt lat="47.997993" lon="10.606675">
<ele>599.985</ele>
<time>2020-09-11T09:56:34Z</time>
</trkpt>
<trkpt lat="47.997936" lon="10.606678">
<ele>599.985</ele>
<time>2020-09-11T09:56:35Z</time>
</trkpt>
<trkpt lat="47.997875" lon="10.606684">
<ele>599.985</ele>
<time>2020-09-11T09:56:36Z</time>
</trkpt>
<trkpt lat="47.99781" lon="10.606688">
<ele>599.985</ele>
<time>2020-09-11T09:56:37Z</time>
</trkpt>
<trkpt lat="47.997753" lon="10.606691">
<ele>599.985</ele>
<time>2020-09-11T09:56:38Z</time>
</trkpt>
<trkpt lat="47.997692" lon="10.606696">
<ele>599.985</ele>
<time>2020-09-11T09:56:39Z</time>
</trkpt>
<trkpt lat="47.997631" lon="10.606703">
<ele>599.985</ele>
<time>2020-09-11T09:56:40Z</time>
</trkpt>
<trkpt lat="47.997574" lon="10.606709">
<ele>599.985</ele>
<time>2020-09-11T09:56:41Z</time>
</trkpt>
<trkpt lat="47.997509" lon="10.606717">
<ele>599.985</ele>
<time>2020-09-11T09:56:42Z</time>
</trkpt>
<trkpt lat="47.997452" lon="10.606727">
<ele>599.985</ele>
<time>2020-09-11T09:56:43Z</time>
</trkpt>
<trkpt lat="47.997387" lon="10.606733">
<ele>599.985</ele>
<time>2020-09-11T09:56:44Z</time>
</trkpt>
<trkpt lat="47.99733" lon="10.606744">
<ele>599.985</ele>
<time>2020-09-11T09:56:45Z</time>
</trkpt>
<trkpt lat="47.997272" lon="10.606757">
<ele>599.985</ele>
<time>2020-09-11T09:56:46Z</time>
</trkpt>
<trkpt lat="47.997211" lon="10.606765">
<ele>599.985</ele>
<time>2020-09-11T09:56:47Z</time>
</trkpt>
<trkpt lat="47.997154" lon="10.606773">
<ele>599.985</ele>
<time>2020-09-11T09:56:48Z</time>
</trkpt>
<trkpt lat="47.997093" lon="10.606785">
<ele>599.985</ele>
<time>2020-09-11T09:56:49Z</time>
</trkpt>
<trkpt lat="47.997032" lon="10.6068">
<ele>599.985</ele>
<time>2020-09-11T09:56:50Z</time>
</trkpt>
<trkpt lat="47.996975" lon="10.606815">
<ele>599.985</ele>
<time>2020-09-11T09:56:51Z</time>
</trkpt>
<trkpt lat="47.996918" lon="10.60683">
<ele>599.985</ele>
<time>2020-09-11T09:56:52Z</time>
</trkpt>
<trkpt lat="47.996861" lon="10.606847">
<ele>599.985</ele>
<time>2020-09-11T09:56:53Z</time>
</trkpt>
<trkpt lat="47.996803" lon="10.60686">
<ele>599.985</ele>
<time>2020-09-11T09:56:54Z</time>
</trkpt>
<trkpt lat="47.996742" lon="10.606874">
<ele>599.985</ele>
<time>2020-09-11T09:56:55Z</time>
</trkpt>
<trkpt lat="47.996681" lon="10.606887">
<ele>599.985</ele>
<time>2020-09-11T09:56:56Z</time>
</trkpt>
<trkpt lat="47.996624" lon="10.606901">
<ele>599.985</ele>
<time>2020-09-11T09:56:57Z</time>
</trkpt>
<trkpt lat="47.996567" lon="10.606916">
<ele>599.985</ele>
<time>2020-09-11T09:56:58Z</time>
</trkpt>
<trkpt lat="47.99651" lon="10.606932">
<ele>599.985</ele>
<time>2020-09-11T09:56:59Z</time>
</trkpt>
<trkpt lat="47.996449" lon="10.606947">
<ele>599.985</ele>
<time>2020-09-11T09:57:00Z</time>
</trkpt>
<trkpt lat="47.996391" lon="10.606963">
<ele>599.985</ele>
<time>2020-09-11T09:57:01Z</time>
</trkpt>
<trkpt lat="47.996334" lon="10.606979">
<ele>599.985</ele>
<time>2020-09-11T09:57:02Z</time>
</trkpt>
<trkpt lat="47.996277" lon="10.606997">
<ele>599.985</ele>
<time>2020-09-11T09:57:03Z</time>
</trkpt>
<trkpt lat="47.996216" lon="10.607012">
<ele>599.985</ele>
<time>2020-09-11T09:57:04Z</time>
</trkpt>
<trkpt lat="47.996159" lon="10.607027">
<ele>599.985</ele>
<time>2020-09-11T09:57:05Z</time>
</trkpt>
<trkpt lat="47.996105" lon="10.607039">
<ele>599.985</ele>
<time>2020-09-11T09:57:06Z</time>
</trkpt>
<trkpt lat="47.996048" lon="10.607055">
<ele>599.985</ele>
<time>2020-09-11T09:57:07Z</time>
</trkpt>
<trkpt lat="47.995987" lon="10.607072">
<ele>599.985</ele>
<time>2020-09-11T09:57:08Z</time>
</trkpt>
<trkpt lat="47.99593" lon="10.607088">
<ele>599.985</ele>
<time>2020-09-11T09:57:09Z</time>
</trkpt>
<trkpt lat="47.995876" lon="10.607105">
<ele>599.985</ele>
<time>2020-09-11T09:57:10Z</time>
</trkpt>
<trkpt lat="47.995819" lon="10.607121">
<ele>599.985</ele>
<time>2020-09-11T09:57:11Z</time>
</trkpt>
<trkpt lat="47.995762" lon="10.607137">
<ele>599.985</ele>
<time>2020-09-11T09:57:12Z</time>
</trkpt>
<trkpt lat="47.995705" lon="10.607151">
<ele>599.985</ele>
<time>2020-09-11T09:57:13Z</time>
</trkpt>
<trkpt lat="47.995647" lon="10.607165">
<ele>599.985</ele>
<time>2020-09-11T09:57:14Z</time>
</trkpt>
<trkpt lat="47.995594" lon="10.60718">
<ele>599.985</ele>
<time>2020-09-11T09:57:15Z</time>
</trkpt>
<trkpt lat="47.995537" lon="10.607195">
<ele>599.985</ele>
<time>2020-09-11T09:57:16Z</time>
</trkpt>
<trkpt lat="47.995483" lon="10.607208">
<ele>599.985</ele>
<time>2020-09-11T09:57:17Z</time>
</trkpt>
<trkpt lat="47.99543" lon="10.607222">
<ele>599.985</ele>
<time>2020-09-11T09:57:18Z</time>
</trkpt>
<trkpt lat="47.995373" lon="10.607235">
<ele>599.985</ele>
<time>2020-09-11T09:57:19Z</time>
</trkpt>
<trkpt lat="47.995323" lon="10.607248">
<ele>599.985</ele>
<time>2020-09-11T09:57:20Z</time>
</trkpt>
<trkpt lat="47.99527" lon="10.607262">
<ele>599.985</ele>
<time>2020-09-11T09:57:21Z</time>
</trkpt>
<trkpt lat="47.995213" lon="10.607275">
<ele>599.985</ele>
<time>2020-09-11T09:57:22Z</time>
</trkpt>
<trkpt lat="47.995159" lon="10.607289">
<ele>599.985</ele>
<time>2020-09-11T09:57:23Z</time>
</trkpt>
<trkpt lat="47.995106" lon="10.607306">
<ele>599.985</ele>
<time>2020-09-11T09:57:24Z</time>
</trkpt>
<trkpt lat="47.995045" lon="10.607318">
<ele>599.985</ele>
<time>2020-09-11T09:57:25Z</time>
</trkpt>
<trkpt lat="47.994991" lon="10.607333">
<ele>599.985</ele>
<time>2020-09-11T09:57:26Z</time>
</trkpt>
<trkpt lat="47.994934" lon="10.60735">
<ele>599.985</ele>
<time>2020-09-11T09:57:27Z</time>
</trkpt>
<trkpt lat="47.994877" lon="10.607363">
<ele>599.985</ele>
<time>2020-09-11T09:57:28Z</time>
</trkpt>
<trkpt lat="47.994823" lon="10.607379">
<ele>599.985</ele>
<time>2020-09-11T09:57:29Z</time>
</trkpt>
<trkpt lat="47.99477" lon="10.607391">
<ele>599.985</ele>
<time>2020-09-11T09:57:30Z</time>
</trkpt>
<trkpt lat="47.994713" lon="10.607405">
<ele>599.985</ele>
<time>2020-09-11T09:57:31Z</time>
</trkpt>
<trkpt lat="47.994652" lon="10.60742">
<ele>599.985</ele>
<time>2020-09-11T09:57:32Z</time>
</trkpt>
<trkpt lat="47.994595" lon="10.607433">
<ele>599.985</ele>
<time>2020-09-11T09:57:33Z</time>
</trkpt>
<trkpt lat="47.994541" lon="10.607449">
<ele>599.985</ele>
<time>2020-09-11T09:57:34Z</time>
</trkpt>
<trkpt lat="47.994488" lon="10.607463">
<ele>599.985</ele>
<time>2020-09-11T09:57:35Z</time>
</trkpt>
<trkpt lat="47.994431" lon="10.607477">
<ele>599.985</ele>
<time>2020-09-11T09:57:36Z</time>
</trkpt>
<trkpt lat="47.994373" lon="10.607491">
<ele>599.985</ele>
<time>2020-09-11T09:57:37Z</time>
</trkpt>
<trkpt lat="47.99432" lon="10.607505">
<ele>599.985</ele>
<time>2020-09-11T09:57:38Z</time>
</trkpt>
<trkpt lat="47.994259" lon="10.607518">
<ele>599.985</ele>
<time>2020-09-11T09:57:39Z</time>
</trkpt>
<trkpt lat="47.994205" lon="10.607532">
<ele>599.985</ele>
<time>2020-09-11T09:57:40Z</time>
</trkpt>
<trkpt lat="47.994148" lon="10.607545">
<ele>599.985</ele>
<time>2020-09-11T09:57:41Z</time>
</trkpt>
<trkpt lat="47.994091" lon="10.60756">
<ele>599.985</ele>
<time>2020-09-11T09:57:42Z</time>
</trkpt>
<trkpt lat="47.99403" lon="10.607574">
<ele>599.985</ele>
<time>2020-09-11T09:57:43Z</time>
</trkpt>
<trkpt lat="47.993977" lon="10.607589">
<ele>600.201</ele>
<time>2020-09-11T09:57:44Z</time>
</trkpt>
<trkpt lat="47.993919" lon="10.607601">
<ele>600.405</ele>
<time>2020-09-11T09:57:45Z</time>
</trkpt>
<trkpt lat="47.993866" lon="10.607618">
<ele>600.573</ele>
<time>2020-09-11T09:57:46Z</time>
</trkpt>
<trkpt lat="47.993805" lon="10.607633">
<ele>600.706</ele>
<time>2020-09-11T09:57:47Z</time>
</trkpt>
<trkpt lat="47.993748" lon="10.60765">
<ele>600.808</ele>
<time>2020-09-11T09:57:48Z</time>
</trkpt>
<trkpt lat="47.99369" lon="10.607664">
<ele>600.882</ele>
<time>2020-09-11T09:57:49Z</time>
</trkpt>
<trkpt lat="47.993633" lon="10.607678">
<ele>600.93</ele>
<time>2020-09-11T09:57:50Z</time>
</trkpt>
<trkpt lat="47.993572" lon="10.607692">
<ele>600.953</ele>
<time>2020-09-11T09:57:51Z</time>
</trkpt>
<trkpt lat="47.993519" lon="10.607705">
<ele>600.953</ele>
<time>2020-09-11T09:57:52Z</time>
</trkpt>
<trkpt lat="47.993462" lon="10.60772">
<ele>600.953</ele>
<time>2020-09-11T09:57:53Z</time>
</trkpt>
<trkpt lat="47.993404" lon="10.607735">
<ele>600.953</ele>
<time>2020-09-11T09:57:54Z</time>
</trkpt>
<trkpt lat="47.993347" lon="10.60775">
<ele>600.954</ele>
<time>2020-09-11T09:57:55Z</time>
</trkpt>
<trkpt lat="47.993286" lon="10.607765">
<ele>600.953</ele>
<time>2020-09-11T09:57:56Z</time>
</trkpt>
<trkpt lat="47.993229" lon="10.60778">
<ele>600.953</ele>
<time>2020-09-11T09:57:57Z</time>
</trkpt>
<trkpt lat="47.993172" lon="10.607799">
<ele>600.953</ele>
<time>2020-09-11T09:57:58Z</time>
</trkpt>
<trkpt lat="47.993114" lon="10.607813">
<ele>600.953</ele>
<time>2020-09-11T09:57:59Z</time>
</trkpt>
<trkpt lat="47.993053" lon="10.607828">
<ele>600.953</ele>
<time>2020-09-11T09:58:00Z</time>
</trkpt>
<trkpt lat="47.992996" lon="10.607841">
<ele>600.953</ele>
<time>2020-09-11T09:58:01Z</time>
</trkpt>
<trkpt lat="47.992939" lon="10.607857">
<ele>600.953</ele>
<time>2020-09-11T09:58:02Z</time>
</trkpt>
<trkpt lat="47.992882" lon="10.60787">
<ele>600.953</ele>
<time>2020-09-11T09:58:03Z</time>
</trkpt>
<trkpt lat="47.992825" lon="10.607884">
<ele>600.953</ele>
<time>2020-09-11T09:58:04Z</time>
</trkpt>
<trkpt lat="47.992767" lon="10.607902">
<ele>600.953</ele>
<time>2020-09-11T09:58:05Z</time>
</trkpt>
<trkpt lat="47.992706" lon="10.607918">
<ele>600.953</ele>
<time>2020-09-11T09:58:06Z</time>
</trkpt>
<trkpt lat="47.992649" lon="10.607933">
<ele>600.953</ele>
<time>2020-09-11T09:58:07Z</time>
</trkpt>
<trkpt lat="47.992592" lon="10.607949">
<ele>600.953</ele>
<time>2020-09-11T09:58:08Z</time>
</trkpt>
<trkpt lat="47.992531" lon="10.607966">
<ele>600.953</ele>
<time>2020-09-11T09:58:09Z</time>
</trkpt>
<trkpt lat="47.992474" lon="10.607983">
<ele>600.953</ele>
<time>2020-09-11T09:58:10Z</time>
</trkpt>
<trkpt lat="47.992416" lon="10.608">
<ele>600.953</ele>
<time>2020-09-11T09:58:11Z</time>
</trkpt>
<trkpt lat="47.992359" lon="10.608014">
<ele>600.953</ele>
<time>2020-09-11T09:58:12Z</time>
</trkpt>
<trkpt lat="47.992302" lon="10.608028">
<ele>600.954</ele>
<time>2020-09-11T09:58:13Z</time>
</trkpt>
<trkpt lat="47.992245" lon="10.608046">
<ele>601.167</ele>
<time>2020-09-11T09:58:14Z</time>
</trkpt>
<trkpt lat="47.992188" lon="10.608062">
<ele>601.37</ele>
<time>2020-09-11T09:58:15Z</time>
</trkpt>
<trkpt lat="47.99213" lon="10.60808">
<ele>601.536</ele>
<time>2020-09-11T09:58:16Z</time>
</trkpt>
<trkpt lat="47.992073" lon="10.6081">
<ele>601.672</ele>
<time>2020-09-11T09:58:17Z</time>
</trkpt>
<trkpt lat="47.992012" lon="10.608118">
<ele>601.776</ele>
<time>2020-09-11T09:58:18Z</time>
</trkpt>
<trkpt lat="47.991951" lon="10.608133">
<ele>601.851</ele>
<time>2020-09-11T09:58:19Z</time>
</trkpt>
<trkpt lat="47.991894" lon="10.60815">
<ele>601.899</ele>
<time>2020-09-11T09:58:20Z</time>
</trkpt>
<trkpt lat="47.99184" lon="10.60817">
<ele>601.922</ele>
<time>2020-09-11T09:58:21Z</time>
</trkpt>
<trkpt lat="47.991779" lon="10.608191">
<ele>601.922</ele>
<time>2020-09-11T09:58:22Z</time>
</trkpt>
<trkpt lat="47.991722" lon="10.608212">
<ele>601.922</ele>
<time>2020-09-11T09:58:23Z</time>
</trkpt>
<trkpt lat="47.991665" lon="10.608232">
<ele>601.922</ele>
<time>2020-09-11T09:58:24Z</time>
</trkpt>
<trkpt lat="47.991608" lon="10.608251">
<ele>601.922</ele>
<time>2020-09-11T09:58:25Z</time>
</trkpt>
<trkpt lat="47.99155" lon="10.608272">
<ele>601.922</ele>
<time>2020-09-11T09:58:26Z</time>
</trkpt>
<trkpt lat="47.991493" lon="10.608293">
<ele>601.922</ele>
<time>2020-09-11T09:58:27Z</time>
</trkpt>
<trkpt lat="47.991436" lon="10.608315">
<ele>601.922</ele>
<time>2020-09-11T09:58:28Z</time>
</trkpt>
<trkpt lat="47.991383" lon="10.608335">
<ele>601.922</ele>
<time>2020-09-11T09:58:29Z</time>
</trkpt>
<trkpt lat="47.991325" lon="10.608356">
<ele>601.922</ele>
<time>2020-09-11T09:58:30Z</time>
</trkpt>
<trkpt lat="47.991264" lon="10.608377">
<ele>601.922</ele>
<time>2020-09-11T09:58:31Z</time>
</trkpt>
<trkpt lat="47.991207" lon="10.608399">
<ele>601.922</ele>
<time>2020-09-11T09:58:32Z</time>
</trkpt>
<trkpt lat="47.991154" lon="10.608425">
<ele>601.922</ele>
<time>2020-09-11T09:58:33Z</time>
</trkpt>
<trkpt lat="47.991096" lon="10.60845">
<ele>601.922</ele>
<time>2020-09-11T09:58:34Z</time>
</trkpt>
<trkpt lat="47.991035" lon="10.608473">
<ele>601.922</ele>
<time>2020-09-11T09:58:35Z</time>
</trkpt>
<trkpt lat="47.990982" lon="10.608497">
<ele>601.922</ele>
<time>2020-09-11T09:58:36Z</time>
</trkpt>
<trkpt lat="47.990929" lon="10.608519">
<ele>601.922</ele>
<time>2020-09-11T09:58:37Z</time>
</trkpt>
<trkpt lat="47.990871" lon="10.608543">
<ele>601.922</ele>
<time>2020-09-11T09:58:38Z</time>
</trkpt>
<trkpt lat="47.990818" lon="10.60857">
<ele>601.922</ele>
<time>2020-09-11T09:58:39Z</time>
</trkpt>
<trkpt lat="47.990761" lon="10.608599">
<ele>601.922</ele>
<time>2020-09-11T09:58:40Z</time>
</trkpt>
<trkpt lat="47.990704" lon="10.608626">
<ele>601.922</ele>
<time>2020-09-11T09:58:41Z</time>
</trkpt>
<trkpt lat="47.99065" lon="10.608651">
<ele>601.922</ele>
<time>2020-09-11T09:58:42Z</time>
</trkpt>
<trkpt lat="47.990593" lon="10.608678">
<ele>601.922</ele>
<time>2020-09-11T09:58:43Z</time>
</trkpt>
<trkpt lat="47.99054" lon="10.608707">
<ele>601.922</ele>
<time>2020-09-11T09:58:44Z</time>
</trkpt>
<trkpt lat="47.990479" lon="10.608735">
<ele>601.922</ele>
<time>2020-09-11T09:58:45Z</time>
</trkpt>
<trkpt lat="47.990425" lon="10.608767">
<ele>601.922</ele>
<time>2020-09-11T09:58:46Z</time>
</trkpt>
<trkpt lat="47.990372" lon="10.608798">
<ele>601.922</ele>
<time>2020-09-11T09:58:47Z</time>
</trkpt>
<trkpt lat="47.990314" lon="10.608829">
<ele>601.922</ele>
<time>2020-09-11T09:58:48Z</time>
</trkpt>
<trkpt lat="47.990257" lon="10.608858">
<ele>601.922</ele>
<time>2020-09-11T09:58:49Z</time>
</trkpt>
<trkpt lat="47.9902" lon="10.608891">
<ele>601.922</ele>
<time>2020-09-11T09:58:50Z</time>
</trkpt>
<trkpt lat="47.990147" lon="10.608923">
<ele>601.922</ele>
<time>2020-09-11T09:58:51Z</time>
</trkpt>
<trkpt lat="47.990089" lon="10.608958">
<ele>602.165</ele>
<time>2020-09-11T09:58:52Z</time>
</trkpt>
<trkpt lat="47.990036" lon="10.608992">
<ele>602.356</ele>
<time>2020-09-11T09:58:53Z</time>
</trkpt>
<trkpt lat="47.989983" lon="10.609025">
<ele>602.488</ele>
<time>2020-09-11T09:58:54Z</time>
</trkpt>
<trkpt lat="47.989922" lon="10.609059">
<ele>602.629</ele>
<time>2020-09-11T09:58:55Z</time>
</trkpt>
<trkpt lat="47.989868" lon="10.609093">
<ele>602.737</ele>
<time>2020-09-11T09:58:56Z</time>
</trkpt>
<trkpt lat="47.989819" lon="10.609125">
<ele>602.815</ele>
<time>2020-09-11T09:58:57Z</time>
</trkpt>
<trkpt lat="47.989761" lon="10.609159">
<ele>602.867</ele>
<time>2020-09-11T09:58:58Z</time>
</trkpt>
<trkpt lat="47.989708" lon="10.609194">
<ele>602.891</ele>
<time>2020-09-11T09:58:59Z</time>
</trkpt>
<trkpt lat="47.989655" lon="10.609229">
<ele>602.891</ele>
<time>2020-09-11T09:59:00Z</time>
</trkpt>
<trkpt lat="47.989601" lon="10.609263">
<ele>602.891</ele>
<time>2020-09-11T09:59:01Z</time>
</trkpt>
<trkpt lat="47.989548" lon="10.609299">
<ele>602.891</ele>
<time>2020-09-11T09:59:02Z</time>
</trkpt>
<trkpt lat="47.989494" lon="10.609332">
<ele>602.891</ele>
<time>2020-09-11T09:59:03Z</time>
</trkpt>
<trkpt lat="47.989441" lon="10.609364">
<ele>602.891</ele>
<time>2020-09-11T09:59:04Z</time>
</trkpt>
<trkpt lat="47.989388" lon="10.609399">
<ele>602.891</ele>
<time>2020-09-11T09:59:05Z</time>
</trkpt>
<trkpt lat="47.989334" lon="10.609432">
<ele>602.891</ele>
<time>2020-09-11T09:59:06Z</time>
</trkpt>
<trkpt lat="47.989281" lon="10.609467">
<ele>602.891</ele>
<time>2020-09-11T09:59:07Z</time>
</trkpt>
<trkpt lat="47.989227" lon="10.609502">
<ele>602.891</ele>
<time>2020-09-11T09:59:08Z</time>
</trkpt>
<trkpt lat="47.989174" lon="10.609542">
<ele>602.891</ele>
<time>2020-09-11T09:59:09Z</time>
</trkpt>
<trkpt lat="47.98912" lon="10.60958">
<ele>602.891</ele>
<time>2020-09-11T09:59:10Z</time>
</trkpt>
<trkpt lat="47.989071" lon="10.609618">
<ele>602.891</ele>
<time>2020-09-11T09:59:11Z</time>
</trkpt>
<trkpt lat="47.989014" lon="10.609658">
<ele>602.891</ele>
<time>2020-09-11T09:59:12Z</time>
</trkpt>
<trkpt lat="47.988964" lon="10.609696">
<ele>602.891</ele>
<time>2020-09-11T09:59:13Z</time>
</trkpt>
<trkpt lat="47.988911" lon="10.609736">
<ele>602.891</ele>
<time>2020-09-11T09:59:14Z</time>
</trkpt>
<trkpt lat="47.988861" lon="10.609776">
<ele>602.891</ele>
<time>2020-09-11T09:59:15Z</time>
</trkpt>
<trkpt lat="47.988808" lon="10.609818">
<ele>602.891</ele>
<time>2020-09-11T09:59:16Z</time>
</trkpt>
<trkpt lat="47.988758" lon="10.609861">
<ele>602.891</ele>
<time>2020-09-11T09:59:17Z</time>
</trkpt>
<trkpt lat="47.988708" lon="10.609905">
<ele>602.891</ele>
<time>2020-09-11T09:59:18Z</time>
</trkpt>
<trkpt lat="47.988655" lon="10.609946">
<ele>602.891</ele>
<time>2020-09-11T09:59:19Z</time>
</trkpt>
<trkpt lat="47.988602" lon="10.609992">
<ele>602.891</ele>
<time>2020-09-11T09:59:20Z</time>
</trkpt>
<trkpt lat="47.988552" lon="10.610038">
<ele>602.891</ele>
<time>2020-09-11T09:59:21Z</time>
</trkpt>
<trkpt lat="47.988503" lon="10.610085">
<ele>603.111</ele>
<time>2020-09-11T09:59:22Z</time>
</trkpt>
<trkpt lat="47.988453" lon="10.61013">
<ele>603.287</ele>
<time>2020-09-11T09:59:23Z</time>
</trkpt>
<trkpt lat="47.988396" lon="10.610175">
<ele>603.406</ele>
<time>2020-09-11T09:59:24Z</time>
</trkpt>
<trkpt lat="47.98835" lon="10.610218">
<ele>603.535</ele>
<time>2020-09-11T09:59:25Z</time>
</trkpt>
<trkpt lat="47.9883" lon="10.610264">
<ele>603.633</ele>
<time>2020-09-11T09:59:26Z</time>
</trkpt>
<trkpt lat="47.988251" lon="10.610309">
<ele>603.704</ele>
<time>2020-09-11T09:59:27Z</time>
</trkpt>
<trkpt lat="47.988197" lon="10.610352">
<ele>603.75</ele>
<time>2020-09-11T09:59:28Z</time>
</trkpt>
<trkpt lat="47.988152" lon="10.610396">
<ele>603.772</ele>
<time>2020-09-11T09:59:29Z</time>
</trkpt>
<trkpt lat="47.988102" lon="10.61044">
<ele>603.772</ele>
<time>2020-09-11T09:59:30Z</time>
</trkpt>
<trkpt lat="47.988052" lon="10.610484">
<ele>603.772</ele>
<time>2020-09-11T09:59:31Z</time>
</trkpt>
<trkpt lat="47.988007" lon="10.61053">
<ele>603.772</ele>
<time>2020-09-11T09:59:32Z</time>
</trkpt>
<trkpt lat="47.987961" lon="10.610575">
<ele>603.772</ele>
<time>2020-09-11T09:59:33Z</time>
</trkpt>
<trkpt lat="47.987911" lon="10.61062">
<ele>603.772</ele>
<time>2020-09-11T09:59:34Z</time>
</trkpt>
<trkpt lat="47.987865" lon="10.610668">
<ele>603.772</ele>
<time>2020-09-11T09:59:35Z</time>
</trkpt>
<trkpt lat="47.98782" lon="10.610715">
<ele>603.772</ele>
<time>2020-09-11T09:59:36Z</time>
</trkpt>
<trkpt lat="47.98777" lon="10.610759">
<ele>604.052</ele>
<time>2020-09-11T09:59:37Z</time>
</trkpt>
<trkpt lat="47.987724" lon="10.610803">
<ele>604.269</ele>
<time>2020-09-11T09:59:38Z</time>
</trkpt>
<trkpt lat="47.987679" lon="10.610848">
<ele>604.435</ele>
<time>2020-09-11T09:59:39Z</time>
</trkpt>
<trkpt lat="47.987633" lon="10.610897">
<ele>604.343</ele>
<time>2020-09-11T09:59:40Z</time>
</trkpt>
<trkpt lat="47.987587" lon="10.610945">
<ele>604.257</ele>
<time>2020-09-11T09:59:41Z</time>
</trkpt>
<trkpt lat="47.987541" lon="10.610991">
<ele>604.176</ele>
<time>2020-09-11T09:59:42Z</time>
</trkpt>
<trkpt lat="47.987488" lon="10.61104">
<ele>604.103</ele>
<time>2020-09-11T09:59:43Z</time>
</trkpt>
<trkpt lat="47.987446" lon="10.611087">
<ele>604.038</ele>
<time>2020-09-11T09:59:44Z</time>
</trkpt>
<trkpt lat="47.987396" lon="10.611136">
<ele>604</ele>
<time>2020-09-11T09:59:45Z</time>
</trkpt>
<trkpt lat="47.987347" lon="10.611185">
<ele>603.954</ele>
<time>2020-09-11T09:59:46Z</time>
</trkpt>
<trkpt lat="47.987305" lon="10.611234">
<ele>604.147</ele>
<time>2020-09-11T09:59:47Z</time>
</trkpt>
<trkpt lat="47.987263" lon="10.611282">
<ele>604.315</ele>
<time>2020-09-11T09:59:48Z</time>
</trkpt>
<trkpt lat="47.987217" lon="10.61133">
<ele>604.46</ele>
<time>2020-09-11T09:59:49Z</time>
</trkpt>
<trkpt lat="47.987183" lon="10.611377">
<ele>604.571</ele>
<time>2020-09-11T09:59:50Z</time>
</trkpt>
<trkpt lat="47.987141" lon="10.611424">
<ele>604.644</ele>
<time>2020-09-11T09:59:51Z</time>
</trkpt>
<trkpt lat="47.987099" lon="10.611475">
<ele>604.693</ele>
<time>2020-09-11T09:59:52Z</time>
</trkpt>
<trkpt lat="47.987057" lon="10.611526">
<ele>604.719</ele>
<time>2020-09-11T09:59:53Z</time>
</trkpt>
<trkpt lat="47.987019" lon="10.611576">
<ele>604.741</ele>
<time>2020-09-11T09:59:54Z</time>
</trkpt>
<trkpt lat="47.986973" lon="10.611632">
<ele>604.741</ele>
<time>2020-09-11T09:59:55Z</time>
</trkpt>
<trkpt lat="47.986927" lon="10.611687">
<ele>604.741</ele>
<time>2020-09-11T09:59:56Z</time>
</trkpt>
<trkpt lat="47.986889" lon="10.611739">
<ele>604.741</ele>
<time>2020-09-11T09:59:57Z</time>
</trkpt>
<trkpt lat="47.986847" lon="10.611795">
<ele>604.741</ele>
<time>2020-09-11T09:59:58Z</time>
</trkpt>
<trkpt lat="47.986801" lon="10.61185">
<ele>604.741</ele>
<time>2020-09-11T09:59:59Z</time>
</trkpt>
<trkpt lat="47.986759" lon="10.611907">
<ele>604.741</ele>
<time>2020-09-11T10:00:00Z</time>
</trkpt>
<trkpt lat="47.986721" lon="10.611965">
<ele>604.741</ele>
<time>2020-09-11T10:00:01Z</time>
</trkpt>
<trkpt lat="47.986679" lon="10.612021">
<ele>604.741</ele>
<time>2020-09-11T10:00:02Z</time>
</trkpt>
<trkpt lat="47.986633" lon="10.612079">
<ele>604.741</ele>
<time>2020-09-11T10:00:03Z</time>
</trkpt>
<trkpt lat="47.986595" lon="10.612137">
<ele>604.741</ele>
<time>2020-09-11T10:00:04Z</time>
</trkpt>
<trkpt lat="47.986553" lon="10.612196">
<ele>604.741</ele>
<time>2020-09-11T10:00:05Z</time>
</trkpt>
<trkpt lat="47.986507" lon="10.612255">
<ele>604.741</ele>
<time>2020-09-11T10:00:06Z</time>
</trkpt>
<trkpt lat="47.986465" lon="10.612317">
<ele>604.741</ele>
<time>2020-09-11T10:00:07Z</time>
</trkpt>
<trkpt lat="47.986427" lon="10.612376">
<ele>604.741</ele>
<time>2020-09-11T10:00:08Z</time>
</trkpt>
<trkpt lat="47.986385" lon="10.612436">
<ele>604.741</ele>
<time>2020-09-11T10:00:09Z</time>
</trkpt>
<trkpt lat="47.986343" lon="10.612498">
<ele>604.741</ele>
<time>2020-09-11T10:00:10Z</time>
</trkpt>
<trkpt lat="47.986301" lon="10.612556">
<ele>604.741</ele>
<time>2020-09-11T10:00:11Z</time>
</trkpt>
<trkpt lat="47.986259" lon="10.612617">
<ele>604.741</ele>
<time>2020-09-11T10:00:12Z</time>
</trkpt>
<trkpt lat="47.986217" lon="10.612676">
<ele>604.741</ele>
<time>2020-09-11T10:00:13Z</time>
</trkpt>
<trkpt lat="47.986172" lon="10.612734">
<ele>604.741</ele>
<time>2020-09-11T10:00:14Z</time>
</trkpt>
<trkpt lat="47.986137" lon="10.61279">
<ele>604.741</ele>
<time>2020-09-11T10:00:15Z</time>
</trkpt>
<trkpt lat="47.986095" lon="10.612847">
<ele>604.741</ele>
<time>2020-09-11T10:00:16Z</time>
</trkpt>
<trkpt lat="47.986053" lon="10.612906">
<ele>604.741</ele>
<time>2020-09-11T10:00:17Z</time>
</trkpt>
<trkpt lat="47.986015" lon="10.612963">
<ele>604.741</ele>
<time>2020-09-11T10:00:18Z</time>
</trkpt>
<trkpt lat="47.985977" lon="10.613019">
<ele>604.741</ele>
<time>2020-09-11T10:00:19Z</time>
</trkpt>
<trkpt lat="47.985935" lon="10.613075">
<ele>604.741</ele>
<time>2020-09-11T10:00:20Z</time>
</trkpt>
<trkpt lat="47.985893" lon="10.613131">
<ele>604.741</ele>
<time>2020-09-11T10:00:21Z</time>
</trkpt>
<trkpt lat="47.985855" lon="10.613185">
<ele>604.741</ele>
<time>2020-09-11T10:00:22Z</time>
</trkpt>
<trkpt lat="47.985813" lon="10.613238">
<ele>604.741</ele>
<time>2020-09-11T10:00:23Z</time>
</trkpt>
<trkpt lat="47.985779" lon="10.613292">
<ele>604.741</ele>
<time>2020-09-11T10:00:24Z</time>
</trkpt>
<trkpt lat="47.985741" lon="10.613345">
<ele>604.741</ele>
<time>2020-09-11T10:00:25Z</time>
</trkpt>
<trkpt lat="47.985699" lon="10.6134">
<ele>604.741</ele>
<time>2020-09-11T10:00:26Z</time>
</trkpt>
<trkpt lat="47.985661" lon="10.613455">
<ele>604.741</ele>
<time>2020-09-11T10:00:27Z</time>
</trkpt>
<trkpt lat="47.985619" lon="10.61351">
<ele>604.741</ele>
<time>2020-09-11T10:00:28Z</time>
</trkpt>
<trkpt lat="47.985584" lon="10.613568">
<ele>604.741</ele>
<time>2020-09-11T10:00:29Z</time>
</trkpt>
<trkpt lat="47.985542" lon="10.613622">
<ele>604.741</ele>
<time>2020-09-11T10:00:30Z</time>
</trkpt>
<trkpt lat="47.9855" lon="10.613673">
<ele>604.741</ele>
<time>2020-09-11T10:00:31Z</time>
</trkpt>
<trkpt lat="47.985458" lon="10.613725">
<ele>604.741</ele>
<time>2020-09-11T10:00:32Z</time>
</trkpt>
<trkpt lat="47.985416" lon="10.61378">
<ele>604.741</ele>
<time>2020-09-11T10:00:33Z</time>
</trkpt>
<trkpt lat="47.985374" lon="10.613836">
<ele>604.741</ele>
<time>2020-09-11T10:00:34Z</time>
</trkpt>
<trkpt lat="47.985329" lon="10.613892">
<ele>604.741</ele>
<time>2020-09-11T10:00:35Z</time>
</trkpt>
<trkpt lat="47.985287" lon="10.613945">
<ele>604.741</ele>
<time>2020-09-11T10:00:36Z</time>
</trkpt>
<trkpt lat="47.985245" lon="10.613998">
<ele>604.741</ele>
<time>2020-09-11T10:00:37Z</time>
</trkpt>
<trkpt lat="47.985199" lon="10.614052">
<ele>605.064</ele>
<time>2020-09-11T10:00:38Z</time>
</trkpt>
<trkpt lat="47.985157" lon="10.614104">
<ele>605.316</ele>
<time>2020-09-11T10:00:39Z</time>
</trkpt>
<trkpt lat="47.985111" lon="10.614159">
<ele>605.506</ele>
<time>2020-09-11T10:00:40Z</time>
</trkpt>
<trkpt lat="47.985065" lon="10.614211">
<ele>605.646</ele>
<time>2020-09-11T10:00:41Z</time>
</trkpt>
<trkpt lat="47.98502" lon="10.614266">
<ele>605.743</ele>
<time>2020-09-11T10:00:42Z</time>
</trkpt>
<trkpt lat="47.984974" lon="10.614322">
<ele>605.805</ele>
<time>2020-09-11T10:00:43Z</time>
</trkpt>
<trkpt lat="47.984928" lon="10.614377">
<ele>605.854</ele>
<time>2020-09-11T10:00:44Z</time>
</trkpt>
<trkpt lat="47.984882" lon="10.614429">
<ele>605.886</ele>
<time>2020-09-11T10:00:45Z</time>
</trkpt>
<trkpt lat="47.984837" lon="10.614482">
<ele>605.886</ele>
<time>2020-09-11T10:00:46Z</time>
</trkpt>
<trkpt lat="47.984787" lon="10.614533">
<ele>605.886</ele>
<time>2020-09-11T10:00:47Z</time>
</trkpt>
<trkpt lat="47.984737" lon="10.614584">
<ele>605.886</ele>
<time>2020-09-11T10:00:48Z</time>
</trkpt>
<trkpt lat="47.984692" lon="10.614633">
<ele>605.886</ele>
<time>2020-09-11T10:00:49Z</time>
</trkpt>
<trkpt lat="47.984642" lon="10.614685">
<ele>605.886</ele>
<time>2020-09-11T10:00:50Z</time>
</trkpt>
<trkpt lat="47.984592" lon="10.614733">
<ele>605.886</ele>
<time>2020-09-11T10:00:51Z</time>
</trkpt>
<trkpt lat="47.984543" lon="10.614783">
<ele>605.886</ele>
<time>2020-09-11T10:00:52Z</time>
</trkpt>
<trkpt lat="47.984493" lon="10.614832">
<ele>605.886</ele>
<time>2020-09-11T10:00:53Z</time>
</trkpt>
<trkpt lat="47.984447" lon="10.61488">
<ele>605.886</ele>
<time>2020-09-11T10:00:54Z</time>
</trkpt>
<trkpt lat="47.984398" lon="10.61493">
<ele>605.886</ele>
<time>2020-09-11T10:00:55Z</time>
</trkpt>
<trkpt lat="47.984348" lon="10.614978">
<ele>605.886</ele>
<time>2020-09-11T10:00:56Z</time>
</trkpt>
<trkpt lat="47.984299" lon="10.615025">
<ele>605.886</ele>
<time>2020-09-11T10:00:57Z</time>
</trkpt>
<trkpt lat="47.984249" lon="10.615072">
<ele>605.886</ele>
<time>2020-09-11T10:00:58Z</time>
</trkpt>
<trkpt lat="47.984196" lon="10.61512">
<ele>605.886</ele>
<time>2020-09-11T10:00:59Z</time>
</trkpt>
<trkpt lat="47.984146" lon="10.615167">
<ele>605.886</ele>
<time>2020-09-11T10:01:00Z</time>
</trkpt>
<trkpt lat="47.984097" lon="10.615215">
<ele>605.886</ele>
<time>2020-09-11T10:01:01Z</time>
</trkpt>
<trkpt lat="47.984047" lon="10.615261">
<ele>605.886</ele>
<time>2020-09-11T10:01:02Z</time>
</trkpt>
<trkpt lat="47.983997" lon="10.615307">
<ele>605.886</ele>
<time>2020-09-11T10:01:03Z</time>
</trkpt>
<trkpt lat="47.983944" lon="10.615352">
<ele>605.886</ele>
<time>2020-09-11T10:01:04Z</time>
</trkpt>
<trkpt lat="47.983891" lon="10.615396">
<ele>605.886</ele>
<time>2020-09-11T10:01:05Z</time>
</trkpt>
<trkpt lat="47.983841" lon="10.615441">
<ele>605.886</ele>
<time>2020-09-11T10:01:06Z</time>
</trkpt>
<trkpt lat="47.983788" lon="10.615487">
<ele>605.886</ele>
<time>2020-09-11T10:01:07Z</time>
</trkpt>
<trkpt lat="47.983734" lon="10.615533">
<ele>605.886</ele>
<time>2020-09-11T10:01:08Z</time>
</trkpt>
<trkpt lat="47.983681" lon="10.615577">
<ele>605.886</ele>
<time>2020-09-11T10:01:09Z</time>
</trkpt>
<trkpt lat="47.983631" lon="10.615619">
<ele>605.886</ele>
<time>2020-09-11T10:01:10Z</time>
</trkpt>
<trkpt lat="47.983574" lon="10.61566">
<ele>605.886</ele>
<time>2020-09-11T10:01:11Z</time>
</trkpt>
<trkpt lat="47.983521" lon="10.615702">
<ele>605.886</ele>
<time>2020-09-11T10:01:12Z</time>
</trkpt>
<trkpt lat="47.983467" lon="10.615745">
<ele>605.886</ele>
<time>2020-09-11T10:01:13Z</time>
</trkpt>
<trkpt lat="47.983414" lon="10.615787">
<ele>605.886</ele>
<time>2020-09-11T10:01:14Z</time>
</trkpt>
<trkpt lat="47.983364" lon="10.615827">
<ele>605.886</ele>
<time>2020-09-11T10:01:15Z</time>
</trkpt>
<trkpt lat="47.983311" lon="10.615867">
<ele>605.886</ele>
<time>2020-09-11T10:01:16Z</time>
</trkpt>
<trkpt lat="47.983261" lon="10.615905">
<ele>605.886</ele>
<time>2020-09-11T10:01:17Z</time>
</trkpt>
<trkpt lat="47.983208" lon="10.615944">
<ele>605.886</ele>
<time>2020-09-11T10:01:18Z</time>
</trkpt>
<trkpt lat="47.983158" lon="10.615982">
<ele>606.146</ele>
<time>2020-09-11T10:01:19Z</time>
</trkpt>
<trkpt lat="47.983109" lon="10.616018">
<ele>606.353</ele>
<time>2020-09-11T10:01:20Z</time>
</trkpt>
<trkpt lat="47.983055" lon="10.616056">
<ele>606.509</ele>
<time>2020-09-11T10:01:21Z</time>
</trkpt>
<trkpt lat="47.983006" lon="10.616093">
<ele>606.627</ele>
<time>2020-09-11T10:01:22Z</time>
</trkpt>
<trkpt lat="47.982952" lon="10.61613">
<ele>606.713</ele>
<time>2020-09-11T10:01:23Z</time>
</trkpt>
<trkpt lat="47.982899" lon="10.616165">
<ele>606.775</ele>
<time>2020-09-11T10:01:24Z</time>
</trkpt>
<trkpt lat="47.982849" lon="10.616201">
<ele>606.829</ele>
<time>2020-09-11T10:01:25Z</time>
</trkpt>
<trkpt lat="47.982796" lon="10.616237">
<ele>606.855</ele>
<time>2020-09-11T10:01:26Z</time>
</trkpt>
<trkpt lat="47.982746" lon="10.616271">
<ele>606.855</ele>
<time>2020-09-11T10:01:27Z</time>
</trkpt>
<trkpt lat="47.982689" lon="10.616306">
<ele>606.855</ele>
<time>2020-09-11T10:01:28Z</time>
</trkpt>
<trkpt lat="47.982639" lon="10.61634">
<ele>606.855</ele>
<time>2020-09-11T10:01:29Z</time>
</trkpt>
<trkpt lat="47.982586" lon="10.616373">
<ele>606.855</ele>
<time>2020-09-11T10:01:30Z</time>
</trkpt>
<trkpt lat="47.982533" lon="10.616405">
<ele>606.855</ele>
<time>2020-09-11T10:01:31Z</time>
</trkpt>
<trkpt lat="47.982479" lon="10.616438">
<ele>606.855</ele>
<time>2020-09-11T10:01:32Z</time>
</trkpt>
<trkpt lat="47.982426" lon="10.616473">
<ele>606.855</ele>
<time>2020-09-11T10:01:33Z</time>
</trkpt>
<trkpt lat="47.982372" lon="10.616508">
<ele>606.855</ele>
<time>2020-09-11T10:01:34Z</time>
</trkpt>
<trkpt lat="47.982319" lon="10.616541">
<ele>606.855</ele>
<time>2020-09-11T10:01:35Z</time>
</trkpt>
<trkpt lat="47.982262" lon="10.616576">
<ele>606.855</ele>
<time>2020-09-11T10:01:36Z</time>
</trkpt>
<trkpt lat="47.982204" lon="10.616609">
<ele>606.855</ele>
<time>2020-09-11T10:01:37Z</time>
</trkpt>
<trkpt lat="47.982151" lon="10.61664">
<ele>606.855</ele>
<time>2020-09-11T10:01:38Z</time>
</trkpt>
<trkpt lat="47.982098" lon="10.616671">
<ele>606.855</ele>
<time>2020-09-11T10:01:39Z</time>
</trkpt>
<trkpt lat="47.98204" lon="10.6167">
<ele>606.855</ele>
<time>2020-09-11T10:01:40Z</time>
</trkpt>
<trkpt lat="47.981983" lon="10.616732">
<ele>606.855</ele>
<time>2020-09-11T10:01:41Z</time>
</trkpt>
<trkpt lat="47.98193" lon="10.616761">
<ele>606.855</ele>
<time>2020-09-11T10:01:42Z</time>
</trkpt>
<trkpt lat="47.981873" lon="10.61679">
<ele>606.855</ele>
<time>2020-09-11T10:01:43Z</time>
</trkpt>
<trkpt lat="47.981819" lon="10.616819">
<ele>606.855</ele>
<time>2020-09-11T10:01:44Z</time>
</trkpt>
<trkpt lat="47.981766" lon="10.61685">
<ele>606.855</ele>
<time>2020-09-11T10:01:45Z</time>
</trkpt>
<trkpt lat="47.981709" lon="10.616879">
<ele>606.855</ele>
<time>2020-09-11T10:01:46Z</time>
</trkpt>
<trkpt lat="47.981651" lon="10.616907">
<ele>606.855</ele>
<time>2020-09-11T10:01:47Z</time>
</trkpt>
<trkpt lat="47.981598" lon="10.616935">
<ele>606.855</ele>
<time>2020-09-11T10:01:48Z</time>
</trkpt>
<trkpt lat="47.981544" lon="10.616963">
<ele>607.141</ele>
<time>2020-09-11T10:01:49Z</time>
</trkpt>
<trkpt lat="47.981483" lon="10.616992">
<ele>607.366</ele>
<time>2020-09-11T10:01:50Z</time>
</trkpt>
<trkpt lat="47.98143" lon="10.617019">
<ele>607.537</ele>
<time>2020-09-11T10:01:51Z</time>
</trkpt>
<trkpt lat="47.981377" lon="10.617045">
<ele>607.665</ele>
<time>2020-09-11T10:01:52Z</time>
</trkpt>
<trkpt lat="47.981316" lon="10.61707">
<ele>607.757</ele>
<time>2020-09-11T10:01:53Z</time>
</trkpt>
<trkpt lat="47.981262" lon="10.617094">
<ele>607.823</ele>
<time>2020-09-11T10:01:54Z</time>
</trkpt>
<trkpt lat="47.981209" lon="10.617117">
<ele>607.884</ele>
<time>2020-09-11T10:01:55Z</time>
</trkpt>
<trkpt lat="47.981152" lon="10.61714">
<ele>607.912</ele>
<time>2020-09-11T10:01:56Z</time>
</trkpt>
<trkpt lat="47.981094" lon="10.617162">
<ele>607.912</ele>
<time>2020-09-11T10:01:57Z</time>
</trkpt>
<trkpt lat="47.981041" lon="10.617184">
<ele>607.912</ele>
<time>2020-09-11T10:01:58Z</time>
</trkpt>
<trkpt lat="47.980988" lon="10.617203">
<ele>607.912</ele>
<time>2020-09-11T10:01:59Z</time>
</trkpt>
<trkpt lat="47.98093" lon="10.617224">
<ele>607.912</ele>
<time>2020-09-11T10:02:00Z</time>
</trkpt>
<trkpt lat="47.980877" lon="10.617243">
<ele>607.912</ele>
<time>2020-09-11T10:02:01Z</time>
</trkpt>
<trkpt lat="47.980824" lon="10.617264">
<ele>607.912</ele>
<time>2020-09-11T10:02:02Z</time>
</trkpt>
<trkpt lat="47.980766" lon="10.617285">
<ele>607.912</ele>
<time>2020-09-11T10:02:03Z</time>
</trkpt>
<trkpt lat="47.980709" lon="10.617304">
<ele>607.912</ele>
<time>2020-09-11T10:02:04Z</time>
</trkpt>
<trkpt lat="47.980656" lon="10.617325">
<ele>607.912</ele>
<time>2020-09-11T10:02:05Z</time>
</trkpt>
<trkpt lat="47.980598" lon="10.617347">
<ele>607.912</ele>
<time>2020-09-11T10:02:06Z</time>
</trkpt>
<trkpt lat="47.980545" lon="10.617367">
<ele>607.912</ele>
<time>2020-09-11T10:02:07Z</time>
</trkpt>
<trkpt lat="47.980492" lon="10.617387">
<ele>607.912</ele>
<time>2020-09-11T10:02:08Z</time>
</trkpt>
<trkpt lat="47.980434" lon="10.617409">
<ele>607.912</ele>
<time>2020-09-11T10:02:09Z</time>
</trkpt>
<trkpt lat="47.980381" lon="10.617427">
<ele>607.912</ele>
<time>2020-09-11T10:02:10Z</time>
</trkpt>
<trkpt lat="47.980328" lon="10.617444">
<ele>607.912</ele>
<time>2020-09-11T10:02:11Z</time>
</trkpt>
<trkpt lat="47.98027" lon="10.617461">
<ele>607.912</ele>
<time>2020-09-11T10:02:12Z</time>
</trkpt>
<trkpt lat="47.980217" lon="10.617483">
<ele>608.17</ele>
<time>2020-09-11T10:02:13Z</time>
</trkpt>
<trkpt lat="47.980164" lon="10.617505">
<ele>608.354</ele>
<time>2020-09-11T10:02:14Z</time>
</trkpt>
<trkpt lat="47.980106" lon="10.617525">
<ele>608.541</ele>
<time>2020-09-11T10:02:15Z</time>
</trkpt>
<trkpt lat="47.980049" lon="10.617543">
<ele>608.693</ele>
<time>2020-09-11T10:02:16Z</time>
</trkpt>
<trkpt lat="47.979996" lon="10.617559">
<ele>608.807</ele>
<time>2020-09-11T10:02:17Z</time>
</trkpt>
<trkpt lat="47.979939" lon="10.61758">
<ele>608.891</ele>
<time>2020-09-11T10:02:18Z</time>
</trkpt>
<trkpt lat="47.979881" lon="10.617597">
<ele>608.944</ele>
<time>2020-09-11T10:02:19Z</time>
</trkpt>
<trkpt lat="47.979828" lon="10.617616">
<ele>608.97</ele>
<time>2020-09-11T10:02:20Z</time>
</trkpt>
<trkpt lat="47.979771" lon="10.617633">
<ele>608.97</ele>
<time>2020-09-11T10:02:21Z</time>
</trkpt>
<trkpt lat="47.979717" lon="10.617654">
<ele>608.97</ele>
<time>2020-09-11T10:02:22Z</time>
</trkpt>
<trkpt lat="47.97966" lon="10.617673">
<ele>608.97</ele>
<time>2020-09-11T10:02:23Z</time>
</trkpt>
<trkpt lat="47.979607" lon="10.617693">
<ele>608.97</ele>
<time>2020-09-11T10:02:24Z</time>
</trkpt>
<trkpt lat="47.979549" lon="10.617715">
<ele>608.97</ele>
<time>2020-09-11T10:02:25Z</time>
</trkpt>
<trkpt lat="47.979492" lon="10.617737">
<ele>608.97</ele>
<time>2020-09-11T10:02:26Z</time>
</trkpt>
<trkpt lat="47.979439" lon="10.617757">
<ele>608.97</ele>
<time>2020-09-11T10:02:27Z</time>
</trkpt>
<trkpt lat="47.979385" lon="10.617779">
<ele>608.97</ele>
<time>2020-09-11T10:02:28Z</time>
</trkpt>
<trkpt lat="47.979328" lon="10.6178">
<ele>608.97</ele>
<time>2020-09-11T10:02:29Z</time>
</trkpt>
<trkpt lat="47.979271" lon="10.61782">
<ele>608.97</ele>
<time>2020-09-11T10:02:30Z</time>
</trkpt>
<trkpt lat="47.979218" lon="10.617838">
<ele>608.97</ele>
<time>2020-09-11T10:02:31Z</time>
</trkpt>
<trkpt lat="47.979164" lon="10.617857">
<ele>608.97</ele>
<time>2020-09-11T10:02:32Z</time>
</trkpt>
<trkpt lat="47.979107" lon="10.617877">
<ele>608.97</ele>
<time>2020-09-11T10:02:33Z</time>
</trkpt>
<trkpt lat="47.979053" lon="10.617899">
<ele>608.97</ele>
<time>2020-09-11T10:02:34Z</time>
</trkpt>
<trkpt lat="47.978996" lon="10.61792">
<ele>608.97</ele>
<time>2020-09-11T10:02:35Z</time>
</trkpt>
<trkpt lat="47.978939" lon="10.617943">
<ele>608.97</ele>
<time>2020-09-11T10:02:36Z</time>
</trkpt>
<trkpt lat="47.978882" lon="10.617964">
<ele>608.97</ele>
<time>2020-09-11T10:02:37Z</time>
</trkpt>
<trkpt lat="47.978825" lon="10.617982">
<ele>608.97</ele>
<time>2020-09-11T10:02:38Z</time>
</trkpt>
<trkpt lat="47.978767" lon="10.618002">
<ele>608.97</ele>
<time>2020-09-11T10:02:39Z</time>
</trkpt>
<trkpt lat="47.978706" lon="10.61802">
<ele>608.97</ele>
<time>2020-09-11T10:02:40Z</time>
</trkpt>
<trkpt lat="47.978649" lon="10.618038">
<ele>608.97</ele>
<time>2020-09-11T10:02:41Z</time>
</trkpt>
<trkpt lat="47.978596" lon="10.618056">
<ele>608.97</ele>
<time>2020-09-11T10:02:42Z</time>
</trkpt>
<trkpt lat="47.978539" lon="10.618074">
<ele>608.97</ele>
<time>2020-09-11T10:02:43Z</time>
</trkpt>
<trkpt lat="47.978481" lon="10.618095">
<ele>608.97</ele>
<time>2020-09-11T10:02:44Z</time>
</trkpt>
<trkpt lat="47.978428" lon="10.618114">
<ele>608.97</ele>
<time>2020-09-11T10:02:45Z</time>
</trkpt>
<trkpt lat="47.978371" lon="10.618135">
<ele>608.97</ele>
<time>2020-09-11T10:02:46Z</time>
</trkpt>
<trkpt lat="47.978317" lon="10.618155">
<ele>608.97</ele>
<time>2020-09-11T10:02:47Z</time>
</trkpt>
<trkpt lat="47.978256" lon="10.618174">
<ele>608.97</ele>
<time>2020-09-11T10:02:48Z</time>
</trkpt>
<trkpt lat="47.978199" lon="10.618188">
<ele>608.97</ele>
<time>2020-09-11T10:02:49Z</time>
</trkpt>
<trkpt lat="47.978142" lon="10.6182">
<ele>608.97</ele>
<time>2020-09-11T10:02:50Z</time>
</trkpt>
<trkpt lat="47.978085" lon="10.618212">
<ele>608.97</ele>
<time>2020-09-11T10:02:51Z</time>
</trkpt>
<trkpt lat="47.978024" lon="10.618223">
<ele>608.97</ele>
<time>2020-09-11T10:02:52Z</time>
</trkpt>
<trkpt lat="47.977962" lon="10.618236">
<ele>608.97</ele>
<time>2020-09-11T10:02:53Z</time>
</trkpt>
<trkpt lat="47.977905" lon="10.618245">
<ele>608.97</ele>
<time>2020-09-11T10:02:54Z</time>
</trkpt>
<trkpt lat="47.977848" lon="10.618252">
<ele>608.97</ele>
<time>2020-09-11T10:02:55Z</time>
</trkpt>
<trkpt lat="47.977791" lon="10.618258">
<ele>608.97</ele>
<time>2020-09-11T10:02:56Z</time>
</trkpt>
<trkpt lat="47.97773" lon="10.618265">
<ele>608.97</ele>
<time>2020-09-11T10:02:57Z</time>
</trkpt>
<trkpt lat="47.977669" lon="10.618276">
<ele>608.97</ele>
<time>2020-09-11T10:02:58Z</time>
</trkpt>
<trkpt lat="47.977608" lon="10.618286">
<ele>609.211</ele>
<time>2020-09-11T10:02:59Z</time>
</trkpt>
<trkpt lat="47.977551" lon="10.618301">
<ele>609.399</ele>
<time>2020-09-11T10:03:00Z</time>
</trkpt>
<trkpt lat="47.977493" lon="10.618312">
<ele>609.54</ele>
<time>2020-09-11T10:03:01Z</time>
</trkpt>
<trkpt lat="47.977436" lon="10.61832">
<ele>609.649</ele>
<time>2020-09-11T10:03:02Z</time>
</trkpt>
<trkpt lat="47.977375" lon="10.618321">
<ele>609.723</ele>
<time>2020-09-11T10:03:03Z</time>
</trkpt>
<trkpt lat="47.977318" lon="10.618321">
<ele>609.777</ele>
<time>2020-09-11T10:03:04Z</time>
</trkpt>
<trkpt lat="47.977261" lon="10.618318">
<ele>609.827</ele>
<time>2020-09-11T10:03:05Z</time>
</trkpt>
<trkpt lat="47.977207" lon="10.618316">
<ele>609.852</ele>
<time>2020-09-11T10:03:06Z</time>
</trkpt>
<trkpt lat="47.97715" lon="10.618314">
<ele>609.852</ele>
<time>2020-09-11T10:03:07Z</time>
</trkpt>
<trkpt lat="47.977097" lon="10.618309">
<ele>609.852</ele>
<time>2020-09-11T10:03:08Z</time>
</trkpt>
<trkpt lat="47.977043" lon="10.618303">
<ele>609.851</ele>
<time>2020-09-11T10:03:09Z</time>
</trkpt>
<trkpt lat="47.976986" lon="10.618299">
<ele>609.851</ele>
<time>2020-09-11T10:03:10Z</time>
</trkpt>
<trkpt lat="47.976933" lon="10.618295">
<ele>609.852</ele>
<time>2020-09-11T10:03:11Z</time>
</trkpt>
<trkpt lat="47.976879" lon="10.618293">
<ele>609.851</ele>
<time>2020-09-11T10:03:12Z</time>
</trkpt>
<trkpt lat="47.976822" lon="10.61829">
<ele>609.852</ele>
<time>2020-09-11T10:03:13Z</time>
</trkpt>
<trkpt lat="47.976768" lon="10.618295">
<ele>609.851</ele>
<time>2020-09-11T10:03:14Z</time>
</trkpt>
<trkpt lat="47.976719" lon="10.618317">
<ele>609.851</ele>
<time>2020-09-11T10:03:15Z</time>
</trkpt>
<trkpt lat="47.976688" lon="10.618358">
<ele>609.851</ele>
<time>2020-09-11T10:03:16Z</time>
</trkpt>
<trkpt lat="47.976662" lon="10.61841">
<ele>609.851</ele>
<time>2020-09-11T10:03:17Z</time>
</trkpt>
<trkpt lat="47.976646" lon="10.618466">
<ele>609.852</ele>
<time>2020-09-11T10:03:18Z</time>
</trkpt>
<trkpt lat="47.976639" lon="10.618528">
<ele>610.1</ele>
<time>2020-09-11T10:03:19Z</time>
</trkpt>
<trkpt lat="47.976635" lon="10.618596">
<ele>610.3</ele>
<time>2020-09-11T10:03:20Z</time>
</trkpt>
<trkpt lat="47.976631" lon="10.618665">
<ele>610.462</ele>
<time>2020-09-11T10:03:21Z</time>
</trkpt>
<trkpt lat="47.976627" lon="10.618733">
<ele>610.58</ele>
<time>2020-09-11T10:03:22Z</time>
</trkpt>
<trkpt lat="47.97662" lon="10.618802">
<ele>610.672</ele>
<time>2020-09-11T10:03:23Z</time>
</trkpt>
<trkpt lat="47.976608" lon="10.618872">
<ele>610.739</ele>
<time>2020-09-11T10:03:24Z</time>
</trkpt>
<trkpt lat="47.976593" lon="10.618942">
<ele>610.796</ele>
<time>2020-09-11T10:03:25Z</time>
</trkpt>
<trkpt lat="47.976574" lon="10.619013">
<ele>610.821</ele>
<time>2020-09-11T10:03:26Z</time>
</trkpt>
<trkpt lat="47.976551" lon="10.619086">
<ele>610.821</ele>
<time>2020-09-11T10:03:27Z</time>
</trkpt>
<trkpt lat="47.976521" lon="10.619155">
<ele>610.821</ele>
<time>2020-09-11T10:03:28Z</time>
</trkpt>
<trkpt lat="47.976486" lon="10.619221">
<ele>610.821</ele>
<time>2020-09-11T10:03:29Z</time>
</trkpt>
<trkpt lat="47.976452" lon="10.619282">
<ele>610.821</ele>
<time>2020-09-11T10:03:30Z</time>
</trkpt>
<trkpt lat="47.97641" lon="10.619338">
<ele>610.821</ele>
<time>2020-09-11T10:03:31Z</time>
</trkpt>
<trkpt lat="47.976372" lon="10.619393">
<ele>610.821</ele>
<time>2020-09-11T10:03:32Z</time>
</trkpt>
<trkpt lat="47.97633" lon="10.619442">
<ele>610.821</ele>
<time>2020-09-11T10:03:33Z</time>
</trkpt>
<trkpt lat="47.976292" lon="10.619487">
<ele>610.821</ele>
<time>2020-09-11T10:03:34Z</time>
</trkpt>
<trkpt lat="47.976246" lon="10.619522">
<ele>610.821</ele>
<time>2020-09-11T10:03:35Z</time>
</trkpt>
<trkpt lat="47.9762" lon="10.61955">
<ele>610.821</ele>
<time>2020-09-11T10:03:36Z</time>
</trkpt>
<trkpt lat="47.976158" lon="10.619578">
<ele>610.821</ele>
<time>2020-09-11T10:03:37Z</time>
</trkpt>
<trkpt lat="47.976116" lon="10.619608">
<ele>610.821</ele>
<time>2020-09-11T10:03:38Z</time>
</trkpt>
<trkpt lat="47.97607" lon="10.619637">
<ele>610.821</ele>
<time>2020-09-11T10:03:39Z</time>
</trkpt>
<trkpt lat="47.976032" lon="10.619663">
<ele>610.821</ele>
<time>2020-09-11T10:03:40Z</time>
</trkpt>
<trkpt lat="47.975986" lon="10.619686">
<ele>610.821</ele>
<time>2020-09-11T10:03:41Z</time>
</trkpt>
<trkpt lat="47.975937" lon="10.619711">
<ele>610.821</ele>
<time>2020-09-11T10:03:42Z</time>
</trkpt>
<trkpt lat="47.975891" lon="10.619737">
<ele>610.821</ele>
<time>2020-09-11T10:03:43Z</time>
</trkpt>
<trkpt lat="47.975842" lon="10.619767">
<ele>610.821</ele>
<time>2020-09-11T10:03:44Z</time>
</trkpt>
<trkpt lat="47.975796" lon="10.619799">
<ele>610.821</ele>
<time>2020-09-11T10:03:45Z</time>
</trkpt>
<trkpt lat="47.975742" lon="10.619828">
<ele>610.821</ele>
<time>2020-09-11T10:03:46Z</time>
</trkpt>
<trkpt lat="47.975697" lon="10.619857">
<ele>610.821</ele>
<time>2020-09-11T10:03:47Z</time>
</trkpt>
<trkpt lat="47.975647" lon="10.619886">
<ele>610.821</ele>
<time>2020-09-11T10:03:48Z</time>
</trkpt>
<trkpt lat="47.975597" lon="10.619917">
<ele>610.821</ele>
<time>2020-09-11T10:03:49Z</time>
</trkpt>
<trkpt lat="47.975544" lon="10.619948">
<ele>610.821</ele>
<time>2020-09-11T10:03:50Z</time>
</trkpt>
<trkpt lat="47.975494" lon="10.61998">
<ele>610.821</ele>
<time>2020-09-11T10:03:51Z</time>
</trkpt>
<trkpt lat="47.975445" lon="10.620012">
<ele>610.821</ele>
<time>2020-09-11T10:03:52Z</time>
</trkpt>
<trkpt lat="47.975391" lon="10.620044">
<ele>610.821</ele>
<time>2020-09-11T10:03:53Z</time>
</trkpt>
<trkpt lat="47.975342" lon="10.620071">
<ele>610.821</ele>
<time>2020-09-11T10:03:54Z</time>
</trkpt>
<trkpt lat="47.975292" lon="10.620102">
<ele>610.821</ele>
<time>2020-09-11T10:03:55Z</time>
</trkpt>
<trkpt lat="47.975243" lon="10.620131">
<ele>610.821</ele>
<time>2020-09-11T10:03:56Z</time>
</trkpt>
<trkpt lat="47.975189" lon="10.620161">
<ele>610.821</ele>
<time>2020-09-11T10:03:57Z</time>
</trkpt>
<trkpt lat="47.97514" lon="10.620192">
<ele>610.821</ele>
<time>2020-09-11T10:03:58Z</time>
</trkpt>
<trkpt lat="47.97509" lon="10.620224">
<ele>610.821</ele>
<time>2020-09-11T10:03:59Z</time>
</trkpt>
<trkpt lat="47.975033" lon="10.620256">
<ele>610.821</ele>
<time>2020-09-11T10:04:00Z</time>
</trkpt>
<trkpt lat="47.974979" lon="10.62029">
<ele>610.821</ele>
<time>2020-09-11T10:04:01Z</time>
</trkpt>
<trkpt lat="47.97493" lon="10.620322">
<ele>610.821</ele>
<time>2020-09-11T10:04:02Z</time>
</trkpt>
<trkpt lat="47.97488" lon="10.620354">
<ele>610.821</ele>
<time>2020-09-11T10:04:03Z</time>
</trkpt>
<trkpt lat="47.974827" lon="10.620385">
<ele>610.821</ele>
<time>2020-09-11T10:04:04Z</time>
</trkpt>
<trkpt lat="47.974773" lon="10.620415">
<ele>610.821</ele>
<time>2020-09-11T10:04:05Z</time>
</trkpt>
<trkpt lat="47.974724" lon="10.620443">
<ele>610.821</ele>
<time>2020-09-11T10:04:06Z</time>
</trkpt>
<trkpt lat="47.97467" lon="10.620475">
<ele>610.821</ele>
<time>2020-09-11T10:04:07Z</time>
</trkpt>
<trkpt lat="47.974617" lon="10.620509">
<ele>611.091</ele>
<time>2020-09-11T10:04:08Z</time>
</trkpt>
<trkpt lat="47.974567" lon="10.620543">
<ele>611.306</ele>
<time>2020-09-11T10:04:09Z</time>
</trkpt>
<trkpt lat="47.974514" lon="10.620575">
<ele>611.469</ele>
<time>2020-09-11T10:04:10Z</time>
</trkpt>
<trkpt lat="47.974464" lon="10.620607">
<ele>611.584</ele>
<time>2020-09-11T10:04:11Z</time>
</trkpt>
<trkpt lat="47.974407" lon="10.620639">
<ele>611.666</ele>
<time>2020-09-11T10:04:12Z</time>
</trkpt>
<trkpt lat="47.974358" lon="10.620672">
<ele>611.721</ele>
<time>2020-09-11T10:04:13Z</time>
</trkpt>
<trkpt lat="47.974308" lon="10.620704">
<ele>611.763</ele>
<time>2020-09-11T10:04:14Z</time>
</trkpt>
<trkpt lat="47.974255" lon="10.620735">
<ele>611.79</ele>
<time>2020-09-11T10:04:15Z</time>
</trkpt>
<trkpt lat="47.974201" lon="10.620767">
<ele>611.79</ele>
<time>2020-09-11T10:04:16Z</time>
</trkpt>
<trkpt lat="47.974148" lon="10.6208">
<ele>611.79</ele>
<time>2020-09-11T10:04:17Z</time>
</trkpt>
<trkpt lat="47.974094" lon="10.620833">
<ele>611.79</ele>
<time>2020-09-11T10:04:18Z</time>
</trkpt>
<trkpt lat="47.974045" lon="10.620867">
<ele>611.79</ele>
<time>2020-09-11T10:04:19Z</time>
</trkpt>
<trkpt lat="47.973991" lon="10.620896">
<ele>611.79</ele>
<time>2020-09-11T10:04:20Z</time>
</trkpt>
<trkpt lat="47.973942" lon="10.620928">
<ele>611.79</ele>
<time>2020-09-11T10:04:21Z</time>
</trkpt>
<trkpt lat="47.973885" lon="10.62096">
<ele>611.79</ele>
<time>2020-09-11T10:04:22Z</time>
</trkpt>
<trkpt lat="47.973835" lon="10.62099">
<ele>611.79</ele>
<time>2020-09-11T10:04:23Z</time>
</trkpt>
<trkpt lat="47.973782" lon="10.62102">
<ele>611.79</ele>
<time>2020-09-11T10:04:24Z</time>
</trkpt>
<trkpt lat="47.973728" lon="10.621054">
<ele>611.79</ele>
<time>2020-09-11T10:04:25Z</time>
</trkpt>
<trkpt lat="47.973675" lon="10.621087">
<ele>611.791</ele>
<time>2020-09-11T10:04:26Z</time>
</trkpt>
<trkpt lat="47.973621" lon="10.621119">
<ele>611.79</ele>
<time>2020-09-11T10:04:27Z</time>
</trkpt>
<trkpt lat="47.973568" lon="10.62115">
<ele>611.79</ele>
<time>2020-09-11T10:04:28Z</time>
</trkpt>
<trkpt lat="47.973518" lon="10.621183">
<ele>611.79</ele>
<time>2020-09-11T10:04:29Z</time>
</trkpt>
<trkpt lat="47.973465" lon="10.621215">
<ele>611.79</ele>
<time>2020-09-11T10:04:30Z</time>
</trkpt>
<trkpt lat="47.973415" lon="10.62125">
<ele>611.79</ele>
<time>2020-09-11T10:04:31Z</time>
</trkpt>
<trkpt lat="47.973362" lon="10.621282">
<ele>611.79</ele>
<time>2020-09-11T10:04:32Z</time>
</trkpt>
<trkpt lat="47.973305" lon="10.621309">
<ele>611.79</ele>
<time>2020-09-11T10:04:33Z</time>
</trkpt>
<trkpt lat="47.973251" lon="10.621337">
<ele>611.79</ele>
<time>2020-09-11T10:04:34Z</time>
</trkpt>
<trkpt lat="47.973198" lon="10.621362">
<ele>611.79</ele>
<time>2020-09-11T10:04:35Z</time>
</trkpt>
<trkpt lat="47.973141" lon="10.621387">
<ele>611.79</ele>
<time>2020-09-11T10:04:36Z</time>
</trkpt>
<trkpt lat="47.973087" lon="10.621414">
<ele>611.79</ele>
<time>2020-09-11T10:04:37Z</time>
</trkpt>
<trkpt lat="47.973034" lon="10.621438">
<ele>611.79</ele>
<time>2020-09-11T10:04:38Z</time>
</trkpt>
<trkpt lat="47.972977" lon="10.621463">
<ele>611.79</ele>
<time>2020-09-11T10:04:39Z</time>
</trkpt>
<trkpt lat="47.972923" lon="10.621488">
<ele>611.79</ele>
<time>2020-09-11T10:04:40Z</time>
</trkpt>
<trkpt lat="47.97287" lon="10.621511">
<ele>611.79</ele>
<time>2020-09-11T10:04:41Z</time>
</trkpt>
<trkpt lat="47.972809" lon="10.621535">
<ele>611.79</ele>
<time>2020-09-11T10:04:42Z</time>
</trkpt>
<trkpt lat="47.972755" lon="10.621556">
<ele>611.79</ele>
<time>2020-09-11T10:04:43Z</time>
</trkpt>
<trkpt lat="47.972702" lon="10.621577">
<ele>611.79</ele>
<time>2020-09-11T10:04:44Z</time>
</trkpt>
<trkpt lat="47.972645" lon="10.621598">
<ele>611.79</ele>
<time>2020-09-11T10:04:45Z</time>
</trkpt>
<trkpt lat="47.972588" lon="10.621618">
<ele>611.79</ele>
<time>2020-09-11T10:04:46Z</time>
</trkpt>
<trkpt lat="47.97253" lon="10.621636">
<ele>611.79</ele>
<time>2020-09-11T10:04:47Z</time>
</trkpt>
<trkpt lat="47.972473" lon="10.621655">
<ele>611.791</ele>
<time>2020-09-11T10:04:48Z</time>
</trkpt>
<trkpt lat="47.972416" lon="10.621674">
<ele>611.79</ele>
<time>2020-09-11T10:04:49Z</time>
</trkpt>
<trkpt lat="47.972359" lon="10.621692">
<ele>611.79</ele>
<time>2020-09-11T10:04:50Z</time>
</trkpt>
<trkpt lat="47.972305" lon="10.621708">
<ele>611.79</ele>
<time>2020-09-11T10:04:51Z</time>
</trkpt>
<trkpt lat="47.972248" lon="10.621728">
<ele>611.79</ele>
<time>2020-09-11T10:04:52Z</time>
</trkpt>
<trkpt lat="47.972187" lon="10.621747">
<ele>611.79</ele>
<time>2020-09-11T10:04:53Z</time>
</trkpt>
<trkpt lat="47.972134" lon="10.621766">
<ele>611.79</ele>
<time>2020-09-11T10:04:54Z</time>
</trkpt>
<trkpt lat="47.97208" lon="10.621785">
<ele>611.79</ele>
<time>2020-09-11T10:04:55Z</time>
</trkpt>
<trkpt lat="47.972023" lon="10.621798">
<ele>611.79</ele>
<time>2020-09-11T10:04:56Z</time>
</trkpt>
<trkpt lat="47.971962" lon="10.621808">
<ele>611.79</ele>
<time>2020-09-11T10:04:57Z</time>
</trkpt>
<trkpt lat="47.971905" lon="10.621819">
<ele>611.79</ele>
<time>2020-09-11T10:04:58Z</time>
</trkpt>
<trkpt lat="47.971851" lon="10.621827">
<ele>611.79</ele>
<time>2020-09-11T10:04:59Z</time>
</trkpt>
<trkpt lat="47.971794" lon="10.621838">
<ele>611.79</ele>
<time>2020-09-11T10:05:00Z</time>
</trkpt>
<trkpt lat="47.971737" lon="10.621852">
<ele>611.79</ele>
<time>2020-09-11T10:05:01Z</time>
</trkpt>
<trkpt lat="47.971684" lon="10.621867">
<ele>611.79</ele>
<time>2020-09-11T10:05:02Z</time>
</trkpt>
<trkpt lat="47.97163" lon="10.621877">
<ele>611.79</ele>
<time>2020-09-11T10:05:03Z</time>
</trkpt>
<trkpt lat="47.971577" lon="10.621886">
<ele>611.79</ele>
<time>2020-09-11T10:05:04Z</time>
</trkpt>
<trkpt lat="47.971523" lon="10.621895">
<ele>611.79</ele>
<time>2020-09-11T10:05:05Z</time>
</trkpt>
<trkpt lat="47.97147" lon="10.621903">
<ele>611.79</ele>
<time>2020-09-11T10:05:06Z</time>
</trkpt>
<trkpt lat="47.971416" lon="10.62191">
<ele>611.79</ele>
<time>2020-09-11T10:05:07Z</time>
</trkpt>
<trkpt lat="47.971367" lon="10.621917">
<ele>611.79</ele>
<time>2020-09-11T10:05:08Z</time>
</trkpt>
<trkpt lat="47.971313" lon="10.621925">
<ele>611.79</ele>
<time>2020-09-11T10:05:09Z</time>
</trkpt>
<trkpt lat="47.971264" lon="10.621936">
<ele>611.79</ele>
<time>2020-09-11T10:05:10Z</time>
</trkpt>
<trkpt lat="47.97121" lon="10.621942">
<ele>611.79</ele>
<time>2020-09-11T10:05:11Z</time>
</trkpt>
<trkpt lat="47.971157" lon="10.62195">
<ele>611.791</ele>
<time>2020-09-11T10:05:12Z</time>
</trkpt>
<trkpt lat="47.971104" lon="10.621957">
<ele>611.79</ele>
<time>2020-09-11T10:05:13Z</time>
</trkpt>
<trkpt lat="47.97105" lon="10.621962">
<ele>611.79</ele>
<time>2020-09-11T10:05:14Z</time>
</trkpt>
<trkpt lat="47.971001" lon="10.62196">
<ele>611.79</ele>
<time>2020-09-11T10:05:15Z</time>
</trkpt>
<trkpt lat="47.970947" lon="10.621953">
<ele>611.79</ele>
<time>2020-09-11T10:05:16Z</time>
</trkpt>
<trkpt lat="47.970894" lon="10.62194">
<ele>611.79</ele>
<time>2020-09-11T10:05:17Z</time>
</trkpt>
<trkpt lat="47.970848" lon="10.621922">
<ele>611.79</ele>
<time>2020-09-11T10:05:18Z</time>
</trkpt>
<trkpt lat="47.970798" lon="10.621902">
<ele>611.79</ele>
<time>2020-09-11T10:05:19Z</time>
</trkpt>
<trkpt lat="47.970753" lon="10.621877">
<ele>611.79</ele>
<time>2020-09-11T10:05:20Z</time>
</trkpt>
<trkpt lat="47.970711" lon="10.621846">
<ele>611.79</ele>
<time>2020-09-11T10:05:21Z</time>
</trkpt>
<trkpt lat="47.970669" lon="10.621805">
<ele>611.79</ele>
<time>2020-09-11T10:05:22Z</time>
</trkpt>
<trkpt lat="47.970631" lon="10.621756">
<ele>611.79</ele>
<time>2020-09-11T10:05:23Z</time>
</trkpt>
<trkpt lat="47.970589" lon="10.621703">
<ele>611.79</ele>
<time>2020-09-11T10:05:24Z</time>
</trkpt>
<trkpt lat="47.970551" lon="10.621652">
<ele>611.79</ele>
<time>2020-09-11T10:05:25Z</time>
</trkpt>
<trkpt lat="47.970512" lon="10.621596">
<ele>611.79</ele>
<time>2020-09-11T10:05:26Z</time>
</trkpt>
<trkpt lat="47.970474" lon="10.62154">
<ele>611.79</ele>
<time>2020-09-11T10:05:27Z</time>
</trkpt>
<trkpt lat="47.970436" lon="10.621485">
<ele>611.79</ele>
<time>2020-09-11T10:05:28Z</time>
</trkpt>
<trkpt lat="47.970398" lon="10.621428">
<ele>611.79</ele>
<time>2020-09-11T10:05:29Z</time>
</trkpt>
<trkpt lat="47.970364" lon="10.621373">
<ele>611.79</ele>
<time>2020-09-11T10:05:30Z</time>
</trkpt>
<trkpt lat="47.970329" lon="10.621315">
<ele>611.79</ele>
<time>2020-09-11T10:05:31Z</time>
</trkpt>
<trkpt lat="47.970291" lon="10.621259">
<ele>611.79</ele>
<time>2020-09-11T10:05:32Z</time>
</trkpt>
<trkpt lat="47.970249" lon="10.621205">
<ele>611.79</ele>
<time>2020-09-11T10:05:33Z</time>
</trkpt>
<trkpt lat="47.970203" lon="10.621157">
<ele>611.79</ele>
<time>2020-09-11T10:05:34Z</time>
</trkpt>
<trkpt lat="47.970161" lon="10.621112">
<ele>611.79</ele>
<time>2020-09-11T10:05:35Z</time>
</trkpt>
<trkpt lat="47.970116" lon="10.621066">
<ele>611.79</ele>
<time>2020-09-11T10:05:36Z</time>
</trkpt>
<trkpt lat="47.97007" lon="10.621029">
<ele>611.79</ele>
<time>2020-09-11T10:05:37Z</time>
</trkpt>
<trkpt lat="47.970028" lon="10.620994">
<ele>611.79</ele>
<time>2020-09-11T10:05:38Z</time>
</trkpt>
<trkpt lat="47.969978" lon="10.620972">
<ele>611.79</ele>
<time>2020-09-11T10:05:39Z</time>
</trkpt>
<trkpt lat="47.969933" lon="10.620972">
<ele>611.79</ele>
<time>2020-09-11T10:05:40Z</time>
</trkpt>
<trkpt lat="47.969891" lon="10.620996">
<ele>611.79</ele>
<time>2020-09-11T10:05:41Z</time>
</trkpt>
<trkpt lat="47.969856" lon="10.621041">
<ele>611.79</ele>
<time>2020-09-11T10:05:42Z</time>
</trkpt>
<trkpt lat="47.96983" lon="10.621099">
<ele>611.79</ele>
<time>2020-09-11T10:05:43Z</time>
</trkpt>
<trkpt lat="47.969807" lon="10.621161">
<ele>611.79</ele>
<time>2020-09-11T10:05:44Z</time>
</trkpt>
<trkpt lat="47.969788" lon="10.621225">
<ele>611.79</ele>
<time>2020-09-11T10:05:45Z</time>
</trkpt>
<trkpt lat="47.969765" lon="10.621292">
<ele>611.79</ele>
<time>2020-09-11T10:05:46Z</time>
</trkpt>
<trkpt lat="47.969746" lon="10.621358">
<ele>611.79</ele>
<time>2020-09-11T10:05:47Z</time>
</trkpt>
<trkpt lat="47.969727" lon="10.621423">
<ele>611.79</ele>
<time>2020-09-11T10:05:48Z</time>
</trkpt>
<trkpt lat="47.9697" lon="10.621485">
<ele>611.79</ele>
<time>2020-09-11T10:05:49Z</time>
</trkpt>
<trkpt lat="47.969669" lon="10.62154">
<ele>611.79</ele>
<time>2020-09-11T10:05:50Z</time>
</trkpt>
<trkpt lat="47.969635" lon="10.621584">
<ele>611.79</ele>
<time>2020-09-11T10:05:51Z</time>
</trkpt>
<trkpt lat="47.969593" lon="10.621625">
<ele>611.79</ele>
<time>2020-09-11T10:05:52Z</time>
</trkpt>
<trkpt lat="47.969547" lon="10.621659">
<ele>611.79</ele>
<time>2020-09-11T10:05:53Z</time>
</trkpt>
<trkpt lat="47.969501" lon="10.621689">
<ele>611.79</ele>
<time>2020-09-11T10:05:54Z</time>
</trkpt>
<trkpt lat="47.969452" lon="10.621716">
<ele>611.79</ele>
<time>2020-09-11T10:05:55Z</time>
</trkpt>
<trkpt lat="47.969398" lon="10.621743">
<ele>611.79</ele>
<time>2020-09-11T10:05:56Z</time>
</trkpt>
<trkpt lat="47.969353" lon="10.621775">
<ele>611.79</ele>
<time>2020-09-11T10:05:57Z</time>
</trkpt>
<trkpt lat="47.969299" lon="10.621808">
<ele>611.791</ele>
<time>2020-09-11T10:05:58Z</time>
</trkpt>
<trkpt lat="47.969246" lon="10.621838">
<ele>611.515</ele>
<time>2020-09-11T10:05:59Z</time>
</trkpt>
<trkpt lat="47.969189" lon="10.621857">
<ele>611.308</ele>
<time>2020-09-11T10:06:00Z</time>
</trkpt>
<trkpt lat="47.969128" lon="10.621863">
<ele>611.151</ele>
<time>2020-09-11T10:06:01Z</time>
</trkpt>
<trkpt lat="47.96907" lon="10.621859">
<ele>611.064</ele>
<time>2020-09-11T10:06:02Z</time>
</trkpt>
<trkpt lat="47.969013" lon="10.621848">
<ele>610.755</ele>
<time>2020-09-11T10:06:03Z</time>
</trkpt>
<trkpt lat="47.96896" lon="10.621843">
<ele>610.528</ele>
<time>2020-09-11T10:06:04Z</time>
</trkpt>
<trkpt lat="47.968899" lon="10.621845">
<ele>610.319</ele>
<time>2020-09-11T10:06:05Z</time>
</trkpt>
<trkpt lat="47.968845" lon="10.621859">
<ele>610.171</ele>
<time>2020-09-11T10:06:06Z</time>
</trkpt>
<trkpt lat="47.968796" lon="10.62189">
<ele>610.076</ele>
<time>2020-09-11T10:06:07Z</time>
</trkpt>
<trkpt lat="47.96875" lon="10.621943">
<ele>610.006</ele>
<time>2020-09-11T10:06:08Z</time>
</trkpt>
<trkpt lat="47.968723" lon="10.622013">
<ele>609.964</ele>
<time>2020-09-11T10:06:09Z</time>
</trkpt>
<trkpt lat="47.9687" lon="10.622091">
<ele>609.684</ele>
<time>2020-09-11T10:06:10Z</time>
</trkpt>
<trkpt lat="47.968693" lon="10.622173">
<ele>609.444</ele>
<time>2020-09-11T10:06:11Z</time>
</trkpt>
<trkpt lat="47.968685" lon="10.622254">
<ele>609.276</ele>
<time>2020-09-11T10:06:12Z</time>
</trkpt>
<trkpt lat="47.968681" lon="10.622336">
<ele>609.148</ele>
<time>2020-09-11T10:06:13Z</time>
</trkpt>
<trkpt lat="47.968674" lon="10.622416">
<ele>609.059</ele>
<time>2020-09-11T10:06:14Z</time>
</trkpt>
<trkpt lat="47.96867" lon="10.622492">
<ele>608.968</ele>
<time>2020-09-11T10:06:15Z</time>
</trkpt>
<trkpt lat="47.968674" lon="10.622566">
<ele>608.91</ele>
<time>2020-09-11T10:06:16Z</time>
</trkpt>
<trkpt lat="47.968681" lon="10.622643">
<ele>608.882</ele>
<time>2020-09-11T10:06:17Z</time>
</trkpt>
<trkpt lat="47.968697" lon="10.622717">
<ele>608.882</ele>
<time>2020-09-11T10:06:18Z</time>
</trkpt>
<trkpt lat="47.968712" lon="10.622788">
<ele>608.882</ele>
<time>2020-09-11T10:06:19Z</time>
</trkpt>
<trkpt lat="47.968731" lon="10.622856">
<ele>608.882</ele>
<time>2020-09-11T10:06:20Z</time>
</trkpt>
<trkpt lat="47.968758" lon="10.622923">
<ele>608.882</ele>
<time>2020-09-11T10:06:21Z</time>
</trkpt>
<trkpt lat="47.968773" lon="10.622988">
<ele>608.882</ele>
<time>2020-09-11T10:06:22Z</time>
</trkpt>
<trkpt lat="47.968796" lon="10.623052">
<ele>608.882</ele>
<time>2020-09-11T10:06:23Z</time>
</trkpt>
<trkpt lat="47.968811" lon="10.623112">
<ele>608.882</ele>
<time>2020-09-11T10:06:24Z</time>
</trkpt>
<trkpt lat="47.96883" lon="10.623172">
<ele>608.882</ele>
<time>2020-09-11T10:06:25Z</time>
</trkpt>
<trkpt lat="47.968838" lon="10.623232">
<ele>608.882</ele>
<time>2020-09-11T10:06:26Z</time>
</trkpt>
<trkpt lat="47.968849" lon="10.623292">
<ele>608.882</ele>
<time>2020-09-11T10:06:27Z</time>
</trkpt>
<trkpt lat="47.968857" lon="10.623352">
<ele>608.882</ele>
<time>2020-09-11T10:06:28Z</time>
</trkpt>
<trkpt lat="47.968861" lon="10.623411">
<ele>608.882</ele>
<time>2020-09-11T10:06:29Z</time>
</trkpt>
<trkpt lat="47.968864" lon="10.623469">
<ele>608.882</ele>
<time>2020-09-11T10:06:30Z</time>
</trkpt>
<trkpt lat="47.968872" lon="10.623528">
<ele>608.882</ele>
<time>2020-09-11T10:06:31Z</time>
</trkpt>
<trkpt lat="47.96888" lon="10.623589">
<ele>608.882</ele>
<time>2020-09-11T10:06:32Z</time>
</trkpt>
<trkpt lat="47.968887" lon="10.623648">
<ele>608.882</ele>
<time>2020-09-11T10:06:33Z</time>
</trkpt>
<trkpt lat="47.968891" lon="10.623711">
<ele>608.882</ele>
<time>2020-09-11T10:06:34Z</time>
</trkpt>
<trkpt lat="47.968895" lon="10.623778">
<ele>608.882</ele>
<time>2020-09-11T10:06:35Z</time>
</trkpt>
<trkpt lat="47.968895" lon="10.623847">
<ele>608.882</ele>
<time>2020-09-11T10:06:36Z</time>
</trkpt>
<trkpt lat="47.968895" lon="10.623919">
<ele>608.882</ele>
<time>2020-09-11T10:06:37Z</time>
</trkpt>
<trkpt lat="47.968895" lon="10.623991">
<ele>608.882</ele>
<time>2020-09-11T10:06:38Z</time>
</trkpt>
<trkpt lat="47.968891" lon="10.624066">
<ele>608.882</ele>
<time>2020-09-11T10:06:39Z</time>
</trkpt>
<trkpt lat="47.968887" lon="10.624142">
<ele>608.882</ele>
<time>2020-09-11T10:06:40Z</time>
</trkpt>
<trkpt lat="47.96888" lon="10.62422">
<ele>608.882</ele>
<time>2020-09-11T10:06:41Z</time>
</trkpt>
<trkpt lat="47.968864" lon="10.624293">
<ele>608.882</ele>
<time>2020-09-11T10:06:42Z</time>
</trkpt>
<trkpt lat="47.968845" lon="10.624343">
<ele>608.882</ele>
<time>2020-09-11T10:06:43Z</time>
</trkpt>
<trkpt lat="47.968819" lon="10.624381">
<ele>608.882</ele>
<time>2020-09-11T10:06:44Z</time>
</trkpt>
<trkpt lat="47.968796" lon="10.624427">
<ele>608.882</ele>
<time>2020-09-11T10:06:45Z</time>
</trkpt>
<trkpt lat="47.968792" lon="10.624477">
<ele>608.882</ele>
<time>2020-09-11T10:06:46Z</time>
</trkpt>
<trkpt lat="47.968792" lon="10.624528">
<ele>608.882</ele>
<time>2020-09-11T10:06:47Z</time>
</trkpt>
<trkpt lat="47.968784" lon="10.624584">
<ele>608.882</ele>
<time>2020-09-11T10:06:48Z</time>
</trkpt>
<trkpt lat="47.968777" lon="10.624643">
<ele>608.882</ele>
<time>2020-09-11T10:06:49Z</time>
</trkpt>
<trkpt lat="47.968765" lon="10.624701">
<ele>608.882</ele>
<time>2020-09-11T10:06:50Z</time>
</trkpt>
<trkpt lat="47.968761" lon="10.624763">
<ele>608.882</ele>
<time>2020-09-11T10:06:51Z</time>
</trkpt>
<trkpt lat="47.968754" lon="10.624833">
<ele>608.882</ele>
<time>2020-09-11T10:06:52Z</time>
</trkpt>
<trkpt lat="47.968746" lon="10.62491">
<ele>608.882</ele>
<time>2020-09-11T10:06:53Z</time>
</trkpt>
<trkpt lat="47.968739" lon="10.624987">
<ele>608.882</ele>
<time>2020-09-11T10:06:54Z</time>
</trkpt>
<trkpt lat="47.968731" lon="10.625067">
<ele>608.882</ele>
<time>2020-09-11T10:06:55Z</time>
</trkpt>
<trkpt lat="47.968719" lon="10.625147">
<ele>608.882</ele>
<time>2020-09-11T10:06:56Z</time>
</trkpt>
<trkpt lat="47.968708" lon="10.625227">
<ele>608.882</ele>
<time>2020-09-11T10:06:57Z</time>
</trkpt>
<trkpt lat="47.9687" lon="10.625307">
<ele>608.882</ele>
<time>2020-09-11T10:06:58Z</time>
</trkpt>
<trkpt lat="47.968689" lon="10.625386">
<ele>608.882</ele>
<time>2020-09-11T10:06:59Z</time>
</trkpt>
<trkpt lat="47.968681" lon="10.625466">
<ele>608.882</ele>
<time>2020-09-11T10:07:00Z</time>
</trkpt>
<trkpt lat="47.96867" lon="10.625548">
<ele>608.882</ele>
<time>2020-09-11T10:07:01Z</time>
</trkpt>
<trkpt lat="47.968666" lon="10.625629">
<ele>608.882</ele>
<time>2020-09-11T10:07:02Z</time>
</trkpt>
<trkpt lat="47.968655" lon="10.62571">
<ele>608.882</ele>
<time>2020-09-11T10:07:03Z</time>
</trkpt>
<trkpt lat="47.968643" lon="10.625791">
<ele>608.882</ele>
<time>2020-09-11T10:07:04Z</time>
</trkpt>
<trkpt lat="47.968636" lon="10.625872">
<ele>608.882</ele>
<time>2020-09-11T10:07:05Z</time>
</trkpt>
<trkpt lat="47.968628" lon="10.625955">
<ele>608.882</ele>
<time>2020-09-11T10:07:06Z</time>
</trkpt>
<trkpt lat="47.968616" lon="10.626039">
<ele>608.882</ele>
<time>2020-09-11T10:07:07Z</time>
</trkpt>
<trkpt lat="47.968609" lon="10.626122">
<ele>608.882</ele>
<time>2020-09-11T10:07:08Z</time>
</trkpt>
<trkpt lat="47.968601" lon="10.626205">
<ele>608.882</ele>
<time>2020-09-11T10:07:09Z</time>
</trkpt>
<trkpt lat="47.96859" lon="10.626287">
<ele>608.882</ele>
<time>2020-09-11T10:07:10Z</time>
</trkpt>
<trkpt lat="47.968578" lon="10.626367">
<ele>608.882</ele>
<time>2020-09-11T10:07:11Z</time>
</trkpt>
<trkpt lat="47.968571" lon="10.626447">
<ele>608.882</ele>
<time>2020-09-11T10:07:12Z</time>
</trkpt>
<trkpt lat="47.968559" lon="10.626529">
<ele>608.882</ele>
<time>2020-09-11T10:07:13Z</time>
</trkpt>
<trkpt lat="47.968552" lon="10.626608">
<ele>608.882</ele>
<time>2020-09-11T10:07:14Z</time>
</trkpt>
<trkpt lat="47.96854" lon="10.626692">
<ele>608.882</ele>
<time>2020-09-11T10:07:15Z</time>
</trkpt>
<trkpt lat="47.968536" lon="10.626772">
<ele>608.882</ele>
<time>2020-09-11T10:07:16Z</time>
</trkpt>
<trkpt lat="47.968525" lon="10.626853">
<ele>608.882</ele>
<time>2020-09-11T10:07:17Z</time>
</trkpt>
<trkpt lat="47.968513" lon="10.626937">
<ele>608.882</ele>
<time>2020-09-11T10:07:18Z</time>
</trkpt>
<trkpt lat="47.968502" lon="10.62702">
<ele>608.882</ele>
<time>2020-09-11T10:07:19Z</time>
</trkpt>
<trkpt lat="47.968494" lon="10.627105">
<ele>608.882</ele>
<time>2020-09-11T10:07:20Z</time>
</trkpt>
<trkpt lat="47.968487" lon="10.627189">
<ele>608.882</ele>
<time>2020-09-11T10:07:21Z</time>
</trkpt>
<trkpt lat="47.968475" lon="10.627274">
<ele>608.882</ele>
<time>2020-09-11T10:07:22Z</time>
</trkpt>
<trkpt lat="47.968468" lon="10.627357">
<ele>608.882</ele>
<time>2020-09-11T10:07:23Z</time>
</trkpt>
<trkpt lat="47.968456" lon="10.627441">
<ele>608.882</ele>
<time>2020-09-11T10:07:24Z</time>
</trkpt>
<trkpt lat="47.968445" lon="10.627525">
<ele>608.882</ele>
<time>2020-09-11T10:07:25Z</time>
</trkpt>
<trkpt lat="47.968437" lon="10.627607">
<ele>608.882</ele>
<time>2020-09-11T10:07:26Z</time>
</trkpt>
<trkpt lat="47.96843" lon="10.627689">
<ele>608.882</ele>
<time>2020-09-11T10:07:27Z</time>
</trkpt>
<trkpt lat="47.968418" lon="10.627771">
<ele>608.882</ele>
<time>2020-09-11T10:07:28Z</time>
</trkpt>
<trkpt lat="47.968407" lon="10.627854">
<ele>608.882</ele>
<time>2020-09-11T10:07:29Z</time>
</trkpt>
<trkpt lat="47.968395" lon="10.627936">
<ele>608.882</ele>
<time>2020-09-11T10:07:30Z</time>
</trkpt>
<trkpt lat="47.968384" lon="10.628018">
<ele>608.882</ele>
<time>2020-09-11T10:07:31Z</time>
</trkpt>
<trkpt lat="47.968372" lon="10.628103">
<ele>608.882</ele>
<time>2020-09-11T10:07:32Z</time>
</trkpt>
<trkpt lat="47.968365" lon="10.62819">
<ele>608.882</ele>
<time>2020-09-11T10:07:33Z</time>
</trkpt>
<trkpt lat="47.968353" lon="10.628277">
<ele>608.882</ele>
<time>2020-09-11T10:07:34Z</time>
</trkpt>
<trkpt lat="47.968342" lon="10.628364">
<ele>608.882</ele>
<time>2020-09-11T10:07:35Z</time>
</trkpt>
<trkpt lat="47.968338" lon="10.628448">
<ele>608.882</ele>
<time>2020-09-11T10:07:36Z</time>
</trkpt>
<trkpt lat="47.968323" lon="10.628535">
<ele>608.882</ele>
<time>2020-09-11T10:07:37Z</time>
</trkpt>
<trkpt lat="47.968311" lon="10.628621">
<ele>608.882</ele>
<time>2020-09-11T10:07:38Z</time>
</trkpt>
<trkpt lat="47.968304" lon="10.628709">
<ele>608.882</ele>
<time>2020-09-11T10:07:39Z</time>
</trkpt>
<trkpt lat="47.968292" lon="10.628794">
<ele>608.882</ele>
<time>2020-09-11T10:07:40Z</time>
</trkpt>
<trkpt lat="47.968281" lon="10.628881">
<ele>608.882</ele>
<time>2020-09-11T10:07:41Z</time>
</trkpt>
<trkpt lat="47.968273" lon="10.628969">
<ele>608.882</ele>
<time>2020-09-11T10:07:42Z</time>
</trkpt>
<trkpt lat="47.968262" lon="10.629059">
<ele>608.882</ele>
<time>2020-09-11T10:07:43Z</time>
</trkpt>
<trkpt lat="47.96825" lon="10.629145">
<ele>608.882</ele>
<time>2020-09-11T10:07:44Z</time>
</trkpt>
<trkpt lat="47.968243" lon="10.629233">
<ele>608.882</ele>
<time>2020-09-11T10:07:45Z</time>
</trkpt>
<trkpt lat="47.968231" lon="10.62932">
<ele>608.882</ele>
<time>2020-09-11T10:07:46Z</time>
</trkpt>
<trkpt lat="47.96822" lon="10.629409">
<ele>608.882</ele>
<time>2020-09-11T10:07:47Z</time>
</trkpt>
<trkpt lat="47.968208" lon="10.629497">
<ele>608.882</ele>
<time>2020-09-11T10:07:48Z</time>
</trkpt>
<trkpt lat="47.968201" lon="10.629585">
<ele>608.882</ele>
<time>2020-09-11T10:07:49Z</time>
</trkpt>
<trkpt lat="47.968193" lon="10.629671">
<ele>608.882</ele>
<time>2020-09-11T10:07:50Z</time>
</trkpt>
<trkpt lat="47.968182" lon="10.629757">
<ele>608.882</ele>
<time>2020-09-11T10:07:51Z</time>
</trkpt>
<trkpt lat="47.968174" lon="10.62984">
<ele>608.882</ele>
<time>2020-09-11T10:07:52Z</time>
</trkpt>
<trkpt lat="47.968163" lon="10.629923">
<ele>608.882</ele>
<time>2020-09-11T10:07:53Z</time>
</trkpt>
<trkpt lat="47.968151" lon="10.630005">
<ele>608.882</ele>
<time>2020-09-11T10:07:54Z</time>
</trkpt>
<trkpt lat="47.968143" lon="10.630085">
<ele>608.882</ele>
<time>2020-09-11T10:07:55Z</time>
</trkpt>
<trkpt lat="47.96814" lon="10.630167">
<ele>608.882</ele>
<time>2020-09-11T10:07:56Z</time>
</trkpt>
<trkpt lat="47.968132" lon="10.630249">
<ele>608.882</ele>
<time>2020-09-11T10:07:57Z</time>
</trkpt>
<trkpt lat="47.968121" lon="10.630328">
<ele>608.882</ele>
<time>2020-09-11T10:07:58Z</time>
</trkpt>
<trkpt lat="47.968113" lon="10.630406">
<ele>608.882</ele>
<time>2020-09-11T10:07:59Z</time>
</trkpt>
<trkpt lat="47.968102" lon="10.630478">
<ele>608.606</ele>
<time>2020-09-11T10:08:00Z</time>
</trkpt>
<trkpt lat="47.96809" lon="10.63055">
<ele>608.392</ele>
<time>2020-09-11T10:08:01Z</time>
</trkpt>
<trkpt lat="47.968079" lon="10.630618">
<ele>608.225</ele>
<time>2020-09-11T10:08:02Z</time>
</trkpt>
<trkpt lat="47.968075" lon="10.630687">
<ele>608.29</ele>
<time>2020-09-11T10:08:03Z</time>
</trkpt>
<trkpt lat="47.968075" lon="10.630754">
<ele>608.343</ele>
<time>2020-09-11T10:08:04Z</time>
</trkpt>
<trkpt lat="47.968079" lon="10.630816">
<ele>608.398</ele>
<time>2020-09-11T10:08:05Z</time>
</trkpt>
<trkpt lat="47.968086" lon="10.630878">
<ele>608.455</ele>
<time>2020-09-11T10:08:06Z</time>
</trkpt>
<trkpt lat="47.968086" lon="10.63094">
<ele>608.517</ele>
<time>2020-09-11T10:08:07Z</time>
</trkpt>
<trkpt lat="47.968079" lon="10.631005">
<ele>608.567</ele>
<time>2020-09-11T10:08:08Z</time>
</trkpt>
<trkpt lat="47.968067" lon="10.631073">
<ele>608.637</ele>
<time>2020-09-11T10:08:09Z</time>
</trkpt>
<trkpt lat="47.968048" lon="10.631142">
<ele>608.684</ele>
<time>2020-09-11T10:08:10Z</time>
</trkpt>
<trkpt lat="47.968033" lon="10.63121">
<ele>608.706</ele>
<time>2020-09-11T10:08:11Z</time>
</trkpt>
<trkpt lat="47.968014" lon="10.631282">
<ele>608.706</ele>
<time>2020-09-11T10:08:12Z</time>
</trkpt>
<trkpt lat="47.967999" lon="10.631353">
<ele>608.706</ele>
<time>2020-09-11T10:08:13Z</time>
</trkpt>
<trkpt lat="47.967983" lon="10.631427">
<ele>608.706</ele>
<time>2020-09-11T10:08:14Z</time>
</trkpt>
<trkpt lat="47.96796" lon="10.631498">
<ele>608.706</ele>
<time>2020-09-11T10:08:15Z</time>
</trkpt>
<trkpt lat="47.967941" lon="10.631572">
<ele>608.706</ele>
<time>2020-09-11T10:08:16Z</time>
</trkpt>
<trkpt lat="47.967918" lon="10.631643">
<ele>608.706</ele>
<time>2020-09-11T10:08:17Z</time>
</trkpt>
<trkpt lat="47.967899" lon="10.631717">
<ele>608.706</ele>
<time>2020-09-11T10:08:18Z</time>
</trkpt>
<trkpt lat="47.967873" lon="10.631789">
<ele>608.706</ele>
<time>2020-09-11T10:08:19Z</time>
</trkpt>
<trkpt lat="47.96785" lon="10.631862">
<ele>608.706</ele>
<time>2020-09-11T10:08:20Z</time>
</trkpt>
<trkpt lat="47.967823" lon="10.631938">
<ele>608.706</ele>
<time>2020-09-11T10:08:21Z</time>
</trkpt>
<trkpt lat="47.967796" lon="10.632015">
<ele>608.706</ele>
<time>2020-09-11T10:08:22Z</time>
</trkpt>
<trkpt lat="47.96777" lon="10.632089">
<ele>608.706</ele>
<time>2020-09-11T10:08:23Z</time>
</trkpt>
<trkpt lat="47.967743" lon="10.632162">
<ele>608.706</ele>
<time>2020-09-11T10:08:24Z</time>
</trkpt>
<trkpt lat="47.967712" lon="10.632237">
<ele>608.706</ele>
<time>2020-09-11T10:08:25Z</time>
</trkpt>
<trkpt lat="47.967686" lon="10.632309">
<ele>608.706</ele>
<time>2020-09-11T10:08:26Z</time>
</trkpt>
<trkpt lat="47.967655" lon="10.632379">
<ele>608.706</ele>
<time>2020-09-11T10:08:27Z</time>
</trkpt>
<trkpt lat="47.967621" lon="10.632449">
<ele>608.706</ele>
<time>2020-09-11T10:08:28Z</time>
</trkpt>
<trkpt lat="47.967587" lon="10.63252">
<ele>608.706</ele>
<time>2020-09-11T10:08:29Z</time>
</trkpt>
<trkpt lat="47.967556" lon="10.632588">
<ele>608.474</ele>
<time>2020-09-11T10:08:30Z</time>
</trkpt>
<trkpt lat="47.967522" lon="10.632658">
<ele>608.289</ele>
<time>2020-09-11T10:08:31Z</time>
</trkpt>
<trkpt lat="47.967491" lon="10.632727">
<ele>608.151</ele>
<time>2020-09-11T10:08:32Z</time>
</trkpt>
<trkpt lat="47.967457" lon="10.632795">
<ele>608.045</ele>
<time>2020-09-11T10:08:33Z</time>
</trkpt>
<trkpt lat="47.967422" lon="10.632865">
<ele>607.969</ele>
<time>2020-09-11T10:08:34Z</time>
</trkpt>
<trkpt lat="47.967388" lon="10.632932">
<ele>607.895</ele>
<time>2020-09-11T10:08:35Z</time>
</trkpt>
<trkpt lat="47.967354" lon="10.632997">
<ele>607.848</ele>
<time>2020-09-11T10:08:36Z</time>
</trkpt>
<trkpt lat="47.967316" lon="10.633061">
<ele>607.824</ele>
<time>2020-09-11T10:08:37Z</time>
</trkpt>
<trkpt lat="47.967281" lon="10.63313">
<ele>607.824</ele>
<time>2020-09-11T10:08:38Z</time>
</trkpt>
<trkpt lat="47.967243" lon="10.6332">
<ele>607.824</ele>
<time>2020-09-11T10:08:39Z</time>
</trkpt>
<trkpt lat="47.967209" lon="10.633268">
<ele>607.824</ele>
<time>2020-09-11T10:08:40Z</time>
</trkpt>
<trkpt lat="47.967171" lon="10.633335">
<ele>607.824</ele>
<time>2020-09-11T10:08:41Z</time>
</trkpt>
<trkpt lat="47.967133" lon="10.6334">
<ele>607.824</ele>
<time>2020-09-11T10:08:42Z</time>
</trkpt>
<trkpt lat="47.967098" lon="10.633467">
<ele>607.824</ele>
<time>2020-09-11T10:08:43Z</time>
</trkpt>
<trkpt lat="47.96706" lon="10.633534">
<ele>607.824</ele>
<time>2020-09-11T10:08:44Z</time>
</trkpt>
<trkpt lat="47.967026" lon="10.633603">
<ele>607.824</ele>
<time>2020-09-11T10:08:45Z</time>
</trkpt>
<trkpt lat="47.966988" lon="10.63367">
<ele>607.824</ele>
<time>2020-09-11T10:08:46Z</time>
</trkpt>
<trkpt lat="47.966949" lon="10.633737">
<ele>607.824</ele>
<time>2020-09-11T10:08:47Z</time>
</trkpt>
<trkpt lat="47.966915" lon="10.633803">
<ele>607.824</ele>
<time>2020-09-11T10:08:48Z</time>
</trkpt>
<trkpt lat="47.966877" lon="10.633872">
<ele>607.824</ele>
<time>2020-09-11T10:08:49Z</time>
</trkpt>
<trkpt lat="47.966843" lon="10.633941">
<ele>607.824</ele>
<time>2020-09-11T10:08:50Z</time>
</trkpt>
<trkpt lat="47.966808" lon="10.634007">
<ele>607.824</ele>
<time>2020-09-11T10:08:51Z</time>
</trkpt>
<trkpt lat="47.96677" lon="10.634073">
<ele>607.824</ele>
<time>2020-09-11T10:08:52Z</time>
</trkpt>
<trkpt lat="47.966736" lon="10.63414">
<ele>607.824</ele>
<time>2020-09-11T10:08:53Z</time>
</trkpt>
<trkpt lat="47.966702" lon="10.634209">
<ele>607.824</ele>
<time>2020-09-11T10:08:54Z</time>
</trkpt>
<trkpt lat="47.966667" lon="10.634275">
<ele>607.824</ele>
<time>2020-09-11T10:08:55Z</time>
</trkpt>
<trkpt lat="47.966633" lon="10.634343">
<ele>607.824</ele>
<time>2020-09-11T10:08:56Z</time>
</trkpt>
<trkpt lat="47.966599" lon="10.63441">
<ele>607.824</ele>
<time>2020-09-11T10:08:57Z</time>
</trkpt>
<trkpt lat="47.966564" lon="10.634475">
<ele>607.824</ele>
<time>2020-09-11T10:08:58Z</time>
</trkpt>
<trkpt lat="47.96653" lon="10.63454">
<ele>607.824</ele>
<time>2020-09-11T10:08:59Z</time>
</trkpt>
<trkpt lat="47.966492" lon="10.634605">
<ele>607.824</ele>
<time>2020-09-11T10:09:00Z</time>
</trkpt>
<trkpt lat="47.966457" lon="10.634672">
<ele>607.824</ele>
<time>2020-09-11T10:09:01Z</time>
</trkpt>
<trkpt lat="47.966419" lon="10.63474">
<ele>607.824</ele>
<time>2020-09-11T10:09:02Z</time>
</trkpt>
<trkpt lat="47.966385" lon="10.634809">
<ele>607.824</ele>
<time>2020-09-11T10:09:03Z</time>
</trkpt>
<trkpt lat="47.966347" lon="10.634878">
<ele>607.824</ele>
<time>2020-09-11T10:09:04Z</time>
</trkpt>
<trkpt lat="47.966312" lon="10.634949">
<ele>607.824</ele>
<time>2020-09-11T10:09:05Z</time>
</trkpt>
<trkpt lat="47.966274" lon="10.635016">
<ele>607.824</ele>
<time>2020-09-11T10:09:06Z</time>
</trkpt>
<trkpt lat="47.96624" lon="10.635087">
<ele>607.824</ele>
<time>2020-09-11T10:09:07Z</time>
</trkpt>
<trkpt lat="47.966202" lon="10.635159">
<ele>607.824</ele>
<time>2020-09-11T10:09:08Z</time>
</trkpt>
<trkpt lat="47.966167" lon="10.635229">
<ele>607.824</ele>
<time>2020-09-11T10:09:09Z</time>
</trkpt>
<trkpt lat="47.966129" lon="10.635301">
<ele>607.824</ele>
<time>2020-09-11T10:09:10Z</time>
</trkpt>
<trkpt lat="47.966095" lon="10.635368">
<ele>607.824</ele>
<time>2020-09-11T10:09:11Z</time>
</trkpt>
<trkpt lat="47.966057" lon="10.635441">
<ele>607.824</ele>
<time>2020-09-11T10:09:12Z</time>
</trkpt>
<trkpt lat="47.966026" lon="10.635511">
<ele>607.824</ele>
<time>2020-09-11T10:09:13Z</time>
</trkpt>
<trkpt lat="47.965992" lon="10.635583">
<ele>607.824</ele>
<time>2020-09-11T10:09:14Z</time>
</trkpt>
<trkpt lat="47.965961" lon="10.635656">
<ele>607.824</ele>
<time>2020-09-11T10:09:15Z</time>
</trkpt>
<trkpt lat="47.965927" lon="10.63573">
<ele>607.824</ele>
<time>2020-09-11T10:09:16Z</time>
</trkpt>
<trkpt lat="47.965897" lon="10.635805">
<ele>607.824</ele>
<time>2020-09-11T10:09:17Z</time>
</trkpt>
<trkpt lat="47.965862" lon="10.63588">
<ele>607.824</ele>
<time>2020-09-11T10:09:18Z</time>
</trkpt>
<trkpt lat="47.965832" lon="10.635955">
<ele>607.824</ele>
<time>2020-09-11T10:09:19Z</time>
</trkpt>
<trkpt lat="47.965797" lon="10.636028">
<ele>607.824</ele>
<time>2020-09-11T10:09:20Z</time>
</trkpt>
<trkpt lat="47.965767" lon="10.636103">
<ele>607.824</ele>
<time>2020-09-11T10:09:21Z</time>
</trkpt>
<trkpt lat="47.965733" lon="10.636178">
<ele>607.824</ele>
<time>2020-09-11T10:09:22Z</time>
</trkpt>
<trkpt lat="47.965706" lon="10.636253">
<ele>607.824</ele>
<time>2020-09-11T10:09:23Z</time>
</trkpt>
<trkpt lat="47.965675" lon="10.636327">
<ele>607.824</ele>
<time>2020-09-11T10:09:24Z</time>
</trkpt>
<trkpt lat="47.965649" lon="10.636402">
<ele>607.824</ele>
<time>2020-09-11T10:09:25Z</time>
</trkpt>
<trkpt lat="47.965626" lon="10.636476">
<ele>607.824</ele>
<time>2020-09-11T10:09:26Z</time>
</trkpt>
<trkpt lat="47.965599" lon="10.636549">
<ele>607.824</ele>
<time>2020-09-11T10:09:27Z</time>
</trkpt>
<trkpt lat="47.965569" lon="10.636621">
<ele>607.824</ele>
<time>2020-09-11T10:09:28Z</time>
</trkpt>
<trkpt lat="47.965542" lon="10.636696">
<ele>607.824</ele>
<time>2020-09-11T10:09:29Z</time>
</trkpt>
<trkpt lat="47.965511" lon="10.636775">
<ele>607.824</ele>
<time>2020-09-11T10:09:30Z</time>
</trkpt>
<trkpt lat="47.965485" lon="10.63685">
<ele>607.824</ele>
<time>2020-09-11T10:09:31Z</time>
</trkpt>
<trkpt lat="47.965458" lon="10.63693">
<ele>607.824</ele>
<time>2020-09-11T10:09:32Z</time>
</trkpt>
<trkpt lat="47.965427" lon="10.637004">
<ele>607.824</ele>
<time>2020-09-11T10:09:33Z</time>
</trkpt>
<trkpt lat="47.965397" lon="10.637077">
<ele>607.824</ele>
<time>2020-09-11T10:09:34Z</time>
</trkpt>
<trkpt lat="47.965363" lon="10.637153">
<ele>607.824</ele>
<time>2020-09-11T10:09:35Z</time>
</trkpt>
<trkpt lat="47.965332" lon="10.63723">
<ele>607.824</ele>
<time>2020-09-11T10:09:36Z</time>
</trkpt>
<trkpt lat="47.965302" lon="10.637308">
<ele>607.824</ele>
<time>2020-09-11T10:09:37Z</time>
</trkpt>
<trkpt lat="47.965267" lon="10.637385">
<ele>607.824</ele>
<time>2020-09-11T10:09:38Z</time>
</trkpt>
<trkpt lat="47.965233" lon="10.637462">
<ele>607.824</ele>
<time>2020-09-11T10:09:39Z</time>
</trkpt>
<trkpt lat="47.965199" lon="10.637535">
<ele>607.824</ele>
<time>2020-09-11T10:09:40Z</time>
</trkpt>
<trkpt lat="47.96516" lon="10.637607">
<ele>607.824</ele>
<time>2020-09-11T10:09:41Z</time>
</trkpt>
<trkpt lat="47.965122" lon="10.637671">
<ele>607.824</ele>
<time>2020-09-11T10:09:42Z</time>
</trkpt>
<trkpt lat="47.96508" lon="10.637735">
<ele>607.824</ele>
<time>2020-09-11T10:09:43Z</time>
</trkpt>
<trkpt lat="47.965034" lon="10.637795">
<ele>607.824</ele>
<time>2020-09-11T10:09:44Z</time>
</trkpt>
<trkpt lat="47.964993" lon="10.637852">
<ele>607.824</ele>
<time>2020-09-11T10:09:45Z</time>
</trkpt>
<trkpt lat="47.964947" lon="10.637909">
<ele>607.824</ele>
<time>2020-09-11T10:09:46Z</time>
</trkpt>
<trkpt lat="47.964897" lon="10.637961">
<ele>607.824</ele>
<time>2020-09-11T10:09:47Z</time>
</trkpt>
<trkpt lat="47.964851" lon="10.638016">
<ele>607.824</ele>
<time>2020-09-11T10:09:48Z</time>
</trkpt>
<trkpt lat="47.964806" lon="10.638066">
<ele>607.824</ele>
<time>2020-09-11T10:09:49Z</time>
</trkpt>
<trkpt lat="47.964756" lon="10.638115">
<ele>607.824</ele>
<time>2020-09-11T10:09:50Z</time>
</trkpt>
<trkpt lat="47.96471" lon="10.638162">
<ele>607.824</ele>
<time>2020-09-11T10:09:51Z</time>
</trkpt>
<trkpt lat="47.964657" lon="10.638208">
<ele>607.824</ele>
<time>2020-09-11T10:09:52Z</time>
</trkpt>
<trkpt lat="47.964611" lon="10.638253">
<ele>607.824</ele>
<time>2020-09-11T10:09:53Z</time>
</trkpt>
<trkpt lat="47.964561" lon="10.6383">
<ele>607.824</ele>
<time>2020-09-11T10:09:54Z</time>
</trkpt>
<trkpt lat="47.964516" lon="10.63835">
<ele>607.824</ele>
<time>2020-09-11T10:09:55Z</time>
</trkpt>
<trkpt lat="47.964466" lon="10.6384">
<ele>607.824</ele>
<time>2020-09-11T10:09:56Z</time>
</trkpt>
<trkpt lat="47.96442" lon="10.63845">
<ele>608.08</ele>
<time>2020-09-11T10:09:57Z</time>
</trkpt>
<trkpt lat="47.964371" lon="10.6385">
<ele>608.278</ele>
<time>2020-09-11T10:09:58Z</time>
</trkpt>
<trkpt lat="47.964321" lon="10.638552">
<ele>608.428</ele>
<time>2020-09-11T10:09:59Z</time>
</trkpt>
<trkpt lat="47.964272" lon="10.638602">
<ele>608.537</ele>
<time>2020-09-11T10:10:00Z</time>
</trkpt>
<trkpt lat="47.964226" lon="10.638653">
<ele>608.614</ele>
<time>2020-09-11T10:10:01Z</time>
</trkpt>
<trkpt lat="47.964172" lon="10.638703">
<ele>608.663</ele>
<time>2020-09-11T10:10:02Z</time>
</trkpt>
<trkpt lat="47.964127" lon="10.638753">
<ele>608.685</ele>
<time>2020-09-11T10:10:03Z</time>
</trkpt>
<trkpt lat="47.964077" lon="10.638803">
<ele>608.706</ele>
<time>2020-09-11T10:10:04Z</time>
</trkpt>
<trkpt lat="47.964031" lon="10.638856">
<ele>608.706</ele>
<time>2020-09-11T10:10:05Z</time>
</trkpt>
<trkpt lat="47.963982" lon="10.63891">
<ele>608.706</ele>
<time>2020-09-11T10:10:06Z</time>
</trkpt>
<trkpt lat="47.963936" lon="10.638962">
<ele>608.706</ele>
<time>2020-09-11T10:10:07Z</time>
</trkpt>
<trkpt lat="47.963882" lon="10.639013">
<ele>609.003</ele>
<time>2020-09-11T10:10:08Z</time>
</trkpt>
<trkpt lat="47.963837" lon="10.639067">
<ele>609.235</ele>
<time>2020-09-11T10:10:09Z</time>
</trkpt>
<trkpt lat="47.963787" lon="10.63912">
<ele>609.412</ele>
<time>2020-09-11T10:10:10Z</time>
</trkpt>
<trkpt lat="47.963741" lon="10.639172">
<ele>609.539</ele>
<time>2020-09-11T10:10:11Z</time>
</trkpt>
<trkpt lat="47.963688" lon="10.63922">
<ele>609.629</ele>
<time>2020-09-11T10:10:12Z</time>
</trkpt>
<trkpt lat="47.963642" lon="10.639269">
<ele>609.688</ele>
<time>2020-09-11T10:10:13Z</time>
</trkpt>
<trkpt lat="47.963593" lon="10.639318">
<ele>609.734</ele>
<time>2020-09-11T10:10:14Z</time>
</trkpt>
<trkpt lat="47.963543" lon="10.63937">
<ele>609.763</ele>
<time>2020-09-11T10:10:15Z</time>
</trkpt>
<trkpt lat="47.963493" lon="10.639421">
<ele>609.763</ele>
<time>2020-09-11T10:10:16Z</time>
</trkpt>
<trkpt lat="47.963448" lon="10.639475">
<ele>609.763</ele>
<time>2020-09-11T10:10:17Z</time>
</trkpt>
<trkpt lat="47.963398" lon="10.639526">
<ele>609.763</ele>
<time>2020-09-11T10:10:18Z</time>
</trkpt>
<trkpt lat="47.963348" lon="10.639577">
<ele>609.763</ele>
<time>2020-09-11T10:10:19Z</time>
</trkpt>
<trkpt lat="47.963303" lon="10.639627">
<ele>609.763</ele>
<time>2020-09-11T10:10:20Z</time>
</trkpt>
<trkpt lat="47.963253" lon="10.639675">
<ele>609.763</ele>
<time>2020-09-11T10:10:21Z</time>
</trkpt>
<trkpt lat="47.963203" lon="10.639723">
<ele>609.763</ele>
<time>2020-09-11T10:10:22Z</time>
</trkpt>
<trkpt lat="47.963158" lon="10.639771">
<ele>609.763</ele>
<time>2020-09-11T10:10:23Z</time>
</trkpt>
<trkpt lat="47.963108" lon="10.639817">
<ele>609.763</ele>
<time>2020-09-11T10:10:24Z</time>
</trkpt>
<trkpt lat="47.963062" lon="10.639845">
<ele>609.763</ele>
<time>2020-09-11T10:10:25Z</time>
</trkpt>
<trkpt lat="47.963017" lon="10.63987">
<ele>609.763</ele>
<time>2020-09-11T10:10:26Z</time>
</trkpt>
<trkpt lat="47.962967" lon="10.639899">
<ele>609.763</ele>
<time>2020-09-11T10:10:27Z</time>
</trkpt>
<trkpt lat="47.96291" lon="10.639933">
<ele>609.763</ele>
<time>2020-09-11T10:10:28Z</time>
</trkpt>
<trkpt lat="47.962856" lon="10.639965">
<ele>609.763</ele>
<time>2020-09-11T10:10:29Z</time>
</trkpt>
<trkpt lat="47.962795" lon="10.639997">
<ele>609.763</ele>
<time>2020-09-11T10:10:30Z</time>
</trkpt>
<trkpt lat="47.962734" lon="10.640027">
<ele>609.763</ele>
<time>2020-09-11T10:10:31Z</time>
</trkpt>
<trkpt lat="47.962681" lon="10.640057">
<ele>609.763</ele>
<time>2020-09-11T10:10:32Z</time>
</trkpt>
<trkpt lat="47.962624" lon="10.640083">
<ele>609.763</ele>
<time>2020-09-11T10:10:33Z</time>
</trkpt>
<trkpt lat="47.962563" lon="10.64011">
<ele>609.763</ele>
<time>2020-09-11T10:10:34Z</time>
</trkpt>
<trkpt lat="47.962505" lon="10.640135">
<ele>609.763</ele>
<time>2020-09-11T10:10:35Z</time>
</trkpt>
<trkpt lat="47.962448" lon="10.640165">
<ele>609.763</ele>
<time>2020-09-11T10:10:36Z</time>
</trkpt>
<trkpt lat="47.962391" lon="10.640197">
<ele>609.763</ele>
<time>2020-09-11T10:10:37Z</time>
</trkpt>
<trkpt lat="47.962334" lon="10.640226">
<ele>609.763</ele>
<time>2020-09-11T10:10:38Z</time>
</trkpt>
<trkpt lat="47.962276" lon="10.640253">
<ele>609.763</ele>
<time>2020-09-11T10:10:39Z</time>
</trkpt>
<trkpt lat="47.962215" lon="10.640277">
<ele>609.763</ele>
<time>2020-09-11T10:10:40Z</time>
</trkpt>
<trkpt lat="47.962158" lon="10.640302">
<ele>609.763</ele>
<time>2020-09-11T10:10:41Z</time>
</trkpt>
<trkpt lat="47.962101" lon="10.640326">
<ele>609.763</ele>
<time>2020-09-11T10:10:42Z</time>
</trkpt>
<trkpt lat="47.962048" lon="10.640348">
<ele>609.763</ele>
<time>2020-09-11T10:10:43Z</time>
</trkpt>
<trkpt lat="47.961987" lon="10.640373">
<ele>609.763</ele>
<time>2020-09-11T10:10:44Z</time>
</trkpt>
<trkpt lat="47.961929" lon="10.640402">
<ele>609.763</ele>
<time>2020-09-11T10:10:45Z</time>
</trkpt>
<trkpt lat="47.961868" lon="10.640429">
<ele>609.763</ele>
<time>2020-09-11T10:10:46Z</time>
</trkpt>
<trkpt lat="47.961811" lon="10.640465">
<ele>609.763</ele>
<time>2020-09-11T10:10:47Z</time>
</trkpt>
<trkpt lat="47.961754" lon="10.640493">
<ele>609.763</ele>
<time>2020-09-11T10:10:48Z</time>
</trkpt>
<trkpt lat="47.961693" lon="10.64052">
<ele>609.763</ele>
<time>2020-09-11T10:10:49Z</time>
</trkpt>
<trkpt lat="47.961636" lon="10.640551">
<ele>609.763</ele>
<time>2020-09-11T10:10:50Z</time>
</trkpt>
<trkpt lat="47.961578" lon="10.640578">
<ele>609.763</ele>
<time>2020-09-11T10:10:51Z</time>
</trkpt>
<trkpt lat="47.961517" lon="10.640603">
<ele>609.763</ele>
<time>2020-09-11T10:10:52Z</time>
</trkpt>
<trkpt lat="47.96146" lon="10.64063">
<ele>609.763</ele>
<time>2020-09-11T10:10:53Z</time>
</trkpt>
<trkpt lat="47.961403" lon="10.640656">
<ele>609.763</ele>
<time>2020-09-11T10:10:54Z</time>
</trkpt>
<trkpt lat="47.961349" lon="10.640683">
<ele>609.997</ele>
<time>2020-09-11T10:10:55Z</time>
</trkpt>
<trkpt lat="47.961292" lon="10.640708">
<ele>610.194</ele>
<time>2020-09-11T10:10:56Z</time>
</trkpt>
<trkpt lat="47.961235" lon="10.640735">
<ele>610.355</ele>
<time>2020-09-11T10:10:57Z</time>
</trkpt>
<trkpt lat="47.961178" lon="10.640763">
<ele>610.486</ele>
<time>2020-09-11T10:10:58Z</time>
</trkpt>
<trkpt lat="47.961124" lon="10.640792">
<ele>610.589</ele>
<time>2020-09-11T10:10:59Z</time>
</trkpt>
<trkpt lat="47.961071" lon="10.640823">
<ele>610.662</ele>
<time>2020-09-11T10:11:00Z</time>
</trkpt>
<trkpt lat="47.961014" lon="10.640857">
<ele>610.71</ele>
<time>2020-09-11T10:11:01Z</time>
</trkpt>
<trkpt lat="47.96096" lon="10.640893">
<ele>610.733</ele>
<time>2020-09-11T10:11:02Z</time>
</trkpt>
<trkpt lat="47.960907" lon="10.640932">
<ele>610.733</ele>
<time>2020-09-11T10:11:03Z</time>
</trkpt>
<trkpt lat="47.96085" lon="10.640972">
<ele>610.733</ele>
<time>2020-09-11T10:11:04Z</time>
</trkpt>
<trkpt lat="47.960796" lon="10.641016">
<ele>610.733</ele>
<time>2020-09-11T10:11:05Z</time>
</trkpt>
<trkpt lat="47.960743" lon="10.64106">
<ele>610.733</ele>
<time>2020-09-11T10:11:06Z</time>
</trkpt>
<trkpt lat="47.96069" lon="10.6411">
<ele>610.733</ele>
<time>2020-09-11T10:11:07Z</time>
</trkpt>
<trkpt lat="47.96064" lon="10.641131">
<ele>610.733</ele>
<time>2020-09-11T10:11:08Z</time>
</trkpt>
<trkpt lat="47.960587" lon="10.641162">
<ele>610.733</ele>
<time>2020-09-11T10:11:09Z</time>
</trkpt>
<trkpt lat="47.960537" lon="10.641196">
<ele>610.733</ele>
<time>2020-09-11T10:11:10Z</time>
</trkpt>
<trkpt lat="47.96048" lon="10.64123">
<ele>610.733</ele>
<time>2020-09-11T10:11:11Z</time>
</trkpt>
<trkpt lat="47.960426" lon="10.641267">
<ele>610.733</ele>
<time>2020-09-11T10:11:12Z</time>
</trkpt>
<trkpt lat="47.960377" lon="10.64131">
<ele>610.733</ele>
<time>2020-09-11T10:11:13Z</time>
</trkpt>
<trkpt lat="47.960323" lon="10.641357">
<ele>610.733</ele>
<time>2020-09-11T10:11:14Z</time>
</trkpt>
<trkpt lat="47.96027" lon="10.641398">
<ele>610.733</ele>
<time>2020-09-11T10:11:15Z</time>
</trkpt>
<trkpt lat="47.960217" lon="10.641435">
<ele>610.733</ele>
<time>2020-09-11T10:11:16Z</time>
</trkpt>
<trkpt lat="47.960163" lon="10.641472">
<ele>610.733</ele>
<time>2020-09-11T10:11:17Z</time>
</trkpt>
<trkpt lat="47.96011" lon="10.641504">
<ele>610.733</ele>
<time>2020-09-11T10:11:18Z</time>
</trkpt>
<trkpt lat="47.960056" lon="10.641537">
<ele>610.733</ele>
<time>2020-09-11T10:11:19Z</time>
</trkpt>
<trkpt lat="47.960003" lon="10.641573">
<ele>610.733</ele>
<time>2020-09-11T10:11:20Z</time>
</trkpt>
<trkpt lat="47.959957" lon="10.641604">
<ele>610.733</ele>
<time>2020-09-11T10:11:21Z</time>
</trkpt>
<trkpt lat="47.959904" lon="10.641638">
<ele>610.733</ele>
<time>2020-09-11T10:11:22Z</time>
</trkpt>
<trkpt lat="47.959854" lon="10.641676">
<ele>610.733</ele>
<time>2020-09-11T10:11:23Z</time>
</trkpt>
<trkpt lat="47.959801" lon="10.64172">
<ele>610.733</ele>
<time>2020-09-11T10:11:24Z</time>
</trkpt>
<trkpt lat="47.959751" lon="10.641764">
<ele>610.733</ele>
<time>2020-09-11T10:11:25Z</time>
</trkpt>
<trkpt lat="47.959702" lon="10.641802">
<ele>610.733</ele>
<time>2020-09-11T10:11:26Z</time>
</trkpt>
<trkpt lat="47.959656" lon="10.641842">
<ele>610.733</ele>
<time>2020-09-11T10:11:27Z</time>
</trkpt>
<trkpt lat="47.95961" lon="10.641881">
<ele>610.733</ele>
<time>2020-09-11T10:11:28Z</time>
</trkpt>
<trkpt lat="47.959564" lon="10.641927">
<ele>610.733</ele>
<time>2020-09-11T10:11:29Z</time>
</trkpt>
<trkpt lat="47.959511" lon="10.64198">
<ele>610.733</ele>
<time>2020-09-11T10:11:30Z</time>
</trkpt>
<trkpt lat="47.959469" lon="10.642042">
<ele>610.733</ele>
<time>2020-09-11T10:11:31Z</time>
</trkpt>
<trkpt lat="47.959423" lon="10.64211">
<ele>610.733</ele>
<time>2020-09-11T10:11:32Z</time>
</trkpt>
<trkpt lat="47.959373" lon="10.642172">
<ele>610.733</ele>
<time>2020-09-11T10:11:33Z</time>
</trkpt>
<trkpt lat="47.959324" lon="10.642237">
<ele>610.733</ele>
<time>2020-09-11T10:11:34Z</time>
</trkpt>
<trkpt lat="47.959278" lon="10.642288">
<ele>610.733</ele>
<time>2020-09-11T10:11:35Z</time>
</trkpt>
<trkpt lat="47.959232" lon="10.642338">
<ele>610.733</ele>
<time>2020-09-11T10:11:36Z</time>
</trkpt>
<trkpt lat="47.959187" lon="10.64239">
<ele>610.733</ele>
<time>2020-09-11T10:11:37Z</time>
</trkpt>
<trkpt lat="47.959145" lon="10.642447">
<ele>610.733</ele>
<time>2020-09-11T10:11:38Z</time>
</trkpt>
<trkpt lat="47.959099" lon="10.642502">
<ele>610.733</ele>
<time>2020-09-11T10:11:39Z</time>
</trkpt>
<trkpt lat="47.959053" lon="10.642555">
<ele>610.733</ele>
<time>2020-09-11T10:11:40Z</time>
</trkpt>
<trkpt lat="47.959011" lon="10.642612">
<ele>610.733</ele>
<time>2020-09-11T10:11:41Z</time>
</trkpt>
<trkpt lat="47.958965" lon="10.642667">
<ele>610.733</ele>
<time>2020-09-11T10:11:42Z</time>
</trkpt>
<trkpt lat="47.95892" lon="10.642718">
<ele>610.733</ele>
<time>2020-09-11T10:11:43Z</time>
</trkpt>
<trkpt lat="47.958874" lon="10.64277">
<ele>610.733</ele>
<time>2020-09-11T10:11:44Z</time>
</trkpt>
<trkpt lat="47.958828" lon="10.642825">
<ele>610.968</ele>
<time>2020-09-11T10:11:45Z</time>
</trkpt>
<trkpt lat="47.95879" lon="10.64288">
<ele>611.165</ele>
<time>2020-09-11T10:11:46Z</time>
</trkpt>
<trkpt lat="47.958744" lon="10.642937">
<ele>611.328</ele>
<time>2020-09-11T10:11:47Z</time>
</trkpt>
<trkpt lat="47.958702" lon="10.642992">
<ele>611.459</ele>
<time>2020-09-11T10:11:48Z</time>
</trkpt>
<trkpt lat="47.958656" lon="10.643048">
<ele>611.56</ele>
<time>2020-09-11T10:11:49Z</time>
</trkpt>
<trkpt lat="47.958618" lon="10.643106">
<ele>611.633</ele>
<time>2020-09-11T10:11:50Z</time>
</trkpt>
<trkpt lat="47.958576" lon="10.643167">
<ele>611.68</ele>
<time>2020-09-11T10:11:51Z</time>
</trkpt>
<trkpt lat="47.958534" lon="10.643232">
<ele>611.702</ele>
<time>2020-09-11T10:11:52Z</time>
</trkpt>
<trkpt lat="47.958496" lon="10.643302">
<ele>611.702</ele>
<time>2020-09-11T10:11:53Z</time>
</trkpt>
<trkpt lat="47.958462" lon="10.643373">
<ele>611.702</ele>
<time>2020-09-11T10:11:54Z</time>
</trkpt>
<trkpt lat="47.958431" lon="10.64345">
<ele>611.702</ele>
<time>2020-09-11T10:11:55Z</time>
</trkpt>
<trkpt lat="47.958401" lon="10.64353">
<ele>611.702</ele>
<time>2020-09-11T10:11:56Z</time>
</trkpt>
<trkpt lat="47.958374" lon="10.643608">
<ele>611.702</ele>
<time>2020-09-11T10:11:57Z</time>
</trkpt>
<trkpt lat="47.958344" lon="10.64369">
<ele>611.702</ele>
<time>2020-09-11T10:11:58Z</time>
</trkpt>
<trkpt lat="47.958317" lon="10.64377">
<ele>611.702</ele>
<time>2020-09-11T10:11:59Z</time>
</trkpt>
<trkpt lat="47.958286" lon="10.643853">
<ele>611.702</ele>
<time>2020-09-11T10:12:00Z</time>
</trkpt>
<trkpt lat="47.95826" lon="10.643934">
<ele>611.702</ele>
<time>2020-09-11T10:12:01Z</time>
</trkpt>
<trkpt lat="47.958233" lon="10.644013">
<ele>611.702</ele>
<time>2020-09-11T10:12:02Z</time>
</trkpt>
<trkpt lat="47.958202" lon="10.644092">
<ele>611.702</ele>
<time>2020-09-11T10:12:03Z</time>
</trkpt>
<trkpt lat="47.958172" lon="10.64417">
<ele>611.702</ele>
<time>2020-09-11T10:12:04Z</time>
</trkpt>
<trkpt lat="47.958145" lon="10.644247">
<ele>611.702</ele>
<time>2020-09-11T10:12:05Z</time>
</trkpt>
<trkpt lat="47.958118" lon="10.644324">
<ele>611.702</ele>
<time>2020-09-11T10:12:06Z</time>
</trkpt>
<trkpt lat="47.958096" lon="10.644402">
<ele>611.955</ele>
<time>2020-09-11T10:12:07Z</time>
</trkpt>
<trkpt lat="47.958065" lon="10.64448">
<ele>612.15</ele>
<time>2020-09-11T10:12:08Z</time>
</trkpt>
<trkpt lat="47.958038" lon="10.644559">
<ele>612.304</ele>
<time>2020-09-11T10:12:09Z</time>
</trkpt>
<trkpt lat="47.958019" lon="10.644629">
<ele>612.413</ele>
<time>2020-09-11T10:12:10Z</time>
</trkpt>
<trkpt lat="47.957996" lon="10.644697">
<ele>612.489</ele>
<time>2020-09-11T10:12:11Z</time>
</trkpt>
<trkpt lat="47.95797" lon="10.644771">
<ele>612.537</ele>
<time>2020-09-11T10:12:12Z</time>
</trkpt>
<trkpt lat="47.957939" lon="10.644845">
<ele>612.563</ele>
<time>2020-09-11T10:12:13Z</time>
</trkpt>
<trkpt lat="47.957909" lon="10.644919">
<ele>612.584</ele>
<time>2020-09-11T10:12:14Z</time>
</trkpt>
<trkpt lat="47.957878" lon="10.644997">
<ele>612.584</ele>
<time>2020-09-11T10:12:15Z</time>
</trkpt>
<trkpt lat="47.957848" lon="10.645075">
<ele>612.584</ele>
<time>2020-09-11T10:12:16Z</time>
</trkpt>
<trkpt lat="47.957825" lon="10.645153">
<ele>612.584</ele>
<time>2020-09-11T10:12:17Z</time>
</trkpt>
<trkpt lat="47.957798" lon="10.645233">
<ele>612.584</ele>
<time>2020-09-11T10:12:18Z</time>
</trkpt>
<trkpt lat="47.957771" lon="10.64531">
<ele>612.584</ele>
<time>2020-09-11T10:12:19Z</time>
</trkpt>
<trkpt lat="47.957745" lon="10.645391">
<ele>612.584</ele>
<time>2020-09-11T10:12:20Z</time>
</trkpt>
<trkpt lat="47.957722" lon="10.645468">
<ele>612.584</ele>
<time>2020-09-11T10:12:21Z</time>
</trkpt>
<trkpt lat="47.957699" lon="10.645547">
<ele>612.584</ele>
<time>2020-09-11T10:12:22Z</time>
</trkpt>
<trkpt lat="47.95768" lon="10.645627">
<ele>612.584</ele>
<time>2020-09-11T10:12:23Z</time>
</trkpt>
<trkpt lat="47.957653" lon="10.64571">
<ele>612.584</ele>
<time>2020-09-11T10:12:24Z</time>
</trkpt>
<trkpt lat="47.95763" lon="10.645792">
<ele>612.584</ele>
<time>2020-09-11T10:12:25Z</time>
</trkpt>
<trkpt lat="47.957611" lon="10.645873">
<ele>612.584</ele>
<time>2020-09-11T10:12:26Z</time>
</trkpt>
<trkpt lat="47.957588" lon="10.645954">
<ele>612.584</ele>
<time>2020-09-11T10:12:27Z</time>
</trkpt>
<trkpt lat="47.957565" lon="10.646031">
<ele>612.584</ele>
<time>2020-09-11T10:12:28Z</time>
</trkpt>
<trkpt lat="47.957546" lon="10.646111">
<ele>612.584</ele>
<time>2020-09-11T10:12:29Z</time>
</trkpt>
<trkpt lat="47.957523" lon="10.646192">
<ele>612.584</ele>
<time>2020-09-11T10:12:30Z</time>
</trkpt>
<trkpt lat="47.957504" lon="10.646273">
<ele>612.584</ele>
<time>2020-09-11T10:12:31Z</time>
</trkpt>
<trkpt lat="47.957485" lon="10.64635">
<ele>612.823</ele>
<time>2020-09-11T10:12:32Z</time>
</trkpt>
<trkpt lat="47.957466" lon="10.646427">
<ele>613.014</ele>
<time>2020-09-11T10:12:33Z</time>
</trkpt>
<trkpt lat="47.957443" lon="10.646502">
<ele>613.148</ele>
<time>2020-09-11T10:12:34Z</time>
</trkpt>
<trkpt lat="47.95742" lon="10.646581">
<ele>613.29</ele>
<time>2020-09-11T10:12:35Z</time>
</trkpt>
<trkpt lat="47.957397" lon="10.646658">
<ele>613.4</ele>
<time>2020-09-11T10:12:36Z</time>
</trkpt>
<trkpt lat="47.957378" lon="10.646738">
<ele>613.478</ele>
<time>2020-09-11T10:12:37Z</time>
</trkpt>
<trkpt lat="47.957355" lon="10.646818">
<ele>613.529</ele>
<time>2020-09-11T10:12:38Z</time>
</trkpt>
<trkpt lat="47.95734" lon="10.646894">
<ele>613.554</ele>
<time>2020-09-11T10:12:39Z</time>
</trkpt>
<trkpt lat="47.957321" lon="10.646972">
<ele>613.554</ele>
<time>2020-09-11T10:12:40Z</time>
</trkpt>
<trkpt lat="47.957294" lon="10.647052">
<ele>613.554</ele>
<time>2020-09-11T10:12:41Z</time>
</trkpt>
<trkpt lat="47.957275" lon="10.647132">
<ele>613.554</ele>
<time>2020-09-11T10:12:42Z</time>
</trkpt>
<trkpt lat="47.957256" lon="10.647208">
<ele>613.554</ele>
<time>2020-09-11T10:12:43Z</time>
</trkpt>
<trkpt lat="47.957237" lon="10.647285">
<ele>613.554</ele>
<time>2020-09-11T10:12:44Z</time>
</trkpt>
<trkpt lat="47.957218" lon="10.647364">
<ele>613.554</ele>
<time>2020-09-11T10:12:45Z</time>
</trkpt>
<trkpt lat="47.957195" lon="10.64744">
<ele>613.554</ele>
<time>2020-09-11T10:12:46Z</time>
</trkpt>
<trkpt lat="47.957169" lon="10.647511">
<ele>613.834</ele>
<time>2020-09-11T10:12:47Z</time>
</trkpt>
<trkpt lat="47.957142" lon="10.647576">
<ele>614.05</ele>
<time>2020-09-11T10:12:48Z</time>
</trkpt>
<trkpt lat="47.957108" lon="10.647628">
<ele>614.186</ele>
<time>2020-09-11T10:12:49Z</time>
</trkpt>
<trkpt lat="47.957062" lon="10.647666">
<ele>614.547</ele>
<time>2020-09-11T10:12:50Z</time>
</trkpt>
<trkpt lat="47.95702" lon="10.647685">
<ele>614.816</ele>
<time>2020-09-11T10:12:51Z</time>
</trkpt>
<trkpt lat="47.95697" lon="10.647687">
<ele>615.011</ele>
<time>2020-09-11T10:12:52Z</time>
</trkpt>
<trkpt lat="47.956924" lon="10.647675">
<ele>615.148</ele>
<time>2020-09-11T10:12:53Z</time>
</trkpt>
<trkpt lat="47.956879" lon="10.64765">
<ele>615.251</ele>
<time>2020-09-11T10:12:54Z</time>
</trkpt>
<trkpt lat="47.956833" lon="10.647622">
<ele>615.561</ele>
<time>2020-09-11T10:12:55Z</time>
</trkpt>
<trkpt lat="47.956791" lon="10.647596">
<ele>615.81</ele>
<time>2020-09-11T10:12:56Z</time>
</trkpt>
<trkpt lat="47.956745" lon="10.647573">
<ele>616</ele>
<time>2020-09-11T10:12:57Z</time>
</trkpt>
<trkpt lat="47.956703" lon="10.647549">
<ele>616.131</ele>
<time>2020-09-11T10:12:58Z</time>
</trkpt>
<trkpt lat="47.956661" lon="10.647525">
<ele>616.233</ele>
<time>2020-09-11T10:12:59Z</time>
</trkpt>
<trkpt lat="47.956615" lon="10.6475">
<ele>616.306</ele>
<time>2020-09-11T10:13:00Z</time>
</trkpt>
<trkpt lat="47.95657" lon="10.647475">
<ele>616.352</ele>
<time>2020-09-11T10:13:01Z</time>
</trkpt>
<trkpt lat="47.956524" lon="10.647456">
<ele>616.376</ele>
<time>2020-09-11T10:13:02Z</time>
</trkpt>
<trkpt lat="47.956478" lon="10.647435">
<ele>616.612</ele>
<time>2020-09-11T10:13:03Z</time>
</trkpt>
<trkpt lat="47.956436" lon="10.647415">
<ele>616.781</ele>
<time>2020-09-11T10:13:04Z</time>
</trkpt>
<trkpt lat="47.956387" lon="10.647395">
<ele>616.953</ele>
<time>2020-09-11T10:13:05Z</time>
</trkpt>
<trkpt lat="47.956345" lon="10.647375">
<ele>617.092</ele>
<time>2020-09-11T10:13:06Z</time>
</trkpt>
<trkpt lat="47.956303" lon="10.647358">
<ele>617.197</ele>
<time>2020-09-11T10:13:07Z</time>
</trkpt>
<trkpt lat="47.956261" lon="10.647346">
<ele>617.272</ele>
<time>2020-09-11T10:13:08Z</time>
</trkpt>
<trkpt lat="47.956219" lon="10.647328">
<ele>617.321</ele>
<time>2020-09-11T10:13:09Z</time>
</trkpt>
<trkpt lat="47.956177" lon="10.647308">
<ele>617.346</ele>
<time>2020-09-11T10:13:10Z</time>
</trkpt>
<trkpt lat="47.956135" lon="10.647288">
<ele>617.611</ele>
<time>2020-09-11T10:13:11Z</time>
</trkpt>
<trkpt lat="47.956097" lon="10.647266">
<ele>617.821</ele>
<time>2020-09-11T10:13:12Z</time>
</trkpt>
<trkpt lat="47.956059" lon="10.647241">
<ele>617.988</ele>
<time>2020-09-11T10:13:13Z</time>
</trkpt>
<trkpt lat="47.956028" lon="10.647211">
<ele>618.107</ele>
<time>2020-09-11T10:13:14Z</time>
</trkpt>
<trkpt lat="47.955994" lon="10.647186">
<ele>618.226</ele>
<time>2020-09-11T10:13:15Z</time>
</trkpt>
<trkpt lat="47.955956" lon="10.647161">
<ele>618.548</ele>
<time>2020-09-11T10:13:16Z</time>
</trkpt>
<trkpt lat="47.955921" lon="10.647123">
<ele>618.803</ele>
<time>2020-09-11T10:13:17Z</time>
</trkpt>
<trkpt lat="47.955883" lon="10.647083">
<ele>618.993</ele>
<time>2020-09-11T10:13:18Z</time>
</trkpt>
<trkpt lat="47.955849" lon="10.64705">
<ele>619.203</ele>
<time>2020-09-11T10:13:19Z</time>
</trkpt>
<trkpt lat="47.955814" lon="10.647017">
<ele>619.279</ele>
<time>2020-09-11T10:13:20Z</time>
</trkpt>
<trkpt lat="47.955784" lon="10.646987">
<ele>619.59</ele>
<time>2020-09-11T10:13:21Z</time>
</trkpt>
<trkpt lat="47.95575" lon="10.64695">
<ele>619.824</ele>
<time>2020-09-11T10:13:22Z</time>
</trkpt>
<trkpt lat="47.955708" lon="10.646915">
<ele>619.973</ele>
<time>2020-09-11T10:13:23Z</time>
</trkpt>
<trkpt lat="47.955669" lon="10.646885">
<ele>620.071</ele>
<time>2020-09-11T10:13:24Z</time>
</trkpt>
<trkpt lat="47.955627" lon="10.646863">
<ele>620.181</ele>
<time>2020-09-11T10:13:25Z</time>
</trkpt>
<trkpt lat="47.955582" lon="10.646838">
<ele>620.266</ele>
<time>2020-09-11T10:13:26Z</time>
</trkpt>
<trkpt lat="47.955528" lon="10.64682">
<ele>620.321</ele>
<time>2020-09-11T10:13:27Z</time>
</trkpt>
<trkpt lat="47.955463" lon="10.646805">
<ele>620.345</ele>
<time>2020-09-11T10:13:28Z</time>
</trkpt>
<trkpt lat="47.95541" lon="10.646793">
<ele>620.345</ele>
<time>2020-09-11T10:13:29Z</time>
</trkpt>
<trkpt lat="47.955357" lon="10.646786">
<ele>620.345</ele>
<time>2020-09-11T10:13:30Z</time>
</trkpt>
<trkpt lat="47.955299" lon="10.646784">
<ele>620.345</ele>
<time>2020-09-11T10:13:31Z</time>
</trkpt>
<trkpt lat="47.955242" lon="10.646784">
<ele>620.345</ele>
<time>2020-09-11T10:13:32Z</time>
</trkpt>
<trkpt lat="47.955189" lon="10.646786">
<ele>620.345</ele>
<time>2020-09-11T10:13:33Z</time>
</trkpt>
<trkpt lat="47.955135" lon="10.646791">
<ele>620.345</ele>
<time>2020-09-11T10:13:34Z</time>
</trkpt>
<trkpt lat="47.955086" lon="10.646798">
<ele>620.598</ele>
<time>2020-09-11T10:13:35Z</time>
</trkpt>
<trkpt lat="47.955036" lon="10.646805">
<ele>620.81</ele>
<time>2020-09-11T10:13:36Z</time>
</trkpt>
<trkpt lat="47.954983" lon="10.646813">
<ele>620.988</ele>
<time>2020-09-11T10:13:37Z</time>
</trkpt>
<trkpt lat="47.954933" lon="10.646825">
<ele>621.132</ele>
<time>2020-09-11T10:13:38Z</time>
</trkpt>
<trkpt lat="47.954884" lon="10.646834">
<ele>621.243</ele>
<time>2020-09-11T10:13:39Z</time>
</trkpt>
<trkpt lat="47.954834" lon="10.646843">
<ele>621.325</ele>
<time>2020-09-11T10:13:40Z</time>
</trkpt>
<trkpt lat="47.954788" lon="10.646855">
<ele>621.378</ele>
<time>2020-09-11T10:13:41Z</time>
</trkpt>
<trkpt lat="47.954746" lon="10.646868">
<ele>621.404</ele>
<time>2020-09-11T10:13:42Z</time>
</trkpt>
<trkpt lat="47.954697" lon="10.646873">
<ele>621.404</ele>
<time>2020-09-11T10:13:43Z</time>
</trkpt>
<trkpt lat="47.954647" lon="10.646873">
<ele>621.404</ele>
<time>2020-09-11T10:13:44Z</time>
</trkpt>
<trkpt lat="47.954597" lon="10.646868">
<ele>621.404</ele>
<time>2020-09-11T10:13:45Z</time>
</trkpt>
<trkpt lat="47.954552" lon="10.646859">
<ele>621.404</ele>
<time>2020-09-11T10:13:46Z</time>
</trkpt>
<trkpt lat="47.954498" lon="10.646851">
<ele>621.404</ele>
<time>2020-09-11T10:13:47Z</time>
</trkpt>
<trkpt lat="47.954453" lon="10.646838">
<ele>621.404</ele>
<time>2020-09-11T10:13:48Z</time>
</trkpt>
<trkpt lat="47.954399" lon="10.646824">
<ele>621.696</ele>
<time>2020-09-11T10:13:49Z</time>
</trkpt>
<trkpt lat="47.954353" lon="10.646807">
<ele>621.921</ele>
<time>2020-09-11T10:13:50Z</time>
</trkpt>
<trkpt lat="47.954304" lon="10.64679">
<ele>622.092</ele>
<time>2020-09-11T10:13:51Z</time>
</trkpt>
<trkpt lat="47.954258" lon="10.646769">
<ele>622.217</ele>
<time>2020-09-11T10:13:52Z</time>
</trkpt>
<trkpt lat="47.954212" lon="10.646742">
<ele>622.31</ele>
<time>2020-09-11T10:13:53Z</time>
</trkpt>
<trkpt lat="47.954166" lon="10.646712">
<ele>622.376</ele>
<time>2020-09-11T10:13:54Z</time>
</trkpt>
<trkpt lat="47.954124" lon="10.646679">
<ele>622.434</ele>
<time>2020-09-11T10:13:55Z</time>
</trkpt>
<trkpt lat="47.954079" lon="10.646644">
<ele>622.463</ele>
<time>2020-09-11T10:13:56Z</time>
</trkpt>
<trkpt lat="47.954037" lon="10.646608">
<ele>622.463</ele>
<time>2020-09-11T10:13:57Z</time>
</trkpt>
<trkpt lat="47.953995" lon="10.646572">
<ele>622.463</ele>
<time>2020-09-11T10:13:58Z</time>
</trkpt>
<trkpt lat="47.953957" lon="10.646532">
<ele>622.463</ele>
<time>2020-09-11T10:13:59Z</time>
</trkpt>
<trkpt lat="47.953918" lon="10.646486">
<ele>622.718</ele>
<time>2020-09-11T10:14:00Z</time>
</trkpt>
<trkpt lat="47.95388" lon="10.646443">
<ele>622.918</ele>
<time>2020-09-11T10:14:01Z</time>
</trkpt>
<trkpt lat="47.953846" lon="10.646399">
<ele>623.074</ele>
<time>2020-09-11T10:14:02Z</time>
</trkpt>
<trkpt lat="47.953812" lon="10.646354">
<ele>623.189</ele>
<time>2020-09-11T10:14:03Z</time>
</trkpt>
<trkpt lat="47.953773" lon="10.646306">
<ele>623.27</ele>
<time>2020-09-11T10:14:04Z</time>
</trkpt>
<trkpt lat="47.953735" lon="10.646264">
<ele>623.354</ele>
<time>2020-09-11T10:14:05Z</time>
</trkpt>
<trkpt lat="47.953701" lon="10.646222">
<ele>623.407</ele>
<time>2020-09-11T10:14:06Z</time>
</trkpt>
<trkpt lat="47.953659" lon="10.646178">
<ele>623.433</ele>
<time>2020-09-11T10:14:07Z</time>
</trkpt>
<trkpt lat="47.953617" lon="10.646142">
<ele>623.433</ele>
<time>2020-09-11T10:14:08Z</time>
</trkpt>
<trkpt lat="47.953571" lon="10.646107">
<ele>623.433</ele>
<time>2020-09-11T10:14:09Z</time>
</trkpt>
<trkpt lat="47.953526" lon="10.646077">
<ele>623.695</ele>
<time>2020-09-11T10:14:10Z</time>
</trkpt>
<trkpt lat="47.95348" lon="10.646052">
<ele>623.894</ele>
<time>2020-09-11T10:14:11Z</time>
</trkpt>
<trkpt lat="47.953434" lon="10.646027">
<ele>624.051</ele>
<time>2020-09-11T10:14:12Z</time>
</trkpt>
<trkpt lat="47.953384" lon="10.646005">
<ele>624.166</ele>
<time>2020-09-11T10:14:13Z</time>
</trkpt>
<trkpt lat="47.953339" lon="10.645984">
<ele>624.245</ele>
<time>2020-09-11T10:14:14Z</time>
</trkpt>
<trkpt lat="47.953293" lon="10.645963">
<ele>624.326</ele>
<time>2020-09-11T10:14:15Z</time>
</trkpt>
<trkpt lat="47.953243" lon="10.645944">
<ele>624.378</ele>
<time>2020-09-11T10:14:16Z</time>
</trkpt>
<trkpt lat="47.953194" lon="10.645928">
<ele>624.404</ele>
<time>2020-09-11T10:14:17Z</time>
</trkpt>
<trkpt lat="47.953148" lon="10.64591">
<ele>624.404</ele>
<time>2020-09-11T10:14:18Z</time>
</trkpt>
<trkpt lat="47.953098" lon="10.645898">
<ele>624.643</ele>
<time>2020-09-11T10:14:19Z</time>
</trkpt>
<trkpt lat="47.953053" lon="10.645893">
<ele>624.831</ele>
<time>2020-09-11T10:14:20Z</time>
</trkpt>
<trkpt lat="47.952995" lon="10.645895">
<ele>624.974</ele>
<time>2020-09-11T10:14:21Z</time>
</trkpt>
<trkpt lat="47.952946" lon="10.645902">
<ele>625.081</ele>
<time>2020-09-11T10:14:22Z</time>
</trkpt>
<trkpt lat="47.952892" lon="10.645908">
<ele>625.159</ele>
<time>2020-09-11T10:14:23Z</time>
</trkpt>
<trkpt lat="47.952839" lon="10.645919">
<ele>625.213</ele>
<time>2020-09-11T10:14:24Z</time>
</trkpt>
<trkpt lat="47.952789" lon="10.645923">
<ele>625.264</ele>
<time>2020-09-11T10:14:25Z</time>
</trkpt>
<trkpt lat="47.952736" lon="10.645925">
<ele>625.287</ele>
<time>2020-09-11T10:14:26Z</time>
</trkpt>
<trkpt lat="47.95269" lon="10.645919">
<ele>625.287</ele>
<time>2020-09-11T10:14:27Z</time>
</trkpt>
<trkpt lat="47.952644" lon="10.645912">
<ele>625.287</ele>
<time>2020-09-11T10:14:28Z</time>
</trkpt>
<trkpt lat="47.952595" lon="10.645906">
<ele>625.287</ele>
<time>2020-09-11T10:14:29Z</time>
</trkpt>
<trkpt lat="47.952538" lon="10.645904">
<ele>625.54</ele>
<time>2020-09-11T10:14:30Z</time>
</trkpt>
<trkpt lat="47.952492" lon="10.645897">
<ele>625.74</ele>
<time>2020-09-11T10:14:31Z</time>
</trkpt>
<trkpt lat="47.952438" lon="10.645891">
<ele>625.894</ele>
<time>2020-09-11T10:14:32Z</time>
</trkpt>
<trkpt lat="47.952396" lon="10.645886">
<ele>626.015</ele>
<time>2020-09-11T10:14:33Z</time>
</trkpt>
<trkpt lat="47.952347" lon="10.645884">
<ele>626.099</ele>
<time>2020-09-11T10:14:34Z</time>
</trkpt>
<trkpt lat="47.952301" lon="10.645864">
<ele>626.183</ele>
<time>2020-09-11T10:14:35Z</time>
</trkpt>
<trkpt lat="47.952251" lon="10.645839">
<ele>626.234</ele>
<time>2020-09-11T10:14:36Z</time>
</trkpt>
<trkpt lat="47.952202" lon="10.645803">
<ele>626.258</ele>
<time>2020-09-11T10:14:37Z</time>
</trkpt>
<trkpt lat="47.95216" lon="10.645761">
<ele>626.258</ele>
<time>2020-09-11T10:14:38Z</time>
</trkpt>
<trkpt lat="47.952114" lon="10.64572">
<ele>626.258</ele>
<time>2020-09-11T10:14:39Z</time>
</trkpt>
<trkpt lat="47.952068" lon="10.645683">
<ele>626.258</ele>
<time>2020-09-11T10:14:40Z</time>
</trkpt>
<trkpt lat="47.952015" lon="10.64565">
<ele>626.258</ele>
<time>2020-09-11T10:14:41Z</time>
</trkpt>
<trkpt lat="47.951965" lon="10.64562">
<ele>626.258</ele>
<time>2020-09-11T10:14:42Z</time>
</trkpt>
<trkpt lat="47.951908" lon="10.645597">
<ele>626.258</ele>
<time>2020-09-11T10:14:43Z</time>
</trkpt>
<trkpt lat="47.951859" lon="10.645578">
<ele>626.258</ele>
<time>2020-09-11T10:14:44Z</time>
</trkpt>
<trkpt lat="47.951805" lon="10.645562">
<ele>626.258</ele>
<time>2020-09-11T10:14:45Z</time>
</trkpt>
<trkpt lat="47.951752" lon="10.645543">
<ele>626.258</ele>
<time>2020-09-11T10:14:46Z</time>
</trkpt>
<trkpt lat="47.951702" lon="10.645523">
<ele>626.258</ele>
<time>2020-09-11T10:14:47Z</time>
</trkpt>
<trkpt lat="47.951649" lon="10.645505">
<ele>626.258</ele>
<time>2020-09-11T10:14:48Z</time>
</trkpt>
<trkpt lat="47.951595" lon="10.645485">
<ele>626.258</ele>
<time>2020-09-11T10:14:49Z</time>
</trkpt>
<trkpt lat="47.951546" lon="10.645466">
<ele>626.258</ele>
<time>2020-09-11T10:14:50Z</time>
</trkpt>
<trkpt lat="47.951492" lon="10.645449">
<ele>626.258</ele>
<time>2020-09-11T10:14:51Z</time>
</trkpt>
<trkpt lat="47.951439" lon="10.645429">
<ele>626.258</ele>
<time>2020-09-11T10:14:52Z</time>
</trkpt>
<trkpt lat="47.951389" lon="10.64541">
<ele>626.258</ele>
<time>2020-09-11T10:14:53Z</time>
</trkpt>
<trkpt lat="47.951336" lon="10.645393">
<ele>626.258</ele>
<time>2020-09-11T10:14:54Z</time>
</trkpt>
<trkpt lat="47.95129" lon="10.64537">
<ele>626.258</ele>
<time>2020-09-11T10:14:55Z</time>
</trkpt>
<trkpt lat="47.951241" lon="10.645342">
<ele>626.258</ele>
<time>2020-09-11T10:14:56Z</time>
</trkpt>
<trkpt lat="47.951191" lon="10.645315">
<ele>626.258</ele>
<time>2020-09-11T10:14:57Z</time>
</trkpt>
<trkpt lat="47.951141" lon="10.64529">
<ele>626.258</ele>
<time>2020-09-11T10:14:58Z</time>
</trkpt>
<trkpt lat="47.951092" lon="10.645263">
<ele>626.258</ele>
<time>2020-09-11T10:14:59Z</time>
</trkpt>
<trkpt lat="47.951042" lon="10.645237">
<ele>626.514</ele>
<time>2020-09-11T10:15:00Z</time>
</trkpt>
<trkpt lat="47.950993" lon="10.64521">
<ele>626.716</ele>
<time>2020-09-11T10:15:01Z</time>
</trkpt>
<trkpt lat="47.950943" lon="10.645181">
<ele>626.869</ele>
<time>2020-09-11T10:15:02Z</time>
</trkpt>
<trkpt lat="47.950897" lon="10.64515">
<ele>626.989</ele>
<time>2020-09-11T10:15:03Z</time>
</trkpt>
<trkpt lat="47.950848" lon="10.645119">
<ele>627.069</ele>
<time>2020-09-11T10:15:04Z</time>
</trkpt>
<trkpt lat="47.950798" lon="10.64509">
<ele>627.151</ele>
<time>2020-09-11T10:15:05Z</time>
</trkpt>
<trkpt lat="47.950752" lon="10.645057">
<ele>627.203</ele>
<time>2020-09-11T10:15:06Z</time>
</trkpt>
<trkpt lat="47.950706" lon="10.645021">
<ele>627.229</ele>
<time>2020-09-11T10:15:07Z</time>
</trkpt>
<trkpt lat="47.950657" lon="10.644988">
<ele>627.229</ele>
<time>2020-09-11T10:15:08Z</time>
</trkpt>
<trkpt lat="47.950611" lon="10.64495">
<ele>627.229</ele>
<time>2020-09-11T10:15:09Z</time>
</trkpt>
<trkpt lat="47.950565" lon="10.644912">
<ele>627.229</ele>
<time>2020-09-11T10:15:10Z</time>
</trkpt>
<trkpt lat="47.950516" lon="10.644875">
<ele>627.229</ele>
<time>2020-09-11T10:15:11Z</time>
</trkpt>
<trkpt lat="47.950474" lon="10.644837">
<ele>627.229</ele>
<time>2020-09-11T10:15:12Z</time>
</trkpt>
<trkpt lat="47.950428" lon="10.644797">
<ele>627.229</ele>
<time>2020-09-11T10:15:13Z</time>
</trkpt>
<trkpt lat="47.950382" lon="10.644753">
<ele>627.229</ele>
<time>2020-09-11T10:15:14Z</time>
</trkpt>
<trkpt lat="47.95034" lon="10.644713">
<ele>627.229</ele>
<time>2020-09-11T10:15:15Z</time>
</trkpt>
<trkpt lat="47.950294" lon="10.644671">
<ele>627.229</ele>
<time>2020-09-11T10:15:16Z</time>
</trkpt>
<trkpt lat="47.950249" lon="10.644631">
<ele>627.229</ele>
<time>2020-09-11T10:15:17Z</time>
</trkpt>
<trkpt lat="47.950207" lon="10.644592">
<ele>627.229</ele>
<time>2020-09-11T10:15:18Z</time>
</trkpt>
<trkpt lat="47.950165" lon="10.64455">
<ele>627.229</ele>
<time>2020-09-11T10:15:19Z</time>
</trkpt>
<trkpt lat="47.950115" lon="10.644508">
<ele>627.229</ele>
<time>2020-09-11T10:15:20Z</time>
</trkpt>
<trkpt lat="47.950077" lon="10.644463">
<ele>627.229</ele>
<time>2020-09-11T10:15:21Z</time>
</trkpt>
<trkpt lat="47.950031" lon="10.644421">
<ele>627.229</ele>
<time>2020-09-11T10:15:22Z</time>
</trkpt>
<trkpt lat="47.949986" lon="10.644379">
<ele>627.229</ele>
<time>2020-09-11T10:15:23Z</time>
</trkpt>
<trkpt lat="47.949947" lon="10.644333">
<ele>627.229</ele>
<time>2020-09-11T10:15:24Z</time>
</trkpt>
<trkpt lat="47.949902" lon="10.644284">
<ele>627.229</ele>
<time>2020-09-11T10:15:25Z</time>
</trkpt>
<trkpt lat="47.94986" lon="10.644237">
<ele>627.229</ele>
<time>2020-09-11T10:15:26Z</time>
</trkpt>
<trkpt lat="47.949821" lon="10.644185">
<ele>627.229</ele>
<time>2020-09-11T10:15:27Z</time>
</trkpt>
<trkpt lat="47.949787" lon="10.644132">
<ele>627.229</ele>
<time>2020-09-11T10:15:28Z</time>
</trkpt>
<trkpt lat="47.949749" lon="10.644076">
<ele>627.229</ele>
<time>2020-09-11T10:15:29Z</time>
</trkpt>
<trkpt lat="47.949715" lon="10.644023">
<ele>627.229</ele>
<time>2020-09-11T10:15:30Z</time>
</trkpt>
<trkpt lat="47.949677" lon="10.643966">
<ele>627.229</ele>
<time>2020-09-11T10:15:31Z</time>
</trkpt>
<trkpt lat="47.949642" lon="10.643909">
<ele>627.229</ele>
<time>2020-09-11T10:15:32Z</time>
</trkpt>
<trkpt lat="47.949612" lon="10.64385">
<ele>627.229</ele>
<time>2020-09-11T10:15:33Z</time>
</trkpt>
<trkpt lat="47.949577" lon="10.643792">
<ele>627.229</ele>
<time>2020-09-11T10:15:34Z</time>
</trkpt>
<trkpt lat="47.949543" lon="10.643733">
<ele>627.229</ele>
<time>2020-09-11T10:15:35Z</time>
</trkpt>
<trkpt lat="47.949509" lon="10.643677">
<ele>627.518</ele>
<time>2020-09-11T10:15:36Z</time>
</trkpt>
<trkpt lat="47.949478" lon="10.643619">
<ele>627.741</ele>
<time>2020-09-11T10:15:37Z</time>
</trkpt>
<trkpt lat="47.949444" lon="10.643561">
<ele>627.91</ele>
<time>2020-09-11T10:15:38Z</time>
</trkpt>
<trkpt lat="47.949406" lon="10.643512">
<ele>628.036</ele>
<time>2020-09-11T10:15:39Z</time>
</trkpt>
<trkpt lat="47.949371" lon="10.64346">
<ele>628.123</ele>
<time>2020-09-11T10:15:40Z</time>
</trkpt>
<trkpt lat="47.949333" lon="10.643407">
<ele>628.175</ele>
<time>2020-09-11T10:15:41Z</time>
</trkpt>
<trkpt lat="47.949303" lon="10.643353">
<ele>628.2</ele>
<time>2020-09-11T10:15:42Z</time>
</trkpt>
<trkpt lat="47.949265" lon="10.643304">
<ele>628.2</ele>
<time>2020-09-11T10:15:43Z</time>
</trkpt>
<trkpt lat="47.949223" lon="10.643249">
<ele>628.2</ele>
<time>2020-09-11T10:15:44Z</time>
</trkpt>
<trkpt lat="47.949181" lon="10.643195">
<ele>628.2</ele>
<time>2020-09-11T10:15:45Z</time>
</trkpt>
<trkpt lat="47.949139" lon="10.643147">
<ele>628.2</ele>
<time>2020-09-11T10:15:46Z</time>
</trkpt>
<trkpt lat="47.949104" lon="10.64311">
<ele>628.2</ele>
<time>2020-09-11T10:15:47Z</time>
</trkpt>
<trkpt lat="47.949062" lon="10.643073">
<ele>628.2</ele>
<time>2020-09-11T10:15:48Z</time>
</trkpt>
<trkpt lat="47.949013" lon="10.643038">
<ele>628.2</ele>
<time>2020-09-11T10:15:49Z</time>
</trkpt>
<trkpt lat="47.948967" lon="10.643004">
<ele>628.2</ele>
<time>2020-09-11T10:15:50Z</time>
</trkpt>
<trkpt lat="47.94891" lon="10.642972">
<ele>628.2</ele>
<time>2020-09-11T10:15:51Z</time>
</trkpt>
<trkpt lat="47.948849" lon="10.642941">
<ele>628.2</ele>
<time>2020-09-11T10:15:52Z</time>
</trkpt>
<trkpt lat="47.948792" lon="10.642914">
<ele>627.952</ele>
<time>2020-09-11T10:15:53Z</time>
</trkpt>
<trkpt lat="47.94873" lon="10.642889">
<ele>627.776</ele>
<time>2020-09-11T10:15:54Z</time>
</trkpt>
<trkpt lat="47.948669" lon="10.642865">
<ele>627.597</ele>
<time>2020-09-11T10:15:55Z</time>
</trkpt>
<trkpt lat="47.948605" lon="10.642843">
<ele>627.467</ele>
<time>2020-09-11T10:15:56Z</time>
</trkpt>
<trkpt lat="47.94854" lon="10.642821">
<ele>627.368</ele>
<time>2020-09-11T10:15:57Z</time>
</trkpt>
<trkpt lat="47.948471" lon="10.642801">
<ele>627.296</ele>
<time>2020-09-11T10:15:58Z</time>
</trkpt>
<trkpt lat="47.94841" lon="10.642784">
<ele>627.254</ele>
<time>2020-09-11T10:15:59Z</time>
</trkpt>
<trkpt lat="47.948349" lon="10.642761">
<ele>626.99</ele>
<time>2020-09-11T10:16:00Z</time>
</trkpt>
<trkpt lat="47.948284" lon="10.642738">
<ele>626.768</ele>
<time>2020-09-11T10:16:01Z</time>
</trkpt>
<trkpt lat="47.948223" lon="10.642711">
<ele>626.617</ele>
<time>2020-09-11T10:16:02Z</time>
</trkpt>
<trkpt lat="47.948162" lon="10.642683">
<ele>626.502</ele>
<time>2020-09-11T10:16:03Z</time>
</trkpt>
<trkpt lat="47.948097" lon="10.642652">
<ele>626.423</ele>
<time>2020-09-11T10:16:04Z</time>
</trkpt>
<trkpt lat="47.94804" lon="10.64262">
<ele>626.339</ele>
<time>2020-09-11T10:16:05Z</time>
</trkpt>
<trkpt lat="47.947983" lon="10.642591">
<ele>626.285</ele>
<time>2020-09-11T10:16:06Z</time>
</trkpt>
<trkpt lat="47.947929" lon="10.642558">
<ele>626.258</ele>
<time>2020-09-11T10:16:07Z</time>
</trkpt>
<trkpt lat="47.947872" lon="10.642529">
<ele>626.258</ele>
<time>2020-09-11T10:16:08Z</time>
</trkpt>
<trkpt lat="47.947815" lon="10.6425">
<ele>626.258</ele>
<time>2020-09-11T10:16:09Z</time>
</trkpt>
<trkpt lat="47.947762" lon="10.642472">
<ele>626.258</ele>
<time>2020-09-11T10:16:10Z</time>
</trkpt>
<trkpt lat="47.947704" lon="10.642448">
<ele>626.258</ele>
<time>2020-09-11T10:16:11Z</time>
</trkpt>
<trkpt lat="47.947655" lon="10.642424">
<ele>626.258</ele>
<time>2020-09-11T10:16:12Z</time>
</trkpt>
<trkpt lat="47.947601" lon="10.642397">
<ele>626.258</ele>
<time>2020-09-11T10:16:13Z</time>
</trkpt>
<trkpt lat="47.947548" lon="10.642373">
<ele>626.258</ele>
<time>2020-09-11T10:16:14Z</time>
</trkpt>
<trkpt lat="47.947502" lon="10.642352">
<ele>626.258</ele>
<time>2020-09-11T10:16:15Z</time>
</trkpt>
<trkpt lat="47.947449" lon="10.64233">
<ele>626.541</ele>
<time>2020-09-11T10:16:16Z</time>
</trkpt>
<trkpt lat="47.947399" lon="10.642313">
<ele>626.763</ele>
<time>2020-09-11T10:16:17Z</time>
</trkpt>
<trkpt lat="47.947346" lon="10.642295">
<ele>626.935</ele>
<time>2020-09-11T10:16:18Z</time>
</trkpt>
<trkpt lat="47.947296" lon="10.642279">
<ele>627.062</ele>
<time>2020-09-11T10:16:19Z</time>
</trkpt>
<trkpt lat="47.947247" lon="10.642261">
<ele>627.151</ele>
<time>2020-09-11T10:16:20Z</time>
</trkpt>
<trkpt lat="47.947197" lon="10.64224">
<ele>627.204</ele>
<time>2020-09-11T10:16:21Z</time>
</trkpt>
<trkpt lat="47.947151" lon="10.642223">
<ele>627.229</ele>
<time>2020-09-11T10:16:22Z</time>
</trkpt>
<trkpt lat="47.947098" lon="10.642206">
<ele>627.229</ele>
<time>2020-09-11T10:16:23Z</time>
</trkpt>
<trkpt lat="47.947048" lon="10.642192">
<ele>627.229</ele>
<time>2020-09-11T10:16:24Z</time>
</trkpt>
<trkpt lat="47.946999" lon="10.642175">
<ele>627.229</ele>
<time>2020-09-11T10:16:25Z</time>
</trkpt>
<trkpt lat="47.946953" lon="10.642159">
<ele>627.517</ele>
<time>2020-09-11T10:16:26Z</time>
</trkpt>
<trkpt lat="47.946899" lon="10.64214">
<ele>627.743</ele>
<time>2020-09-11T10:16:27Z</time>
</trkpt>
<trkpt lat="47.946854" lon="10.642124">
<ele>627.909</ele>
<time>2020-09-11T10:16:28Z</time>
</trkpt>
<trkpt lat="47.946804" lon="10.642105">
<ele>628.037</ele>
<time>2020-09-11T10:16:29Z</time>
</trkpt>
<trkpt lat="47.946754" lon="10.642091">
<ele>628.119</ele>
<time>2020-09-11T10:16:30Z</time>
</trkpt>
<trkpt lat="47.946701" lon="10.64207">
<ele>628.175</ele>
<time>2020-09-11T10:16:31Z</time>
</trkpt>
<trkpt lat="47.946655" lon="10.642051">
<ele>628.2</ele>
<time>2020-09-11T10:16:32Z</time>
</trkpt>
<trkpt lat="47.946602" lon="10.64203">
<ele>628.417</ele>
<time>2020-09-11T10:16:33Z</time>
</trkpt>
<trkpt lat="47.946552" lon="10.642014">
<ele>628.57</ele>
<time>2020-09-11T10:16:34Z</time>
</trkpt>
<trkpt lat="47.946499" lon="10.641994">
<ele>628.727</ele>
<time>2020-09-11T10:16:35Z</time>
</trkpt>
<trkpt lat="47.946445" lon="10.641978">
<ele>628.854</ele>
<time>2020-09-11T10:16:36Z</time>
</trkpt>
<trkpt lat="47.946396" lon="10.641961">
<ele>628.939</ele>
<time>2020-09-11T10:16:37Z</time>
</trkpt>
<trkpt lat="47.946342" lon="10.641945">
<ele>629.251</ele>
<time>2020-09-11T10:16:38Z</time>
</trkpt>
<trkpt lat="47.946293" lon="10.641925">
<ele>629.495</ele>
<time>2020-09-11T10:16:39Z</time>
</trkpt>
<trkpt lat="47.946239" lon="10.641907">
<ele>629.681</ele>
<time>2020-09-11T10:16:40Z</time>
</trkpt>
<trkpt lat="47.94619" lon="10.641893">
<ele>629.849</ele>
<time>2020-09-11T10:16:41Z</time>
</trkpt>
<trkpt lat="47.946136" lon="10.641881">
<ele>629.932</ele>
<time>2020-09-11T10:16:42Z</time>
</trkpt>
<trkpt lat="47.946083" lon="10.64187">
<ele>629.984</ele>
<time>2020-09-11T10:16:43Z</time>
</trkpt>
<trkpt lat="47.94603" lon="10.641858">
<ele>630.027</ele>
<time>2020-09-11T10:16:44Z</time>
</trkpt>
<trkpt lat="47.945976" lon="10.641847">
<ele>630.054</ele>
<time>2020-09-11T10:16:45Z</time>
</trkpt>
<trkpt lat="47.945923" lon="10.641833">
<ele>630.054</ele>
<time>2020-09-11T10:16:46Z</time>
</trkpt>
<trkpt lat="47.945873" lon="10.641823">
<ele>630.054</ele>
<time>2020-09-11T10:16:47Z</time>
</trkpt>
<trkpt lat="47.945816" lon="10.641813">
<ele>630.054</ele>
<time>2020-09-11T10:16:48Z</time>
</trkpt>
<trkpt lat="47.945763" lon="10.641806">
<ele>630.054</ele>
<time>2020-09-11T10:16:49Z</time>
</trkpt>
<trkpt lat="47.945709" lon="10.641797">
<ele>630.054</ele>
<time>2020-09-11T10:16:50Z</time>
</trkpt>
<trkpt lat="47.945652" lon="10.641788">
<ele>630.054</ele>
<time>2020-09-11T10:16:51Z</time>
</trkpt>
<trkpt lat="47.945599" lon="10.641782">
<ele>630.054</ele>
<time>2020-09-11T10:16:52Z</time>
</trkpt>
<trkpt lat="47.945549" lon="10.641772">
<ele>630.054</ele>
<time>2020-09-11T10:16:53Z</time>
</trkpt>
<trkpt lat="47.945492" lon="10.641764">
<ele>630.29</ele>
<time>2020-09-11T10:16:54Z</time>
</trkpt>
<trkpt lat="47.945442" lon="10.641758">
<ele>630.511</ele>
<time>2020-09-11T10:16:55Z</time>
</trkpt>
<trkpt lat="47.945389" lon="10.641749">
<ele>630.693</ele>
<time>2020-09-11T10:16:56Z</time>
</trkpt>
<trkpt lat="47.945343" lon="10.641742">
<ele>630.839</ele>
<time>2020-09-11T10:16:57Z</time>
</trkpt>
<trkpt lat="47.945293" lon="10.641732">
<ele>630.951</ele>
<time>2020-09-11T10:16:58Z</time>
</trkpt>
<trkpt lat="47.94524" lon="10.641724">
<ele>631.034</ele>
<time>2020-09-11T10:16:59Z</time>
</trkpt>
<trkpt lat="47.94519" lon="10.641713">
<ele>631.088</ele>
<time>2020-09-11T10:17:00Z</time>
</trkpt>
<trkpt lat="47.945137" lon="10.641704">
<ele>631.114</ele>
<time>2020-09-11T10:17:01Z</time>
</trkpt>
<trkpt lat="47.945087" lon="10.64169">
<ele>631.114</ele>
<time>2020-09-11T10:17:02Z</time>
</trkpt>
<trkpt lat="47.94503" lon="10.641676">
<ele>631.114</ele>
<time>2020-09-11T10:17:03Z</time>
</trkpt>
<trkpt lat="47.944984" lon="10.641662">
<ele>631.114</ele>
<time>2020-09-11T10:17:04Z</time>
</trkpt>
<trkpt lat="47.944931" lon="10.641648">
<ele>631.114</ele>
<time>2020-09-11T10:17:05Z</time>
</trkpt>
<trkpt lat="47.944878" lon="10.641634">
<ele>631.114</ele>
<time>2020-09-11T10:17:06Z</time>
</trkpt>
<trkpt lat="47.944828" lon="10.64162">
<ele>631.114</ele>
<time>2020-09-11T10:17:07Z</time>
</trkpt>
<trkpt lat="47.944778" lon="10.641604">
<ele>631.114</ele>
<time>2020-09-11T10:17:08Z</time>
</trkpt>
<trkpt lat="47.944729" lon="10.64159">
<ele>631.114</ele>
<time>2020-09-11T10:17:09Z</time>
</trkpt>
<trkpt lat="47.944675" lon="10.641575">
<ele>631.114</ele>
<time>2020-09-11T10:17:10Z</time>
</trkpt>
<trkpt lat="47.944626" lon="10.641562">
<ele>631.114</ele>
<time>2020-09-11T10:17:11Z</time>
</trkpt>
<trkpt lat="47.944572" lon="10.641543">
<ele>631.114</ele>
<time>2020-09-11T10:17:12Z</time>
</trkpt>
<trkpt lat="47.944519" lon="10.641523">
<ele>631.114</ele>
<time>2020-09-11T10:17:13Z</time>
</trkpt>
<trkpt lat="47.944466" lon="10.641506">
<ele>631.114</ele>
<time>2020-09-11T10:17:14Z</time>
</trkpt>
<trkpt lat="47.944412" lon="10.64149">
<ele>631.114</ele>
<time>2020-09-11T10:17:15Z</time>
</trkpt>
<trkpt lat="47.944363" lon="10.641472">
<ele>631.114</ele>
<time>2020-09-11T10:17:16Z</time>
</trkpt>
<trkpt lat="47.944313" lon="10.641452">
<ele>631.114</ele>
<time>2020-09-11T10:17:17Z</time>
</trkpt>
<trkpt lat="47.944256" lon="10.641429">
<ele>631.114</ele>
<time>2020-09-11T10:17:18Z</time>
</trkpt>
<trkpt lat="47.944206" lon="10.641403">
<ele>631.114</ele>
<time>2020-09-11T10:17:19Z</time>
</trkpt>
<trkpt lat="47.944153" lon="10.641378">
<ele>631.114</ele>
<time>2020-09-11T10:17:20Z</time>
</trkpt>
<trkpt lat="47.944103" lon="10.641356">
<ele>631.386</ele>
<time>2020-09-11T10:17:21Z</time>
</trkpt>
<trkpt lat="47.944054" lon="10.64133">
<ele>631.601</ele>
<time>2020-09-11T10:17:22Z</time>
</trkpt>
<trkpt lat="47.944" lon="10.641305">
<ele>631.767</ele>
<time>2020-09-11T10:17:23Z</time>
</trkpt>
<trkpt lat="47.943951" lon="10.641278">
<ele>631.881</ele>
<time>2020-09-11T10:17:24Z</time>
</trkpt>
<trkpt lat="47.943897" lon="10.641254">
<ele>632.003</ele>
<time>2020-09-11T10:17:25Z</time>
</trkpt>
<trkpt lat="47.943844" lon="10.641228">
<ele>632.091</ele>
<time>2020-09-11T10:17:26Z</time>
</trkpt>
<trkpt lat="47.943794" lon="10.641202">
<ele>632.147</ele>
<time>2020-09-11T10:17:27Z</time>
</trkpt>
<trkpt lat="47.943745" lon="10.641171">
<ele>632.174</ele>
<time>2020-09-11T10:17:28Z</time>
</trkpt>
<trkpt lat="47.943695" lon="10.641142">
<ele>632.174</ele>
<time>2020-09-11T10:17:29Z</time>
</trkpt>
<trkpt lat="47.943642" lon="10.64111">
<ele>632.174</ele>
<time>2020-09-11T10:17:30Z</time>
</trkpt>
<trkpt lat="47.943596" lon="10.641081">
<ele>632.174</ele>
<time>2020-09-11T10:17:31Z</time>
</trkpt>
<trkpt lat="47.943546" lon="10.641048">
<ele>632.174</ele>
<time>2020-09-11T10:17:32Z</time>
</trkpt>
<trkpt lat="47.943497" lon="10.641016">
<ele>632.174</ele>
<time>2020-09-11T10:17:33Z</time>
</trkpt>
<trkpt lat="47.943451" lon="10.64098">
<ele>632.174</ele>
<time>2020-09-11T10:17:34Z</time>
</trkpt>
<trkpt lat="47.943405" lon="10.640943">
<ele>632.174</ele>
<time>2020-09-11T10:17:35Z</time>
</trkpt>
<trkpt lat="47.943363" lon="10.640905">
<ele>632.174</ele>
<time>2020-09-11T10:17:36Z</time>
</trkpt>
<trkpt lat="47.943317" lon="10.640863">
<ele>632.174</ele>
<time>2020-09-11T10:17:37Z</time>
</trkpt>
<trkpt lat="47.943275" lon="10.640819">
<ele>632.174</ele>
<time>2020-09-11T10:17:38Z</time>
</trkpt>
<trkpt lat="47.943233" lon="10.640773">
<ele>632.174</ele>
<time>2020-09-11T10:17:39Z</time>
</trkpt>
<trkpt lat="47.943188" lon="10.64073">
<ele>632.174</ele>
<time>2020-09-11T10:17:40Z</time>
</trkpt>
<trkpt lat="47.943146" lon="10.640681">
<ele>632.174</ele>
<time>2020-09-11T10:17:41Z</time>
</trkpt>
<trkpt lat="47.943108" lon="10.640635">
<ele>632.395</ele>
<time>2020-09-11T10:17:42Z</time>
</trkpt>
<trkpt lat="47.943066" lon="10.640589">
<ele>632.57</ele>
<time>2020-09-11T10:17:43Z</time>
</trkpt>
<trkpt lat="47.94302" lon="10.640543">
<ele>632.69</ele>
<time>2020-09-11T10:17:44Z</time>
</trkpt>
<trkpt lat="47.942982" lon="10.640494">
<ele>632.819</ele>
<time>2020-09-11T10:17:45Z</time>
</trkpt>
<trkpt lat="47.942944" lon="10.640447">
<ele>632.918</ele>
<time>2020-09-11T10:17:46Z</time>
</trkpt>
<trkpt lat="47.942905" lon="10.640396">
<ele>632.989</ele>
<time>2020-09-11T10:17:47Z</time>
</trkpt>
<trkpt lat="47.94286" lon="10.640348">
<ele>633.036</ele>
<time>2020-09-11T10:17:48Z</time>
</trkpt>
<trkpt lat="47.942818" lon="10.6403">
<ele>633.058</ele>
<time>2020-09-11T10:17:49Z</time>
</trkpt>
<trkpt lat="47.94278" lon="10.640249">
<ele>633.058</ele>
<time>2020-09-11T10:17:50Z</time>
</trkpt>
<trkpt lat="47.942734" lon="10.640201">
<ele>633.058</ele>
<time>2020-09-11T10:17:51Z</time>
</trkpt>
<trkpt lat="47.942696" lon="10.640148">
<ele>633.058</ele>
<time>2020-09-11T10:17:52Z</time>
</trkpt>
<trkpt lat="47.942654" lon="10.6401">
<ele>633.058</ele>
<time>2020-09-11T10:17:53Z</time>
</trkpt>
<trkpt lat="47.942616" lon="10.64005">
<ele>633.058</ele>
<time>2020-09-11T10:17:54Z</time>
</trkpt>
<trkpt lat="47.942577" lon="10.639998">
<ele>633.058</ele>
<time>2020-09-11T10:17:55Z</time>
</trkpt>
<trkpt lat="47.942535" lon="10.639948">
<ele>633.058</ele>
<time>2020-09-11T10:17:56Z</time>
</trkpt>
<trkpt lat="47.942497" lon="10.639897">
<ele>633.058</ele>
<time>2020-09-11T10:17:57Z</time>
</trkpt>
<trkpt lat="47.942455" lon="10.639845">
<ele>633.058</ele>
<time>2020-09-11T10:17:58Z</time>
</trkpt>
<trkpt lat="47.942413" lon="10.639793">
<ele>633.058</ele>
<time>2020-09-11T10:17:59Z</time>
</trkpt>
<trkpt lat="47.942371" lon="10.639745">
<ele>633.058</ele>
<time>2020-09-11T10:18:00Z</time>
</trkpt>
<trkpt lat="47.942326" lon="10.639698">
<ele>633.058</ele>
<time>2020-09-11T10:18:01Z</time>
</trkpt>
<trkpt lat="47.942284" lon="10.63965">
<ele>633.058</ele>
<time>2020-09-11T10:18:02Z</time>
</trkpt>
<trkpt lat="47.942234" lon="10.639604">
<ele>633.058</ele>
<time>2020-09-11T10:18:03Z</time>
</trkpt>
<trkpt lat="47.942192" lon="10.639557">
<ele>633.058</ele>
<time>2020-09-11T10:18:04Z</time>
</trkpt>
<trkpt lat="47.942146" lon="10.63951">
<ele>633.058</ele>
<time>2020-09-11T10:18:05Z</time>
</trkpt>
<trkpt lat="47.942101" lon="10.639463">
<ele>633.058</ele>
<time>2020-09-11T10:18:06Z</time>
</trkpt>
<trkpt lat="47.942059" lon="10.639418">
<ele>633.058</ele>
<time>2020-09-11T10:18:07Z</time>
</trkpt>
<trkpt lat="47.942013" lon="10.639372">
<ele>633.058</ele>
<time>2020-09-11T10:18:08Z</time>
</trkpt>
<trkpt lat="47.941967" lon="10.639327">
<ele>633.058</ele>
<time>2020-09-11T10:18:09Z</time>
</trkpt>
<trkpt lat="47.941921" lon="10.639283">
<ele>633.058</ele>
<time>2020-09-11T10:18:10Z</time>
</trkpt>
<trkpt lat="47.941875" lon="10.639239">
<ele>633.058</ele>
<time>2020-09-11T10:18:11Z</time>
</trkpt>
<trkpt lat="47.94183" lon="10.639197">
<ele>633.058</ele>
<time>2020-09-11T10:18:12Z</time>
</trkpt>
<trkpt lat="47.94178" lon="10.639157">
<ele>633.058</ele>
<time>2020-09-11T10:18:13Z</time>
</trkpt>
<trkpt lat="47.941738" lon="10.639116">
<ele>633.058</ele>
<time>2020-09-11T10:18:14Z</time>
</trkpt>
<trkpt lat="47.941689" lon="10.639076">
<ele>633.058</ele>
<time>2020-09-11T10:18:15Z</time>
</trkpt>
<trkpt lat="47.941639" lon="10.63904">
<ele>633.058</ele>
<time>2020-09-11T10:18:16Z</time>
</trkpt>
<trkpt lat="47.941593" lon="10.639003">
<ele>633.058</ele>
<time>2020-09-11T10:18:17Z</time>
</trkpt>
<trkpt lat="47.941544" lon="10.638967">
<ele>633.058</ele>
<time>2020-09-11T10:18:18Z</time>
</trkpt>
<trkpt lat="47.941498" lon="10.638929">
<ele>633.321</ele>
<time>2020-09-11T10:18:19Z</time>
</trkpt>
<trkpt lat="47.941452" lon="10.638889">
<ele>633.526</ele>
<time>2020-09-11T10:18:20Z</time>
</trkpt>
<trkpt lat="47.941402" lon="10.638853">
<ele>633.684</ele>
<time>2020-09-11T10:18:21Z</time>
</trkpt>
<trkpt lat="47.941353" lon="10.638817">
<ele>633.805</ele>
<time>2020-09-11T10:18:22Z</time>
</trkpt>
<trkpt lat="47.941307" lon="10.638783">
<ele>633.887</ele>
<time>2020-09-11T10:18:23Z</time>
</trkpt>
<trkpt lat="47.941257" lon="10.638747">
<ele>633.948</ele>
<time>2020-09-11T10:18:24Z</time>
</trkpt>
<trkpt lat="47.941208" lon="10.638709">
<ele>634.003</ele>
<time>2020-09-11T10:18:25Z</time>
</trkpt>
<trkpt lat="47.941158" lon="10.63867">
<ele>634.029</ele>
<time>2020-09-11T10:18:26Z</time>
</trkpt>
<trkpt lat="47.941113" lon="10.638634">
<ele>634.029</ele>
<time>2020-09-11T10:18:27Z</time>
</trkpt>
<trkpt lat="47.941059" lon="10.638595">
<ele>634.029</ele>
<time>2020-09-11T10:18:28Z</time>
</trkpt>
<trkpt lat="47.941013" lon="10.63856">
<ele>634.029</ele>
<time>2020-09-11T10:18:29Z</time>
</trkpt>
<trkpt lat="47.94096" lon="10.638527">
<ele>634.029</ele>
<time>2020-09-11T10:18:30Z</time>
</trkpt>
<trkpt lat="47.94091" lon="10.638494">
<ele>634.029</ele>
<time>2020-09-11T10:18:31Z</time>
</trkpt>
<trkpt lat="47.940861" lon="10.638462">
<ele>634.029</ele>
<time>2020-09-11T10:18:32Z</time>
</trkpt>
<trkpt lat="47.940811" lon="10.638431">
<ele>634.029</ele>
<time>2020-09-11T10:18:33Z</time>
</trkpt>
<trkpt lat="47.940762" lon="10.638397">
<ele>634.029</ele>
<time>2020-09-11T10:18:34Z</time>
</trkpt>
<trkpt lat="47.940712" lon="10.638367">
<ele>634.029</ele>
<time>2020-09-11T10:18:35Z</time>
</trkpt>
<trkpt lat="47.940662" lon="10.638334">
<ele>634.029</ele>
<time>2020-09-11T10:18:36Z</time>
</trkpt>
<trkpt lat="47.940617" lon="10.638303">
<ele>634.029</ele>
<time>2020-09-11T10:18:37Z</time>
</trkpt>
<trkpt lat="47.940563" lon="10.638271">
<ele>634.029</ele>
<time>2020-09-11T10:18:38Z</time>
</trkpt>
<trkpt lat="47.940517" lon="10.638238">
<ele>634.029</ele>
<time>2020-09-11T10:18:39Z</time>
</trkpt>
<trkpt lat="47.940468" lon="10.638204">
<ele>634.029</ele>
<time>2020-09-11T10:18:40Z</time>
</trkpt>
<trkpt lat="47.940422" lon="10.638168">
<ele>634.029</ele>
<time>2020-09-11T10:18:41Z</time>
</trkpt>
<trkpt lat="47.940372" lon="10.638133">
<ele>634.029</ele>
<time>2020-09-11T10:18:42Z</time>
</trkpt>
<trkpt lat="47.940327" lon="10.638097">
<ele>634.029</ele>
<time>2020-09-11T10:18:43Z</time>
</trkpt>
<trkpt lat="47.940277" lon="10.638058">
<ele>634.029</ele>
<time>2020-09-11T10:18:44Z</time>
</trkpt>
<trkpt lat="47.940231" lon="10.638018">
<ele>634.029</ele>
<time>2020-09-11T10:18:45Z</time>
</trkpt>
<trkpt lat="47.940186" lon="10.637974">
<ele>634.029</ele>
<time>2020-09-11T10:18:46Z</time>
</trkpt>
<trkpt lat="47.94014" lon="10.637928">
<ele>634.029</ele>
<time>2020-09-11T10:18:47Z</time>
</trkpt>
<trkpt lat="47.940098" lon="10.637879">
<ele>634.029</ele>
<time>2020-09-11T10:18:48Z</time>
</trkpt>
<trkpt lat="47.940052" lon="10.637836">
<ele>634.029</ele>
<time>2020-09-11T10:18:49Z</time>
</trkpt>
<trkpt lat="47.940006" lon="10.637788">
<ele>634.029</ele>
<time>2020-09-11T10:18:50Z</time>
</trkpt>
<trkpt lat="47.939957" lon="10.637743">
<ele>634.029</ele>
<time>2020-09-11T10:18:51Z</time>
</trkpt>
<trkpt lat="47.939911" lon="10.637702">
<ele>634.029</ele>
<time>2020-09-11T10:18:52Z</time>
</trkpt>
<trkpt lat="47.939865" lon="10.637657">
<ele>634.029</ele>
<time>2020-09-11T10:18:53Z</time>
</trkpt>
<trkpt lat="47.939816" lon="10.637611">
<ele>634.029</ele>
<time>2020-09-11T10:18:54Z</time>
</trkpt>
<trkpt lat="47.93977" lon="10.637567">
<ele>634.029</ele>
<time>2020-09-11T10:18:55Z</time>
</trkpt>
<trkpt lat="47.939724" lon="10.637526">
<ele>634.029</ele>
<time>2020-09-11T10:18:56Z</time>
</trkpt>
<trkpt lat="47.939678" lon="10.637482">
<ele>634.029</ele>
<time>2020-09-11T10:18:57Z</time>
</trkpt>
<trkpt lat="47.939632" lon="10.63744">
<ele>634.029</ele>
<time>2020-09-11T10:18:58Z</time>
</trkpt>
<trkpt lat="47.939587" lon="10.6374">
<ele>634.029</ele>
<time>2020-09-11T10:18:59Z</time>
</trkpt>
<trkpt lat="47.939541" lon="10.63736">
<ele>634.282</ele>
<time>2020-09-11T10:19:00Z</time>
</trkpt>
<trkpt lat="47.939495" lon="10.637321">
<ele>634.482</ele>
<time>2020-09-11T10:19:01Z</time>
</trkpt>
<trkpt lat="47.939453" lon="10.637283">
<ele>634.635</ele>
<time>2020-09-11T10:19:02Z</time>
</trkpt>
<trkpt lat="47.939411" lon="10.637247">
<ele>634.727</ele>
<time>2020-09-11T10:19:03Z</time>
</trkpt>
<trkpt lat="47.939369" lon="10.637209">
<ele>635.048</ele>
<time>2020-09-11T10:19:04Z</time>
</trkpt>
<trkpt lat="47.939327" lon="10.637174">
<ele>635.543</ele>
<time>2020-09-11T10:19:05Z</time>
</trkpt>
<trkpt lat="47.939289" lon="10.637136">
<ele>635.941</ele>
<time>2020-09-11T10:19:06Z</time>
</trkpt>
<trkpt lat="47.939243" lon="10.6371">
<ele>636.254</ele>
<time>2020-09-11T10:19:07Z</time>
</trkpt>
<trkpt lat="47.939201" lon="10.637063">
<ele>636.479</ele>
<time>2020-09-11T10:19:08Z</time>
</trkpt>
<trkpt lat="47.939163" lon="10.637027">
<ele>636.622</ele>
<time>2020-09-11T10:19:09Z</time>
</trkpt>
<trkpt lat="47.939121" lon="10.636987">
<ele>636.992</ele>
<time>2020-09-11T10:19:10Z</time>
</trkpt>
<trkpt lat="47.939079" lon="10.636947">
<ele>637.268</ele>
<time>2020-09-11T10:19:11Z</time>
</trkpt>
<trkpt lat="47.939037" lon="10.636905">
<ele>637.455</ele>
<time>2020-09-11T10:19:12Z</time>
</trkpt>
<trkpt lat="47.938999" lon="10.636864">
<ele>637.586</ele>
<time>2020-09-11T10:19:13Z</time>
</trkpt>
<trkpt lat="47.938961" lon="10.63682">
<ele>637.667</ele>
<time>2020-09-11T10:19:14Z</time>
</trkpt>
<trkpt lat="47.938919" lon="10.636771">
<ele>637.75</ele>
<time>2020-09-11T10:19:15Z</time>
</trkpt>
<trkpt lat="47.938881" lon="10.636724">
<ele>637.803</ele>
<time>2020-09-11T10:19:16Z</time>
</trkpt>
<trkpt lat="47.938843" lon="10.636671">
<ele>637.829</ele>
<time>2020-09-11T10:19:17Z</time>
</trkpt>
<trkpt lat="47.938805" lon="10.636621">
<ele>637.829</ele>
<time>2020-09-11T10:19:18Z</time>
</trkpt>
<trkpt lat="47.938766" lon="10.636565">
<ele>637.829</ele>
<time>2020-09-11T10:19:19Z</time>
</trkpt>
<trkpt lat="47.938725" lon="10.636507">
<ele>637.829</ele>
<time>2020-09-11T10:19:20Z</time>
</trkpt>
<trkpt lat="47.938683" lon="10.636447">
<ele>637.595</ele>
<time>2020-09-11T10:19:21Z</time>
</trkpt>
<trkpt lat="47.938644" lon="10.636378">
<ele>637.443</ele>
<time>2020-09-11T10:19:22Z</time>
</trkpt>
<trkpt lat="47.93861" lon="10.6363">
<ele>637.044</ele>
<time>2020-09-11T10:19:23Z</time>
</trkpt>
<trkpt lat="47.938572" lon="10.636216">
<ele>636.763</ele>
<time>2020-09-11T10:19:24Z</time>
</trkpt>
<trkpt lat="47.938534" lon="10.636128">
<ele>636.502</ele>
<time>2020-09-11T10:19:25Z</time>
</trkpt>
<trkpt lat="47.938496" lon="10.636042">
<ele>636.034</ele>
<time>2020-09-11T10:19:26Z</time>
</trkpt>
<trkpt lat="47.938454" lon="10.63595">
<ele>635.68</ele>
<time>2020-09-11T10:19:27Z</time>
</trkpt>
<trkpt lat="47.938412" lon="10.635859">
<ele>635.422</ele>
<time>2020-09-11T10:19:28Z</time>
</trkpt>
<trkpt lat="47.938377" lon="10.635777">
<ele>635.249</ele>
<time>2020-09-11T10:19:29Z</time>
</trkpt>
<trkpt lat="47.938343" lon="10.635698">
<ele>635.134</ele>
<time>2020-09-11T10:19:30Z</time>
</trkpt>
<trkpt lat="47.938309" lon="10.63562">
<ele>635.024</ele>
<time>2020-09-11T10:19:31Z</time>
</trkpt>
<trkpt lat="47.938274" lon="10.635544">
<ele>635.004</ele>
<time>2020-09-11T10:19:32Z</time>
</trkpt>
<trkpt lat="47.93824" lon="10.63547">
<ele>635.001</ele>
<time>2020-09-11T10:19:33Z</time>
</trkpt>
<trkpt lat="47.938206" lon="10.635399">
<ele>635.001</ele>
<time>2020-09-11T10:19:34Z</time>
</trkpt>
<trkpt lat="47.938171" lon="10.635328">
<ele>635.226</ele>
<time>2020-09-11T10:19:35Z</time>
</trkpt>
<trkpt lat="47.938141" lon="10.635259">
<ele>635.421</ele>
<time>2020-09-11T10:19:36Z</time>
</trkpt>
<trkpt lat="47.93811" lon="10.635188">
<ele>635.589</ele>
<time>2020-09-11T10:19:37Z</time>
</trkpt>
<trkpt lat="47.938076" lon="10.635118">
<ele>635.722</ele>
<time>2020-09-11T10:19:38Z</time>
</trkpt>
<trkpt lat="47.938042" lon="10.635049">
<ele>635.825</ele>
<time>2020-09-11T10:19:39Z</time>
</trkpt>
<trkpt lat="47.938007" lon="10.634978">
<ele>635.901</ele>
<time>2020-09-11T10:19:40Z</time>
</trkpt>
<trkpt lat="47.937973" lon="10.634912">
<ele>635.95</ele>
<time>2020-09-11T10:19:41Z</time>
</trkpt>
<trkpt lat="47.937935" lon="10.634844">
<ele>635.973</ele>
<time>2020-09-11T10:19:42Z</time>
</trkpt>
<trkpt lat="47.937901" lon="10.634775">
<ele>635.973</ele>
<time>2020-09-11T10:19:43Z</time>
</trkpt>
<trkpt lat="47.937866" lon="10.634708">
<ele>635.973</ele>
<time>2020-09-11T10:19:44Z</time>
</trkpt>
<trkpt lat="47.937832" lon="10.634643">
<ele>635.973</ele>
<time>2020-09-11T10:19:45Z</time>
</trkpt>
<trkpt lat="47.937798" lon="10.634577">
<ele>635.973</ele>
<time>2020-09-11T10:19:46Z</time>
</trkpt>
<trkpt lat="47.937763" lon="10.634512">
<ele>635.973</ele>
<time>2020-09-11T10:19:47Z</time>
</trkpt>
<trkpt lat="47.937729" lon="10.634446">
<ele>635.973</ele>
<time>2020-09-11T10:19:48Z</time>
</trkpt>
<trkpt lat="47.937691" lon="10.634385">
<ele>635.973</ele>
<time>2020-09-11T10:19:49Z</time>
</trkpt>
<trkpt lat="47.937649" lon="10.634324">
<ele>635.973</ele>
<time>2020-09-11T10:19:50Z</time>
</trkpt>
<trkpt lat="47.937611" lon="10.634261">
<ele>635.973</ele>
<time>2020-09-11T10:19:51Z</time>
</trkpt>
<trkpt lat="47.937572" lon="10.6342">
<ele>635.973</ele>
<time>2020-09-11T10:19:52Z</time>
</trkpt>
<trkpt lat="47.937534" lon="10.634136">
<ele>635.973</ele>
<time>2020-09-11T10:19:53Z</time>
</trkpt>
<trkpt lat="47.9375" lon="10.634073">
<ele>635.973</ele>
<time>2020-09-11T10:19:54Z</time>
</trkpt>
<trkpt lat="47.937458" lon="10.634008">
<ele>635.973</ele>
<time>2020-09-11T10:19:55Z</time>
</trkpt>
<trkpt lat="47.93742" lon="10.633945">
<ele>635.973</ele>
<time>2020-09-11T10:19:56Z</time>
</trkpt>
<trkpt lat="47.937382" lon="10.633884">
<ele>635.973</ele>
<time>2020-09-11T10:19:57Z</time>
</trkpt>
<trkpt lat="47.93734" lon="10.633821">
<ele>635.973</ele>
<time>2020-09-11T10:19:58Z</time>
</trkpt>
<trkpt lat="47.937305" lon="10.633763">
<ele>635.973</ele>
<time>2020-09-11T10:19:59Z</time>
</trkpt>
<trkpt lat="47.937263" lon="10.633703">
<ele>635.973</ele>
<time>2020-09-11T10:20:00Z</time>
</trkpt>
<trkpt lat="47.937225" lon="10.633641">
<ele>635.973</ele>
<time>2020-09-11T10:20:01Z</time>
</trkpt>
<trkpt lat="47.937191" lon="10.633582">
<ele>635.973</ele>
<time>2020-09-11T10:20:02Z</time>
</trkpt>
<trkpt lat="47.937153" lon="10.633522">
<ele>635.973</ele>
<time>2020-09-11T10:20:03Z</time>
</trkpt>
<trkpt lat="47.937111" lon="10.633463">
<ele>635.973</ele>
<time>2020-09-11T10:20:04Z</time>
</trkpt>
<trkpt lat="47.937073" lon="10.633403">
<ele>635.973</ele>
<time>2020-09-11T10:20:05Z</time>
</trkpt>
<trkpt lat="47.937027" lon="10.633344">
<ele>635.973</ele>
<time>2020-09-11T10:20:06Z</time>
</trkpt>
<trkpt lat="47.936985" lon="10.633281">
<ele>635.973</ele>
<time>2020-09-11T10:20:07Z</time>
</trkpt>
<trkpt lat="47.936943" lon="10.633215">
<ele>635.973</ele>
<time>2020-09-11T10:20:08Z</time>
</trkpt>
<trkpt lat="47.936893" lon="10.633148">
<ele>635.973</ele>
<time>2020-09-11T10:20:09Z</time>
</trkpt>
<trkpt lat="47.936848" lon="10.633081">
<ele>635.973</ele>
<time>2020-09-11T10:20:10Z</time>
</trkpt>
<trkpt lat="47.936806" lon="10.633012">
<ele>635.973</ele>
<time>2020-09-11T10:20:11Z</time>
</trkpt>
<trkpt lat="47.936756" lon="10.632939">
<ele>635.7</ele>
<time>2020-09-11T10:20:12Z</time>
</trkpt>
<trkpt lat="47.93671" lon="10.632868">
<ele>635.487</ele>
<time>2020-09-11T10:20:13Z</time>
</trkpt>
<trkpt lat="47.936657" lon="10.632798">
<ele>635.345</ele>
<time>2020-09-11T10:20:14Z</time>
</trkpt>
<trkpt lat="47.936604" lon="10.632727">
<ele>635.2</ele>
<time>2020-09-11T10:20:15Z</time>
</trkpt>
<trkpt lat="47.93655" lon="10.632655">
<ele>634.835</ele>
<time>2020-09-11T10:20:16Z</time>
</trkpt>
<trkpt lat="47.936489" lon="10.632584">
<ele>634.547</ele>
<time>2020-09-11T10:20:17Z</time>
</trkpt>
<trkpt lat="47.936436" lon="10.632508">
<ele>634.364</ele>
<time>2020-09-11T10:20:18Z</time>
</trkpt>
<trkpt lat="47.936378" lon="10.632432">
<ele>633.951</ele>
<time>2020-09-11T10:20:19Z</time>
</trkpt>
<trkpt lat="47.936317" lon="10.632353">
<ele>633.538</ele>
<time>2020-09-11T10:20:20Z</time>
</trkpt>
<trkpt lat="47.93626" lon="10.632275">
<ele>633.36</ele>
<time>2020-09-11T10:20:21Z</time>
</trkpt>
<trkpt lat="47.936195" lon="10.632196">
<ele>632.978</ele>
<time>2020-09-11T10:20:22Z</time>
</trkpt>
<trkpt lat="47.936134" lon="10.632116">
<ele>632.715</ele>
<time>2020-09-11T10:20:23Z</time>
</trkpt>
<trkpt lat="47.936069" lon="10.632036">
<ele>632.527</ele>
<time>2020-09-11T10:20:24Z</time>
</trkpt>
<trkpt lat="47.936008" lon="10.631957">
<ele>632.102</ele>
<time>2020-09-11T10:20:25Z</time>
</trkpt>
<trkpt lat="47.935944" lon="10.631877">
<ele>631.78</ele>
<time>2020-09-11T10:20:26Z</time>
</trkpt>
<trkpt lat="47.935883" lon="10.631797">
<ele>631.548</ele>
<time>2020-09-11T10:20:27Z</time>
</trkpt>
<trkpt lat="47.935818" lon="10.631717">
<ele>631.404</ele>
<time>2020-09-11T10:20:28Z</time>
</trkpt>
<trkpt lat="47.935753" lon="10.631639">
<ele>630.988</ele>
<time>2020-09-11T10:20:29Z</time>
</trkpt>
<trkpt lat="47.935684" lon="10.63156">
<ele>630.673</ele>
<time>2020-09-11T10:20:30Z</time>
</trkpt>
<trkpt lat="47.935619" lon="10.631483">
<ele>630.43</ele>
<time>2020-09-11T10:20:31Z</time>
</trkpt>
<trkpt lat="47.935551" lon="10.631406">
<ele>630.252</ele>
<time>2020-09-11T10:20:32Z</time>
</trkpt>
<trkpt lat="47.935482" lon="10.631332">
<ele>630.133</ele>
<time>2020-09-11T10:20:33Z</time>
</trkpt>
<trkpt lat="47.935413" lon="10.631259">
<ele>630.061</ele>
<time>2020-09-11T10:20:34Z</time>
</trkpt>
<trkpt lat="47.935349" lon="10.631186">
<ele>629.739</ele>
<time>2020-09-11T10:20:35Z</time>
</trkpt>
<trkpt lat="47.93528" lon="10.631113">
<ele>629.492</ele>
<time>2020-09-11T10:20:36Z</time>
</trkpt>
<trkpt lat="47.935211" lon="10.631045">
<ele>629.315</ele>
<time>2020-09-11T10:20:37Z</time>
</trkpt>
<trkpt lat="47.935139" lon="10.630977">
<ele>629.173</ele>
<time>2020-09-11T10:20:38Z</time>
</trkpt>
<trkpt lat="47.93507" lon="10.630909">
<ele>629.062</ele>
<time>2020-09-11T10:20:39Z</time>
</trkpt>
<trkpt lat="47.935001" lon="10.630842">
<ele>628.996</ele>
<time>2020-09-11T10:20:40Z</time>
</trkpt>
<trkpt lat="47.934933" lon="10.630774">
<ele>628.7</ele>
<time>2020-09-11T10:20:41Z</time>
</trkpt>
<trkpt lat="47.934864" lon="10.63071">
<ele>628.474</ele>
<time>2020-09-11T10:20:42Z</time>
</trkpt>
<trkpt lat="47.934799" lon="10.630647">
<ele>628.311</ele>
<time>2020-09-11T10:20:43Z</time>
</trkpt>
<trkpt lat="47.934731" lon="10.630587">
<ele>628.207</ele>
<time>2020-09-11T10:20:44Z</time>
</trkpt>
<trkpt lat="47.934666" lon="10.63053">
<ele>628.094</ele>
<time>2020-09-11T10:20:45Z</time>
</trkpt>
<trkpt lat="47.934597" lon="10.630475">
<ele>628.014</ele>
<time>2020-09-11T10:20:46Z</time>
</trkpt>
<trkpt lat="47.934532" lon="10.63042">
<ele>627.961</ele>
<time>2020-09-11T10:20:47Z</time>
</trkpt>
<trkpt lat="47.934467" lon="10.630364">
<ele>627.935</ele>
<time>2020-09-11T10:20:48Z</time>
</trkpt>
<trkpt lat="47.934399" lon="10.630312">
<ele>627.935</ele>
<time>2020-09-11T10:20:49Z</time>
</trkpt>
<trkpt lat="47.934334" lon="10.63026">
<ele>627.935</ele>
<time>2020-09-11T10:20:50Z</time>
</trkpt>
<trkpt lat="47.934265" lon="10.630208">
<ele>627.935</ele>
<time>2020-09-11T10:20:51Z</time>
</trkpt>
<trkpt lat="47.9342" lon="10.630158">
<ele>627.935</ele>
<time>2020-09-11T10:20:52Z</time>
</trkpt>
<trkpt lat="47.934132" lon="10.630109">
<ele>627.935</ele>
<time>2020-09-11T10:20:53Z</time>
</trkpt>
<trkpt lat="47.934067" lon="10.63006">
<ele>627.935</ele>
<time>2020-09-11T10:20:54Z</time>
</trkpt>
<trkpt lat="47.934002" lon="10.630016">
<ele>627.935</ele>
<time>2020-09-11T10:20:55Z</time>
</trkpt>
<trkpt lat="47.933937" lon="10.629971">
<ele>627.935</ele>
<time>2020-09-11T10:20:56Z</time>
</trkpt>
<trkpt lat="47.933872" lon="10.629923">
<ele>627.935</ele>
<time>2020-09-11T10:20:57Z</time>
</trkpt>
<trkpt lat="47.933811" lon="10.629889">
<ele>627.935</ele>
<time>2020-09-11T10:20:58Z</time>
</trkpt>
<trkpt lat="47.93375" lon="10.629873">
<ele>627.701</ele>
<time>2020-09-11T10:20:59Z</time>
</trkpt>
<trkpt lat="47.933697" lon="10.629882">
<ele>627.519</ele>
<time>2020-09-11T10:21:00Z</time>
</trkpt>
<trkpt lat="47.933655" lon="10.62991">
<ele>627.378</ele>
<time>2020-09-11T10:21:01Z</time>
</trkpt>
<trkpt lat="47.93362" lon="10.62995">
<ele>627.275</ele>
<time>2020-09-11T10:21:02Z</time>
</trkpt>
<trkpt lat="47.933601" lon="10.629995">
<ele>627.197</ele>
<time>2020-09-11T10:21:03Z</time>
</trkpt>
<trkpt lat="47.93359" lon="10.630025">
<ele>627.146</ele>
<time>2020-09-11T10:21:04Z</time>
</trkpt>
<trkpt lat="47.933582" lon="10.630054">
<ele>627.297</ele>
<time>2020-09-11T10:21:05Z</time>
</trkpt>
<trkpt lat="47.933563" lon="10.630092">
<ele>627.441</ele>
<time>2020-09-11T10:21:06Z</time>
</trkpt>
<trkpt lat="47.933552" lon="10.63013">
<ele>627.587</ele>
<time>2020-09-11T10:21:07Z</time>
</trkpt>
<trkpt lat="47.933533" lon="10.630165">
<ele>627.728</ele>
<time>2020-09-11T10:21:08Z</time>
</trkpt>
<trkpt lat="47.933533" lon="10.63022">
<ele>627.846</ele>
<time>2020-09-11T10:21:09Z</time>
</trkpt>
<trkpt lat="47.933529" lon="10.630265">
<ele>627.92</ele>
<time>2020-09-11T10:21:10Z</time>
</trkpt>
<trkpt lat="47.933521" lon="10.63031">
<ele>628.255</ele>
<time>2020-09-11T10:21:11Z</time>
</trkpt>
<trkpt lat="47.933506" lon="10.630355">
<ele>628.528</ele>
<time>2020-09-11T10:21:12Z</time>
</trkpt>
<trkpt lat="47.933498" lon="10.630406">
<ele>628.699</ele>
<time>2020-09-11T10:21:13Z</time>
</trkpt>
<trkpt lat="47.933491" lon="10.630459">
<ele>628.799</ele>
<time>2020-09-11T10:21:14Z</time>
</trkpt>
<trkpt lat="47.933487" lon="10.630508">
<ele>628.913</ele>
<time>2020-09-11T10:21:15Z</time>
</trkpt>
<trkpt lat="47.933487" lon="10.630557">
<ele>629.238</ele>
<time>2020-09-11T10:21:16Z</time>
</trkpt>
<trkpt lat="47.933487" lon="10.63061">
<ele>629.488</ele>
<time>2020-09-11T10:21:17Z</time>
</trkpt>
<trkpt lat="47.933491" lon="10.630658">
<ele>629.688</ele>
<time>2020-09-11T10:21:18Z</time>
</trkpt>
<trkpt lat="47.933491" lon="10.630708">
<ele>629.87</ele>
<time>2020-09-11T10:21:19Z</time>
</trkpt>
<trkpt lat="47.933495" lon="10.630758">
<ele>630.218</ele>
<time>2020-09-11T10:21:20Z</time>
</trkpt>
<trkpt lat="47.933495" lon="10.630807">
<ele>630.472</ele>
<time>2020-09-11T10:21:21Z</time>
</trkpt>
<trkpt lat="47.933491" lon="10.630853">
<ele>630.653</ele>
<time>2020-09-11T10:21:22Z</time>
</trkpt>
<trkpt lat="47.933491" lon="10.6309">
<ele>630.755</ele>
<time>2020-09-11T10:21:23Z</time>
</trkpt>
<trkpt lat="47.933491" lon="10.630941">
<ele>631.076</ele>
<time>2020-09-11T10:21:24Z</time>
</trkpt>
<trkpt lat="47.933491" lon="10.630982">
<ele>631.353</ele>
<time>2020-09-11T10:21:25Z</time>
</trkpt>
<trkpt lat="47.933491" lon="10.631023">
<ele>631.557</ele>
<time>2020-09-11T10:21:26Z</time>
</trkpt>
<trkpt lat="47.933487" lon="10.631068">
<ele>631.93</ele>
<time>2020-09-11T10:21:27Z</time>
</trkpt>
<trkpt lat="47.933487" lon="10.631115">
<ele>632.221</ele>
<time>2020-09-11T10:21:28Z</time>
</trkpt>
<trkpt lat="47.933483" lon="10.631162">
<ele>632.455</ele>
<time>2020-09-11T10:21:29Z</time>
</trkpt>
<trkpt lat="47.933475" lon="10.631207">
<ele>632.603</ele>
<time>2020-09-11T10:21:30Z</time>
</trkpt>
<trkpt lat="47.933468" lon="10.631251">
<ele>632.977</ele>
<time>2020-09-11T10:21:31Z</time>
</trkpt>
<trkpt lat="47.93346" lon="10.631295">
<ele>633.292</ele>
<time>2020-09-11T10:21:32Z</time>
</trkpt>
<trkpt lat="47.933449" lon="10.631338">
<ele>633.469</ele>
<time>2020-09-11T10:21:33Z</time>
</trkpt>
<trkpt lat="47.933434" lon="10.631382">
<ele>633.588</ele>
<time>2020-09-11T10:21:34Z</time>
</trkpt>
<trkpt lat="47.933426" lon="10.631427">
<ele>633.934</ele>
<time>2020-09-11T10:21:35Z</time>
</trkpt>
<trkpt lat="47.933418" lon="10.631472">
<ele>634.212</ele>
<time>2020-09-11T10:21:36Z</time>
</trkpt>
<trkpt lat="47.933407" lon="10.631516">
<ele>634.427</ele>
<time>2020-09-11T10:21:37Z</time>
</trkpt>
<trkpt lat="47.933395" lon="10.631565">
<ele>634.557</ele>
<time>2020-09-11T10:21:38Z</time>
</trkpt>
<trkpt lat="47.933388" lon="10.631612">
<ele>634.887</ele>
<time>2020-09-11T10:21:39Z</time>
</trkpt>
<trkpt lat="47.933376" lon="10.631657">
<ele>635.148</ele>
<time>2020-09-11T10:21:40Z</time>
</trkpt>
<trkpt lat="47.933365" lon="10.631697">
<ele>635.345</ele>
<time>2020-09-11T10:21:41Z</time>
</trkpt>
<trkpt lat="47.933361" lon="10.631737">
<ele>635.487</ele>
<time>2020-09-11T10:21:42Z</time>
</trkpt>
<trkpt lat="47.933353" lon="10.631773">
<ele>635.562</ele>
<time>2020-09-11T10:21:43Z</time>
</trkpt>
<trkpt lat="47.933342" lon="10.63181">
<ele>635.844</ele>
<time>2020-09-11T10:21:44Z</time>
</trkpt>
<trkpt lat="47.933331" lon="10.631848">
<ele>636.089</ele>
<time>2020-09-11T10:21:45Z</time>
</trkpt>
<trkpt lat="47.933323" lon="10.631888">
<ele>636.277</ele>
<time>2020-09-11T10:21:46Z</time>
</trkpt>
<trkpt lat="47.933311" lon="10.631927">
<ele>636.395</ele>
<time>2020-09-11T10:21:47Z</time>
</trkpt>
<trkpt lat="47.933296" lon="10.631973">
<ele>636.774</ele>
<time>2020-09-11T10:21:48Z</time>
</trkpt>
<trkpt lat="47.933285" lon="10.632017">
<ele>637.09</ele>
<time>2020-09-11T10:21:49Z</time>
</trkpt>
<trkpt lat="47.933266" lon="10.632062">
<ele>637.325</ele>
<time>2020-09-11T10:21:50Z</time>
</trkpt>
<trkpt lat="47.933254" lon="10.632105">
<ele>637.492</ele>
<time>2020-09-11T10:21:51Z</time>
</trkpt>
<trkpt lat="47.933243" lon="10.632152">
<ele>637.59</ele>
<time>2020-09-11T10:21:52Z</time>
</trkpt>
<trkpt lat="47.933228" lon="10.632198">
<ele>637.928</ele>
<time>2020-09-11T10:21:53Z</time>
</trkpt>
<trkpt lat="47.93322" lon="10.632245">
<ele>638.165</ele>
<time>2020-09-11T10:21:54Z</time>
</trkpt>
<trkpt lat="47.933205" lon="10.632292">
<ele>638.378</ele>
<time>2020-09-11T10:21:55Z</time>
</trkpt>
<trkpt lat="47.933193" lon="10.63234">
<ele>638.524</ele>
<time>2020-09-11T10:21:56Z</time>
</trkpt>
<trkpt lat="47.933182" lon="10.632384">
<ele>638.625</ele>
<time>2020-09-11T10:21:57Z</time>
</trkpt>
<trkpt lat="47.933163" lon="10.63243">
<ele>638.932</ele>
<time>2020-09-11T10:21:58Z</time>
</trkpt>
<trkpt lat="47.933147" lon="10.632474">
<ele>639.172</ele>
<time>2020-09-11T10:21:59Z</time>
</trkpt>
<trkpt lat="47.933132" lon="10.632514">
<ele>639.345</ele>
<time>2020-09-11T10:22:00Z</time>
</trkpt>
<trkpt lat="47.933117" lon="10.632552">
<ele>639.497</ele>
<time>2020-09-11T10:22:01Z</time>
</trkpt>
<trkpt lat="47.933102" lon="10.632587">
<ele>639.573</ele>
<time>2020-09-11T10:22:02Z</time>
</trkpt>
<trkpt lat="47.93309" lon="10.632619">
<ele>639.62</ele>
<time>2020-09-11T10:22:03Z</time>
</trkpt>
<trkpt lat="47.933067" lon="10.63264">
<ele>639.659</ele>
<time>2020-09-11T10:22:04Z</time>
</trkpt>
<trkpt lat="47.933033" lon="10.632655">
<ele>639.685</ele>
<time>2020-09-11T10:22:05Z</time>
</trkpt>
<trkpt lat="47.933006" lon="10.63266">
<ele>639.685</ele>
<time>2020-09-11T10:22:06Z</time>
</trkpt>
<trkpt lat="47.932976" lon="10.632655">
<ele>639.685</ele>
<time>2020-09-11T10:22:07Z</time>
</trkpt>
<trkpt lat="47.932953" lon="10.632644">
<ele>640.001</ele>
<time>2020-09-11T10:22:08Z</time>
</trkpt>
<trkpt lat="47.93293" lon="10.632631">
<ele>640.257</ele>
<time>2020-09-11T10:22:09Z</time>
</trkpt>
<trkpt lat="47.932903" lon="10.632619">
<ele>640.444</ele>
<time>2020-09-11T10:22:10Z</time>
</trkpt>
<trkpt lat="47.93288" lon="10.632602">
<ele>640.582</ele>
<time>2020-09-11T10:22:11Z</time>
</trkpt>
<trkpt lat="47.932861" lon="10.632582">
<ele>640.675</ele>
<time>2020-09-11T10:22:12Z</time>
</trkpt>
<trkpt lat="47.932838" lon="10.632565">
<ele>640.743</ele>
<time>2020-09-11T10:22:13Z</time>
</trkpt>
<trkpt lat="47.932819" lon="10.632547">
<ele>640.8</ele>
<time>2020-09-11T10:22:14Z</time>
</trkpt>
<trkpt lat="47.932793" lon="10.63253">
<ele>640.834</ele>
<time>2020-09-11T10:22:15Z</time>
</trkpt>
<trkpt lat="47.93277" lon="10.632508">
<ele>640.834</ele>
<time>2020-09-11T10:22:16Z</time>
</trkpt>
<trkpt lat="47.932743" lon="10.632484">
<ele>640.834</ele>
<time>2020-09-11T10:22:17Z</time>
</trkpt>
<trkpt lat="47.932716" lon="10.632462">
<ele>640.834</ele>
<time>2020-09-11T10:22:18Z</time>
</trkpt>
<trkpt lat="47.93269" lon="10.632437">
<ele>640.834</ele>
<time>2020-09-11T10:22:19Z</time>
</trkpt>
<trkpt lat="47.932659" lon="10.63242">
<ele>640.834</ele>
<time>2020-09-11T10:22:20Z</time>
</trkpt>
<trkpt lat="47.932632" lon="10.632397">
<ele>640.834</ele>
<time>2020-09-11T10:22:21Z</time>
</trkpt>
<trkpt lat="47.932602" lon="10.632381">
<ele>640.834</ele>
<time>2020-09-11T10:22:22Z</time>
</trkpt>
<trkpt lat="47.932575" lon="10.63236">
<ele>640.834</ele>
<time>2020-09-11T10:22:23Z</time>
</trkpt>
<trkpt lat="47.932549" lon="10.632339">
<ele>640.834</ele>
<time>2020-09-11T10:22:24Z</time>
</trkpt>
<trkpt lat="47.932522" lon="10.632318">
<ele>640.834</ele>
<time>2020-09-11T10:22:25Z</time>
</trkpt>
<trkpt lat="47.932495" lon="10.632295">
<ele>640.834</ele>
<time>2020-09-11T10:22:26Z</time>
</trkpt>
<trkpt lat="47.932468" lon="10.632267">
<ele>640.834</ele>
<time>2020-09-11T10:22:27Z</time>
</trkpt>
<trkpt lat="47.932442" lon="10.632241">
<ele>640.834</ele>
<time>2020-09-11T10:22:28Z</time>
</trkpt>
<trkpt lat="47.932407" lon="10.632214">
<ele>640.834</ele>
<time>2020-09-11T10:22:29Z</time>
</trkpt>
<trkpt lat="47.932377" lon="10.632183">
<ele>640.834</ele>
<time>2020-09-11T10:22:30Z</time>
</trkpt>
<trkpt lat="47.93235" lon="10.632158">
<ele>640.834</ele>
<time>2020-09-11T10:22:31Z</time>
</trkpt>
<trkpt lat="47.932316" lon="10.632138">
<ele>641.062</ele>
<time>2020-09-11T10:22:32Z</time>
</trkpt>
<trkpt lat="47.932281" lon="10.632108">
<ele>641.242</ele>
<time>2020-09-11T10:22:33Z</time>
</trkpt>
<trkpt lat="47.932251" lon="10.632076">
<ele>641.359</ele>
<time>2020-09-11T10:22:34Z</time>
</trkpt>
<trkpt lat="47.932217" lon="10.632049">
<ele>641.483</ele>
<time>2020-09-11T10:22:35Z</time>
</trkpt>
<trkpt lat="47.932178" lon="10.632022">
<ele>641.581</ele>
<time>2020-09-11T10:22:36Z</time>
</trkpt>
<trkpt lat="47.932144" lon="10.631995">
<ele>641.648</ele>
<time>2020-09-11T10:22:37Z</time>
</trkpt>
<trkpt lat="47.93211" lon="10.631967">
<ele>641.696</ele>
<time>2020-09-11T10:22:38Z</time>
</trkpt>
<trkpt lat="47.932076" lon="10.63194">
<ele>641.718</ele>
<time>2020-09-11T10:22:39Z</time>
</trkpt>
<trkpt lat="47.932041" lon="10.631915">
<ele>641.718</ele>
<time>2020-09-11T10:22:40Z</time>
</trkpt>
<trkpt lat="47.932003" lon="10.63189">
<ele>641.718</ele>
<time>2020-09-11T10:22:41Z</time>
</trkpt>
<trkpt lat="47.931969" lon="10.63186">
<ele>641.718</ele>
<time>2020-09-11T10:22:42Z</time>
</trkpt>
<trkpt lat="47.931938" lon="10.631835">
<ele>641.718</ele>
<time>2020-09-11T10:22:43Z</time>
</trkpt>
<trkpt lat="47.931904" lon="10.631808">
<ele>641.718</ele>
<time>2020-09-11T10:22:44Z</time>
</trkpt>
<trkpt lat="47.931866" lon="10.631779">
<ele>641.718</ele>
<time>2020-09-11T10:22:45Z</time>
</trkpt>
<trkpt lat="47.931831" lon="10.631747">
<ele>641.718</ele>
<time>2020-09-11T10:22:46Z</time>
</trkpt>
<trkpt lat="47.931793" lon="10.631716">
<ele>641.718</ele>
<time>2020-09-11T10:22:47Z</time>
</trkpt>
<trkpt lat="47.931755" lon="10.631686">
<ele>641.718</ele>
<time>2020-09-11T10:22:48Z</time>
</trkpt>
<trkpt lat="47.931725" lon="10.631657">
<ele>641.718</ele>
<time>2020-09-11T10:22:49Z</time>
</trkpt>
<trkpt lat="47.931686" lon="10.631619">
<ele>641.718</ele>
<time>2020-09-11T10:22:50Z</time>
</trkpt>
<trkpt lat="47.931652" lon="10.631592">
<ele>641.718</ele>
<time>2020-09-11T10:22:51Z</time>
</trkpt>
<trkpt lat="47.931622" lon="10.631565">
<ele>641.957</ele>
<time>2020-09-11T10:22:52Z</time>
</trkpt>
<trkpt lat="47.931591" lon="10.63154">
<ele>642.144</ele>
<time>2020-09-11T10:22:53Z</time>
</trkpt>
<trkpt lat="47.931568" lon="10.631516">
<ele>642.276</ele>
<time>2020-09-11T10:22:54Z</time>
</trkpt>
<trkpt lat="47.931553" lon="10.631496">
<ele>642.412</ele>
<time>2020-09-11T10:22:55Z</time>
</trkpt>
<trkpt lat="47.931541" lon="10.631487">
<ele>642.52</ele>
<time>2020-09-11T10:22:56Z</time>
</trkpt>
<trkpt lat="47.931534" lon="10.631485">
<ele>642.603</ele>
<time>2020-09-11T10:22:57Z</time>
</trkpt>
<trkpt lat="47.931534" lon="10.631488">
<ele>642.657</ele>
<time>2020-09-11T10:22:58Z</time>
</trkpt>
<trkpt lat="47.93153" lon="10.631487">
<ele>642.69</ele>
<time>2020-09-11T10:22:59Z</time>
</trkpt>
<trkpt lat="47.93153" lon="10.631488">
<ele>642.691</ele>
<time>2020-09-11T10:23:00Z</time>
</trkpt>
<trkpt lat="47.931492" lon="10.631507">
<ele>642.691</ele>
<time>2020-09-11T10:23:28Z</time>
</trkpt>
<trkpt lat="47.931492" lon="10.631518">
<ele>642.691</ele>
<time>2020-09-11T10:23:29Z</time>
</trkpt>
<trkpt lat="47.931499" lon="10.631534">
<ele>642.691</ele>
<time>2020-09-11T10:23:30Z</time>
</trkpt>
<trkpt lat="47.931507" lon="10.631544">
<ele>642.69</ele>
<time>2020-09-11T10:23:31Z</time>
</trkpt>
<trkpt lat="47.931526" lon="10.631552">
<ele>642.69</ele>
<time>2020-09-11T10:23:32Z</time>
</trkpt>
<trkpt lat="47.931553" lon="10.63156">
<ele>642.691</ele>
<time>2020-09-11T10:23:33Z</time>
</trkpt>
<trkpt lat="47.93158" lon="10.631577">
<ele>642.691</ele>
<time>2020-09-11T10:23:34Z</time>
</trkpt>
<trkpt lat="47.931602" lon="10.631595">
<ele>642.691</ele>
<time>2020-09-11T10:23:35Z</time>
</trkpt>
<trkpt lat="47.931633" lon="10.631619">
<ele>642.691</ele>
<time>2020-09-11T10:23:36Z</time>
</trkpt>
<trkpt lat="47.931656" lon="10.631647">
<ele>642.691</ele>
<time>2020-09-11T10:23:37Z</time>
</trkpt>
<trkpt lat="47.931686" lon="10.631665">
<ele>642.69</ele>
<time>2020-09-11T10:23:38Z</time>
</trkpt>
<trkpt lat="47.931717" lon="10.63169">
<ele>642.691</ele>
<time>2020-09-11T10:23:39Z</time>
</trkpt>
<trkpt lat="47.931751" lon="10.631716">
<ele>642.69</ele>
<time>2020-09-11T10:23:40Z</time>
</trkpt>
<trkpt lat="47.931789" lon="10.631745">
<ele>642.691</ele>
<time>2020-09-11T10:23:41Z</time>
</trkpt>
<trkpt lat="47.931824" lon="10.631777">
<ele>642.691</ele>
<time>2020-09-11T10:23:42Z</time>
</trkpt>
<trkpt lat="47.931858" lon="10.631808">
<ele>642.691</ele>
<time>2020-09-11T10:23:43Z</time>
</trkpt>
<trkpt lat="47.931896" lon="10.63184">
<ele>642.691</ele>
<time>2020-09-11T10:23:44Z</time>
</trkpt>
<trkpt lat="47.931938" lon="10.631871">
<ele>642.691</ele>
<time>2020-09-11T10:23:45Z</time>
</trkpt>
<trkpt lat="47.93198" lon="10.631902">
<ele>642.691</ele>
<time>2020-09-11T10:23:46Z</time>
</trkpt>
<trkpt lat="47.932022" lon="10.631933">
<ele>642.691</ele>
<time>2020-09-11T10:23:47Z</time>
</trkpt>
<trkpt lat="47.932064" lon="10.631968">
<ele>642.691</ele>
<time>2020-09-11T10:23:48Z</time>
</trkpt>
<trkpt lat="47.932106" lon="10.632003">
<ele>642.439</ele>
<time>2020-09-11T10:23:49Z</time>
</trkpt>
<trkpt lat="47.932152" lon="10.632036">
<ele>642.244</ele>
<time>2020-09-11T10:23:50Z</time>
</trkpt>
<trkpt lat="47.93219" lon="10.632076">
<ele>642.115</ele>
<time>2020-09-11T10:23:51Z</time>
</trkpt>
<trkpt lat="47.932232" lon="10.632115">
<ele>641.975</ele>
<time>2020-09-11T10:23:52Z</time>
</trkpt>
<trkpt lat="47.932278" lon="10.632155">
<ele>641.867</ele>
<time>2020-09-11T10:23:53Z</time>
</trkpt>
<trkpt lat="47.932316" lon="10.632195">
<ele>641.791</ele>
<time>2020-09-11T10:23:54Z</time>
</trkpt>
<trkpt lat="47.932358" lon="10.632234">
<ele>641.741</ele>
<time>2020-09-11T10:23:55Z</time>
</trkpt>
<trkpt lat="47.932407" lon="10.632269">
<ele>641.718</ele>
<time>2020-09-11T10:23:56Z</time>
</trkpt>
<trkpt lat="47.932446" lon="10.632302">
<ele>641.718</ele>
<time>2020-09-11T10:23:57Z</time>
</trkpt>
<trkpt lat="47.932495" lon="10.632339">
<ele>641.718</ele>
<time>2020-09-11T10:23:58Z</time>
</trkpt>
<trkpt lat="47.932541" lon="10.632379">
<ele>641.718</ele>
<time>2020-09-11T10:23:59Z</time>
</trkpt>
<trkpt lat="47.932579" lon="10.632418">
<ele>641.718</ele>
<time>2020-09-11T10:24:00Z</time>
</trkpt>
<trkpt lat="47.932629" lon="10.632458">
<ele>641.52</ele>
<time>2020-09-11T10:24:01Z</time>
</trkpt>
<trkpt lat="47.932674" lon="10.632493">
<ele>641.334</ele>
<time>2020-09-11T10:24:02Z</time>
</trkpt>
<trkpt lat="47.932713" lon="10.632531">
<ele>641.181</ele>
<time>2020-09-11T10:24:03Z</time>
</trkpt>
<trkpt lat="47.932762" lon="10.632568">
<ele>641.059</ele>
<time>2020-09-11T10:24:04Z</time>
</trkpt>
<trkpt lat="47.932804" lon="10.632604">
<ele>640.965</ele>
<time>2020-09-11T10:24:05Z</time>
</trkpt>
<trkpt lat="47.932846" lon="10.632637">
<ele>640.899</ele>
<time>2020-09-11T10:24:06Z</time>
</trkpt>
<trkpt lat="47.932892" lon="10.632668">
<ele>640.855</ele>
<time>2020-09-11T10:24:07Z</time>
</trkpt>
<trkpt lat="47.932934" lon="10.632702">
<ele>640.834</ele>
<time>2020-09-11T10:24:08Z</time>
</trkpt>
<trkpt lat="47.932968" lon="10.632736">
<ele>640.834</ele>
<time>2020-09-11T10:24:09Z</time>
</trkpt>
<trkpt lat="47.932995" lon="10.632776">
<ele>640.834</ele>
<time>2020-09-11T10:24:10Z</time>
</trkpt>
<trkpt lat="47.933006" lon="10.632825">
<ele>640.834</ele>
<time>2020-09-11T10:24:11Z</time>
</trkpt>
<trkpt lat="47.933006" lon="10.632874">
<ele>640.834</ele>
<time>2020-09-11T10:24:12Z</time>
</trkpt>
<trkpt lat="47.932999" lon="10.632922">
<ele>640.834</ele>
<time>2020-09-11T10:24:13Z</time>
</trkpt>
<trkpt lat="47.932983" lon="10.632971">
<ele>640.834</ele>
<time>2020-09-11T10:24:14Z</time>
</trkpt>
<trkpt lat="47.932968" lon="10.633017">
<ele>640.834</ele>
<time>2020-09-11T10:24:15Z</time>
</trkpt>
<trkpt lat="47.932949" lon="10.633063">
<ele>640.834</ele>
<time>2020-09-11T10:24:16Z</time>
</trkpt>
<trkpt lat="47.932934" lon="10.633113">
<ele>640.834</ele>
<time>2020-09-11T10:24:17Z</time>
</trkpt>
<trkpt lat="47.932919" lon="10.633165">
<ele>640.834</ele>
<time>2020-09-11T10:24:18Z</time>
</trkpt>
<trkpt lat="47.932907" lon="10.633214">
<ele>640.834</ele>
<time>2020-09-11T10:24:19Z</time>
</trkpt>
<trkpt lat="47.932896" lon="10.633258">
<ele>640.834</ele>
<time>2020-09-11T10:24:20Z</time>
</trkpt>
<trkpt lat="47.93288" lon="10.633304">
<ele>640.834</ele>
<time>2020-09-11T10:24:21Z</time>
</trkpt>
<trkpt lat="47.932865" lon="10.633347">
<ele>640.834</ele>
<time>2020-09-11T10:24:22Z</time>
</trkpt>
<trkpt lat="47.932846" lon="10.633396">
<ele>640.834</ele>
<time>2020-09-11T10:24:23Z</time>
</trkpt>
<trkpt lat="47.932831" lon="10.633453">
<ele>640.834</ele>
<time>2020-09-11T10:24:24Z</time>
</trkpt>
<trkpt lat="47.932808" lon="10.633513">
<ele>640.834</ele>
<time>2020-09-11T10:24:25Z</time>
</trkpt>
<trkpt lat="47.932789" lon="10.633574">
<ele>640.834</ele>
<time>2020-09-11T10:24:26Z</time>
</trkpt>
<trkpt lat="47.93277" lon="10.633638">
<ele>640.834</ele>
<time>2020-09-11T10:24:27Z</time>
</trkpt>
<trkpt lat="47.932751" lon="10.633701">
<ele>640.834</ele>
<time>2020-09-11T10:24:28Z</time>
</trkpt>
<trkpt lat="47.932732" lon="10.633765">
<ele>640.834</ele>
<time>2020-09-11T10:24:29Z</time>
</trkpt>
<trkpt lat="47.932709" lon="10.633828">
<ele>640.834</ele>
<time>2020-09-11T10:24:30Z</time>
</trkpt>
<trkpt lat="47.932686" lon="10.633892">
<ele>640.834</ele>
<time>2020-09-11T10:24:31Z</time>
</trkpt>
<trkpt lat="47.932663" lon="10.633957">
<ele>640.834</ele>
<time>2020-09-11T10:24:32Z</time>
</trkpt>
<trkpt lat="47.932644" lon="10.634023">
<ele>640.834</ele>
<time>2020-09-11T10:24:33Z</time>
</trkpt>
<trkpt lat="47.932621" lon="10.634093">
<ele>640.834</ele>
<time>2020-09-11T10:24:34Z</time>
</trkpt>
<trkpt lat="47.932598" lon="10.634163">
<ele>640.834</ele>
<time>2020-09-11T10:24:35Z</time>
</trkpt>
<trkpt lat="47.932575" lon="10.634232">
<ele>640.834</ele>
<time>2020-09-11T10:24:36Z</time>
</trkpt>
<trkpt lat="47.932556" lon="10.634296">
<ele>640.834</ele>
<time>2020-09-11T10:24:37Z</time>
</trkpt>
<trkpt lat="47.932533" lon="10.634365">
<ele>640.834</ele>
<time>2020-09-11T10:24:38Z</time>
</trkpt>
<trkpt lat="47.93251" lon="10.634437">
<ele>640.834</ele>
<time>2020-09-11T10:24:39Z</time>
</trkpt>
<trkpt lat="47.932487" lon="10.634508">
<ele>640.834</ele>
<time>2020-09-11T10:24:40Z</time>
</trkpt>
<trkpt lat="47.932468" lon="10.634578">
<ele>640.834</ele>
<time>2020-09-11T10:24:41Z</time>
</trkpt>
<trkpt lat="47.932446" lon="10.63465">
<ele>640.834</ele>
<time>2020-09-11T10:24:42Z</time>
</trkpt>
<trkpt lat="47.932423" lon="10.634722">
<ele>640.834</ele>
<time>2020-09-11T10:24:43Z</time>
</trkpt>
<trkpt lat="47.932396" lon="10.634793">
<ele>640.834</ele>
<time>2020-09-11T10:24:44Z</time>
</trkpt>
<trkpt lat="47.932373" lon="10.634865">
<ele>640.834</ele>
<time>2020-09-11T10:24:45Z</time>
</trkpt>
<trkpt lat="47.93235" lon="10.634938">
<ele>640.834</ele>
<time>2020-09-11T10:24:46Z</time>
</trkpt>
<trkpt lat="47.932323" lon="10.635012">
<ele>640.834</ele>
<time>2020-09-11T10:24:47Z</time>
</trkpt>
<trkpt lat="47.932301" lon="10.635085">
<ele>640.834</ele>
<time>2020-09-11T10:24:48Z</time>
</trkpt>
<trkpt lat="47.932281" lon="10.63516">
<ele>640.834</ele>
<time>2020-09-11T10:24:49Z</time>
</trkpt>
<trkpt lat="47.932255" lon="10.635232">
<ele>640.834</ele>
<time>2020-09-11T10:24:50Z</time>
</trkpt>
<trkpt lat="47.932228" lon="10.635303">
<ele>640.834</ele>
<time>2020-09-11T10:24:51Z</time>
</trkpt>
<trkpt lat="47.932209" lon="10.635373">
<ele>640.834</ele>
<time>2020-09-11T10:24:52Z</time>
</trkpt>
<trkpt lat="47.932186" lon="10.635447">
<ele>640.834</ele>
<time>2020-09-11T10:24:53Z</time>
</trkpt>
<trkpt lat="47.932159" lon="10.63552">
<ele>640.834</ele>
<time>2020-09-11T10:24:54Z</time>
</trkpt>
<trkpt lat="47.932137" lon="10.63559">
<ele>640.834</ele>
<time>2020-09-11T10:24:55Z</time>
</trkpt>
<trkpt lat="47.932114" lon="10.63566">
<ele>640.834</ele>
<time>2020-09-11T10:24:56Z</time>
</trkpt>
<trkpt lat="47.932087" lon="10.635728">
<ele>640.834</ele>
<time>2020-09-11T10:24:57Z</time>
</trkpt>
<trkpt lat="47.93206" lon="10.635797">
<ele>640.834</ele>
<time>2020-09-11T10:24:58Z</time>
</trkpt>
<trkpt lat="47.932037" lon="10.635868">
<ele>640.834</ele>
<time>2020-09-11T10:24:59Z</time>
</trkpt>
<trkpt lat="47.932018" lon="10.63594">
<ele>640.834</ele>
<time>2020-09-11T10:25:00Z</time>
</trkpt>
<trkpt lat="47.931992" lon="10.636015">
<ele>640.834</ele>
<time>2020-09-11T10:25:01Z</time>
</trkpt>
<trkpt lat="47.931973" lon="10.636092">
<ele>640.834</ele>
<time>2020-09-11T10:25:02Z</time>
</trkpt>
<trkpt lat="47.93195" lon="10.636167">
<ele>640.834</ele>
<time>2020-09-11T10:25:03Z</time>
</trkpt>
<trkpt lat="47.931927" lon="10.636245">
<ele>640.834</ele>
<time>2020-09-11T10:25:04Z</time>
</trkpt>
<trkpt lat="47.9319" lon="10.636321">
<ele>640.834</ele>
<time>2020-09-11T10:25:05Z</time>
</trkpt>
<trkpt lat="47.931877" lon="10.636396">
<ele>640.834</ele>
<time>2020-09-11T10:25:06Z</time>
</trkpt>
<trkpt lat="47.931858" lon="10.636474">
<ele>640.834</ele>
<time>2020-09-11T10:25:07Z</time>
</trkpt>
<trkpt lat="47.931828" lon="10.636549">
<ele>640.834</ele>
<time>2020-09-11T10:25:08Z</time>
</trkpt>
<trkpt lat="47.931805" lon="10.636625">
<ele>640.834</ele>
<time>2020-09-11T10:25:09Z</time>
</trkpt>
<trkpt lat="47.931782" lon="10.636702">
<ele>640.834</ele>
<time>2020-09-11T10:25:10Z</time>
</trkpt>
<trkpt lat="47.931759" lon="10.636775">
<ele>640.834</ele>
<time>2020-09-11T10:25:11Z</time>
</trkpt>
<trkpt lat="47.931732" lon="10.636847">
<ele>640.834</ele>
<time>2020-09-11T10:25:12Z</time>
</trkpt>
<trkpt lat="47.931709" lon="10.636918">
<ele>640.834</ele>
<time>2020-09-11T10:25:13Z</time>
</trkpt>
<trkpt lat="47.931686" lon="10.636992">
<ele>640.834</ele>
<time>2020-09-11T10:25:14Z</time>
</trkpt>
<trkpt lat="47.931664" lon="10.637065">
<ele>640.834</ele>
<time>2020-09-11T10:25:15Z</time>
</trkpt>
<trkpt lat="47.931637" lon="10.637138">
<ele>640.834</ele>
<time>2020-09-11T10:25:16Z</time>
</trkpt>
<trkpt lat="47.931614" lon="10.637212">
<ele>640.834</ele>
<time>2020-09-11T10:25:17Z</time>
</trkpt>
<trkpt lat="47.931591" lon="10.63729">
<ele>640.834</ele>
<time>2020-09-11T10:25:18Z</time>
</trkpt>
<trkpt lat="47.931568" lon="10.637366">
<ele>640.834</ele>
<time>2020-09-11T10:25:19Z</time>
</trkpt>
<trkpt lat="47.931538" lon="10.637444">
<ele>640.834</ele>
<time>2020-09-11T10:25:20Z</time>
</trkpt>
<trkpt lat="47.931515" lon="10.63752">
<ele>640.834</ele>
<time>2020-09-11T10:25:21Z</time>
</trkpt>
<trkpt lat="47.931492" lon="10.637597">
<ele>640.834</ele>
<time>2020-09-11T10:25:22Z</time>
</trkpt>
<trkpt lat="47.931469" lon="10.637671">
<ele>640.834</ele>
<time>2020-09-11T10:25:23Z</time>
</trkpt>
<trkpt lat="47.931442" lon="10.637748">
<ele>640.834</ele>
<time>2020-09-11T10:25:24Z</time>
</trkpt>
<trkpt lat="47.931419" lon="10.637821">
<ele>640.834</ele>
<time>2020-09-11T10:25:25Z</time>
</trkpt>
<trkpt lat="47.931393" lon="10.6379">
<ele>640.834</ele>
<time>2020-09-11T10:25:26Z</time>
</trkpt>
<trkpt lat="47.93137" lon="10.637976">
<ele>640.834</ele>
<time>2020-09-11T10:25:27Z</time>
</trkpt>
<trkpt lat="47.931343" lon="10.63805">
<ele>640.834</ele>
<time>2020-09-11T10:25:28Z</time>
</trkpt>
<trkpt lat="47.93132" lon="10.638124">
<ele>640.834</ele>
<time>2020-09-11T10:25:29Z</time>
</trkpt>
<trkpt lat="47.931297" lon="10.6382">
<ele>640.834</ele>
<time>2020-09-11T10:25:30Z</time>
</trkpt>
<trkpt lat="47.931274" lon="10.638278">
<ele>640.834</ele>
<time>2020-09-11T10:25:31Z</time>
</trkpt>
<trkpt lat="47.931248" lon="10.638355">
<ele>640.834</ele>
<time>2020-09-11T10:25:32Z</time>
</trkpt>
<trkpt lat="47.931225" lon="10.638429">
<ele>640.834</ele>
<time>2020-09-11T10:25:33Z</time>
</trkpt>
<trkpt lat="47.931202" lon="10.638504">
<ele>640.834</ele>
<time>2020-09-11T10:25:34Z</time>
</trkpt>
<trkpt lat="47.931175" lon="10.638578">
<ele>640.834</ele>
<time>2020-09-11T10:25:35Z</time>
</trkpt>
<trkpt lat="47.931152" lon="10.638652">
<ele>640.834</ele>
<time>2020-09-11T10:25:36Z</time>
</trkpt>
<trkpt lat="47.931126" lon="10.638726">
<ele>640.834</ele>
<time>2020-09-11T10:25:37Z</time>
</trkpt>
<trkpt lat="47.931103" lon="10.6388">
<ele>640.834</ele>
<time>2020-09-11T10:25:38Z</time>
</trkpt>
<trkpt lat="47.931076" lon="10.638873">
<ele>640.834</ele>
<time>2020-09-11T10:25:39Z</time>
</trkpt>
<trkpt lat="47.931049" lon="10.638946">
<ele>640.834</ele>
<time>2020-09-11T10:25:40Z</time>
</trkpt>
<trkpt lat="47.931026" lon="10.639019">
<ele>640.834</ele>
<time>2020-09-11T10:25:41Z</time>
</trkpt>
<trkpt lat="47.931004" lon="10.639092">
<ele>640.834</ele>
<time>2020-09-11T10:25:42Z</time>
</trkpt>
<trkpt lat="47.930981" lon="10.639164">
<ele>640.834</ele>
<time>2020-09-11T10:25:43Z</time>
</trkpt>
<trkpt lat="47.930958" lon="10.639236">
<ele>640.834</ele>
<time>2020-09-11T10:25:44Z</time>
</trkpt>
<trkpt lat="47.930935" lon="10.63931">
<ele>640.834</ele>
<time>2020-09-11T10:25:45Z</time>
</trkpt>
<trkpt lat="47.930912" lon="10.639385">
<ele>640.834</ele>
<time>2020-09-11T10:25:46Z</time>
</trkpt>
<trkpt lat="47.930885" lon="10.63946">
<ele>640.834</ele>
<time>2020-09-11T10:25:47Z</time>
</trkpt>
<trkpt lat="47.930862" lon="10.639539">
<ele>641.063</ele>
<time>2020-09-11T10:25:48Z</time>
</trkpt>
<trkpt lat="47.93084" lon="10.639613">
<ele>641.241</ele>
<time>2020-09-11T10:25:49Z</time>
</trkpt>
<trkpt lat="47.930817" lon="10.639689">
<ele>641.382</ele>
<time>2020-09-11T10:25:50Z</time>
</trkpt>
<trkpt lat="47.930786" lon="10.639767">
<ele>641.477</ele>
<time>2020-09-11T10:25:51Z</time>
</trkpt>
<trkpt lat="47.930759" lon="10.639842">
<ele>641.577</ele>
<time>2020-09-11T10:25:52Z</time>
</trkpt>
<trkpt lat="47.930737" lon="10.639918">
<ele>641.65</ele>
<time>2020-09-11T10:25:53Z</time>
</trkpt>
<trkpt lat="47.93071" lon="10.639997">
<ele>641.696</ele>
<time>2020-09-11T10:25:54Z</time>
</trkpt>
<trkpt lat="47.930687" lon="10.640073">
<ele>641.718</ele>
<time>2020-09-11T10:25:55Z</time>
</trkpt>
<trkpt lat="47.93066" lon="10.64015">
<ele>641.718</ele>
<time>2020-09-11T10:25:56Z</time>
</trkpt>
<trkpt lat="47.930634" lon="10.640228">
<ele>641.718</ele>
<time>2020-09-11T10:25:57Z</time>
</trkpt>
<trkpt lat="47.930611" lon="10.640306">
<ele>641.718</ele>
<time>2020-09-11T10:25:58Z</time>
</trkpt>
<trkpt lat="47.930584" lon="10.640385">
<ele>641.718</ele>
<time>2020-09-11T10:25:59Z</time>
</trkpt>
<trkpt lat="47.930557" lon="10.640463">
<ele>641.718</ele>
<time>2020-09-11T10:26:00Z</time>
</trkpt>
<trkpt lat="47.930534" lon="10.640542">
<ele>641.718</ele>
<time>2020-09-11T10:26:01Z</time>
</trkpt>
<trkpt lat="47.930511" lon="10.640622">
<ele>641.718</ele>
<time>2020-09-11T10:26:02Z</time>
</trkpt>
<trkpt lat="47.930489" lon="10.640701">
<ele>641.718</ele>
<time>2020-09-11T10:26:03Z</time>
</trkpt>
<trkpt lat="47.93047" lon="10.640781">
<ele>641.718</ele>
<time>2020-09-11T10:26:04Z</time>
</trkpt>
<trkpt lat="47.930447" lon="10.640863">
<ele>641.718</ele>
<time>2020-09-11T10:26:05Z</time>
</trkpt>
<trkpt lat="47.930424" lon="10.640944">
<ele>641.718</ele>
<time>2020-09-11T10:26:06Z</time>
</trkpt>
<trkpt lat="47.930405" lon="10.641028">
<ele>641.718</ele>
<time>2020-09-11T10:26:07Z</time>
</trkpt>
<trkpt lat="47.930386" lon="10.641112">
<ele>641.718</ele>
<time>2020-09-11T10:26:08Z</time>
</trkpt>
<trkpt lat="47.930363" lon="10.641194">
<ele>641.718</ele>
<time>2020-09-11T10:26:09Z</time>
</trkpt>
<trkpt lat="47.93034" lon="10.64128">
<ele>641.718</ele>
<time>2020-09-11T10:26:10Z</time>
</trkpt>
<trkpt lat="47.930321" lon="10.641363">
<ele>641.718</ele>
<time>2020-09-11T10:26:11Z</time>
</trkpt>
<trkpt lat="47.930298" lon="10.641447">
<ele>641.718</ele>
<time>2020-09-11T10:26:12Z</time>
</trkpt>
<trkpt lat="47.930275" lon="10.64153">
<ele>641.718</ele>
<time>2020-09-11T10:26:13Z</time>
</trkpt>
<trkpt lat="47.93026" lon="10.641613">
<ele>641.718</ele>
<time>2020-09-11T10:26:14Z</time>
</trkpt>
<trkpt lat="47.930237" lon="10.641699">
<ele>641.718</ele>
<time>2020-09-11T10:26:15Z</time>
</trkpt>
<trkpt lat="47.930214" lon="10.641783">
<ele>641.718</ele>
<time>2020-09-11T10:26:16Z</time>
</trkpt>
<trkpt lat="47.930191" lon="10.641867">
<ele>641.718</ele>
<time>2020-09-11T10:26:17Z</time>
</trkpt>
<trkpt lat="47.930168" lon="10.641952">
<ele>641.718</ele>
<time>2020-09-11T10:26:18Z</time>
</trkpt>
<trkpt lat="47.930149" lon="10.642036">
<ele>641.718</ele>
<time>2020-09-11T10:26:19Z</time>
</trkpt>
<trkpt lat="47.93013" lon="10.642122">
<ele>641.718</ele>
<time>2020-09-11T10:26:20Z</time>
</trkpt>
<trkpt lat="47.930107" lon="10.642206">
<ele>641.718</ele>
<time>2020-09-11T10:26:21Z</time>
</trkpt>
<trkpt lat="47.930084" lon="10.642294">
<ele>641.718</ele>
<time>2020-09-11T10:26:22Z</time>
</trkpt>
<trkpt lat="47.930061" lon="10.642378">
<ele>641.718</ele>
<time>2020-09-11T10:26:23Z</time>
</trkpt>
<trkpt lat="47.930038" lon="10.642464">
<ele>641.718</ele>
<time>2020-09-11T10:26:24Z</time>
</trkpt>
<trkpt lat="47.930016" lon="10.642547">
<ele>641.718</ele>
<time>2020-09-11T10:26:25Z</time>
</trkpt>
<trkpt lat="47.929996" lon="10.642632">
<ele>641.718</ele>
<time>2020-09-11T10:26:26Z</time>
</trkpt>
<trkpt lat="47.929974" lon="10.642715">
<ele>641.718</ele>
<time>2020-09-11T10:26:27Z</time>
</trkpt>
<trkpt lat="47.929958" lon="10.6428">
<ele>641.718</ele>
<time>2020-09-11T10:26:28Z</time>
</trkpt>
<trkpt lat="47.929939" lon="10.642887">
<ele>641.718</ele>
<time>2020-09-11T10:26:29Z</time>
</trkpt>
<trkpt lat="47.92992" lon="10.642972">
<ele>641.718</ele>
<time>2020-09-11T10:26:30Z</time>
</trkpt>
<trkpt lat="47.929901" lon="10.643057">
<ele>641.718</ele>
<time>2020-09-11T10:26:31Z</time>
</trkpt>
<trkpt lat="47.929874" lon="10.643138">
<ele>641.718</ele>
<time>2020-09-11T10:26:32Z</time>
</trkpt>
<trkpt lat="47.929855" lon="10.643224">
<ele>641.718</ele>
<time>2020-09-11T10:26:33Z</time>
</trkpt>
<trkpt lat="47.929836" lon="10.643307">
<ele>641.718</ele>
<time>2020-09-11T10:26:34Z</time>
</trkpt>
<trkpt lat="47.929813" lon="10.643392">
<ele>641.718</ele>
<time>2020-09-11T10:26:35Z</time>
</trkpt>
<trkpt lat="47.929794" lon="10.643474">
<ele>641.718</ele>
<time>2020-09-11T10:26:36Z</time>
</trkpt>
<trkpt lat="47.929771" lon="10.643557">
<ele>641.718</ele>
<time>2020-09-11T10:26:37Z</time>
</trkpt>
<trkpt lat="47.929752" lon="10.643639">
<ele>641.718</ele>
<time>2020-09-11T10:26:38Z</time>
</trkpt>
<trkpt lat="47.929733" lon="10.643722">
<ele>641.718</ele>
<time>2020-09-11T10:26:39Z</time>
</trkpt>
<trkpt lat="47.92971" lon="10.643805">
<ele>641.718</ele>
<time>2020-09-11T10:26:40Z</time>
</trkpt>
<trkpt lat="47.929691" lon="10.643888">
<ele>641.718</ele>
<time>2020-09-11T10:26:41Z</time>
</trkpt>
<trkpt lat="47.929672" lon="10.643971">
<ele>641.718</ele>
<time>2020-09-11T10:26:42Z</time>
</trkpt>
<trkpt lat="47.929653" lon="10.644055">
<ele>641.718</ele>
<time>2020-09-11T10:26:43Z</time>
</trkpt>
<trkpt lat="47.929634" lon="10.644138">
<ele>641.718</ele>
<time>2020-09-11T10:26:44Z</time>
</trkpt>
<trkpt lat="47.929611" lon="10.644219">
<ele>641.718</ele>
<time>2020-09-11T10:26:45Z</time>
</trkpt>
<trkpt lat="47.929592" lon="10.6443">
<ele>641.718</ele>
<time>2020-09-11T10:26:46Z</time>
</trkpt>
<trkpt lat="47.929573" lon="10.644382">
<ele>641.718</ele>
<time>2020-09-11T10:26:47Z</time>
</trkpt>
<trkpt lat="47.929554" lon="10.644462">
<ele>641.718</ele>
<time>2020-09-11T10:26:48Z</time>
</trkpt>
<trkpt lat="47.929535" lon="10.644542">
<ele>641.718</ele>
<time>2020-09-11T10:26:49Z</time>
</trkpt>
<trkpt lat="47.929512" lon="10.64462">
<ele>641.718</ele>
<time>2020-09-11T10:26:50Z</time>
</trkpt>
<trkpt lat="47.929493" lon="10.644699">
<ele>641.718</ele>
<time>2020-09-11T10:26:51Z</time>
</trkpt>
<trkpt lat="47.929478" lon="10.644776">
<ele>641.718</ele>
<time>2020-09-11T10:26:52Z</time>
</trkpt>
<trkpt lat="47.929459" lon="10.644856">
<ele>641.718</ele>
<time>2020-09-11T10:26:53Z</time>
</trkpt>
<trkpt lat="47.929436" lon="10.644938">
<ele>641.718</ele>
<time>2020-09-11T10:26:54Z</time>
</trkpt>
<trkpt lat="47.929417" lon="10.64502">
<ele>641.718</ele>
<time>2020-09-11T10:26:55Z</time>
</trkpt>
<trkpt lat="47.929394" lon="10.6451">
<ele>641.718</ele>
<time>2020-09-11T10:26:56Z</time>
</trkpt>
<trkpt lat="47.929375" lon="10.645181">
<ele>641.718</ele>
<time>2020-09-11T10:26:57Z</time>
</trkpt>
<trkpt lat="47.929352" lon="10.64526">
<ele>641.718</ele>
<time>2020-09-11T10:26:58Z</time>
</trkpt>
<trkpt lat="47.929333" lon="10.645342">
<ele>641.718</ele>
<time>2020-09-11T10:26:59Z</time>
</trkpt>
<trkpt lat="47.92931" lon="10.645425">
<ele>641.718</ele>
<time>2020-09-11T10:27:00Z</time>
</trkpt>
<trkpt lat="47.929287" lon="10.645505">
<ele>641.718</ele>
<time>2020-09-11T10:27:01Z</time>
</trkpt>
<trkpt lat="47.929272" lon="10.645581">
<ele>641.718</ele>
<time>2020-09-11T10:27:02Z</time>
</trkpt>
<trkpt lat="47.929249" lon="10.645658">
<ele>641.718</ele>
<time>2020-09-11T10:27:03Z</time>
</trkpt>
<trkpt lat="47.929226" lon="10.64573">
<ele>641.718</ele>
<time>2020-09-11T10:27:04Z</time>
</trkpt>
<trkpt lat="47.929214" lon="10.645802">
<ele>641.718</ele>
<time>2020-09-11T10:27:05Z</time>
</trkpt>
<trkpt lat="47.929195" lon="10.645873">
<ele>641.483</ele>
<time>2020-09-11T10:27:06Z</time>
</trkpt>
<trkpt lat="47.92918" lon="10.645947">
<ele>641.3</ele>
<time>2020-09-11T10:27:07Z</time>
</trkpt>
<trkpt lat="47.929161" lon="10.646015">
<ele>641.158</ele>
<time>2020-09-11T10:27:08Z</time>
</trkpt>
<trkpt lat="47.929146" lon="10.64608">
<ele>641.049</ele>
<time>2020-09-11T10:27:09Z</time>
</trkpt>
<trkpt lat="47.929123" lon="10.646142">
<ele>640.969</ele>
<time>2020-09-11T10:27:10Z</time>
</trkpt>
<trkpt lat="47.929108" lon="10.646205">
<ele>640.911</ele>
<time>2020-09-11T10:27:11Z</time>
</trkpt>
<trkpt lat="47.929089" lon="10.646268">
<ele>640.858</ele>
<time>2020-09-11T10:27:12Z</time>
</trkpt>
<trkpt lat="47.929077" lon="10.646332">
<ele>640.834</ele>
<time>2020-09-11T10:27:13Z</time>
</trkpt>
<trkpt lat="47.929066" lon="10.646399">
<ele>640.834</ele>
<time>2020-09-11T10:27:14Z</time>
</trkpt>
<trkpt lat="47.92905" lon="10.646472">
<ele>640.834</ele>
<time>2020-09-11T10:27:15Z</time>
</trkpt>
<trkpt lat="47.929031" lon="10.646545">
<ele>640.834</ele>
<time>2020-09-11T10:27:16Z</time>
</trkpt>
<trkpt lat="47.929016" lon="10.64662">
<ele>640.834</ele>
<time>2020-09-11T10:27:17Z</time>
</trkpt>
<trkpt lat="47.929001" lon="10.646693">
<ele>640.834</ele>
<time>2020-09-11T10:27:18Z</time>
</trkpt>
<trkpt lat="47.928986" lon="10.646765">
<ele>640.834</ele>
<time>2020-09-11T10:27:19Z</time>
</trkpt>
<trkpt lat="47.928967" lon="10.646836">
<ele>640.834</ele>
<time>2020-09-11T10:27:20Z</time>
</trkpt>
<trkpt lat="47.928951" lon="10.646907">
<ele>640.834</ele>
<time>2020-09-11T10:27:21Z</time>
</trkpt>
<trkpt lat="47.928932" lon="10.64698">
<ele>640.834</ele>
<time>2020-09-11T10:27:22Z</time>
</trkpt>
<trkpt lat="47.928913" lon="10.647054">
<ele>640.834</ele>
<time>2020-09-11T10:27:23Z</time>
</trkpt>
<trkpt lat="47.928894" lon="10.647127">
<ele>640.834</ele>
<time>2020-09-11T10:27:24Z</time>
</trkpt>
<trkpt lat="47.928871" lon="10.647199">
<ele>640.834</ele>
<time>2020-09-11T10:27:25Z</time>
</trkpt>
<trkpt lat="47.928852" lon="10.647272">
<ele>640.834</ele>
<time>2020-09-11T10:27:26Z</time>
</trkpt>
<trkpt lat="47.928829" lon="10.647344">
<ele>640.834</ele>
<time>2020-09-11T10:27:27Z</time>
</trkpt>
<trkpt lat="47.928814" lon="10.647418">
<ele>640.834</ele>
<time>2020-09-11T10:27:28Z</time>
</trkpt>
<trkpt lat="47.928795" lon="10.647491">
<ele>640.834</ele>
<time>2020-09-11T10:27:29Z</time>
</trkpt>
<trkpt lat="47.928776" lon="10.647565">
<ele>640.834</ele>
<time>2020-09-11T10:27:30Z</time>
</trkpt>
<trkpt lat="47.928757" lon="10.64764">
<ele>640.834</ele>
<time>2020-09-11T10:27:31Z</time>
</trkpt>
<trkpt lat="47.928734" lon="10.647715">
<ele>640.834</ele>
<time>2020-09-11T10:27:32Z</time>
</trkpt>
<trkpt lat="47.928719" lon="10.647794">
<ele>640.834</ele>
<time>2020-09-11T10:27:33Z</time>
</trkpt>
<trkpt lat="47.928696" lon="10.647871">
<ele>640.834</ele>
<time>2020-09-11T10:27:34Z</time>
</trkpt>
<trkpt lat="47.928677" lon="10.647951">
<ele>640.834</ele>
<time>2020-09-11T10:27:35Z</time>
</trkpt>
<trkpt lat="47.928661" lon="10.648033">
<ele>640.834</ele>
<time>2020-09-11T10:27:36Z</time>
</trkpt>
<trkpt lat="47.928638" lon="10.648114">
<ele>640.834</ele>
<time>2020-09-11T10:27:37Z</time>
</trkpt>
<trkpt lat="47.928619" lon="10.648195">
<ele>640.834</ele>
<time>2020-09-11T10:27:38Z</time>
</trkpt>
<trkpt lat="47.9286" lon="10.648277">
<ele>640.834</ele>
<time>2020-09-11T10:27:39Z</time>
</trkpt>
<trkpt lat="47.928581" lon="10.648358">
<ele>640.834</ele>
<time>2020-09-11T10:27:40Z</time>
</trkpt>
<trkpt lat="47.928562" lon="10.64844">
<ele>640.834</ele>
<time>2020-09-11T10:27:41Z</time>
</trkpt>
<trkpt lat="47.928535" lon="10.648522">
<ele>640.834</ele>
<time>2020-09-11T10:27:42Z</time>
</trkpt>
<trkpt lat="47.928516" lon="10.648602">
<ele>640.834</ele>
<time>2020-09-11T10:27:43Z</time>
</trkpt>
<trkpt lat="47.928493" lon="10.648684">
<ele>640.834</ele>
<time>2020-09-11T10:27:44Z</time>
</trkpt>
<trkpt lat="47.928471" lon="10.648767">
<ele>640.834</ele>
<time>2020-09-11T10:27:45Z</time>
</trkpt>
<trkpt lat="47.928448" lon="10.648849">
<ele>640.834</ele>
<time>2020-09-11T10:27:46Z</time>
</trkpt>
<trkpt lat="47.928429" lon="10.648933">
<ele>640.834</ele>
<time>2020-09-11T10:27:47Z</time>
</trkpt>
<trkpt lat="47.928406" lon="10.649017">
<ele>640.834</ele>
<time>2020-09-11T10:27:48Z</time>
</trkpt>
<trkpt lat="47.928379" lon="10.649101">
<ele>640.834</ele>
<time>2020-09-11T10:27:49Z</time>
</trkpt>
<trkpt lat="47.92836" lon="10.649187">
<ele>640.834</ele>
<time>2020-09-11T10:27:50Z</time>
</trkpt>
<trkpt lat="47.928337" lon="10.649272">
<ele>640.834</ele>
<time>2020-09-11T10:27:51Z</time>
</trkpt>
<trkpt lat="47.92831" lon="10.649359">
<ele>640.834</ele>
<time>2020-09-11T10:27:52Z</time>
</trkpt>
<trkpt lat="47.928291" lon="10.649445">
<ele>640.834</ele>
<time>2020-09-11T10:27:53Z</time>
</trkpt>
<trkpt lat="47.928268" lon="10.649532">
<ele>640.834</ele>
<time>2020-09-11T10:27:54Z</time>
</trkpt>
<trkpt lat="47.928242" lon="10.649618">
<ele>640.834</ele>
<time>2020-09-11T10:27:55Z</time>
</trkpt>
<trkpt lat="47.928223" lon="10.649707">
<ele>640.834</ele>
<time>2020-09-11T10:27:56Z</time>
</trkpt>
<trkpt lat="47.928204" lon="10.649796">
<ele>640.834</ele>
<time>2020-09-11T10:27:57Z</time>
</trkpt>
<trkpt lat="47.928181" lon="10.649885">
<ele>640.834</ele>
<time>2020-09-11T10:27:58Z</time>
</trkpt>
<trkpt lat="47.928162" lon="10.649973">
<ele>640.834</ele>
<time>2020-09-11T10:27:59Z</time>
</trkpt>
<trkpt lat="47.928139" lon="10.650061">
<ele>640.597</ele>
<time>2020-09-11T10:28:00Z</time>
</trkpt>
<trkpt lat="47.928116" lon="10.65015">
<ele>640.428</ele>
<time>2020-09-11T10:28:01Z</time>
</trkpt>
<trkpt lat="47.928097" lon="10.650242">
<ele>640.254</ele>
<time>2020-09-11T10:28:02Z</time>
</trkpt>
<trkpt lat="47.928074" lon="10.650333">
<ele>640.116</ele>
<time>2020-09-11T10:28:03Z</time>
</trkpt>
<trkpt lat="47.928047" lon="10.650421">
<ele>640.01</ele>
<time>2020-09-11T10:28:04Z</time>
</trkpt>
<trkpt lat="47.928028" lon="10.650512">
<ele>639.934</ele>
<time>2020-09-11T10:28:05Z</time>
</trkpt>
<trkpt lat="47.928005" lon="10.650601">
<ele>639.885</ele>
<time>2020-09-11T10:28:06Z</time>
</trkpt>
<trkpt lat="47.927979" lon="10.650693">
<ele>639.861</ele>
<time>2020-09-11T10:28:07Z</time>
</trkpt>
<trkpt lat="47.927959" lon="10.650785">
<ele>639.861</ele>
<time>2020-09-11T10:28:08Z</time>
</trkpt>
<trkpt lat="47.927937" lon="10.650875">
<ele>639.861</ele>
<time>2020-09-11T10:28:09Z</time>
</trkpt>
<trkpt lat="47.927914" lon="10.650968">
<ele>639.861</ele>
<time>2020-09-11T10:28:10Z</time>
</trkpt>
<trkpt lat="47.927887" lon="10.65106">
<ele>639.861</ele>
<time>2020-09-11T10:28:11Z</time>
</trkpt>
<trkpt lat="47.927864" lon="10.651152">
<ele>639.861</ele>
<time>2020-09-11T10:28:12Z</time>
</trkpt>
<trkpt lat="47.927837" lon="10.651244">
<ele>639.861</ele>
<time>2020-09-11T10:28:13Z</time>
</trkpt>
<trkpt lat="47.927814" lon="10.651339">
<ele>639.861</ele>
<time>2020-09-11T10:28:14Z</time>
</trkpt>
<trkpt lat="47.927788" lon="10.651432">
<ele>639.861</ele>
<time>2020-09-11T10:28:15Z</time>
</trkpt>
<trkpt lat="47.927761" lon="10.651523">
<ele>639.861</ele>
<time>2020-09-11T10:28:16Z</time>
</trkpt>
<trkpt lat="47.927738" lon="10.651619">
<ele>639.861</ele>
<time>2020-09-11T10:28:17Z</time>
</trkpt>
<trkpt lat="47.927715" lon="10.651713">
<ele>639.861</ele>
<time>2020-09-11T10:28:18Z</time>
</trkpt>
<trkpt lat="47.927689" lon="10.651807">
<ele>639.861</ele>
<time>2020-09-11T10:28:19Z</time>
</trkpt>
<trkpt lat="47.927666" lon="10.651898">
<ele>639.861</ele>
<time>2020-09-11T10:28:20Z</time>
</trkpt>
<trkpt lat="47.927639" lon="10.651986">
<ele>639.626</ele>
<time>2020-09-11T10:28:21Z</time>
</trkpt>
<trkpt lat="47.927616" lon="10.652074">
<ele>639.405</ele>
<time>2020-09-11T10:28:22Z</time>
</trkpt>
<trkpt lat="47.927593" lon="10.652157">
<ele>639.224</ele>
<time>2020-09-11T10:28:23Z</time>
</trkpt>
<trkpt lat="47.927574" lon="10.652239">
<ele>639.079</ele>
<time>2020-09-11T10:28:24Z</time>
</trkpt>
<trkpt lat="47.927555" lon="10.652322">
<ele>638.966</ele>
<time>2020-09-11T10:28:25Z</time>
</trkpt>
<trkpt lat="47.927536" lon="10.652407">
<ele>638.883</ele>
<time>2020-09-11T10:28:26Z</time>
</trkpt>
<trkpt lat="47.927517" lon="10.652497">
<ele>638.828</ele>
<time>2020-09-11T10:28:27Z</time>
</trkpt>
<trkpt lat="47.927498" lon="10.652587">
<ele>638.801</ele>
<time>2020-09-11T10:28:28Z</time>
</trkpt>
<trkpt lat="47.927483" lon="10.652675">
<ele>638.801</ele>
<time>2020-09-11T10:28:29Z</time>
</trkpt>
<trkpt lat="47.927467" lon="10.652765">
<ele>638.801</ele>
<time>2020-09-11T10:28:30Z</time>
</trkpt>
<trkpt lat="47.927456" lon="10.652862">
<ele>638.801</ele>
<time>2020-09-11T10:28:31Z</time>
</trkpt>
<trkpt lat="47.927444" lon="10.652955">
<ele>638.801</ele>
<time>2020-09-11T10:28:32Z</time>
</trkpt>
<trkpt lat="47.927429" lon="10.653046">
<ele>638.801</ele>
<time>2020-09-11T10:28:33Z</time>
</trkpt>
<trkpt lat="47.927414" lon="10.653136">
<ele>638.801</ele>
<time>2020-09-11T10:28:34Z</time>
</trkpt>
<trkpt lat="47.927402" lon="10.65323">
<ele>638.801</ele>
<time>2020-09-11T10:28:35Z</time>
</trkpt>
<trkpt lat="47.927395" lon="10.65332">
<ele>638.801</ele>
<time>2020-09-11T10:28:36Z</time>
</trkpt>
<trkpt lat="47.92738" lon="10.653408">
<ele>638.801</ele>
<time>2020-09-11T10:28:37Z</time>
</trkpt>
<trkpt lat="47.927364" lon="10.653488">
<ele>638.801</ele>
<time>2020-09-11T10:28:38Z</time>
</trkpt>
<trkpt lat="47.927349" lon="10.653568">
<ele>638.801</ele>
<time>2020-09-11T10:28:39Z</time>
</trkpt>
<trkpt lat="47.927338" lon="10.653646">
<ele>638.801</ele>
<time>2020-09-11T10:28:40Z</time>
</trkpt>
<trkpt lat="47.927326" lon="10.65373">
<ele>638.801</ele>
<time>2020-09-11T10:28:41Z</time>
</trkpt>
<trkpt lat="47.927307" lon="10.653821">
<ele>638.801</ele>
<time>2020-09-11T10:28:42Z</time>
</trkpt>
<trkpt lat="47.927296" lon="10.653912">
<ele>638.801</ele>
<time>2020-09-11T10:28:43Z</time>
</trkpt>
<trkpt lat="47.92728" lon="10.654005">
<ele>638.801</ele>
<time>2020-09-11T10:28:44Z</time>
</trkpt>
<trkpt lat="47.927265" lon="10.654096">
<ele>638.801</ele>
<time>2020-09-11T10:28:45Z</time>
</trkpt>
<trkpt lat="47.927254" lon="10.654188">
<ele>638.801</ele>
<time>2020-09-11T10:28:46Z</time>
</trkpt>
<trkpt lat="47.927238" lon="10.654284">
<ele>638.801</ele>
<time>2020-09-11T10:28:47Z</time>
</trkpt>
<trkpt lat="47.927227" lon="10.654378">
<ele>638.801</ele>
<time>2020-09-11T10:28:48Z</time>
</trkpt>
<trkpt lat="47.927212" lon="10.654477">
<ele>638.801</ele>
<time>2020-09-11T10:28:49Z</time>
</trkpt>
<trkpt lat="47.927197" lon="10.654573">
<ele>638.801</ele>
<time>2020-09-11T10:28:50Z</time>
</trkpt>
<trkpt lat="47.927177" lon="10.654663">
<ele>638.801</ele>
<time>2020-09-11T10:28:51Z</time>
</trkpt>
<trkpt lat="47.927166" lon="10.654749">
<ele>638.801</ele>
<time>2020-09-11T10:28:52Z</time>
</trkpt>
<trkpt lat="47.927158" lon="10.65484">
<ele>638.801</ele>
<time>2020-09-11T10:28:53Z</time>
</trkpt>
<trkpt lat="47.927139" lon="10.654942">
<ele>638.801</ele>
<time>2020-09-11T10:28:54Z</time>
</trkpt>
<trkpt lat="47.927132" lon="10.655037">
<ele>638.801</ele>
<time>2020-09-11T10:28:55Z</time>
</trkpt>
<trkpt lat="47.92712" lon="10.65513">
<ele>638.801</ele>
<time>2020-09-11T10:28:56Z</time>
</trkpt>
<trkpt lat="47.927101" lon="10.655229">
<ele>638.801</ele>
<time>2020-09-11T10:28:57Z</time>
</trkpt>
<trkpt lat="47.927094" lon="10.655325">
<ele>638.548</ele>
<time>2020-09-11T10:28:58Z</time>
</trkpt>
<trkpt lat="47.927074" lon="10.655421">
<ele>638.349</ele>
<time>2020-09-11T10:28:59Z</time>
</trkpt>
<trkpt lat="47.927059" lon="10.65552">
<ele>638.195</ele>
<time>2020-09-11T10:29:00Z</time>
</trkpt>
<trkpt lat="47.927044" lon="10.655613">
<ele>638.097</ele>
<time>2020-09-11T10:29:01Z</time>
</trkpt>
<trkpt lat="47.927032" lon="10.655708">
<ele>637.988</ele>
<time>2020-09-11T10:29:02Z</time>
</trkpt>
<trkpt lat="47.927017" lon="10.655797">
<ele>637.904</ele>
<time>2020-09-11T10:29:03Z</time>
</trkpt>
<trkpt lat="47.927006" lon="10.655885">
<ele>637.853</ele>
<time>2020-09-11T10:29:04Z</time>
</trkpt>
<trkpt lat="47.926994" lon="10.655975">
<ele>637.829</ele>
<time>2020-09-11T10:29:05Z</time>
</trkpt>
<trkpt lat="47.926987" lon="10.656061">
<ele>637.829</ele>
<time>2020-09-11T10:29:06Z</time>
</trkpt>
<trkpt lat="47.926971" lon="10.656158">
<ele>637.829</ele>
<time>2020-09-11T10:29:07Z</time>
</trkpt>
<trkpt lat="47.926956" lon="10.656247">
<ele>637.829</ele>
<time>2020-09-11T10:29:08Z</time>
</trkpt>
<trkpt lat="47.926941" lon="10.656331">
<ele>637.829</ele>
<time>2020-09-11T10:29:09Z</time>
</trkpt>
<trkpt lat="47.926933" lon="10.656417">
<ele>637.829</ele>
<time>2020-09-11T10:29:10Z</time>
</trkpt>
<trkpt lat="47.926922" lon="10.656501">
<ele>637.829</ele>
<time>2020-09-11T10:29:11Z</time>
</trkpt>
<trkpt lat="47.926914" lon="10.656585">
<ele>637.829</ele>
<time>2020-09-11T10:29:12Z</time>
</trkpt>
<trkpt lat="47.926903" lon="10.656665">
<ele>637.829</ele>
<time>2020-09-11T10:29:13Z</time>
</trkpt>
<trkpt lat="47.926899" lon="10.656738">
<ele>637.829</ele>
<time>2020-09-11T10:29:14Z</time>
</trkpt>
<trkpt lat="47.926888" lon="10.656814">
<ele>637.829</ele>
<time>2020-09-11T10:29:15Z</time>
</trkpt>
<trkpt lat="47.926876" lon="10.656895">
<ele>637.829</ele>
<time>2020-09-11T10:29:16Z</time>
</trkpt>
<trkpt lat="47.926872" lon="10.656981">
<ele>637.829</ele>
<time>2020-09-11T10:29:17Z</time>
</trkpt>
<trkpt lat="47.926857" lon="10.657062">
<ele>637.829</ele>
<time>2020-09-11T10:29:18Z</time>
</trkpt>
<trkpt lat="47.926846" lon="10.657146">
<ele>637.829</ele>
<time>2020-09-11T10:29:19Z</time>
</trkpt>
<trkpt lat="47.92683" lon="10.657234">
<ele>637.829</ele>
<time>2020-09-11T10:29:20Z</time>
</trkpt>
<trkpt lat="47.926819" lon="10.657324">
<ele>637.829</ele>
<time>2020-09-11T10:29:21Z</time>
</trkpt>
<trkpt lat="47.926807" lon="10.657414">
<ele>637.829</ele>
<time>2020-09-11T10:29:22Z</time>
</trkpt>
<trkpt lat="47.926792" lon="10.657503">
<ele>637.829</ele>
<time>2020-09-11T10:29:23Z</time>
</trkpt>
<trkpt lat="47.926777" lon="10.657592">
<ele>637.829</ele>
<time>2020-09-11T10:29:24Z</time>
</trkpt>
<trkpt lat="47.926765" lon="10.657681">
<ele>637.829</ele>
<time>2020-09-11T10:29:25Z</time>
</trkpt>
<trkpt lat="47.926754" lon="10.65777">
<ele>637.829</ele>
<time>2020-09-11T10:29:26Z</time>
</trkpt>
<trkpt lat="47.926743" lon="10.65786">
<ele>637.829</ele>
<time>2020-09-11T10:29:27Z</time>
</trkpt>
<trkpt lat="47.926731" lon="10.65795">
<ele>637.829</ele>
<time>2020-09-11T10:29:28Z</time>
</trkpt>
<trkpt lat="47.926716" lon="10.658043">
<ele>637.829</ele>
<time>2020-09-11T10:29:29Z</time>
</trkpt>
<trkpt lat="47.926708" lon="10.658136">
<ele>637.829</ele>
<time>2020-09-11T10:29:30Z</time>
</trkpt>
<trkpt lat="47.926693" lon="10.658232">
<ele>637.829</ele>
<time>2020-09-11T10:29:31Z</time>
</trkpt>
<trkpt lat="47.926678" lon="10.658328">
<ele>637.588</ele>
<time>2020-09-11T10:29:32Z</time>
</trkpt>
<trkpt lat="47.926666" lon="10.658428">
<ele>637.387</ele>
<time>2020-09-11T10:29:33Z</time>
</trkpt>
<trkpt lat="47.926647" lon="10.65853">
<ele>637.256</ele>
<time>2020-09-11T10:29:34Z</time>
</trkpt>
<trkpt lat="47.926636" lon="10.658631">
<ele>636.892</ele>
<time>2020-09-11T10:29:35Z</time>
</trkpt>
<trkpt lat="47.926617" lon="10.658738">
<ele>636.6</ele>
<time>2020-09-11T10:29:36Z</time>
</trkpt>
<trkpt lat="47.926601" lon="10.658845">
<ele>636.412</ele>
<time>2020-09-11T10:29:37Z</time>
</trkpt>
<trkpt lat="47.926582" lon="10.658958">
<ele>635.984</ele>
<time>2020-09-11T10:29:38Z</time>
</trkpt>
<trkpt lat="47.926567" lon="10.659076">
<ele>635.701</ele>
<time>2020-09-11T10:29:39Z</time>
</trkpt>
<trkpt lat="47.926544" lon="10.659191">
<ele>635.184</ele>
<time>2020-09-11T10:29:40Z</time>
</trkpt>
<trkpt lat="47.926525" lon="10.659312">
<ele>634.832</ele>
<time>2020-09-11T10:29:41Z</time>
</trkpt>
<trkpt lat="47.926506" lon="10.659425">
<ele>634.525</ele>
<time>2020-09-11T10:29:42Z</time>
</trkpt>
<trkpt lat="47.926479" lon="10.659545">
<ele>634.046</ele>
<time>2020-09-11T10:29:43Z</time>
</trkpt>
<trkpt lat="47.926464" lon="10.659657">
<ele>633.684</ele>
<time>2020-09-11T10:29:44Z</time>
</trkpt>
<trkpt lat="47.926437" lon="10.659763">
<ele>633.415</ele>
<time>2020-09-11T10:29:45Z</time>
</trkpt>
<trkpt lat="47.926414" lon="10.65986">
<ele>633.238</ele>
<time>2020-09-11T10:29:46Z</time>
</trkpt>
<trkpt lat="47.926411" lon="10.659955">
<ele>633.114</ele>
<time>2020-09-11T10:29:47Z</time>
</trkpt>
<trkpt lat="47.926392" lon="10.660044">
<ele>633.204</ele>
<time>2020-09-11T10:29:48Z</time>
</trkpt>
<trkpt lat="47.926384" lon="10.660121">
<ele>633.346</ele>
<time>2020-09-11T10:29:49Z</time>
</trkpt>
<trkpt lat="47.926373" lon="10.660201">
<ele>633.476</ele>
<time>2020-09-11T10:29:50Z</time>
</trkpt>
<trkpt lat="47.926357" lon="10.660289">
<ele>633.51</ele>
<time>2020-09-11T10:29:51Z</time>
</trkpt>
<trkpt lat="47.92635" lon="10.660378">
<ele>633.649</ele>
<time>2020-09-11T10:29:52Z</time>
</trkpt>
<trkpt lat="47.926342" lon="10.660467">
<ele>633.993</ele>
<time>2020-09-11T10:29:53Z</time>
</trkpt>
<trkpt lat="47.926331" lon="10.660559">
<ele>634.286</ele>
<time>2020-09-11T10:29:54Z</time>
</trkpt>
<trkpt lat="47.926319" lon="10.660651">
<ele>634.512</ele>
<time>2020-09-11T10:29:55Z</time>
</trkpt>
<trkpt lat="47.926304" lon="10.66074">
<ele>634.675</ele>
<time>2020-09-11T10:29:56Z</time>
</trkpt>
<trkpt lat="47.926296" lon="10.660823">
<ele>634.827</ele>
<time>2020-09-11T10:29:57Z</time>
</trkpt>
<trkpt lat="47.926289" lon="10.660912">
<ele>635.115</ele>
<time>2020-09-11T10:29:58Z</time>
</trkpt>
<trkpt lat="47.926281" lon="10.660992">
<ele>635.315</ele>
<time>2020-09-11T10:29:59Z</time>
</trkpt>
<trkpt lat="47.92627" lon="10.661074">
<ele>635.425</ele>
<time>2020-09-11T10:30:00Z</time>
</trkpt>
<trkpt lat="47.926262" lon="10.661148">
<ele>635.757</ele>
<time>2020-09-11T10:30:01Z</time>
</trkpt>
<trkpt lat="47.92625" lon="10.661223">
<ele>636.055</ele>
<time>2020-09-11T10:30:02Z</time>
</trkpt>
<trkpt lat="47.926239" lon="10.661292">
<ele>636.295</ele>
<time>2020-09-11T10:30:03Z</time>
</trkpt>
<trkpt lat="47.926224" lon="10.661366">
<ele>636.484</ele>
<time>2020-09-11T10:30:04Z</time>
</trkpt>
<trkpt lat="47.926216" lon="10.661439">
<ele>636.615</ele>
<time>2020-09-11T10:30:05Z</time>
</trkpt>
<trkpt lat="47.926205" lon="10.661513">
<ele>636.691</ele>
<time>2020-09-11T10:30:06Z</time>
</trkpt>
<trkpt lat="47.926189" lon="10.661592">
<ele>636.744</ele>
<time>2020-09-11T10:30:07Z</time>
</trkpt>
<trkpt lat="47.926182" lon="10.661672">
<ele>636.768</ele>
<time>2020-09-11T10:30:08Z</time>
</trkpt>
<trkpt lat="47.92617" lon="10.661752">
<ele>636.768</ele>
<time>2020-09-11T10:30:09Z</time>
</trkpt>
<trkpt lat="47.926155" lon="10.661832">
<ele>636.768</ele>
<time>2020-09-11T10:30:10Z</time>
</trkpt>
<trkpt lat="47.926147" lon="10.661915">
<ele>636.768</ele>
<time>2020-09-11T10:30:11Z</time>
</trkpt>
<trkpt lat="47.926136" lon="10.661995">
<ele>636.768</ele>
<time>2020-09-11T10:30:12Z</time>
</trkpt>
<trkpt lat="47.926121" lon="10.662075">
<ele>636.768</ele>
<time>2020-09-11T10:30:13Z</time>
</trkpt>
<trkpt lat="47.926113" lon="10.662148">
<ele>636.768</ele>
<time>2020-09-11T10:30:14Z</time>
</trkpt>
<trkpt lat="47.926102" lon="10.662225">
<ele>636.768</ele>
<time>2020-09-11T10:30:15Z</time>
</trkpt>
<trkpt lat="47.92609" lon="10.6623">
<ele>636.768</ele>
<time>2020-09-11T10:30:16Z</time>
</trkpt>
<trkpt lat="47.926086" lon="10.662375">
<ele>636.768</ele>
<time>2020-09-11T10:30:17Z</time>
</trkpt>
<trkpt lat="47.926083" lon="10.66244">
<ele>637.009</ele>
<time>2020-09-11T10:30:18Z</time>
</trkpt>
<trkpt lat="47.926071" lon="10.662507">
<ele>637.2</ele>
<time>2020-09-11T10:30:19Z</time>
</trkpt>
<trkpt lat="47.92606" lon="10.662585">
<ele>637.355</ele>
<time>2020-09-11T10:30:20Z</time>
</trkpt>
<trkpt lat="47.926052" lon="10.662664">
<ele>637.462</ele>
<time>2020-09-11T10:30:21Z</time>
</trkpt>
<trkpt lat="47.926044" lon="10.662736">
<ele>637.58</ele>
<time>2020-09-11T10:30:22Z</time>
</trkpt>
<trkpt lat="47.926037" lon="10.662802">
<ele>637.66</ele>
<time>2020-09-11T10:30:23Z</time>
</trkpt>
<trkpt lat="47.926029" lon="10.662868">
<ele>637.714</ele>
<time>2020-09-11T10:30:24Z</time>
</trkpt>
<trkpt lat="47.926029" lon="10.662929">
<ele>637.74</ele>
<time>2020-09-11T10:30:25Z</time>
</trkpt>
<trkpt lat="47.926025" lon="10.662987">
<ele>637.74</ele>
<time>2020-09-11T10:30:26Z</time>
</trkpt>
<trkpt lat="47.92601" lon="10.663052">
<ele>637.74</ele>
<time>2020-09-11T10:30:27Z</time>
</trkpt>
<trkpt lat="47.92598" lon="10.663116">
<ele>637.74</ele>
<time>2020-09-11T10:30:28Z</time>
</trkpt>
<trkpt lat="47.925941" lon="10.66319">
<ele>637.74</ele>
<time>2020-09-11T10:30:29Z</time>
</trkpt>
<trkpt lat="47.925907" lon="10.66325">
<ele>637.74</ele>
<time>2020-09-11T10:30:30Z</time>
</trkpt>
<trkpt lat="47.92588" lon="10.66331">
<ele>637.74</ele>
<time>2020-09-11T10:30:31Z</time>
</trkpt>
<trkpt lat="47.925858" lon="10.663372">
<ele>637.74</ele>
<time>2020-09-11T10:30:32Z</time>
</trkpt>
<trkpt lat="47.925827" lon="10.663425">
<ele>637.74</ele>
<time>2020-09-11T10:30:33Z</time>
</trkpt>
<trkpt lat="47.925797" lon="10.66348">
<ele>637.74</ele>
<time>2020-09-11T10:30:34Z</time>
</trkpt>
<trkpt lat="47.925762" lon="10.66354">
<ele>637.74</ele>
<time>2020-09-11T10:30:35Z</time>
</trkpt>
<trkpt lat="47.92572" lon="10.663605">
<ele>637.74</ele>
<time>2020-09-11T10:30:36Z</time>
</trkpt>
<trkpt lat="47.925678" lon="10.663671">
<ele>637.74</ele>
<time>2020-09-11T10:30:37Z</time>
</trkpt>
<trkpt lat="47.92564" lon="10.663735">
<ele>637.74</ele>
<time>2020-09-11T10:30:38Z</time>
</trkpt>
<trkpt lat="47.925602" lon="10.663795">
<ele>637.74</ele>
<time>2020-09-11T10:30:39Z</time>
</trkpt>
<trkpt lat="47.925568" lon="10.663857">
<ele>637.74</ele>
<time>2020-09-11T10:30:40Z</time>
</trkpt>
<trkpt lat="47.925533" lon="10.663923">
<ele>637.74</ele>
<time>2020-09-11T10:30:41Z</time>
</trkpt>
<trkpt lat="47.925499" lon="10.663995">
<ele>637.74</ele>
<time>2020-09-11T10:30:42Z</time>
</trkpt>
<trkpt lat="47.925461" lon="10.664068">
<ele>637.74</ele>
<time>2020-09-11T10:30:43Z</time>
</trkpt>
<trkpt lat="47.925423" lon="10.664138">
<ele>637.74</ele>
<time>2020-09-11T10:30:44Z</time>
</trkpt>
<trkpt lat="47.925385" lon="10.664208">
<ele>637.74</ele>
<time>2020-09-11T10:30:45Z</time>
</trkpt>
<trkpt lat="47.92535" lon="10.664275">
<ele>637.74</ele>
<time>2020-09-11T10:30:46Z</time>
</trkpt>
<trkpt lat="47.925316" lon="10.664345">
<ele>637.74</ele>
<time>2020-09-11T10:30:47Z</time>
</trkpt>
<trkpt lat="47.925282" lon="10.664413">
<ele>637.74</ele>
<time>2020-09-11T10:30:48Z</time>
</trkpt>
<trkpt lat="47.925251" lon="10.66448">
<ele>637.74</ele>
<time>2020-09-11T10:30:49Z</time>
</trkpt>
<trkpt lat="47.925228" lon="10.664552">
<ele>637.74</ele>
<time>2020-09-11T10:30:50Z</time>
</trkpt>
<trkpt lat="47.925201" lon="10.664625">
<ele>637.74</ele>
<time>2020-09-11T10:30:51Z</time>
</trkpt>
<trkpt lat="47.925175" lon="10.664695">
<ele>637.74</ele>
<time>2020-09-11T10:30:52Z</time>
</trkpt>
<trkpt lat="47.925148" lon="10.664766">
<ele>637.74</ele>
<time>2020-09-11T10:30:53Z</time>
</trkpt>
<trkpt lat="47.925125" lon="10.664842">
<ele>637.74</ele>
<time>2020-09-11T10:30:54Z</time>
</trkpt>
<trkpt lat="47.925102" lon="10.664915">
<ele>637.74</ele>
<time>2020-09-11T10:30:55Z</time>
</trkpt>
<trkpt lat="47.925079" lon="10.664989">
<ele>637.74</ele>
<time>2020-09-11T10:30:56Z</time>
</trkpt>
<trkpt lat="47.925053" lon="10.665059">
<ele>637.74</ele>
<time>2020-09-11T10:30:57Z</time>
</trkpt>
<trkpt lat="47.925034" lon="10.66512">
<ele>637.74</ele>
<time>2020-09-11T10:30:58Z</time>
</trkpt>
<trkpt lat="47.925011" lon="10.665181">
<ele>637.74</ele>
<time>2020-09-11T10:30:59Z</time>
</trkpt>
<trkpt lat="47.924984" lon="10.665254">
<ele>637.74</ele>
<time>2020-09-11T10:31:00Z</time>
</trkpt>
<trkpt lat="47.924953" lon="10.665323">
<ele>637.952</ele>
<time>2020-09-11T10:31:01Z</time>
</trkpt>
<trkpt lat="47.924923" lon="10.665393">
<ele>638.157</ele>
<time>2020-09-11T10:31:02Z</time>
</trkpt>
<trkpt lat="47.924889" lon="10.665466">
<ele>638.329</ele>
<time>2020-09-11T10:31:03Z</time>
</trkpt>
<trkpt lat="47.924862" lon="10.66553">
<ele>638.467</ele>
<time>2020-09-11T10:31:04Z</time>
</trkpt>
<trkpt lat="47.924835" lon="10.665588">
<ele>638.573</ele>
<time>2020-09-11T10:31:05Z</time>
</trkpt>
<trkpt lat="47.924805" lon="10.66564">
<ele>638.648</ele>
<time>2020-09-11T10:31:06Z</time>
</trkpt>
<trkpt lat="47.924774" lon="10.665687">
<ele>638.691</ele>
<time>2020-09-11T10:31:07Z</time>
</trkpt>
<trkpt lat="47.924751" lon="10.665727">
<ele>638.712</ele>
<time>2020-09-11T10:31:08Z</time>
</trkpt>
<trkpt lat="47.924725" lon="10.665767">
<ele>638.712</ele>
<time>2020-09-11T10:31:09Z</time>
</trkpt>
<trkpt lat="47.924706" lon="10.665803">
<ele>638.712</ele>
<time>2020-09-11T10:31:10Z</time>
</trkpt>
<trkpt lat="47.924686" lon="10.665834">
<ele>638.712</ele>
<time>2020-09-11T10:31:11Z</time>
</trkpt>
<trkpt lat="47.924664" lon="10.665868">
<ele>638.712</ele>
<time>2020-09-11T10:31:12Z</time>
</trkpt>
<trkpt lat="47.924637" lon="10.665903">
<ele>638.712</ele>
<time>2020-09-11T10:31:13Z</time>
</trkpt>
<trkpt lat="47.924614" lon="10.665939">
<ele>638.712</ele>
<time>2020-09-11T10:31:14Z</time>
</trkpt>
<trkpt lat="47.924591" lon="10.665983">
<ele>638.712</ele>
<time>2020-09-11T10:31:15Z</time>
</trkpt>
<trkpt lat="47.924564" lon="10.666027">
<ele>638.712</ele>
<time>2020-09-11T10:31:16Z</time>
</trkpt>
<trkpt lat="47.924545" lon="10.666073">
<ele>638.712</ele>
<time>2020-09-11T10:31:17Z</time>
</trkpt>
<trkpt lat="47.924522" lon="10.666125">
<ele>638.712</ele>
<time>2020-09-11T10:31:18Z</time>
</trkpt>
<trkpt lat="47.9245" lon="10.666183">
<ele>638.712</ele>
<time>2020-09-11T10:31:19Z</time>
</trkpt>
<trkpt lat="47.924484" lon="10.666248">
<ele>638.712</ele>
<time>2020-09-11T10:31:20Z</time>
</trkpt>
<trkpt lat="47.924461" lon="10.666312">
<ele>638.712</ele>
<time>2020-09-11T10:31:21Z</time>
</trkpt>
<trkpt lat="47.924446" lon="10.666377">
<ele>638.712</ele>
<time>2020-09-11T10:31:22Z</time>
</trkpt>
<trkpt lat="47.924431" lon="10.666444">
<ele>638.712</ele>
<time>2020-09-11T10:31:23Z</time>
</trkpt>
<trkpt lat="47.924416" lon="10.66651">
<ele>638.712</ele>
<time>2020-09-11T10:31:24Z</time>
</trkpt>
<trkpt lat="47.9244" lon="10.666574">
<ele>638.712</ele>
<time>2020-09-11T10:31:25Z</time>
</trkpt>
<trkpt lat="47.924389" lon="10.666641">
<ele>638.712</ele>
<time>2020-09-11T10:31:26Z</time>
</trkpt>
<trkpt lat="47.924374" lon="10.666708">
<ele>638.712</ele>
<time>2020-09-11T10:31:27Z</time>
</trkpt>
<trkpt lat="47.924362" lon="10.666777">
<ele>638.712</ele>
<time>2020-09-11T10:31:28Z</time>
</trkpt>
<trkpt lat="47.924351" lon="10.666842">
<ele>638.712</ele>
<time>2020-09-11T10:31:29Z</time>
</trkpt>
<trkpt lat="47.924339" lon="10.666909">
<ele>638.712</ele>
<time>2020-09-11T10:31:30Z</time>
</trkpt>
<trkpt lat="47.924328" lon="10.666982">
<ele>638.712</ele>
<time>2020-09-11T10:31:31Z</time>
</trkpt>
<trkpt lat="47.924313" lon="10.667055">
<ele>638.712</ele>
<time>2020-09-11T10:31:32Z</time>
</trkpt>
<trkpt lat="47.924301" lon="10.667127">
<ele>638.712</ele>
<time>2020-09-11T10:31:33Z</time>
</trkpt>
<trkpt lat="47.924297" lon="10.6672">
<ele>638.712</ele>
<time>2020-09-11T10:31:34Z</time>
</trkpt>
<trkpt lat="47.924286" lon="10.667275">
<ele>638.712</ele>
<time>2020-09-11T10:31:35Z</time>
</trkpt>
<trkpt lat="47.924274" lon="10.66735">
<ele>638.712</ele>
<time>2020-09-11T10:31:36Z</time>
</trkpt>
<trkpt lat="47.924263" lon="10.667422">
<ele>638.712</ele>
<time>2020-09-11T10:31:37Z</time>
</trkpt>
<trkpt lat="47.924248" lon="10.667496">
<ele>638.712</ele>
<time>2020-09-11T10:31:38Z</time>
</trkpt>
<trkpt lat="47.92424" lon="10.667569">
<ele>638.712</ele>
<time>2020-09-11T10:31:39Z</time>
</trkpt>
<trkpt lat="47.924229" lon="10.667643">
<ele>638.712</ele>
<time>2020-09-11T10:31:40Z</time>
</trkpt>
<trkpt lat="47.924221" lon="10.667722">
<ele>638.712</ele>
<time>2020-09-11T10:31:41Z</time>
</trkpt>
<trkpt lat="47.924206" lon="10.667797">
<ele>638.712</ele>
<time>2020-09-11T10:31:42Z</time>
</trkpt>
<trkpt lat="47.924194" lon="10.667871">
<ele>638.712</ele>
<time>2020-09-11T10:31:43Z</time>
</trkpt>
<trkpt lat="47.924179" lon="10.667945">
<ele>638.712</ele>
<time>2020-09-11T10:31:44Z</time>
</trkpt>
<trkpt lat="47.92416" lon="10.668017">
<ele>638.712</ele>
<time>2020-09-11T10:31:45Z</time>
</trkpt>
<trkpt lat="47.924141" lon="10.668083">
<ele>638.712</ele>
<time>2020-09-11T10:31:46Z</time>
</trkpt>
<trkpt lat="47.924126" lon="10.668147">
<ele>638.712</ele>
<time>2020-09-11T10:31:47Z</time>
</trkpt>
<trkpt lat="47.924107" lon="10.668212">
<ele>638.712</ele>
<time>2020-09-11T10:31:48Z</time>
</trkpt>
<trkpt lat="47.924095" lon="10.668273">
<ele>638.712</ele>
<time>2020-09-11T10:31:49Z</time>
</trkpt>
<trkpt lat="47.924084" lon="10.668335">
<ele>638.712</ele>
<time>2020-09-11T10:31:50Z</time>
</trkpt>
<trkpt lat="47.924076" lon="10.668393">
<ele>638.712</ele>
<time>2020-09-11T10:31:51Z</time>
</trkpt>
<trkpt lat="47.924068" lon="10.668437">
<ele>638.712</ele>
<time>2020-09-11T10:31:52Z</time>
</trkpt>
<trkpt lat="47.924049" lon="10.668466">
<ele>638.712</ele>
<time>2020-09-11T10:31:53Z</time>
</trkpt>
<trkpt lat="47.924034" lon="10.668485">
<ele>638.712</ele>
<time>2020-09-11T10:31:54Z</time>
</trkpt>
<trkpt lat="47.924011" lon="10.668502">
<ele>638.712</ele>
<time>2020-09-11T10:31:55Z</time>
</trkpt>
<trkpt lat="47.923992" lon="10.66852">
<ele>638.712</ele>
<time>2020-09-11T10:31:56Z</time>
</trkpt>
<trkpt lat="47.923969" lon="10.668548">
<ele>638.712</ele>
<time>2020-09-11T10:31:57Z</time>
</trkpt>
<trkpt lat="47.923946" lon="10.668585">
<ele>638.712</ele>
<time>2020-09-11T10:31:58Z</time>
</trkpt>
<trkpt lat="47.923935" lon="10.668627">
<ele>638.712</ele>
<time>2020-09-11T10:31:59Z</time>
</trkpt>
<trkpt lat="47.923927" lon="10.668677">
<ele>638.712</ele>
<time>2020-09-11T10:32:00Z</time>
</trkpt>
<trkpt lat="47.92392" lon="10.66873">
<ele>638.712</ele>
<time>2020-09-11T10:32:01Z</time>
</trkpt>
<trkpt lat="47.923912" lon="10.668785">
<ele>638.712</ele>
<time>2020-09-11T10:32:02Z</time>
</trkpt>
<trkpt lat="47.923904" lon="10.668843">
<ele>638.712</ele>
<time>2020-09-11T10:32:03Z</time>
</trkpt>
<trkpt lat="47.923889" lon="10.6689">
<ele>638.712</ele>
<time>2020-09-11T10:32:04Z</time>
</trkpt>
<trkpt lat="47.923874" lon="10.668961">
<ele>638.712</ele>
<time>2020-09-11T10:32:05Z</time>
</trkpt>
<trkpt lat="47.923862" lon="10.66902">
<ele>638.712</ele>
<time>2020-09-11T10:32:06Z</time>
</trkpt>
<trkpt lat="47.923851" lon="10.669078">
<ele>638.712</ele>
<time>2020-09-11T10:32:07Z</time>
</trkpt>
<trkpt lat="47.92384" lon="10.669138">
<ele>638.712</ele>
<time>2020-09-11T10:32:08Z</time>
</trkpt>
<trkpt lat="47.92382" lon="10.669199">
<ele>638.712</ele>
<time>2020-09-11T10:32:09Z</time>
</trkpt>
<trkpt lat="47.923809" lon="10.669256">
<ele>638.712</ele>
<time>2020-09-11T10:32:10Z</time>
</trkpt>
<trkpt lat="47.923801" lon="10.669312">
<ele>638.712</ele>
<time>2020-09-11T10:32:11Z</time>
</trkpt>
<trkpt lat="47.923794" lon="10.669369">
<ele>638.712</ele>
<time>2020-09-11T10:32:12Z</time>
</trkpt>
<trkpt lat="47.923786" lon="10.66943">
<ele>638.712</ele>
<time>2020-09-11T10:32:13Z</time>
</trkpt>
<trkpt lat="47.923782" lon="10.669493">
<ele>638.712</ele>
<time>2020-09-11T10:32:14Z</time>
</trkpt>
<trkpt lat="47.923775" lon="10.669557">
<ele>638.712</ele>
<time>2020-09-11T10:32:15Z</time>
</trkpt>
<trkpt lat="47.923767" lon="10.669626">
<ele>638.712</ele>
<time>2020-09-11T10:32:16Z</time>
</trkpt>
<trkpt lat="47.923756" lon="10.669697">
<ele>638.712</ele>
<time>2020-09-11T10:32:17Z</time>
</trkpt>
<trkpt lat="47.923744" lon="10.669766">
<ele>638.712</ele>
<time>2020-09-11T10:32:18Z</time>
</trkpt>
<trkpt lat="47.923729" lon="10.66984">
<ele>638.712</ele>
<time>2020-09-11T10:32:19Z</time>
</trkpt>
<trkpt lat="47.923714" lon="10.669907">
<ele>638.712</ele>
<time>2020-09-11T10:32:20Z</time>
</trkpt>
<trkpt lat="47.923695" lon="10.669974">
<ele>638.712</ele>
<time>2020-09-11T10:32:21Z</time>
</trkpt>
<trkpt lat="47.923676" lon="10.670043">
<ele>638.712</ele>
<time>2020-09-11T10:32:22Z</time>
</trkpt>
<trkpt lat="47.923653" lon="10.670112">
<ele>638.712</ele>
<time>2020-09-11T10:32:23Z</time>
</trkpt>
<trkpt lat="47.923634" lon="10.670181">
<ele>638.712</ele>
<time>2020-09-11T10:32:24Z</time>
</trkpt>
<trkpt lat="47.923611" lon="10.67025">
<ele>638.712</ele>
<time>2020-09-11T10:32:25Z</time>
</trkpt>
<trkpt lat="47.923592" lon="10.670319">
<ele>638.712</ele>
<time>2020-09-11T10:32:26Z</time>
</trkpt>
<trkpt lat="47.923573" lon="10.670389">
<ele>638.712</ele>
<time>2020-09-11T10:32:27Z</time>
</trkpt>
<trkpt lat="47.923553" lon="10.670458">
<ele>638.712</ele>
<time>2020-09-11T10:32:28Z</time>
</trkpt>
<trkpt lat="47.923542" lon="10.670531">
<ele>638.712</ele>
<time>2020-09-11T10:32:29Z</time>
</trkpt>
<trkpt lat="47.923523" lon="10.670601">
<ele>638.712</ele>
<time>2020-09-11T10:32:30Z</time>
</trkpt>
<trkpt lat="47.923508" lon="10.670676">
<ele>638.712</ele>
<time>2020-09-11T10:32:31Z</time>
</trkpt>
<trkpt lat="47.9235" lon="10.670756">
<ele>638.712</ele>
<time>2020-09-11T10:32:32Z</time>
</trkpt>
<trkpt lat="47.923481" lon="10.670829">
<ele>638.981</ele>
<time>2020-09-11T10:32:33Z</time>
</trkpt>
<trkpt lat="47.923462" lon="10.670902">
<ele>639.186</ele>
<time>2020-09-11T10:32:34Z</time>
</trkpt>
<trkpt lat="47.923447" lon="10.670972">
<ele>639.34</ele>
<time>2020-09-11T10:32:35Z</time>
</trkpt>
<trkpt lat="47.923428" lon="10.671041">
<ele>639.452</ele>
<time>2020-09-11T10:32:36Z</time>
</trkpt>
<trkpt lat="47.923416" lon="10.671115">
<ele>639.528</ele>
<time>2020-09-11T10:32:37Z</time>
</trkpt>
<trkpt lat="47.923401" lon="10.671191">
<ele>639.575</ele>
<time>2020-09-11T10:32:38Z</time>
</trkpt>
<trkpt lat="47.923382" lon="10.671261">
<ele>639.597</ele>
<time>2020-09-11T10:32:39Z</time>
</trkpt>
<trkpt lat="47.923367" lon="10.671322">
<ele>639.596</ele>
<time>2020-09-11T10:32:40Z</time>
</trkpt>
<trkpt lat="47.923347" lon="10.671385">
<ele>639.596</ele>
<time>2020-09-11T10:32:41Z</time>
</trkpt>
<trkpt lat="47.923328" lon="10.67145">
<ele>639.597</ele>
<time>2020-09-11T10:32:42Z</time>
</trkpt>
<trkpt lat="47.923317" lon="10.671515">
<ele>639.597</ele>
<time>2020-09-11T10:32:43Z</time>
</trkpt>
<trkpt lat="47.923298" lon="10.671583">
<ele>639.597</ele>
<time>2020-09-11T10:32:44Z</time>
</trkpt>
<trkpt lat="47.923286" lon="10.671653">
<ele>639.597</ele>
<time>2020-09-11T10:32:45Z</time>
</trkpt>
<trkpt lat="47.923271" lon="10.671725">
<ele>639.597</ele>
<time>2020-09-11T10:32:46Z</time>
</trkpt>
<trkpt lat="47.923256" lon="10.6718">
<ele>639.597</ele>
<time>2020-09-11T10:32:47Z</time>
</trkpt>
<trkpt lat="47.923244" lon="10.671875">
<ele>639.597</ele>
<time>2020-09-11T10:32:48Z</time>
</trkpt>
<trkpt lat="47.923229" lon="10.671947">
<ele>639.596</ele>
<time>2020-09-11T10:32:49Z</time>
</trkpt>
<trkpt lat="47.923218" lon="10.672017">
<ele>639.597</ele>
<time>2020-09-11T10:32:50Z</time>
</trkpt>
<trkpt lat="47.923199" lon="10.67208">
<ele>639.597</ele>
<time>2020-09-11T10:32:51Z</time>
</trkpt>
<trkpt lat="47.923176" lon="10.67213">
<ele>639.596</ele>
<time>2020-09-11T10:32:52Z</time>
</trkpt>
<trkpt lat="47.923145" lon="10.672147">
<ele>639.899</ele>
<time>2020-09-11T10:32:53Z</time>
</trkpt>
<trkpt lat="47.923107" lon="10.672141">
<ele>640.133</ele>
<time>2020-09-11T10:32:54Z</time>
</trkpt>
<trkpt lat="47.923073" lon="10.672127">
<ele>640.316</ele>
<time>2020-09-11T10:32:55Z</time>
</trkpt>
<trkpt lat="47.923031" lon="10.67212">
<ele>640.457</ele>
<time>2020-09-11T10:32:56Z</time>
</trkpt>
<trkpt lat="47.922989" lon="10.672115">
<ele>640.56</ele>
<time>2020-09-11T10:32:57Z</time>
</trkpt>
<trkpt lat="47.922939" lon="10.672127">
<ele>640.62</ele>
<time>2020-09-11T10:32:58Z</time>
</trkpt>
<trkpt lat="47.922894" lon="10.672134">
<ele>640.652</ele>
<time>2020-09-11T10:32:59Z</time>
</trkpt>
<trkpt lat="47.922859" lon="10.672143">
<ele>640.657</ele>
<time>2020-09-11T10:33:00Z</time>
</trkpt>
<trkpt lat="47.922817" lon="10.672157">
<ele>640.657</ele>
<time>2020-09-11T10:33:01Z</time>
</trkpt>
<trkpt lat="47.922771" lon="10.672174">
<ele>640.657</ele>
<time>2020-09-11T10:33:02Z</time>
</trkpt>
<trkpt lat="47.922733" lon="10.672195">
<ele>640.657</ele>
<time>2020-09-11T10:33:03Z</time>
</trkpt>
<trkpt lat="47.922688" lon="10.67221">
<ele>640.657</ele>
<time>2020-09-11T10:33:04Z</time>
</trkpt>
<trkpt lat="47.922646" lon="10.672225">
<ele>640.657</ele>
<time>2020-09-11T10:33:05Z</time>
</trkpt>
<trkpt lat="47.922604" lon="10.672243">
<ele>640.657</ele>
<time>2020-09-11T10:33:06Z</time>
</trkpt>
<trkpt lat="47.922569" lon="10.672264">
<ele>640.657</ele>
<time>2020-09-11T10:33:07Z</time>
</trkpt>
<trkpt lat="47.922531" lon="10.672285">
<ele>640.906</ele>
<time>2020-09-11T10:33:08Z</time>
</trkpt>
<trkpt lat="47.922497" lon="10.67231">
<ele>641.096</ele>
<time>2020-09-11T10:33:09Z</time>
</trkpt>
<trkpt lat="47.922462" lon="10.672332">
<ele>641.243</ele>
<time>2020-09-11T10:33:10Z</time>
</trkpt>
<trkpt lat="47.922424" lon="10.672352">
<ele>641.349</ele>
<time>2020-09-11T10:33:11Z</time>
</trkpt>
<trkpt lat="47.922382" lon="10.672369">
<ele>641.465</ele>
<time>2020-09-11T10:33:12Z</time>
</trkpt>
<trkpt lat="47.92234" lon="10.672385">
<ele>641.545</ele>
<time>2020-09-11T10:33:13Z</time>
</trkpt>
<trkpt lat="47.922306" lon="10.6724">
<ele>641.839</ele>
<time>2020-09-11T10:33:14Z</time>
</trkpt>
<trkpt lat="47.922264" lon="10.672411">
<ele>642.068</ele>
<time>2020-09-11T10:33:15Z</time>
</trkpt>
<trkpt lat="47.922226" lon="10.672421">
<ele>642.301</ele>
<time>2020-09-11T10:33:16Z</time>
</trkpt>
<trkpt lat="47.922184" lon="10.672435">
<ele>642.418</ele>
<time>2020-09-11T10:33:17Z</time>
</trkpt>
<trkpt lat="47.92215" lon="10.672443">
<ele>642.489</ele>
<time>2020-09-11T10:33:18Z</time>
</trkpt>
<trkpt lat="47.922112" lon="10.672451">
<ele>642.764</ele>
<time>2020-09-11T10:33:19Z</time>
</trkpt>
<trkpt lat="47.922073" lon="10.672459">
<ele>642.964</ele>
<time>2020-09-11T10:33:20Z</time>
</trkpt>
<trkpt lat="47.922035" lon="10.67246">
<ele>643.114</ele>
<time>2020-09-11T10:33:21Z</time>
</trkpt>
<trkpt lat="47.921993" lon="10.672457">
<ele>643.243</ele>
<time>2020-09-11T10:33:22Z</time>
</trkpt>
<trkpt lat="47.921955" lon="10.672457">
<ele>643.344</ele>
<time>2020-09-11T10:33:23Z</time>
</trkpt>
<trkpt lat="47.921917" lon="10.672453">
<ele>643.412</ele>
<time>2020-09-11T10:33:24Z</time>
</trkpt>
<trkpt lat="47.921879" lon="10.672444">
<ele>643.7</ele>
<time>2020-09-11T10:33:25Z</time>
</trkpt>
<trkpt lat="47.921841" lon="10.672439">
<ele>643.924</ele>
<time>2020-09-11T10:33:26Z</time>
</trkpt>
<trkpt lat="47.921803" lon="10.672428">
<ele>644.135</ele>
<time>2020-09-11T10:33:27Z</time>
</trkpt>
<trkpt lat="47.921764" lon="10.672413">
<ele>644.23</ele>
<time>2020-09-11T10:33:28Z</time>
</trkpt>
<trkpt lat="47.921726" lon="10.672399">
<ele>644.564</ele>
<time>2020-09-11T10:33:29Z</time>
</trkpt>
<trkpt lat="47.921692" lon="10.672379">
<ele>644.814</ele>
<time>2020-09-11T10:33:30Z</time>
</trkpt>
<trkpt lat="47.921658" lon="10.672359">
<ele>644.999</ele>
<time>2020-09-11T10:33:31Z</time>
</trkpt>
<trkpt lat="47.921627" lon="10.672332">
<ele>645.166</ele>
<time>2020-09-11T10:33:32Z</time>
</trkpt>
<trkpt lat="47.9216" lon="10.672306">
<ele>645.277</ele>
<time>2020-09-11T10:33:33Z</time>
</trkpt>
<trkpt lat="47.92157" lon="10.672287">
<ele>645.356</ele>
<time>2020-09-11T10:33:34Z</time>
</trkpt>
<trkpt lat="47.921551" lon="10.672272">
<ele>645.406</ele>
<time>2020-09-11T10:33:35Z</time>
</trkpt>
<trkpt lat="47.921524" lon="10.672258">
<ele>645.432</ele>
<time>2020-09-11T10:33:36Z</time>
</trkpt>
<trkpt lat="47.921505" lon="10.672236">
<ele>645.432</ele>
<time>2020-09-11T10:33:37Z</time>
</trkpt>
<trkpt lat="47.92149" lon="10.672225">
<ele>645.432</ele>
<time>2020-09-11T10:33:38Z</time>
</trkpt>
<trkpt lat="47.921474" lon="10.672218">
<ele>645.432</ele>
<time>2020-09-11T10:33:39Z</time>
</trkpt>
<trkpt lat="47.921463" lon="10.672216">
<ele>645.432</ele>
<time>2020-09-11T10:33:40Z</time>
</trkpt>
<trkpt lat="47.921459" lon="10.672214">
<ele>645.432</ele>
<time>2020-09-11T10:33:42Z</time>
</trkpt>
<trkpt lat="47.921444" lon="10.672201">
<ele>645.432</ele>
<time>2020-09-11T10:33:44Z</time>
</trkpt>
<trkpt lat="47.921429" lon="10.672194">
<ele>645.432</ele>
<time>2020-09-11T10:33:45Z</time>
</trkpt>
<trkpt lat="47.921413" lon="10.672192">
<ele>645.432</ele>
<time>2020-09-11T10:33:46Z</time>
</trkpt>
<trkpt lat="47.921391" lon="10.672199">
<ele>645.432</ele>
<time>2020-09-11T10:33:47Z</time>
</trkpt>
<trkpt lat="47.921364" lon="10.672218">
<ele>645.432</ele>
<time>2020-09-11T10:33:48Z</time>
</trkpt>
<trkpt lat="47.921352" lon="10.672245">
<ele>645.432</ele>
<time>2020-09-11T10:33:49Z</time>
</trkpt>
<trkpt lat="47.921333" lon="10.672275">
<ele>645.432</ele>
<time>2020-09-11T10:33:50Z</time>
</trkpt>
<trkpt lat="47.921318" lon="10.672298">
<ele>645.716</ele>
<time>2020-09-11T10:33:51Z</time>
</trkpt>
<trkpt lat="47.921295" lon="10.672321">
<ele>645.866</ele>
<time>2020-09-11T10:33:52Z</time>
</trkpt>
<trkpt lat="47.92128" lon="10.672343">
<ele>646.03</ele>
<time>2020-09-11T10:33:53Z</time>
</trkpt>
<trkpt lat="47.921265" lon="10.672363">
<ele>646.37</ele>
<time>2020-09-11T10:33:54Z</time>
</trkpt>
<trkpt lat="47.921246" lon="10.672385">
<ele>646.639</ele>
<time>2020-09-11T10:33:55Z</time>
</trkpt>
<trkpt lat="47.921223" lon="10.672411">
<ele>646.867</ele>
<time>2020-09-11T10:33:56Z</time>
</trkpt>
<trkpt lat="47.921204" lon="10.672441">
<ele>647.011</ele>
<time>2020-09-11T10:33:57Z</time>
</trkpt>
<trkpt lat="47.921185" lon="10.672467">
<ele>647.409</ele>
<time>2020-09-11T10:33:58Z</time>
</trkpt>
<trkpt lat="47.921158" lon="10.672502">
<ele>647.777</ele>
<time>2020-09-11T10:33:59Z</time>
</trkpt>
<trkpt lat="47.921135" lon="10.67253">
<ele>647.972</ele>
<time>2020-09-11T10:34:00Z</time>
</trkpt>
<trkpt lat="47.921116" lon="10.672562">
<ele>648.113</ele>
<time>2020-09-11T10:34:01Z</time>
</trkpt>
<trkpt lat="47.921097" lon="10.672595">
<ele>648.193</ele>
<time>2020-09-11T10:34:02Z</time>
</trkpt>
<trkpt lat="47.921078" lon="10.672631">
<ele>648.625</ele>
<time>2020-09-11T10:34:03Z</time>
</trkpt>
<trkpt lat="47.921066" lon="10.672673">
<ele>648.965</ele>
<time>2020-09-11T10:34:04Z</time>
</trkpt>
<trkpt lat="47.921047" lon="10.672715">
<ele>649.182</ele>
<time>2020-09-11T10:34:05Z</time>
</trkpt>
<trkpt lat="47.921036" lon="10.672758">
<ele>649.6</ele>
<time>2020-09-11T10:34:06Z</time>
</trkpt>
<trkpt lat="47.921021" lon="10.672803">
<ele>649.932</ele>
<time>2020-09-11T10:34:07Z</time>
</trkpt>
<trkpt lat="47.921005" lon="10.672847">
<ele>650.217</ele>
<time>2020-09-11T10:34:08Z</time>
</trkpt>
<trkpt lat="47.920998" lon="10.672889">
<ele>650.405</ele>
<time>2020-09-11T10:34:09Z</time>
</trkpt>
<trkpt lat="47.920982" lon="10.672929">
<ele>650.527</ele>
<time>2020-09-11T10:34:10Z</time>
</trkpt>
<trkpt lat="47.920971" lon="10.672966">
<ele>650.59</ele>
<time>2020-09-11T10:34:11Z</time>
</trkpt>
<trkpt lat="47.920956" lon="10.673006">
<ele>650.626</ele>
<time>2020-09-11T10:34:12Z</time>
</trkpt>
<trkpt lat="47.920948" lon="10.673046">
<ele>650.882</ele>
<time>2020-09-11T10:34:13Z</time>
</trkpt>
<trkpt lat="47.920937" lon="10.67309">
<ele>651.078</ele>
<time>2020-09-11T10:34:14Z</time>
</trkpt>
<trkpt lat="47.920933" lon="10.673134">
<ele>651.241</ele>
<time>2020-09-11T10:34:15Z</time>
</trkpt>
<trkpt lat="47.920921" lon="10.673175">
<ele>651.376</ele>
<time>2020-09-11T10:34:16Z</time>
</trkpt>
<trkpt lat="47.920914" lon="10.673218">
<ele>651.46</ele>
<time>2020-09-11T10:34:17Z</time>
</trkpt>
<trkpt lat="47.920906" lon="10.673265">
<ele>651.806</ele>
<time>2020-09-11T10:34:18Z</time>
</trkpt>
<trkpt lat="47.920902" lon="10.673308">
<ele>652.08</ele>
<time>2020-09-11T10:34:19Z</time>
</trkpt>
<trkpt lat="47.920895" lon="10.673349">
<ele>652.283</ele>
<time>2020-09-11T10:34:20Z</time>
</trkpt>
<trkpt lat="47.920891" lon="10.673389">
<ele>652.395</ele>
<time>2020-09-11T10:34:21Z</time>
</trkpt>
<trkpt lat="47.920883" lon="10.673429">
<ele>652.722</ele>
<time>2020-09-11T10:34:22Z</time>
</trkpt>
<trkpt lat="47.920879" lon="10.673467">
<ele>653.014</ele>
<time>2020-09-11T10:34:23Z</time>
</trkpt>
<trkpt lat="47.920876" lon="10.673505">
<ele>653.217</ele>
<time>2020-09-11T10:34:24Z</time>
</trkpt>
<trkpt lat="47.920872" lon="10.673545">
<ele>653.593</ele>
<time>2020-09-11T10:34:25Z</time>
</trkpt>
<trkpt lat="47.920872" lon="10.673585">
<ele>653.881</ele>
<time>2020-09-11T10:34:26Z</time>
</trkpt>
<trkpt lat="47.920872" lon="10.67363">
<ele>654.083</ele>
<time>2020-09-11T10:34:27Z</time>
</trkpt>
<trkpt lat="47.920872" lon="10.67367">
<ele>654.535</ele>
<time>2020-09-11T10:34:28Z</time>
</trkpt>
<trkpt lat="47.920872" lon="10.67371">
<ele>654.886</ele>
<time>2020-09-11T10:34:29Z</time>
</trkpt>
<trkpt lat="47.920872" lon="10.673752">
<ele>655.165</ele>
<time>2020-09-11T10:34:30Z</time>
</trkpt>
<trkpt lat="47.920868" lon="10.673794">
<ele>655.328</ele>
<time>2020-09-11T10:34:31Z</time>
</trkpt>
<trkpt lat="47.920868" lon="10.673835">
<ele>655.436</ele>
<time>2020-09-11T10:34:32Z</time>
</trkpt>
<trkpt lat="47.920872" lon="10.67388">
<ele>655.522</ele>
<time>2020-09-11T10:34:33Z</time>
</trkpt>
<trkpt lat="47.920872" lon="10.673925">
<ele>655.821</ele>
<time>2020-09-11T10:34:34Z</time>
</trkpt>
<trkpt lat="47.920872" lon="10.673968">
<ele>656.047</ele>
<time>2020-09-11T10:34:35Z</time>
</trkpt>
<trkpt lat="47.920868" lon="10.674011">
<ele>656.304</ele>
<time>2020-09-11T10:34:36Z</time>
</trkpt>
<trkpt lat="47.920864" lon="10.674053">
<ele>656.425</ele>
<time>2020-09-11T10:34:37Z</time>
</trkpt>
<trkpt lat="47.920864" lon="10.674097">
<ele>656.496</ele>
<time>2020-09-11T10:34:38Z</time>
</trkpt>
<trkpt lat="47.920868" lon="10.674138">
<ele>656.816</ele>
<time>2020-09-11T10:34:39Z</time>
</trkpt>
<trkpt lat="47.920864" lon="10.67418">
<ele>657.055</ele>
<time>2020-09-11T10:34:40Z</time>
</trkpt>
<trkpt lat="47.920864" lon="10.67422">
<ele>657.229</ele>
<time>2020-09-11T10:34:41Z</time>
</trkpt>
<trkpt lat="47.920864" lon="10.674258">
<ele>657.344</ele>
<time>2020-09-11T10:34:42Z</time>
</trkpt>
<trkpt lat="47.920856" lon="10.674298">
<ele>657.464</ele>
<time>2020-09-11T10:34:43Z</time>
</trkpt>
<trkpt lat="47.92086" lon="10.67434">
<ele>657.811</ele>
<time>2020-09-11T10:34:44Z</time>
</trkpt>
<trkpt lat="47.92086" lon="10.67438">
<ele>658.087</ele>
<time>2020-09-11T10:34:45Z</time>
</trkpt>
<trkpt lat="47.92086" lon="10.67442">
<ele>658.293</ele>
<time>2020-09-11T10:34:46Z</time>
</trkpt>
<trkpt lat="47.920856" lon="10.674461">
<ele>658.495</ele>
<time>2020-09-11T10:34:47Z</time>
</trkpt>
<trkpt lat="47.920853" lon="10.674503">
<ele>658.859</ele>
<time>2020-09-11T10:34:48Z</time>
</trkpt>
<trkpt lat="47.920849" lon="10.674541">
<ele>659.126</ele>
<time>2020-09-11T10:34:49Z</time>
</trkpt>
<trkpt lat="47.920845" lon="10.674582">
<ele>659.309</ele>
<time>2020-09-11T10:34:50Z</time>
</trkpt>
<trkpt lat="47.920845" lon="10.67462">
<ele>659.41</ele>
<time>2020-09-11T10:34:51Z</time>
</trkpt>
<trkpt lat="47.920841" lon="10.67466">
<ele>659.733</ele>
<time>2020-09-11T10:34:52Z</time>
</trkpt>
<trkpt lat="47.920837" lon="10.674702">
<ele>660.023</ele>
<time>2020-09-11T10:34:53Z</time>
</trkpt>
<trkpt lat="47.920834" lon="10.674743">
<ele>660.244</ele>
<time>2020-09-11T10:34:54Z</time>
</trkpt>
<trkpt lat="47.920826" lon="10.674783">
<ele>660.382</ele>
<time>2020-09-11T10:34:55Z</time>
</trkpt>
<trkpt lat="47.920818" lon="10.674822">
<ele>660.735</ele>
<time>2020-09-11T10:34:56Z</time>
</trkpt>
<trkpt lat="47.920811" lon="10.67486">
<ele>661.019</ele>
<time>2020-09-11T10:34:57Z</time>
</trkpt>
<trkpt lat="47.920807" lon="10.6749">
<ele>661.232</ele>
<time>2020-09-11T10:34:58Z</time>
</trkpt>
<trkpt lat="47.920799" lon="10.67494">
<ele>661.388</ele>
<time>2020-09-11T10:34:59Z</time>
</trkpt>
<trkpt lat="47.920792" lon="10.67498">
<ele>661.5</ele>
<time>2020-09-11T10:35:00Z</time>
</trkpt>
<trkpt lat="47.920788" lon="10.675021">
<ele>661.547</ele>
<time>2020-09-11T10:35:01Z</time>
</trkpt>
<trkpt lat="47.92078" lon="10.675058">
<ele>661.82</ele>
<time>2020-09-11T10:35:02Z</time>
</trkpt>
<trkpt lat="47.920776" lon="10.6751">
<ele>662.053</ele>
<time>2020-09-11T10:35:03Z</time>
</trkpt>
<trkpt lat="47.920769" lon="10.675141">
<ele>662.223</ele>
<time>2020-09-11T10:35:04Z</time>
</trkpt>
<trkpt lat="47.920757" lon="10.675187">
<ele>662.358</ele>
<time>2020-09-11T10:35:05Z</time>
</trkpt>
<trkpt lat="47.92075" lon="10.675235">
<ele>662.46</ele>
<time>2020-09-11T10:35:06Z</time>
</trkpt>
<trkpt lat="47.920738" lon="10.675279">
<ele>662.524</ele>
<time>2020-09-11T10:35:07Z</time>
</trkpt>
<trkpt lat="47.920727" lon="10.675319">
<ele>662.822</ele>
<time>2020-09-11T10:35:08Z</time>
</trkpt>
<trkpt lat="47.920715" lon="10.675362">
<ele>663.051</ele>
<time>2020-09-11T10:35:09Z</time>
</trkpt>
<trkpt lat="47.920708" lon="10.675402">
<ele>663.229</ele>
<time>2020-09-11T10:35:10Z</time>
</trkpt>
<trkpt lat="47.920692" lon="10.675447">
<ele>663.339</ele>
<time>2020-09-11T10:35:11Z</time>
</trkpt>
<trkpt lat="47.920677" lon="10.675493">
<ele>663.418</ele>
<time>2020-09-11T10:35:12Z</time>
</trkpt>
<trkpt lat="47.920666" lon="10.675541">
<ele>663.495</ele>
<time>2020-09-11T10:35:13Z</time>
</trkpt>
<trkpt lat="47.920647" lon="10.675598">
<ele>663.775</ele>
<time>2020-09-11T10:35:14Z</time>
</trkpt>
<trkpt lat="47.920628" lon="10.675654">
<ele>663.996</ele>
<time>2020-09-11T10:35:15Z</time>
</trkpt>
<trkpt lat="47.920605" lon="10.675711">
<ele>664.229</ele>
<time>2020-09-11T10:35:16Z</time>
</trkpt>
<trkpt lat="47.920582" lon="10.67577">
<ele>664.335</ele>
<time>2020-09-11T10:35:17Z</time>
</trkpt>
<trkpt lat="47.92057" lon="10.675828">
<ele>664.407</ele>
<time>2020-09-11T10:35:18Z</time>
</trkpt>
<trkpt lat="47.920547" lon="10.67588">
<ele>664.446</ele>
<time>2020-09-11T10:35:19Z</time>
</trkpt>
<trkpt lat="47.920525" lon="10.675933">
<ele>664.46</ele>
<time>2020-09-11T10:35:20Z</time>
</trkpt>
<trkpt lat="47.920506" lon="10.675993">
<ele>664.465</ele>
<time>2020-09-11T10:35:21Z</time>
</trkpt>
<trkpt lat="47.920483" lon="10.676055">
<ele>664.682</ele>
<time>2020-09-11T10:35:22Z</time>
</trkpt>
<trkpt lat="47.92046" lon="10.676117">
<ele>664.889</ele>
<time>2020-09-11T10:35:23Z</time>
</trkpt>
<trkpt lat="47.920437" lon="10.676175">
<ele>665.058</ele>
<time>2020-09-11T10:35:24Z</time>
</trkpt>
<trkpt lat="47.920414" lon="10.676227">
<ele>665.194</ele>
<time>2020-09-11T10:35:25Z</time>
</trkpt>
<trkpt lat="47.920387" lon="10.676271">
<ele>665.299</ele>
<time>2020-09-11T10:35:26Z</time>
</trkpt>
<trkpt lat="47.920368" lon="10.676314">
<ele>665.372</ele>
<time>2020-09-11T10:35:27Z</time>
</trkpt>
<trkpt lat="47.920353" lon="10.676362">
<ele>665.417</ele>
<time>2020-09-11T10:35:28Z</time>
</trkpt>
<trkpt lat="47.920345" lon="10.676402">
<ele>665.439</ele>
<time>2020-09-11T10:35:29Z</time>
</trkpt>
<trkpt lat="47.920338" lon="10.676438">
<ele>665.439</ele>
<time>2020-09-11T10:35:30Z</time>
</trkpt>
<trkpt lat="47.920338" lon="10.676476">
<ele>665.439</ele>
<time>2020-09-11T10:35:31Z</time>
</trkpt>
<trkpt lat="47.920334" lon="10.676514">
<ele>665.439</ele>
<time>2020-09-11T10:35:32Z</time>
</trkpt>
<trkpt lat="47.92033" lon="10.67655">
<ele>665.44</ele>
<time>2020-09-11T10:35:33Z</time>
</trkpt>
<trkpt lat="47.920322" lon="10.676588">
<ele>665.439</ele>
<time>2020-09-11T10:35:34Z</time>
</trkpt>
<trkpt lat="47.920319" lon="10.676624">
<ele>665.44</ele>
<time>2020-09-11T10:35:35Z</time>
</trkpt>
<trkpt lat="47.920315" lon="10.676665">
<ele>665.439</ele>
<time>2020-09-11T10:35:36Z</time>
</trkpt>
<trkpt lat="47.920307" lon="10.676706">
<ele>665.44</ele>
<time>2020-09-11T10:35:37Z</time>
</trkpt>
<trkpt lat="47.920296" lon="10.676746">
<ele>665.439</ele>
<time>2020-09-11T10:35:38Z</time>
</trkpt>
<trkpt lat="47.920288" lon="10.676787">
<ele>665.439</ele>
<time>2020-09-11T10:35:39Z</time>
</trkpt>
<trkpt lat="47.92028" lon="10.676829">
<ele>665.439</ele>
<time>2020-09-11T10:35:40Z</time>
</trkpt>
<trkpt lat="47.920273" lon="10.676873">
<ele>665.439</ele>
<time>2020-09-11T10:35:41Z</time>
</trkpt>
<trkpt lat="47.920261" lon="10.676917">
<ele>665.439</ele>
<time>2020-09-11T10:35:42Z</time>
</trkpt>
<trkpt lat="47.920254" lon="10.67696">
<ele>665.439</ele>
<time>2020-09-11T10:35:43Z</time>
</trkpt>
<trkpt lat="47.92025" lon="10.677005">
<ele>665.439</ele>
<time>2020-09-11T10:35:44Z</time>
</trkpt>
<trkpt lat="47.920242" lon="10.677052">
<ele>665.44</ele>
<time>2020-09-11T10:35:45Z</time>
</trkpt>
<trkpt lat="47.920238" lon="10.677097">
<ele>665.44</ele>
<time>2020-09-11T10:35:46Z</time>
</trkpt>
<trkpt lat="47.920231" lon="10.677143">
<ele>665.439</ele>
<time>2020-09-11T10:35:47Z</time>
</trkpt>
<trkpt lat="47.920223" lon="10.677188">
<ele>665.439</ele>
<time>2020-09-11T10:35:48Z</time>
</trkpt>
<trkpt lat="47.920219" lon="10.677232">
<ele>665.439</ele>
<time>2020-09-11T10:35:49Z</time>
</trkpt>
<trkpt lat="47.920216" lon="10.677274">
<ele>665.439</ele>
<time>2020-09-11T10:35:50Z</time>
</trkpt>
<trkpt lat="47.920212" lon="10.677316">
<ele>665.44</ele>
<time>2020-09-11T10:35:51Z</time>
</trkpt>
<trkpt lat="47.920216" lon="10.67736">
<ele>665.439</ele>
<time>2020-09-11T10:35:52Z</time>
</trkpt>
<trkpt lat="47.920219" lon="10.677406">
<ele>665.439</ele>
<time>2020-09-11T10:35:53Z</time>
</trkpt>
<trkpt lat="47.920219" lon="10.677458">
<ele>665.439</ele>
<time>2020-09-11T10:35:54Z</time>
</trkpt>
<trkpt lat="47.920219" lon="10.677512">
<ele>665.439</ele>
<time>2020-09-11T10:35:55Z</time>
</trkpt>
<trkpt lat="47.920223" lon="10.677565">
<ele>665.439</ele>
<time>2020-09-11T10:35:56Z</time>
</trkpt>
<trkpt lat="47.920227" lon="10.677619">
<ele>665.744</ele>
<time>2020-09-11T10:35:57Z</time>
</trkpt>
<trkpt lat="47.920227" lon="10.677671">
<ele>665.977</ele>
<time>2020-09-11T10:35:58Z</time>
</trkpt>
<trkpt lat="47.920227" lon="10.677725">
<ele>666.148</ele>
<time>2020-09-11T10:35:59Z</time>
</trkpt>
<trkpt lat="47.920231" lon="10.67778">
<ele>666.263</ele>
<time>2020-09-11T10:36:00Z</time>
</trkpt>
<trkpt lat="47.920231" lon="10.677837">
<ele>666.354</ele>
<time>2020-09-11T10:36:01Z</time>
</trkpt>
<trkpt lat="47.920235" lon="10.677894">
<ele>666.416</ele>
<time>2020-09-11T10:36:02Z</time>
</trkpt>
<trkpt lat="47.920235" lon="10.67795">
<ele>666.474</ele>
<time>2020-09-11T10:36:03Z</time>
</trkpt>
<trkpt lat="47.920238" lon="10.678009">
<ele>666.503</ele>
<time>2020-09-11T10:36:04Z</time>
</trkpt>
<trkpt lat="47.920242" lon="10.678068">
<ele>666.503</ele>
<time>2020-09-11T10:36:05Z</time>
</trkpt>
<trkpt lat="47.920246" lon="10.678128">
<ele>666.503</ele>
<time>2020-09-11T10:36:06Z</time>
</trkpt>
<trkpt lat="47.92025" lon="10.678188">
<ele>666.503</ele>
<time>2020-09-11T10:36:07Z</time>
</trkpt>
<trkpt lat="47.92025" lon="10.67825">
<ele>666.503</ele>
<time>2020-09-11T10:36:08Z</time>
</trkpt>
<trkpt lat="47.920254" lon="10.67831">
<ele>666.503</ele>
<time>2020-09-11T10:36:09Z</time>
</trkpt>
<trkpt lat="47.920254" lon="10.678369">
<ele>666.503</ele>
<time>2020-09-11T10:36:10Z</time>
</trkpt>
<trkpt lat="47.920254" lon="10.678429">
<ele>666.503</ele>
<time>2020-09-11T10:36:11Z</time>
</trkpt>
<trkpt lat="47.920254" lon="10.678487">
<ele>666.503</ele>
<time>2020-09-11T10:36:12Z</time>
</trkpt>
<trkpt lat="47.920261" lon="10.678548">
<ele>666.503</ele>
<time>2020-09-11T10:36:13Z</time>
</trkpt>
<trkpt lat="47.920261" lon="10.67861">
<ele>666.793</ele>
<time>2020-09-11T10:36:14Z</time>
</trkpt>
<trkpt lat="47.920265" lon="10.678672">
<ele>667.021</ele>
<time>2020-09-11T10:36:15Z</time>
</trkpt>
<trkpt lat="47.920269" lon="10.678735">
<ele>667.187</ele>
<time>2020-09-11T10:36:16Z</time>
</trkpt>
<trkpt lat="47.920273" lon="10.678795">
<ele>667.317</ele>
<time>2020-09-11T10:36:17Z</time>
</trkpt>
<trkpt lat="47.920277" lon="10.678855">
<ele>667.397</ele>
<time>2020-09-11T10:36:18Z</time>
</trkpt>
<trkpt lat="47.920277" lon="10.678916">
<ele>667.448</ele>
<time>2020-09-11T10:36:19Z</time>
</trkpt>
<trkpt lat="47.92028" lon="10.678979">
<ele>667.478</ele>
<time>2020-09-11T10:36:20Z</time>
</trkpt>
<trkpt lat="47.920284" lon="10.67904">
<ele>667.478</ele>
<time>2020-09-11T10:36:21Z</time>
</trkpt>
<trkpt lat="47.920288" lon="10.679103">
<ele>667.478</ele>
<time>2020-09-11T10:36:22Z</time>
</trkpt>
<trkpt lat="47.920288" lon="10.679163">
<ele>667.478</ele>
<time>2020-09-11T10:36:23Z</time>
</trkpt>
<trkpt lat="47.920288" lon="10.679222">
<ele>667.478</ele>
<time>2020-09-11T10:36:24Z</time>
</trkpt>
<trkpt lat="47.920288" lon="10.679276">
<ele>667.478</ele>
<time>2020-09-11T10:36:25Z</time>
</trkpt>
<trkpt lat="47.920292" lon="10.679329">
<ele>667.478</ele>
<time>2020-09-11T10:36:26Z</time>
</trkpt>
<trkpt lat="47.9203" lon="10.679377">
<ele>667.478</ele>
<time>2020-09-11T10:36:27Z</time>
</trkpt>
<trkpt lat="47.920303" lon="10.679423">
<ele>667.478</ele>
<time>2020-09-11T10:36:28Z</time>
</trkpt>
<trkpt lat="47.920307" lon="10.67947">
<ele>667.478</ele>
<time>2020-09-11T10:36:29Z</time>
</trkpt>
<trkpt lat="47.920307" lon="10.679515">
<ele>667.478</ele>
<time>2020-09-11T10:36:30Z</time>
</trkpt>
<trkpt lat="47.920315" lon="10.679559">
<ele>667.478</ele>
<time>2020-09-11T10:36:31Z</time>
</trkpt>
<trkpt lat="47.920319" lon="10.679607">
<ele>667.478</ele>
<time>2020-09-11T10:36:32Z</time>
</trkpt>
<trkpt lat="47.920326" lon="10.679651">
<ele>667.478</ele>
<time>2020-09-11T10:36:33Z</time>
</trkpt>
<trkpt lat="47.920338" lon="10.679698">
<ele>667.478</ele>
<time>2020-09-11T10:36:34Z</time>
</trkpt>
<trkpt lat="47.920345" lon="10.67975">
<ele>667.478</ele>
<time>2020-09-11T10:36:35Z</time>
</trkpt>
<trkpt lat="47.920349" lon="10.679805">
<ele>667.478</ele>
<time>2020-09-11T10:36:36Z</time>
</trkpt>
<trkpt lat="47.920353" lon="10.679863">
<ele>667.478</ele>
<time>2020-09-11T10:36:37Z</time>
</trkpt>
<trkpt lat="47.920353" lon="10.679925">
<ele>667.478</ele>
<time>2020-09-11T10:36:38Z</time>
</trkpt>
<trkpt lat="47.920357" lon="10.679987">
<ele>667.478</ele>
<time>2020-09-11T10:36:39Z</time>
</trkpt>
<trkpt lat="47.920364" lon="10.680052">
<ele>667.478</ele>
<time>2020-09-11T10:36:40Z</time>
</trkpt>
<trkpt lat="47.920372" lon="10.68012">
<ele>667.478</ele>
<time>2020-09-11T10:36:41Z</time>
</trkpt>
<trkpt lat="47.920376" lon="10.680188">
<ele>667.478</ele>
<time>2020-09-11T10:36:42Z</time>
</trkpt>
<trkpt lat="47.92038" lon="10.68026">
<ele>667.478</ele>
<time>2020-09-11T10:36:43Z</time>
</trkpt>
<trkpt lat="47.920383" lon="10.680328">
<ele>667.478</ele>
<time>2020-09-11T10:36:44Z</time>
</trkpt>
<trkpt lat="47.920387" lon="10.680385">
<ele>667.478</ele>
<time>2020-09-11T10:36:45Z</time>
</trkpt>
<trkpt lat="47.920391" lon="10.680427">
<ele>667.478</ele>
<time>2020-09-11T10:36:46Z</time>
</trkpt>
<trkpt lat="47.920395" lon="10.680446">
<ele>667.477</ele>
<time>2020-09-11T10:36:47Z</time>
</trkpt>
<trkpt lat="47.920395" lon="10.680449">
<ele>667.478</ele>
<time>2020-09-11T10:36:48Z</time>
</trkpt>
<trkpt lat="47.920399" lon="10.680448">
<ele>667.478</ele>
<time>2020-09-11T10:36:49Z</time>
</trkpt>
<trkpt lat="47.920395" lon="10.680448">
<ele>667.478</ele>
<time>2020-09-11T10:36:50Z</time>
</trkpt>
<trkpt lat="47.920387" lon="10.680451">
<ele>667.478</ele>
<time>2020-09-11T10:36:53Z</time>
</trkpt>
<trkpt lat="47.920383" lon="10.680455">
<ele>667.478</ele>
<time>2020-09-11T10:36:55Z</time>
</trkpt>
<trkpt lat="47.920387" lon="10.680453">
<ele>667.478</ele>
<time>2020-09-11T10:36:56Z</time>
</trkpt>
<trkpt lat="47.920391" lon="10.680496">
<ele>667.478</ele>
<time>2020-09-11T10:37:29Z</time>
</trkpt>
<trkpt lat="47.920395" lon="10.680523">
<ele>667.477</ele>
<time>2020-09-11T10:37:30Z</time>
</trkpt>
<trkpt lat="47.920395" lon="10.680556">
<ele>667.478</ele>
<time>2020-09-11T10:37:31Z</time>
</trkpt>
<trkpt lat="47.920399" lon="10.680596">
<ele>667.478</ele>
<time>2020-09-11T10:37:32Z</time>
</trkpt>
<trkpt lat="47.920399" lon="10.68064">
<ele>667.477</ele>
<time>2020-09-11T10:37:33Z</time>
</trkpt>
<trkpt lat="47.920395" lon="10.680691">
<ele>667.478</ele>
<time>2020-09-11T10:37:34Z</time>
</trkpt>
<trkpt lat="47.920395" lon="10.680745">
<ele>667.478</ele>
<time>2020-09-11T10:37:35Z</time>
</trkpt>
<trkpt lat="47.920395" lon="10.680801">
<ele>667.478</ele>
<time>2020-09-11T10:37:36Z</time>
</trkpt>
<trkpt lat="47.920391" lon="10.680862">
<ele>667.478</ele>
<time>2020-09-11T10:37:37Z</time>
</trkpt>
<trkpt lat="47.920383" lon="10.68092">
<ele>667.478</ele>
<time>2020-09-11T10:37:38Z</time>
</trkpt>
<trkpt lat="47.92038" lon="10.68098">
<ele>667.478</ele>
<time>2020-09-11T10:37:39Z</time>
</trkpt>
<trkpt lat="47.920372" lon="10.681042">
<ele>667.478</ele>
<time>2020-09-11T10:37:40Z</time>
</trkpt>
<trkpt lat="47.920361" lon="10.681104">
<ele>667.478</ele>
<time>2020-09-11T10:37:41Z</time>
</trkpt>
<trkpt lat="47.920349" lon="10.681167">
<ele>667.478</ele>
<time>2020-09-11T10:37:42Z</time>
</trkpt>
<trkpt lat="47.920338" lon="10.68123">
<ele>667.478</ele>
<time>2020-09-11T10:37:43Z</time>
</trkpt>
<trkpt lat="47.920319" lon="10.681294">
<ele>667.478</ele>
<time>2020-09-11T10:37:44Z</time>
</trkpt>
<trkpt lat="47.920307" lon="10.681363">
<ele>667.478</ele>
<time>2020-09-11T10:37:45Z</time>
</trkpt>
<trkpt lat="47.920288" lon="10.68143">
<ele>667.478</ele>
<time>2020-09-11T10:37:46Z</time>
</trkpt>
<trkpt lat="47.920269" lon="10.681499">
<ele>667.478</ele>
<time>2020-09-11T10:37:47Z</time>
</trkpt>
<trkpt lat="47.92025" lon="10.681566">
<ele>667.478</ele>
<time>2020-09-11T10:37:48Z</time>
</trkpt>
<trkpt lat="47.920223" lon="10.681631">
<ele>667.478</ele>
<time>2020-09-11T10:37:49Z</time>
</trkpt>
<trkpt lat="47.9202" lon="10.681695">
<ele>667.16</ele>
<time>2020-09-11T10:37:50Z</time>
</trkpt>
<trkpt lat="47.92017" lon="10.681759">
<ele>666.92</ele>
<time>2020-09-11T10:37:51Z</time>
</trkpt>
<trkpt lat="47.920143" lon="10.68182">
<ele>666.747</ele>
<time>2020-09-11T10:37:52Z</time>
</trkpt>
<trkpt lat="47.920113" lon="10.68188">
<ele>666.613</ele>
<time>2020-09-11T10:37:53Z</time>
</trkpt>
<trkpt lat="47.920086" lon="10.68194">
<ele>666.522</ele>
<time>2020-09-11T10:37:54Z</time>
</trkpt>
<trkpt lat="47.920055" lon="10.682002">
<ele>666.466</ele>
<time>2020-09-11T10:37:55Z</time>
</trkpt>
<trkpt lat="47.920025" lon="10.682065">
<ele>666.438</ele>
<time>2020-09-11T10:37:56Z</time>
</trkpt>
<trkpt lat="47.919994" lon="10.682126">
<ele>666.414</ele>
<time>2020-09-11T10:37:57Z</time>
</trkpt>
<trkpt lat="47.91996" lon="10.682185">
<ele>666.414</ele>
<time>2020-09-11T10:37:58Z</time>
</trkpt>
<trkpt lat="47.919926" lon="10.682247">
<ele>666.414</ele>
<time>2020-09-11T10:37:59Z</time>
</trkpt>
<trkpt lat="47.919891" lon="10.682306">
<ele>666.414</ele>
<time>2020-09-11T10:38:00Z</time>
</trkpt>
<trkpt lat="47.919853" lon="10.68237">
<ele>666.414</ele>
<time>2020-09-11T10:38:01Z</time>
</trkpt>
<trkpt lat="47.919819" lon="10.682435">
<ele>666.414</ele>
<time>2020-09-11T10:38:02Z</time>
</trkpt>
<trkpt lat="47.919781" lon="10.682502">
<ele>666.414</ele>
<time>2020-09-11T10:38:03Z</time>
</trkpt>
<trkpt lat="47.919743" lon="10.682569">
<ele>666.414</ele>
<time>2020-09-11T10:38:04Z</time>
</trkpt>
<trkpt lat="47.919704" lon="10.682639">
<ele>666.414</ele>
<time>2020-09-11T10:38:05Z</time>
</trkpt>
<trkpt lat="47.91967" lon="10.682709">
<ele>666.414</ele>
<time>2020-09-11T10:38:06Z</time>
</trkpt>
<trkpt lat="47.919632" lon="10.682778">
<ele>666.414</ele>
<time>2020-09-11T10:38:07Z</time>
</trkpt>
<trkpt lat="47.919594" lon="10.68285">
<ele>666.414</ele>
<time>2020-09-11T10:38:08Z</time>
</trkpt>
<trkpt lat="47.919552" lon="10.682923">
<ele>666.116</ele>
<time>2020-09-11T10:38:09Z</time>
</trkpt>
<trkpt lat="47.919514" lon="10.682998">
<ele>665.89</ele>
<time>2020-09-11T10:38:10Z</time>
</trkpt>
<trkpt lat="47.919476" lon="10.683075">
<ele>665.722</ele>
<time>2020-09-11T10:38:11Z</time>
</trkpt>
<trkpt lat="47.919437" lon="10.683157">
<ele>665.6</ele>
<time>2020-09-11T10:38:12Z</time>
</trkpt>
<trkpt lat="47.919403" lon="10.683238">
<ele>665.517</ele>
<time>2020-09-11T10:38:13Z</time>
</trkpt>
<trkpt lat="47.919365" lon="10.683322">
<ele>665.471</ele>
<time>2020-09-11T10:38:14Z</time>
</trkpt>
<trkpt lat="47.919331" lon="10.683408">
<ele>665.191</ele>
<time>2020-09-11T10:38:15Z</time>
</trkpt>
<trkpt lat="47.919292" lon="10.683495">
<ele>664.997</ele>
<time>2020-09-11T10:38:16Z</time>
</trkpt>
<trkpt lat="47.919258" lon="10.683584">
<ele>664.865</ele>
<time>2020-09-11T10:38:17Z</time>
</trkpt>
<trkpt lat="47.91922" lon="10.683677">
<ele>664.73</ele>
<time>2020-09-11T10:38:18Z</time>
</trkpt>
<trkpt lat="47.919189" lon="10.68377">
<ele>664.377</ele>
<time>2020-09-11T10:38:19Z</time>
</trkpt>
<trkpt lat="47.919155" lon="10.683863">
<ele>664.099</ele>
<time>2020-09-11T10:38:20Z</time>
</trkpt>
<trkpt lat="47.919125" lon="10.683959">
<ele>663.883</ele>
<time>2020-09-11T10:38:21Z</time>
</trkpt>
<trkpt lat="47.919094" lon="10.684057">
<ele>663.757</ele>
<time>2020-09-11T10:38:22Z</time>
</trkpt>
<trkpt lat="47.919067" lon="10.684156">
<ele>663.314</ele>
<time>2020-09-11T10:38:23Z</time>
</trkpt>
<trkpt lat="47.919041" lon="10.684258">
<ele>663.052</ele>
<time>2020-09-11T10:38:24Z</time>
</trkpt>
<trkpt lat="47.919014" lon="10.68436">
<ele>662.876</ele>
<time>2020-09-11T10:38:25Z</time>
</trkpt>
<trkpt lat="47.918983" lon="10.684464">
<ele>662.756</ele>
<time>2020-09-11T10:38:26Z</time>
</trkpt>
<trkpt lat="47.918964" lon="10.68457">
<ele>662.675</ele>
<time>2020-09-11T10:38:27Z</time>
</trkpt>
<trkpt lat="47.918941" lon="10.684675">
<ele>662.595</ele>
<time>2020-09-11T10:38:28Z</time>
</trkpt>
<trkpt lat="47.918919" lon="10.68478">
<ele>662.281</ele>
<time>2020-09-11T10:38:29Z</time>
</trkpt>
<trkpt lat="47.9189" lon="10.684885">
<ele>662.039</ele>
<time>2020-09-11T10:38:30Z</time>
</trkpt>
<trkpt lat="47.91888" lon="10.684992">
<ele>661.767</ele>
<time>2020-09-11T10:38:31Z</time>
</trkpt>
<trkpt lat="47.918861" lon="10.685101">
<ele>661.63</ele>
<time>2020-09-11T10:38:32Z</time>
</trkpt>
<trkpt lat="47.91885" lon="10.685205">
<ele>661.536</ele>
<time>2020-09-11T10:38:33Z</time>
</trkpt>
<trkpt lat="47.918835" lon="10.685313">
<ele>661.484</ele>
<time>2020-09-11T10:38:34Z</time>
</trkpt>
<trkpt lat="47.918819" lon="10.68542">
<ele>661.192</ele>
<time>2020-09-11T10:38:35Z</time>
</trkpt>
<trkpt lat="47.918812" lon="10.685525">
<ele>660.978</ele>
<time>2020-09-11T10:38:36Z</time>
</trkpt>
<trkpt lat="47.9188" lon="10.68563">
<ele>660.834</ele>
<time>2020-09-11T10:38:37Z</time>
</trkpt>
<trkpt lat="47.918793" lon="10.685734">
<ele>660.679</ele>
<time>2020-09-11T10:38:38Z</time>
</trkpt>
<trkpt lat="47.918785" lon="10.685835">
<ele>660.559</ele>
<time>2020-09-11T10:38:39Z</time>
</trkpt>
<trkpt lat="47.918785" lon="10.685937">
<ele>660.473</ele>
<time>2020-09-11T10:38:40Z</time>
</trkpt>
<trkpt lat="47.918781" lon="10.686037">
<ele>660.416</ele>
<time>2020-09-11T10:38:41Z</time>
</trkpt>
<trkpt lat="47.918777" lon="10.686138">
<ele>660.389</ele>
<time>2020-09-11T10:38:42Z</time>
</trkpt>
<trkpt lat="47.918774" lon="10.686236">
<ele>660.389</ele>
<time>2020-09-11T10:38:43Z</time>
</trkpt>
<trkpt lat="47.918777" lon="10.686337">
<ele>660.39</ele>
<time>2020-09-11T10:38:44Z</time>
</trkpt>
<trkpt lat="47.918777" lon="10.686437">
<ele>660.389</ele>
<time>2020-09-11T10:38:45Z</time>
</trkpt>
<trkpt lat="47.918777" lon="10.686534">
<ele>660.389</ele>
<time>2020-09-11T10:38:46Z</time>
</trkpt>
<trkpt lat="47.918781" lon="10.68663">
<ele>660.389</ele>
<time>2020-09-11T10:38:47Z</time>
</trkpt>
<trkpt lat="47.918785" lon="10.686725">
<ele>660.389</ele>
<time>2020-09-11T10:38:48Z</time>
</trkpt>
<trkpt lat="47.918785" lon="10.68682">
<ele>660.39</ele>
<time>2020-09-11T10:38:49Z</time>
</trkpt>
<trkpt lat="47.918789" lon="10.686915">
<ele>660.39</ele>
<time>2020-09-11T10:38:50Z</time>
</trkpt>
<trkpt lat="47.918797" lon="10.68701">
<ele>660.39</ele>
<time>2020-09-11T10:38:51Z</time>
</trkpt>
<trkpt lat="47.9188" lon="10.687106">
<ele>660.389</ele>
<time>2020-09-11T10:38:52Z</time>
</trkpt>
<trkpt lat="47.918808" lon="10.687201">
<ele>660.39</ele>
<time>2020-09-11T10:38:53Z</time>
</trkpt>
<trkpt lat="47.918812" lon="10.687297">
<ele>660.39</ele>
<time>2020-09-11T10:38:54Z</time>
</trkpt>
<trkpt lat="47.918819" lon="10.687391">
<ele>660.39</ele>
<time>2020-09-11T10:38:55Z</time>
</trkpt>
<trkpt lat="47.918823" lon="10.687485">
<ele>660.39</ele>
<time>2020-09-11T10:38:56Z</time>
</trkpt>
<trkpt lat="47.918831" lon="10.687582">
<ele>660.39</ele>
<time>2020-09-11T10:38:57Z</time>
</trkpt>
<trkpt lat="47.918835" lon="10.687676">
<ele>660.39</ele>
<time>2020-09-11T10:38:58Z</time>
</trkpt>
<trkpt lat="47.918842" lon="10.687774">
<ele>660.389</ele>
<time>2020-09-11T10:38:59Z</time>
</trkpt>
<trkpt lat="47.91885" lon="10.687868">
<ele>660.39</ele>
<time>2020-09-11T10:39:00Z</time>
</trkpt>
<trkpt lat="47.918854" lon="10.687962">
<ele>660.39</ele>
<time>2020-09-11T10:39:01Z</time>
</trkpt>
<trkpt lat="47.918861" lon="10.688053">
<ele>660.389</ele>
<time>2020-09-11T10:39:02Z</time>
</trkpt>
<trkpt lat="47.918865" lon="10.688145">
<ele>660.39</ele>
<time>2020-09-11T10:39:03Z</time>
</trkpt>
<trkpt lat="47.918873" lon="10.688237">
<ele>660.389</ele>
<time>2020-09-11T10:39:04Z</time>
</trkpt>
<trkpt lat="47.918877" lon="10.688327">
<ele>660.39</ele>
<time>2020-09-11T10:39:05Z</time>
</trkpt>
<trkpt lat="47.918884" lon="10.688418">
<ele>660.39</ele>
<time>2020-09-11T10:39:06Z</time>
</trkpt>
<trkpt lat="47.918884" lon="10.688508">
<ele>660.39</ele>
<time>2020-09-11T10:39:07Z</time>
</trkpt>
<trkpt lat="47.918892" lon="10.6886">
<ele>660.389</ele>
<time>2020-09-11T10:39:08Z</time>
</trkpt>
<trkpt lat="47.918896" lon="10.688692">
<ele>660.389</ele>
<time>2020-09-11T10:39:09Z</time>
</trkpt>
<trkpt lat="47.918903" lon="10.688784">
<ele>660.39</ele>
<time>2020-09-11T10:39:10Z</time>
</trkpt>
<trkpt lat="47.918911" lon="10.688873">
<ele>660.39</ele>
<time>2020-09-11T10:39:11Z</time>
</trkpt>
<trkpt lat="47.918915" lon="10.688965">
<ele>660.389</ele>
<time>2020-09-11T10:39:12Z</time>
</trkpt>
<trkpt lat="47.918919" lon="10.689054">
<ele>660.389</ele>
<time>2020-09-11T10:39:13Z</time>
</trkpt>
<trkpt lat="47.918926" lon="10.689145">
<ele>660.39</ele>
<time>2020-09-11T10:39:14Z</time>
</trkpt>
<trkpt lat="47.91893" lon="10.689235">
<ele>660.389</ele>
<time>2020-09-11T10:39:15Z</time>
</trkpt>
<trkpt lat="47.918934" lon="10.689323">
<ele>660.39</ele>
<time>2020-09-11T10:39:16Z</time>
</trkpt>
<trkpt lat="47.918941" lon="10.68941">
<ele>660.39</ele>
<time>2020-09-11T10:39:17Z</time>
</trkpt>
<trkpt lat="47.918945" lon="10.689497">
<ele>660.389</ele>
<time>2020-09-11T10:39:18Z</time>
</trkpt>
<trkpt lat="47.918949" lon="10.68958">
<ele>660.389</ele>
<time>2020-09-11T10:39:19Z</time>
</trkpt>
<trkpt lat="47.918949" lon="10.689665">
<ele>660.39</ele>
<time>2020-09-11T10:39:20Z</time>
</trkpt>
<trkpt lat="47.918953" lon="10.689748">
<ele>660.39</ele>
<time>2020-09-11T10:39:21Z</time>
</trkpt>
<trkpt lat="47.918957" lon="10.689834">
<ele>660.39</ele>
<time>2020-09-11T10:39:22Z</time>
</trkpt>
<trkpt lat="47.918961" lon="10.689917">
<ele>660.39</ele>
<time>2020-09-11T10:39:23Z</time>
</trkpt>
<trkpt lat="47.918961" lon="10.69">
<ele>660.39</ele>
<time>2020-09-11T10:39:24Z</time>
</trkpt>
<trkpt lat="47.918964" lon="10.690085">
<ele>660.39</ele>
<time>2020-09-11T10:39:25Z</time>
</trkpt>
<trkpt lat="47.918964" lon="10.69017">
<ele>660.39</ele>
<time>2020-09-11T10:39:26Z</time>
</trkpt>
<trkpt lat="47.918964" lon="10.690255">
<ele>660.606</ele>
<time>2020-09-11T10:39:27Z</time>
</trkpt>
<trkpt lat="47.918968" lon="10.690338">
<ele>660.811</ele>
<time>2020-09-11T10:39:28Z</time>
</trkpt>
<trkpt lat="47.918968" lon="10.690423">
<ele>660.98</ele>
<time>2020-09-11T10:39:29Z</time>
</trkpt>
<trkpt lat="47.918972" lon="10.690507">
<ele>661.114</ele>
<time>2020-09-11T10:39:30Z</time>
</trkpt>
<trkpt lat="47.918972" lon="10.69059">
<ele>661.202</ele>
<time>2020-09-11T10:39:31Z</time>
</trkpt>
<trkpt lat="47.918972" lon="10.690674">
<ele>661.5</ele>
<time>2020-09-11T10:39:32Z</time>
</trkpt>
<trkpt lat="47.918972" lon="10.690755">
<ele>661.733</ele>
<time>2020-09-11T10:39:33Z</time>
</trkpt>
<trkpt lat="47.918972" lon="10.69084">
<ele>661.908</ele>
<time>2020-09-11T10:39:34Z</time>
</trkpt>
<trkpt lat="47.918976" lon="10.690924">
<ele>662.021</ele>
<time>2020-09-11T10:39:35Z</time>
</trkpt>
<trkpt lat="47.918976" lon="10.691007">
<ele>662.429</ele>
<time>2020-09-11T10:39:36Z</time>
</trkpt>
<trkpt lat="47.918976" lon="10.691089">
<ele>662.728</ele>
<time>2020-09-11T10:39:37Z</time>
</trkpt>
<trkpt lat="47.91898" lon="10.69117">
<ele>663.016</ele>
<time>2020-09-11T10:39:38Z</time>
</trkpt>
<trkpt lat="47.91898" lon="10.69125">
<ele>663.228</ele>
<time>2020-09-11T10:39:39Z</time>
</trkpt>
<trkpt lat="47.91898" lon="10.691327">
<ele>663.373</ele>
<time>2020-09-11T10:39:40Z</time>
</trkpt>
<trkpt lat="47.91898" lon="10.691401">
<ele>663.478</ele>
<time>2020-09-11T10:39:41Z</time>
</trkpt>
<trkpt lat="47.91898" lon="10.691475">
<ele>663.545</ele>
<time>2020-09-11T10:39:42Z</time>
</trkpt>
<trkpt lat="47.918983" lon="10.691547">
<ele>663.578</ele>
<time>2020-09-11T10:39:43Z</time>
</trkpt>
<trkpt lat="47.918983" lon="10.691619">
<ele>663.579</ele>
<time>2020-09-11T10:39:44Z</time>
</trkpt>
<trkpt lat="47.918983" lon="10.691691">
<ele>663.579</ele>
<time>2020-09-11T10:39:45Z</time>
</trkpt>
<trkpt lat="47.918983" lon="10.691765">
<ele>663.81</ele>
<time>2020-09-11T10:39:46Z</time>
</trkpt>
<trkpt lat="47.918983" lon="10.691838">
<ele>663.98</ele>
<time>2020-09-11T10:39:47Z</time>
</trkpt>
<trkpt lat="47.918983" lon="10.691914">
<ele>664.155</ele>
<time>2020-09-11T10:39:48Z</time>
</trkpt>
<trkpt lat="47.918983" lon="10.691987">
<ele>664.296</ele>
<time>2020-09-11T10:39:49Z</time>
</trkpt>
<trkpt lat="47.918983" lon="10.692063">
<ele>664.404</ele>
<time>2020-09-11T10:39:50Z</time>
</trkpt>
<trkpt lat="47.918983" lon="10.692135">
<ele>664.482</ele>
<time>2020-09-11T10:39:51Z</time>
</trkpt>
<trkpt lat="47.918983" lon="10.692208">
<ele>664.53</ele>
<time>2020-09-11T10:39:52Z</time>
</trkpt>
<trkpt lat="47.918983" lon="10.692281">
<ele>664.554</ele>
<time>2020-09-11T10:39:53Z</time>
</trkpt>
<trkpt lat="47.918983" lon="10.692353">
<ele>664.803</ele>
<time>2020-09-11T10:39:54Z</time>
</trkpt>
<trkpt lat="47.918983" lon="10.692425">
<ele>664.999</ele>
<time>2020-09-11T10:39:55Z</time>
</trkpt>
<trkpt lat="47.918983" lon="10.692498">
<ele>665.15</ele>
<time>2020-09-11T10:39:56Z</time>
</trkpt>
<trkpt lat="47.918983" lon="10.692572">
<ele>665.255</ele>
<time>2020-09-11T10:39:57Z</time>
</trkpt>
<trkpt lat="47.91898" lon="10.692643">
<ele>665.368</ele>
<time>2020-09-11T10:39:58Z</time>
</trkpt>
<trkpt lat="47.91898" lon="10.692717">
<ele>665.451</ele>
<time>2020-09-11T10:39:59Z</time>
</trkpt>
<trkpt lat="47.918972" lon="10.69279">
<ele>665.503</ele>
<time>2020-09-11T10:40:00Z</time>
</trkpt>
<trkpt lat="47.918968" lon="10.692862">
<ele>665.528</ele>
<time>2020-09-11T10:40:01Z</time>
</trkpt>
<trkpt lat="47.918961" lon="10.692933">
<ele>665.528</ele>
<time>2020-09-11T10:40:02Z</time>
</trkpt>
<trkpt lat="47.918949" lon="10.693006">
<ele>665.528</ele>
<time>2020-09-11T10:40:03Z</time>
</trkpt>
<trkpt lat="47.918945" lon="10.693079">
<ele>665.528</ele>
<time>2020-09-11T10:40:04Z</time>
</trkpt>
<trkpt lat="47.918938" lon="10.693151">
<ele>665.528</ele>
<time>2020-09-11T10:40:05Z</time>
</trkpt>
<trkpt lat="47.918926" lon="10.693222">
<ele>665.766</ele>
<time>2020-09-11T10:40:06Z</time>
</trkpt>
<trkpt lat="47.918915" lon="10.693293">
<ele>665.934</ele>
<time>2020-09-11T10:40:07Z</time>
</trkpt>
<trkpt lat="47.918903" lon="10.693363">
<ele>666.108</ele>
<time>2020-09-11T10:40:08Z</time>
</trkpt>
<trkpt lat="47.918884" lon="10.693431">
<ele>666.247</ele>
<time>2020-09-11T10:40:09Z</time>
</trkpt>
<trkpt lat="47.918873" lon="10.693501">
<ele>666.353</ele>
<time>2020-09-11T10:40:10Z</time>
</trkpt>
<trkpt lat="47.918858" lon="10.69357">
<ele>666.43</ele>
<time>2020-09-11T10:40:11Z</time>
</trkpt>
<trkpt lat="47.918846" lon="10.693639">
<ele>666.479</ele>
<time>2020-09-11T10:40:12Z</time>
</trkpt>
<trkpt lat="47.918827" lon="10.693707">
<ele>666.503</ele>
<time>2020-09-11T10:40:13Z</time>
</trkpt>
<trkpt lat="47.918812" lon="10.693777">
<ele>666.503</ele>
<time>2020-09-11T10:40:14Z</time>
</trkpt>
<trkpt lat="47.918789" lon="10.693847">
<ele>666.747</ele>
<time>2020-09-11T10:40:15Z</time>
</trkpt>
<trkpt lat="47.918774" lon="10.693913">
<ele>666.941</ele>
<time>2020-09-11T10:40:16Z</time>
</trkpt>
<trkpt lat="47.918755" lon="10.693982">
<ele>667.075</ele>
<time>2020-09-11T10:40:17Z</time>
</trkpt>
<trkpt lat="47.918732" lon="10.69405">
<ele>667.217</ele>
<time>2020-09-11T10:40:18Z</time>
</trkpt>
<trkpt lat="47.918713" lon="10.694118">
<ele>667.317</ele>
<time>2020-09-11T10:40:19Z</time>
</trkpt>
<trkpt lat="47.918694" lon="10.694188">
<ele>667.639</ele>
<time>2020-09-11T10:40:20Z</time>
</trkpt>
<trkpt lat="47.918674" lon="10.694255">
<ele>667.889</ele>
<time>2020-09-11T10:40:21Z</time>
</trkpt>
<trkpt lat="47.918655" lon="10.694322">
<ele>668.077</ele>
<time>2020-09-11T10:40:22Z</time>
</trkpt>
<trkpt lat="47.918633" lon="10.694388">
<ele>668.264</ele>
<time>2020-09-11T10:40:23Z</time>
</trkpt>
<trkpt lat="47.918613" lon="10.694455">
<ele>668.349</ele>
<time>2020-09-11T10:40:24Z</time>
</trkpt>
<trkpt lat="47.918591" lon="10.694523">
<ele>668.401</ele>
<time>2020-09-11T10:40:25Z</time>
</trkpt>
<trkpt lat="47.918575" lon="10.694593">
<ele>668.43</ele>
<time>2020-09-11T10:40:26Z</time>
</trkpt>
<trkpt lat="47.91856" lon="10.694663">
<ele>668.453</ele>
<time>2020-09-11T10:40:27Z</time>
</trkpt>
<trkpt lat="47.918537" lon="10.694732">
<ele>668.453</ele>
<time>2020-09-11T10:40:28Z</time>
</trkpt>
<trkpt lat="47.918522" lon="10.694799">
<ele>668.453</ele>
<time>2020-09-11T10:40:29Z</time>
</trkpt>
<trkpt lat="47.918507" lon="10.694868">
<ele>668.453</ele>
<time>2020-09-11T10:40:30Z</time>
</trkpt>
<trkpt lat="47.918495" lon="10.694937">
<ele>668.453</ele>
<time>2020-09-11T10:40:31Z</time>
</trkpt>
<trkpt lat="47.91848" lon="10.695006">
<ele>668.453</ele>
<time>2020-09-11T10:40:32Z</time>
</trkpt>
<trkpt lat="47.918468" lon="10.695075">
<ele>668.453</ele>
<time>2020-09-11T10:40:33Z</time>
</trkpt>
<trkpt lat="47.918461" lon="10.695147">
<ele>668.453</ele>
<time>2020-09-11T10:40:34Z</time>
</trkpt>
<trkpt lat="47.918449" lon="10.695218">
<ele>668.716</ele>
<time>2020-09-11T10:40:35Z</time>
</trkpt>
<trkpt lat="47.918442" lon="10.695292">
<ele>668.929</ele>
<time>2020-09-11T10:40:36Z</time>
</trkpt>
<trkpt lat="47.918434" lon="10.695363">
<ele>669.074</ele>
<time>2020-09-11T10:40:37Z</time>
</trkpt>
<trkpt lat="47.918427" lon="10.695436">
<ele>669.231</ele>
<time>2020-09-11T10:40:38Z</time>
</trkpt>
<trkpt lat="47.918427" lon="10.695509">
<ele>669.35</ele>
<time>2020-09-11T10:40:39Z</time>
</trkpt>
<trkpt lat="47.918427" lon="10.69558">
<ele>669.436</ele>
<time>2020-09-11T10:40:40Z</time>
</trkpt>
<trkpt lat="47.918423" lon="10.695652">
<ele>669.491</ele>
<time>2020-09-11T10:40:41Z</time>
</trkpt>
<trkpt lat="47.918423" lon="10.695724">
<ele>669.517</ele>
<time>2020-09-11T10:40:42Z</time>
</trkpt>
<trkpt lat="47.918423" lon="10.695794">
<ele>669.517</ele>
<time>2020-09-11T10:40:43Z</time>
</trkpt>
<trkpt lat="47.918427" lon="10.695864">
<ele>669.517</ele>
<time>2020-09-11T10:40:44Z</time>
</trkpt>
<trkpt lat="47.918427" lon="10.695933">
<ele>669.517</ele>
<time>2020-09-11T10:40:45Z</time>
</trkpt>
<trkpt lat="47.91843" lon="10.696006">
<ele>669.517</ele>
<time>2020-09-11T10:40:46Z</time>
</trkpt>
<trkpt lat="47.918434" lon="10.696074">
<ele>669.732</ele>
<time>2020-09-11T10:40:47Z</time>
</trkpt>
<trkpt lat="47.918438" lon="10.696144">
<ele>669.937</ele>
<time>2020-09-11T10:40:48Z</time>
</trkpt>
<trkpt lat="47.918442" lon="10.696214">
<ele>670.106</ele>
<time>2020-09-11T10:40:49Z</time>
</trkpt>
<trkpt lat="47.918449" lon="10.696283">
<ele>670.241</ele>
<time>2020-09-11T10:40:50Z</time>
</trkpt>
<trkpt lat="47.918453" lon="10.696356">
<ele>670.346</ele>
<time>2020-09-11T10:40:51Z</time>
</trkpt>
<trkpt lat="47.918457" lon="10.696429">
<ele>670.421</ele>
<time>2020-09-11T10:40:52Z</time>
</trkpt>
<trkpt lat="47.918461" lon="10.696505">
<ele>670.469</ele>
<time>2020-09-11T10:40:53Z</time>
</trkpt>
<trkpt lat="47.918461" lon="10.696582">
<ele>670.492</ele>
<time>2020-09-11T10:40:54Z</time>
</trkpt>
<trkpt lat="47.918465" lon="10.696658">
<ele>670.492</ele>
<time>2020-09-11T10:40:55Z</time>
</trkpt>
<trkpt lat="47.918468" lon="10.696733">
<ele>670.492</ele>
<time>2020-09-11T10:40:56Z</time>
</trkpt>
<trkpt lat="47.918476" lon="10.69681">
<ele>670.492</ele>
<time>2020-09-11T10:40:57Z</time>
</trkpt>
<trkpt lat="47.91848" lon="10.696885">
<ele>670.492</ele>
<time>2020-09-11T10:40:58Z</time>
</trkpt>
<trkpt lat="47.918484" lon="10.696957">
<ele>670.492</ele>
<time>2020-09-11T10:40:59Z</time>
</trkpt>
<trkpt lat="47.918488" lon="10.697023">
<ele>670.238</ele>
<time>2020-09-11T10:41:00Z</time>
</trkpt>
<trkpt lat="47.918491" lon="10.697086">
<ele>670.044</ele>
<time>2020-09-11T10:41:01Z</time>
</trkpt>
<trkpt lat="47.918495" lon="10.697152">
<ele>669.896</ele>
<time>2020-09-11T10:41:02Z</time>
</trkpt>
<trkpt lat="47.918499" lon="10.697213">
<ele>669.784</ele>
<time>2020-09-11T10:41:03Z</time>
</trkpt>
<trkpt lat="47.918507" lon="10.697275">
<ele>669.706</ele>
<time>2020-09-11T10:41:04Z</time>
</trkpt>
<trkpt lat="47.918514" lon="10.697334">
<ele>669.652</ele>
<time>2020-09-11T10:41:05Z</time>
</trkpt>
<trkpt lat="47.918526" lon="10.697387">
<ele>669.628</ele>
<time>2020-09-11T10:41:06Z</time>
</trkpt>
<trkpt lat="47.918537" lon="10.697432">
<ele>669.605</ele>
<time>2020-09-11T10:41:07Z</time>
</trkpt>
<trkpt lat="47.918552" lon="10.697472">
<ele>669.382</ele>
<time>2020-09-11T10:41:08Z</time>
</trkpt>
<trkpt lat="47.918564" lon="10.697508">
<ele>669.193</ele>
<time>2020-09-11T10:41:09Z</time>
</trkpt>
<trkpt lat="47.918579" lon="10.697545">
<ele>669.035</ele>
<time>2020-09-11T10:41:10Z</time>
</trkpt>
<trkpt lat="47.918594" lon="10.697587">
<ele>668.901</ele>
<time>2020-09-11T10:41:11Z</time>
</trkpt>
<trkpt lat="47.918613" lon="10.697636">
<ele>668.794</ele>
<time>2020-09-11T10:41:12Z</time>
</trkpt>
<trkpt lat="47.918633" lon="10.697686">
<ele>668.723</ele>
<time>2020-09-11T10:41:13Z</time>
</trkpt>
<trkpt lat="47.918655" lon="10.697741">
<ele>668.41</ele>
<time>2020-09-11T10:41:14Z</time>
</trkpt>
<trkpt lat="47.918686" lon="10.697799">
<ele>668.164</ele>
<time>2020-09-11T10:41:15Z</time>
</trkpt>
<trkpt lat="47.918713" lon="10.69786">
<ele>667.988</ele>
<time>2020-09-11T10:41:16Z</time>
</trkpt>
<trkpt lat="47.918743" lon="10.697923">
<ele>667.891</ele>
<time>2020-09-11T10:41:17Z</time>
</trkpt>
<trkpt lat="47.91877" lon="10.697987">
<ele>667.791</ele>
<time>2020-09-11T10:41:18Z</time>
</trkpt>
<trkpt lat="47.918793" lon="10.69805">
<ele>667.461</ele>
<time>2020-09-11T10:41:19Z</time>
</trkpt>
<trkpt lat="47.918819" lon="10.698113">
<ele>667.219</ele>
<time>2020-09-11T10:41:20Z</time>
</trkpt>
<trkpt lat="47.918835" lon="10.698178">
<ele>667.04</ele>
<time>2020-09-11T10:41:21Z</time>
</trkpt>
<trkpt lat="47.91885" lon="10.698248">
<ele>666.839</ele>
<time>2020-09-11T10:41:22Z</time>
</trkpt>
<trkpt lat="47.918854" lon="10.698323">
<ele>666.767</ele>
<time>2020-09-11T10:41:23Z</time>
</trkpt>
<trkpt lat="47.918861" lon="10.698403">
<ele>666.486</ele>
<time>2020-09-11T10:41:24Z</time>
</trkpt>
<trkpt lat="47.918861" lon="10.698486">
<ele>666.307</ele>
<time>2020-09-11T10:41:25Z</time>
</trkpt>
<trkpt lat="47.918858" lon="10.698575">
<ele>665.904</ele>
<time>2020-09-11T10:41:26Z</time>
</trkpt>
<trkpt lat="47.918854" lon="10.698667">
<ele>665.617</ele>
<time>2020-09-11T10:41:27Z</time>
</trkpt>
<trkpt lat="47.91885" lon="10.698758">
<ele>665.058</ele>
<time>2020-09-11T10:41:28Z</time>
</trkpt>
<trkpt lat="47.918842" lon="10.698852">
<ele>664.678</ele>
<time>2020-09-11T10:41:29Z</time>
</trkpt>
<trkpt lat="47.918839" lon="10.698945">
<ele>664.039</ele>
<time>2020-09-11T10:41:30Z</time>
</trkpt>
<trkpt lat="47.918831" lon="10.699038">
<ele>663.615</ele>
<time>2020-09-11T10:41:31Z</time>
</trkpt>
<trkpt lat="47.918819" lon="10.699134">
<ele>662.999</ele>
<time>2020-09-11T10:41:32Z</time>
</trkpt>
<trkpt lat="47.918797" lon="10.69922">
<ele>662.586</ele>
<time>2020-09-11T10:41:33Z</time>
</trkpt>
<trkpt lat="47.918766" lon="10.699297">
<ele>662.03</ele>
<time>2020-09-11T10:41:34Z</time>
</trkpt>
<trkpt lat="47.918728" lon="10.699356">
<ele>661.33</ele>
<time>2020-09-11T10:41:35Z</time>
</trkpt>
<trkpt lat="47.918682" lon="10.699391">
<ele>660.799</ele>
<time>2020-09-11T10:41:36Z</time>
</trkpt>
<trkpt lat="47.918629" lon="10.699404">
<ele>660.45</ele>
<time>2020-09-11T10:41:37Z</time>
</trkpt>
<trkpt lat="47.918575" lon="10.699405">
<ele>660.144</ele>
<time>2020-09-11T10:41:38Z</time>
</trkpt>
<trkpt lat="47.918522" lon="10.6994">
<ele>659.926</ele>
<time>2020-09-11T10:41:39Z</time>
</trkpt>
<trkpt lat="47.918465" lon="10.6994">
<ele>659.79</ele>
<time>2020-09-11T10:41:40Z</time>
</trkpt>
<trkpt lat="47.918411" lon="10.699405">
<ele>659.708</ele>
<time>2020-09-11T10:41:41Z</time>
</trkpt>
<trkpt lat="47.918358" lon="10.699413">
<ele>659.681</ele>
<time>2020-09-11T10:41:42Z</time>
</trkpt>
<trkpt lat="47.918297" lon="10.69943">
<ele>659.681</ele>
<time>2020-09-11T10:41:43Z</time>
</trkpt>
<trkpt lat="47.918243" lon="10.699453">
<ele>659.681</ele>
<time>2020-09-11T10:41:44Z</time>
</trkpt>
<trkpt lat="47.918194" lon="10.699477">
<ele>659.681</ele>
<time>2020-09-11T10:41:45Z</time>
</trkpt>
<trkpt lat="47.918137" lon="10.699498">
<ele>659.681</ele>
<time>2020-09-11T10:41:46Z</time>
</trkpt>
<trkpt lat="47.918087" lon="10.69952">
<ele>659.681</ele>
<time>2020-09-11T10:41:47Z</time>
</trkpt>
<trkpt lat="47.918037" lon="10.699536">
<ele>659.681</ele>
<time>2020-09-11T10:41:48Z</time>
</trkpt>
<trkpt lat="47.917984" lon="10.699553">
<ele>659.681</ele>
<time>2020-09-11T10:41:49Z</time>
</trkpt>
<trkpt lat="47.917934" lon="10.699572">
<ele>659.402</ele>
<time>2020-09-11T10:41:50Z</time>
</trkpt>
<trkpt lat="47.917885" lon="10.699587">
<ele>659.186</ele>
<time>2020-09-11T10:41:51Z</time>
</trkpt>
<trkpt lat="47.917839" lon="10.699601">
<ele>659.021</ele>
<time>2020-09-11T10:41:52Z</time>
</trkpt>
<trkpt lat="47.917789" lon="10.699616">
<ele>658.896</ele>
<time>2020-09-11T10:41:53Z</time>
</trkpt>
<trkpt lat="47.91774" lon="10.699628">
<ele>658.81</ele>
<time>2020-09-11T10:41:54Z</time>
</trkpt>
<trkpt lat="47.917694" lon="10.699635">
<ele>658.755</ele>
<time>2020-09-11T10:41:55Z</time>
</trkpt>
<trkpt lat="47.917641" lon="10.699649">
<ele>658.73</ele>
<time>2020-09-11T10:41:56Z</time>
</trkpt>
<trkpt lat="47.917587" lon="10.699656">
<ele>658.707</ele>
<time>2020-09-11T10:41:57Z</time>
</trkpt>
<trkpt lat="47.917538" lon="10.699665">
<ele>658.707</ele>
<time>2020-09-11T10:41:58Z</time>
</trkpt>
<trkpt lat="47.917484" lon="10.699675">
<ele>658.707</ele>
<time>2020-09-11T10:41:59Z</time>
</trkpt>
<trkpt lat="47.917427" lon="10.699683">
<ele>658.707</ele>
<time>2020-09-11T10:42:00Z</time>
</trkpt>
<trkpt lat="47.91737" lon="10.699689">
<ele>658.707</ele>
<time>2020-09-11T10:42:01Z</time>
</trkpt>
<trkpt lat="47.917313" lon="10.699697">
<ele>658.707</ele>
<time>2020-09-11T10:42:02Z</time>
</trkpt>
<trkpt lat="47.917252" lon="10.699708">
<ele>658.707</ele>
<time>2020-09-11T10:42:03Z</time>
</trkpt>
<trkpt lat="47.917191" lon="10.69972">
<ele>658.707</ele>
<time>2020-09-11T10:42:04Z</time>
</trkpt>
<trkpt lat="47.917133" lon="10.69973">
<ele>658.707</ele>
<time>2020-09-11T10:42:05Z</time>
</trkpt>
<trkpt lat="47.91708" lon="10.699741">
<ele>658.707</ele>
<time>2020-09-11T10:42:06Z</time>
</trkpt>
<trkpt lat="47.917027" lon="10.69976">
<ele>658.707</ele>
<time>2020-09-11T10:42:07Z</time>
</trkpt>
<trkpt lat="47.916973" lon="10.699788">
<ele>658.707</ele>
<time>2020-09-11T10:42:08Z</time>
</trkpt>
<trkpt lat="47.916931" lon="10.699828">
<ele>658.707</ele>
<time>2020-09-11T10:42:09Z</time>
</trkpt>
<trkpt lat="47.916897" lon="10.699885">
<ele>658.707</ele>
<time>2020-09-11T10:42:10Z</time>
</trkpt>
<trkpt lat="47.916866" lon="10.699953">
<ele>658.707</ele>
<time>2020-09-11T10:42:11Z</time>
</trkpt>
<trkpt lat="47.916847" lon="10.700032">
<ele>658.707</ele>
<time>2020-09-11T10:42:12Z</time>
</trkpt>
<trkpt lat="47.916832" lon="10.700118">
<ele>658.707</ele>
<time>2020-09-11T10:42:13Z</time>
</trkpt>
<trkpt lat="47.916832" lon="10.700203">
<ele>658.707</ele>
<time>2020-09-11T10:42:14Z</time>
</trkpt>
<trkpt lat="47.916828" lon="10.70029">
<ele>658.707</ele>
<time>2020-09-11T10:42:15Z</time>
</trkpt>
<trkpt lat="47.916828" lon="10.700374">
<ele>658.707</ele>
<time>2020-09-11T10:42:16Z</time>
</trkpt>
<trkpt lat="47.916828" lon="10.700457">
<ele>658.707</ele>
<time>2020-09-11T10:42:17Z</time>
</trkpt>
<trkpt lat="47.916828" lon="10.700538">
<ele>658.707</ele>
<time>2020-09-11T10:42:18Z</time>
</trkpt>
<trkpt lat="47.916824" lon="10.700619">
<ele>658.707</ele>
<time>2020-09-11T10:42:19Z</time>
</trkpt>
<trkpt lat="47.916817" lon="10.7007">
<ele>658.707</ele>
<time>2020-09-11T10:42:20Z</time>
</trkpt>
<trkpt lat="47.916805" lon="10.700783">
<ele>658.707</ele>
<time>2020-09-11T10:42:21Z</time>
</trkpt>
<trkpt lat="47.916798" lon="10.700865">
<ele>658.707</ele>
<time>2020-09-11T10:42:22Z</time>
</trkpt>
<trkpt lat="47.91679" lon="10.700949">
<ele>658.707</ele>
<time>2020-09-11T10:42:23Z</time>
</trkpt>
<trkpt lat="47.916775" lon="10.701026">
<ele>658.707</ele>
<time>2020-09-11T10:42:24Z</time>
</trkpt>
<trkpt lat="47.916759" lon="10.701103">
<ele>658.707</ele>
<time>2020-09-11T10:42:25Z</time>
</trkpt>
<trkpt lat="47.916737" lon="10.701173">
<ele>658.707</ele>
<time>2020-09-11T10:42:26Z</time>
</trkpt>
<trkpt lat="47.916718" lon="10.70124">
<ele>658.707</ele>
<time>2020-09-11T10:42:27Z</time>
</trkpt>
<trkpt lat="47.916695" lon="10.70131">
<ele>658.707</ele>
<time>2020-09-11T10:42:28Z</time>
</trkpt>
<trkpt lat="47.916668" lon="10.701378">
<ele>658.707</ele>
<time>2020-09-11T10:42:29Z</time>
</trkpt>
<trkpt lat="47.916641" lon="10.701445">
<ele>658.707</ele>
<time>2020-09-11T10:42:30Z</time>
</trkpt>
<trkpt lat="47.916615" lon="10.701511">
<ele>658.707</ele>
<time>2020-09-11T10:42:31Z</time>
</trkpt>
<trkpt lat="47.916588" lon="10.701581">
<ele>658.707</ele>
<time>2020-09-11T10:42:32Z</time>
</trkpt>
<trkpt lat="47.916565" lon="10.701656">
<ele>658.707</ele>
<time>2020-09-11T10:42:33Z</time>
</trkpt>
<trkpt lat="47.916546" lon="10.701727">
<ele>658.937</ele>
<time>2020-09-11T10:42:34Z</time>
</trkpt>
<trkpt lat="47.916527" lon="10.701795">
<ele>659.115</ele>
<time>2020-09-11T10:42:35Z</time>
</trkpt>
<trkpt lat="47.916504" lon="10.701861">
<ele>659.252</ele>
<time>2020-09-11T10:42:36Z</time>
</trkpt>
<trkpt lat="47.916489" lon="10.701924">
<ele>659.347</ele>
<time>2020-09-11T10:42:37Z</time>
</trkpt>
<trkpt lat="47.916473" lon="10.701987">
<ele>659.444</ele>
<time>2020-09-11T10:42:38Z</time>
</trkpt>
<trkpt lat="47.916462" lon="10.702052">
<ele>659.767</ele>
<time>2020-09-11T10:42:39Z</time>
</trkpt>
<trkpt lat="47.916447" lon="10.702115">
<ele>660.026</ele>
<time>2020-09-11T10:42:40Z</time>
</trkpt>
<trkpt lat="47.916439" lon="10.70218">
<ele>660.197</ele>
<time>2020-09-11T10:42:41Z</time>
</trkpt>
<trkpt lat="47.91642" lon="10.702243">
<ele>660.712</ele>
<time>2020-09-11T10:42:42Z</time>
</trkpt>
<trkpt lat="47.916397" lon="10.702293">
<ele>661.017</ele>
<time>2020-09-11T10:42:43Z</time>
</trkpt>
<trkpt lat="47.916363" lon="10.702331">
<ele>661.252</ele>
<time>2020-09-11T10:42:44Z</time>
</trkpt>
<trkpt lat="47.916325" lon="10.702347">
<ele>661.378</ele>
<time>2020-09-11T10:42:45Z</time>
</trkpt>
<trkpt lat="47.916283" lon="10.702352">
<ele>661.702</ele>
<time>2020-09-11T10:42:46Z</time>
</trkpt>
<trkpt lat="47.916245" lon="10.702352">
<ele>661.945</ele>
<time>2020-09-11T10:42:47Z</time>
</trkpt>
<trkpt lat="47.916199" lon="10.702354">
<ele>662.174</ele>
<time>2020-09-11T10:42:48Z</time>
</trkpt>
<trkpt lat="47.916153" lon="10.702356">
<ele>662.341</ele>
<time>2020-09-11T10:42:49Z</time>
</trkpt>
<trkpt lat="47.916107" lon="10.702354">
<ele>662.451</ele>
<time>2020-09-11T10:42:50Z</time>
</trkpt>
<trkpt lat="47.916061" lon="10.702353">
<ele>662.532</ele>
<time>2020-09-11T10:42:51Z</time>
</trkpt>
<trkpt lat="47.916016" lon="10.70235">
<ele>662.58</ele>
<time>2020-09-11T10:42:52Z</time>
</trkpt>
<trkpt lat="47.91597" lon="10.702348">
<ele>662.604</ele>
<time>2020-09-11T10:42:53Z</time>
</trkpt>
<trkpt lat="47.91592" lon="10.702345">
<ele>662.604</ele>
<time>2020-09-11T10:42:54Z</time>
</trkpt>
<trkpt lat="47.915878" lon="10.702343">
<ele>662.604</ele>
<time>2020-09-11T10:42:55Z</time>
</trkpt>
<trkpt lat="47.915829" lon="10.702345">
<ele>662.604</ele>
<time>2020-09-11T10:42:56Z</time>
</trkpt>
<trkpt lat="47.915783" lon="10.702345">
<ele>662.604</ele>
<time>2020-09-11T10:42:57Z</time>
</trkpt>
<trkpt lat="47.915733" lon="10.702347">
<ele>662.844</ele>
<time>2020-09-11T10:42:58Z</time>
</trkpt>
<trkpt lat="47.915684" lon="10.70235">
<ele>663.045</ele>
<time>2020-09-11T10:42:59Z</time>
</trkpt>
<trkpt lat="47.915638" lon="10.702353">
<ele>663.208</ele>
<time>2020-09-11T10:43:00Z</time>
</trkpt>
<trkpt lat="47.915592" lon="10.70236">
<ele>663.337</ele>
<time>2020-09-11T10:43:01Z</time>
</trkpt>
<trkpt lat="47.915546" lon="10.702367">
<ele>663.438</ele>
<time>2020-09-11T10:43:02Z</time>
</trkpt>
<trkpt lat="47.915497" lon="10.702372">
<ele>663.51</ele>
<time>2020-09-11T10:43:03Z</time>
</trkpt>
<trkpt lat="47.915447" lon="10.702377">
<ele>663.556</ele>
<time>2020-09-11T10:43:04Z</time>
</trkpt>
<trkpt lat="47.915398" lon="10.702381">
<ele>663.578</ele>
<time>2020-09-11T10:43:05Z</time>
</trkpt>
<trkpt lat="47.915352" lon="10.702385">
<ele>663.578</ele>
<time>2020-09-11T10:43:06Z</time>
</trkpt>
<trkpt lat="47.915298" lon="10.702387">
<ele>663.579</ele>
<time>2020-09-11T10:43:07Z</time>
</trkpt>
<trkpt lat="47.915249" lon="10.702388">
<ele>663.578</ele>
<time>2020-09-11T10:43:08Z</time>
</trkpt>
<trkpt lat="47.915199" lon="10.702388">
<ele>663.579</ele>
<time>2020-09-11T10:43:09Z</time>
</trkpt>
<trkpt lat="47.915146" lon="10.702388">
<ele>663.841</ele>
<time>2020-09-11T10:43:10Z</time>
</trkpt>
<trkpt lat="47.915089" lon="10.702388">
<ele>664.042</ele>
<time>2020-09-11T10:43:11Z</time>
</trkpt>
<trkpt lat="47.915035" lon="10.70239">
<ele>664.189</ele>
<time>2020-09-11T10:43:12Z</time>
</trkpt>
<trkpt lat="47.914978" lon="10.70239">
<ele>664.299</ele>
<time>2020-09-11T10:43:13Z</time>
</trkpt>
<trkpt lat="47.914928" lon="10.702388">
<ele>664.374</ele>
<time>2020-09-11T10:43:14Z</time>
</trkpt>
<trkpt lat="47.914875" lon="10.702388">
<ele>664.42</ele>
<time>2020-09-11T10:43:15Z</time>
</trkpt>
<trkpt lat="47.914814" lon="10.702388">
<ele>664.445</ele>
<time>2020-09-11T10:43:16Z</time>
</trkpt>
<trkpt lat="47.914764" lon="10.702388">
<ele>664.465</ele>
<time>2020-09-11T10:43:17Z</time>
</trkpt>
<trkpt lat="47.914711" lon="10.702387">
<ele>664.724</ele>
<time>2020-09-11T10:43:18Z</time>
</trkpt>
<trkpt lat="47.914654" lon="10.702385">
<ele>664.939</ele>
<time>2020-09-11T10:43:19Z</time>
</trkpt>
<trkpt lat="47.9146" lon="10.702388">
<ele>665.118</ele>
<time>2020-09-11T10:43:20Z</time>
</trkpt>
<trkpt lat="47.914547" lon="10.702392">
<ele>665.262</ele>
<time>2020-09-11T10:43:21Z</time>
</trkpt>
<trkpt lat="47.914494" lon="10.702395">
<ele>665.373</ele>
<time>2020-09-11T10:43:22Z</time>
</trkpt>
<trkpt lat="47.91444" lon="10.7024">
<ele>665.451</ele>
<time>2020-09-11T10:43:23Z</time>
</trkpt>
<trkpt lat="47.914387" lon="10.702405">
<ele>665.503</ele>
<time>2020-09-11T10:43:24Z</time>
</trkpt>
<trkpt lat="47.914326" lon="10.702413">
<ele>665.528</ele>
<time>2020-09-11T10:43:25Z</time>
</trkpt>
<trkpt lat="47.914272" lon="10.702421">
<ele>665.528</ele>
<time>2020-09-11T10:43:26Z</time>
</trkpt>
<trkpt lat="47.914219" lon="10.702432">
<ele>665.528</ele>
<time>2020-09-11T10:43:27Z</time>
</trkpt>
<trkpt lat="47.914162" lon="10.702445">
<ele>665.528</ele>
<time>2020-09-11T10:43:28Z</time>
</trkpt>
<trkpt lat="47.914104" lon="10.702456">
<ele>665.528</ele>
<time>2020-09-11T10:43:29Z</time>
</trkpt>
<trkpt lat="47.914051" lon="10.702472">
<ele>665.528</ele>
<time>2020-09-11T10:43:30Z</time>
</trkpt>
<trkpt lat="47.913994" lon="10.702486">
<ele>665.528</ele>
<time>2020-09-11T10:43:31Z</time>
</trkpt>
<trkpt lat="47.913937" lon="10.702503">
<ele>665.528</ele>
<time>2020-09-11T10:43:32Z</time>
</trkpt>
<trkpt lat="47.913887" lon="10.702523">
<ele>665.528</ele>
<time>2020-09-11T10:43:33Z</time>
</trkpt>
<trkpt lat="47.91383" lon="10.702545">
<ele>665.528</ele>
<time>2020-09-11T10:43:34Z</time>
</trkpt>
<trkpt lat="47.913776" lon="10.702567">
<ele>665.528</ele>
<time>2020-09-11T10:43:35Z</time>
</trkpt>
<trkpt lat="47.913727" lon="10.702591">
<ele>665.528</ele>
<time>2020-09-11T10:43:36Z</time>
</trkpt>
<trkpt lat="47.913673" lon="10.702619">
<ele>665.528</ele>
<time>2020-09-11T10:43:37Z</time>
</trkpt>
<trkpt lat="47.913624" lon="10.702645">
<ele>665.528</ele>
<time>2020-09-11T10:43:38Z</time>
</trkpt>
<trkpt lat="47.91357" lon="10.702673">
<ele>665.528</ele>
<time>2020-09-11T10:43:39Z</time>
</trkpt>
<trkpt lat="47.913517" lon="10.702702">
<ele>665.811</ele>
<time>2020-09-11T10:43:40Z</time>
</trkpt>
<trkpt lat="47.913467" lon="10.702729">
<ele>666.029</ele>
<time>2020-09-11T10:43:41Z</time>
</trkpt>
<trkpt lat="47.91341" lon="10.702759">
<ele>666.194</ele>
<time>2020-09-11T10:43:42Z</time>
</trkpt>
<trkpt lat="47.913357" lon="10.702786">
<ele>666.316</ele>
<time>2020-09-11T10:43:43Z</time>
</trkpt>
<trkpt lat="47.913307" lon="10.702815">
<ele>666.4</ele>
<time>2020-09-11T10:43:44Z</time>
</trkpt>
<trkpt lat="47.91325" lon="10.702844">
<ele>666.452</ele>
<time>2020-09-11T10:43:45Z</time>
</trkpt>
<trkpt lat="47.9132" lon="10.702871">
<ele>666.481</ele>
<time>2020-09-11T10:43:46Z</time>
</trkpt>
<trkpt lat="47.913147" lon="10.702901">
<ele>666.503</ele>
<time>2020-09-11T10:43:47Z</time>
</trkpt>
<trkpt lat="47.91309" lon="10.702933">
<ele>666.503</ele>
<time>2020-09-11T10:43:48Z</time>
</trkpt>
<trkpt lat="47.91304" lon="10.702964">
<ele>666.503</ele>
<time>2020-09-11T10:43:49Z</time>
</trkpt>
<trkpt lat="47.912983" lon="10.702993">
<ele>666.503</ele>
<time>2020-09-11T10:43:50Z</time>
</trkpt>
<trkpt lat="47.91293" lon="10.703025">
<ele>666.503</ele>
<time>2020-09-11T10:43:51Z</time>
</trkpt>
<trkpt lat="47.91288" lon="10.703052">
<ele>666.503</ele>
<time>2020-09-11T10:43:52Z</time>
</trkpt>
<trkpt lat="47.912823" lon="10.703078">
<ele>666.761</ele>
<time>2020-09-11T10:43:53Z</time>
</trkpt>
<trkpt lat="47.912769" lon="10.703107">
<ele>666.962</ele>
<time>2020-09-11T10:43:54Z</time>
</trkpt>
<trkpt lat="47.912716" lon="10.703135">
<ele>667.119</ele>
<time>2020-09-11T10:43:55Z</time>
</trkpt>
<trkpt lat="47.912659" lon="10.703165">
<ele>667.233</ele>
<time>2020-09-11T10:43:56Z</time>
</trkpt>
<trkpt lat="47.912605" lon="10.703195">
<ele>667.316</ele>
<time>2020-09-11T10:43:57Z</time>
</trkpt>
<trkpt lat="47.912552" lon="10.703225">
<ele>667.399</ele>
<time>2020-09-11T10:43:58Z</time>
</trkpt>
<trkpt lat="47.912495" lon="10.703257">
<ele>667.452</ele>
<time>2020-09-11T10:43:59Z</time>
</trkpt>
<trkpt lat="47.912437" lon="10.703286">
<ele>667.478</ele>
<time>2020-09-11T10:44:00Z</time>
</trkpt>
<trkpt lat="47.912384" lon="10.703318">
<ele>667.478</ele>
<time>2020-09-11T10:44:01Z</time>
</trkpt>
<trkpt lat="47.912331" lon="10.703349">
<ele>667.478</ele>
<time>2020-09-11T10:44:02Z</time>
</trkpt>
<trkpt lat="47.912273" lon="10.703379">
<ele>667.478</ele>
<time>2020-09-11T10:44:03Z</time>
</trkpt>
<trkpt lat="47.912224" lon="10.70341">
<ele>667.477</ele>
<time>2020-09-11T10:44:04Z</time>
</trkpt>
<trkpt lat="47.912167" lon="10.70344">
<ele>667.478</ele>
<time>2020-09-11T10:44:05Z</time>
</trkpt>
<trkpt lat="47.912109" lon="10.703471">
<ele>667.478</ele>
<time>2020-09-11T10:44:06Z</time>
</trkpt>
<trkpt lat="47.912056" lon="10.703502">
<ele>667.478</ele>
<time>2020-09-11T10:44:07Z</time>
</trkpt>
<trkpt lat="47.912003" lon="10.703529">
<ele>667.478</ele>
<time>2020-09-11T10:44:08Z</time>
</trkpt>
<trkpt lat="47.911945" lon="10.703561">
<ele>667.478</ele>
<time>2020-09-11T10:44:09Z</time>
</trkpt>
<trkpt lat="47.911892" lon="10.70359">
<ele>667.785</ele>
<time>2020-09-11T10:44:10Z</time>
</trkpt>
<trkpt lat="47.911839" lon="10.70362">
<ele>668.022</ele>
<time>2020-09-11T10:44:11Z</time>
</trkpt>
<trkpt lat="47.911781" lon="10.70365">
<ele>668.203</ele>
<time>2020-09-11T10:44:12Z</time>
</trkpt>
<trkpt lat="47.911732" lon="10.70368">
<ele>668.337</ele>
<time>2020-09-11T10:44:13Z</time>
</trkpt>
<trkpt lat="47.911678" lon="10.703712">
<ele>668.427</ele>
<time>2020-09-11T10:44:14Z</time>
</trkpt>
<trkpt lat="47.911621" lon="10.703741">
<ele>668.489</ele>
<time>2020-09-11T10:44:15Z</time>
</trkpt>
<trkpt lat="47.911572" lon="10.703772">
<ele>668.516</ele>
<time>2020-09-11T10:44:16Z</time>
</trkpt>
<trkpt lat="47.911518" lon="10.703804">
<ele>668.541</ele>
<time>2020-09-11T10:44:17Z</time>
</trkpt>
<trkpt lat="47.911465" lon="10.703834">
<ele>668.541</ele>
<time>2020-09-11T10:44:18Z</time>
</trkpt>
<trkpt lat="47.911411" lon="10.703863">
<ele>668.541</ele>
<time>2020-09-11T10:44:19Z</time>
</trkpt>
<trkpt lat="47.911358" lon="10.703894">
<ele>668.541</ele>
<time>2020-09-11T10:44:20Z</time>
</trkpt>
<trkpt lat="47.911308" lon="10.703923">
<ele>668.541</ele>
<time>2020-09-11T10:44:21Z</time>
</trkpt>
<trkpt lat="47.911255" lon="10.703953">
<ele>668.541</ele>
<time>2020-09-11T10:44:22Z</time>
</trkpt>
<trkpt lat="47.911205" lon="10.703983">
<ele>668.541</ele>
<time>2020-09-11T10:44:23Z</time>
</trkpt>
<trkpt lat="47.911156" lon="10.704013">
<ele>668.541</ele>
<time>2020-09-11T10:44:24Z</time>
</trkpt>
<trkpt lat="47.911102" lon="10.704043">
<ele>668.76</ele>
<time>2020-09-11T10:44:25Z</time>
</trkpt>
<trkpt lat="47.911053" lon="10.704072">
<ele>668.935</ele>
<time>2020-09-11T10:44:26Z</time>
</trkpt>
<trkpt lat="47.910999" lon="10.7041">
<ele>669.057</ele>
<time>2020-09-11T10:44:27Z</time>
</trkpt>
<trkpt lat="47.91095" lon="10.704128">
<ele>669.186</ele>
<time>2020-09-11T10:44:28Z</time>
</trkpt>
<trkpt lat="47.910896" lon="10.704158">
<ele>669.288</ele>
<time>2020-09-11T10:44:29Z</time>
</trkpt>
<trkpt lat="47.910839" lon="10.704187">
<ele>669.36</ele>
<time>2020-09-11T10:44:30Z</time>
</trkpt>
<trkpt lat="47.910789" lon="10.704217">
<ele>669.406</ele>
<time>2020-09-11T10:44:31Z</time>
</trkpt>
<trkpt lat="47.910736" lon="10.704248">
<ele>669.428</ele>
<time>2020-09-11T10:44:32Z</time>
</trkpt>
<trkpt lat="47.910686" lon="10.704278">
<ele>669.428</ele>
<time>2020-09-11T10:44:33Z</time>
</trkpt>
<trkpt lat="47.910633" lon="10.70431">
<ele>669.68</ele>
<time>2020-09-11T10:44:34Z</time>
</trkpt>
<trkpt lat="47.91058" lon="10.704344">
<ele>669.876</ele>
<time>2020-09-11T10:44:35Z</time>
</trkpt>
<trkpt lat="47.91053" lon="10.704375">
<ele>670.029</ele>
<time>2020-09-11T10:44:36Z</time>
</trkpt>
<trkpt lat="47.910477" lon="10.704409">
<ele>670.132</ele>
<time>2020-09-11T10:44:37Z</time>
</trkpt>
<trkpt lat="47.910427" lon="10.704443">
<ele>670.246</ele>
<time>2020-09-11T10:44:38Z</time>
</trkpt>
<trkpt lat="47.910374" lon="10.704474">
<ele>670.327</ele>
<time>2020-09-11T10:44:39Z</time>
</trkpt>
<trkpt lat="47.910324" lon="10.704505">
<ele>670.378</ele>
<time>2020-09-11T10:44:40Z</time>
</trkpt>
<trkpt lat="47.910275" lon="10.704538">
<ele>670.403</ele>
<time>2020-09-11T10:44:41Z</time>
</trkpt>
<trkpt lat="47.910221" lon="10.704573">
<ele>670.403</ele>
<time>2020-09-11T10:44:42Z</time>
</trkpt>
<trkpt lat="47.910175" lon="10.70461">
<ele>670.403</ele>
<time>2020-09-11T10:44:43Z</time>
</trkpt>
<trkpt lat="47.910118" lon="10.704646">
<ele>670.403</ele>
<time>2020-09-11T10:44:44Z</time>
</trkpt>
<trkpt lat="47.910072" lon="10.704683">
<ele>670.403</ele>
<time>2020-09-11T10:44:45Z</time>
</trkpt>
<trkpt lat="47.910015" lon="10.704721">
<ele>670.642</ele>
<time>2020-09-11T10:44:46Z</time>
</trkpt>
<trkpt lat="47.909966" lon="10.70476">
<ele>670.812</ele>
<time>2020-09-11T10:44:47Z</time>
</trkpt>
<trkpt lat="47.909916" lon="10.7048">
<ele>670.987</ele>
<time>2020-09-11T10:44:48Z</time>
</trkpt>
<trkpt lat="47.909863" lon="10.704839">
<ele>671.124</ele>
<time>2020-09-11T10:44:49Z</time>
</trkpt>
<trkpt lat="47.909813" lon="10.704879">
<ele>671.23</ele>
<time>2020-09-11T10:44:50Z</time>
</trkpt>
<trkpt lat="47.90976" lon="10.704917">
<ele>671.306</ele>
<time>2020-09-11T10:44:51Z</time>
</trkpt>
<trkpt lat="47.90971" lon="10.704956">
<ele>671.354</ele>
<time>2020-09-11T10:44:52Z</time>
</trkpt>
<trkpt lat="47.909657" lon="10.704996">
<ele>671.378</ele>
<time>2020-09-11T10:44:53Z</time>
</trkpt>
<trkpt lat="47.909607" lon="10.705036">
<ele>671.378</ele>
<time>2020-09-11T10:44:54Z</time>
</trkpt>
<trkpt lat="47.909561" lon="10.705078">
<ele>671.378</ele>
<time>2020-09-11T10:44:55Z</time>
</trkpt>
<trkpt lat="47.909508" lon="10.705118">
<ele>671.378</ele>
<time>2020-09-11T10:44:56Z</time>
</trkpt>
<trkpt lat="47.909458" lon="10.705158">
<ele>671.378</ele>
<time>2020-09-11T10:44:57Z</time>
</trkpt>
<trkpt lat="47.909409" lon="10.705198">
<ele>671.378</ele>
<time>2020-09-11T10:44:58Z</time>
</trkpt>
<trkpt lat="47.909363" lon="10.70524">
<ele>671.378</ele>
<time>2020-09-11T10:44:59Z</time>
</trkpt>
<trkpt lat="47.909309" lon="10.70528">
<ele>671.378</ele>
<time>2020-09-11T10:45:00Z</time>
</trkpt>
<trkpt lat="47.90926" lon="10.70532">
<ele>671.378</ele>
<time>2020-09-11T10:45:01Z</time>
</trkpt>
<trkpt lat="47.90921" lon="10.705362">
<ele>671.378</ele>
<time>2020-09-11T10:45:02Z</time>
</trkpt>
<trkpt lat="47.909164" lon="10.705403">
<ele>671.378</ele>
<time>2020-09-11T10:45:03Z</time>
</trkpt>
<trkpt lat="47.909111" lon="10.705443">
<ele>671.378</ele>
<time>2020-09-11T10:45:04Z</time>
</trkpt>
<trkpt lat="47.909061" lon="10.705483">
<ele>671.6</ele>
<time>2020-09-11T10:45:05Z</time>
</trkpt>
<trkpt lat="47.909012" lon="10.705525">
<ele>671.776</ele>
<time>2020-09-11T10:45:06Z</time>
</trkpt>
<trkpt lat="47.908962" lon="10.705566">
<ele>671.895</ele>
<time>2020-09-11T10:45:07Z</time>
</trkpt>
<trkpt lat="47.908909" lon="10.705608">
<ele>672.026</ele>
<time>2020-09-11T10:45:08Z</time>
</trkpt>
<trkpt lat="47.908863" lon="10.705649">
<ele>672.126</ele>
<time>2020-09-11T10:45:09Z</time>
</trkpt>
<trkpt lat="47.90881" lon="10.705689">
<ele>672.198</ele>
<time>2020-09-11T10:45:10Z</time>
</trkpt>
<trkpt lat="47.90876" lon="10.705731">
<ele>672.243</ele>
<time>2020-09-11T10:45:11Z</time>
</trkpt>
<trkpt lat="47.908714" lon="10.705771">
<ele>672.265</ele>
<time>2020-09-11T10:45:12Z</time>
</trkpt>
<trkpt lat="47.908661" lon="10.705811">
<ele>672.265</ele>
<time>2020-09-11T10:45:13Z</time>
</trkpt>
<trkpt lat="47.908611" lon="10.705851">
<ele>672.265</ele>
<time>2020-09-11T10:45:14Z</time>
</trkpt>
<trkpt lat="47.908558" lon="10.705889">
<ele>672.265</ele>
<time>2020-09-11T10:45:15Z</time>
</trkpt>
<trkpt lat="47.908512" lon="10.70593">
<ele>672.265</ele>
<time>2020-09-11T10:45:16Z</time>
</trkpt>
<trkpt lat="47.908459" lon="10.705972">
<ele>672.265</ele>
<time>2020-09-11T10:45:17Z</time>
</trkpt>
<trkpt lat="47.908413" lon="10.706014">
<ele>672.265</ele>
<time>2020-09-11T10:45:18Z</time>
</trkpt>
<trkpt lat="47.90836" lon="10.706054">
<ele>672.265</ele>
<time>2020-09-11T10:45:19Z</time>
</trkpt>
<trkpt lat="47.90831" lon="10.706094">
<ele>672.265</ele>
<time>2020-09-11T10:45:20Z</time>
</trkpt>
<trkpt lat="47.90826" lon="10.706134">
<ele>672.265</ele>
<time>2020-09-11T10:45:21Z</time>
</trkpt>
<trkpt lat="47.908207" lon="10.706173">
<ele>672.265</ele>
<time>2020-09-11T10:45:22Z</time>
</trkpt>
<trkpt lat="47.908157" lon="10.706215">
<ele>672.265</ele>
<time>2020-09-11T10:45:23Z</time>
</trkpt>
<trkpt lat="47.908108" lon="10.706257">
<ele>672.515</ele>
<time>2020-09-11T10:45:24Z</time>
</trkpt>
<trkpt lat="47.908062" lon="10.706299">
<ele>672.712</ele>
<time>2020-09-11T10:45:25Z</time>
</trkpt>
<trkpt lat="47.908009" lon="10.70634">
<ele>672.866</ele>
<time>2020-09-11T10:45:26Z</time>
</trkpt>
<trkpt lat="47.907959" lon="10.70638">
<ele>672.969</ele>
<time>2020-09-11T10:45:27Z</time>
</trkpt>
<trkpt lat="47.907906" lon="10.706418">
<ele>673.083</ele>
<time>2020-09-11T10:45:28Z</time>
</trkpt>
<trkpt lat="47.907856" lon="10.706458">
<ele>673.164</ele>
<time>2020-09-11T10:45:29Z</time>
</trkpt>
<trkpt lat="47.907803" lon="10.706498">
<ele>673.215</ele>
<time>2020-09-11T10:45:30Z</time>
</trkpt>
<trkpt lat="47.907757" lon="10.706538">
<ele>673.241</ele>
<time>2020-09-11T10:45:31Z</time>
</trkpt>
<trkpt lat="47.907703" lon="10.706582">
<ele>673.241</ele>
<time>2020-09-11T10:45:32Z</time>
</trkpt>
<trkpt lat="47.907654" lon="10.706624">
<ele>673.241</ele>
<time>2020-09-11T10:45:33Z</time>
</trkpt>
<trkpt lat="47.907604" lon="10.706665">
<ele>673.24</ele>
<time>2020-09-11T10:45:34Z</time>
</trkpt>
<trkpt lat="47.907555" lon="10.706705">
<ele>673.241</ele>
<time>2020-09-11T10:45:35Z</time>
</trkpt>
<trkpt lat="47.907505" lon="10.706747">
<ele>673.24</ele>
<time>2020-09-11T10:45:36Z</time>
</trkpt>
<trkpt lat="47.907452" lon="10.706788">
<ele>673.241</ele>
<time>2020-09-11T10:45:37Z</time>
</trkpt>
<trkpt lat="47.907406" lon="10.70683">
<ele>673.241</ele>
<time>2020-09-11T10:45:38Z</time>
</trkpt>
<trkpt lat="47.907352" lon="10.706871">
<ele>673.241</ele>
<time>2020-09-11T10:45:39Z</time>
</trkpt>
<trkpt lat="47.907303" lon="10.706911">
<ele>673.24</ele>
<time>2020-09-11T10:45:40Z</time>
</trkpt>
<trkpt lat="47.907249" lon="10.706951">
<ele>673.241</ele>
<time>2020-09-11T10:45:41Z</time>
</trkpt>
<trkpt lat="47.9072" lon="10.706992">
<ele>673.241</ele>
<time>2020-09-11T10:45:42Z</time>
</trkpt>
<trkpt lat="47.907146" lon="10.707032">
<ele>673.241</ele>
<time>2020-09-11T10:45:43Z</time>
</trkpt>
<trkpt lat="47.907097" lon="10.707072">
<ele>673.241</ele>
<time>2020-09-11T10:45:44Z</time>
</trkpt>
<trkpt lat="47.907047" lon="10.707111">
<ele>673.241</ele>
<time>2020-09-11T10:45:45Z</time>
</trkpt>
<trkpt lat="47.906998" lon="10.707148">
<ele>673.241</ele>
<time>2020-09-11T10:45:46Z</time>
</trkpt>
<trkpt lat="47.906952" lon="10.707181">
<ele>673.24</ele>
<time>2020-09-11T10:45:47Z</time>
</trkpt>
<trkpt lat="47.906898" lon="10.707215">
<ele>673.24</ele>
<time>2020-09-11T10:45:48Z</time>
</trkpt>
<trkpt lat="47.906849" lon="10.70725">
<ele>673.241</ele>
<time>2020-09-11T10:45:49Z</time>
</trkpt>
<trkpt lat="47.906796" lon="10.707285">
<ele>673.241</ele>
<time>2020-09-11T10:45:50Z</time>
</trkpt>
<trkpt lat="47.906746" lon="10.707319">
<ele>673.241</ele>
<time>2020-09-11T10:45:51Z</time>
</trkpt>
<trkpt lat="47.906693" lon="10.707356">
<ele>673.241</ele>
<time>2020-09-11T10:45:52Z</time>
</trkpt>
<trkpt lat="47.906643" lon="10.707393">
<ele>673.241</ele>
<time>2020-09-11T10:45:53Z</time>
</trkpt>
<trkpt lat="47.906593" lon="10.70743">
<ele>673.241</ele>
<time>2020-09-11T10:45:54Z</time>
</trkpt>
<trkpt lat="47.906544" lon="10.707468">
<ele>673.485</ele>
<time>2020-09-11T10:45:55Z</time>
</trkpt>
<trkpt lat="47.906494" lon="10.707506">
<ele>673.676</ele>
<time>2020-09-11T10:45:56Z</time>
</trkpt>
<trkpt lat="47.906448" lon="10.707543">
<ele>673.808</ele>
<time>2020-09-11T10:45:57Z</time>
</trkpt>
<trkpt lat="47.906399" lon="10.70758">
<ele>673.95</ele>
<time>2020-09-11T10:45:58Z</time>
</trkpt>
<trkpt lat="47.906345" lon="10.707617">
<ele>674.06</ele>
<time>2020-09-11T10:45:59Z</time>
</trkpt>
<trkpt lat="47.906296" lon="10.707653">
<ele>674.14</ele>
<time>2020-09-11T10:46:00Z</time>
</trkpt>
<trkpt lat="47.906242" lon="10.707688">
<ele>674.192</ele>
<time>2020-09-11T10:46:01Z</time>
</trkpt>
<trkpt lat="47.906189" lon="10.707724">
<ele>674.216</ele>
<time>2020-09-11T10:46:02Z</time>
</trkpt>
<trkpt lat="47.906136" lon="10.707757">
<ele>674.216</ele>
<time>2020-09-11T10:46:03Z</time>
</trkpt>
<trkpt lat="47.906078" lon="10.707788">
<ele>674.216</ele>
<time>2020-09-11T10:46:04Z</time>
</trkpt>
<trkpt lat="47.906025" lon="10.70782">
<ele>674.216</ele>
<time>2020-09-11T10:46:05Z</time>
</trkpt>
<trkpt lat="47.905968" lon="10.707855">
<ele>674.216</ele>
<time>2020-09-11T10:46:06Z</time>
</trkpt>
<trkpt lat="47.905907" lon="10.70789">
<ele>674.216</ele>
<time>2020-09-11T10:46:07Z</time>
</trkpt>
<trkpt lat="47.905846" lon="10.70792">
<ele>674.216</ele>
<time>2020-09-11T10:46:08Z</time>
</trkpt>
<trkpt lat="47.905785" lon="10.707944">
<ele>674.216</ele>
<time>2020-09-11T10:46:09Z</time>
</trkpt>
<trkpt lat="47.905724" lon="10.707967">
<ele>674.216</ele>
<time>2020-09-11T10:46:10Z</time>
</trkpt>
<trkpt lat="47.905663" lon="10.70799">
<ele>674.216</ele>
<time>2020-09-11T10:46:11Z</time>
</trkpt>
<trkpt lat="47.905605" lon="10.708012">
<ele>674.216</ele>
<time>2020-09-11T10:46:12Z</time>
</trkpt>
<trkpt lat="47.905548" lon="10.708028">
<ele>674.216</ele>
<time>2020-09-11T10:46:13Z</time>
</trkpt>
<trkpt lat="47.905487" lon="10.708042">
<ele>674.216</ele>
<time>2020-09-11T10:46:14Z</time>
</trkpt>
<trkpt lat="47.905434" lon="10.708056">
<ele>674.216</ele>
<time>2020-09-11T10:46:15Z</time>
</trkpt>
<trkpt lat="47.905376" lon="10.708074">
<ele>674.216</ele>
<time>2020-09-11T10:46:16Z</time>
</trkpt>
<trkpt lat="47.905323" lon="10.708086">
<ele>674.216</ele>
<time>2020-09-11T10:46:17Z</time>
</trkpt>
<trkpt lat="47.905266" lon="10.7081">
<ele>674.216</ele>
<time>2020-09-11T10:46:18Z</time>
</trkpt>
<trkpt lat="47.905212" lon="10.708114">
<ele>674.216</ele>
<time>2020-09-11T10:46:19Z</time>
</trkpt>
<trkpt lat="47.905159" lon="10.708126">
<ele>674.216</ele>
<time>2020-09-11T10:46:20Z</time>
</trkpt>
<trkpt lat="47.905102" lon="10.708135">
<ele>674.216</ele>
<time>2020-09-11T10:46:21Z</time>
</trkpt>
<trkpt lat="47.905048" lon="10.708141">
<ele>674.455</ele>
<time>2020-09-11T10:46:22Z</time>
</trkpt>
<trkpt lat="47.904995" lon="10.708145">
<ele>674.642</ele>
<time>2020-09-11T10:46:23Z</time>
</trkpt>
<trkpt lat="47.904942" lon="10.708141">
<ele>674.786</ele>
<time>2020-09-11T10:46:24Z</time>
</trkpt>
<trkpt lat="47.904888" lon="10.708132">
<ele>674.897</ele>
<time>2020-09-11T10:46:25Z</time>
</trkpt>
<trkpt lat="47.904835" lon="10.708116">
<ele>674.972</ele>
<time>2020-09-11T10:46:26Z</time>
</trkpt>
<trkpt lat="47.904781" lon="10.7081">
<ele>675.029</ele>
<time>2020-09-11T10:46:27Z</time>
</trkpt>
<trkpt lat="47.904732" lon="10.708085">
<ele>675.079</ele>
<time>2020-09-11T10:46:28Z</time>
</trkpt>
<trkpt lat="47.904671" lon="10.708068">
<ele>675.103</ele>
<time>2020-09-11T10:46:29Z</time>
</trkpt>
<trkpt lat="47.904617" lon="10.708049">
<ele>675.103</ele>
<time>2020-09-11T10:46:30Z</time>
</trkpt>
<trkpt lat="47.904568" lon="10.708027">
<ele>675.103</ele>
<time>2020-09-11T10:46:31Z</time>
</trkpt>
<trkpt lat="47.904518" lon="10.708002">
<ele>675.103</ele>
<time>2020-09-11T10:46:32Z</time>
</trkpt>
<trkpt lat="47.904472" lon="10.707977">
<ele>675.103</ele>
<time>2020-09-11T10:46:33Z</time>
</trkpt>
<trkpt lat="47.904419" lon="10.707956">
<ele>675.103</ele>
<time>2020-09-11T10:46:34Z</time>
</trkpt>
<trkpt lat="47.904369" lon="10.707937">
<ele>675.103</ele>
<time>2020-09-11T10:46:35Z</time>
</trkpt>
<trkpt lat="47.904312" lon="10.707918">
<ele>675.103</ele>
<time>2020-09-11T10:46:36Z</time>
</trkpt>
<trkpt lat="47.904259" lon="10.707898">
<ele>675.318</ele>
<time>2020-09-11T10:46:37Z</time>
</trkpt>
<trkpt lat="47.904202" lon="10.707873">
<ele>675.527</ele>
<time>2020-09-11T10:46:38Z</time>
</trkpt>
<trkpt lat="47.904144" lon="10.707843">
<ele>675.702</ele>
<time>2020-09-11T10:46:39Z</time>
</trkpt>
<trkpt lat="47.904083" lon="10.707811">
<ele>675.84</ele>
<time>2020-09-11T10:46:40Z</time>
</trkpt>
<trkpt lat="47.904026" lon="10.707776">
<ele>675.942</ele>
<time>2020-09-11T10:46:41Z</time>
</trkpt>
<trkpt lat="47.903973" lon="10.70774">
<ele>676.012</ele>
<time>2020-09-11T10:46:42Z</time>
</trkpt>
<trkpt lat="47.903912" lon="10.707706">
<ele>676.057</ele>
<time>2020-09-11T10:46:43Z</time>
</trkpt>
<trkpt lat="47.903851" lon="10.707669">
<ele>676.079</ele>
<time>2020-09-11T10:46:44Z</time>
</trkpt>
<trkpt lat="47.90379" lon="10.707628">
<ele>676.079</ele>
<time>2020-09-11T10:46:45Z</time>
</trkpt>
<trkpt lat="47.903728" lon="10.707587">
<ele>676.079</ele>
<time>2020-09-11T10:46:46Z</time>
</trkpt>
<trkpt lat="47.903667" lon="10.70754">
<ele>676.079</ele>
<time>2020-09-11T10:46:47Z</time>
</trkpt>
<trkpt lat="47.903618" lon="10.70749">
<ele>676.079</ele>
<time>2020-09-11T10:46:48Z</time>
</trkpt>
<trkpt lat="47.903561" lon="10.707441">
<ele>676.079</ele>
<time>2020-09-11T10:46:49Z</time>
</trkpt>
<trkpt lat="47.903507" lon="10.707393">
<ele>676.079</ele>
<time>2020-09-11T10:46:50Z</time>
</trkpt>
<trkpt lat="47.903454" lon="10.707347">
<ele>676.079</ele>
<time>2020-09-11T10:46:51Z</time>
</trkpt>
<trkpt lat="47.9034" lon="10.7073">
<ele>676.079</ele>
<time>2020-09-11T10:46:52Z</time>
</trkpt>
<trkpt lat="47.903343" lon="10.707254">
<ele>676.079</ele>
<time>2020-09-11T10:46:53Z</time>
</trkpt>
<trkpt lat="47.90329" lon="10.707218">
<ele>676.079</ele>
<time>2020-09-11T10:46:54Z</time>
</trkpt>
<trkpt lat="47.903233" lon="10.707187">
<ele>676.32</ele>
<time>2020-09-11T10:46:55Z</time>
</trkpt>
<trkpt lat="47.903175" lon="10.707158">
<ele>676.513</ele>
<time>2020-09-11T10:46:56Z</time>
</trkpt>
<trkpt lat="47.903114" lon="10.707139">
<ele>676.645</ele>
<time>2020-09-11T10:46:57Z</time>
</trkpt>
<trkpt lat="47.903057" lon="10.707116">
<ele>676.787</ele>
<time>2020-09-11T10:46:58Z</time>
</trkpt>
<trkpt lat="47.902996" lon="10.707098">
<ele>676.898</ele>
<time>2020-09-11T10:46:59Z</time>
</trkpt>
<trkpt lat="47.902939" lon="10.70708">
<ele>676.978</ele>
<time>2020-09-11T10:47:00Z</time>
</trkpt>
<trkpt lat="47.902878" lon="10.707064">
<ele>677.03</ele>
<time>2020-09-11T10:47:01Z</time>
</trkpt>
<trkpt lat="47.902813" lon="10.707049">
<ele>677.055</ele>
<time>2020-09-11T10:47:02Z</time>
</trkpt>
<trkpt lat="47.902756" lon="10.707041">
<ele>677.054</ele>
<time>2020-09-11T10:47:03Z</time>
</trkpt>
<trkpt lat="47.902691" lon="10.707033">
<ele>677.055</ele>
<time>2020-09-11T10:47:04Z</time>
</trkpt>
<trkpt lat="47.90263" lon="10.707028">
<ele>677.298</ele>
<time>2020-09-11T10:47:05Z</time>
</trkpt>
<trkpt lat="47.902573" lon="10.707024">
<ele>677.492</ele>
<time>2020-09-11T10:47:06Z</time>
</trkpt>
<trkpt lat="47.902512" lon="10.707022">
<ele>677.624</ele>
<time>2020-09-11T10:47:07Z</time>
</trkpt>
<trkpt lat="47.902451" lon="10.707018">
<ele>677.766</ele>
<time>2020-09-11T10:47:08Z</time>
</trkpt>
<trkpt lat="47.90239" lon="10.707015">
<ele>677.876</ele>
<time>2020-09-11T10:47:09Z</time>
</trkpt>
<trkpt lat="47.902332" lon="10.707011">
<ele>677.948</ele>
<time>2020-09-11T10:47:10Z</time>
</trkpt>
<trkpt lat="47.902275" lon="10.707011">
<ele>678.218</ele>
<time>2020-09-11T10:47:11Z</time>
</trkpt>
<trkpt lat="47.902214" lon="10.707011">
<ele>678.424</ele>
<time>2020-09-11T10:47:12Z</time>
</trkpt>
<trkpt lat="47.902157" lon="10.707011">
<ele>678.397</ele>
<time>2020-09-11T10:47:13Z</time>
</trkpt>
<trkpt lat="47.902096" lon="10.707006">
<ele>678.334</ele>
<time>2020-09-11T10:47:14Z</time>
</trkpt>
<trkpt lat="47.902039" lon="10.707001">
<ele>678.275</ele>
<time>2020-09-11T10:47:15Z</time>
</trkpt>
<trkpt lat="47.901978" lon="10.706993">
<ele>678.41</ele>
<time>2020-09-11T10:47:16Z</time>
</trkpt>
<trkpt lat="47.901917" lon="10.706992">
<ele>678.45</ele>
<time>2020-09-11T10:47:17Z</time>
</trkpt>
<trkpt lat="47.901855" lon="10.706986">
<ele>678.559</ele>
<time>2020-09-11T10:47:18Z</time>
</trkpt>
<trkpt lat="47.901794" lon="10.706982">
<ele>678.693</ele>
<time>2020-09-11T10:47:19Z</time>
</trkpt>
<trkpt lat="47.901737" lon="10.70698">
<ele>678.752</ele>
<time>2020-09-11T10:47:20Z</time>
</trkpt>
<trkpt lat="47.901672" lon="10.706978">
<ele>678.806</ele>
<time>2020-09-11T10:47:21Z</time>
</trkpt>
<trkpt lat="47.901615" lon="10.706975">
<ele>678.855</ele>
<time>2020-09-11T10:47:22Z</time>
</trkpt>
<trkpt lat="47.90155" lon="10.706971">
<ele>678.897</ele>
<time>2020-09-11T10:47:23Z</time>
</trkpt>
<trkpt lat="47.901489" lon="10.706968">
<ele>678.918</ele>
<time>2020-09-11T10:47:24Z</time>
</trkpt>
<trkpt lat="47.901428" lon="10.706964">
<ele>678.918</ele>
<time>2020-09-11T10:47:25Z</time>
</trkpt>
<trkpt lat="47.901363" lon="10.706959">
<ele>678.918</ele>
<time>2020-09-11T10:47:26Z</time>
</trkpt>
<trkpt lat="47.901302" lon="10.706955">
<ele>678.918</ele>
<time>2020-09-11T10:47:27Z</time>
</trkpt>
<trkpt lat="47.901237" lon="10.706951">
<ele>678.918</ele>
<time>2020-09-11T10:47:28Z</time>
</trkpt>
<trkpt lat="47.901173" lon="10.706944">
<ele>678.918</ele>
<time>2020-09-11T10:47:29Z</time>
</trkpt>
<trkpt lat="47.901108" lon="10.706942">
<ele>678.918</ele>
<time>2020-09-11T10:47:30Z</time>
</trkpt>
<trkpt lat="47.901043" lon="10.70694">
<ele>678.918</ele>
<time>2020-09-11T10:47:31Z</time>
</trkpt>
<trkpt lat="47.900978" lon="10.706935">
<ele>678.918</ele>
<time>2020-09-11T10:47:32Z</time>
</trkpt>
<trkpt lat="47.900917" lon="10.70693">
<ele>678.918</ele>
<time>2020-09-11T10:47:33Z</time>
</trkpt>
<trkpt lat="47.900852" lon="10.706923">
<ele>678.918</ele>
<time>2020-09-11T10:47:34Z</time>
</trkpt>
<trkpt lat="47.900791" lon="10.706919">
<ele>678.918</ele>
<time>2020-09-11T10:47:35Z</time>
</trkpt>
<trkpt lat="47.900726" lon="10.706915">
<ele>678.918</ele>
<time>2020-09-11T10:47:36Z</time>
</trkpt>
<trkpt lat="47.900665" lon="10.706911">
<ele>678.918</ele>
<time>2020-09-11T10:47:37Z</time>
</trkpt>
<trkpt lat="47.900604" lon="10.70691">
<ele>678.918</ele>
<time>2020-09-11T10:47:38Z</time>
</trkpt>
<trkpt lat="47.900539" lon="10.70691">
<ele>679.206</ele>
<time>2020-09-11T10:47:39Z</time>
</trkpt>
<trkpt lat="47.900478" lon="10.706913">
<ele>679.432</ele>
<time>2020-09-11T10:47:40Z</time>
</trkpt>
<trkpt lat="47.900417" lon="10.70692">
<ele>679.604</ele>
<time>2020-09-11T10:47:41Z</time>
</trkpt>
<trkpt lat="47.900356" lon="10.706922">
<ele>679.729</ele>
<time>2020-09-11T10:47:42Z</time>
</trkpt>
<trkpt lat="47.900299" lon="10.706927">
<ele>679.816</ele>
<time>2020-09-11T10:47:43Z</time>
</trkpt>
<trkpt lat="47.900238" lon="10.706934">
<ele>679.869</ele>
<time>2020-09-11T10:47:44Z</time>
</trkpt>
<trkpt lat="47.900173" lon="10.70694">
<ele>679.894</ele>
<time>2020-09-11T10:47:45Z</time>
</trkpt>
<trkpt lat="47.900112" lon="10.70695">
<ele>679.894</ele>
<time>2020-09-11T10:47:46Z</time>
</trkpt>
<trkpt lat="47.900051" lon="10.706964">
<ele>679.894</ele>
<time>2020-09-11T10:47:47Z</time>
</trkpt>
<trkpt lat="47.899986" lon="10.70698">
<ele>679.894</ele>
<time>2020-09-11T10:47:48Z</time>
</trkpt>
<trkpt lat="47.899929" lon="10.707001">
<ele>679.894</ele>
<time>2020-09-11T10:47:49Z</time>
</trkpt>
<trkpt lat="47.899868" lon="10.707018">
<ele>679.894</ele>
<time>2020-09-11T10:47:50Z</time>
</trkpt>
<trkpt lat="47.899811" lon="10.707039">
<ele>679.894</ele>
<time>2020-09-11T10:47:51Z</time>
</trkpt>
<trkpt lat="47.89975" lon="10.70706">
<ele>679.894</ele>
<time>2020-09-11T10:47:52Z</time>
</trkpt>
<trkpt lat="47.899689" lon="10.707078">
<ele>679.894</ele>
<time>2020-09-11T10:47:53Z</time>
</trkpt>
<trkpt lat="47.899632" lon="10.707095">
<ele>679.894</ele>
<time>2020-09-11T10:47:54Z</time>
</trkpt>
<trkpt lat="47.89957" lon="10.707111">
<ele>679.894</ele>
<time>2020-09-11T10:47:55Z</time>
</trkpt>
<trkpt lat="47.899513" lon="10.707123">
<ele>679.894</ele>
<time>2020-09-11T10:47:56Z</time>
</trkpt>
<trkpt lat="47.899452" lon="10.707137">
<ele>679.894</ele>
<time>2020-09-11T10:47:57Z</time>
</trkpt>
<trkpt lat="47.899391" lon="10.70715">
<ele>679.894</ele>
<time>2020-09-11T10:47:58Z</time>
</trkpt>
<trkpt lat="47.899334" lon="10.70716">
<ele>679.894</ele>
<time>2020-09-11T10:47:59Z</time>
</trkpt>
<trkpt lat="47.899273" lon="10.707169">
<ele>679.894</ele>
<time>2020-09-11T10:48:00Z</time>
</trkpt>
<trkpt lat="47.899212" lon="10.707177">
<ele>679.894</ele>
<time>2020-09-11T10:48:01Z</time>
</trkpt>
<trkpt lat="47.899155" lon="10.707185">
<ele>679.894</ele>
<time>2020-09-11T10:48:02Z</time>
</trkpt>
<trkpt lat="47.899094" lon="10.707191">
<ele>680.152</ele>
<time>2020-09-11T10:48:03Z</time>
</trkpt>
<trkpt lat="47.899033" lon="10.707195">
<ele>680.354</ele>
<time>2020-09-11T10:48:04Z</time>
</trkpt>
<trkpt lat="47.898975" lon="10.7072">
<ele>680.51</ele>
<time>2020-09-11T10:48:05Z</time>
</trkpt>
<trkpt lat="47.898918" lon="10.707205">
<ele>680.626</ele>
<time>2020-09-11T10:48:06Z</time>
</trkpt>
<trkpt lat="47.898865" lon="10.707205">
<ele>680.706</ele>
<time>2020-09-11T10:48:07Z</time>
</trkpt>
<trkpt lat="47.898804" lon="10.707204">
<ele>680.79</ele>
<time>2020-09-11T10:48:08Z</time>
</trkpt>
<trkpt lat="47.898743" lon="10.707205">
<ele>680.842</ele>
<time>2020-09-11T10:48:09Z</time>
</trkpt>
<trkpt lat="47.898682" lon="10.707209">
<ele>681.086</ele>
<time>2020-09-11T10:48:10Z</time>
</trkpt>
<trkpt lat="47.898624" lon="10.707212">
<ele>681.327</ele>
<time>2020-09-11T10:48:11Z</time>
</trkpt>
<trkpt lat="47.898563" lon="10.707212">
<ele>681.48</ele>
<time>2020-09-11T10:48:12Z</time>
</trkpt>
<trkpt lat="47.898506" lon="10.707213">
<ele>681.591</ele>
<time>2020-09-11T10:48:13Z</time>
</trkpt>
<trkpt lat="47.898445" lon="10.707213">
<ele>681.665</ele>
<time>2020-09-11T10:48:14Z</time>
</trkpt>
<trkpt lat="47.89838" lon="10.707213">
<ele>681.716</ele>
<time>2020-09-11T10:48:15Z</time>
</trkpt>
<trkpt lat="47.898323" lon="10.707212">
<ele>681.738</ele>
<time>2020-09-11T10:48:16Z</time>
</trkpt>
<trkpt lat="47.898266" lon="10.707209">
<ele>681.758</ele>
<time>2020-09-11T10:48:17Z</time>
</trkpt>
<trkpt lat="47.898216" lon="10.707205">
<ele>681.758</ele>
<time>2020-09-11T10:48:18Z</time>
</trkpt>
<trkpt lat="47.898155" lon="10.7072">
<ele>681.758</ele>
<time>2020-09-11T10:48:19Z</time>
</trkpt>
<trkpt lat="47.898098" lon="10.707196">
<ele>681.758</ele>
<time>2020-09-11T10:48:20Z</time>
</trkpt>
<trkpt lat="47.898037" lon="10.707191">
<ele>681.758</ele>
<time>2020-09-11T10:48:21Z</time>
</trkpt>
<trkpt lat="47.897976" lon="10.707187">
<ele>681.758</ele>
<time>2020-09-11T10:48:22Z</time>
</trkpt>
<trkpt lat="47.897923" lon="10.707177">
<ele>681.758</ele>
<time>2020-09-11T10:48:23Z</time>
</trkpt>
<trkpt lat="47.897861" lon="10.707165">
<ele>681.758</ele>
<time>2020-09-11T10:48:24Z</time>
</trkpt>
<trkpt lat="47.897808" lon="10.707156">
<ele>681.758</ele>
<time>2020-09-11T10:48:25Z</time>
</trkpt>
<trkpt lat="47.897751" lon="10.707148">
<ele>681.758</ele>
<time>2020-09-11T10:48:26Z</time>
</trkpt>
<trkpt lat="47.897694" lon="10.707139">
<ele>681.994</ele>
<time>2020-09-11T10:48:27Z</time>
</trkpt>
<trkpt lat="47.897636" lon="10.707125">
<ele>682.216</ele>
<time>2020-09-11T10:48:28Z</time>
</trkpt>
<trkpt lat="47.897579" lon="10.707113">
<ele>682.398</ele>
<time>2020-09-11T10:48:29Z</time>
</trkpt>
<trkpt lat="47.897518" lon="10.707102">
<ele>682.548</ele>
<time>2020-09-11T10:48:30Z</time>
</trkpt>
<trkpt lat="47.897453" lon="10.707088">
<ele>682.665</ele>
<time>2020-09-11T10:48:31Z</time>
</trkpt>
<trkpt lat="47.897396" lon="10.707074">
<ele>682.746</ele>
<time>2020-09-11T10:48:32Z</time>
</trkpt>
<trkpt lat="47.897335" lon="10.707053">
<ele>682.798</ele>
<time>2020-09-11T10:48:33Z</time>
</trkpt>
<trkpt lat="47.897274" lon="10.707032">
<ele>682.823</ele>
<time>2020-09-11T10:48:34Z</time>
</trkpt>
<trkpt lat="47.897217" lon="10.707006">
<ele>682.823</ele>
<time>2020-09-11T10:48:35Z</time>
</trkpt>
<trkpt lat="47.897156" lon="10.70698">
<ele>682.823</ele>
<time>2020-09-11T10:48:36Z</time>
</trkpt>
<trkpt lat="47.897091" lon="10.70695">
<ele>682.823</ele>
<time>2020-09-11T10:48:37Z</time>
</trkpt>
<trkpt lat="47.897034" lon="10.706922">
<ele>682.823</ele>
<time>2020-09-11T10:48:38Z</time>
</trkpt>
<trkpt lat="47.896973" lon="10.706895">
<ele>682.823</ele>
<time>2020-09-11T10:48:39Z</time>
</trkpt>
<trkpt lat="47.896912" lon="10.706867">
<ele>682.823</ele>
<time>2020-09-11T10:48:40Z</time>
</trkpt>
<trkpt lat="47.896854" lon="10.70684">
<ele>682.823</ele>
<time>2020-09-11T10:48:41Z</time>
</trkpt>
<trkpt lat="47.896801" lon="10.706813">
<ele>682.823</ele>
<time>2020-09-11T10:48:42Z</time>
</trkpt>
<trkpt lat="47.896748" lon="10.706785">
<ele>682.823</ele>
<time>2020-09-11T10:48:43Z</time>
</trkpt>
<trkpt lat="47.896687" lon="10.706757">
<ele>682.823</ele>
<time>2020-09-11T10:48:44Z</time>
</trkpt>
<trkpt lat="47.896633" lon="10.70673">
<ele>682.823</ele>
<time>2020-09-11T10:48:45Z</time>
</trkpt>
<trkpt lat="47.896576" lon="10.706707">
<ele>683.057</ele>
<time>2020-09-11T10:48:46Z</time>
</trkpt>
<trkpt lat="47.896519" lon="10.706685">
<ele>683.226</ele>
<time>2020-09-11T10:48:47Z</time>
</trkpt>
<trkpt lat="47.896461" lon="10.706666">
<ele>683.401</ele>
<time>2020-09-11T10:48:48Z</time>
</trkpt>
<trkpt lat="47.896408" lon="10.706654">
<ele>683.541</ele>
<time>2020-09-11T10:48:49Z</time>
</trkpt>
<trkpt lat="47.896351" lon="10.70664">
<ele>683.648</ele>
<time>2020-09-11T10:48:50Z</time>
</trkpt>
<trkpt lat="47.896294" lon="10.70663">
<ele>683.726</ele>
<time>2020-09-11T10:48:51Z</time>
</trkpt>
<trkpt lat="47.896233" lon="10.706625">
<ele>683.775</ele>
<time>2020-09-11T10:48:52Z</time>
</trkpt>
<trkpt lat="47.896179" lon="10.706622">
<ele>683.799</ele>
<time>2020-09-11T10:48:53Z</time>
</trkpt>
<trkpt lat="47.896122" lon="10.706624">
<ele>683.799</ele>
<time>2020-09-11T10:48:54Z</time>
</trkpt>
<trkpt lat="47.896065" lon="10.706624">
<ele>683.799</ele>
<time>2020-09-11T10:48:55Z</time>
</trkpt>
<trkpt lat="47.896015" lon="10.706624">
<ele>683.799</ele>
<time>2020-09-11T10:48:56Z</time>
</trkpt>
<trkpt lat="47.895966" lon="10.706624">
<ele>683.799</ele>
<time>2020-09-11T10:48:57Z</time>
</trkpt>
<trkpt lat="47.895931" lon="10.706618">
<ele>683.799</ele>
<time>2020-09-11T10:48:58Z</time>
</trkpt>
<trkpt lat="47.895897" lon="10.706615">
<ele>683.799</ele>
<time>2020-09-11T10:48:59Z</time>
</trkpt>
<trkpt lat="47.895866" lon="10.706603">
<ele>683.799</ele>
<time>2020-09-11T10:49:00Z</time>
</trkpt>
<trkpt lat="47.895836" lon="10.706582">
<ele>683.799</ele>
<time>2020-09-11T10:49:01Z</time>
</trkpt>
<trkpt lat="47.895802" lon="10.706554">
<ele>683.799</ele>
<time>2020-09-11T10:49:02Z</time>
</trkpt>
<trkpt lat="47.895771" lon="10.706523">
<ele>683.799</ele>
<time>2020-09-11T10:49:03Z</time>
</trkpt>
<trkpt lat="47.895733" lon="10.706488">
<ele>683.799</ele>
<time>2020-09-11T10:49:04Z</time>
</trkpt>
<trkpt lat="47.895699" lon="10.706451">
<ele>683.799</ele>
<time>2020-09-11T10:49:05Z</time>
</trkpt>
<trkpt lat="47.895664" lon="10.706422">
<ele>683.799</ele>
<time>2020-09-11T10:49:06Z</time>
</trkpt>
<trkpt lat="47.89563" lon="10.706395">
<ele>683.799</ele>
<time>2020-09-11T10:49:07Z</time>
</trkpt>
<trkpt lat="47.895599" lon="10.70637">
<ele>683.799</ele>
<time>2020-09-11T10:49:08Z</time>
</trkpt>
<trkpt lat="47.895569" lon="10.706342">
<ele>683.799</ele>
<time>2020-09-11T10:49:09Z</time>
</trkpt>
<trkpt lat="47.895535" lon="10.706311">
<ele>683.799</ele>
<time>2020-09-11T10:49:10Z</time>
</trkpt>
<trkpt lat="47.8955" lon="10.706278">
<ele>683.799</ele>
<time>2020-09-11T10:49:11Z</time>
</trkpt>
<trkpt lat="47.895466" lon="10.70625">
<ele>683.799</ele>
<time>2020-09-11T10:49:12Z</time>
</trkpt>
<trkpt lat="47.895428" lon="10.706223">
<ele>683.799</ele>
<time>2020-09-11T10:49:13Z</time>
</trkpt>
<trkpt lat="47.89539" lon="10.706197">
<ele>683.799</ele>
<time>2020-09-11T10:49:14Z</time>
</trkpt>
<trkpt lat="47.895351" lon="10.706169">
<ele>684.05</ele>
<time>2020-09-11T10:49:15Z</time>
</trkpt>
<trkpt lat="47.895313" lon="10.706137">
<ele>684.248</ele>
<time>2020-09-11T10:49:16Z</time>
</trkpt>
<trkpt lat="47.895275" lon="10.706106">
<ele>684.377</ele>
<time>2020-09-11T10:49:17Z</time>
</trkpt>
<trkpt lat="47.895229" lon="10.706077">
<ele>684.52</ele>
<time>2020-09-11T10:49:18Z</time>
</trkpt>
<trkpt lat="47.895184" lon="10.706047">
<ele>684.626</ele>
<time>2020-09-11T10:49:19Z</time>
</trkpt>
<trkpt lat="47.895138" lon="10.70602">
<ele>684.705</ele>
<time>2020-09-11T10:49:20Z</time>
</trkpt>
<trkpt lat="47.895096" lon="10.705994">
<ele>684.753</ele>
<time>2020-09-11T10:49:21Z</time>
</trkpt>
<trkpt lat="47.89505" lon="10.705968">
<ele>684.776</ele>
<time>2020-09-11T10:49:22Z</time>
</trkpt>
<trkpt lat="47.895004" lon="10.705945">
<ele>684.776</ele>
<time>2020-09-11T10:49:23Z</time>
</trkpt>
<trkpt lat="47.894958" lon="10.705922">
<ele>684.776</ele>
<time>2020-09-11T10:49:24Z</time>
</trkpt>
<trkpt lat="47.894913" lon="10.705901">
<ele>684.776</ele>
<time>2020-09-11T10:49:25Z</time>
</trkpt>
<trkpt lat="47.894863" lon="10.705885">
<ele>684.776</ele>
<time>2020-09-11T10:49:26Z</time>
</trkpt>
<trkpt lat="47.894814" lon="10.70587">
<ele>684.776</ele>
<time>2020-09-11T10:49:27Z</time>
</trkpt>
<trkpt lat="47.89476" lon="10.705852">
<ele>684.776</ele>
<time>2020-09-11T10:49:28Z</time>
</trkpt>
<trkpt lat="47.894714" lon="10.705833">
<ele>684.776</ele>
<time>2020-09-11T10:49:29Z</time>
</trkpt>
<trkpt lat="47.894665" lon="10.705812">
<ele>684.776</ele>
<time>2020-09-11T10:49:30Z</time>
</trkpt>
<trkpt lat="47.894619" lon="10.705791">
<ele>684.776</ele>
<time>2020-09-11T10:49:31Z</time>
</trkpt>
<trkpt lat="47.894569" lon="10.705769">
<ele>684.776</ele>
<time>2020-09-11T10:49:32Z</time>
</trkpt>
<trkpt lat="47.894527" lon="10.705749">
<ele>684.776</ele>
<time>2020-09-11T10:49:33Z</time>
</trkpt>
<trkpt lat="47.894478" lon="10.705729">
<ele>684.776</ele>
<time>2020-09-11T10:49:34Z</time>
</trkpt>
<trkpt lat="47.894432" lon="10.705709">
<ele>684.776</ele>
<time>2020-09-11T10:49:35Z</time>
</trkpt>
<trkpt lat="47.894386" lon="10.705689">
<ele>684.776</ele>
<time>2020-09-11T10:49:36Z</time>
</trkpt>
<trkpt lat="47.894337" lon="10.705672">
<ele>685.011</ele>
<time>2020-09-11T10:49:37Z</time>
</trkpt>
<trkpt lat="47.894295" lon="10.705653">
<ele>685.234</ele>
<time>2020-09-11T10:49:38Z</time>
</trkpt>
<trkpt lat="47.894249" lon="10.705635">
<ele>685.418</ele>
<time>2020-09-11T10:49:39Z</time>
</trkpt>
<trkpt lat="47.894207" lon="10.705618">
<ele>685.564</ele>
<time>2020-09-11T10:49:40Z</time>
</trkpt>
<trkpt lat="47.894165" lon="10.705599">
<ele>685.679</ele>
<time>2020-09-11T10:49:41Z</time>
</trkpt>
<trkpt lat="47.894119" lon="10.705585">
<ele>685.751</ele>
<time>2020-09-11T10:49:42Z</time>
</trkpt>
<trkpt lat="47.894073" lon="10.70557">
<ele>686.021</ele>
<time>2020-09-11T10:49:43Z</time>
</trkpt>
<trkpt lat="47.894032" lon="10.705557">
<ele>686.233</ele>
<time>2020-09-11T10:49:44Z</time>
</trkpt>
<trkpt lat="47.89399" lon="10.705544">
<ele>686.395</ele>
<time>2020-09-11T10:49:45Z</time>
</trkpt>
<trkpt lat="47.893944" lon="10.70553">
<ele>686.505</ele>
<time>2020-09-11T10:49:46Z</time>
</trkpt>
<trkpt lat="47.893898" lon="10.70552">
<ele>686.58</ele>
<time>2020-09-11T10:49:47Z</time>
</trkpt>
<trkpt lat="47.893848" lon="10.705507">
<ele>686.659</ele>
<time>2020-09-11T10:49:48Z</time>
</trkpt>
<trkpt lat="47.893799" lon="10.705495">
<ele>686.706</ele>
<time>2020-09-11T10:49:49Z</time>
</trkpt>
<trkpt lat="47.893749" lon="10.705484">
<ele>686.729</ele>
<time>2020-09-11T10:49:50Z</time>
</trkpt>
<trkpt lat="47.893696" lon="10.70548">
<ele>686.729</ele>
<time>2020-09-11T10:49:51Z</time>
</trkpt>
<trkpt lat="47.893642" lon="10.705475">
<ele>686.729</ele>
<time>2020-09-11T10:49:52Z</time>
</trkpt>
<trkpt lat="47.893593" lon="10.705472">
<ele>686.993</ele>
<time>2020-09-11T10:49:53Z</time>
</trkpt>
<trkpt lat="47.893543" lon="10.705468">
<ele>687.195</ele>
<time>2020-09-11T10:49:54Z</time>
</trkpt>
<trkpt lat="47.89349" lon="10.705467">
<ele>687.347</ele>
<time>2020-09-11T10:49:55Z</time>
</trkpt>
<trkpt lat="47.89344" lon="10.705463">
<ele>687.463</ele>
<time>2020-09-11T10:49:56Z</time>
</trkpt>
<trkpt lat="47.893391" lon="10.70546">
<ele>687.543</ele>
<time>2020-09-11T10:49:57Z</time>
</trkpt>
<trkpt lat="47.893337" lon="10.705459">
<ele>687.626</ele>
<time>2020-09-11T10:49:58Z</time>
</trkpt>
<trkpt lat="47.893288" lon="10.705459">
<ele>687.68</ele>
<time>2020-09-11T10:49:59Z</time>
</trkpt>
<trkpt lat="47.89323" lon="10.705457">
<ele>687.706</ele>
<time>2020-09-11T10:50:00Z</time>
</trkpt>
<trkpt lat="47.893181" lon="10.705457">
<ele>687.706</ele>
<time>2020-09-11T10:50:01Z</time>
</trkpt>
<trkpt lat="47.893127" lon="10.705455">
<ele>687.706</ele>
<time>2020-09-11T10:50:02Z</time>
</trkpt>
<trkpt lat="47.893074" lon="10.705453">
<ele>687.706</ele>
<time>2020-09-11T10:50:03Z</time>
</trkpt>
<trkpt lat="47.893021" lon="10.705453">
<ele>687.706</ele>
<time>2020-09-11T10:50:04Z</time>
</trkpt>
<trkpt lat="47.892967" lon="10.705455">
<ele>687.706</ele>
<time>2020-09-11T10:50:05Z</time>
</trkpt>
<trkpt lat="47.892918" lon="10.705453">
<ele>687.943</ele>
<time>2020-09-11T10:50:06Z</time>
</trkpt>
<trkpt lat="47.892868" lon="10.705452">
<ele>688.112</ele>
<time>2020-09-11T10:50:07Z</time>
</trkpt>
<trkpt lat="47.892811" lon="10.705452">
<ele>688.286</ele>
<time>2020-09-11T10:50:08Z</time>
</trkpt>
<trkpt lat="47.892761" lon="10.705448">
<ele>688.426</ele>
<time>2020-09-11T10:50:09Z</time>
</trkpt>
<trkpt lat="47.892704" lon="10.705444">
<ele>688.532</ele>
<time>2020-09-11T10:50:10Z</time>
</trkpt>
<trkpt lat="47.892651" lon="10.705441">
<ele>688.61</ele>
<time>2020-09-11T10:50:11Z</time>
</trkpt>
<trkpt lat="47.892597" lon="10.705437">
<ele>688.659</ele>
<time>2020-09-11T10:50:12Z</time>
</trkpt>
<trkpt lat="47.892544" lon="10.705434">
<ele>688.683</ele>
<time>2020-09-11T10:50:13Z</time>
</trkpt>
<trkpt lat="47.892487" lon="10.70543">
<ele>688.683</ele>
<time>2020-09-11T10:50:14Z</time>
</trkpt>
<trkpt lat="47.892437" lon="10.705425">
<ele>688.683</ele>
<time>2020-09-11T10:50:15Z</time>
</trkpt>
<trkpt lat="47.89238" lon="10.70542">
<ele>688.683</ele>
<time>2020-09-11T10:50:16Z</time>
</trkpt>
<trkpt lat="47.892326" lon="10.705415">
<ele>688.9</ele>
<time>2020-09-11T10:50:17Z</time>
</trkpt>
<trkpt lat="47.892273" lon="10.70541">
<ele>689.105</ele>
<time>2020-09-11T10:50:18Z</time>
</trkpt>
<trkpt lat="47.89222" lon="10.705405">
<ele>689.273</ele>
<time>2020-09-11T10:50:19Z</time>
</trkpt>
<trkpt lat="47.892166" lon="10.7054">
<ele>689.408</ele>
<time>2020-09-11T10:50:20Z</time>
</trkpt>
<trkpt lat="47.892113" lon="10.705399">
<ele>689.513</ele>
<time>2020-09-11T10:50:21Z</time>
</trkpt>
<trkpt lat="47.892059" lon="10.705394">
<ele>689.588</ele>
<time>2020-09-11T10:50:22Z</time>
</trkpt>
<trkpt lat="47.892014" lon="10.705387">
<ele>689.636</ele>
<time>2020-09-11T10:50:23Z</time>
</trkpt>
<trkpt lat="47.89196" lon="10.705383">
<ele>689.66</ele>
<time>2020-09-11T10:50:24Z</time>
</trkpt>
<trkpt lat="47.891911" lon="10.705383">
<ele>689.878</ele>
<time>2020-09-11T10:50:25Z</time>
</trkpt>
<trkpt lat="47.891857" lon="10.705387">
<ele>690.052</ele>
<time>2020-09-11T10:50:26Z</time>
</trkpt>
<trkpt lat="47.891815" lon="10.705392">
<ele>690.174</ele>
<time>2020-09-11T10:50:27Z</time>
</trkpt>
<trkpt lat="47.891766" lon="10.705402">
<ele>690.302</ele>
<time>2020-09-11T10:50:28Z</time>
</trkpt>
<trkpt lat="47.89172" lon="10.705411">
<ele>690.405</ele>
<time>2020-09-11T10:50:29Z</time>
</trkpt>
<trkpt lat="47.89167" lon="10.705421">
<ele>690.474</ele>
<time>2020-09-11T10:50:30Z</time>
</trkpt>
<trkpt lat="47.891628" lon="10.705432">
<ele>690.778</ele>
<time>2020-09-11T10:50:31Z</time>
</trkpt>
<trkpt lat="47.891582" lon="10.705441">
<ele>691.017</ele>
<time>2020-09-11T10:50:32Z</time>
</trkpt>
<trkpt lat="47.891537" lon="10.705453">
<ele>691.252</ele>
<time>2020-09-11T10:50:33Z</time>
</trkpt>
<trkpt lat="47.891495" lon="10.705467">
<ele>691.359</ele>
<time>2020-09-11T10:50:34Z</time>
</trkpt>
<trkpt lat="47.891453" lon="10.705478">
<ele>691.72</ele>
<time>2020-09-11T10:50:35Z</time>
</trkpt>
<trkpt lat="47.891407" lon="10.705492">
<ele>691.997</ele>
<time>2020-09-11T10:50:36Z</time>
</trkpt>
<trkpt lat="47.891369" lon="10.705503">
<ele>692.198</ele>
<time>2020-09-11T10:50:37Z</time>
</trkpt>
<trkpt lat="47.891327" lon="10.705517">
<ele>692.387</ele>
<time>2020-09-11T10:50:38Z</time>
</trkpt>
<trkpt lat="47.891281" lon="10.705528">
<ele>692.5</ele>
<time>2020-09-11T10:50:39Z</time>
</trkpt>
<trkpt lat="47.891239" lon="10.705544">
<ele>692.827</ele>
<time>2020-09-11T10:50:40Z</time>
</trkpt>
<trkpt lat="47.891201" lon="10.705558">
<ele>693.086</ele>
<time>2020-09-11T10:50:41Z</time>
</trkpt>
<trkpt lat="47.891159" lon="10.705574">
<ele>693.247</ele>
<time>2020-09-11T10:50:42Z</time>
</trkpt>
<trkpt lat="47.891117" lon="10.705586">
<ele>693.706</ele>
<time>2020-09-11T10:50:43Z</time>
</trkpt>
<trkpt lat="47.891075" lon="10.705597">
<ele>694</ele>
<time>2020-09-11T10:50:44Z</time>
</trkpt>
<trkpt lat="47.891037" lon="10.705606">
<ele>694.215</ele>
<time>2020-09-11T10:50:45Z</time>
</trkpt>
<trkpt lat="47.890995" lon="10.705615">
<ele>694.336</ele>
<time>2020-09-11T10:50:46Z</time>
</trkpt>
<trkpt lat="47.890953" lon="10.705625">
<ele>694.667</ele>
<time>2020-09-11T10:50:47Z</time>
</trkpt>
<trkpt lat="47.890911" lon="10.705637">
<ele>694.937</ele>
<time>2020-09-11T10:50:48Z</time>
</trkpt>
<trkpt lat="47.890873" lon="10.705648">
<ele>695.123</ele>
<time>2020-09-11T10:50:49Z</time>
</trkpt>
<trkpt lat="47.890831" lon="10.705656">
<ele>695.518</ele>
<time>2020-09-11T10:50:50Z</time>
</trkpt>
<trkpt lat="47.890789" lon="10.705664">
<ele>695.819</ele>
<time>2020-09-11T10:50:51Z</time>
</trkpt>
<trkpt lat="47.890747" lon="10.705672">
<ele>696.058</ele>
<time>2020-09-11T10:50:52Z</time>
</trkpt>
<trkpt lat="47.890705" lon="10.705679">
<ele>696.234</ele>
<time>2020-09-11T10:50:53Z</time>
</trkpt>
<trkpt lat="47.890659" lon="10.705682">
<ele>696.359</ele>
<time>2020-09-11T10:50:54Z</time>
</trkpt>
<trkpt lat="47.890617" lon="10.705682">
<ele>696.449</ele>
<time>2020-09-11T10:50:55Z</time>
</trkpt>
<trkpt lat="47.890572" lon="10.70568">
<ele>696.479</ele>
<time>2020-09-11T10:50:56Z</time>
</trkpt>
<trkpt lat="47.890526" lon="10.705675">
<ele>696.502</ele>
<time>2020-09-11T10:50:57Z</time>
</trkpt>
<trkpt lat="47.89048" lon="10.70567">
<ele>696.502</ele>
<time>2020-09-11T10:50:58Z</time>
</trkpt>
<trkpt lat="47.890434" lon="10.705664">
<ele>696.8</ele>
<time>2020-09-11T10:50:59Z</time>
</trkpt>
<trkpt lat="47.890385" lon="10.705655">
<ele>697.026</ele>
<time>2020-09-11T10:51:00Z</time>
</trkpt>
<trkpt lat="47.890339" lon="10.705644">
<ele>697.201</ele>
<time>2020-09-11T10:51:01Z</time>
</trkpt>
<trkpt lat="47.890293" lon="10.70563">
<ele>697.322</ele>
<time>2020-09-11T10:51:02Z</time>
</trkpt>
<trkpt lat="47.890244" lon="10.705615">
<ele>697.404</ele>
<time>2020-09-11T10:51:03Z</time>
</trkpt>
<trkpt lat="47.890194" lon="10.705599">
<ele>697.456</ele>
<time>2020-09-11T10:51:04Z</time>
</trkpt>
<trkpt lat="47.890148" lon="10.70558">
<ele>697.479</ele>
<time>2020-09-11T10:51:05Z</time>
</trkpt>
<trkpt lat="47.890099" lon="10.70556">
<ele>697.479</ele>
<time>2020-09-11T10:51:06Z</time>
</trkpt>
<trkpt lat="47.890053" lon="10.705541">
<ele>697.479</ele>
<time>2020-09-11T10:51:07Z</time>
</trkpt>
<trkpt lat="47.890007" lon="10.705518">
<ele>697.479</ele>
<time>2020-09-11T10:51:08Z</time>
</trkpt>
<trkpt lat="47.889965" lon="10.705495">
<ele>697.479</ele>
<time>2020-09-11T10:51:09Z</time>
</trkpt>
<trkpt lat="47.889919" lon="10.705468">
<ele>697.479</ele>
<time>2020-09-11T10:51:10Z</time>
</trkpt>
<trkpt lat="47.889877" lon="10.70544">
<ele>697.479</ele>
<time>2020-09-11T10:51:11Z</time>
</trkpt>
<trkpt lat="47.889835" lon="10.705411">
<ele>697.479</ele>
<time>2020-09-11T10:51:12Z</time>
</trkpt>
<trkpt lat="47.889801" lon="10.705387">
<ele>697.479</ele>
<time>2020-09-11T10:51:13Z</time>
</trkpt>
<trkpt lat="47.889759" lon="10.70536">
<ele>697.479</ele>
<time>2020-09-11T10:51:14Z</time>
</trkpt>
<trkpt lat="47.889717" lon="10.705332">
<ele>697.479</ele>
<time>2020-09-11T10:51:15Z</time>
</trkpt>
<trkpt lat="47.889675" lon="10.705306">
<ele>697.479</ele>
<time>2020-09-11T10:51:16Z</time>
</trkpt>
<trkpt lat="47.889641" lon="10.70528">
<ele>697.479</ele>
<time>2020-09-11T10:51:17Z</time>
</trkpt>
<trkpt lat="47.889599" lon="10.705256">
<ele>697.479</ele>
<time>2020-09-11T10:51:18Z</time>
</trkpt>
<trkpt lat="47.889553" lon="10.705233">
<ele>697.479</ele>
<time>2020-09-11T10:51:19Z</time>
</trkpt>
<trkpt lat="47.889511" lon="10.70521">
<ele>697.479</ele>
<time>2020-09-11T10:51:20Z</time>
</trkpt>
<trkpt lat="47.889469" lon="10.705187">
<ele>697.479</ele>
<time>2020-09-11T10:51:21Z</time>
</trkpt>
<trkpt lat="47.889423" lon="10.705163">
<ele>697.479</ele>
<time>2020-09-11T10:51:22Z</time>
</trkpt>
<trkpt lat="47.889381" lon="10.705145">
<ele>697.479</ele>
<time>2020-09-11T10:51:23Z</time>
</trkpt>
<trkpt lat="47.889332" lon="10.705126">
<ele>697.479</ele>
<time>2020-09-11T10:51:24Z</time>
</trkpt>
<trkpt lat="47.889286" lon="10.705107">
<ele>697.479</ele>
<time>2020-09-11T10:51:25Z</time>
</trkpt>
<trkpt lat="47.88924" lon="10.705091">
<ele>697.479</ele>
<time>2020-09-11T10:51:26Z</time>
</trkpt>
<trkpt lat="47.889191" lon="10.705077">
<ele>697.479</ele>
<time>2020-09-11T10:51:27Z</time>
</trkpt>
<trkpt lat="47.889145" lon="10.70506">
<ele>697.479</ele>
<time>2020-09-11T10:51:28Z</time>
</trkpt>
<trkpt lat="47.889095" lon="10.705047">
<ele>697.479</ele>
<time>2020-09-11T10:51:29Z</time>
</trkpt>
<trkpt lat="47.889046" lon="10.705033">
<ele>697.479</ele>
<time>2020-09-11T10:51:30Z</time>
</trkpt>
<trkpt lat="47.888992" lon="10.705019">
<ele>697.479</ele>
<time>2020-09-11T10:51:31Z</time>
</trkpt>
<trkpt lat="47.888947" lon="10.704998">
<ele>697.479</ele>
<time>2020-09-11T10:51:32Z</time>
</trkpt>
<trkpt lat="47.888897" lon="10.704975">
<ele>697.479</ele>
<time>2020-09-11T10:51:33Z</time>
</trkpt>
<trkpt lat="47.888847" lon="10.70495">
<ele>697.479</ele>
<time>2020-09-11T10:51:34Z</time>
</trkpt>
<trkpt lat="47.888798" lon="10.704923">
<ele>697.479</ele>
<time>2020-09-11T10:51:35Z</time>
</trkpt>
<trkpt lat="47.888756" lon="10.704893">
<ele>697.479</ele>
<time>2020-09-11T10:51:36Z</time>
</trkpt>
<trkpt lat="47.888706" lon="10.704858">
<ele>697.479</ele>
<time>2020-09-11T10:51:37Z</time>
</trkpt>
<trkpt lat="47.888664" lon="10.70482">
<ele>697.479</ele>
<time>2020-09-11T10:51:38Z</time>
</trkpt>
<trkpt lat="47.888622" lon="10.704784">
<ele>697.479</ele>
<time>2020-09-11T10:51:39Z</time>
</trkpt>
<trkpt lat="47.888577" lon="10.704746">
<ele>697.479</ele>
<time>2020-09-11T10:51:40Z</time>
</trkpt>
<trkpt lat="47.888535" lon="10.704709">
<ele>697.479</ele>
<time>2020-09-11T10:51:41Z</time>
</trkpt>
<trkpt lat="47.888485" lon="10.704669">
<ele>697.479</ele>
<time>2020-09-11T10:51:42Z</time>
</trkpt>
<trkpt lat="47.888435" lon="10.704627">
<ele>697.479</ele>
<time>2020-09-11T10:51:43Z</time>
</trkpt>
<trkpt lat="47.88839" lon="10.704583">
<ele>697.479</ele>
<time>2020-09-11T10:51:44Z</time>
</trkpt>
<trkpt lat="47.88834" lon="10.704539">
<ele>697.479</ele>
<time>2020-09-11T10:51:45Z</time>
</trkpt>
<trkpt lat="47.88829" lon="10.704498">
<ele>697.479</ele>
<time>2020-09-11T10:51:46Z</time>
</trkpt>
<trkpt lat="47.888241" lon="10.704457">
<ele>697.479</ele>
<time>2020-09-11T10:51:47Z</time>
</trkpt>
<trkpt lat="47.888184" lon="10.70441">
<ele>697.479</ele>
<time>2020-09-11T10:51:48Z</time>
</trkpt>
<trkpt lat="47.88813" lon="10.70436">
<ele>697.479</ele>
<time>2020-09-11T10:51:49Z</time>
</trkpt>
<trkpt lat="47.888073" lon="10.704307">
<ele>697.479</ele>
<time>2020-09-11T10:51:50Z</time>
</trkpt>
<trkpt lat="47.888012" lon="10.704254">
<ele>697.192</ele>
<time>2020-09-11T10:51:51Z</time>
</trkpt>
<trkpt lat="47.887947" lon="10.7042">
<ele>696.973</ele>
<time>2020-09-11T10:51:52Z</time>
</trkpt>
<trkpt lat="47.887882" lon="10.704148">
<ele>696.846</ele>
<time>2020-09-11T10:51:53Z</time>
</trkpt>
<trkpt lat="47.887817" lon="10.704097">
<ele>696.448</ele>
<time>2020-09-11T10:51:54Z</time>
</trkpt>
<trkpt lat="47.887756" lon="10.704045">
<ele>696.168</ele>
<time>2020-09-11T10:51:55Z</time>
</trkpt>
<trkpt lat="47.887688" lon="10.703986">
<ele>695.999</ele>
<time>2020-09-11T10:51:56Z</time>
</trkpt>
<trkpt lat="47.887619" lon="10.703923">
<ele>695.571</ele>
<time>2020-09-11T10:51:57Z</time>
</trkpt>
<trkpt lat="47.887543" lon="10.703858">
<ele>695.228</ele>
<time>2020-09-11T10:51:58Z</time>
</trkpt>
<trkpt lat="47.88747" lon="10.703794">
<ele>694.682</ele>
<time>2020-09-11T10:51:59Z</time>
</trkpt>
<trkpt lat="47.88739" lon="10.703725">
<ele>694.311</ele>
<time>2020-09-11T10:52:00Z</time>
</trkpt>
<trkpt lat="47.88731" lon="10.703659">
<ele>693.74</ele>
<time>2020-09-11T10:52:01Z</time>
</trkpt>
<trkpt lat="47.88723" lon="10.703593">
<ele>693.317</ele>
<time>2020-09-11T10:52:02Z</time>
</trkpt>
<trkpt lat="47.887142" lon="10.703522">
<ele>693.051</ele>
<time>2020-09-11T10:52:03Z</time>
</trkpt>
<trkpt lat="47.887058" lon="10.703447">
<ele>692.543</ele>
<time>2020-09-11T10:52:04Z</time>
</trkpt>
<trkpt lat="47.886971" lon="10.70337">
<ele>692.157</ele>
<time>2020-09-11T10:52:05Z</time>
</trkpt>
<trkpt lat="47.88689" lon="10.703295">
<ele>691.657</ele>
<time>2020-09-11T10:52:06Z</time>
</trkpt>
<trkpt lat="47.886806" lon="10.703219">
<ele>691.293</ele>
<time>2020-09-11T10:52:07Z</time>
</trkpt>
<trkpt lat="47.886715" lon="10.703143">
<ele>690.98</ele>
<time>2020-09-11T10:52:08Z</time>
</trkpt>
<trkpt lat="47.886631" lon="10.703069">
<ele>690.476</ele>
<time>2020-09-11T10:52:09Z</time>
</trkpt>
<trkpt lat="47.886543" lon="10.702993">
<ele>690.081</ele>
<time>2020-09-11T10:52:10Z</time>
</trkpt>
<trkpt lat="47.886459" lon="10.702918">
<ele>689.833</ele>
<time>2020-09-11T10:52:11Z</time>
</trkpt>
<trkpt lat="47.886375" lon="10.702847">
<ele>689.361</ele>
<time>2020-09-11T10:52:12Z</time>
</trkpt>
<trkpt lat="47.886288" lon="10.70278">
<ele>688.997</ele>
<time>2020-09-11T10:52:13Z</time>
</trkpt>
<trkpt lat="47.886204" lon="10.702719">
<ele>688.648</ele>
<time>2020-09-11T10:52:14Z</time>
</trkpt>
<trkpt lat="47.88612" lon="10.702658">
<ele>688.492</ele>
<time>2020-09-11T10:52:15Z</time>
</trkpt>
<trkpt lat="47.886032" lon="10.702597">
<ele>688.398</ele>
<time>2020-09-11T10:52:16Z</time>
</trkpt>
<trkpt lat="47.885944" lon="10.70254">
<ele>688.33</ele>
<time>2020-09-11T10:52:17Z</time>
</trkpt>
<trkpt lat="47.88586" lon="10.702485">
<ele>688.269</ele>
<time>2020-09-11T10:52:18Z</time>
</trkpt>
<trkpt lat="47.885777" lon="10.702434">
<ele>688.239</ele>
<time>2020-09-11T10:52:19Z</time>
</trkpt>
<trkpt lat="47.885696" lon="10.702381">
<ele>688.239</ele>
<time>2020-09-11T10:52:20Z</time>
</trkpt>
<trkpt lat="47.885612" lon="10.702337">
<ele>688.239</ele>
<time>2020-09-11T10:52:21Z</time>
</trkpt>
<trkpt lat="47.885532" lon="10.702291">
<ele>688.239</ele>
<time>2020-09-11T10:52:22Z</time>
</trkpt>
<trkpt lat="47.885452" lon="10.702247">
<ele>688.239</ele>
<time>2020-09-11T10:52:23Z</time>
</trkpt>
<trkpt lat="47.885372" lon="10.702205">
<ele>688.239</ele>
<time>2020-09-11T10:52:24Z</time>
</trkpt>
<trkpt lat="47.8853" lon="10.702162">
<ele>688.239</ele>
<time>2020-09-11T10:52:25Z</time>
</trkpt>
<trkpt lat="47.88522" lon="10.702118">
<ele>688.239</ele>
<time>2020-09-11T10:52:26Z</time>
</trkpt>
<trkpt lat="47.885147" lon="10.702075">
<ele>688.239</ele>
<time>2020-09-11T10:52:27Z</time>
</trkpt>
<trkpt lat="47.885075" lon="10.702031">
<ele>688.239</ele>
<time>2020-09-11T10:52:28Z</time>
</trkpt>
<trkpt lat="47.884998" lon="10.701992">
<ele>688.239</ele>
<time>2020-09-11T10:52:29Z</time>
</trkpt>
<trkpt lat="47.884926" lon="10.701948">
<ele>688.239</ele>
<time>2020-09-11T10:52:30Z</time>
</trkpt>
<trkpt lat="47.884853" lon="10.701906">
<ele>688.239</ele>
<time>2020-09-11T10:52:31Z</time>
</trkpt>
<trkpt lat="47.884785" lon="10.701863">
<ele>688.239</ele>
<time>2020-09-11T10:52:32Z</time>
</trkpt>
<trkpt lat="47.884712" lon="10.701823">
<ele>688.239</ele>
<time>2020-09-11T10:52:33Z</time>
</trkpt>
<trkpt lat="47.884636" lon="10.701785">
<ele>688.239</ele>
<time>2020-09-11T10:52:34Z</time>
</trkpt>
<trkpt lat="47.884567" lon="10.701745">
<ele>688.239</ele>
<time>2020-09-11T10:52:35Z</time>
</trkpt>
<trkpt lat="47.884495" lon="10.701707">
<ele>688.239</ele>
<time>2020-09-11T10:52:36Z</time>
</trkpt>
<trkpt lat="47.884426" lon="10.70167">
<ele>688.239</ele>
<time>2020-09-11T10:52:37Z</time>
</trkpt>
<trkpt lat="47.884361" lon="10.701635">
<ele>688.239</ele>
<time>2020-09-11T10:52:38Z</time>
</trkpt>
<trkpt lat="47.884296" lon="10.701598">
<ele>688.239</ele>
<time>2020-09-11T10:52:39Z</time>
</trkpt>
<trkpt lat="47.884228" lon="10.701564">
<ele>688.239</ele>
<time>2020-09-11T10:52:40Z</time>
</trkpt>
<trkpt lat="47.884163" lon="10.701527">
<ele>688.239</ele>
<time>2020-09-11T10:52:41Z</time>
</trkpt>
<trkpt lat="47.884098" lon="10.701493">
<ele>688.239</ele>
<time>2020-09-11T10:52:42Z</time>
</trkpt>
<trkpt lat="47.884033" lon="10.70146">
<ele>688.239</ele>
<time>2020-09-11T10:52:43Z</time>
</trkpt>
<trkpt lat="47.883972" lon="10.701427">
<ele>688.239</ele>
<time>2020-09-11T10:52:44Z</time>
</trkpt>
<trkpt lat="47.883904" lon="10.701393">
<ele>688.239</ele>
<time>2020-09-11T10:52:45Z</time>
</trkpt>
<trkpt lat="47.883839" lon="10.701362">
<ele>688.239</ele>
<time>2020-09-11T10:52:46Z</time>
</trkpt>
<trkpt lat="47.883774" lon="10.70133">
<ele>688.239</ele>
<time>2020-09-11T10:52:47Z</time>
</trkpt>
<trkpt lat="47.883709" lon="10.701297">
<ele>688.239</ele>
<time>2020-09-11T10:52:48Z</time>
</trkpt>
<trkpt lat="47.883644" lon="10.701261">
<ele>688.239</ele>
<time>2020-09-11T10:52:49Z</time>
</trkpt>
<trkpt lat="47.883575" lon="10.701225">
<ele>688.239</ele>
<time>2020-09-11T10:52:50Z</time>
</trkpt>
<trkpt lat="47.883511" lon="10.70119">
<ele>688.239</ele>
<time>2020-09-11T10:52:51Z</time>
</trkpt>
<trkpt lat="47.883446" lon="10.701154">
<ele>688.239</ele>
<time>2020-09-11T10:52:52Z</time>
</trkpt>
<trkpt lat="47.883381" lon="10.701117">
<ele>688.239</ele>
<time>2020-09-11T10:52:53Z</time>
</trkpt>
<trkpt lat="47.883316" lon="10.701083">
<ele>688.239</ele>
<time>2020-09-11T10:52:54Z</time>
</trkpt>
<trkpt lat="47.883251" lon="10.701047">
<ele>688.239</ele>
<time>2020-09-11T10:52:55Z</time>
</trkpt>
<trkpt lat="47.883186" lon="10.701012">
<ele>688.239</ele>
<time>2020-09-11T10:52:56Z</time>
</trkpt>
<trkpt lat="47.883121" lon="10.700978">
<ele>688.239</ele>
<time>2020-09-11T10:52:57Z</time>
</trkpt>
<trkpt lat="47.883057" lon="10.700945">
<ele>688.477</ele>
<time>2020-09-11T10:52:58Z</time>
</trkpt>
<trkpt lat="47.882992" lon="10.700911">
<ele>688.677</ele>
<time>2020-09-11T10:52:59Z</time>
</trkpt>
<trkpt lat="47.882927" lon="10.700875">
<ele>688.841</ele>
<time>2020-09-11T10:53:00Z</time>
</trkpt>
<trkpt lat="47.882858" lon="10.700847">
<ele>688.971</ele>
<time>2020-09-11T10:53:01Z</time>
</trkpt>
<trkpt lat="47.882793" lon="10.70082">
<ele>689.072</ele>
<time>2020-09-11T10:53:02Z</time>
</trkpt>
<trkpt lat="47.882732" lon="10.700795">
<ele>689.145</ele>
<time>2020-09-11T10:53:03Z</time>
</trkpt>
<trkpt lat="47.882668" lon="10.70077">
<ele>689.193</ele>
<time>2020-09-11T10:53:04Z</time>
</trkpt>
<trkpt lat="47.882603" lon="10.700747">
<ele>689.216</ele>
<time>2020-09-11T10:53:05Z</time>
</trkpt>
<trkpt lat="47.882538" lon="10.700727">
<ele>689.216</ele>
<time>2020-09-11T10:53:06Z</time>
</trkpt>
<trkpt lat="47.882473" lon="10.700709">
<ele>689.216</ele>
<time>2020-09-11T10:53:07Z</time>
</trkpt>
<trkpt lat="47.882404" lon="10.700699">
<ele>689.216</ele>
<time>2020-09-11T10:53:08Z</time>
</trkpt>
<trkpt lat="47.882339" lon="10.70069">
<ele>689.216</ele>
<time>2020-09-11T10:53:09Z</time>
</trkpt>
<trkpt lat="47.882267" lon="10.700682">
<ele>689.216</ele>
<time>2020-09-11T10:53:10Z</time>
</trkpt>
<trkpt lat="47.882195" lon="10.700671">
<ele>689.216</ele>
<time>2020-09-11T10:53:11Z</time>
</trkpt>
<trkpt lat="47.882118" lon="10.700662">
<ele>688.92</ele>
<time>2020-09-11T10:53:12Z</time>
</trkpt>
<trkpt lat="47.882046" lon="10.70065">
<ele>688.691</ele>
<time>2020-09-11T10:53:13Z</time>
</trkpt>
<trkpt lat="47.881966" lon="10.700638">
<ele>688.517</ele>
<time>2020-09-11T10:53:14Z</time>
</trkpt>
<trkpt lat="47.881889" lon="10.700628">
<ele>688.419</ele>
<time>2020-09-11T10:53:15Z</time>
</trkpt>
<trkpt lat="47.881813" lon="10.700617">
<ele>688.072</ele>
<time>2020-09-11T10:53:16Z</time>
</trkpt>
<trkpt lat="47.881741" lon="10.700604">
<ele>687.82</ele>
<time>2020-09-11T10:53:17Z</time>
</trkpt>
<trkpt lat="47.881664" lon="10.700594">
<ele>687.591</ele>
<time>2020-09-11T10:53:18Z</time>
</trkpt>
<trkpt lat="47.881588" lon="10.70058">
<ele>687.427</ele>
<time>2020-09-11T10:53:19Z</time>
</trkpt>
<trkpt lat="47.881516" lon="10.700567">
<ele>687.322</ele>
<time>2020-09-11T10:53:20Z</time>
</trkpt>
<trkpt lat="47.881439" lon="10.700546">
<ele>687.247</ele>
<time>2020-09-11T10:53:21Z</time>
</trkpt>
<trkpt lat="47.881367" lon="10.700527">
<ele>687.197</ele>
<time>2020-09-11T10:53:22Z</time>
</trkpt>
<trkpt lat="47.881294" lon="10.700503">
<ele>687.173</ele>
<time>2020-09-11T10:53:23Z</time>
</trkpt>
<trkpt lat="47.881222" lon="10.70048">
<ele>687.173</ele>
<time>2020-09-11T10:53:24Z</time>
</trkpt>
<trkpt lat="47.881145" lon="10.700457">
<ele>687.173</ele>
<time>2020-09-11T10:53:25Z</time>
</trkpt>
<trkpt lat="47.881077" lon="10.70043">
<ele>687.173</ele>
<time>2020-09-11T10:53:26Z</time>
</trkpt>
<trkpt lat="47.881008" lon="10.700397">
<ele>687.173</ele>
<time>2020-09-11T10:53:27Z</time>
</trkpt>
<trkpt lat="47.880939" lon="10.700366">
<ele>687.173</ele>
<time>2020-09-11T10:53:28Z</time>
</trkpt>
<trkpt lat="47.880878" lon="10.70033">
<ele>687.173</ele>
<time>2020-09-11T10:53:29Z</time>
</trkpt>
<trkpt lat="47.880821" lon="10.700287">
<ele>687.173</ele>
<time>2020-09-11T10:53:30Z</time>
</trkpt>
<trkpt lat="47.880772" lon="10.700232">
<ele>687.173</ele>
<time>2020-09-11T10:53:31Z</time>
</trkpt>
<trkpt lat="47.880737" lon="10.700158">
<ele>686.939</ele>
<time>2020-09-11T10:53:32Z</time>
</trkpt>
<trkpt lat="47.880707" lon="10.70008">
<ele>686.756</ele>
<time>2020-09-11T10:53:33Z</time>
</trkpt>
<trkpt lat="47.880688" lon="10.699997">
<ele>686.744</ele>
<time>2020-09-11T10:53:34Z</time>
</trkpt>
<trkpt lat="47.880665" lon="10.699917">
<ele>686.865</ele>
<time>2020-09-11T10:53:35Z</time>
</trkpt>
<trkpt lat="47.880634" lon="10.699841">
<ele>686.971</ele>
<time>2020-09-11T10:53:36Z</time>
</trkpt>
<trkpt lat="47.880604" lon="10.69977">
<ele>687.04</ele>
<time>2020-09-11T10:53:37Z</time>
</trkpt>
<trkpt lat="47.880562" lon="10.699703">
<ele>687.128</ele>
<time>2020-09-11T10:53:38Z</time>
</trkpt>
<trkpt lat="47.880516" lon="10.699647">
<ele>687.204</ele>
<time>2020-09-11T10:53:39Z</time>
</trkpt>
<trkpt lat="47.880474" lon="10.699601">
<ele>687.267</ele>
<time>2020-09-11T10:53:40Z</time>
</trkpt>
<trkpt lat="47.880424" lon="10.699568">
<ele>687.324</ele>
<time>2020-09-11T10:53:41Z</time>
</trkpt>
<trkpt lat="47.880371" lon="10.699536">
<ele>687.35</ele>
<time>2020-09-11T10:53:42Z</time>
</trkpt>
<trkpt lat="47.88031" lon="10.699509">
<ele>687.351</ele>
<time>2020-09-11T10:53:43Z</time>
</trkpt>
<trkpt lat="47.880249" lon="10.699482">
<ele>687.351</ele>
<time>2020-09-11T10:53:44Z</time>
</trkpt>
<trkpt lat="47.880188" lon="10.699463">
<ele>687.35</ele>
<time>2020-09-11T10:53:45Z</time>
</trkpt>
<trkpt lat="47.880127" lon="10.699445">
<ele>687.35</ele>
<time>2020-09-11T10:53:46Z</time>
</trkpt>
<trkpt lat="47.880062" lon="10.699427">
<ele>687.35</ele>
<time>2020-09-11T10:53:47Z</time>
</trkpt>
<trkpt lat="47.880001" lon="10.699405">
<ele>687.35</ele>
<time>2020-09-11T10:53:48Z</time>
</trkpt>
<trkpt lat="47.879948" lon="10.699387">
<ele>687.35</ele>
<time>2020-09-11T10:53:49Z</time>
</trkpt>
<trkpt lat="47.87989" lon="10.699367">
<ele>687.35</ele>
<time>2020-09-11T10:53:50Z</time>
</trkpt>
<trkpt lat="47.879829" lon="10.699347">
<ele>687.35</ele>
<time>2020-09-11T10:53:51Z</time>
</trkpt>
<trkpt lat="47.879761" lon="10.699328">
<ele>687.35</ele>
<time>2020-09-11T10:53:52Z</time>
</trkpt>
<trkpt lat="47.879692" lon="10.699312">
<ele>687.35</ele>
<time>2020-09-11T10:53:53Z</time>
</trkpt>
<trkpt lat="47.87962" lon="10.699297">
<ele>687.35</ele>
<time>2020-09-11T10:53:54Z</time>
</trkpt>
<trkpt lat="47.879547" lon="10.699279">
<ele>687.075</ele>
<time>2020-09-11T10:53:55Z</time>
</trkpt>
<trkpt lat="47.879478" lon="10.699262">
<ele>686.856</ele>
<time>2020-09-11T10:53:56Z</time>
</trkpt>
<trkpt lat="47.879406" lon="10.699241">
<ele>686.71</ele>
<time>2020-09-11T10:53:57Z</time>
</trkpt>
<trkpt lat="47.87933" lon="10.699218">
<ele>686.286</ele>
<time>2020-09-11T10:53:58Z</time>
</trkpt>
<trkpt lat="47.87925" lon="10.699201">
<ele>685.999</ele>
<time>2020-09-11T10:53:59Z</time>
</trkpt>
<trkpt lat="47.879173" lon="10.699176">
<ele>685.438</ele>
<time>2020-09-11T10:54:00Z</time>
</trkpt>
<trkpt lat="47.879097" lon="10.699148">
<ele>684.991</ele>
<time>2020-09-11T10:54:01Z</time>
</trkpt>
<trkpt lat="47.879013" lon="10.699121">
<ele>684.656</ele>
<time>2020-09-11T10:54:02Z</time>
</trkpt>
<trkpt lat="47.878929" lon="10.699092">
<ele>684.418</ele>
<time>2020-09-11T10:54:03Z</time>
</trkpt>
<trkpt lat="47.878849" lon="10.699059">
<ele>684.276</ele>
<time>2020-09-11T10:54:04Z</time>
</trkpt>
<trkpt lat="47.878765" lon="10.699018">
<ele>683.911</ele>
<time>2020-09-11T10:54:05Z</time>
</trkpt>
<trkpt lat="47.878689" lon="10.698975">
<ele>683.651</ele>
<time>2020-09-11T10:54:06Z</time>
</trkpt>
<trkpt lat="47.878616" lon="10.698927">
<ele>683.49</ele>
<time>2020-09-11T10:54:07Z</time>
</trkpt>
<trkpt lat="47.878548" lon="10.698872">
<ele>683.349</ele>
<time>2020-09-11T10:54:08Z</time>
</trkpt>
<trkpt lat="47.878479" lon="10.698818">
<ele>683.242</ele>
<time>2020-09-11T10:54:09Z</time>
</trkpt>
<trkpt lat="47.878414" lon="10.698765">
<ele>683.167</ele>
<time>2020-09-11T10:54:10Z</time>
</trkpt>
<trkpt lat="47.878353" lon="10.69871">
<ele>683.114</ele>
<time>2020-09-11T10:54:11Z</time>
</trkpt>
<trkpt lat="47.878292" lon="10.698652">
<ele>683.089</ele>
<time>2020-09-11T10:54:12Z</time>
</trkpt>
<trkpt lat="47.878231" lon="10.698593">
<ele>683.089</ele>
<time>2020-09-11T10:54:13Z</time>
</trkpt>
<trkpt lat="47.878174" lon="10.698535">
<ele>683.311</ele>
<time>2020-09-11T10:54:14Z</time>
</trkpt>
<trkpt lat="47.878117" lon="10.698479">
<ele>683.488</ele>
<time>2020-09-11T10:54:15Z</time>
</trkpt>
<trkpt lat="47.878059" lon="10.698421">
<ele>683.627</ele>
<time>2020-09-11T10:54:16Z</time>
</trkpt>
<trkpt lat="47.878002" lon="10.698369">
<ele>683.725</ele>
<time>2020-09-11T10:54:17Z</time>
</trkpt>
<trkpt lat="47.877941" lon="10.698315">
<ele>683.829</ele>
<time>2020-09-11T10:54:18Z</time>
</trkpt>
<trkpt lat="47.877888" lon="10.698263">
<ele>683.904</ele>
<time>2020-09-11T10:54:19Z</time>
</trkpt>
<trkpt lat="47.877831" lon="10.698208">
<ele>683.953</ele>
<time>2020-09-11T10:54:20Z</time>
</trkpt>
<trkpt lat="47.877773" lon="10.698153">
<ele>683.977</ele>
<time>2020-09-11T10:54:21Z</time>
</trkpt>
<trkpt lat="47.877716" lon="10.6981">
<ele>683.977</ele>
<time>2020-09-11T10:54:22Z</time>
</trkpt>
<trkpt lat="47.877659" lon="10.698049">
<ele>683.977</ele>
<time>2020-09-11T10:54:23Z</time>
</trkpt>
<trkpt lat="47.877602" lon="10.697996">
<ele>683.977</ele>
<time>2020-09-11T10:54:24Z</time>
</trkpt>
<trkpt lat="47.877544" lon="10.697944">
<ele>683.977</ele>
<time>2020-09-11T10:54:25Z</time>
</trkpt>
<trkpt lat="47.877483" lon="10.697893">
<ele>683.977</ele>
<time>2020-09-11T10:54:26Z</time>
</trkpt>
<trkpt lat="47.877426" lon="10.697842">
<ele>683.977</ele>
<time>2020-09-11T10:54:27Z</time>
</trkpt>
<trkpt lat="47.877373" lon="10.697791">
<ele>684.214</ele>
<time>2020-09-11T10:54:28Z</time>
</trkpt>
<trkpt lat="47.877319" lon="10.697741">
<ele>684.412</ele>
<time>2020-09-11T10:54:29Z</time>
</trkpt>
<trkpt lat="47.877262" lon="10.697692">
<ele>684.576</ele>
<time>2020-09-11T10:54:30Z</time>
</trkpt>
<trkpt lat="47.877213" lon="10.69764">
<ele>684.706</ele>
<time>2020-09-11T10:54:31Z</time>
</trkpt>
<trkpt lat="47.877159" lon="10.697587">
<ele>684.807</ele>
<time>2020-09-11T10:54:32Z</time>
</trkpt>
<trkpt lat="47.87711" lon="10.697527">
<ele>684.881</ele>
<time>2020-09-11T10:54:33Z</time>
</trkpt>
<trkpt lat="47.877056" lon="10.69747">
<ele>684.93</ele>
<time>2020-09-11T10:54:34Z</time>
</trkpt>
<trkpt lat="47.877007" lon="10.697415">
<ele>684.953</ele>
<time>2020-09-11T10:54:35Z</time>
</trkpt>
<trkpt lat="47.876957" lon="10.697359">
<ele>684.953</ele>
<time>2020-09-11T10:54:36Z</time>
</trkpt>
<trkpt lat="47.876907" lon="10.697305">
<ele>684.953</ele>
<time>2020-09-11T10:54:37Z</time>
</trkpt>
<trkpt lat="47.876858" lon="10.697253">
<ele>684.953</ele>
<time>2020-09-11T10:54:38Z</time>
</trkpt>
<trkpt lat="47.876804" lon="10.697202">
<ele>684.953</ele>
<time>2020-09-11T10:54:39Z</time>
</trkpt>
<trkpt lat="47.876755" lon="10.69715">
<ele>684.953</ele>
<time>2020-09-11T10:54:40Z</time>
</trkpt>
<trkpt lat="47.876705" lon="10.697098">
<ele>684.953</ele>
<time>2020-09-11T10:54:41Z</time>
</trkpt>
<trkpt lat="47.876656" lon="10.697047">
<ele>684.953</ele>
<time>2020-09-11T10:54:42Z</time>
</trkpt>
<trkpt lat="47.876602" lon="10.696997">
<ele>684.953</ele>
<time>2020-09-11T10:54:43Z</time>
</trkpt>
<trkpt lat="47.876549" lon="10.696947">
<ele>684.953</ele>
<time>2020-09-11T10:54:44Z</time>
</trkpt>
<trkpt lat="47.876499" lon="10.6969">
<ele>684.953</ele>
<time>2020-09-11T10:54:45Z</time>
</trkpt>
<trkpt lat="47.876446" lon="10.696852">
<ele>684.953</ele>
<time>2020-09-11T10:54:46Z</time>
</trkpt>
<trkpt lat="47.876392" lon="10.696804">
<ele>684.953</ele>
<time>2020-09-11T10:54:47Z</time>
</trkpt>
<trkpt lat="47.876339" lon="10.696755">
<ele>684.953</ele>
<time>2020-09-11T10:54:48Z</time>
</trkpt>
<trkpt lat="47.876286" lon="10.696707">
<ele>684.953</ele>
<time>2020-09-11T10:54:49Z</time>
</trkpt>
<trkpt lat="47.876236" lon="10.696664">
<ele>684.953</ele>
<time>2020-09-11T10:54:50Z</time>
</trkpt>
<trkpt lat="47.876179" lon="10.696618">
<ele>684.953</ele>
<time>2020-09-11T10:54:51Z</time>
</trkpt>
<trkpt lat="47.876125" lon="10.696573">
<ele>684.953</ele>
<time>2020-09-11T10:54:52Z</time>
</trkpt>
<trkpt lat="47.876072" lon="10.696529">
<ele>684.953</ele>
<time>2020-09-11T10:54:53Z</time>
</trkpt>
<trkpt lat="47.876019" lon="10.696488">
<ele>684.953</ele>
<time>2020-09-11T10:54:54Z</time>
</trkpt>
<trkpt lat="47.875965" lon="10.696446">
<ele>684.953</ele>
<time>2020-09-11T10:54:55Z</time>
</trkpt>
<trkpt lat="47.875916" lon="10.696405">
<ele>685.209</ele>
<time>2020-09-11T10:54:56Z</time>
</trkpt>
<trkpt lat="47.875862" lon="10.696363">
<ele>685.394</ele>
<time>2020-09-11T10:54:57Z</time>
</trkpt>
<trkpt lat="47.875813" lon="10.696321">
<ele>685.585</ele>
<time>2020-09-11T10:54:58Z</time>
</trkpt>
<trkpt lat="47.875755" lon="10.696277">
<ele>685.734</ele>
<time>2020-09-11T10:54:59Z</time>
</trkpt>
<trkpt lat="47.875706" lon="10.696234">
<ele>685.853</ele>
<time>2020-09-11T10:55:00Z</time>
</trkpt>
<trkpt lat="47.875656" lon="10.696195">
<ele>685.938</ele>
<time>2020-09-11T10:55:01Z</time>
</trkpt>
<trkpt lat="47.875603" lon="10.696157">
<ele>685.993</ele>
<time>2020-09-11T10:55:02Z</time>
</trkpt>
<trkpt lat="47.875549" lon="10.696115">
<ele>686.019</ele>
<time>2020-09-11T10:55:03Z</time>
</trkpt>
<trkpt lat="47.875496" lon="10.696071">
<ele>686.019</ele>
<time>2020-09-11T10:55:04Z</time>
</trkpt>
<trkpt lat="47.875446" lon="10.696027">
<ele>686.019</ele>
<time>2020-09-11T10:55:05Z</time>
</trkpt>
<trkpt lat="47.875393" lon="10.695981">
<ele>686.019</ele>
<time>2020-09-11T10:55:06Z</time>
</trkpt>
<trkpt lat="47.87534" lon="10.695937">
<ele>686.019</ele>
<time>2020-09-11T10:55:07Z</time>
</trkpt>
<trkpt lat="47.87529" lon="10.695889">
<ele>686.019</ele>
<time>2020-09-11T10:55:08Z</time>
</trkpt>
<trkpt lat="47.875237" lon="10.695836">
<ele>686.019</ele>
<time>2020-09-11T10:55:09Z</time>
</trkpt>
<trkpt lat="47.875191" lon="10.695784">
<ele>686.019</ele>
<time>2020-09-11T10:55:10Z</time>
</trkpt>
<trkpt lat="47.875137" lon="10.695728">
<ele>686.019</ele>
<time>2020-09-11T10:55:11Z</time>
</trkpt>
<trkpt lat="47.875092" lon="10.695675">
<ele>686.019</ele>
<time>2020-09-11T10:55:12Z</time>
</trkpt>
<trkpt lat="47.875046" lon="10.695619">
<ele>686.019</ele>
<time>2020-09-11T10:55:13Z</time>
</trkpt>
<trkpt lat="47.874996" lon="10.695563">
<ele>686.019</ele>
<time>2020-09-11T10:55:14Z</time>
</trkpt>
<trkpt lat="47.874947" lon="10.695509">
<ele>686.019</ele>
<time>2020-09-11T10:55:15Z</time>
</trkpt>
<trkpt lat="47.874901" lon="10.695455">
<ele>686.019</ele>
<time>2020-09-11T10:55:16Z</time>
</trkpt>
<trkpt lat="47.874847" lon="10.695398">
<ele>686.019</ele>
<time>2020-09-11T10:55:17Z</time>
</trkpt>
<trkpt lat="47.874798" lon="10.695344">
<ele>686.019</ele>
<time>2020-09-11T10:55:18Z</time>
</trkpt>
<trkpt lat="47.874744" lon="10.695287">
<ele>686.019</ele>
<time>2020-09-11T10:55:19Z</time>
</trkpt>
<trkpt lat="47.874695" lon="10.695231">
<ele>686.019</ele>
<time>2020-09-11T10:55:20Z</time>
</trkpt>
<trkpt lat="47.874645" lon="10.695176">
<ele>686.019</ele>
<time>2020-09-11T10:55:21Z</time>
</trkpt>
<trkpt lat="47.874592" lon="10.695122">
<ele>686.019</ele>
<time>2020-09-11T10:55:22Z</time>
</trkpt>
<trkpt lat="47.874538" lon="10.695067">
<ele>686.019</ele>
<time>2020-09-11T10:55:23Z</time>
</trkpt>
<trkpt lat="47.874485" lon="10.695015">
<ele>686.019</ele>
<time>2020-09-11T10:55:24Z</time>
</trkpt>
<trkpt lat="47.874432" lon="10.694963">
<ele>686.019</ele>
<time>2020-09-11T10:55:25Z</time>
</trkpt>
<trkpt lat="47.874378" lon="10.694915">
<ele>686.019</ele>
<time>2020-09-11T10:55:26Z</time>
</trkpt>
<trkpt lat="47.874317" lon="10.694866">
<ele>686.019</ele>
<time>2020-09-11T10:55:27Z</time>
</trkpt>
<trkpt lat="47.874264" lon="10.69482">
<ele>686.019</ele>
<time>2020-09-11T10:55:28Z</time>
</trkpt>
<trkpt lat="47.87421" lon="10.694774">
<ele>686.019</ele>
<time>2020-09-11T10:55:29Z</time>
</trkpt>
<trkpt lat="47.874153" lon="10.694725">
<ele>686.019</ele>
<time>2020-09-11T10:55:30Z</time>
</trkpt>
<trkpt lat="47.874096" lon="10.694675">
<ele>686.019</ele>
<time>2020-09-11T10:55:31Z</time>
</trkpt>
<trkpt lat="47.874043" lon="10.694625">
<ele>686.019</ele>
<time>2020-09-11T10:55:32Z</time>
</trkpt>
<trkpt lat="47.873993" lon="10.694573">
<ele>686.019</ele>
<time>2020-09-11T10:55:33Z</time>
</trkpt>
<trkpt lat="47.873936" lon="10.694522">
<ele>686.019</ele>
<time>2020-09-11T10:55:34Z</time>
</trkpt>
<trkpt lat="47.873878" lon="10.694473">
<ele>686.019</ele>
<time>2020-09-11T10:55:35Z</time>
</trkpt>
<trkpt lat="47.873825" lon="10.694422">
<ele>686.019</ele>
<time>2020-09-11T10:55:36Z</time>
</trkpt>
<trkpt lat="47.873768" lon="10.69437">
<ele>686.019</ele>
<time>2020-09-11T10:55:37Z</time>
</trkpt>
<trkpt lat="47.873714" lon="10.694319">
<ele>686.019</ele>
<time>2020-09-11T10:55:38Z</time>
</trkpt>
<trkpt lat="47.873665" lon="10.694263">
<ele>686.019</ele>
<time>2020-09-11T10:55:39Z</time>
</trkpt>
<trkpt lat="47.873608" lon="10.694204">
<ele>686.019</ele>
<time>2020-09-11T10:55:40Z</time>
</trkpt>
<trkpt lat="47.873558" lon="10.694148">
<ele>686.019</ele>
<time>2020-09-11T10:55:41Z</time>
</trkpt>
<trkpt lat="47.873508" lon="10.69409">
<ele>686.019</ele>
<time>2020-09-11T10:55:42Z</time>
</trkpt>
<trkpt lat="47.873459" lon="10.69403">
<ele>686.019</ele>
<time>2020-09-11T10:55:43Z</time>
</trkpt>
<trkpt lat="47.873409" lon="10.693968">
<ele>686.019</ele>
<time>2020-09-11T10:55:44Z</time>
</trkpt>
<trkpt lat="47.873367" lon="10.693907">
<ele>686.019</ele>
<time>2020-09-11T10:55:45Z</time>
</trkpt>
<trkpt lat="47.873318" lon="10.693844">
<ele>686.019</ele>
<time>2020-09-11T10:55:46Z</time>
</trkpt>
<trkpt lat="47.873276" lon="10.69378">
<ele>686.019</ele>
<time>2020-09-11T10:55:47Z</time>
</trkpt>
<trkpt lat="47.873234" lon="10.693713">
<ele>686.019</ele>
<time>2020-09-11T10:55:48Z</time>
</trkpt>
<trkpt lat="47.873188" lon="10.693645">
<ele>686.019</ele>
<time>2020-09-11T10:55:49Z</time>
</trkpt>
<trkpt lat="47.873146" lon="10.693578">
<ele>686.019</ele>
<time>2020-09-11T10:55:50Z</time>
</trkpt>
<trkpt lat="47.873108" lon="10.69351">
<ele>686.019</ele>
<time>2020-09-11T10:55:51Z</time>
</trkpt>
<trkpt lat="47.87307" lon="10.693443">
<ele>686.019</ele>
<time>2020-09-11T10:55:52Z</time>
</trkpt>
<trkpt lat="47.873032" lon="10.693378">
<ele>686.019</ele>
<time>2020-09-11T10:55:53Z</time>
</trkpt>
<trkpt lat="47.87299" lon="10.693314">
<ele>686.019</ele>
<time>2020-09-11T10:55:54Z</time>
</trkpt>
<trkpt lat="47.872955" lon="10.693243">
<ele>686.019</ele>
<time>2020-09-11T10:55:55Z</time>
</trkpt>
<trkpt lat="47.872921" lon="10.693172">
<ele>686.019</ele>
<time>2020-09-11T10:55:56Z</time>
</trkpt>
<trkpt lat="47.872887" lon="10.6931">
<ele>686.019</ele>
<time>2020-09-11T10:55:57Z</time>
</trkpt>
<trkpt lat="47.872852" lon="10.693028">
<ele>686.019</ele>
<time>2020-09-11T10:55:58Z</time>
</trkpt>
<trkpt lat="47.872818" lon="10.692957">
<ele>686.019</ele>
<time>2020-09-11T10:55:59Z</time>
</trkpt>
<trkpt lat="47.872787" lon="10.692884">
<ele>686.019</ele>
<time>2020-09-11T10:56:00Z</time>
</trkpt>
<trkpt lat="47.872749" lon="10.692813">
<ele>686.019</ele>
<time>2020-09-11T10:56:01Z</time>
</trkpt>
<trkpt lat="47.872715" lon="10.692738">
<ele>686.019</ele>
<time>2020-09-11T10:56:02Z</time>
</trkpt>
<trkpt lat="47.872681" lon="10.692662">
<ele>686.019</ele>
<time>2020-09-11T10:56:03Z</time>
</trkpt>
<trkpt lat="47.872646" lon="10.692587">
<ele>686.019</ele>
<time>2020-09-11T10:56:04Z</time>
</trkpt>
<trkpt lat="47.872612" lon="10.692507">
<ele>686.019</ele>
<time>2020-09-11T10:56:05Z</time>
</trkpt>
<trkpt lat="47.872574" lon="10.692428">
<ele>686.019</ele>
<time>2020-09-11T10:56:06Z</time>
</trkpt>
<trkpt lat="47.87254" lon="10.69235">
<ele>686.019</ele>
<time>2020-09-11T10:56:07Z</time>
</trkpt>
<trkpt lat="47.872501" lon="10.69227">
<ele>686.019</ele>
<time>2020-09-11T10:56:08Z</time>
</trkpt>
<trkpt lat="47.872463" lon="10.69219">
<ele>686.019</ele>
<time>2020-09-11T10:56:09Z</time>
</trkpt>
<trkpt lat="47.872429" lon="10.692111">
<ele>686.019</ele>
<time>2020-09-11T10:56:10Z</time>
</trkpt>
<trkpt lat="47.872395" lon="10.692034">
<ele>686.019</ele>
<time>2020-09-11T10:56:11Z</time>
</trkpt>
<trkpt lat="47.87236" lon="10.691954">
<ele>686.019</ele>
<time>2020-09-11T10:56:12Z</time>
</trkpt>
<trkpt lat="47.872322" lon="10.691875">
<ele>686.019</ele>
<time>2020-09-11T10:56:13Z</time>
</trkpt>
<trkpt lat="47.872284" lon="10.691795">
<ele>686.019</ele>
<time>2020-09-11T10:56:14Z</time>
</trkpt>
<trkpt lat="47.872246" lon="10.691717">
<ele>686.019</ele>
<time>2020-09-11T10:56:15Z</time>
</trkpt>
<trkpt lat="47.872204" lon="10.69164">
<ele>685.802</ele>
<time>2020-09-11T10:56:16Z</time>
</trkpt>
<trkpt lat="47.872166" lon="10.69156">
<ele>685.648</ele>
<time>2020-09-11T10:56:17Z</time>
</trkpt>
<trkpt lat="47.872128" lon="10.691483">
<ele>685.488</ele>
<time>2020-09-11T10:56:18Z</time>
</trkpt>
<trkpt lat="47.872078" lon="10.69141">
<ele>685.362</ele>
<time>2020-09-11T10:56:19Z</time>
</trkpt>
<trkpt lat="47.872036" lon="10.691343">
<ele>685.266</ele>
<time>2020-09-11T10:56:20Z</time>
</trkpt>
<trkpt lat="47.87199" lon="10.691283">
<ele>685.197</ele>
<time>2020-09-11T10:56:21Z</time>
</trkpt>
<trkpt lat="47.871937" lon="10.691223">
<ele>685.152</ele>
<time>2020-09-11T10:56:22Z</time>
</trkpt>
<trkpt lat="47.871883" lon="10.691167">
<ele>685.131</ele>
<time>2020-09-11T10:56:23Z</time>
</trkpt>
<trkpt lat="47.871838" lon="10.69111">
<ele>685.131</ele>
<time>2020-09-11T10:56:24Z</time>
</trkpt>
<trkpt lat="47.871784" lon="10.691057">
<ele>685.13</ele>
<time>2020-09-11T10:56:25Z</time>
</trkpt>
<trkpt lat="47.871735" lon="10.691009">
<ele>685.131</ele>
<time>2020-09-11T10:56:26Z</time>
</trkpt>
<trkpt lat="47.871685" lon="10.690961">
<ele>685.13</ele>
<time>2020-09-11T10:56:27Z</time>
</trkpt>
<trkpt lat="47.871639" lon="10.690913">
<ele>685.13</ele>
<time>2020-09-11T10:56:28Z</time>
</trkpt>
<trkpt lat="47.87159" lon="10.690865">
<ele>685.13</ele>
<time>2020-09-11T10:56:29Z</time>
</trkpt>
<trkpt lat="47.871544" lon="10.690819">
<ele>685.13</ele>
<time>2020-09-11T10:56:30Z</time>
</trkpt>
<trkpt lat="47.871498" lon="10.690775">
<ele>685.372</ele>
<time>2020-09-11T10:56:31Z</time>
</trkpt>
<trkpt lat="47.871449" lon="10.690732">
<ele>685.567</ele>
<time>2020-09-11T10:56:32Z</time>
</trkpt>
<trkpt lat="47.871399" lon="10.690686">
<ele>685.713</ele>
<time>2020-09-11T10:56:33Z</time>
</trkpt>
<trkpt lat="47.871349" lon="10.690642">
<ele>685.803</ele>
<time>2020-09-11T10:56:34Z</time>
</trkpt>
<trkpt lat="47.8713" lon="10.690602">
<ele>686.134</ele>
<time>2020-09-11T10:56:35Z</time>
</trkpt>
<trkpt lat="47.871254" lon="10.690561">
<ele>686.382</ele>
<time>2020-09-11T10:56:36Z</time>
</trkpt>
<trkpt lat="47.871204" lon="10.690527">
<ele>686.563</ele>
<time>2020-09-11T10:56:37Z</time>
</trkpt>
<trkpt lat="47.871155" lon="10.6905">
<ele>686.733</ele>
<time>2020-09-11T10:56:38Z</time>
</trkpt>
<trkpt lat="47.871101" lon="10.690481">
<ele>686.842</ele>
<time>2020-09-11T10:56:39Z</time>
</trkpt>
<trkpt lat="47.871052" lon="10.690465">
<ele>686.92</ele>
<time>2020-09-11T10:56:40Z</time>
</trkpt>
<trkpt lat="47.870995" lon="10.690445">
<ele>686.971</ele>
<time>2020-09-11T10:56:41Z</time>
</trkpt>
<trkpt lat="47.870945" lon="10.690432">
<ele>686.995</ele>
<time>2020-09-11T10:56:42Z</time>
</trkpt>
<trkpt lat="47.870884" lon="10.690427">
<ele>686.995</ele>
<time>2020-09-11T10:56:43Z</time>
</trkpt>
<trkpt lat="47.870831" lon="10.69042">
<ele>686.995</ele>
<time>2020-09-11T10:56:44Z</time>
</trkpt>
<trkpt lat="47.870777" lon="10.690407">
<ele>686.995</ele>
<time>2020-09-11T10:56:45Z</time>
</trkpt>
<trkpt lat="47.870728" lon="10.690392">
<ele>686.995</ele>
<time>2020-09-11T10:56:46Z</time>
</trkpt>
<trkpt lat="47.870678" lon="10.690376">
<ele>686.995</ele>
<time>2020-09-11T10:56:47Z</time>
</trkpt>
<trkpt lat="47.870632" lon="10.690366">
<ele>686.995</ele>
<time>2020-09-11T10:56:48Z</time>
</trkpt>
<trkpt lat="47.870583" lon="10.690357">
<ele>686.995</ele>
<time>2020-09-11T10:56:49Z</time>
</trkpt>
<trkpt lat="47.870537" lon="10.690351">
<ele>686.995</ele>
<time>2020-09-11T10:56:50Z</time>
</trkpt>
<trkpt lat="47.870491" lon="10.690351">
<ele>686.995</ele>
<time>2020-09-11T10:56:51Z</time>
</trkpt>
<trkpt lat="47.870445" lon="10.690349">
<ele>686.995</ele>
<time>2020-09-11T10:56:52Z</time>
</trkpt>
<trkpt lat="47.870403" lon="10.690345">
<ele>686.995</ele>
<time>2020-09-11T10:56:53Z</time>
</trkpt>
<trkpt lat="47.870365" lon="10.690343">
<ele>686.995</ele>
<time>2020-09-11T10:56:54Z</time>
</trkpt>
<trkpt lat="47.870327" lon="10.690341">
<ele>686.995</ele>
<time>2020-09-11T10:56:55Z</time>
</trkpt>
<trkpt lat="47.870293" lon="10.690341">
<ele>686.995</ele>
<time>2020-09-11T10:56:56Z</time>
</trkpt>
<trkpt lat="47.870266" lon="10.690334">
<ele>686.995</ele>
<time>2020-09-11T10:56:57Z</time>
</trkpt>
<trkpt lat="47.870239" lon="10.690336">
<ele>686.995</ele>
<time>2020-09-11T10:56:58Z</time>
</trkpt>
<trkpt lat="47.870205" lon="10.690341">
<ele>686.995</ele>
<time>2020-09-11T10:56:59Z</time>
</trkpt>
<trkpt lat="47.870178" lon="10.69034">
<ele>686.995</ele>
<time>2020-09-11T10:57:00Z</time>
</trkpt>
<trkpt lat="47.870144" lon="10.690336">
<ele>686.995</ele>
<time>2020-09-11T10:57:01Z</time>
</trkpt>
<trkpt lat="47.870121" lon="10.690341">
<ele>686.995</ele>
<time>2020-09-11T10:57:02Z</time>
</trkpt>
<trkpt lat="47.870102" lon="10.690353">
<ele>686.995</ele>
<time>2020-09-11T10:57:03Z</time>
</trkpt>
<trkpt lat="47.870083" lon="10.690368">
<ele>686.995</ele>
<time>2020-09-11T10:57:04Z</time>
</trkpt>
<trkpt lat="47.870075" lon="10.690383">
<ele>686.995</ele>
<time>2020-09-11T10:57:05Z</time>
</trkpt>
<trkpt lat="47.870075" lon="10.690389">
<ele>686.995</ele>
<time>2020-09-11T10:57:06Z</time>
</trkpt>
<trkpt lat="47.870075" lon="10.690392">
<ele>686.995</ele>
<time>2020-09-11T10:57:07Z</time>
</trkpt>
<trkpt lat="47.870075" lon="10.690393">
<ele>686.995</ele>
<time>2020-09-11T10:57:08Z</time>
</trkpt>
<trkpt lat="47.870056" lon="10.690405">
<ele>686.995</ele>
<time>2020-09-11T11:03:53Z</time>
</trkpt>
<trkpt lat="47.870049" lon="10.690423">
<ele>686.995</ele>
<time>2020-09-11T11:03:54Z</time>
</trkpt>
<trkpt lat="47.870037" lon="10.690443">
<ele>686.995</ele>
<time>2020-09-11T11:03:55Z</time>
</trkpt>
<trkpt lat="47.870014" lon="10.69046">
<ele>686.995</ele>
<time>2020-09-11T11:03:56Z</time>
</trkpt>
<trkpt lat="47.869987" lon="10.690473">
<ele>686.995</ele>
<time>2020-09-11T11:03:57Z</time>
</trkpt>
<trkpt lat="47.869961" lon="10.690487">
<ele>686.996</ele>
<time>2020-09-11T11:03:58Z</time>
</trkpt>
<trkpt lat="47.869926" lon="10.690504">
<ele>686.995</ele>
<time>2020-09-11T11:03:59Z</time>
</trkpt>
<trkpt lat="47.869896" lon="10.690515">
<ele>686.995</ele>
<time>2020-09-11T11:04:00Z</time>
</trkpt>
<trkpt lat="47.869865" lon="10.69053">
<ele>686.995</ele>
<time>2020-09-11T11:04:01Z</time>
</trkpt>
<trkpt lat="47.869835" lon="10.690546">
<ele>686.995</ele>
<time>2020-09-11T11:04:02Z</time>
</trkpt>
<trkpt lat="47.869801" lon="10.690569">
<ele>686.995</ele>
<time>2020-09-11T11:04:03Z</time>
</trkpt>
<trkpt lat="47.869766" lon="10.690594">
<ele>686.995</ele>
<time>2020-09-11T11:04:04Z</time>
</trkpt>
<trkpt lat="47.869724" lon="10.690619">
<ele>686.996</ele>
<time>2020-09-11T11:04:05Z</time>
</trkpt>
<trkpt lat="47.869686" lon="10.69064">
<ele>686.995</ele>
<time>2020-09-11T11:04:06Z</time>
</trkpt>
<trkpt lat="47.869637" lon="10.690667">
<ele>686.995</ele>
<time>2020-09-11T11:04:07Z</time>
</trkpt>
<trkpt lat="47.869595" lon="10.690695">
<ele>686.995</ele>
<time>2020-09-11T11:04:08Z</time>
</trkpt>
<trkpt lat="47.869553" lon="10.690733">
<ele>686.995</ele>
<time>2020-09-11T11:04:09Z</time>
</trkpt>
<trkpt lat="47.869511" lon="10.690765">
<ele>686.995</ele>
<time>2020-09-11T11:04:10Z</time>
</trkpt>
<trkpt lat="47.869473" lon="10.690795">
<ele>686.995</ele>
<time>2020-09-11T11:04:11Z</time>
</trkpt>
<trkpt lat="47.869431" lon="10.690823">
<ele>686.995</ele>
<time>2020-09-11T11:04:12Z</time>
</trkpt>
<trkpt lat="47.869392" lon="10.690856">
<ele>686.995</ele>
<time>2020-09-11T11:04:13Z</time>
</trkpt>
<trkpt lat="47.86935" lon="10.690891">
<ele>686.995</ele>
<time>2020-09-11T11:04:14Z</time>
</trkpt>
<trkpt lat="47.869308" lon="10.690924">
<ele>686.995</ele>
<time>2020-09-11T11:04:15Z</time>
</trkpt>
<trkpt lat="47.869267" lon="10.69095">
<ele>686.995</ele>
<time>2020-09-11T11:04:16Z</time>
</trkpt>
<trkpt lat="47.869225" lon="10.690984">
<ele>686.995</ele>
<time>2020-09-11T11:04:17Z</time>
</trkpt>
<trkpt lat="47.869179" lon="10.691017">
<ele>686.995</ele>
<time>2020-09-11T11:04:18Z</time>
</trkpt>
<trkpt lat="47.869137" lon="10.691049">
<ele>686.995</ele>
<time>2020-09-11T11:04:19Z</time>
</trkpt>
<trkpt lat="47.869087" lon="10.691076">
<ele>686.995</ele>
<time>2020-09-11T11:04:20Z</time>
</trkpt>
<trkpt lat="47.869038" lon="10.691099">
<ele>686.995</ele>
<time>2020-09-11T11:04:21Z</time>
</trkpt>
<trkpt lat="47.868988" lon="10.69112">
<ele>686.995</ele>
<time>2020-09-11T11:04:22Z</time>
</trkpt>
<trkpt lat="47.868938" lon="10.691132">
<ele>686.995</ele>
<time>2020-09-11T11:04:23Z</time>
</trkpt>
<trkpt lat="47.868881" lon="10.691136">
<ele>686.995</ele>
<time>2020-09-11T11:04:24Z</time>
</trkpt>
<trkpt lat="47.868832" lon="10.691133">
<ele>686.995</ele>
<time>2020-09-11T11:04:25Z</time>
</trkpt>
<trkpt lat="47.868778" lon="10.691124">
<ele>686.995</ele>
<time>2020-09-11T11:04:26Z</time>
</trkpt>
<trkpt lat="47.868729" lon="10.691112">
<ele>686.995</ele>
<time>2020-09-11T11:04:27Z</time>
</trkpt>
<trkpt lat="47.868679" lon="10.691095">
<ele>686.995</ele>
<time>2020-09-11T11:04:28Z</time>
</trkpt>
<trkpt lat="47.868622" lon="10.691078">
<ele>686.996</ele>
<time>2020-09-11T11:04:29Z</time>
</trkpt>
<trkpt lat="47.868572" lon="10.691058">
<ele>686.995</ele>
<time>2020-09-11T11:04:30Z</time>
</trkpt>
<trkpt lat="47.868515" lon="10.691043">
<ele>686.995</ele>
<time>2020-09-11T11:04:31Z</time>
</trkpt>
<trkpt lat="47.868465" lon="10.691027">
<ele>686.995</ele>
<time>2020-09-11T11:04:32Z</time>
</trkpt>
<trkpt lat="47.868416" lon="10.691011">
<ele>686.995</ele>
<time>2020-09-11T11:04:33Z</time>
</trkpt>
<trkpt lat="47.868362" lon="10.690996">
<ele>686.995</ele>
<time>2020-09-11T11:04:34Z</time>
</trkpt>
<trkpt lat="47.868309" lon="10.690984">
<ele>686.995</ele>
<time>2020-09-11T11:04:35Z</time>
</trkpt>
<trkpt lat="47.868256" lon="10.690975">
<ele>686.995</ele>
<time>2020-09-11T11:04:36Z</time>
</trkpt>
<trkpt lat="47.868198" lon="10.690967">
<ele>686.995</ele>
<time>2020-09-11T11:04:37Z</time>
</trkpt>
<trkpt lat="47.868145" lon="10.690961">
<ele>686.995</ele>
<time>2020-09-11T11:04:38Z</time>
</trkpt>
<trkpt lat="47.868092" lon="10.690953">
<ele>686.995</ele>
<time>2020-09-11T11:04:39Z</time>
</trkpt>
<trkpt lat="47.868034" lon="10.69095">
<ele>686.995</ele>
<time>2020-09-11T11:04:40Z</time>
</trkpt>
<trkpt lat="47.867977" lon="10.690948">
<ele>686.995</ele>
<time>2020-09-11T11:04:41Z</time>
</trkpt>
<trkpt lat="47.867924" lon="10.690945">
<ele>686.995</ele>
<time>2020-09-11T11:04:42Z</time>
</trkpt>
<trkpt lat="47.86787" lon="10.690936">
<ele>686.995</ele>
<time>2020-09-11T11:04:43Z</time>
</trkpt>
<trkpt lat="47.867817" lon="10.690931">
<ele>686.995</ele>
<time>2020-09-11T11:04:44Z</time>
</trkpt>
<trkpt lat="47.867764" lon="10.690931">
<ele>686.995</ele>
<time>2020-09-11T11:04:45Z</time>
</trkpt>
<trkpt lat="47.867706" lon="10.690928">
<ele>686.995</ele>
<time>2020-09-11T11:04:46Z</time>
</trkpt>
<trkpt lat="47.867653" lon="10.690924">
<ele>686.995</ele>
<time>2020-09-11T11:04:47Z</time>
</trkpt>
<trkpt lat="47.867599" lon="10.690917">
<ele>686.995</ele>
<time>2020-09-11T11:04:48Z</time>
</trkpt>
<trkpt lat="47.867542" lon="10.690907">
<ele>686.995</ele>
<time>2020-09-11T11:04:49Z</time>
</trkpt>
<trkpt lat="47.867489" lon="10.690891">
<ele>686.995</ele>
<time>2020-09-11T11:04:50Z</time>
</trkpt>
<trkpt lat="47.867435" lon="10.690879">
<ele>686.995</ele>
<time>2020-09-11T11:04:51Z</time>
</trkpt>
<trkpt lat="47.867374" lon="10.690865">
<ele>686.995</ele>
<time>2020-09-11T11:04:52Z</time>
</trkpt>
<trkpt lat="47.867321" lon="10.690852">
<ele>686.995</ele>
<time>2020-09-11T11:04:53Z</time>
</trkpt>
<trkpt lat="47.867264" lon="10.690839">
<ele>686.995</ele>
<time>2020-09-11T11:04:54Z</time>
</trkpt>
<trkpt lat="47.86721" lon="10.690823">
<ele>687.273</ele>
<time>2020-09-11T11:04:55Z</time>
</trkpt>
<trkpt lat="47.867153" lon="10.69081">
<ele>687.483</ele>
<time>2020-09-11T11:04:56Z</time>
</trkpt>
<trkpt lat="47.8671" lon="10.690798">
<ele>687.648</ele>
<time>2020-09-11T11:04:57Z</time>
</trkpt>
<trkpt lat="47.867043" lon="10.690786">
<ele>687.767</ele>
<time>2020-09-11T11:04:58Z</time>
</trkpt>
<trkpt lat="47.866982" lon="10.690779">
<ele>687.85</ele>
<time>2020-09-11T11:04:59Z</time>
</trkpt>
<trkpt lat="47.866928" lon="10.690773">
<ele>687.902</ele>
<time>2020-09-11T11:05:00Z</time>
</trkpt>
<trkpt lat="47.866871" lon="10.690773">
<ele>687.945</ele>
<time>2020-09-11T11:05:01Z</time>
</trkpt>
<trkpt lat="47.866817" lon="10.690777">
<ele>687.972</ele>
<time>2020-09-11T11:05:02Z</time>
</trkpt>
<trkpt lat="47.866756" lon="10.690782">
<ele>687.972</ele>
<time>2020-09-11T11:05:03Z</time>
</trkpt>
<trkpt lat="47.866703" lon="10.690788">
<ele>687.972</ele>
<time>2020-09-11T11:05:04Z</time>
</trkpt>
<trkpt lat="47.866646" lon="10.690798">
<ele>687.972</ele>
<time>2020-09-11T11:05:05Z</time>
</trkpt>
<trkpt lat="47.866592" lon="10.690814">
<ele>687.972</ele>
<time>2020-09-11T11:05:06Z</time>
</trkpt>
<trkpt lat="47.866535" lon="10.69083">
<ele>687.972</ele>
<time>2020-09-11T11:05:07Z</time>
</trkpt>
<trkpt lat="47.866482" lon="10.690846">
<ele>687.972</ele>
<time>2020-09-11T11:05:08Z</time>
</trkpt>
<trkpt lat="47.866428" lon="10.690871">
<ele>687.972</ele>
<time>2020-09-11T11:05:09Z</time>
</trkpt>
<trkpt lat="47.866375" lon="10.690896">
<ele>687.972</ele>
<time>2020-09-11T11:05:10Z</time>
</trkpt>
<trkpt lat="47.866325" lon="10.690926">
<ele>687.972</ele>
<time>2020-09-11T11:05:11Z</time>
</trkpt>
<trkpt lat="47.866272" lon="10.690957">
<ele>687.972</ele>
<time>2020-09-11T11:05:12Z</time>
</trkpt>
<trkpt lat="47.866222" lon="10.690989">
<ele>687.972</ele>
<time>2020-09-11T11:05:13Z</time>
</trkpt>
<trkpt lat="47.866173" lon="10.69102">
<ele>687.972</ele>
<time>2020-09-11T11:05:14Z</time>
</trkpt>
<trkpt lat="47.866127" lon="10.691055">
<ele>687.972</ele>
<time>2020-09-11T11:05:15Z</time>
</trkpt>
<trkpt lat="47.866077" lon="10.691095">
<ele>687.972</ele>
<time>2020-09-11T11:05:16Z</time>
</trkpt>
<trkpt lat="47.866032" lon="10.691133">
<ele>688.206</ele>
<time>2020-09-11T11:05:17Z</time>
</trkpt>
<trkpt lat="47.865986" lon="10.691172">
<ele>688.388</ele>
<time>2020-09-11T11:05:18Z</time>
</trkpt>
<trkpt lat="47.86594" lon="10.69121">
<ele>688.529</ele>
<time>2020-09-11T11:05:19Z</time>
</trkpt>
<trkpt lat="47.865891" lon="10.691246">
<ele>688.637</ele>
<time>2020-09-11T11:05:20Z</time>
</trkpt>
<trkpt lat="47.865845" lon="10.691281">
<ele>688.712</ele>
<time>2020-09-11T11:05:21Z</time>
</trkpt>
<trkpt lat="47.865803" lon="10.691319">
<ele>688.789</ele>
<time>2020-09-11T11:05:22Z</time>
</trkpt>
<trkpt lat="47.865757" lon="10.691359">
<ele>688.836</ele>
<time>2020-09-11T11:05:23Z</time>
</trkpt>
<trkpt lat="47.865715" lon="10.691399">
<ele>689.095</ele>
<time>2020-09-11T11:05:24Z</time>
</trkpt>
<trkpt lat="47.865669" lon="10.691435">
<ele>689.356</ele>
<time>2020-09-11T11:05:25Z</time>
</trkpt>
<trkpt lat="47.865623" lon="10.691468">
<ele>689.526</ele>
<time>2020-09-11T11:05:26Z</time>
</trkpt>
<trkpt lat="47.865578" lon="10.691504">
<ele>689.65</ele>
<time>2020-09-11T11:05:27Z</time>
</trkpt>
<trkpt lat="47.865524" lon="10.69155">
<ele>689.737</ele>
<time>2020-09-11T11:05:28Z</time>
</trkpt>
<trkpt lat="47.865479" lon="10.691593">
<ele>689.786</ele>
<time>2020-09-11T11:05:29Z</time>
</trkpt>
<trkpt lat="47.865429" lon="10.691637">
<ele>689.815</ele>
<time>2020-09-11T11:05:30Z</time>
</trkpt>
<trkpt lat="47.865383" lon="10.691682">
<ele>689.838</ele>
<time>2020-09-11T11:05:31Z</time>
</trkpt>
<trkpt lat="47.865334" lon="10.691727">
<ele>689.838</ele>
<time>2020-09-11T11:05:32Z</time>
</trkpt>
<trkpt lat="47.865288" lon="10.691772">
<ele>689.838</ele>
<time>2020-09-11T11:05:33Z</time>
</trkpt>
<trkpt lat="47.865238" lon="10.691818">
<ele>689.838</ele>
<time>2020-09-11T11:05:34Z</time>
</trkpt>
<trkpt lat="47.865189" lon="10.691864">
<ele>689.837</ele>
<time>2020-09-11T11:05:35Z</time>
</trkpt>
<trkpt lat="47.865139" lon="10.691905">
<ele>689.838</ele>
<time>2020-09-11T11:05:36Z</time>
</trkpt>
<trkpt lat="47.865093" lon="10.691943">
<ele>689.838</ele>
<time>2020-09-11T11:05:37Z</time>
</trkpt>
<trkpt lat="47.86504" lon="10.691983">
<ele>690.087</ele>
<time>2020-09-11T11:05:38Z</time>
</trkpt>
<trkpt lat="47.864994" lon="10.69202">
<ele>690.283</ele>
<time>2020-09-11T11:05:39Z</time>
</trkpt>
<trkpt lat="47.864944" lon="10.692055">
<ele>690.437</ele>
<time>2020-09-11T11:05:40Z</time>
</trkpt>
<trkpt lat="47.864895" lon="10.692092">
<ele>690.54</ele>
<time>2020-09-11T11:05:41Z</time>
</trkpt>
<trkpt lat="47.864845" lon="10.692128">
<ele>690.653</ele>
<time>2020-09-11T11:05:42Z</time>
</trkpt>
<trkpt lat="47.864796" lon="10.692162">
<ele>690.737</ele>
<time>2020-09-11T11:05:43Z</time>
</trkpt>
<trkpt lat="47.864746" lon="10.692191">
<ele>690.789</ele>
<time>2020-09-11T11:05:44Z</time>
</trkpt>
<trkpt lat="47.864697" lon="10.692225">
<ele>690.815</ele>
<time>2020-09-11T11:05:45Z</time>
</trkpt>
<trkpt lat="47.864651" lon="10.69226">
<ele>690.815</ele>
<time>2020-09-11T11:05:46Z</time>
</trkpt>
<trkpt lat="47.864605" lon="10.6923">
<ele>691.048</ele>
<time>2020-09-11T11:05:47Z</time>
</trkpt>
<trkpt lat="47.864559" lon="10.69234">
<ele>691.229</ele>
<time>2020-09-11T11:05:48Z</time>
</trkpt>
<trkpt lat="47.86451" lon="10.692382">
<ele>691.37</ele>
<time>2020-09-11T11:05:49Z</time>
</trkpt>
<trkpt lat="47.864468" lon="10.692428">
<ele>691.479</ele>
<time>2020-09-11T11:05:50Z</time>
</trkpt>
<trkpt lat="47.864414" lon="10.692476">
<ele>691.554</ele>
<time>2020-09-11T11:05:51Z</time>
</trkpt>
<trkpt lat="47.864368" lon="10.692526">
<ele>691.631</ele>
<time>2020-09-11T11:05:52Z</time>
</trkpt>
<trkpt lat="47.864315" lon="10.692574">
<ele>691.68</ele>
<time>2020-09-11T11:05:53Z</time>
</trkpt>
<trkpt lat="47.864265" lon="10.692622">
<ele>691.703</ele>
<time>2020-09-11T11:05:54Z</time>
</trkpt>
<trkpt lat="47.864216" lon="10.692672">
<ele>691.703</ele>
<time>2020-09-11T11:05:55Z</time>
</trkpt>
<trkpt lat="47.86417" lon="10.69272">
<ele>691.703</ele>
<time>2020-09-11T11:05:56Z</time>
</trkpt>
<trkpt lat="47.864117" lon="10.692769">
<ele>691.703</ele>
<time>2020-09-11T11:05:57Z</time>
</trkpt>
<trkpt lat="47.864067" lon="10.692817">
<ele>691.703</ele>
<time>2020-09-11T11:05:58Z</time>
</trkpt>
<trkpt lat="47.864021" lon="10.69286">
<ele>691.703</ele>
<time>2020-09-11T11:05:59Z</time>
</trkpt>
<trkpt lat="47.863983" lon="10.692904">
<ele>691.703</ele>
<time>2020-09-11T11:06:00Z</time>
</trkpt>
<trkpt lat="47.863937" lon="10.692942">
<ele>691.703</ele>
<time>2020-09-11T11:06:01Z</time>
</trkpt>
<trkpt lat="47.863899" lon="10.69298">
<ele>691.703</ele>
<time>2020-09-11T11:06:02Z</time>
</trkpt>
<trkpt lat="47.863857" lon="10.693023">
<ele>691.703</ele>
<time>2020-09-11T11:06:03Z</time>
</trkpt>
<trkpt lat="47.863819" lon="10.69306">
<ele>691.971</ele>
<time>2020-09-11T11:06:04Z</time>
</trkpt>
<trkpt lat="47.863781" lon="10.693102">
<ele>692.187</ele>
<time>2020-09-11T11:06:05Z</time>
</trkpt>
<trkpt lat="47.863739" lon="10.693142">
<ele>692.357</ele>
<time>2020-09-11T11:06:06Z</time>
</trkpt>
<trkpt lat="47.863701" lon="10.693184">
<ele>692.466</ele>
<time>2020-09-11T11:06:07Z</time>
</trkpt>
<trkpt lat="47.863659" lon="10.693222">
<ele>692.809</ele>
<time>2020-09-11T11:06:08Z</time>
</trkpt>
<trkpt lat="47.863625" lon="10.693261">
<ele>693.069</ele>
<time>2020-09-11T11:06:09Z</time>
</trkpt>
<trkpt lat="47.863583" lon="10.693301">
<ele>693.259</ele>
<time>2020-09-11T11:06:10Z</time>
</trkpt>
<trkpt lat="47.863544" lon="10.693341">
<ele>693.386</ele>
<time>2020-09-11T11:06:11Z</time>
</trkpt>
<trkpt lat="47.863506" lon="10.693383">
<ele>693.501</ele>
<time>2020-09-11T11:06:12Z</time>
</trkpt>
<trkpt lat="47.863468" lon="10.693423">
<ele>693.574</ele>
<time>2020-09-11T11:06:13Z</time>
</trkpt>
<trkpt lat="47.86343" lon="10.693462">
<ele>693.888</ele>
<time>2020-09-11T11:06:14Z</time>
</trkpt>
<trkpt lat="47.863392" lon="10.693501">
<ele>694.133</ele>
<time>2020-09-11T11:06:15Z</time>
</trkpt>
<trkpt lat="47.86335" lon="10.69354">
<ele>694.388</ele>
<time>2020-09-11T11:06:16Z</time>
</trkpt>
<trkpt lat="47.863308" lon="10.693577">
<ele>694.516</ele>
<time>2020-09-11T11:06:17Z</time>
</trkpt>
<trkpt lat="47.863266" lon="10.693617">
<ele>694.614</ele>
<time>2020-09-11T11:06:18Z</time>
</trkpt>
<trkpt lat="47.863232" lon="10.693655">
<ele>694.672</ele>
<time>2020-09-11T11:06:19Z</time>
</trkpt>
<trkpt lat="47.863194" lon="10.693693">
<ele>694.699</ele>
<time>2020-09-11T11:06:20Z</time>
</trkpt>
<trkpt lat="47.863155" lon="10.693735">
<ele>694.724</ele>
<time>2020-09-11T11:06:21Z</time>
</trkpt>
<trkpt lat="47.863117" lon="10.693773">
<ele>694.724</ele>
<time>2020-09-11T11:06:22Z</time>
</trkpt>
<trkpt lat="47.863079" lon="10.693812">
<ele>694.724</ele>
<time>2020-09-11T11:06:23Z</time>
</trkpt>
<trkpt lat="47.863041" lon="10.69385">
<ele>694.724</ele>
<time>2020-09-11T11:06:24Z</time>
</trkpt>
<trkpt lat="47.863007" lon="10.693894">
<ele>694.724</ele>
<time>2020-09-11T11:06:25Z</time>
</trkpt>
<trkpt lat="47.862961" lon="10.693947">
<ele>694.724</ele>
<time>2020-09-11T11:06:26Z</time>
</trkpt>
<trkpt lat="47.862923" lon="10.693995">
<ele>694.724</ele>
<time>2020-09-11T11:06:27Z</time>
</trkpt>
<trkpt lat="47.862877" lon="10.694047">
<ele>694.724</ele>
<time>2020-09-11T11:06:28Z</time>
</trkpt>
<trkpt lat="47.862843" lon="10.694097">
<ele>694.724</ele>
<time>2020-09-11T11:06:29Z</time>
</trkpt>
<trkpt lat="47.862808" lon="10.694139">
<ele>694.724</ele>
<time>2020-09-11T11:06:30Z</time>
</trkpt>
<trkpt lat="47.86277" lon="10.694177">
<ele>694.724</ele>
<time>2020-09-11T11:06:31Z</time>
</trkpt>
<trkpt lat="47.862728" lon="10.694223">
<ele>694.724</ele>
<time>2020-09-11T11:06:32Z</time>
</trkpt>
<trkpt lat="47.862686" lon="10.694268">
<ele>694.724</ele>
<time>2020-09-11T11:06:33Z</time>
</trkpt>
<trkpt lat="47.862648" lon="10.694313">
<ele>695.026</ele>
<time>2020-09-11T11:06:34Z</time>
</trkpt>
<trkpt lat="47.86261" lon="10.694364">
<ele>695.269</ele>
<time>2020-09-11T11:06:35Z</time>
</trkpt>
<trkpt lat="47.862568" lon="10.694415">
<ele>695.454</ele>
<time>2020-09-11T11:06:36Z</time>
</trkpt>
<trkpt lat="47.862526" lon="10.694466">
<ele>695.594</ele>
<time>2020-09-11T11:06:37Z</time>
</trkpt>
<trkpt lat="47.862484" lon="10.694514">
<ele>695.67</ele>
<time>2020-09-11T11:06:38Z</time>
</trkpt>
<trkpt lat="47.862438" lon="10.694558">
<ele>695.954</ele>
<time>2020-09-11T11:06:39Z</time>
</trkpt>
<trkpt lat="47.862392" lon="10.694604">
<ele>696.164</ele>
<time>2020-09-11T11:06:40Z</time>
</trkpt>
<trkpt lat="47.862354" lon="10.694645">
<ele>696.314</ele>
<time>2020-09-11T11:06:41Z</time>
</trkpt>
<trkpt lat="47.862312" lon="10.694686">
<ele>696.442</ele>
<time>2020-09-11T11:06:42Z</time>
</trkpt>
<trkpt lat="47.86227" lon="10.694726">
<ele>696.53</ele>
<time>2020-09-11T11:06:43Z</time>
</trkpt>
<trkpt lat="47.862225" lon="10.694765">
<ele>696.839</ele>
<time>2020-09-11T11:06:44Z</time>
</trkpt>
<trkpt lat="47.862186" lon="10.694801">
<ele>697.086</ele>
<time>2020-09-11T11:06:45Z</time>
</trkpt>
<trkpt lat="47.862144" lon="10.69484">
<ele>697.273</ele>
<time>2020-09-11T11:06:46Z</time>
</trkpt>
<trkpt lat="47.862103" lon="10.694879">
<ele>697.468</ele>
<time>2020-09-11T11:06:47Z</time>
</trkpt>
<trkpt lat="47.862061" lon="10.694919">
<ele>697.539</ele>
<time>2020-09-11T11:06:48Z</time>
</trkpt>
<trkpt lat="47.862022" lon="10.694963">
<ele>697.862</ele>
<time>2020-09-11T11:06:49Z</time>
</trkpt>
<trkpt lat="47.86198" lon="10.695002">
<ele>698.108</ele>
<time>2020-09-11T11:06:50Z</time>
</trkpt>
<trkpt lat="47.861938" lon="10.695042">
<ele>698.279</ele>
<time>2020-09-11T11:06:51Z</time>
</trkpt>
<trkpt lat="47.8619" lon="10.695085">
<ele>698.436</ele>
<time>2020-09-11T11:06:52Z</time>
</trkpt>
<trkpt lat="47.861862" lon="10.695126">
<ele>698.557</ele>
<time>2020-09-11T11:06:53Z</time>
</trkpt>
<trkpt lat="47.86182" lon="10.695164">
<ele>698.635</ele>
<time>2020-09-11T11:06:54Z</time>
</trkpt>
<trkpt lat="47.861774" lon="10.695202">
<ele>698.956</ele>
<time>2020-09-11T11:06:55Z</time>
</trkpt>
<trkpt lat="47.861736" lon="10.69524">
<ele>699.201</ele>
<time>2020-09-11T11:06:56Z</time>
</trkpt>
<trkpt lat="47.861694" lon="10.695276">
<ele>699.431</ele>
<time>2020-09-11T11:06:57Z</time>
</trkpt>
<trkpt lat="47.861652" lon="10.695312">
<ele>699.564</ele>
<time>2020-09-11T11:06:58Z</time>
</trkpt>
<trkpt lat="47.861614" lon="10.695348">
<ele>699.635</ele>
<time>2020-09-11T11:06:59Z</time>
</trkpt>
<trkpt lat="47.861572" lon="10.695378">
<ele>699.939</ele>
<time>2020-09-11T11:07:00Z</time>
</trkpt>
<trkpt lat="47.861538" lon="10.695409">
<ele>700.164</ele>
<time>2020-09-11T11:07:01Z</time>
</trkpt>
<trkpt lat="47.861496" lon="10.69544">
<ele>700.364</ele>
<time>2020-09-11T11:07:02Z</time>
</trkpt>
<trkpt lat="47.861454" lon="10.695472">
<ele>700.504</ele>
<time>2020-09-11T11:07:03Z</time>
</trkpt>
<trkpt lat="47.861412" lon="10.695503">
<ele>700.612</ele>
<time>2020-09-11T11:07:04Z</time>
</trkpt>
<trkpt lat="47.861378" lon="10.695535">
<ele>700.685</ele>
<time>2020-09-11T11:07:05Z</time>
</trkpt>
<trkpt lat="47.86134" lon="10.695568">
<ele>700.957</ele>
<time>2020-09-11T11:07:06Z</time>
</trkpt>
<trkpt lat="47.861298" lon="10.6956">
<ele>701.167</ele>
<time>2020-09-11T11:07:07Z</time>
</trkpt>
<trkpt lat="47.861256" lon="10.695631">
<ele>701.343</ele>
<time>2020-09-11T11:07:08Z</time>
</trkpt>
<trkpt lat="47.861214" lon="10.695663">
<ele>701.45</ele>
<time>2020-09-11T11:07:09Z</time>
</trkpt>
<trkpt lat="47.861176" lon="10.695696">
<ele>701.528</ele>
<time>2020-09-11T11:07:10Z</time>
</trkpt>
<trkpt lat="47.861134" lon="10.695729">
<ele>701.584</ele>
<time>2020-09-11T11:07:11Z</time>
</trkpt>
<trkpt lat="47.861092" lon="10.695765">
<ele>701.635</ele>
<time>2020-09-11T11:07:12Z</time>
</trkpt>
<trkpt lat="47.86105" lon="10.6958">
<ele>701.658</ele>
<time>2020-09-11T11:07:13Z</time>
</trkpt>
<trkpt lat="47.861012" lon="10.695833">
<ele>701.658</ele>
<time>2020-09-11T11:07:14Z</time>
</trkpt>
<trkpt lat="47.860973" lon="10.695868">
<ele>701.658</ele>
<time>2020-09-11T11:07:15Z</time>
</trkpt>
<trkpt lat="47.860928" lon="10.695903">
<ele>701.658</ele>
<time>2020-09-11T11:07:16Z</time>
</trkpt>
<trkpt lat="47.860889" lon="10.695938">
<ele>701.658</ele>
<time>2020-09-11T11:07:17Z</time>
</trkpt>
<trkpt lat="47.860851" lon="10.695974">
<ele>701.658</ele>
<time>2020-09-11T11:07:18Z</time>
</trkpt>
<trkpt lat="47.860806" lon="10.696012">
<ele>701.903</ele>
<time>2020-09-11T11:07:19Z</time>
</trkpt>
<trkpt lat="47.860764" lon="10.696048">
<ele>702.098</ele>
<time>2020-09-11T11:07:20Z</time>
</trkpt>
<trkpt lat="47.860725" lon="10.69609">
<ele>702.232</ele>
<time>2020-09-11T11:07:21Z</time>
</trkpt>
<trkpt lat="47.860683" lon="10.696132">
<ele>702.376</ele>
<time>2020-09-11T11:07:22Z</time>
</trkpt>
<trkpt lat="47.860645" lon="10.696172">
<ele>702.485</ele>
<time>2020-09-11T11:07:23Z</time>
</trkpt>
<trkpt lat="47.860603" lon="10.696216">
<ele>702.562</ele>
<time>2020-09-11T11:07:24Z</time>
</trkpt>
<trkpt lat="47.860561" lon="10.696259">
<ele>702.613</ele>
<time>2020-09-11T11:07:25Z</time>
</trkpt>
<trkpt lat="47.860527" lon="10.696305">
<ele>702.636</ele>
<time>2020-09-11T11:07:26Z</time>
</trkpt>
<trkpt lat="47.860485" lon="10.696352">
<ele>702.636</ele>
<time>2020-09-11T11:07:27Z</time>
</trkpt>
<trkpt lat="47.860443" lon="10.696398">
<ele>702.637</ele>
<time>2020-09-11T11:07:28Z</time>
</trkpt>
<trkpt lat="47.860405" lon="10.696445">
<ele>702.636</ele>
<time>2020-09-11T11:07:29Z</time>
</trkpt>
<trkpt lat="47.860367" lon="10.696492">
<ele>702.636</ele>
<time>2020-09-11T11:07:30Z</time>
</trkpt>
<trkpt lat="47.860332" lon="10.696538">
<ele>702.637</ele>
<time>2020-09-11T11:07:31Z</time>
</trkpt>
<trkpt lat="47.860298" lon="10.696587">
<ele>702.637</ele>
<time>2020-09-11T11:07:32Z</time>
</trkpt>
<trkpt lat="47.860256" lon="10.696633">
<ele>702.637</ele>
<time>2020-09-11T11:07:33Z</time>
</trkpt>
<trkpt lat="47.860222" lon="10.69668">
<ele>702.917</ele>
<time>2020-09-11T11:07:34Z</time>
</trkpt>
<trkpt lat="47.860184" lon="10.696729">
<ele>703.136</ele>
<time>2020-09-11T11:07:35Z</time>
</trkpt>
<trkpt lat="47.860146" lon="10.696774">
<ele>703.302</ele>
<time>2020-09-11T11:07:36Z</time>
</trkpt>
<trkpt lat="47.860107" lon="10.696823">
<ele>703.424</ele>
<time>2020-09-11T11:07:37Z</time>
</trkpt>
<trkpt lat="47.860073" lon="10.69687">
<ele>703.511</ele>
<time>2020-09-11T11:07:38Z</time>
</trkpt>
<trkpt lat="47.860031" lon="10.696917">
<ele>703.563</ele>
<time>2020-09-11T11:07:39Z</time>
</trkpt>
<trkpt lat="47.859997" lon="10.696965">
<ele>703.591</ele>
<time>2020-09-11T11:07:40Z</time>
</trkpt>
<trkpt lat="47.859955" lon="10.697012">
<ele>703.615</ele>
<time>2020-09-11T11:07:41Z</time>
</trkpt>
<trkpt lat="47.859917" lon="10.697058">
<ele>703.615</ele>
<time>2020-09-11T11:07:42Z</time>
</trkpt>
<trkpt lat="47.859879" lon="10.697104">
<ele>703.88</ele>
<time>2020-09-11T11:07:43Z</time>
</trkpt>
<trkpt lat="47.859844" lon="10.697148">
<ele>704.083</ele>
<time>2020-09-11T11:07:44Z</time>
</trkpt>
<trkpt lat="47.85981" lon="10.697191">
<ele>704.238</ele>
<time>2020-09-11T11:07:45Z</time>
</trkpt>
<trkpt lat="47.859776" lon="10.697236">
<ele>704.351</ele>
<time>2020-09-11T11:07:46Z</time>
</trkpt>
<trkpt lat="47.859741" lon="10.69728">
<ele>704.418</ele>
<time>2020-09-11T11:07:47Z</time>
</trkpt>
<trkpt lat="47.859707" lon="10.697322">
<ele>704.719</ele>
<time>2020-09-11T11:07:48Z</time>
</trkpt>
<trkpt lat="47.859673" lon="10.697364">
<ele>704.939</ele>
<time>2020-09-11T11:07:49Z</time>
</trkpt>
<trkpt lat="47.859642" lon="10.697401">
<ele>705.097</ele>
<time>2020-09-11T11:07:50Z</time>
</trkpt>
<trkpt lat="47.859612" lon="10.69744">
<ele>705.205</ele>
<time>2020-09-11T11:07:51Z</time>
</trkpt>
<trkpt lat="47.859581" lon="10.697476">
<ele>705.547</ele>
<time>2020-09-11T11:07:52Z</time>
</trkpt>
<trkpt lat="47.85955" lon="10.697512">
<ele>705.825</ele>
<time>2020-09-11T11:07:53Z</time>
</trkpt>
<trkpt lat="47.859524" lon="10.697545">
<ele>706.013</ele>
<time>2020-09-11T11:07:54Z</time>
</trkpt>
<trkpt lat="47.859497" lon="10.697577">
<ele>706.411</ele>
<time>2020-09-11T11:07:55Z</time>
</trkpt>
<trkpt lat="47.85947" lon="10.697607">
<ele>706.719</ele>
<time>2020-09-11T11:07:56Z</time>
</trkpt>
<trkpt lat="47.859451" lon="10.697632">
<ele>706.932</ele>
<time>2020-09-11T11:07:57Z</time>
</trkpt>
<trkpt lat="47.859425" lon="10.697659">
<ele>707.334</ele>
<time>2020-09-11T11:07:58Z</time>
</trkpt>
<trkpt lat="47.859402" lon="10.697684">
<ele>707.648</ele>
<time>2020-09-11T11:07:59Z</time>
</trkpt>
<trkpt lat="47.859383" lon="10.69771">
<ele>707.882</ele>
<time>2020-09-11T11:08:00Z</time>
</trkpt>
<trkpt lat="47.85936" lon="10.697734">
<ele>708.036</ele>
<time>2020-09-11T11:08:01Z</time>
</trkpt>
<trkpt lat="47.859337" lon="10.697757">
<ele>708.397</ele>
<time>2020-09-11T11:08:02Z</time>
</trkpt>
<trkpt lat="47.859322" lon="10.697777">
<ele>708.672</ele>
<time>2020-09-11T11:08:03Z</time>
</trkpt>
<trkpt lat="47.859303" lon="10.697797">
<ele>708.86</ele>
<time>2020-09-11T11:08:04Z</time>
</trkpt>
<trkpt lat="47.859287" lon="10.69782">
<ele>709.258</ele>
<time>2020-09-11T11:08:05Z</time>
</trkpt>
<trkpt lat="47.859268" lon="10.697842">
<ele>709.562</ele>
<time>2020-09-11T11:08:06Z</time>
</trkpt>
<trkpt lat="47.859253" lon="10.697864">
<ele>709.811</ele>
<time>2020-09-11T11:08:07Z</time>
</trkpt>
<trkpt lat="47.859226" lon="10.697886">
<ele>709.971</ele>
<time>2020-09-11T11:08:08Z</time>
</trkpt>
<trkpt lat="47.859207" lon="10.697908">
<ele>710.357</ele>
<time>2020-09-11T11:08:09Z</time>
</trkpt>
<trkpt lat="47.859188" lon="10.697928">
<ele>710.607</ele>
<time>2020-09-11T11:08:10Z</time>
</trkpt>
<trkpt lat="47.859173" lon="10.697948">
<ele>711.045</ele>
<time>2020-09-11T11:08:11Z</time>
</trkpt>
<trkpt lat="47.859154" lon="10.697968">
<ele>711.402</ele>
<time>2020-09-11T11:08:12Z</time>
</trkpt>
<trkpt lat="47.859127" lon="10.697986">
<ele>711.629</ele>
<time>2020-09-11T11:08:13Z</time>
</trkpt>
<trkpt lat="47.859112" lon="10.698007">
<ele>712.077</ele>
<time>2020-09-11T11:08:14Z</time>
</trkpt>
<trkpt lat="47.859093" lon="10.698028">
<ele>712.427</ele>
<time>2020-09-11T11:08:15Z</time>
</trkpt>
<trkpt lat="47.85907" lon="10.69805">
<ele>712.647</ele>
<time>2020-09-11T11:08:16Z</time>
</trkpt>
<trkpt lat="47.859047" lon="10.698075">
<ele>713.094</ele>
<time>2020-09-11T11:08:17Z</time>
</trkpt>
<trkpt lat="47.85902" lon="10.6981">
<ele>713.442</ele>
<time>2020-09-11T11:08:18Z</time>
</trkpt>
<trkpt lat="47.858994" lon="10.698127">
<ele>713.713</ele>
<time>2020-09-11T11:08:19Z</time>
</trkpt>
<trkpt lat="47.858974" lon="10.698153">
<ele>713.831</ele>
<time>2020-09-11T11:08:20Z</time>
</trkpt>
<trkpt lat="47.858955" lon="10.698178">
<ele>714.163</ele>
<time>2020-09-11T11:08:21Z</time>
</trkpt>
<trkpt lat="47.858929" lon="10.698205">
<ele>714.443</ele>
<time>2020-09-11T11:08:22Z</time>
</trkpt>
<trkpt lat="47.858906" lon="10.698235">
<ele>714.619</ele>
<time>2020-09-11T11:08:23Z</time>
</trkpt>
<trkpt lat="47.858891" lon="10.698256">
<ele>715.025</ele>
<time>2020-09-11T11:08:24Z</time>
</trkpt>
<trkpt lat="47.858868" lon="10.698278">
<ele>715.325</ele>
<time>2020-09-11T11:08:25Z</time>
</trkpt>
<trkpt lat="47.858852" lon="10.6983">
<ele>715.563</ele>
<time>2020-09-11T11:08:26Z</time>
</trkpt>
<trkpt lat="47.858833" lon="10.698321">
<ele>715.74</ele>
<time>2020-09-11T11:08:27Z</time>
</trkpt>
<trkpt lat="47.858814" lon="10.69835">
<ele>716.153</ele>
<time>2020-09-11T11:08:28Z</time>
</trkpt>
<trkpt lat="47.858788" lon="10.698378">
<ele>716.482</ele>
<time>2020-09-11T11:08:29Z</time>
</trkpt>
<trkpt lat="47.858761" lon="10.698403">
<ele>716.649</ele>
<time>2020-09-11T11:08:30Z</time>
</trkpt>
<trkpt lat="47.858723" lon="10.698446">
<ele>717.072</ele>
<time>2020-09-11T11:08:31Z</time>
</trkpt>
<trkpt lat="47.858696" lon="10.698484">
<ele>717.452</ele>
<time>2020-09-11T11:08:32Z</time>
</trkpt>
<trkpt lat="47.858669" lon="10.69852">
<ele>717.71</ele>
<time>2020-09-11T11:08:33Z</time>
</trkpt>
<trkpt lat="47.858639" lon="10.698555">
<ele>717.897</ele>
<time>2020-09-11T11:08:34Z</time>
</trkpt>
<trkpt lat="47.858616" lon="10.698589">
<ele>717.99</ele>
<time>2020-09-11T11:08:35Z</time>
</trkpt>
<trkpt lat="47.858582" lon="10.698638">
<ele>718.325</ele>
<time>2020-09-11T11:08:36Z</time>
</trkpt>
<trkpt lat="47.858562" lon="10.698673">
<ele>718.583</ele>
<time>2020-09-11T11:08:37Z</time>
</trkpt>
<trkpt lat="47.858536" lon="10.698715">
<ele>718.746</ele>
<time>2020-09-11T11:08:38Z</time>
</trkpt>
<trkpt lat="47.858505" lon="10.698752">
<ele>719.136</ele>
<time>2020-09-11T11:08:39Z</time>
</trkpt>
<trkpt lat="47.858475" lon="10.698784">
<ele>719.425</ele>
<time>2020-09-11T11:08:40Z</time>
</trkpt>
<trkpt lat="47.858448" lon="10.698813">
<ele>719.633</ele>
<time>2020-09-11T11:08:41Z</time>
</trkpt>
<trkpt lat="47.858425" lon="10.698842">
<ele>719.815</ele>
<time>2020-09-11T11:08:42Z</time>
</trkpt>
<trkpt lat="47.858406" lon="10.698872">
<ele>719.932</ele>
<time>2020-09-11T11:08:43Z</time>
</trkpt>
<trkpt lat="47.858387" lon="10.698898">
<ele>720.242</ele>
<time>2020-09-11T11:08:44Z</time>
</trkpt>
<trkpt lat="47.858364" lon="10.698931">
<ele>720.519</ele>
<time>2020-09-11T11:08:45Z</time>
</trkpt>
<trkpt lat="47.858345" lon="10.698962">
<ele>720.71</ele>
<time>2020-09-11T11:08:46Z</time>
</trkpt>
<trkpt lat="47.858326" lon="10.69899">
<ele>720.927</ele>
<time>2020-09-11T11:08:47Z</time>
</trkpt>
<trkpt lat="47.858307" lon="10.699017">
<ele>721.033</ele>
<time>2020-09-11T11:08:48Z</time>
</trkpt>
<trkpt lat="47.858284" lon="10.699041">
<ele>721.097</ele>
<time>2020-09-11T11:08:49Z</time>
</trkpt>
<trkpt lat="47.858269" lon="10.699073">
<ele>721.126</ele>
<time>2020-09-11T11:08:50Z</time>
</trkpt>
<trkpt lat="47.858246" lon="10.699104">
<ele>721.152</ele>
<time>2020-09-11T11:08:51Z</time>
</trkpt>
<trkpt lat="47.858227" lon="10.699134">
<ele>721.433</ele>
<time>2020-09-11T11:08:52Z</time>
</trkpt>
<trkpt lat="47.858212" lon="10.699162">
<ele>721.664</ele>
<time>2020-09-11T11:08:53Z</time>
</trkpt>
<trkpt lat="47.858189" lon="10.699192">
<ele>721.867</ele>
<time>2020-09-11T11:08:54Z</time>
</trkpt>
<trkpt lat="47.858166" lon="10.699224">
<ele>722.029</ele>
<time>2020-09-11T11:08:55Z</time>
</trkpt>
<trkpt lat="47.858147" lon="10.699257">
<ele>722.148</ele>
<time>2020-09-11T11:08:56Z</time>
</trkpt>
<trkpt lat="47.858128" lon="10.699285">
<ele>722.23</ele>
<time>2020-09-11T11:08:57Z</time>
</trkpt>
<trkpt lat="47.858109" lon="10.699312">
<ele>722.283</ele>
<time>2020-09-11T11:08:58Z</time>
</trkpt>
<trkpt lat="47.858086" lon="10.699337">
<ele>722.311</ele>
<time>2020-09-11T11:08:59Z</time>
</trkpt>
<trkpt lat="47.85807" lon="10.699365">
<ele>722.311</ele>
<time>2020-09-11T11:09:00Z</time>
</trkpt>
<trkpt lat="47.858051" lon="10.699395">
<ele>722.311</ele>
<time>2020-09-11T11:09:01Z</time>
</trkpt>
<trkpt lat="47.858028" lon="10.699425">
<ele>722.311</ele>
<time>2020-09-11T11:09:02Z</time>
</trkpt>
<trkpt lat="47.858009" lon="10.699456">
<ele>722.311</ele>
<time>2020-09-11T11:09:03Z</time>
</trkpt>
<trkpt lat="47.857986" lon="10.699484">
<ele>722.31</ele>
<time>2020-09-11T11:09:04Z</time>
</trkpt>
<trkpt lat="47.857967" lon="10.699512">
<ele>722.311</ele>
<time>2020-09-11T11:09:05Z</time>
</trkpt>
<trkpt lat="47.857944" lon="10.699534">
<ele>722.311</ele>
<time>2020-09-11T11:09:06Z</time>
</trkpt>
<trkpt lat="47.857922" lon="10.699559">
<ele>722.31</ele>
<time>2020-09-11T11:09:07Z</time>
</trkpt>
<trkpt lat="47.857899" lon="10.699587">
<ele>722.31</ele>
<time>2020-09-11T11:09:08Z</time>
</trkpt>
<trkpt lat="47.857876" lon="10.699614">
<ele>722.311</ele>
<time>2020-09-11T11:09:09Z</time>
</trkpt>
<trkpt lat="47.857857" lon="10.69964">
<ele>722.311</ele>
<time>2020-09-11T11:09:10Z</time>
</trkpt>
<trkpt lat="47.85783" lon="10.699666">
<ele>722.31</ele>
<time>2020-09-11T11:09:11Z</time>
</trkpt>
<trkpt lat="47.857803" lon="10.699694">
<ele>722.31</ele>
<time>2020-09-11T11:09:12Z</time>
</trkpt>
<trkpt lat="47.85778" lon="10.69972">
<ele>722.311</ele>
<time>2020-09-11T11:09:13Z</time>
</trkpt>
<trkpt lat="47.857754" lon="10.699747">
<ele>722.31</ele>
<time>2020-09-11T11:09:14Z</time>
</trkpt>
<trkpt lat="47.857723" lon="10.699773">
<ele>722.311</ele>
<time>2020-09-11T11:09:15Z</time>
</trkpt>
<trkpt lat="47.857697" lon="10.6998">
<ele>722.311</ele>
<time>2020-09-11T11:09:16Z</time>
</trkpt>
<trkpt lat="47.85767" lon="10.699827">
<ele>722.311</ele>
<time>2020-09-11T11:09:17Z</time>
</trkpt>
<trkpt lat="47.857643" lon="10.699853">
<ele>722.311</ele>
<time>2020-09-11T11:09:18Z</time>
</trkpt>
<trkpt lat="47.857613" lon="10.699878">
<ele>722.311</ele>
<time>2020-09-11T11:09:19Z</time>
</trkpt>
<trkpt lat="47.857586" lon="10.699903">
<ele>722.31</ele>
<time>2020-09-11T11:09:20Z</time>
</trkpt>
<trkpt lat="47.857559" lon="10.699926">
<ele>722.31</ele>
<time>2020-09-11T11:09:21Z</time>
</trkpt>
<trkpt lat="47.857529" lon="10.699953">
<ele>722.31</ele>
<time>2020-09-11T11:09:22Z</time>
</trkpt>
<trkpt lat="47.857502" lon="10.699978">
<ele>722.603</ele>
<time>2020-09-11T11:09:23Z</time>
</trkpt>
<trkpt lat="47.857471" lon="10.700004">
<ele>722.83</ele>
<time>2020-09-11T11:09:24Z</time>
</trkpt>
<trkpt lat="47.857441" lon="10.700028">
<ele>722.998</ele>
<time>2020-09-11T11:09:25Z</time>
</trkpt>
<trkpt lat="47.857414" lon="10.700055">
<ele>723.121</ele>
<time>2020-09-11T11:09:26Z</time>
</trkpt>
<trkpt lat="47.857384" lon="10.70008">
<ele>723.214</ele>
<time>2020-09-11T11:09:27Z</time>
</trkpt>
<trkpt lat="47.857357" lon="10.700106">
<ele>723.267</ele>
<time>2020-09-11T11:09:28Z</time>
</trkpt>
<trkpt lat="47.85733" lon="10.700129">
<ele>723.284</ele>
<time>2020-09-11T11:09:29Z</time>
</trkpt>
<trkpt lat="47.8573" lon="10.700153">
<ele>723.291</ele>
<time>2020-09-11T11:09:30Z</time>
</trkpt>
<trkpt lat="47.857269" lon="10.700173">
<ele>723.291</ele>
<time>2020-09-11T11:09:31Z</time>
</trkpt>
<trkpt lat="47.857239" lon="10.700195">
<ele>723.291</ele>
<time>2020-09-11T11:09:32Z</time>
</trkpt>
<trkpt lat="47.857212" lon="10.700219">
<ele>723.291</ele>
<time>2020-09-11T11:09:33Z</time>
</trkpt>
<trkpt lat="47.857182" lon="10.700242">
<ele>723.291</ele>
<time>2020-09-11T11:09:34Z</time>
</trkpt>
<trkpt lat="47.857155" lon="10.700267">
<ele>723.565</ele>
<time>2020-09-11T11:09:35Z</time>
</trkpt>
<trkpt lat="47.857124" lon="10.70029">
<ele>723.778</ele>
<time>2020-09-11T11:09:36Z</time>
</trkpt>
<trkpt lat="47.857098" lon="10.700315">
<ele>723.946</ele>
<time>2020-09-11T11:09:37Z</time>
</trkpt>
<trkpt lat="47.857067" lon="10.700338">
<ele>724.06</ele>
<time>2020-09-11T11:09:38Z</time>
</trkpt>
<trkpt lat="47.85704" lon="10.700358">
<ele>724.143</ele>
<time>2020-09-11T11:09:39Z</time>
</trkpt>
<trkpt lat="47.85701" lon="10.70038">
<ele>724.201</ele>
<time>2020-09-11T11:09:40Z</time>
</trkpt>
<trkpt lat="47.856983" lon="10.700401">
<ele>724.243</ele>
<time>2020-09-11T11:09:41Z</time>
</trkpt>
<trkpt lat="47.856956" lon="10.700423">
<ele>724.271</ele>
<time>2020-09-11T11:09:42Z</time>
</trkpt>
<trkpt lat="47.856926" lon="10.700447">
<ele>724.271</ele>
<time>2020-09-11T11:09:43Z</time>
</trkpt>
<trkpt lat="47.856899" lon="10.70047">
<ele>724.271</ele>
<time>2020-09-11T11:09:44Z</time>
</trkpt>
<trkpt lat="47.856873" lon="10.700496">
<ele>724.271</ele>
<time>2020-09-11T11:09:45Z</time>
</trkpt>
<trkpt lat="47.856842" lon="10.700521">
<ele>724.271</ele>
<time>2020-09-11T11:09:46Z</time>
</trkpt>
<trkpt lat="47.856812" lon="10.700543">
<ele>724.271</ele>
<time>2020-09-11T11:09:47Z</time>
</trkpt>
<trkpt lat="47.856781" lon="10.700568">
<ele>724.271</ele>
<time>2020-09-11T11:09:48Z</time>
</trkpt>
<trkpt lat="47.856747" lon="10.700597">
<ele>724.271</ele>
<time>2020-09-11T11:09:49Z</time>
</trkpt>
<trkpt lat="47.856712" lon="10.70062">
<ele>724.271</ele>
<time>2020-09-11T11:09:50Z</time>
</trkpt>
<trkpt lat="47.856682" lon="10.700644">
<ele>724.493</ele>
<time>2020-09-11T11:09:51Z</time>
</trkpt>
<trkpt lat="47.856651" lon="10.700671">
<ele>724.702</ele>
<time>2020-09-11T11:09:52Z</time>
</trkpt>
<trkpt lat="47.856621" lon="10.700695">
<ele>724.867</ele>
<time>2020-09-11T11:09:53Z</time>
</trkpt>
<trkpt lat="47.85659" lon="10.700718">
<ele>725.001</ele>
<time>2020-09-11T11:09:54Z</time>
</trkpt>
<trkpt lat="47.85656" lon="10.700743">
<ele>725.104</ele>
<time>2020-09-11T11:09:55Z</time>
</trkpt>
<trkpt lat="47.856529" lon="10.700766">
<ele>725.17</ele>
<time>2020-09-11T11:09:56Z</time>
</trkpt>
<trkpt lat="47.856499" lon="10.700789">
<ele>725.439</ele>
<time>2020-09-11T11:09:57Z</time>
</trkpt>
<trkpt lat="47.856468" lon="10.700811">
<ele>725.649</ele>
<time>2020-09-11T11:09:58Z</time>
</trkpt>
<trkpt lat="47.856434" lon="10.700833">
<ele>725.813</ele>
<time>2020-09-11T11:09:59Z</time>
</trkpt>
<trkpt lat="47.856403" lon="10.700856">
<ele>725.92</ele>
<time>2020-09-11T11:10:00Z</time>
</trkpt>
<trkpt lat="47.856369" lon="10.700881">
<ele>725.994</ele>
<time>2020-09-11T11:10:01Z</time>
</trkpt>
<trkpt lat="47.856339" lon="10.700907">
<ele>726.071</ele>
<time>2020-09-11T11:10:02Z</time>
</trkpt>
<trkpt lat="47.856308" lon="10.700932">
<ele>726.118</ele>
<time>2020-09-11T11:10:03Z</time>
</trkpt>
<trkpt lat="47.856277" lon="10.700954">
<ele>726.383</ele>
<time>2020-09-11T11:10:04Z</time>
</trkpt>
<trkpt lat="47.856247" lon="10.700977">
<ele>726.644</ele>
<time>2020-09-11T11:10:05Z</time>
</trkpt>
<trkpt lat="47.856213" lon="10.701002">
<ele>726.816</ele>
<time>2020-09-11T11:10:06Z</time>
</trkpt>
<trkpt lat="47.856186" lon="10.701025">
<ele>726.932</ele>
<time>2020-09-11T11:10:07Z</time>
</trkpt>
<trkpt lat="47.856155" lon="10.701051">
<ele>727.016</ele>
<time>2020-09-11T11:10:08Z</time>
</trkpt>
<trkpt lat="47.856121" lon="10.701076">
<ele>727.074</ele>
<time>2020-09-11T11:10:09Z</time>
</trkpt>
<trkpt lat="47.856091" lon="10.701099">
<ele>727.1</ele>
<time>2020-09-11T11:10:10Z</time>
</trkpt>
<trkpt lat="47.85606" lon="10.701124">
<ele>727.123</ele>
<time>2020-09-11T11:10:11Z</time>
</trkpt>
<trkpt lat="47.856026" lon="10.701152">
<ele>727.365</ele>
<time>2020-09-11T11:10:12Z</time>
</trkpt>
<trkpt lat="47.855995" lon="10.701177">
<ele>727.566</ele>
<time>2020-09-11T11:10:13Z</time>
</trkpt>
<trkpt lat="47.855965" lon="10.7012">
<ele>727.731</ele>
<time>2020-09-11T11:10:14Z</time>
</trkpt>
<trkpt lat="47.85593" lon="10.701227">
<ele>727.864</ele>
<time>2020-09-11T11:10:15Z</time>
</trkpt>
<trkpt lat="47.8559" lon="10.701252">
<ele>727.943</ele>
<time>2020-09-11T11:10:16Z</time>
</trkpt>
<trkpt lat="47.855865" lon="10.701277">
<ele>728.242</ele>
<time>2020-09-11T11:10:17Z</time>
</trkpt>
<trkpt lat="47.855835" lon="10.701302">
<ele>728.476</ele>
<time>2020-09-11T11:10:18Z</time>
</trkpt>
<trkpt lat="47.855801" lon="10.701328">
<ele>728.651</ele>
<time>2020-09-11T11:10:19Z</time>
</trkpt>
<trkpt lat="47.85577" lon="10.701357">
<ele>728.771</ele>
<time>2020-09-11T11:10:20Z</time>
</trkpt>
<trkpt lat="47.855736" lon="10.701382">
<ele>728.848</ele>
<time>2020-09-11T11:10:21Z</time>
</trkpt>
<trkpt lat="47.855701" lon="10.701408">
<ele>728.924</ele>
<time>2020-09-11T11:10:22Z</time>
</trkpt>
<trkpt lat="47.855671" lon="10.701434">
<ele>728.972</ele>
<time>2020-09-11T11:10:23Z</time>
</trkpt>
<trkpt lat="47.855637" lon="10.701458">
<ele>728.996</ele>
<time>2020-09-11T11:10:24Z</time>
</trkpt>
<trkpt lat="47.855606" lon="10.701485">
<ele>729.295</ele>
<time>2020-09-11T11:10:25Z</time>
</trkpt>
<trkpt lat="47.855576" lon="10.701509">
<ele>729.527</ele>
<time>2020-09-11T11:10:26Z</time>
</trkpt>
<trkpt lat="47.855541" lon="10.701535">
<ele>729.705</ele>
<time>2020-09-11T11:10:27Z</time>
</trkpt>
<trkpt lat="47.855507" lon="10.70156">
<ele>729.832</ele>
<time>2020-09-11T11:10:28Z</time>
</trkpt>
<trkpt lat="47.855476" lon="10.701589">
<ele>729.931</ele>
<time>2020-09-11T11:10:29Z</time>
</trkpt>
<trkpt lat="47.855442" lon="10.701613">
<ele>729.989</ele>
<time>2020-09-11T11:10:30Z</time>
</trkpt>
<trkpt lat="47.855408" lon="10.701642">
<ele>730.036</ele>
<time>2020-09-11T11:10:31Z</time>
</trkpt>
<trkpt lat="47.855373" lon="10.701669">
<ele>730.066</ele>
<time>2020-09-11T11:10:32Z</time>
</trkpt>
<trkpt lat="47.855343" lon="10.701696">
<ele>730.392</ele>
<time>2020-09-11T11:10:33Z</time>
</trkpt>
<trkpt lat="47.855309" lon="10.701721">
<ele>730.64</ele>
<time>2020-09-11T11:10:34Z</time>
</trkpt>
<trkpt lat="47.855274" lon="10.701743">
<ele>730.818</ele>
<time>2020-09-11T11:10:35Z</time>
</trkpt>
<trkpt lat="47.855244" lon="10.701765">
<ele>730.952</ele>
<time>2020-09-11T11:10:36Z</time>
</trkpt>
<trkpt lat="47.855213" lon="10.701786">
<ele>731.044</ele>
<time>2020-09-11T11:10:37Z</time>
</trkpt>
<trkpt lat="47.855179" lon="10.701809">
<ele>731.102</ele>
<time>2020-09-11T11:10:38Z</time>
</trkpt>
<trkpt lat="47.855148" lon="10.701832">
<ele>731.13</ele>
<time>2020-09-11T11:10:39Z</time>
</trkpt>
<trkpt lat="47.855118" lon="10.70185">
<ele>731.136</ele>
<time>2020-09-11T11:10:40Z</time>
</trkpt>
<trkpt lat="47.855083" lon="10.701866">
<ele>731.136</ele>
<time>2020-09-11T11:10:41Z</time>
</trkpt>
<trkpt lat="47.855053" lon="10.701883">
<ele>731.136</ele>
<time>2020-09-11T11:10:42Z</time>
</trkpt>
<trkpt lat="47.855019" lon="10.701908">
<ele>731.136</ele>
<time>2020-09-11T11:10:43Z</time>
</trkpt>
<trkpt lat="47.854988" lon="10.701931">
<ele>731.136</ele>
<time>2020-09-11T11:10:44Z</time>
</trkpt>
<trkpt lat="47.854958" lon="10.701956">
<ele>731.408</ele>
<time>2020-09-11T11:10:45Z</time>
</trkpt>
<trkpt lat="47.854931" lon="10.701977">
<ele>731.624</ele>
<time>2020-09-11T11:10:46Z</time>
</trkpt>
<trkpt lat="47.854897" lon="10.702003">
<ele>731.784</ele>
<time>2020-09-11T11:10:47Z</time>
</trkpt>
<trkpt lat="47.854862" lon="10.702025">
<ele>731.906</ele>
<time>2020-09-11T11:10:48Z</time>
</trkpt>
<trkpt lat="47.854828" lon="10.702046">
<ele>731.996</ele>
<time>2020-09-11T11:10:49Z</time>
</trkpt>
<trkpt lat="47.854794" lon="10.702073">
<ele>732.048</ele>
<time>2020-09-11T11:10:50Z</time>
</trkpt>
<trkpt lat="47.854755" lon="10.70211">
<ele>732.089</ele>
<time>2020-09-11T11:10:51Z</time>
</trkpt>
<trkpt lat="47.854717" lon="10.702135">
<ele>732.117</ele>
<time>2020-09-11T11:10:52Z</time>
</trkpt>
<trkpt lat="47.854687" lon="10.702164">
<ele>732.117</ele>
<time>2020-09-11T11:10:53Z</time>
</trkpt>
<trkpt lat="47.854652" lon="10.702188">
<ele>732.117</ele>
<time>2020-09-11T11:10:54Z</time>
</trkpt>
<trkpt lat="47.854618" lon="10.702209">
<ele>732.117</ele>
<time>2020-09-11T11:10:55Z</time>
</trkpt>
<trkpt lat="47.854591" lon="10.702227">
<ele>732.379</ele>
<time>2020-09-11T11:10:56Z</time>
</trkpt>
<trkpt lat="47.854557" lon="10.702253">
<ele>732.584</ele>
<time>2020-09-11T11:10:57Z</time>
</trkpt>
<trkpt lat="47.854523" lon="10.702278">
<ele>732.738</ele>
<time>2020-09-11T11:10:58Z</time>
</trkpt>
<trkpt lat="47.854492" lon="10.702306">
<ele>732.857</ele>
<time>2020-09-11T11:10:59Z</time>
</trkpt>
<trkpt lat="47.854454" lon="10.702337">
<ele>732.949</ele>
<time>2020-09-11T11:11:00Z</time>
</trkpt>
<trkpt lat="47.854412" lon="10.702367">
<ele>733.015</ele>
<time>2020-09-11T11:11:01Z</time>
</trkpt>
<trkpt lat="47.85437" lon="10.702402">
<ele>733.07</ele>
<time>2020-09-11T11:11:02Z</time>
</trkpt>
<trkpt lat="47.854332" lon="10.702435">
<ele>733.098</ele>
<time>2020-09-11T11:11:03Z</time>
</trkpt>
<trkpt lat="47.854294" lon="10.70246">
<ele>733.098</ele>
<time>2020-09-11T11:11:04Z</time>
</trkpt>
<trkpt lat="47.854256" lon="10.702483">
<ele>733.355</ele>
<time>2020-09-11T11:11:05Z</time>
</trkpt>
<trkpt lat="47.854221" lon="10.702507">
<ele>733.547</ele>
<time>2020-09-11T11:11:06Z</time>
</trkpt>
<trkpt lat="47.854183" lon="10.702534">
<ele>733.69</ele>
<time>2020-09-11T11:11:07Z</time>
</trkpt>
<trkpt lat="47.854149" lon="10.702561">
<ele>733.791</ele>
<time>2020-09-11T11:11:08Z</time>
</trkpt>
<trkpt lat="47.854111" lon="10.702588">
<ele>733.867</ele>
<time>2020-09-11T11:11:09Z</time>
</trkpt>
<trkpt lat="47.854076" lon="10.702623">
<ele>733.921</ele>
<time>2020-09-11T11:11:10Z</time>
</trkpt>
<trkpt lat="47.854042" lon="10.702657">
<ele>733.963</ele>
<time>2020-09-11T11:11:11Z</time>
</trkpt>
<trkpt lat="47.854004" lon="10.702687">
<ele>734.254</ele>
<time>2020-09-11T11:11:12Z</time>
</trkpt>
<trkpt lat="47.853966" lon="10.70271">
<ele>734.476</ele>
<time>2020-09-11T11:11:13Z</time>
</trkpt>
<trkpt lat="47.853928" lon="10.702735">
<ele>734.655</ele>
<time>2020-09-11T11:11:14Z</time>
</trkpt>
<trkpt lat="47.853893" lon="10.702759">
<ele>734.795</ele>
<time>2020-09-11T11:11:15Z</time>
</trkpt>
<trkpt lat="47.853851" lon="10.702786">
<ele>734.908</ele>
<time>2020-09-11T11:11:16Z</time>
</trkpt>
<trkpt lat="47.853817" lon="10.70281">
<ele>734.986</ele>
<time>2020-09-11T11:11:17Z</time>
</trkpt>
<trkpt lat="47.853783" lon="10.702836">
<ele>735.035</ele>
<time>2020-09-11T11:11:18Z</time>
</trkpt>
<trkpt lat="47.853748" lon="10.702867">
<ele>735.061</ele>
<time>2020-09-11T11:11:19Z</time>
</trkpt>
<trkpt lat="47.853714" lon="10.702895">
<ele>735.061</ele>
<time>2020-09-11T11:11:20Z</time>
</trkpt>
<trkpt lat="47.853683" lon="10.70292">
<ele>735.061</ele>
<time>2020-09-11T11:11:21Z</time>
</trkpt>
<trkpt lat="47.853649" lon="10.702949">
<ele>735.061</ele>
<time>2020-09-11T11:11:22Z</time>
</trkpt>
<trkpt lat="47.853619" lon="10.702971">
<ele>735.061</ele>
<time>2020-09-11T11:11:23Z</time>
</trkpt>
<trkpt lat="47.853584" lon="10.703">
<ele>735.061</ele>
<time>2020-09-11T11:11:24Z</time>
</trkpt>
<trkpt lat="47.85355" lon="10.703029">
<ele>735.333</ele>
<time>2020-09-11T11:11:25Z</time>
</trkpt>
<trkpt lat="47.853512" lon="10.703055">
<ele>735.55</ele>
<time>2020-09-11T11:11:26Z</time>
</trkpt>
<trkpt lat="47.85347" lon="10.70308">
<ele>735.712</ele>
<time>2020-09-11T11:11:27Z</time>
</trkpt>
<trkpt lat="47.853428" lon="10.703107">
<ele>735.84</ele>
<time>2020-09-11T11:11:28Z</time>
</trkpt>
<trkpt lat="47.85339" lon="10.70314">
<ele>735.92</ele>
<time>2020-09-11T11:11:29Z</time>
</trkpt>
<trkpt lat="47.853355" lon="10.703172">
<ele>735.978</ele>
<time>2020-09-11T11:11:30Z</time>
</trkpt>
<trkpt lat="47.853317" lon="10.703203">
<ele>736.018</ele>
<time>2020-09-11T11:11:31Z</time>
</trkpt>
<trkpt lat="47.853279" lon="10.703235">
<ele>736.285</ele>
<time>2020-09-11T11:11:32Z</time>
</trkpt>
<trkpt lat="47.853245" lon="10.703261">
<ele>736.483</ele>
<time>2020-09-11T11:11:33Z</time>
</trkpt>
<trkpt lat="47.853207" lon="10.703286">
<ele>736.643</ele>
<time>2020-09-11T11:11:34Z</time>
</trkpt>
<trkpt lat="47.853172" lon="10.703318">
<ele>736.771</ele>
<time>2020-09-11T11:11:35Z</time>
</trkpt>
<trkpt lat="47.853134" lon="10.70335">
<ele>736.875</ele>
<time>2020-09-11T11:11:36Z</time>
</trkpt>
<trkpt lat="47.8531" lon="10.703379">
<ele>736.95</ele>
<time>2020-09-11T11:11:37Z</time>
</trkpt>
<trkpt lat="47.853062" lon="10.703406">
<ele>737</ele>
<time>2020-09-11T11:11:38Z</time>
</trkpt>
<trkpt lat="47.853031" lon="10.703433">
<ele>737.023</ele>
<time>2020-09-11T11:11:39Z</time>
</trkpt>
<trkpt lat="47.852993" lon="10.703464">
<ele>737.024</ele>
<time>2020-09-11T11:11:40Z</time>
</trkpt>
<trkpt lat="47.852955" lon="10.70349">
<ele>737.023</ele>
<time>2020-09-11T11:11:41Z</time>
</trkpt>
<trkpt lat="47.852917" lon="10.70352">
<ele>737.24</ele>
<time>2020-09-11T11:11:42Z</time>
</trkpt>
<trkpt lat="47.852882" lon="10.70355">
<ele>737.422</ele>
<time>2020-09-11T11:11:43Z</time>
</trkpt>
<trkpt lat="47.852844" lon="10.703578">
<ele>737.573</ele>
<time>2020-09-11T11:11:44Z</time>
</trkpt>
<trkpt lat="47.852806" lon="10.703605">
<ele>737.695</ele>
<time>2020-09-11T11:11:45Z</time>
</trkpt>
<trkpt lat="47.852768" lon="10.703631">
<ele>737.787</ele>
<time>2020-09-11T11:11:46Z</time>
</trkpt>
<trkpt lat="47.852734" lon="10.703657">
<ele>737.854</ele>
<time>2020-09-11T11:11:47Z</time>
</trkpt>
<trkpt lat="47.852695" lon="10.703685">
<ele>737.895</ele>
<time>2020-09-11T11:11:48Z</time>
</trkpt>
<trkpt lat="47.852654" lon="10.703715">
<ele>737.916</ele>
<time>2020-09-11T11:11:49Z</time>
</trkpt>
<trkpt lat="47.852619" lon="10.703743">
<ele>737.916</ele>
<time>2020-09-11T11:11:50Z</time>
</trkpt>
<trkpt lat="47.852581" lon="10.703769">
<ele>737.916</ele>
<time>2020-09-11T11:11:51Z</time>
</trkpt>
<trkpt lat="47.852543" lon="10.703794">
<ele>737.916</ele>
<time>2020-09-11T11:11:52Z</time>
</trkpt>
<trkpt lat="47.852505" lon="10.70382">
<ele>737.916</ele>
<time>2020-09-11T11:11:53Z</time>
</trkpt>
<trkpt lat="47.852467" lon="10.703852">
<ele>737.916</ele>
<time>2020-09-11T11:11:54Z</time>
</trkpt>
<trkpt lat="47.852425" lon="10.703883">
<ele>737.916</ele>
<time>2020-09-11T11:11:55Z</time>
</trkpt>
<trkpt lat="47.852383" lon="10.703913">
<ele>737.916</ele>
<time>2020-09-11T11:11:56Z</time>
</trkpt>
<trkpt lat="47.852345" lon="10.70394">
<ele>737.916</ele>
<time>2020-09-11T11:11:57Z</time>
</trkpt>
<trkpt lat="47.852306" lon="10.703967">
<ele>737.916</ele>
<time>2020-09-11T11:11:58Z</time>
</trkpt>
<trkpt lat="47.852264" lon="10.703993">
<ele>737.916</ele>
<time>2020-09-11T11:11:59Z</time>
</trkpt>
<trkpt lat="47.852222" lon="10.704021">
<ele>737.916</ele>
<time>2020-09-11T11:12:00Z</time>
</trkpt>
<trkpt lat="47.85218" lon="10.704051">
<ele>738.215</ele>
<time>2020-09-11T11:12:01Z</time>
</trkpt>
<trkpt lat="47.852142" lon="10.704082">
<ele>738.496</ele>
<time>2020-09-11T11:12:02Z</time>
</trkpt>
<trkpt lat="47.852097" lon="10.704115">
<ele>738.729</ele>
<time>2020-09-11T11:12:03Z</time>
</trkpt>
<trkpt lat="47.852055" lon="10.704145">
<ele>738.916</ele>
<time>2020-09-11T11:12:04Z</time>
</trkpt>
<trkpt lat="47.852016" lon="10.704172">
<ele>739.059</ele>
<time>2020-09-11T11:12:05Z</time>
</trkpt>
<trkpt lat="47.851974" lon="10.7042">
<ele>739.16</ele>
<time>2020-09-11T11:12:06Z</time>
</trkpt>
<trkpt lat="47.851933" lon="10.704228">
<ele>739.224</ele>
<time>2020-09-11T11:12:07Z</time>
</trkpt>
<trkpt lat="47.851891" lon="10.704256">
<ele>739.255</ele>
<time>2020-09-11T11:12:08Z</time>
</trkpt>
<trkpt lat="47.851845" lon="10.704287">
<ele>739.255</ele>
<time>2020-09-11T11:12:09Z</time>
</trkpt>
<trkpt lat="47.851799" lon="10.704317">
<ele>739.276</ele>
<time>2020-09-11T11:12:10Z</time>
</trkpt>
<trkpt lat="47.851757" lon="10.704349">
<ele>739.292</ele>
<time>2020-09-11T11:12:11Z</time>
</trkpt>
<trkpt lat="47.851711" lon="10.704378">
<ele>739.308</ele>
<time>2020-09-11T11:12:12Z</time>
</trkpt>
<trkpt lat="47.851665" lon="10.704407">
<ele>739.314</ele>
<time>2020-09-11T11:12:13Z</time>
</trkpt>
<trkpt lat="47.851627" lon="10.704433">
<ele>739.039</ele>
<time>2020-09-11T11:12:14Z</time>
</trkpt>
<trkpt lat="47.851582" lon="10.704458">
<ele>738.828</ele>
<time>2020-09-11T11:12:15Z</time>
</trkpt>
<trkpt lat="47.851536" lon="10.704483">
<ele>738.669</ele>
<time>2020-09-11T11:12:16Z</time>
</trkpt>
<trkpt lat="47.851494" lon="10.70451">
<ele>738.555</ele>
<time>2020-09-11T11:12:17Z</time>
</trkpt>
<trkpt lat="47.851452" lon="10.704536">
<ele>738.469</ele>
<time>2020-09-11T11:12:18Z</time>
</trkpt>
<trkpt lat="47.851402" lon="10.704565">
<ele>738.416</ele>
<time>2020-09-11T11:12:19Z</time>
</trkpt>
<trkpt lat="47.851364" lon="10.704594">
<ele>738.385</ele>
<time>2020-09-11T11:12:20Z</time>
</trkpt>
<trkpt lat="47.851318" lon="10.704618">
<ele>738.362</ele>
<time>2020-09-11T11:12:21Z</time>
</trkpt>
<trkpt lat="47.851269" lon="10.704643">
<ele>738.362</ele>
<time>2020-09-11T11:12:22Z</time>
</trkpt>
<trkpt lat="47.851231" lon="10.704669">
<ele>738.362</ele>
<time>2020-09-11T11:12:23Z</time>
</trkpt>
<trkpt lat="47.851185" lon="10.704694">
<ele>738.698</ele>
<time>2020-09-11T11:12:24Z</time>
</trkpt>
<trkpt lat="47.851139" lon="10.704719">
<ele>738.96</ele>
<time>2020-09-11T11:12:25Z</time>
</trkpt>
<trkpt lat="47.851097" lon="10.704741">
<ele>739.152</ele>
<time>2020-09-11T11:12:26Z</time>
</trkpt>
<trkpt lat="47.851051" lon="10.704763">
<ele>739.301</ele>
<time>2020-09-11T11:12:27Z</time>
</trkpt>
<trkpt lat="47.851006" lon="10.704788">
<ele>739.398</ele>
<time>2020-09-11T11:12:28Z</time>
</trkpt>
<trkpt lat="47.85096" lon="10.704814">
<ele>739.46</ele>
<time>2020-09-11T11:12:29Z</time>
</trkpt>
<trkpt lat="47.85091" lon="10.704841">
<ele>739.495</ele>
<time>2020-09-11T11:12:30Z</time>
</trkpt>
<trkpt lat="47.850868" lon="10.704866">
<ele>739.523</ele>
<time>2020-09-11T11:12:31Z</time>
</trkpt>
<trkpt lat="47.850822" lon="10.704897">
<ele>739.523</ele>
<time>2020-09-11T11:12:32Z</time>
</trkpt>
<trkpt lat="47.850777" lon="10.704926">
<ele>739.523</ele>
<time>2020-09-11T11:12:33Z</time>
</trkpt>
<trkpt lat="47.850727" lon="10.704953">
<ele>739.523</ele>
<time>2020-09-11T11:12:34Z</time>
</trkpt>
<trkpt lat="47.850681" lon="10.704979">
<ele>739.877</ele>
<time>2020-09-11T11:12:35Z</time>
</trkpt>
<trkpt lat="47.850636" lon="10.705004">
<ele>740.148</ele>
<time>2020-09-11T11:12:36Z</time>
</trkpt>
<trkpt lat="47.85059" lon="10.705028">
<ele>740.356</ele>
<time>2020-09-11T11:12:37Z</time>
</trkpt>
<trkpt lat="47.850544" lon="10.705053">
<ele>740.508</ele>
<time>2020-09-11T11:12:38Z</time>
</trkpt>
<trkpt lat="47.850494" lon="10.705078">
<ele>740.615</ele>
<time>2020-09-11T11:12:39Z</time>
</trkpt>
<trkpt lat="47.850452" lon="10.7051">
<ele>740.681</ele>
<time>2020-09-11T11:12:40Z</time>
</trkpt>
<trkpt lat="47.850403" lon="10.705126">
<ele>740.736</ele>
<time>2020-09-11T11:12:41Z</time>
</trkpt>
<trkpt lat="47.850357" lon="10.705152">
<ele>740.772</ele>
<time>2020-09-11T11:12:42Z</time>
</trkpt>
<trkpt lat="47.850319" lon="10.705176">
<ele>740.772</ele>
<time>2020-09-11T11:12:43Z</time>
</trkpt>
<trkpt lat="47.850273" lon="10.705199">
<ele>740.772</ele>
<time>2020-09-11T11:12:44Z</time>
</trkpt>
<trkpt lat="47.850231" lon="10.705224">
<ele>741.016</ele>
<time>2020-09-11T11:12:45Z</time>
</trkpt>
<trkpt lat="47.850193" lon="10.705248">
<ele>741.209</ele>
<time>2020-09-11T11:12:46Z</time>
</trkpt>
<trkpt lat="47.850155" lon="10.705273">
<ele>741.356</ele>
<time>2020-09-11T11:12:47Z</time>
</trkpt>
<trkpt lat="47.850121" lon="10.7053">
<ele>741.47</ele>
<time>2020-09-11T11:12:48Z</time>
</trkpt>
<trkpt lat="47.850082" lon="10.705323">
<ele>741.532</ele>
<time>2020-09-11T11:12:49Z</time>
</trkpt>
<trkpt lat="47.850048" lon="10.705346">
<ele>741.839</ele>
<time>2020-09-11T11:12:50Z</time>
</trkpt>
<trkpt lat="47.850018" lon="10.705367">
<ele>742.073</ele>
<time>2020-09-11T11:12:51Z</time>
</trkpt>
<trkpt lat="47.849987" lon="10.705387">
<ele>742.286</ele>
<time>2020-09-11T11:12:52Z</time>
</trkpt>
<trkpt lat="47.849957" lon="10.705405">
<ele>742.437</ele>
<time>2020-09-11T11:12:53Z</time>
</trkpt>
<trkpt lat="47.849926" lon="10.705423">
<ele>742.545</ele>
<time>2020-09-11T11:12:54Z</time>
</trkpt>
<trkpt lat="47.849892" lon="10.705443">
<ele>742.873</ele>
<time>2020-09-11T11:12:55Z</time>
</trkpt>
<trkpt lat="47.849865" lon="10.705462">
<ele>743.13</ele>
<time>2020-09-11T11:12:56Z</time>
</trkpt>
<trkpt lat="47.849834" lon="10.70548">
<ele>743.328</ele>
<time>2020-09-11T11:12:57Z</time>
</trkpt>
<trkpt lat="47.849804" lon="10.705497">
<ele>743.475</ele>
<time>2020-09-11T11:12:58Z</time>
</trkpt>
<trkpt lat="47.849773" lon="10.705511">
<ele>743.799</ele>
<time>2020-09-11T11:12:59Z</time>
</trkpt>
<trkpt lat="47.849747" lon="10.705526">
<ele>744.028</ele>
<time>2020-09-11T11:13:00Z</time>
</trkpt>
<trkpt lat="47.84972" lon="10.705542">
<ele>744.207</ele>
<time>2020-09-11T11:13:01Z</time>
</trkpt>
<trkpt lat="47.849693" lon="10.70556">
<ele>744.363</ele>
<time>2020-09-11T11:13:02Z</time>
</trkpt>
<trkpt lat="47.849663" lon="10.705579">
<ele>744.457</ele>
<time>2020-09-11T11:13:03Z</time>
</trkpt>
<trkpt lat="47.849636" lon="10.7056">
<ele>744.776</ele>
<time>2020-09-11T11:13:04Z</time>
</trkpt>
<trkpt lat="47.849609" lon="10.705622">
<ele>745.024</ele>
<time>2020-09-11T11:13:05Z</time>
</trkpt>
<trkpt lat="47.849583" lon="10.705646">
<ele>745.185</ele>
<time>2020-09-11T11:13:06Z</time>
</trkpt>
<trkpt lat="47.849552" lon="10.705664">
<ele>745.648</ele>
<time>2020-09-11T11:13:07Z</time>
</trkpt>
<trkpt lat="47.849529" lon="10.705685">
<ele>745.943</ele>
<time>2020-09-11T11:13:08Z</time>
</trkpt>
<trkpt lat="47.849503" lon="10.705707">
<ele>746.152</ele>
<time>2020-09-11T11:13:09Z</time>
</trkpt>
<trkpt lat="47.849472" lon="10.705729">
<ele>746.276</ele>
<time>2020-09-11T11:13:10Z</time>
</trkpt>
<trkpt lat="47.849445" lon="10.70575">
<ele>746.651</ele>
<time>2020-09-11T11:13:11Z</time>
</trkpt>
<trkpt lat="47.849415" lon="10.705769">
<ele>746.961</ele>
<time>2020-09-11T11:13:12Z</time>
</trkpt>
<trkpt lat="47.849388" lon="10.705788">
<ele>747.204</ele>
<time>2020-09-11T11:13:13Z</time>
</trkpt>
<trkpt lat="47.849365" lon="10.705812">
<ele>747.35</ele>
<time>2020-09-11T11:13:14Z</time>
</trkpt>
<trkpt lat="47.849342" lon="10.705833">
<ele>747.73</ele>
<time>2020-09-11T11:13:15Z</time>
</trkpt>
<trkpt lat="47.849312" lon="10.705855">
<ele>748.042</ele>
<time>2020-09-11T11:13:16Z</time>
</trkpt>
<trkpt lat="47.849285" lon="10.705878">
<ele>748.272</ele>
<time>2020-09-11T11:13:17Z</time>
</trkpt>
<trkpt lat="47.849262" lon="10.705896">
<ele>748.446</ele>
<time>2020-09-11T11:13:18Z</time>
</trkpt>
<trkpt lat="47.849228" lon="10.70592">
<ele>748.584</ele>
<time>2020-09-11T11:13:19Z</time>
</trkpt>
<trkpt lat="47.849197" lon="10.705943">
<ele>748.628</ele>
<time>2020-09-11T11:13:20Z</time>
</trkpt>
<trkpt lat="47.849167" lon="10.70597">
<ele>748.893</ele>
<time>2020-09-11T11:13:21Z</time>
</trkpt>
<trkpt lat="47.849144" lon="10.705994">
<ele>749.118</ele>
<time>2020-09-11T11:13:22Z</time>
</trkpt>
<trkpt lat="47.84911" lon="10.706022">
<ele>749.276</ele>
<time>2020-09-11T11:13:23Z</time>
</trkpt>
<trkpt lat="47.849083" lon="10.706045">
<ele>749.395</ele>
<time>2020-09-11T11:13:24Z</time>
</trkpt>
<trkpt lat="47.849052" lon="10.706066">
<ele>749.49</ele>
<time>2020-09-11T11:13:25Z</time>
</trkpt>
<trkpt lat="47.849018" lon="10.706087">
<ele>749.545</ele>
<time>2020-09-11T11:13:26Z</time>
</trkpt>
<trkpt lat="47.848995" lon="10.70611">
<ele>749.844</ele>
<time>2020-09-11T11:13:27Z</time>
</trkpt>
<trkpt lat="47.848969" lon="10.706134">
<ele>750.085</ele>
<time>2020-09-11T11:13:28Z</time>
</trkpt>
<trkpt lat="47.848946" lon="10.706153">
<ele>750.283</ele>
<time>2020-09-11T11:13:29Z</time>
</trkpt>
<trkpt lat="47.848915" lon="10.70618">
<ele>750.411</ele>
<time>2020-09-11T11:13:30Z</time>
</trkpt>
<trkpt lat="47.848888" lon="10.70621">
<ele>750.497</ele>
<time>2020-09-11T11:13:31Z</time>
</trkpt>
<trkpt lat="47.848858" lon="10.706234">
<ele>750.596</ele>
<time>2020-09-11T11:13:32Z</time>
</trkpt>
<trkpt lat="47.848827" lon="10.706248">
<ele>750.656</ele>
<time>2020-09-11T11:13:33Z</time>
</trkpt>
<trkpt lat="47.848797" lon="10.70626">
<ele>750.926</ele>
<time>2020-09-11T11:13:34Z</time>
</trkpt>
<trkpt lat="47.848766" lon="10.706274">
<ele>751.197</ele>
<time>2020-09-11T11:13:35Z</time>
</trkpt>
<trkpt lat="47.84874" lon="10.70629">
<ele>751.36</ele>
<time>2020-09-11T11:13:36Z</time>
</trkpt>
<trkpt lat="47.848709" lon="10.706304">
<ele>751.484</ele>
<time>2020-09-11T11:13:37Z</time>
</trkpt>
<trkpt lat="47.848679" lon="10.706315">
<ele>751.563</ele>
<time>2020-09-11T11:13:38Z</time>
</trkpt>
<trkpt lat="47.84864" lon="10.706332">
<ele>751.611</ele>
<time>2020-09-11T11:13:39Z</time>
</trkpt>
<trkpt lat="47.848606" lon="10.706347">
<ele>751.645</ele>
<time>2020-09-11T11:13:40Z</time>
</trkpt>
<trkpt lat="47.848576" lon="10.706364">
<ele>751.669</ele>
<time>2020-09-11T11:13:41Z</time>
</trkpt>
<trkpt lat="47.848549" lon="10.706379">
<ele>751.669</ele>
<time>2020-09-11T11:13:42Z</time>
</trkpt>
<trkpt lat="47.848526" lon="10.706389">
<ele>751.669</ele>
<time>2020-09-11T11:13:43Z</time>
</trkpt>
<trkpt lat="47.848495" lon="10.706413">
<ele>751.669</ele>
<time>2020-09-11T11:13:44Z</time>
</trkpt>
<trkpt lat="47.84845" lon="10.706435">
<ele>751.669</ele>
<time>2020-09-11T11:13:45Z</time>
</trkpt>
<trkpt lat="47.848404" lon="10.706458">
<ele>751.95</ele>
<time>2020-09-11T11:13:46Z</time>
</trkpt>
<trkpt lat="47.84837" lon="10.706471">
<ele>752.165</ele>
<time>2020-09-11T11:13:47Z</time>
</trkpt>
<trkpt lat="47.848324" lon="10.706485">
<ele>752.331</ele>
<time>2020-09-11T11:13:48Z</time>
</trkpt>
<trkpt lat="47.848274" lon="10.706491">
<ele>752.455</ele>
<time>2020-09-11T11:13:49Z</time>
</trkpt>
<trkpt lat="47.848221" lon="10.7065">
<ele>752.542</ele>
<time>2020-09-11T11:13:50Z</time>
</trkpt>
<trkpt lat="47.848175" lon="10.706513">
<ele>752.59</ele>
<time>2020-09-11T11:13:51Z</time>
</trkpt>
<trkpt lat="47.848141" lon="10.706521">
<ele>752.632</ele>
<time>2020-09-11T11:13:52Z</time>
</trkpt>
<trkpt lat="47.84811" lon="10.706527">
<ele>752.652</ele>
<time>2020-09-11T11:13:53Z</time>
</trkpt>
<trkpt lat="47.848076" lon="10.706533">
<ele>752.652</ele>
<time>2020-09-11T11:13:54Z</time>
</trkpt>
<trkpt lat="47.848034" lon="10.706549">
<ele>752.652</ele>
<time>2020-09-11T11:13:55Z</time>
</trkpt>
<trkpt lat="47.84798" lon="10.706576">
<ele>752.652</ele>
<time>2020-09-11T11:13:56Z</time>
</trkpt>
<trkpt lat="47.847942" lon="10.706592">
<ele>752.651</ele>
<time>2020-09-11T11:13:57Z</time>
</trkpt>
<trkpt lat="47.847904" lon="10.706607">
<ele>752.652</ele>
<time>2020-09-11T11:13:58Z</time>
</trkpt>
<trkpt lat="47.847866" lon="10.70663">
<ele>752.652</ele>
<time>2020-09-11T11:13:59Z</time>
</trkpt>
<trkpt lat="47.847832" lon="10.706654">
<ele>752.652</ele>
<time>2020-09-11T11:14:00Z</time>
</trkpt>
<trkpt lat="47.84779" lon="10.706678">
<ele>752.652</ele>
<time>2020-09-11T11:14:01Z</time>
</trkpt>
<trkpt lat="47.847748" lon="10.706701">
<ele>752.652</ele>
<time>2020-09-11T11:14:02Z</time>
</trkpt>
<trkpt lat="47.847713" lon="10.706727">
<ele>752.652</ele>
<time>2020-09-11T11:14:03Z</time>
</trkpt>
<trkpt lat="47.847675" lon="10.706757">
<ele>752.652</ele>
<time>2020-09-11T11:14:04Z</time>
</trkpt>
<trkpt lat="47.84763" lon="10.706794">
<ele>752.652</ele>
<time>2020-09-11T11:14:05Z</time>
</trkpt>
<trkpt lat="47.847591" lon="10.706821">
<ele>752.652</ele>
<time>2020-09-11T11:14:06Z</time>
</trkpt>
<trkpt lat="47.847553" lon="10.706852">
<ele>752.652</ele>
<time>2020-09-11T11:14:07Z</time>
</trkpt>
<trkpt lat="47.847507" lon="10.70688">
<ele>752.652</ele>
<time>2020-09-11T11:14:08Z</time>
</trkpt>
<trkpt lat="47.847462" lon="10.706908">
<ele>752.652</ele>
<time>2020-09-11T11:14:09Z</time>
</trkpt>
<trkpt lat="47.847416" lon="10.706944">
<ele>752.652</ele>
<time>2020-09-11T11:14:10Z</time>
</trkpt>
<trkpt lat="47.847363" lon="10.706982">
<ele>752.652</ele>
<time>2020-09-11T11:14:11Z</time>
</trkpt>
<trkpt lat="47.847321" lon="10.707017">
<ele>752.652</ele>
<time>2020-09-11T11:14:12Z</time>
</trkpt>
<trkpt lat="47.847267" lon="10.707058">
<ele>752.652</ele>
<time>2020-09-11T11:14:13Z</time>
</trkpt>
<trkpt lat="47.847221" lon="10.707095">
<ele>752.652</ele>
<time>2020-09-11T11:14:14Z</time>
</trkpt>
<trkpt lat="47.84716" lon="10.707129">
<ele>752.652</ele>
<time>2020-09-11T11:14:15Z</time>
</trkpt>
<trkpt lat="47.847107" lon="10.707171">
<ele>752.652</ele>
<time>2020-09-11T11:14:16Z</time>
</trkpt>
<trkpt lat="47.847057" lon="10.707218">
<ele>752.652</ele>
<time>2020-09-11T11:14:17Z</time>
</trkpt>
<trkpt lat="47.847" lon="10.707258">
<ele>752.652</ele>
<time>2020-09-11T11:14:18Z</time>
</trkpt>
<trkpt lat="47.846947" lon="10.707314">
<ele>752.398</ele>
<time>2020-09-11T11:14:19Z</time>
</trkpt>
<trkpt lat="47.846897" lon="10.707368">
<ele>752.199</ele>
<time>2020-09-11T11:14:20Z</time>
</trkpt>
<trkpt lat="47.84684" lon="10.707424">
<ele>752.071</ele>
<time>2020-09-11T11:14:21Z</time>
</trkpt>
<trkpt lat="47.846779" lon="10.707481">
<ele>751.677</ele>
<time>2020-09-11T11:14:22Z</time>
</trkpt>
<trkpt lat="47.84671" lon="10.70755">
<ele>751.367</ele>
<time>2020-09-11T11:14:23Z</time>
</trkpt>
<trkpt lat="47.846642" lon="10.707615">
<ele>751.164</ele>
<time>2020-09-11T11:14:24Z</time>
</trkpt>
<trkpt lat="47.846577" lon="10.707684">
<ele>750.726</ele>
<time>2020-09-11T11:14:25Z</time>
</trkpt>
<trkpt lat="47.846516" lon="10.70775">
<ele>750.41</ele>
<time>2020-09-11T11:14:26Z</time>
</trkpt>
<trkpt lat="47.846455" lon="10.707829">
<ele>750.221</ele>
<time>2020-09-11T11:14:27Z</time>
</trkpt>
<trkpt lat="47.846397" lon="10.707909">
<ele>749.795</ele>
<time>2020-09-11T11:14:28Z</time>
</trkpt>
<trkpt lat="47.846333" lon="10.707994">
<ele>749.475</ele>
<time>2020-09-11T11:14:29Z</time>
</trkpt>
<trkpt lat="47.846268" lon="10.708085">
<ele>749.288</ele>
<time>2020-09-11T11:14:30Z</time>
</trkpt>
<trkpt lat="47.846199" lon="10.708179">
<ele>748.886</ele>
<time>2020-09-11T11:14:31Z</time>
</trkpt>
<trkpt lat="47.846123" lon="10.708272">
<ele>748.529</ele>
<time>2020-09-11T11:14:32Z</time>
</trkpt>
<trkpt lat="47.846054" lon="10.708364">
<ele>748.272</ele>
<time>2020-09-11T11:14:33Z</time>
</trkpt>
<trkpt lat="47.845985" lon="10.708455">
<ele>748.109</ele>
<time>2020-09-11T11:14:34Z</time>
</trkpt>
<trkpt lat="47.845917" lon="10.708545">
<ele>747.731</ele>
<time>2020-09-11T11:14:35Z</time>
</trkpt>
<trkpt lat="47.845848" lon="10.708633">
<ele>747.451</ele>
<time>2020-09-11T11:14:36Z</time>
</trkpt>
<trkpt lat="47.845776" lon="10.708723">
<ele>747.242</ele>
<time>2020-09-11T11:14:37Z</time>
</trkpt>
<trkpt lat="47.845711" lon="10.708816">
<ele>747.089</ele>
<time>2020-09-11T11:14:38Z</time>
</trkpt>
<trkpt lat="47.845646" lon="10.708895">
<ele>746.971</ele>
<time>2020-09-11T11:14:39Z</time>
</trkpt>
<trkpt lat="47.845585" lon="10.708972">
<ele>746.917</ele>
<time>2020-09-11T11:14:40Z</time>
</trkpt>
<trkpt lat="47.845524" lon="10.70905">
<ele>746.872</ele>
<time>2020-09-11T11:14:41Z</time>
</trkpt>
<trkpt lat="47.845463" lon="10.709126">
<ele>746.844</ele>
<time>2020-09-11T11:14:42Z</time>
</trkpt>
<trkpt lat="47.845402" lon="10.709199">
<ele>746.587</ele>
<time>2020-09-11T11:14:43Z</time>
</trkpt>
<trkpt lat="47.845345" lon="10.709273">
<ele>746.384</ele>
<time>2020-09-11T11:14:44Z</time>
</trkpt>
<trkpt lat="47.845287" lon="10.709345">
<ele>746.228</ele>
<time>2020-09-11T11:14:45Z</time>
</trkpt>
<trkpt lat="47.84523" lon="10.709413">
<ele>746.111</ele>
<time>2020-09-11T11:14:46Z</time>
</trkpt>
<trkpt lat="47.845177" lon="10.709479">
<ele>746.025</ele>
<time>2020-09-11T11:14:47Z</time>
</trkpt>
<trkpt lat="47.845119" lon="10.709545">
<ele>745.977</ele>
<time>2020-09-11T11:14:48Z</time>
</trkpt>
<trkpt lat="47.84507" lon="10.709603">
<ele>745.951</ele>
<time>2020-09-11T11:14:49Z</time>
</trkpt>
<trkpt lat="47.845013" lon="10.709665">
<ele>746.129</ele>
<time>2020-09-11T11:14:50Z</time>
</trkpt>
<trkpt lat="47.844963" lon="10.709726">
<ele>746.144</ele>
<time>2020-09-11T11:14:51Z</time>
</trkpt>
<trkpt lat="47.844913" lon="10.709787">
<ele>746.328</ele>
<time>2020-09-11T11:14:52Z</time>
</trkpt>
<trkpt lat="47.844864" lon="10.709845">
<ele>746.482</ele>
<time>2020-09-11T11:14:53Z</time>
</trkpt>
<trkpt lat="47.844814" lon="10.7099">
<ele>746.608</ele>
<time>2020-09-11T11:14:54Z</time>
</trkpt>
<trkpt lat="47.844769" lon="10.709955">
<ele>746.706</ele>
<time>2020-09-11T11:14:55Z</time>
</trkpt>
<trkpt lat="47.844719" lon="10.710011">
<ele>746.776</ele>
<time>2020-09-11T11:14:56Z</time>
</trkpt>
<trkpt lat="47.844673" lon="10.71007">
<ele>746.823</ele>
<time>2020-09-11T11:14:57Z</time>
</trkpt>
<trkpt lat="47.844624" lon="10.710127">
<ele>746.844</ele>
<time>2020-09-11T11:14:58Z</time>
</trkpt>
<trkpt lat="47.844582" lon="10.710181">
<ele>746.844</ele>
<time>2020-09-11T11:14:59Z</time>
</trkpt>
<trkpt lat="47.844536" lon="10.710234">
<ele>746.844</ele>
<time>2020-09-11T11:15:00Z</time>
</trkpt>
<trkpt lat="47.84449" lon="10.710285">
<ele>746.844</ele>
<time>2020-09-11T11:15:01Z</time>
</trkpt>
<trkpt lat="47.844448" lon="10.710337">
<ele>746.844</ele>
<time>2020-09-11T11:15:02Z</time>
</trkpt>
<trkpt lat="47.844402" lon="10.710386">
<ele>746.844</ele>
<time>2020-09-11T11:15:03Z</time>
</trkpt>
<trkpt lat="47.844357" lon="10.710437">
<ele>746.844</ele>
<time>2020-09-11T11:15:04Z</time>
</trkpt>
<trkpt lat="47.844318" lon="10.710485">
<ele>746.845</ele>
<time>2020-09-11T11:15:05Z</time>
</trkpt>
<trkpt lat="47.844273" lon="10.710537">
<ele>746.844</ele>
<time>2020-09-11T11:15:06Z</time>
</trkpt>
<trkpt lat="47.844227" lon="10.710588">
<ele>746.844</ele>
<time>2020-09-11T11:15:07Z</time>
</trkpt>
<trkpt lat="47.844185" lon="10.71064">
<ele>746.844</ele>
<time>2020-09-11T11:15:08Z</time>
</trkpt>
<trkpt lat="47.844143" lon="10.71069">
<ele>746.844</ele>
<time>2020-09-11T11:15:09Z</time>
</trkpt>
<trkpt lat="47.844097" lon="10.710738">
<ele>746.844</ele>
<time>2020-09-11T11:15:10Z</time>
</trkpt>
<trkpt lat="47.844059" lon="10.710787">
<ele>746.844</ele>
<time>2020-09-11T11:15:11Z</time>
</trkpt>
<trkpt lat="47.844013" lon="10.710835">
<ele>746.844</ele>
<time>2020-09-11T11:15:12Z</time>
</trkpt>
<trkpt lat="47.843971" lon="10.710885">
<ele>747.136</ele>
<time>2020-09-11T11:15:13Z</time>
</trkpt>
<trkpt lat="47.843933" lon="10.710934">
<ele>747.359</ele>
<time>2020-09-11T11:15:14Z</time>
</trkpt>
<trkpt lat="47.843895" lon="10.710981">
<ele>747.529</ele>
<time>2020-09-11T11:15:15Z</time>
</trkpt>
<trkpt lat="47.843853" lon="10.71103">
<ele>747.655</ele>
<time>2020-09-11T11:15:16Z</time>
</trkpt>
<trkpt lat="47.843807" lon="10.711079">
<ele>747.744</ele>
<time>2020-09-11T11:15:17Z</time>
</trkpt>
<trkpt lat="47.843769" lon="10.711124">
<ele>747.798</ele>
<time>2020-09-11T11:15:18Z</time>
</trkpt>
<trkpt lat="47.843727" lon="10.71117">
<ele>747.823</ele>
<time>2020-09-11T11:15:19Z</time>
</trkpt>
<trkpt lat="47.843681" lon="10.711218">
<ele>747.827</ele>
<time>2020-09-11T11:15:20Z</time>
</trkpt>
<trkpt lat="47.843643" lon="10.711267">
<ele>747.827</ele>
<time>2020-09-11T11:15:21Z</time>
</trkpt>
<trkpt lat="47.843601" lon="10.711312">
<ele>747.827</ele>
<time>2020-09-11T11:15:22Z</time>
</trkpt>
<trkpt lat="47.843559" lon="10.711358">
<ele>747.827</ele>
<time>2020-09-11T11:15:23Z</time>
</trkpt>
<trkpt lat="47.843521" lon="10.711405">
<ele>748.108</ele>
<time>2020-09-11T11:15:24Z</time>
</trkpt>
<trkpt lat="47.843479" lon="10.711457">
<ele>748.327</ele>
<time>2020-09-11T11:15:25Z</time>
</trkpt>
<trkpt lat="47.843441" lon="10.711507">
<ele>748.5</ele>
<time>2020-09-11T11:15:26Z</time>
</trkpt>
<trkpt lat="47.843399" lon="10.711555">
<ele>748.623</ele>
<time>2020-09-11T11:15:27Z</time>
</trkpt>
<trkpt lat="47.843357" lon="10.711601">
<ele>748.708</ele>
<time>2020-09-11T11:15:28Z</time>
</trkpt>
<trkpt lat="47.843315" lon="10.71165">
<ele>748.762</ele>
<time>2020-09-11T11:15:29Z</time>
</trkpt>
<trkpt lat="47.843277" lon="10.711699">
<ele>748.787</ele>
<time>2020-09-11T11:15:30Z</time>
</trkpt>
<trkpt lat="47.843235" lon="10.711744">
<ele>748.809</ele>
<time>2020-09-11T11:15:31Z</time>
</trkpt>
<trkpt lat="47.843193" lon="10.71179">
<ele>748.809</ele>
<time>2020-09-11T11:15:32Z</time>
</trkpt>
<trkpt lat="47.843155" lon="10.711837">
<ele>749.128</ele>
<time>2020-09-11T11:15:33Z</time>
</trkpt>
<trkpt lat="47.843117" lon="10.711883">
<ele>749.374</ele>
<time>2020-09-11T11:15:34Z</time>
</trkpt>
<trkpt lat="47.843079" lon="10.71193">
<ele>749.563</ele>
<time>2020-09-11T11:15:35Z</time>
</trkpt>
<trkpt lat="47.843037" lon="10.711973">
<ele>749.679</ele>
<time>2020-09-11T11:15:36Z</time>
</trkpt>
<trkpt lat="47.842999" lon="10.712019">
<ele>750.018</ele>
<time>2020-09-11T11:15:37Z</time>
</trkpt>
<trkpt lat="47.842957" lon="10.712063">
<ele>750.269</ele>
<time>2020-09-11T11:15:38Z</time>
</trkpt>
<trkpt lat="47.842922" lon="10.712111">
<ele>750.416</ele>
<time>2020-09-11T11:15:39Z</time>
</trkpt>
<trkpt lat="47.842884" lon="10.712155">
<ele>750.77</ele>
<time>2020-09-11T11:15:40Z</time>
</trkpt>
<trkpt lat="47.842846" lon="10.712201">
<ele>751.032</ele>
<time>2020-09-11T11:15:41Z</time>
</trkpt>
<trkpt lat="47.842808" lon="10.712247">
<ele>751.284</ele>
<time>2020-09-11T11:15:42Z</time>
</trkpt>
<trkpt lat="47.84277" lon="10.712289">
<ele>751.475</ele>
<time>2020-09-11T11:15:43Z</time>
</trkpt>
<trkpt lat="47.842731" lon="10.712332">
<ele>751.606</ele>
<time>2020-09-11T11:15:44Z</time>
</trkpt>
<trkpt lat="47.842697" lon="10.712375">
<ele>751.676</ele>
<time>2020-09-11T11:15:45Z</time>
</trkpt>
<trkpt lat="47.842659" lon="10.712417">
<ele>751.989</ele>
<time>2020-09-11T11:15:46Z</time>
</trkpt>
<trkpt lat="47.842617" lon="10.712459">
<ele>752.235</ele>
<time>2020-09-11T11:15:47Z</time>
</trkpt>
<trkpt lat="47.842579" lon="10.712501">
<ele>752.449</ele>
<time>2020-09-11T11:15:48Z</time>
</trkpt>
<trkpt lat="47.842541" lon="10.712542">
<ele>752.578</ele>
<time>2020-09-11T11:15:49Z</time>
</trkpt>
<trkpt lat="47.842499" lon="10.712582">
<ele>752.674</ele>
<time>2020-09-11T11:15:50Z</time>
</trkpt>
<trkpt lat="47.842461" lon="10.712624">
<ele>752.743</ele>
<time>2020-09-11T11:15:51Z</time>
</trkpt>
<trkpt lat="47.842419" lon="10.712662">
<ele>752.802</ele>
<time>2020-09-11T11:15:52Z</time>
</trkpt>
<trkpt lat="47.842377" lon="10.712702">
<ele>752.831</ele>
<time>2020-09-11T11:15:53Z</time>
</trkpt>
<trkpt lat="47.842339" lon="10.712742">
<ele>752.831</ele>
<time>2020-09-11T11:15:54Z</time>
</trkpt>
<trkpt lat="47.842297" lon="10.712782">
<ele>752.831</ele>
<time>2020-09-11T11:15:55Z</time>
</trkpt>
<trkpt lat="47.842255" lon="10.712823">
<ele>752.831</ele>
<time>2020-09-11T11:15:56Z</time>
</trkpt>
<trkpt lat="47.842213" lon="10.712865">
<ele>752.831</ele>
<time>2020-09-11T11:15:57Z</time>
</trkpt>
<trkpt lat="47.842175" lon="10.712907">
<ele>752.831</ele>
<time>2020-09-11T11:15:58Z</time>
</trkpt>
<trkpt lat="47.842129" lon="10.71295">
<ele>752.831</ele>
<time>2020-09-11T11:15:59Z</time>
</trkpt>
<trkpt lat="47.842087" lon="10.712992">
<ele>752.831</ele>
<time>2020-09-11T11:16:00Z</time>
</trkpt>
<trkpt lat="47.842045" lon="10.713037">
<ele>752.831</ele>
<time>2020-09-11T11:16:01Z</time>
</trkpt>
<trkpt lat="47.842003" lon="10.713083">
<ele>752.831</ele>
<time>2020-09-11T11:16:02Z</time>
</trkpt>
<trkpt lat="47.841957" lon="10.713133">
<ele>752.831</ele>
<time>2020-09-11T11:16:03Z</time>
</trkpt>
<trkpt lat="47.841915" lon="10.713183">
<ele>752.831</ele>
<time>2020-09-11T11:16:04Z</time>
</trkpt>
<trkpt lat="47.841873" lon="10.713236">
<ele>752.831</ele>
<time>2020-09-11T11:16:05Z</time>
</trkpt>
<trkpt lat="47.841835" lon="10.713286">
<ele>752.831</ele>
<time>2020-09-11T11:16:06Z</time>
</trkpt>
<trkpt lat="47.841793" lon="10.713343">
<ele>752.831</ele>
<time>2020-09-11T11:16:07Z</time>
</trkpt>
<trkpt lat="47.841759" lon="10.713402">
<ele>752.83</ele>
<time>2020-09-11T11:16:08Z</time>
</trkpt>
<trkpt lat="47.841721" lon="10.713464">
<ele>752.831</ele>
<time>2020-09-11T11:16:09Z</time>
</trkpt>
<trkpt lat="47.84169" lon="10.713529">
<ele>752.831</ele>
<time>2020-09-11T11:16:10Z</time>
</trkpt>
<trkpt lat="47.841656" lon="10.713596">
<ele>752.83</ele>
<time>2020-09-11T11:16:11Z</time>
</trkpt>
<trkpt lat="47.841625" lon="10.713665">
<ele>752.83</ele>
<time>2020-09-11T11:16:12Z</time>
</trkpt>
<trkpt lat="47.841595" lon="10.713737">
<ele>752.831</ele>
<time>2020-09-11T11:16:13Z</time>
</trkpt>
<trkpt lat="47.841568" lon="10.71381">
<ele>752.83</ele>
<time>2020-09-11T11:16:14Z</time>
</trkpt>
<trkpt lat="47.841545" lon="10.713887">
<ele>752.831</ele>
<time>2020-09-11T11:16:15Z</time>
</trkpt>
<trkpt lat="47.841522" lon="10.713967">
<ele>752.831</ele>
<time>2020-09-11T11:16:16Z</time>
</trkpt>
<trkpt lat="47.841503" lon="10.714048">
<ele>752.831</ele>
<time>2020-09-11T11:16:17Z</time>
</trkpt>
<trkpt lat="47.841488" lon="10.714132">
<ele>752.831</ele>
<time>2020-09-11T11:16:18Z</time>
</trkpt>
<trkpt lat="47.841476" lon="10.714213">
<ele>752.831</ele>
<time>2020-09-11T11:16:19Z</time>
</trkpt>
<trkpt lat="47.841465" lon="10.714296">
<ele>752.83</ele>
<time>2020-09-11T11:16:20Z</time>
</trkpt>
<trkpt lat="47.841457" lon="10.714382">
<ele>752.831</ele>
<time>2020-09-11T11:16:21Z</time>
</trkpt>
<trkpt lat="47.841446" lon="10.714466">
<ele>752.83</ele>
<time>2020-09-11T11:16:22Z</time>
</trkpt>
<trkpt lat="47.841434" lon="10.714548">
<ele>752.83</ele>
<time>2020-09-11T11:16:23Z</time>
</trkpt>
<trkpt lat="47.841427" lon="10.714633">
<ele>752.831</ele>
<time>2020-09-11T11:16:24Z</time>
</trkpt>
<trkpt lat="47.841423" lon="10.714719">
<ele>752.83</ele>
<time>2020-09-11T11:16:25Z</time>
</trkpt>
<trkpt lat="47.841415" lon="10.714802">
<ele>752.831</ele>
<time>2020-09-11T11:16:26Z</time>
</trkpt>
<trkpt lat="47.841404" lon="10.714887">
<ele>752.83</ele>
<time>2020-09-11T11:16:27Z</time>
</trkpt>
<trkpt lat="47.841393" lon="10.714971">
<ele>752.831</ele>
<time>2020-09-11T11:16:28Z</time>
</trkpt>
<trkpt lat="47.841389" lon="10.715052">
<ele>752.831</ele>
<time>2020-09-11T11:16:29Z</time>
</trkpt>
<trkpt lat="47.841377" lon="10.715135">
<ele>752.831</ele>
<time>2020-09-11T11:16:30Z</time>
</trkpt>
<trkpt lat="47.841366" lon="10.715217">
<ele>752.831</ele>
<time>2020-09-11T11:16:31Z</time>
</trkpt>
<trkpt lat="47.841358" lon="10.715298">
<ele>752.831</ele>
<time>2020-09-11T11:16:32Z</time>
</trkpt>
<trkpt lat="47.841354" lon="10.715379">
<ele>753.121</ele>
<time>2020-09-11T11:16:33Z</time>
</trkpt>
<trkpt lat="47.841351" lon="10.715461">
<ele>753.347</ele>
<time>2020-09-11T11:16:34Z</time>
</trkpt>
<trkpt lat="47.841343" lon="10.715538">
<ele>753.517</ele>
<time>2020-09-11T11:16:35Z</time>
</trkpt>
<trkpt lat="47.841335" lon="10.715618">
<ele>753.644</ele>
<time>2020-09-11T11:16:36Z</time>
</trkpt>
<trkpt lat="47.841328" lon="10.715702">
<ele>753.735</ele>
<time>2020-09-11T11:16:37Z</time>
</trkpt>
<trkpt lat="47.84132" lon="10.715783">
<ele>753.784</ele>
<time>2020-09-11T11:16:38Z</time>
</trkpt>
<trkpt lat="47.841312" lon="10.715868">
<ele>753.814</ele>
<time>2020-09-11T11:16:39Z</time>
</trkpt>
<trkpt lat="47.841305" lon="10.715953">
<ele>753.814</ele>
<time>2020-09-11T11:16:40Z</time>
</trkpt>
<trkpt lat="47.841293" lon="10.716037">
<ele>753.814</ele>
<time>2020-09-11T11:16:41Z</time>
</trkpt>
<trkpt lat="47.841293" lon="10.716121">
<ele>753.814</ele>
<time>2020-09-11T11:16:42Z</time>
</trkpt>
<trkpt lat="47.841286" lon="10.716205">
<ele>753.814</ele>
<time>2020-09-11T11:16:43Z</time>
</trkpt>
<trkpt lat="47.841282" lon="10.716289">
<ele>753.814</ele>
<time>2020-09-11T11:16:44Z</time>
</trkpt>
<trkpt lat="47.841278" lon="10.716373">
<ele>753.537</ele>
<time>2020-09-11T11:16:45Z</time>
</trkpt>
<trkpt lat="47.841274" lon="10.71646">
<ele>753.321</ele>
<time>2020-09-11T11:16:46Z</time>
</trkpt>
<trkpt lat="47.84127" lon="10.716548">
<ele>753.158</ele>
<time>2020-09-11T11:16:47Z</time>
</trkpt>
<trkpt lat="47.841267" lon="10.716635">
<ele>753.037</ele>
<time>2020-09-11T11:16:48Z</time>
</trkpt>
<trkpt lat="47.841263" lon="10.716723">
<ele>752.952</ele>
<time>2020-09-11T11:16:49Z</time>
</trkpt>
<trkpt lat="47.841259" lon="10.716813">
<ele>752.9</ele>
<time>2020-09-11T11:16:50Z</time>
</trkpt>
<trkpt lat="47.841244" lon="10.716903">
<ele>752.858</ele>
<time>2020-09-11T11:16:51Z</time>
</trkpt>
<trkpt lat="47.841228" lon="10.71699">
<ele>752.831</ele>
<time>2020-09-11T11:16:52Z</time>
</trkpt>
<trkpt lat="47.841202" lon="10.71707">
<ele>752.83</ele>
<time>2020-09-11T11:16:53Z</time>
</trkpt>
<trkpt lat="47.841167" lon="10.717148">
<ele>752.831</ele>
<time>2020-09-11T11:16:54Z</time>
</trkpt>
<trkpt lat="47.841129" lon="10.717221">
<ele>752.552</ele>
<time>2020-09-11T11:16:55Z</time>
</trkpt>
<trkpt lat="47.841084" lon="10.717294">
<ele>752.334</ele>
<time>2020-09-11T11:16:56Z</time>
</trkpt>
<trkpt lat="47.841034" lon="10.71736">
<ele>752.171</ele>
<time>2020-09-11T11:16:57Z</time>
</trkpt>
<trkpt lat="47.840988" lon="10.717426">
<ele>752.079</ele>
<time>2020-09-11T11:16:58Z</time>
</trkpt>
<trkpt lat="47.840935" lon="10.717495">
<ele>751.734</ele>
<time>2020-09-11T11:16:59Z</time>
</trkpt>
<trkpt lat="47.840885" lon="10.717566">
<ele>751.473</ele>
<time>2020-09-11T11:17:00Z</time>
</trkpt>
<trkpt lat="47.840836" lon="10.717637">
<ele>751.291</ele>
<time>2020-09-11T11:17:01Z</time>
</trkpt>
<trkpt lat="47.84079" lon="10.717707">
<ele>751.125</ele>
<time>2020-09-11T11:17:02Z</time>
</trkpt>
<trkpt lat="47.840736" lon="10.717776">
<ele>751.025</ele>
<time>2020-09-11T11:17:03Z</time>
</trkpt>
<trkpt lat="47.840683" lon="10.717843">
<ele>750.7</ele>
<time>2020-09-11T11:17:04Z</time>
</trkpt>
<trkpt lat="47.84063" lon="10.717915">
<ele>750.445</ele>
<time>2020-09-11T11:17:05Z</time>
</trkpt>
<trkpt lat="47.840576" lon="10.717992">
<ele>750.287</ele>
<time>2020-09-11T11:17:06Z</time>
</trkpt>
<trkpt lat="47.840523" lon="10.718068">
<ele>749.821</ele>
<time>2020-09-11T11:17:07Z</time>
</trkpt>
<trkpt lat="47.840469" lon="10.718146">
<ele>749.558</ele>
<time>2020-09-11T11:17:08Z</time>
</trkpt>
<trkpt lat="47.840412" lon="10.718225">
<ele>749.075</ele>
<time>2020-09-11T11:17:09Z</time>
</trkpt>
<trkpt lat="47.840355" lon="10.718307">
<ele>748.727</ele>
<time>2020-09-11T11:17:10Z</time>
</trkpt>
<trkpt lat="47.840294" lon="10.718391">
<ele>748.478</ele>
<time>2020-09-11T11:17:11Z</time>
</trkpt>
<trkpt lat="47.840237" lon="10.718476">
<ele>748.024</ele>
<time>2020-09-11T11:17:12Z</time>
</trkpt>
<trkpt lat="47.840176" lon="10.718565">
<ele>747.681</ele>
<time>2020-09-11T11:17:13Z</time>
</trkpt>
<trkpt lat="47.840111" lon="10.718652">
<ele>747.464</ele>
<time>2020-09-11T11:17:14Z</time>
</trkpt>
<trkpt lat="47.840038" lon="10.718738">
<ele>747.064</ele>
<time>2020-09-11T11:17:15Z</time>
</trkpt>
<trkpt lat="47.839962" lon="10.718819">
<ele>746.453</ele>
<time>2020-09-11T11:17:16Z</time>
</trkpt>
<trkpt lat="47.839878" lon="10.718895">
<ele>746.051</ele>
<time>2020-09-11T11:17:17Z</time>
</trkpt>
<trkpt lat="47.839783" lon="10.718966">
<ele>745.463</ele>
<time>2020-09-11T11:17:18Z</time>
</trkpt>
<trkpt lat="47.839691" lon="10.71903">
<ele>744.782</ele>
<time>2020-09-11T11:17:19Z</time>
</trkpt>
<trkpt lat="47.839588" lon="10.719091">
<ele>743.95</ele>
<time>2020-09-11T11:17:20Z</time>
</trkpt>
<trkpt lat="47.839489" lon="10.719153">
<ele>743.395</ele>
<time>2020-09-11T11:17:21Z</time>
</trkpt>
<trkpt lat="47.839394" lon="10.719212">
<ele>742.649</ele>
<time>2020-09-11T11:17:22Z</time>
</trkpt>
<trkpt lat="47.839298" lon="10.719276">
<ele>742.17</ele>
<time>2020-09-11T11:17:23Z</time>
</trkpt>
<trkpt lat="47.839207" lon="10.719348">
<ele>741.538</ele>
<time>2020-09-11T11:17:24Z</time>
</trkpt>
<trkpt lat="47.839119" lon="10.71943">
<ele>740.853</ele>
<time>2020-09-11T11:17:25Z</time>
</trkpt>
<trkpt lat="47.839031" lon="10.71952">
<ele>740.036</ele>
<time>2020-09-11T11:17:26Z</time>
</trkpt>
<trkpt lat="47.838947" lon="10.71962">
<ele>739.474</ele>
<time>2020-09-11T11:17:27Z</time>
</trkpt>
<trkpt lat="47.838863" lon="10.71973">
<ele>738.764</ele>
<time>2020-09-11T11:17:28Z</time>
</trkpt>
<trkpt lat="47.838783" lon="10.719846">
<ele>737.908</ele>
<time>2020-09-11T11:17:29Z</time>
</trkpt>
<trkpt lat="47.838699" lon="10.71997">
<ele>737.333</ele>
<time>2020-09-11T11:17:30Z</time>
</trkpt>
<trkpt lat="47.838619" lon="10.720099">
<ele>736.566</ele>
<time>2020-09-11T11:17:31Z</time>
</trkpt>
<trkpt lat="47.838551" lon="10.720232">
<ele>735.756</ele>
<time>2020-09-11T11:17:32Z</time>
</trkpt>
<trkpt lat="47.838478" lon="10.720373">
<ele>734.843</ele>
<time>2020-09-11T11:17:33Z</time>
</trkpt>
<trkpt lat="47.838406" lon="10.72052">
<ele>734.243</ele>
<time>2020-09-11T11:17:34Z</time>
</trkpt>
<trkpt lat="47.838337" lon="10.720661">
<ele>733.527</ele>
<time>2020-09-11T11:17:35Z</time>
</trkpt>
<trkpt lat="47.838264" lon="10.720803">
<ele>732.687</ele>
<time>2020-09-11T11:17:36Z</time>
</trkpt>
<trkpt lat="47.838196" lon="10.720945">
<ele>731.742</ele>
<time>2020-09-11T11:17:37Z</time>
</trkpt>
<trkpt lat="47.83812" lon="10.721084">
<ele>731.098</ele>
<time>2020-09-11T11:17:38Z</time>
</trkpt>
<trkpt lat="47.838043" lon="10.721213">
<ele>730.284</ele>
<time>2020-09-11T11:17:39Z</time>
</trkpt>
<trkpt lat="47.837963" lon="10.721336">
<ele>729.677</ele>
<time>2020-09-11T11:17:40Z</time>
</trkpt>
<trkpt lat="47.837879" lon="10.721453">
<ele>729.297</ele>
<time>2020-09-11T11:17:41Z</time>
</trkpt>
<trkpt lat="47.837795" lon="10.721561">
<ele>728.735</ele>
<time>2020-09-11T11:17:42Z</time>
</trkpt>
<trkpt lat="47.837708" lon="10.721663">
<ele>728.057</ele>
<time>2020-09-11T11:17:43Z</time>
</trkpt>
<trkpt lat="47.837616" lon="10.721759">
<ele>727.56</ele>
<time>2020-09-11T11:17:44Z</time>
</trkpt>
<trkpt lat="47.837524" lon="10.721843">
<ele>727.19</ele>
<time>2020-09-11T11:17:45Z</time>
</trkpt>
<trkpt lat="47.837433" lon="10.721924">
<ele>726.959</ele>
<time>2020-09-11T11:17:46Z</time>
</trkpt>
<trkpt lat="47.837345" lon="10.722004">
<ele>726.495</ele>
<time>2020-09-11T11:17:47Z</time>
</trkpt>
<trkpt lat="47.837254" lon="10.722083">
<ele>726.137</ele>
<time>2020-09-11T11:17:48Z</time>
</trkpt>
<trkpt lat="47.83717" lon="10.722158">
<ele>725.875</ele>
<time>2020-09-11T11:17:49Z</time>
</trkpt>
<trkpt lat="47.83709" lon="10.722234">
<ele>725.704</ele>
<time>2020-09-11T11:17:50Z</time>
</trkpt>
<trkpt lat="47.837006" lon="10.722301">
<ele>725.613</ele>
<time>2020-09-11T11:17:51Z</time>
</trkpt>
<trkpt lat="47.836926" lon="10.722366">
<ele>725.522</ele>
<time>2020-09-11T11:17:52Z</time>
</trkpt>
<trkpt lat="47.836849" lon="10.722431">
<ele>725.21</ele>
<time>2020-09-11T11:17:53Z</time>
</trkpt>
<trkpt lat="47.836773" lon="10.722496">
<ele>724.966</ele>
<time>2020-09-11T11:17:54Z</time>
</trkpt>
<trkpt lat="47.836697" lon="10.722562">
<ele>724.691</ele>
<time>2020-09-11T11:17:55Z</time>
</trkpt>
<trkpt lat="47.836628" lon="10.722627">
<ele>724.551</ele>
<time>2020-09-11T11:17:56Z</time>
</trkpt>
<trkpt lat="47.836552" lon="10.72269">
<ele>724.453</ele>
<time>2020-09-11T11:17:57Z</time>
</trkpt>
<trkpt lat="47.836479" lon="10.722754">
<ele>724.391</ele>
<time>2020-09-11T11:17:58Z</time>
</trkpt>
<trkpt lat="47.836407" lon="10.722818">
<ele>724.363</ele>
<time>2020-09-11T11:17:59Z</time>
</trkpt>
<trkpt lat="47.836338" lon="10.722878">
<ele>724.36</ele>
<time>2020-09-11T11:18:00Z</time>
</trkpt>
<trkpt lat="47.836262" lon="10.722937">
<ele>724.145</ele>
<time>2020-09-11T11:18:01Z</time>
</trkpt>
<trkpt lat="47.836185" lon="10.72299">
<ele>723.94</ele>
<time>2020-09-11T11:18:02Z</time>
</trkpt>
<trkpt lat="47.836109" lon="10.723041">
<ele>723.77</ele>
<time>2020-09-11T11:18:03Z</time>
</trkpt>
<trkpt lat="47.836033" lon="10.723082">
<ele>723.634</ele>
<time>2020-09-11T11:18:04Z</time>
</trkpt>
<trkpt lat="47.835957" lon="10.723117">
<ele>723.528</ele>
<time>2020-09-11T11:18:05Z</time>
</trkpt>
<trkpt lat="47.83588" lon="10.723145">
<ele>723.452</ele>
<time>2020-09-11T11:18:06Z</time>
</trkpt>
<trkpt lat="47.8358" lon="10.723163">
<ele>723.404</ele>
<time>2020-09-11T11:18:07Z</time>
</trkpt>
<trkpt lat="47.83572" lon="10.723175">
<ele>723.38</ele>
<time>2020-09-11T11:18:08Z</time>
</trkpt>
<trkpt lat="47.835648" lon="10.723179">
<ele>723.38</ele>
<time>2020-09-11T11:18:09Z</time>
</trkpt>
<trkpt lat="47.835567" lon="10.723177">
<ele>723.38</ele>
<time>2020-09-11T11:18:10Z</time>
</trkpt>
<trkpt lat="47.835491" lon="10.723173">
<ele>723.38</ele>
<time>2020-09-11T11:18:11Z</time>
</trkpt>
<trkpt lat="47.835415" lon="10.723166">
<ele>723.38</ele>
<time>2020-09-11T11:18:12Z</time>
</trkpt>
<trkpt lat="47.835339" lon="10.723158">
<ele>723.38</ele>
<time>2020-09-11T11:18:13Z</time>
</trkpt>
<trkpt lat="47.835262" lon="10.723152">
<ele>723.125</ele>
<time>2020-09-11T11:18:14Z</time>
</trkpt>
<trkpt lat="47.835197" lon="10.723148">
<ele>722.927</ele>
<time>2020-09-11T11:18:15Z</time>
</trkpt>
<trkpt lat="47.835125" lon="10.723145">
<ele>722.776</ele>
<time>2020-09-11T11:18:16Z</time>
</trkpt>
<trkpt lat="47.835052" lon="10.723146">
<ele>722.664</ele>
<time>2020-09-11T11:18:17Z</time>
</trkpt>
<trkpt lat="47.83498" lon="10.72315">
<ele>722.583</ele>
<time>2020-09-11T11:18:18Z</time>
</trkpt>
<trkpt lat="47.834911" lon="10.72316">
<ele>722.534</ele>
<time>2020-09-11T11:18:19Z</time>
</trkpt>
<trkpt lat="47.834843" lon="10.723173">
<ele>722.51</ele>
<time>2020-09-11T11:18:20Z</time>
</trkpt>
<trkpt lat="47.834774" lon="10.723193">
<ele>722.488</ele>
<time>2020-09-11T11:18:21Z</time>
</trkpt>
<trkpt lat="47.834709" lon="10.723219">
<ele>722.488</ele>
<time>2020-09-11T11:18:22Z</time>
</trkpt>
<trkpt lat="47.834648" lon="10.723248">
<ele>722.488</ele>
<time>2020-09-11T11:18:23Z</time>
</trkpt>
<trkpt lat="47.834583" lon="10.723284">
<ele>722.488</ele>
<time>2020-09-11T11:18:24Z</time>
</trkpt>
<trkpt lat="47.834526" lon="10.723322">
<ele>722.488</ele>
<time>2020-09-11T11:18:25Z</time>
</trkpt>
<trkpt lat="47.834465" lon="10.723364">
<ele>722.488</ele>
<time>2020-09-11T11:18:26Z</time>
</trkpt>
<trkpt lat="47.834404" lon="10.723408">
<ele>722.488</ele>
<time>2020-09-11T11:18:27Z</time>
</trkpt>
<trkpt lat="47.834351" lon="10.723458">
<ele>722.488</ele>
<time>2020-09-11T11:18:28Z</time>
</trkpt>
<trkpt lat="47.834297" lon="10.723513">
<ele>722.488</ele>
<time>2020-09-11T11:18:29Z</time>
</trkpt>
<trkpt lat="47.834244" lon="10.723572">
<ele>722.488</ele>
<time>2020-09-11T11:18:30Z</time>
</trkpt>
<trkpt lat="47.83419" lon="10.723636">
<ele>722.488</ele>
<time>2020-09-11T11:18:31Z</time>
</trkpt>
<trkpt lat="47.834141" lon="10.723699">
<ele>722.488</ele>
<time>2020-09-11T11:18:32Z</time>
</trkpt>
<trkpt lat="47.834095" lon="10.723768">
<ele>722.488</ele>
<time>2020-09-11T11:18:33Z</time>
</trkpt>
<trkpt lat="47.834053" lon="10.72384">
<ele>722.489</ele>
<time>2020-09-11T11:18:34Z</time>
</trkpt>
<trkpt lat="47.834015" lon="10.723915">
<ele>722.488</ele>
<time>2020-09-11T11:18:35Z</time>
</trkpt>
<trkpt lat="47.833981" lon="10.72399">
<ele>722.488</ele>
<time>2020-09-11T11:18:36Z</time>
</trkpt>
<trkpt lat="47.833946" lon="10.724068">
<ele>722.488</ele>
<time>2020-09-11T11:18:37Z</time>
</trkpt>
<trkpt lat="47.833916" lon="10.724147">
<ele>722.488</ele>
<time>2020-09-11T11:18:38Z</time>
</trkpt>
<trkpt lat="47.833885" lon="10.72423">
<ele>722.488</ele>
<time>2020-09-11T11:18:39Z</time>
</trkpt>
<trkpt lat="47.833855" lon="10.724312">
<ele>722.488</ele>
<time>2020-09-11T11:18:40Z</time>
</trkpt>
<trkpt lat="47.83382" lon="10.72439">
<ele>722.488</ele>
<time>2020-09-11T11:18:41Z</time>
</trkpt>
<trkpt lat="47.83379" lon="10.724468">
<ele>722.488</ele>
<time>2020-09-11T11:18:42Z</time>
</trkpt>
<trkpt lat="47.833759" lon="10.724545">
<ele>722.488</ele>
<time>2020-09-11T11:18:43Z</time>
</trkpt>
<trkpt lat="47.833729" lon="10.724622">
<ele>722.488</ele>
<time>2020-09-11T11:18:44Z</time>
</trkpt>
<trkpt lat="47.833698" lon="10.724698">
<ele>722.761</ele>
<time>2020-09-11T11:18:45Z</time>
</trkpt>
<trkpt lat="47.833664" lon="10.724775">
<ele>722.975</ele>
<time>2020-09-11T11:18:46Z</time>
</trkpt>
<trkpt lat="47.833633" lon="10.724849">
<ele>723.134</ele>
<time>2020-09-11T11:18:47Z</time>
</trkpt>
<trkpt lat="47.833607" lon="10.72492">
<ele>723.255</ele>
<time>2020-09-11T11:18:48Z</time>
</trkpt>
<trkpt lat="47.833576" lon="10.724992">
<ele>723.343</ele>
<time>2020-09-11T11:18:49Z</time>
</trkpt>
<trkpt lat="47.833546" lon="10.725061">
<ele>723.397</ele>
<time>2020-09-11T11:18:50Z</time>
</trkpt>
<trkpt lat="47.833511" lon="10.72513">
<ele>723.441</ele>
<time>2020-09-11T11:18:51Z</time>
</trkpt>
<trkpt lat="47.833481" lon="10.725197">
<ele>723.469</ele>
<time>2020-09-11T11:18:52Z</time>
</trkpt>
<trkpt lat="47.833447" lon="10.725264">
<ele>723.732</ele>
<time>2020-09-11T11:18:53Z</time>
</trkpt>
<trkpt lat="47.833416" lon="10.725328">
<ele>723.937</ele>
<time>2020-09-11T11:18:54Z</time>
</trkpt>
<trkpt lat="47.833389" lon="10.725393">
<ele>724.094</ele>
<time>2020-09-11T11:18:55Z</time>
</trkpt>
<trkpt lat="47.833355" lon="10.725458">
<ele>724.209</ele>
<time>2020-09-11T11:18:56Z</time>
</trkpt>
<trkpt lat="47.833328" lon="10.725524">
<ele>724.288</ele>
<time>2020-09-11T11:18:57Z</time>
</trkpt>
<trkpt lat="47.833302" lon="10.725583">
<ele>724.337</ele>
<time>2020-09-11T11:18:58Z</time>
</trkpt>
<trkpt lat="47.833271" lon="10.725641">
<ele>724.36</ele>
<time>2020-09-11T11:18:59Z</time>
</trkpt>
<trkpt lat="47.833241" lon="10.725698">
<ele>724.592</ele>
<time>2020-09-11T11:19:00Z</time>
</trkpt>
<trkpt lat="47.83321" lon="10.72575">
<ele>724.762</ele>
<time>2020-09-11T11:19:01Z</time>
</trkpt>
<trkpt lat="47.833176" lon="10.725803">
<ele>724.935</ele>
<time>2020-09-11T11:19:02Z</time>
</trkpt>
<trkpt lat="47.833145" lon="10.725853">
<ele>725.062</ele>
<time>2020-09-11T11:19:03Z</time>
</trkpt>
<trkpt lat="47.833115" lon="10.725902">
<ele>725.384</ele>
<time>2020-09-11T11:19:04Z</time>
</trkpt>
<trkpt lat="47.833084" lon="10.725946">
<ele>725.649</ele>
<time>2020-09-11T11:19:05Z</time>
</trkpt>
<trkpt lat="47.833057" lon="10.725988">
<ele>725.853</ele>
<time>2020-09-11T11:19:06Z</time>
</trkpt>
<trkpt lat="47.833027" lon="10.726031">
<ele>725.976</ele>
<time>2020-09-11T11:19:07Z</time>
</trkpt>
<trkpt lat="47.832996" lon="10.726072">
<ele>726.391</ele>
<time>2020-09-11T11:19:08Z</time>
</trkpt>
<trkpt lat="47.832962" lon="10.726112">
<ele>726.652</ele>
<time>2020-09-11T11:19:09Z</time>
</trkpt>
<trkpt lat="47.832932" lon="10.726147">
<ele>726.853</ele>
<time>2020-09-11T11:19:10Z</time>
</trkpt>
<trkpt lat="47.832893" lon="10.72618">
<ele>726.998</ele>
<time>2020-09-11T11:19:11Z</time>
</trkpt>
<trkpt lat="47.832859" lon="10.726207">
<ele>727.358</ele>
<time>2020-09-11T11:19:12Z</time>
</trkpt>
<trkpt lat="47.832821" lon="10.726232">
<ele>727.654</ele>
<time>2020-09-11T11:19:13Z</time>
</trkpt>
<trkpt lat="47.832787" lon="10.726251">
<ele>727.879</ele>
<time>2020-09-11T11:19:14Z</time>
</trkpt>
<trkpt lat="47.832752" lon="10.726268">
<ele>728.035</ele>
<time>2020-09-11T11:19:15Z</time>
</trkpt>
<trkpt lat="47.832718" lon="10.726285">
<ele>728.118</ele>
<time>2020-09-11T11:19:16Z</time>
</trkpt>
<trkpt lat="47.832687" lon="10.726298">
<ele>728.429</ele>
<time>2020-09-11T11:19:17Z</time>
</trkpt>
<trkpt lat="47.832653" lon="10.726307">
<ele>728.681</ele>
<time>2020-09-11T11:19:18Z</time>
</trkpt>
<trkpt lat="47.832623" lon="10.726314">
<ele>728.867</ele>
<time>2020-09-11T11:19:19Z</time>
</trkpt>
<trkpt lat="47.832588" lon="10.72632">
<ele>728.978</ele>
<time>2020-09-11T11:19:20Z</time>
</trkpt>
<trkpt lat="47.832554" lon="10.726324">
<ele>729.3</ele>
<time>2020-09-11T11:19:21Z</time>
</trkpt>
<trkpt lat="47.832516" lon="10.726328">
<ele>729.6</ele>
<time>2020-09-11T11:19:22Z</time>
</trkpt>
<trkpt lat="47.832478" lon="10.726332">
<ele>729.828</ele>
<time>2020-09-11T11:19:23Z</time>
</trkpt>
<trkpt lat="47.832443" lon="10.726336">
<ele>729.974</ele>
<time>2020-09-11T11:19:24Z</time>
</trkpt>
<trkpt lat="47.832405" lon="10.726338">
<ele>730.308</ele>
<time>2020-09-11T11:19:25Z</time>
</trkpt>
<trkpt lat="47.832367" lon="10.72634">
<ele>730.575</ele>
<time>2020-09-11T11:19:26Z</time>
</trkpt>
<trkpt lat="47.832333" lon="10.726341">
<ele>730.775</ele>
<time>2020-09-11T11:19:27Z</time>
</trkpt>
<trkpt lat="47.832298" lon="10.726343">
<ele>730.916</ele>
<time>2020-09-11T11:19:28Z</time>
</trkpt>
<trkpt lat="47.832264" lon="10.726345">
<ele>731.01</ele>
<time>2020-09-11T11:19:29Z</time>
</trkpt>
<trkpt lat="47.83223" lon="10.726349">
<ele>731.297</ele>
<time>2020-09-11T11:19:30Z</time>
</trkpt>
<trkpt lat="47.832199" lon="10.726354">
<ele>731.514</ele>
<time>2020-09-11T11:19:31Z</time>
</trkpt>
<trkpt lat="47.832165" lon="10.726356">
<ele>731.711</ele>
<time>2020-09-11T11:19:32Z</time>
</trkpt>
<trkpt lat="47.832134" lon="10.726357">
<ele>731.848</ele>
<time>2020-09-11T11:19:33Z</time>
</trkpt>
<trkpt lat="47.8321" lon="10.726358">
<ele>731.96</ele>
<time>2020-09-11T11:19:34Z</time>
</trkpt>
<trkpt lat="47.832069" lon="10.726361">
<ele>732.04</ele>
<time>2020-09-11T11:19:35Z</time>
</trkpt>
<trkpt lat="47.832043" lon="10.726365">
<ele>732.088</ele>
<time>2020-09-11T11:19:36Z</time>
</trkpt>
<trkpt lat="47.832016" lon="10.726365">
<ele>732.347</ele>
<time>2020-09-11T11:19:37Z</time>
</trkpt>
<trkpt lat="47.831993" lon="10.726361">
<ele>732.561</ele>
<time>2020-09-11T11:19:38Z</time>
</trkpt>
<trkpt lat="47.83197" lon="10.726359">
<ele>732.718</ele>
<time>2020-09-11T11:19:39Z</time>
</trkpt>
<trkpt lat="47.831944" lon="10.726358">
<ele>732.835</ele>
<time>2020-09-11T11:19:40Z</time>
</trkpt>
<trkpt lat="47.831921" lon="10.726357">
<ele>732.919</ele>
<time>2020-09-11T11:19:41Z</time>
</trkpt>
<trkpt lat="47.831898" lon="10.726357">
<ele>733.009</ele>
<time>2020-09-11T11:19:42Z</time>
</trkpt>
<trkpt lat="47.831875" lon="10.726358">
<ele>733.069</ele>
<time>2020-09-11T11:19:43Z</time>
</trkpt>
<trkpt lat="47.831848" lon="10.726361">
<ele>733.098</ele>
<time>2020-09-11T11:19:44Z</time>
</trkpt>
<trkpt lat="47.831821" lon="10.726363">
<ele>733.098</ele>
<time>2020-09-11T11:19:45Z</time>
</trkpt>
<trkpt lat="47.831795" lon="10.726365">
<ele>733.098</ele>
<time>2020-09-11T11:19:46Z</time>
</trkpt>
<trkpt lat="47.831764" lon="10.726366">
<ele>733.098</ele>
<time>2020-09-11T11:19:47Z</time>
</trkpt>
<trkpt lat="47.831738" lon="10.72637">
<ele>733.098</ele>
<time>2020-09-11T11:19:48Z</time>
</trkpt>
<trkpt lat="47.831707" lon="10.726372">
<ele>733.098</ele>
<time>2020-09-11T11:19:49Z</time>
</trkpt>
<trkpt lat="47.83168" lon="10.726375">
<ele>733.098</ele>
<time>2020-09-11T11:19:50Z</time>
</trkpt>
<trkpt lat="47.83165" lon="10.726378">
<ele>733.098</ele>
<time>2020-09-11T11:19:51Z</time>
</trkpt>
<trkpt lat="47.831619" lon="10.726378">
<ele>733.098</ele>
<time>2020-09-11T11:19:52Z</time>
</trkpt>
<trkpt lat="47.831589" lon="10.726382">
<ele>733.098</ele>
<time>2020-09-11T11:19:53Z</time>
</trkpt>
<trkpt lat="47.831554" lon="10.726387">
<ele>733.098</ele>
<time>2020-09-11T11:19:54Z</time>
</trkpt>
<trkpt lat="47.831524" lon="10.726389">
<ele>733.098</ele>
<time>2020-09-11T11:19:55Z</time>
</trkpt>
<trkpt lat="47.831486" lon="10.726392">
<ele>733.098</ele>
<time>2020-09-11T11:19:56Z</time>
</trkpt>
<trkpt lat="47.831448" lon="10.726394">
<ele>733.098</ele>
<time>2020-09-11T11:19:57Z</time>
</trkpt>
<trkpt lat="47.831409" lon="10.726394">
<ele>733.098</ele>
<time>2020-09-11T11:19:58Z</time>
</trkpt>
<trkpt lat="47.831371" lon="10.726395">
<ele>733.098</ele>
<time>2020-09-11T11:19:59Z</time>
</trkpt>
<trkpt lat="47.831329" lon="10.726394">
<ele>733.328</ele>
<time>2020-09-11T11:20:00Z</time>
</trkpt>
<trkpt lat="47.831287" lon="10.726392">
<ele>733.483</ele>
<time>2020-09-11T11:20:01Z</time>
</trkpt>
<trkpt lat="47.831249" lon="10.726394">
<ele>733.643</ele>
<time>2020-09-11T11:20:02Z</time>
</trkpt>
<trkpt lat="47.831207" lon="10.726397">
<ele>733.767</ele>
<time>2020-09-11T11:20:03Z</time>
</trkpt>
<trkpt lat="47.831161" lon="10.726401">
<ele>733.859</ele>
<time>2020-09-11T11:20:04Z</time>
</trkpt>
<trkpt lat="47.831123" lon="10.726408">
<ele>733.925</ele>
<time>2020-09-11T11:20:05Z</time>
</trkpt>
<trkpt lat="47.831078" lon="10.72642">
<ele>733.97</ele>
<time>2020-09-11T11:20:06Z</time>
</trkpt>
<trkpt lat="47.831032" lon="10.726433">
<ele>733.99</ele>
<time>2020-09-11T11:20:07Z</time>
</trkpt>
<trkpt lat="47.830986" lon="10.72645">
<ele>733.99</ele>
<time>2020-09-11T11:20:08Z</time>
</trkpt>
<trkpt lat="47.830936" lon="10.72647">
<ele>733.99</ele>
<time>2020-09-11T11:20:09Z</time>
</trkpt>
<trkpt lat="47.830894" lon="10.72649">
<ele>733.99</ele>
<time>2020-09-11T11:20:10Z</time>
</trkpt>
<trkpt lat="47.830849" lon="10.726515">
<ele>733.99</ele>
<time>2020-09-11T11:20:11Z</time>
</trkpt>
<trkpt lat="47.830803" lon="10.726542">
<ele>733.99</ele>
<time>2020-09-11T11:20:12Z</time>
</trkpt>
<trkpt lat="47.830757" lon="10.726563">
<ele>733.99</ele>
<time>2020-09-11T11:20:13Z</time>
</trkpt>
<trkpt lat="47.8307" lon="10.726594">
<ele>733.99</ele>
<time>2020-09-11T11:20:14Z</time>
</trkpt>
<trkpt lat="47.830639" lon="10.726624">
<ele>733.709</ele>
<time>2020-09-11T11:20:15Z</time>
</trkpt>
<trkpt lat="47.830574" lon="10.72666">
<ele>733.171</ele>
<time>2020-09-11T11:20:16Z</time>
</trkpt>
<trkpt lat="47.830505" lon="10.726699">
<ele>732.826</ele>
<time>2020-09-11T11:20:17Z</time>
</trkpt>
<trkpt lat="47.830437" lon="10.726733">
<ele>732.197</ele>
<time>2020-09-11T11:20:18Z</time>
</trkpt>
<trkpt lat="47.830368" lon="10.726772">
<ele>731.806</ele>
<time>2020-09-11T11:20:19Z</time>
</trkpt>
<trkpt lat="47.830292" lon="10.726812">
<ele>731.257</ele>
<time>2020-09-11T11:20:20Z</time>
</trkpt>
<trkpt lat="47.830215" lon="10.726853">
<ele>730.563</ele>
<time>2020-09-11T11:20:21Z</time>
</trkpt>
<trkpt lat="47.830143" lon="10.726893">
<ele>730.035</ele>
<time>2020-09-11T11:20:22Z</time>
</trkpt>
<trkpt lat="47.830074" lon="10.72693">
<ele>729.395</ele>
<time>2020-09-11T11:20:23Z</time>
</trkpt>
<trkpt lat="47.830009" lon="10.726969">
<ele>728.927</ele>
<time>2020-09-11T11:20:24Z</time>
</trkpt>
<trkpt lat="47.829948" lon="10.727003">
<ele>728.581</ele>
<time>2020-09-11T11:20:25Z</time>
</trkpt>
<trkpt lat="47.829872" lon="10.727045">
<ele>728.335</ele>
<time>2020-09-11T11:20:26Z</time>
</trkpt>
<trkpt lat="47.8298" lon="10.727089">
<ele>728.192</ele>
<time>2020-09-11T11:20:27Z</time>
</trkpt>
<trkpt lat="47.829727" lon="10.72713">
<ele>727.854</ele>
<time>2020-09-11T11:20:28Z</time>
</trkpt>
<trkpt lat="47.829655" lon="10.72717">
<ele>727.564</ele>
<time>2020-09-11T11:20:29Z</time>
</trkpt>
<trkpt lat="47.829586" lon="10.727201">
<ele>727.407</ele>
<time>2020-09-11T11:20:30Z</time>
</trkpt>
<trkpt lat="47.829517" lon="10.727227">
<ele>727.3</ele>
<time>2020-09-11T11:20:31Z</time>
</trkpt>
<trkpt lat="47.829449" lon="10.727242">
<ele>727.187</ele>
<time>2020-09-11T11:20:32Z</time>
</trkpt>
<trkpt lat="47.82938" lon="10.727252">
<ele>727.108</ele>
<time>2020-09-11T11:20:33Z</time>
</trkpt>
<trkpt lat="47.829319" lon="10.727257">
<ele>727.06</ele>
<time>2020-09-11T11:20:34Z</time>
</trkpt>
<trkpt lat="47.829262" lon="10.727257">
<ele>727.034</ele>
<time>2020-09-11T11:20:35Z</time>
</trkpt>
<trkpt lat="47.829205" lon="10.727254">
<ele>727.31</ele>
<time>2020-09-11T11:20:36Z</time>
</trkpt>
<trkpt lat="47.829155" lon="10.727248">
<ele>727.53</ele>
<time>2020-09-11T11:20:37Z</time>
</trkpt>
<trkpt lat="47.829105" lon="10.727242">
<ele>727.673</ele>
<time>2020-09-11T11:20:38Z</time>
</trkpt>
<trkpt lat="47.829056" lon="10.727229">
<ele>728.039</ele>
<time>2020-09-11T11:20:39Z</time>
</trkpt>
<trkpt lat="47.829014" lon="10.727221">
<ele>728.328</ele>
<time>2020-09-11T11:20:40Z</time>
</trkpt>
<trkpt lat="47.828972" lon="10.727213">
<ele>728.553</ele>
<time>2020-09-11T11:20:41Z</time>
</trkpt>
<trkpt lat="47.82893" lon="10.727203">
<ele>728.766</ele>
<time>2020-09-11T11:20:42Z</time>
</trkpt>
<trkpt lat="47.828888" lon="10.727181">
<ele>728.915</ele>
<time>2020-09-11T11:20:43Z</time>
</trkpt>
<trkpt lat="47.82885" lon="10.727145">
<ele>729.001</ele>
<time>2020-09-11T11:20:44Z</time>
</trkpt>
<trkpt lat="47.828815" lon="10.727099">
<ele>729.055</ele>
<time>2020-09-11T11:20:45Z</time>
</trkpt>
<trkpt lat="47.828789" lon="10.727052">
<ele>729.319</ele>
<time>2020-09-11T11:20:46Z</time>
</trkpt>
<trkpt lat="47.828762" lon="10.727001">
<ele>729.557</ele>
<time>2020-09-11T11:20:47Z</time>
</trkpt>
<trkpt lat="47.828739" lon="10.726949">
<ele>729.718</ele>
<time>2020-09-11T11:20:48Z</time>
</trkpt>
<trkpt lat="47.828709" lon="10.726898">
<ele>729.84</ele>
<time>2020-09-11T11:20:49Z</time>
</trkpt>
<trkpt lat="47.828686" lon="10.726848">
<ele>729.923</ele>
<time>2020-09-11T11:20:50Z</time>
</trkpt>
<trkpt lat="47.828655" lon="10.7268">
<ele>729.983</ele>
<time>2020-09-11T11:20:51Z</time>
</trkpt>
<trkpt lat="47.828621" lon="10.726748">
<ele>730.039</ele>
<time>2020-09-11T11:20:52Z</time>
</trkpt>
<trkpt lat="47.82859" lon="10.726697">
<ele>730.066</ele>
<time>2020-09-11T11:20:53Z</time>
</trkpt>
<trkpt lat="47.828556" lon="10.72665">
<ele>730.066</ele>
<time>2020-09-11T11:20:54Z</time>
</trkpt>
<trkpt lat="47.828522" lon="10.726603">
<ele>730.066</ele>
<time>2020-09-11T11:20:55Z</time>
</trkpt>
<trkpt lat="47.828484" lon="10.726563">
<ele>730.066</ele>
<time>2020-09-11T11:20:56Z</time>
</trkpt>
<trkpt lat="47.828445" lon="10.726535">
<ele>730.066</ele>
<time>2020-09-11T11:20:57Z</time>
</trkpt>
<trkpt lat="47.828403" lon="10.726519">
<ele>730.066</ele>
<time>2020-09-11T11:20:58Z</time>
</trkpt>
<trkpt lat="47.828362" lon="10.726519">
<ele>730.066</ele>
<time>2020-09-11T11:20:59Z</time>
</trkpt>
<trkpt lat="47.82832" lon="10.726521">
<ele>730.066</ele>
<time>2020-09-11T11:21:00Z</time>
</trkpt>
<trkpt lat="47.828278" lon="10.726532">
<ele>730.066</ele>
<time>2020-09-11T11:21:01Z</time>
</trkpt>
<trkpt lat="47.828236" lon="10.726545">
<ele>730.066</ele>
<time>2020-09-11T11:21:02Z</time>
</trkpt>
<trkpt lat="47.828197" lon="10.726559">
<ele>730.066</ele>
<time>2020-09-11T11:21:03Z</time>
</trkpt>
<trkpt lat="47.828156" lon="10.726571">
<ele>730.066</ele>
<time>2020-09-11T11:21:04Z</time>
</trkpt>
<trkpt lat="47.828114" lon="10.726592">
<ele>730.066</ele>
<time>2020-09-11T11:21:05Z</time>
</trkpt>
<trkpt lat="47.828072" lon="10.726608">
<ele>730.066</ele>
<time>2020-09-11T11:21:06Z</time>
</trkpt>
<trkpt lat="47.828033" lon="10.726626">
<ele>730.066</ele>
<time>2020-09-11T11:21:07Z</time>
</trkpt>
<trkpt lat="47.827995" lon="10.72665">
<ele>730.338</ele>
<time>2020-09-11T11:21:08Z</time>
</trkpt>
<trkpt lat="47.827961" lon="10.726682">
<ele>730.556</ele>
<time>2020-09-11T11:21:09Z</time>
</trkpt>
<trkpt lat="47.827923" lon="10.726709">
<ele>730.723</ele>
<time>2020-09-11T11:21:10Z</time>
</trkpt>
<trkpt lat="47.827881" lon="10.726732">
<ele>730.836</ele>
<time>2020-09-11T11:21:11Z</time>
</trkpt>
<trkpt lat="47.827843" lon="10.726753">
<ele>730.959</ele>
<time>2020-09-11T11:21:12Z</time>
</trkpt>
<trkpt lat="47.827797" lon="10.726778">
<ele>731.051</ele>
<time>2020-09-11T11:21:13Z</time>
</trkpt>
<trkpt lat="47.827759" lon="10.726806">
<ele>731.109</ele>
<time>2020-09-11T11:21:14Z</time>
</trkpt>
<trkpt lat="47.827717" lon="10.726833">
<ele>731.136</ele>
<time>2020-09-11T11:21:15Z</time>
</trkpt>
<trkpt lat="47.827671" lon="10.726863">
<ele>731.136</ele>
<time>2020-09-11T11:21:16Z</time>
</trkpt>
<trkpt lat="47.827629" lon="10.726895">
<ele>731.136</ele>
<time>2020-09-11T11:21:17Z</time>
</trkpt>
<trkpt lat="47.827579" lon="10.726925">
<ele>731.136</ele>
<time>2020-09-11T11:21:18Z</time>
</trkpt>
<trkpt lat="47.827538" lon="10.726954">
<ele>731.136</ele>
<time>2020-09-11T11:21:19Z</time>
</trkpt>
<trkpt lat="47.827492" lon="10.726988">
<ele>731.136</ele>
<time>2020-09-11T11:21:20Z</time>
</trkpt>
<trkpt lat="47.827442" lon="10.727017">
<ele>731.136</ele>
<time>2020-09-11T11:21:21Z</time>
</trkpt>
<trkpt lat="47.8274" lon="10.727045">
<ele>731.136</ele>
<time>2020-09-11T11:21:22Z</time>
</trkpt>
<trkpt lat="47.827354" lon="10.727072">
<ele>731.136</ele>
<time>2020-09-11T11:21:23Z</time>
</trkpt>
<trkpt lat="47.827309" lon="10.727099">
<ele>731.136</ele>
<time>2020-09-11T11:21:24Z</time>
</trkpt>
<trkpt lat="47.827259" lon="10.727128">
<ele>731.136</ele>
<time>2020-09-11T11:21:25Z</time>
</trkpt>
<trkpt lat="47.827217" lon="10.727156">
<ele>731.136</ele>
<time>2020-09-11T11:21:26Z</time>
</trkpt>
<trkpt lat="47.827171" lon="10.727187">
<ele>731.136</ele>
<time>2020-09-11T11:21:27Z</time>
</trkpt>
<trkpt lat="47.827126" lon="10.727215">
<ele>731.136</ele>
<time>2020-09-11T11:21:28Z</time>
</trkpt>
<trkpt lat="47.82708" lon="10.727243">
<ele>731.136</ele>
<time>2020-09-11T11:21:29Z</time>
</trkpt>
<trkpt lat="47.827038" lon="10.72727">
<ele>731.374</ele>
<time>2020-09-11T11:21:30Z</time>
</trkpt>
<trkpt lat="47.826992" lon="10.727299">
<ele>731.543</ele>
<time>2020-09-11T11:21:31Z</time>
</trkpt>
<trkpt lat="47.82695" lon="10.727327">
<ele>731.717</ele>
<time>2020-09-11T11:21:32Z</time>
</trkpt>
<trkpt lat="47.826904" lon="10.727348">
<ele>731.857</ele>
<time>2020-09-11T11:21:33Z</time>
</trkpt>
<trkpt lat="47.826859" lon="10.727367">
<ele>731.966</ele>
<time>2020-09-11T11:21:34Z</time>
</trkpt>
<trkpt lat="47.826813" lon="10.727382">
<ele>732.042</ele>
<time>2020-09-11T11:21:35Z</time>
</trkpt>
<trkpt lat="47.826763" lon="10.727395">
<ele>732.093</ele>
<time>2020-09-11T11:21:36Z</time>
</trkpt>
<trkpt lat="47.826717" lon="10.727405">
<ele>732.117</ele>
<time>2020-09-11T11:21:37Z</time>
</trkpt>
<trkpt lat="47.826668" lon="10.727415">
<ele>732.117</ele>
<time>2020-09-11T11:21:38Z</time>
</trkpt>
<trkpt lat="47.826622" lon="10.727417">
<ele>732.117</ele>
<time>2020-09-11T11:21:39Z</time>
</trkpt>
<trkpt lat="47.826572" lon="10.727413">
<ele>732.117</ele>
<time>2020-09-11T11:21:40Z</time>
</trkpt>
<trkpt lat="47.826527" lon="10.727408">
<ele>732.117</ele>
<time>2020-09-11T11:21:41Z</time>
</trkpt>
<trkpt lat="47.826477" lon="10.727402">
<ele>732.356</ele>
<time>2020-09-11T11:21:42Z</time>
</trkpt>
<trkpt lat="47.826427" lon="10.72739">
<ele>732.555</ele>
<time>2020-09-11T11:21:43Z</time>
</trkpt>
<trkpt lat="47.826382" lon="10.727376">
<ele>732.72</ele>
<time>2020-09-11T11:21:44Z</time>
</trkpt>
<trkpt lat="47.826332" lon="10.727365">
<ele>732.853</ele>
<time>2020-09-11T11:21:45Z</time>
</trkpt>
<trkpt lat="47.826286" lon="10.727348">
<ele>732.956</ele>
<time>2020-09-11T11:21:46Z</time>
</trkpt>
<trkpt lat="47.826241" lon="10.727332">
<ele>733.028</ele>
<time>2020-09-11T11:21:47Z</time>
</trkpt>
<trkpt lat="47.826195" lon="10.727317">
<ele>733.071</ele>
<time>2020-09-11T11:21:48Z</time>
</trkpt>
<trkpt lat="47.826145" lon="10.727303">
<ele>733.314</ele>
<time>2020-09-11T11:21:49Z</time>
</trkpt>
<trkpt lat="47.826103" lon="10.727292">
<ele>733.495</ele>
<time>2020-09-11T11:21:50Z</time>
</trkpt>
<trkpt lat="47.826057" lon="10.727279">
<ele>733.617</ele>
<time>2020-09-11T11:21:51Z</time>
</trkpt>
<trkpt lat="47.826012" lon="10.727262">
<ele>733.748</ele>
<time>2020-09-11T11:21:52Z</time>
</trkpt>
<trkpt lat="47.82597" lon="10.727248">
<ele>733.847</ele>
<time>2020-09-11T11:21:53Z</time>
</trkpt>
<trkpt lat="47.825928" lon="10.727235">
<ele>733.915</ele>
<time>2020-09-11T11:21:54Z</time>
</trkpt>
<trkpt lat="47.825882" lon="10.727223">
<ele>734.221</ele>
<time>2020-09-11T11:21:55Z</time>
</trkpt>
<trkpt lat="47.82584" lon="10.727212">
<ele>734.462</ele>
<time>2020-09-11T11:21:56Z</time>
</trkpt>
<trkpt lat="47.825798" lon="10.7272">
<ele>734.694</ele>
<time>2020-09-11T11:21:57Z</time>
</trkpt>
<trkpt lat="47.825752" lon="10.727189">
<ele>734.828</ele>
<time>2020-09-11T11:21:58Z</time>
</trkpt>
<trkpt lat="47.82571" lon="10.727175">
<ele>734.92</ele>
<time>2020-09-11T11:21:59Z</time>
</trkpt>
<trkpt lat="47.825672" lon="10.72716">
<ele>734.983</ele>
<time>2020-09-11T11:22:00Z</time>
</trkpt>
<trkpt lat="47.82563" lon="10.727147">
<ele>735.032</ele>
<time>2020-09-11T11:22:01Z</time>
</trkpt>
<trkpt lat="47.825592" lon="10.727133">
<ele>735.061</ele>
<time>2020-09-11T11:22:02Z</time>
</trkpt>
<trkpt lat="47.825554" lon="10.727122">
<ele>735.348</ele>
<time>2020-09-11T11:22:03Z</time>
</trkpt>
<trkpt lat="47.825516" lon="10.72711">
<ele>735.569</ele>
<time>2020-09-11T11:22:04Z</time>
</trkpt>
<trkpt lat="47.825478" lon="10.727097">
<ele>735.74</ele>
<time>2020-09-11T11:22:05Z</time>
</trkpt>
<trkpt lat="47.825439" lon="10.727082">
<ele>735.872</ele>
<time>2020-09-11T11:22:06Z</time>
</trkpt>
<trkpt lat="47.825405" lon="10.727065">
<ele>735.95</ele>
<time>2020-09-11T11:22:07Z</time>
</trkpt>
<trkpt lat="47.825367" lon="10.727047">
<ele>736.285</ele>
<time>2020-09-11T11:22:08Z</time>
</trkpt>
<trkpt lat="47.825333" lon="10.727026">
<ele>736.529</ele>
<time>2020-09-11T11:22:09Z</time>
</trkpt>
<trkpt lat="47.825298" lon="10.727001">
<ele>736.696</ele>
<time>2020-09-11T11:22:10Z</time>
</trkpt>
<trkpt lat="47.825264" lon="10.726975">
<ele>736.813</ele>
<time>2020-09-11T11:22:11Z</time>
</trkpt>
<trkpt lat="47.825233" lon="10.726944">
<ele>736.937</ele>
<time>2020-09-11T11:22:12Z</time>
</trkpt>
<trkpt lat="47.825207" lon="10.726911">
<ele>737.027</ele>
<time>2020-09-11T11:22:13Z</time>
</trkpt>
<trkpt lat="47.825176" lon="10.726871">
<ele>737.083</ele>
<time>2020-09-11T11:22:14Z</time>
</trkpt>
<trkpt lat="47.82515" lon="10.72683">
<ele>737.395</ele>
<time>2020-09-11T11:22:15Z</time>
</trkpt>
<trkpt lat="47.825123" lon="10.726787">
<ele>737.694</ele>
<time>2020-09-11T11:22:16Z</time>
</trkpt>
<trkpt lat="47.825096" lon="10.726743">
<ele>737.849</ele>
<time>2020-09-11T11:22:17Z</time>
</trkpt>
<trkpt lat="47.825073" lon="10.726699">
<ele>738.258</ele>
<time>2020-09-11T11:22:18Z</time>
</trkpt>
<trkpt lat="47.82505" lon="10.726655">
<ele>738.564</ele>
<time>2020-09-11T11:22:19Z</time>
</trkpt>
<trkpt lat="47.825024" lon="10.726613">
<ele>738.794</ele>
<time>2020-09-11T11:22:20Z</time>
</trkpt>
<trkpt lat="47.824997" lon="10.726571">
<ele>738.952</ele>
<time>2020-09-11T11:22:21Z</time>
</trkpt>
<trkpt lat="47.82497" lon="10.72653">
<ele>739.312</ele>
<time>2020-09-11T11:22:22Z</time>
</trkpt>
<trkpt lat="47.824944" lon="10.726488">
<ele>739.577</ele>
<time>2020-09-11T11:22:23Z</time>
</trkpt>
<trkpt lat="47.824917" lon="10.726447">
<ele>739.777</ele>
<time>2020-09-11T11:22:24Z</time>
</trkpt>
<trkpt lat="47.82489" lon="10.726403">
<ele>739.924</ele>
<time>2020-09-11T11:22:25Z</time>
</trkpt>
<trkpt lat="47.824863" lon="10.726365">
<ele>740.017</ele>
<time>2020-09-11T11:22:26Z</time>
</trkpt>
<trkpt lat="47.824829" lon="10.72633">
<ele>740.074</ele>
<time>2020-09-11T11:22:27Z</time>
</trkpt>
<trkpt lat="47.824799" lon="10.7263">
<ele>740.385</ele>
<time>2020-09-11T11:22:28Z</time>
</trkpt>
<trkpt lat="47.824764" lon="10.726274">
<ele>740.626</ele>
<time>2020-09-11T11:22:29Z</time>
</trkpt>
<trkpt lat="47.824734" lon="10.726249">
<ele>740.805</ele>
<time>2020-09-11T11:22:30Z</time>
</trkpt>
<trkpt lat="47.824699" lon="10.726228">
<ele>740.919</ele>
<time>2020-09-11T11:22:31Z</time>
</trkpt>
<trkpt lat="47.824665" lon="10.726209">
<ele>741.042</ele>
<time>2020-09-11T11:22:32Z</time>
</trkpt>
<trkpt lat="47.824635" lon="10.726192">
<ele>741.131</ele>
<time>2020-09-11T11:22:33Z</time>
</trkpt>
<trkpt lat="47.824596" lon="10.726182">
<ele>741.191</ele>
<time>2020-09-11T11:22:34Z</time>
</trkpt>
<trkpt lat="47.824562" lon="10.726177">
<ele>741.219</ele>
<time>2020-09-11T11:22:35Z</time>
</trkpt>
<trkpt lat="47.824528" lon="10.726175">
<ele>741.219</ele>
<time>2020-09-11T11:22:36Z</time>
</trkpt>
<trkpt lat="47.82449" lon="10.726171">
<ele>741.219</ele>
<time>2020-09-11T11:22:37Z</time>
</trkpt>
<trkpt lat="47.824448" lon="10.72617">
<ele>741.219</ele>
<time>2020-09-11T11:22:38Z</time>
</trkpt>
<trkpt lat="47.824409" lon="10.72617">
<ele>741.219</ele>
<time>2020-09-11T11:22:39Z</time>
</trkpt>
<trkpt lat="47.824375" lon="10.726169">
<ele>741.483</ele>
<time>2020-09-11T11:22:40Z</time>
</trkpt>
<trkpt lat="47.824337" lon="10.726169">
<ele>741.67</ele>
<time>2020-09-11T11:22:41Z</time>
</trkpt>
<trkpt lat="47.824295" lon="10.726169">
<ele>741.864</ele>
<time>2020-09-11T11:22:42Z</time>
</trkpt>
<trkpt lat="47.824257" lon="10.726171">
<ele>742.016</ele>
<time>2020-09-11T11:22:43Z</time>
</trkpt>
<trkpt lat="47.824215" lon="10.726177">
<ele>742.13</ele>
<time>2020-09-11T11:22:44Z</time>
</trkpt>
<trkpt lat="47.824177" lon="10.726184">
<ele>742.21</ele>
<time>2020-09-11T11:22:45Z</time>
</trkpt>
<trkpt lat="47.824135" lon="10.72619">
<ele>742.264</ele>
<time>2020-09-11T11:22:46Z</time>
</trkpt>
<trkpt lat="47.824093" lon="10.726196">
<ele>742.29</ele>
<time>2020-09-11T11:22:47Z</time>
</trkpt>
<trkpt lat="47.824051" lon="10.726198">
<ele>742.29</ele>
<time>2020-09-11T11:22:48Z</time>
</trkpt>
<trkpt lat="47.824013" lon="10.7262">
<ele>742.29</ele>
<time>2020-09-11T11:22:49Z</time>
</trkpt>
<trkpt lat="47.823971" lon="10.726203">
<ele>742.29</ele>
<time>2020-09-11T11:22:50Z</time>
</trkpt>
<trkpt lat="47.823933" lon="10.726202">
<ele>742.29</ele>
<time>2020-09-11T11:22:51Z</time>
</trkpt>
<trkpt lat="47.823891" lon="10.7262">
<ele>742.29</ele>
<time>2020-09-11T11:22:52Z</time>
</trkpt>
<trkpt lat="47.823853" lon="10.726198">
<ele>742.29</ele>
<time>2020-09-11T11:22:53Z</time>
</trkpt>
<trkpt lat="47.823814" lon="10.726196">
<ele>742.29</ele>
<time>2020-09-11T11:22:54Z</time>
</trkpt>
<trkpt lat="47.823776" lon="10.726196">
<ele>742.29</ele>
<time>2020-09-11T11:22:55Z</time>
</trkpt>
<trkpt lat="47.823734" lon="10.726196">
<ele>742.29</ele>
<time>2020-09-11T11:22:56Z</time>
</trkpt>
<trkpt lat="47.823689" lon="10.726194">
<ele>742.29</ele>
<time>2020-09-11T11:22:57Z</time>
</trkpt>
<trkpt lat="47.82365" lon="10.726192">
<ele>742.29</ele>
<time>2020-09-11T11:22:58Z</time>
</trkpt>
<trkpt lat="47.823608" lon="10.726186">
<ele>742.54</ele>
<time>2020-09-11T11:22:59Z</time>
</trkpt>
<trkpt lat="47.823563" lon="10.726177">
<ele>742.736</ele>
<time>2020-09-11T11:23:00Z</time>
</trkpt>
<trkpt lat="47.823524" lon="10.726167">
<ele>742.87</ele>
<time>2020-09-11T11:23:01Z</time>
</trkpt>
<trkpt lat="47.823475" lon="10.726156">
<ele>743.014</ele>
<time>2020-09-11T11:23:02Z</time>
</trkpt>
<trkpt lat="47.823429" lon="10.726144">
<ele>743.123</ele>
<time>2020-09-11T11:23:03Z</time>
</trkpt>
<trkpt lat="47.823383" lon="10.726131">
<ele>743.199</ele>
<time>2020-09-11T11:23:04Z</time>
</trkpt>
<trkpt lat="47.82333" lon="10.726118">
<ele>743.249</ele>
<time>2020-09-11T11:23:05Z</time>
</trkpt>
<trkpt lat="47.823284" lon="10.726104">
<ele>743.272</ele>
<time>2020-09-11T11:23:06Z</time>
</trkpt>
<trkpt lat="47.823235" lon="10.726087">
<ele>743.272</ele>
<time>2020-09-11T11:23:07Z</time>
</trkpt>
<trkpt lat="47.823189" lon="10.726067">
<ele>743.272</ele>
<time>2020-09-11T11:23:08Z</time>
</trkpt>
<trkpt lat="47.823135" lon="10.726046">
<ele>743.272</ele>
<time>2020-09-11T11:23:09Z</time>
</trkpt>
<trkpt lat="47.823086" lon="10.726022">
<ele>743.272</ele>
<time>2020-09-11T11:23:10Z</time>
</trkpt>
<trkpt lat="47.823036" lon="10.725995">
<ele>743.272</ele>
<time>2020-09-11T11:23:11Z</time>
</trkpt>
<trkpt lat="47.822979" lon="10.72597">
<ele>743.272</ele>
<time>2020-09-11T11:23:12Z</time>
</trkpt>
<trkpt lat="47.822926" lon="10.725943">
<ele>742.97</ele>
<time>2020-09-11T11:23:13Z</time>
</trkpt>
<trkpt lat="47.822868" lon="10.725917">
<ele>742.74</ele>
<time>2020-09-11T11:23:14Z</time>
</trkpt>
<trkpt lat="47.822811" lon="10.72589">
<ele>742.569</ele>
<time>2020-09-11T11:23:15Z</time>
</trkpt>
<trkpt lat="47.822754" lon="10.725863">
<ele>742.448</ele>
<time>2020-09-11T11:23:16Z</time>
</trkpt>
<trkpt lat="47.822697" lon="10.725838">
<ele>742.367</ele>
<time>2020-09-11T11:23:17Z</time>
</trkpt>
<trkpt lat="47.822639" lon="10.725813">
<ele>742.317</ele>
<time>2020-09-11T11:23:18Z</time>
</trkpt>
<trkpt lat="47.822582" lon="10.725788">
<ele>742.294</ele>
<time>2020-09-11T11:23:19Z</time>
</trkpt>
<trkpt lat="47.822517" lon="10.725767">
<ele>742.29</ele>
<time>2020-09-11T11:23:20Z</time>
</trkpt>
<trkpt lat="47.82246" lon="10.725745">
<ele>742.089</ele>
<time>2020-09-11T11:23:21Z</time>
</trkpt>
<trkpt lat="47.822403" lon="10.725723">
<ele>741.902</ele>
<time>2020-09-11T11:23:22Z</time>
</trkpt>
<trkpt lat="47.82235" lon="10.725699">
<ele>741.748</ele>
<time>2020-09-11T11:23:23Z</time>
</trkpt>
<trkpt lat="47.822289" lon="10.725677">
<ele>741.625</ele>
<time>2020-09-11T11:23:24Z</time>
</trkpt>
<trkpt lat="47.822227" lon="10.725654">
<ele>741.531</ele>
<time>2020-09-11T11:23:25Z</time>
</trkpt>
<trkpt lat="47.82217" lon="10.725632">
<ele>741.462</ele>
<time>2020-09-11T11:23:26Z</time>
</trkpt>
<trkpt lat="47.822113" lon="10.72561">
<ele>741.418</ele>
<time>2020-09-11T11:23:27Z</time>
</trkpt>
<trkpt lat="47.822056" lon="10.725587">
<ele>741.397</ele>
<time>2020-09-11T11:23:28Z</time>
</trkpt>
<trkpt lat="47.821995" lon="10.725561">
<ele>741.397</ele>
<time>2020-09-11T11:23:29Z</time>
</trkpt>
<trkpt lat="47.821934" lon="10.725538">
<ele>741.397</ele>
<time>2020-09-11T11:23:30Z</time>
</trkpt>
<trkpt lat="47.821873" lon="10.725515">
<ele>741.397</ele>
<time>2020-09-11T11:23:31Z</time>
</trkpt>
<trkpt lat="47.821812" lon="10.725492">
<ele>741.397</ele>
<time>2020-09-11T11:23:32Z</time>
</trkpt>
<trkpt lat="47.821754" lon="10.72547">
<ele>741.397</ele>
<time>2020-09-11T11:23:33Z</time>
</trkpt>
<trkpt lat="47.821693" lon="10.725447">
<ele>741.397</ele>
<time>2020-09-11T11:23:34Z</time>
</trkpt>
<trkpt lat="47.821636" lon="10.725423">
<ele>741.397</ele>
<time>2020-09-11T11:23:35Z</time>
</trkpt>
<trkpt lat="47.821571" lon="10.725398">
<ele>741.397</ele>
<time>2020-09-11T11:23:36Z</time>
</trkpt>
<trkpt lat="47.821514" lon="10.725377">
<ele>741.397</ele>
<time>2020-09-11T11:23:37Z</time>
</trkpt>
<trkpt lat="47.821453" lon="10.725353">
<ele>741.397</ele>
<time>2020-09-11T11:23:38Z</time>
</trkpt>
<trkpt lat="47.821396" lon="10.72533">
<ele>741.397</ele>
<time>2020-09-11T11:23:39Z</time>
</trkpt>
<trkpt lat="47.821339" lon="10.725308">
<ele>741.397</ele>
<time>2020-09-11T11:23:40Z</time>
</trkpt>
<trkpt lat="47.821278" lon="10.725286">
<ele>741.397</ele>
<time>2020-09-11T11:23:41Z</time>
</trkpt>
<trkpt lat="47.82122" lon="10.725266">
<ele>741.397</ele>
<time>2020-09-11T11:23:42Z</time>
</trkpt>
<trkpt lat="47.821163" lon="10.725246">
<ele>741.397</ele>
<time>2020-09-11T11:23:43Z</time>
</trkpt>
<trkpt lat="47.821106" lon="10.725226">
<ele>741.397</ele>
<time>2020-09-11T11:23:44Z</time>
</trkpt>
<trkpt lat="47.821049" lon="10.725204">
<ele>741.397</ele>
<time>2020-09-11T11:23:45Z</time>
</trkpt>
<trkpt lat="47.820988" lon="10.725178">
<ele>741.397</ele>
<time>2020-09-11T11:23:46Z</time>
</trkpt>
<trkpt lat="47.82093" lon="10.725153">
<ele>741.397</ele>
<time>2020-09-11T11:23:47Z</time>
</trkpt>
<trkpt lat="47.820873" lon="10.72513">
<ele>741.397</ele>
<time>2020-09-11T11:23:48Z</time>
</trkpt>
<trkpt lat="47.820816" lon="10.725108">
<ele>741.397</ele>
<time>2020-09-11T11:23:49Z</time>
</trkpt>
<trkpt lat="47.820755" lon="10.72509">
<ele>741.397</ele>
<time>2020-09-11T11:23:50Z</time>
</trkpt>
<trkpt lat="47.820698" lon="10.725073">
<ele>741.397</ele>
<time>2020-09-11T11:23:51Z</time>
</trkpt>
<trkpt lat="47.820637" lon="10.725059">
<ele>741.397</ele>
<time>2020-09-11T11:23:52Z</time>
</trkpt>
<trkpt lat="47.82058" lon="10.725041">
<ele>741.397</ele>
<time>2020-09-11T11:23:53Z</time>
</trkpt>
<trkpt lat="47.820522" lon="10.725029">
<ele>741.397</ele>
<time>2020-09-11T11:23:54Z</time>
</trkpt>
<trkpt lat="47.820461" lon="10.725019">
<ele>741.397</ele>
<time>2020-09-11T11:23:55Z</time>
</trkpt>
<trkpt lat="47.8204" lon="10.725008">
<ele>741.397</ele>
<time>2020-09-11T11:23:56Z</time>
</trkpt>
<trkpt lat="47.820339" lon="10.725">
<ele>741.633</ele>
<time>2020-09-11T11:23:57Z</time>
</trkpt>
<trkpt lat="47.820278" lon="10.724992">
<ele>741.818</ele>
<time>2020-09-11T11:23:58Z</time>
</trkpt>
<trkpt lat="47.820221" lon="10.724987">
<ele>741.96</ele>
<time>2020-09-11T11:23:59Z</time>
</trkpt>
<trkpt lat="47.820164" lon="10.724983">
<ele>742.067</ele>
<time>2020-09-11T11:24:00Z</time>
</trkpt>
<trkpt lat="47.820103" lon="10.724975">
<ele>742.142</ele>
<time>2020-09-11T11:24:01Z</time>
</trkpt>
<trkpt lat="47.820045" lon="10.724965">
<ele>742.218</ele>
<time>2020-09-11T11:24:02Z</time>
</trkpt>
<trkpt lat="47.819988" lon="10.724954">
<ele>742.266</ele>
<time>2020-09-11T11:24:03Z</time>
</trkpt>
<trkpt lat="47.819931" lon="10.724939">
<ele>742.29</ele>
<time>2020-09-11T11:24:04Z</time>
</trkpt>
<trkpt lat="47.819874" lon="10.724923">
<ele>742.29</ele>
<time>2020-09-11T11:24:05Z</time>
</trkpt>
<trkpt lat="47.819817" lon="10.724905">
<ele>742.29</ele>
<time>2020-09-11T11:24:06Z</time>
</trkpt>
<trkpt lat="47.819763" lon="10.724878">
<ele>742.29</ele>
<time>2020-09-11T11:24:07Z</time>
</trkpt>
<trkpt lat="47.81971" lon="10.724849">
<ele>742.29</ele>
<time>2020-09-11T11:24:08Z</time>
</trkpt>
<trkpt lat="47.819656" lon="10.724813">
<ele>742.29</ele>
<time>2020-09-11T11:24:09Z</time>
</trkpt>
<trkpt lat="47.819603" lon="10.724775">
<ele>742.29</ele>
<time>2020-09-11T11:24:10Z</time>
</trkpt>
<trkpt lat="47.81955" lon="10.724736">
<ele>742.29</ele>
<time>2020-09-11T11:24:11Z</time>
</trkpt>
<trkpt lat="47.8195" lon="10.724702">
<ele>742.29</ele>
<time>2020-09-11T11:24:12Z</time>
</trkpt>
<trkpt lat="47.819447" lon="10.724669">
<ele>742.585</ele>
<time>2020-09-11T11:24:13Z</time>
</trkpt>
<trkpt lat="47.819393" lon="10.724644">
<ele>742.812</ele>
<time>2020-09-11T11:24:14Z</time>
</trkpt>
<trkpt lat="47.819344" lon="10.724623">
<ele>742.978</ele>
<time>2020-09-11T11:24:15Z</time>
</trkpt>
<trkpt lat="47.81929" lon="10.724612">
<ele>743.102</ele>
<time>2020-09-11T11:24:16Z</time>
</trkpt>
<trkpt lat="47.819241" lon="10.724607">
<ele>743.189</ele>
<time>2020-09-11T11:24:17Z</time>
</trkpt>
<trkpt lat="47.819183" lon="10.724608">
<ele>743.242</ele>
<time>2020-09-11T11:24:18Z</time>
</trkpt>
<trkpt lat="47.819126" lon="10.72461">
<ele>743.268</ele>
<time>2020-09-11T11:24:19Z</time>
</trkpt>
<trkpt lat="47.819077" lon="10.724615">
<ele>743.272</ele>
<time>2020-09-11T11:24:20Z</time>
</trkpt>
<trkpt lat="47.819019" lon="10.724623">
<ele>743.272</ele>
<time>2020-09-11T11:24:21Z</time>
</trkpt>
<trkpt lat="47.818966" lon="10.724627">
<ele>743.272</ele>
<time>2020-09-11T11:24:22Z</time>
</trkpt>
<trkpt lat="47.81892" lon="10.724631">
<ele>743.565</ele>
<time>2020-09-11T11:24:23Z</time>
</trkpt>
<trkpt lat="47.818878" lon="10.724637">
<ele>743.786</ele>
<time>2020-09-11T11:24:24Z</time>
</trkpt>
<trkpt lat="47.818829" lon="10.724637">
<ele>743.954</ele>
<time>2020-09-11T11:24:25Z</time>
</trkpt>
<trkpt lat="47.818771" lon="10.724629">
<ele>744.078</ele>
<time>2020-09-11T11:24:26Z</time>
</trkpt>
<trkpt lat="47.818707" lon="10.724629">
<ele>744.173</ele>
<time>2020-09-11T11:24:27Z</time>
</trkpt>
<trkpt lat="47.818642" lon="10.724633">
<ele>744.225</ele>
<time>2020-09-11T11:24:28Z</time>
</trkpt>
<trkpt lat="47.818573" lon="10.724633">
<ele>744.218</ele>
<time>2020-09-11T11:24:29Z</time>
</trkpt>
<trkpt lat="47.818512" lon="10.724642">
<ele>743.965</ele>
<time>2020-09-11T11:24:30Z</time>
</trkpt>
<trkpt lat="47.818455" lon="10.724646">
<ele>743.779</ele>
<time>2020-09-11T11:24:31Z</time>
</trkpt>
<trkpt lat="47.81839" lon="10.724648">
<ele>743.586</ele>
<time>2020-09-11T11:24:32Z</time>
</trkpt>
<trkpt lat="47.818333" lon="10.72465">
<ele>743.452</ele>
<time>2020-09-11T11:24:33Z</time>
</trkpt>
<trkpt lat="47.818275" lon="10.724652">
<ele>743.343</ele>
<time>2020-09-11T11:24:34Z</time>
</trkpt>
<trkpt lat="47.818218" lon="10.724654">
<ele>743.265</ele>
<time>2020-09-11T11:24:35Z</time>
</trkpt>
<trkpt lat="47.818161" lon="10.724658">
<ele>743.21</ele>
<time>2020-09-11T11:24:36Z</time>
</trkpt>
<trkpt lat="47.8181" lon="10.724654">
<ele>743.183</ele>
<time>2020-09-11T11:24:37Z</time>
</trkpt>
<trkpt lat="47.818043" lon="10.724652">
<ele>743.183</ele>
<time>2020-09-11T11:24:38Z</time>
</trkpt>
<trkpt lat="47.817982" lon="10.724652">
<ele>743.183</ele>
<time>2020-09-11T11:24:39Z</time>
</trkpt>
<trkpt lat="47.817924" lon="10.724652">
<ele>743.183</ele>
<time>2020-09-11T11:24:40Z</time>
</trkpt>
<trkpt lat="47.817867" lon="10.72465">
<ele>743.183</ele>
<time>2020-09-11T11:24:41Z</time>
</trkpt>
<trkpt lat="47.817814" lon="10.72465">
<ele>743.183</ele>
<time>2020-09-11T11:24:42Z</time>
</trkpt>
<trkpt lat="47.81776" lon="10.724658">
<ele>743.183</ele>
<time>2020-09-11T11:24:43Z</time>
</trkpt>
<trkpt lat="47.817703" lon="10.724669">
<ele>743.183</ele>
<time>2020-09-11T11:24:44Z</time>
</trkpt>
<trkpt lat="47.817646" lon="10.724663">
<ele>743.183</ele>
<time>2020-09-11T11:24:45Z</time>
</trkpt>
<trkpt lat="47.817589" lon="10.724648">
<ele>743.182</ele>
<time>2020-09-11T11:24:46Z</time>
</trkpt>
<trkpt lat="47.817535" lon="10.724615">
<ele>743.183</ele>
<time>2020-09-11T11:24:47Z</time>
</trkpt>
<trkpt lat="47.81749" lon="10.724572">
<ele>743.183</ele>
<time>2020-09-11T11:24:48Z</time>
</trkpt>
<trkpt lat="47.817436" lon="10.724512">
<ele>743.183</ele>
<time>2020-09-11T11:24:49Z</time>
</trkpt>
<trkpt lat="47.817394" lon="10.72445">
<ele>743.183</ele>
<time>2020-09-11T11:24:50Z</time>
</trkpt>
<trkpt lat="47.817345" lon="10.72439">
<ele>743.183</ele>
<time>2020-09-11T11:24:51Z</time>
</trkpt>
<trkpt lat="47.817299" lon="10.724336">
<ele>743.183</ele>
<time>2020-09-11T11:24:52Z</time>
</trkpt>
<trkpt lat="47.817245" lon="10.724287">
<ele>743.183</ele>
<time>2020-09-11T11:24:53Z</time>
</trkpt>
<trkpt lat="47.817196" lon="10.724243">
<ele>743.183</ele>
<time>2020-09-11T11:24:54Z</time>
</trkpt>
<trkpt lat="47.817135" lon="10.72421">
<ele>743.183</ele>
<time>2020-09-11T11:24:55Z</time>
</trkpt>
<trkpt lat="47.817074" lon="10.724185">
<ele>743.183</ele>
<time>2020-09-11T11:24:56Z</time>
</trkpt>
<trkpt lat="47.817013" lon="10.724166">
<ele>743.183</ele>
<time>2020-09-11T11:24:57Z</time>
</trkpt>
<trkpt lat="47.816956" lon="10.72415">
<ele>743.182</ele>
<time>2020-09-11T11:24:58Z</time>
</trkpt>
<trkpt lat="47.816895" lon="10.724134">
<ele>742.938</ele>
<time>2020-09-11T11:24:59Z</time>
</trkpt>
<trkpt lat="47.816837" lon="10.724124">
<ele>742.742</ele>
<time>2020-09-11T11:25:00Z</time>
</trkpt>
<trkpt lat="47.81678" lon="10.724112">
<ele>742.609</ele>
<time>2020-09-11T11:25:01Z</time>
</trkpt>
<trkpt lat="47.816723" lon="10.724103">
<ele>742.468</ele>
<time>2020-09-11T11:25:02Z</time>
</trkpt>
<trkpt lat="47.816673" lon="10.724092">
<ele>742.411</ele>
<time>2020-09-11T11:25:03Z</time>
</trkpt>
<trkpt lat="47.816612" lon="10.724082">
<ele>742.58</ele>
<time>2020-09-11T11:25:04Z</time>
</trkpt>
<trkpt lat="47.816551" lon="10.724078">
<ele>742.733</ele>
<time>2020-09-11T11:25:05Z</time>
</trkpt>
<trkpt lat="47.816498" lon="10.72407">
<ele>742.87</ele>
<time>2020-09-11T11:25:06Z</time>
</trkpt>
<trkpt lat="47.816441" lon="10.724062">
<ele>742.994</ele>
<time>2020-09-11T11:25:07Z</time>
</trkpt>
<trkpt lat="47.81638" lon="10.724051">
<ele>743.078</ele>
<time>2020-09-11T11:25:08Z</time>
</trkpt>
<trkpt lat="47.816322" lon="10.724033">
<ele>743.136</ele>
<time>2020-09-11T11:25:09Z</time>
</trkpt>
<trkpt lat="47.816265" lon="10.724018">
<ele>743.161</ele>
<time>2020-09-11T11:25:10Z</time>
</trkpt>
<trkpt lat="47.816208" lon="10.724007">
<ele>743.183</ele>
<time>2020-09-11T11:25:11Z</time>
</trkpt>
<trkpt lat="47.816151" lon="10.723994">
<ele>743.183</ele>
<time>2020-09-11T11:25:12Z</time>
</trkpt>
<trkpt lat="47.81609" lon="10.723987">
<ele>743.183</ele>
<time>2020-09-11T11:25:13Z</time>
</trkpt>
<trkpt lat="47.816029" lon="10.723977">
<ele>743.183</ele>
<time>2020-09-11T11:25:14Z</time>
</trkpt>
<trkpt lat="47.815968" lon="10.723967">
<ele>743.183</ele>
<time>2020-09-11T11:25:15Z</time>
</trkpt>
<trkpt lat="47.81591" lon="10.723957">
<ele>743.183</ele>
<time>2020-09-11T11:25:16Z</time>
</trkpt>
<trkpt lat="47.815853" lon="10.723945">
<ele>743.183</ele>
<time>2020-09-11T11:25:17Z</time>
</trkpt>
<trkpt lat="47.8158" lon="10.723933">
<ele>743.183</ele>
<time>2020-09-11T11:25:18Z</time>
</trkpt>
<trkpt lat="47.815739" lon="10.723922">
<ele>743.405</ele>
<time>2020-09-11T11:25:19Z</time>
</trkpt>
<trkpt lat="47.815678" lon="10.723912">
<ele>743.58</ele>
<time>2020-09-11T11:25:20Z</time>
</trkpt>
<trkpt lat="47.815624" lon="10.723902">
<ele>743.701</ele>
<time>2020-09-11T11:25:21Z</time>
</trkpt>
<trkpt lat="47.815567" lon="10.723889">
<ele>743.832</ele>
<time>2020-09-11T11:25:22Z</time>
</trkpt>
<trkpt lat="47.815506" lon="10.723879">
<ele>743.934</ele>
<time>2020-09-11T11:25:23Z</time>
</trkpt>
<trkpt lat="47.815445" lon="10.723868">
<ele>744.007</ele>
<time>2020-09-11T11:25:24Z</time>
</trkpt>
<trkpt lat="47.815388" lon="10.723858">
<ele>744.053</ele>
<time>2020-09-11T11:25:25Z</time>
</trkpt>
<trkpt lat="47.815327" lon="10.723847">
<ele>744.076</ele>
<time>2020-09-11T11:25:26Z</time>
</trkpt>
<trkpt lat="47.815269" lon="10.723833">
<ele>744.076</ele>
<time>2020-09-11T11:25:27Z</time>
</trkpt>
<trkpt lat="47.815208" lon="10.72382">
<ele>744.076</ele>
<time>2020-09-11T11:25:28Z</time>
</trkpt>
<trkpt lat="47.815147" lon="10.723808">
<ele>744.076</ele>
<time>2020-09-11T11:25:29Z</time>
</trkpt>
<trkpt lat="47.815083" lon="10.723798">
<ele>744.076</ele>
<time>2020-09-11T11:25:30Z</time>
</trkpt>
<trkpt lat="47.815022" lon="10.723788">
<ele>744.076</ele>
<time>2020-09-11T11:25:31Z</time>
</trkpt>
<trkpt lat="47.814957" lon="10.723779">
<ele>743.856</ele>
<time>2020-09-11T11:25:32Z</time>
</trkpt>
<trkpt lat="47.814896" lon="10.723766">
<ele>743.672</ele>
<time>2020-09-11T11:25:33Z</time>
</trkpt>
<trkpt lat="47.814831" lon="10.723757">
<ele>743.521</ele>
<time>2020-09-11T11:25:34Z</time>
</trkpt>
<trkpt lat="47.814766" lon="10.723745">
<ele>743.402</ele>
<time>2020-09-11T11:25:35Z</time>
</trkpt>
<trkpt lat="47.814701" lon="10.723732">
<ele>743.311</ele>
<time>2020-09-11T11:25:36Z</time>
</trkpt>
<trkpt lat="47.814632" lon="10.723718">
<ele>743.246</ele>
<time>2020-09-11T11:25:37Z</time>
</trkpt>
<trkpt lat="47.814568" lon="10.723707">
<ele>743.203</ele>
<time>2020-09-11T11:25:38Z</time>
</trkpt>
<trkpt lat="47.814499" lon="10.723697">
<ele>743.183</ele>
<time>2020-09-11T11:25:39Z</time>
</trkpt>
<trkpt lat="47.81443" lon="10.723684">
<ele>743.183</ele>
<time>2020-09-11T11:25:40Z</time>
</trkpt>
<trkpt lat="47.814362" lon="10.72367">
<ele>742.961</ele>
<time>2020-09-11T11:25:41Z</time>
</trkpt>
<trkpt lat="47.814289" lon="10.723655">
<ele>742.752</ele>
<time>2020-09-11T11:25:42Z</time>
</trkpt>
<trkpt lat="47.814213" lon="10.723637">
<ele>742.603</ele>
<time>2020-09-11T11:25:43Z</time>
</trkpt>
<trkpt lat="47.81414" lon="10.723617">
<ele>742.211</ele>
<time>2020-09-11T11:25:44Z</time>
</trkpt>
<trkpt lat="47.814064" lon="10.723602">
<ele>741.943</ele>
<time>2020-09-11T11:25:45Z</time>
</trkpt>
<trkpt lat="47.813984" lon="10.723588">
<ele>741.436</ele>
<time>2020-09-11T11:25:46Z</time>
</trkpt>
<trkpt lat="47.813908" lon="10.723578">
<ele>741.091</ele>
<time>2020-09-11T11:25:47Z</time>
</trkpt>
<trkpt lat="47.813824" lon="10.723569">
<ele>740.489</ele>
<time>2020-09-11T11:25:48Z</time>
</trkpt>
<trkpt lat="47.81374" lon="10.723555">
<ele>740.031</ele>
<time>2020-09-11T11:25:49Z</time>
</trkpt>
<trkpt lat="47.813652" lon="10.723536">
<ele>739.466</ele>
<time>2020-09-11T11:25:50Z</time>
</trkpt>
<trkpt lat="47.813564" lon="10.723515">
<ele>739.051</ele>
<time>2020-09-11T11:25:51Z</time>
</trkpt>
<trkpt lat="47.813473" lon="10.723495">
<ele>738.707</ele>
<time>2020-09-11T11:25:52Z</time>
</trkpt>
<trkpt lat="47.813381" lon="10.723476">
<ele>738.146</ele>
<time>2020-09-11T11:25:53Z</time>
</trkpt>
<trkpt lat="47.81329" lon="10.723458">
<ele>737.736</ele>
<time>2020-09-11T11:25:54Z</time>
</trkpt>
<trkpt lat="47.81319" lon="10.723439">
<ele>737.482</ele>
<time>2020-09-11T11:25:55Z</time>
</trkpt>
<trkpt lat="47.813099" lon="10.723427">
<ele>736.993</ele>
<time>2020-09-11T11:25:56Z</time>
</trkpt>
<trkpt lat="47.813004" lon="10.723413">
<ele>736.623</ele>
<time>2020-09-11T11:25:57Z</time>
</trkpt>
<trkpt lat="47.812908" lon="10.72341">
<ele>736.307</ele>
<time>2020-09-11T11:25:58Z</time>
</trkpt>
<trkpt lat="47.812813" lon="10.723418">
<ele>735.885</ele>
<time>2020-09-11T11:25:59Z</time>
</trkpt>
<trkpt lat="47.812717" lon="10.723439">
<ele>735.588</ele>
<time>2020-09-11T11:26:00Z</time>
</trkpt>
<trkpt lat="47.812622" lon="10.723472">
<ele>735.379</ele>
<time>2020-09-11T11:26:01Z</time>
</trkpt>
<trkpt lat="47.812534" lon="10.7235">
<ele>734.936</ele>
<time>2020-09-11T11:26:02Z</time>
</trkpt>
<trkpt lat="47.812443" lon="10.723506">
<ele>734.598</ele>
<time>2020-09-11T11:26:03Z</time>
</trkpt>
<trkpt lat="47.812351" lon="10.723498">
<ele>734.355</ele>
<time>2020-09-11T11:26:04Z</time>
</trkpt>
<trkpt lat="47.812267" lon="10.723483">
<ele>734.173</ele>
<time>2020-09-11T11:26:05Z</time>
</trkpt>
<trkpt lat="47.812187" lon="10.723462">
<ele>734.048</ele>
<time>2020-09-11T11:26:06Z</time>
</trkpt>
<trkpt lat="47.812107" lon="10.723438">
<ele>733.974</ele>
<time>2020-09-11T11:26:07Z</time>
</trkpt>
<trkpt lat="47.812027" lon="10.723423">
<ele>733.925</ele>
<time>2020-09-11T11:26:08Z</time>
</trkpt>
<trkpt lat="47.811951" lon="10.72341">
<ele>733.901</ele>
<time>2020-09-11T11:26:09Z</time>
</trkpt>
<trkpt lat="47.811878" lon="10.723397">
<ele>733.901</ele>
<time>2020-09-11T11:26:10Z</time>
</trkpt>
<trkpt lat="47.811806" lon="10.723383">
<ele>733.901</ele>
<time>2020-09-11T11:26:11Z</time>
</trkpt>
<trkpt lat="47.811733" lon="10.723374">
<ele>733.901</ele>
<time>2020-09-11T11:26:12Z</time>
</trkpt>
<trkpt lat="47.811661" lon="10.723368">
<ele>733.901</ele>
<time>2020-09-11T11:26:13Z</time>
</trkpt>
<trkpt lat="47.811596" lon="10.723364">
<ele>733.901</ele>
<time>2020-09-11T11:26:14Z</time>
</trkpt>
<trkpt lat="47.811527" lon="10.723358">
<ele>733.901</ele>
<time>2020-09-11T11:26:15Z</time>
</trkpt>
<trkpt lat="47.811462" lon="10.723355">
<ele>733.901</ele>
<time>2020-09-11T11:26:16Z</time>
</trkpt>
<trkpt lat="47.811398" lon="10.723357">
<ele>733.901</ele>
<time>2020-09-11T11:26:17Z</time>
</trkpt>
<trkpt lat="47.811337" lon="10.723362">
<ele>733.901</ele>
<time>2020-09-11T11:26:18Z</time>
</trkpt>
<trkpt lat="47.811272" lon="10.723366">
<ele>733.901</ele>
<time>2020-09-11T11:26:19Z</time>
</trkpt>
<trkpt lat="47.811211" lon="10.72337">
<ele>733.901</ele>
<time>2020-09-11T11:26:20Z</time>
</trkpt>
<trkpt lat="47.81115" lon="10.723378">
<ele>734.115</ele>
<time>2020-09-11T11:26:21Z</time>
</trkpt>
<trkpt lat="47.811089" lon="10.723392">
<ele>734.32</ele>
<time>2020-09-11T11:26:22Z</time>
</trkpt>
<trkpt lat="47.811028" lon="10.723403">
<ele>734.489</ele>
<time>2020-09-11T11:26:23Z</time>
</trkpt>
<trkpt lat="47.810966" lon="10.723415">
<ele>734.626</ele>
<time>2020-09-11T11:26:24Z</time>
</trkpt>
<trkpt lat="47.810905" lon="10.723423">
<ele>734.732</ele>
<time>2020-09-11T11:26:25Z</time>
</trkpt>
<trkpt lat="47.810844" lon="10.723436">
<ele>734.809</ele>
<time>2020-09-11T11:26:26Z</time>
</trkpt>
<trkpt lat="47.810783" lon="10.72345">
<ele>734.858</ele>
<time>2020-09-11T11:26:27Z</time>
</trkpt>
<trkpt lat="47.810722" lon="10.723465">
<ele>734.882</ele>
<time>2020-09-11T11:26:28Z</time>
</trkpt>
<trkpt lat="47.810661" lon="10.723481">
<ele>734.882</ele>
<time>2020-09-11T11:26:29Z</time>
</trkpt>
<trkpt lat="47.8106" lon="10.7235">
<ele>734.882</ele>
<time>2020-09-11T11:26:30Z</time>
</trkpt>
<trkpt lat="47.810543" lon="10.723518">
<ele>734.882</ele>
<time>2020-09-11T11:26:31Z</time>
</trkpt>
<trkpt lat="47.810482" lon="10.723538">
<ele>734.882</ele>
<time>2020-09-11T11:26:32Z</time>
</trkpt>
<trkpt lat="47.810421" lon="10.723558">
<ele>734.882</ele>
<time>2020-09-11T11:26:33Z</time>
</trkpt>
<trkpt lat="47.810356" lon="10.723577">
<ele>734.882</ele>
<time>2020-09-11T11:26:34Z</time>
</trkpt>
<trkpt lat="47.810295" lon="10.723598">
<ele>734.882</ele>
<time>2020-09-11T11:26:35Z</time>
</trkpt>
<trkpt lat="47.810234" lon="10.723621">
<ele>734.882</ele>
<time>2020-09-11T11:26:36Z</time>
</trkpt>
<trkpt lat="47.810173" lon="10.723643">
<ele>734.882</ele>
<time>2020-09-11T11:26:37Z</time>
</trkpt>
<trkpt lat="47.810112" lon="10.723667">
<ele>734.882</ele>
<time>2020-09-11T11:26:38Z</time>
</trkpt>
<trkpt lat="47.810055" lon="10.72369">
<ele>734.882</ele>
<time>2020-09-11T11:26:39Z</time>
</trkpt>
<trkpt lat="47.809998" lon="10.723714">
<ele>734.882</ele>
<time>2020-09-11T11:26:40Z</time>
</trkpt>
<trkpt lat="47.809933" lon="10.723737">
<ele>734.882</ele>
<time>2020-09-11T11:26:41Z</time>
</trkpt>
<trkpt lat="47.809875" lon="10.72376">
<ele>734.882</ele>
<time>2020-09-11T11:26:42Z</time>
</trkpt>
<trkpt lat="47.809818" lon="10.723784">
<ele>734.882</ele>
<time>2020-09-11T11:26:43Z</time>
</trkpt>
<trkpt lat="47.809757" lon="10.72381">
<ele>734.882</ele>
<time>2020-09-11T11:26:44Z</time>
</trkpt>
<trkpt lat="47.809696" lon="10.723835">
<ele>735.158</ele>
<time>2020-09-11T11:26:45Z</time>
</trkpt>
<trkpt lat="47.809635" lon="10.723864">
<ele>735.373</ele>
<time>2020-09-11T11:26:46Z</time>
</trkpt>
<trkpt lat="47.809574" lon="10.723893">
<ele>735.537</ele>
<time>2020-09-11T11:26:47Z</time>
</trkpt>
<trkpt lat="47.809509" lon="10.723923">
<ele>735.661</ele>
<time>2020-09-11T11:26:48Z</time>
</trkpt>
<trkpt lat="47.809448" lon="10.723953">
<ele>735.741</ele>
<time>2020-09-11T11:26:49Z</time>
</trkpt>
<trkpt lat="47.809391" lon="10.723982">
<ele>735.796</ele>
<time>2020-09-11T11:26:50Z</time>
</trkpt>
<trkpt lat="47.809334" lon="10.724013">
<ele>735.837</ele>
<time>2020-09-11T11:26:51Z</time>
</trkpt>
<trkpt lat="47.809273" lon="10.72404">
<ele>735.863</ele>
<time>2020-09-11T11:26:52Z</time>
</trkpt>
<trkpt lat="47.809216" lon="10.724063">
<ele>735.863</ele>
<time>2020-09-11T11:26:53Z</time>
</trkpt>
<trkpt lat="47.809155" lon="10.724089">
<ele>735.864</ele>
<time>2020-09-11T11:26:54Z</time>
</trkpt>
<trkpt lat="47.809097" lon="10.724105">
<ele>735.863</ele>
<time>2020-09-11T11:26:55Z</time>
</trkpt>
<trkpt lat="47.809036" lon="10.724112">
<ele>735.863</ele>
<time>2020-09-11T11:26:56Z</time>
</trkpt>
<trkpt lat="47.808975" lon="10.724118">
<ele>735.863</ele>
<time>2020-09-11T11:26:57Z</time>
</trkpt>
<trkpt lat="47.80891" lon="10.724133">
<ele>735.864</ele>
<time>2020-09-11T11:26:58Z</time>
</trkpt>
<trkpt lat="47.808846" lon="10.724154">
<ele>735.863</ele>
<time>2020-09-11T11:26:59Z</time>
</trkpt>
<trkpt lat="47.808781" lon="10.724174">
<ele>735.864</ele>
<time>2020-09-11T11:27:00Z</time>
</trkpt>
<trkpt lat="47.808716" lon="10.724206">
<ele>735.863</ele>
<time>2020-09-11T11:27:01Z</time>
</trkpt>
<trkpt lat="47.808659" lon="10.724241">
<ele>735.864</ele>
<time>2020-09-11T11:27:02Z</time>
</trkpt>
<trkpt lat="47.808598" lon="10.724281">
<ele>735.863</ele>
<time>2020-09-11T11:27:03Z</time>
</trkpt>
<trkpt lat="47.80854" lon="10.724319">
<ele>735.863</ele>
<time>2020-09-11T11:27:04Z</time>
</trkpt>
<trkpt lat="47.808487" lon="10.72436">
<ele>735.863</ele>
<time>2020-09-11T11:27:05Z</time>
</trkpt>
<trkpt lat="47.80843" lon="10.724401">
<ele>735.864</ele>
<time>2020-09-11T11:27:06Z</time>
</trkpt>
<trkpt lat="47.808369" lon="10.724444">
<ele>735.864</ele>
<time>2020-09-11T11:27:07Z</time>
</trkpt>
<trkpt lat="47.808311" lon="10.724484">
<ele>735.863</ele>
<time>2020-09-11T11:27:08Z</time>
</trkpt>
<trkpt lat="47.808254" lon="10.724524">
<ele>735.864</ele>
<time>2020-09-11T11:27:09Z</time>
</trkpt>
<trkpt lat="47.808201" lon="10.724562">
<ele>735.863</ele>
<time>2020-09-11T11:27:10Z</time>
</trkpt>
<trkpt lat="47.80814" lon="10.7246">
<ele>735.863</ele>
<time>2020-09-11T11:27:11Z</time>
</trkpt>
<trkpt lat="47.808083" lon="10.724637">
<ele>735.863</ele>
<time>2020-09-11T11:27:12Z</time>
</trkpt>
<trkpt lat="47.808022" lon="10.724669">
<ele>735.863</ele>
<time>2020-09-11T11:27:13Z</time>
</trkpt>
<trkpt lat="47.807961" lon="10.7247">
<ele>735.864</ele>
<time>2020-09-11T11:27:14Z</time>
</trkpt>
<trkpt lat="47.807903" lon="10.724728">
<ele>735.863</ele>
<time>2020-09-11T11:27:15Z</time>
</trkpt>
<trkpt lat="47.807846" lon="10.724757">
<ele>735.863</ele>
<time>2020-09-11T11:27:16Z</time>
</trkpt>
<trkpt lat="47.807785" lon="10.724784">
<ele>735.863</ele>
<time>2020-09-11T11:27:17Z</time>
</trkpt>
<trkpt lat="47.807728" lon="10.72481">
<ele>736.113</ele>
<time>2020-09-11T11:27:18Z</time>
</trkpt>
<trkpt lat="47.807671" lon="10.724836">
<ele>736.309</ele>
<time>2020-09-11T11:27:19Z</time>
</trkpt>
<trkpt lat="47.80761" lon="10.724862">
<ele>736.464</ele>
<time>2020-09-11T11:27:20Z</time>
</trkpt>
<trkpt lat="47.807552" lon="10.724883">
<ele>736.569</ele>
<time>2020-09-11T11:27:21Z</time>
</trkpt>
<trkpt lat="47.807491" lon="10.724905">
<ele>736.684</ele>
<time>2020-09-11T11:27:22Z</time>
</trkpt>
<trkpt lat="47.807434" lon="10.724929">
<ele>736.767</ele>
<time>2020-09-11T11:27:23Z</time>
</trkpt>
<trkpt lat="47.807377" lon="10.724956">
<ele>736.82</ele>
<time>2020-09-11T11:27:24Z</time>
</trkpt>
<trkpt lat="47.807323" lon="10.72498">
<ele>736.845</ele>
<time>2020-09-11T11:27:25Z</time>
</trkpt>
<trkpt lat="47.807266" lon="10.725008">
<ele>736.845</ele>
<time>2020-09-11T11:27:26Z</time>
</trkpt>
<trkpt lat="47.807217" lon="10.725039">
<ele>736.845</ele>
<time>2020-09-11T11:27:27Z</time>
</trkpt>
<trkpt lat="47.807159" lon="10.725078">
<ele>736.845</ele>
<time>2020-09-11T11:27:28Z</time>
</trkpt>
<trkpt lat="47.80711" lon="10.725123">
<ele>736.845</ele>
<time>2020-09-11T11:27:29Z</time>
</trkpt>
<trkpt lat="47.80706" lon="10.725174">
<ele>736.845</ele>
<time>2020-09-11T11:27:30Z</time>
</trkpt>
<trkpt lat="47.807014" lon="10.725228">
<ele>736.845</ele>
<time>2020-09-11T11:27:31Z</time>
</trkpt>
<trkpt lat="47.806965" lon="10.725285">
<ele>737.064</ele>
<time>2020-09-11T11:27:32Z</time>
</trkpt>
<trkpt lat="47.806923" lon="10.725342">
<ele>737.248</ele>
<time>2020-09-11T11:27:33Z</time>
</trkpt>
<trkpt lat="47.806881" lon="10.725398">
<ele>737.397</ele>
<time>2020-09-11T11:27:34Z</time>
</trkpt>
<trkpt lat="47.806835" lon="10.725454">
<ele>737.516</ele>
<time>2020-09-11T11:27:35Z</time>
</trkpt>
<trkpt lat="47.806801" lon="10.725515">
<ele>737.606</ele>
<time>2020-09-11T11:27:36Z</time>
</trkpt>
<trkpt lat="47.806759" lon="10.725575">
<ele>737.673</ele>
<time>2020-09-11T11:27:37Z</time>
</trkpt>
<trkpt lat="47.806717" lon="10.725635">
<ele>737.716</ele>
<time>2020-09-11T11:27:38Z</time>
</trkpt>
<trkpt lat="47.806675" lon="10.725694">
<ele>737.738</ele>
<time>2020-09-11T11:27:39Z</time>
</trkpt>
<trkpt lat="47.806637" lon="10.725755">
<ele>737.738</ele>
<time>2020-09-11T11:27:40Z</time>
</trkpt>
<trkpt lat="47.806595" lon="10.725811">
<ele>737.737</ele>
<time>2020-09-11T11:27:41Z</time>
</trkpt>
<trkpt lat="47.806553" lon="10.725865">
<ele>737.738</ele>
<time>2020-09-11T11:27:42Z</time>
</trkpt>
<trkpt lat="47.806511" lon="10.725911">
<ele>738.029</ele>
<time>2020-09-11T11:27:43Z</time>
</trkpt>
<trkpt lat="47.806465" lon="10.725957">
<ele>738.255</ele>
<time>2020-09-11T11:27:44Z</time>
</trkpt>
<trkpt lat="47.806416" lon="10.725997">
<ele>738.426</ele>
<time>2020-09-11T11:27:45Z</time>
</trkpt>
<trkpt lat="47.80637" lon="10.726031">
<ele>738.551</ele>
<time>2020-09-11T11:27:46Z</time>
</trkpt>
<trkpt lat="47.806313" lon="10.726062">
<ele>738.64</ele>
<time>2020-09-11T11:27:47Z</time>
</trkpt>
<trkpt lat="47.806263" lon="10.726087">
<ele>738.689</ele>
<time>2020-09-11T11:27:48Z</time>
</trkpt>
<trkpt lat="47.80621" lon="10.726107">
<ele>738.719</ele>
<time>2020-09-11T11:27:49Z</time>
</trkpt>
<trkpt lat="47.806152" lon="10.726125">
<ele>738.719</ele>
<time>2020-09-11T11:27:50Z</time>
</trkpt>
<trkpt lat="47.806103" lon="10.726138">
<ele>738.719</ele>
<time>2020-09-11T11:27:51Z</time>
</trkpt>
<trkpt lat="47.806053" lon="10.726153">
<ele>738.719</ele>
<time>2020-09-11T11:27:52Z</time>
</trkpt>
<trkpt lat="47.806" lon="10.726175">
<ele>738.719</ele>
<time>2020-09-11T11:27:53Z</time>
</trkpt>
<trkpt lat="47.80595" lon="10.7262">
<ele>738.719</ele>
<time>2020-09-11T11:27:54Z</time>
</trkpt>
<trkpt lat="47.805901" lon="10.726223">
<ele>738.966</ele>
<time>2020-09-11T11:27:55Z</time>
</trkpt>
<trkpt lat="47.805855" lon="10.726251">
<ele>739.161</ele>
<time>2020-09-11T11:27:56Z</time>
</trkpt>
<trkpt lat="47.805801" lon="10.726278">
<ele>739.311</ele>
<time>2020-09-11T11:27:57Z</time>
</trkpt>
<trkpt lat="47.805756" lon="10.72631">
<ele>739.422</ele>
<time>2020-09-11T11:27:58Z</time>
</trkpt>
<trkpt lat="47.805706" lon="10.726345">
<ele>739.5</ele>
<time>2020-09-11T11:27:59Z</time>
</trkpt>
<trkpt lat="47.80566" lon="10.72638">
<ele>739.547</ele>
<time>2020-09-11T11:28:00Z</time>
</trkpt>
<trkpt lat="47.805614" lon="10.726417">
<ele>739.587</ele>
<time>2020-09-11T11:28:01Z</time>
</trkpt>
<trkpt lat="47.805569" lon="10.726456">
<ele>739.612</ele>
<time>2020-09-11T11:28:02Z</time>
</trkpt>
<trkpt lat="47.805527" lon="10.726499">
<ele>739.907</ele>
<time>2020-09-11T11:28:03Z</time>
</trkpt>
<trkpt lat="47.805481" lon="10.72654">
<ele>740.132</ele>
<time>2020-09-11T11:28:04Z</time>
</trkpt>
<trkpt lat="47.805435" lon="10.726582">
<ele>740.301</ele>
<time>2020-09-11T11:28:05Z</time>
</trkpt>
<trkpt lat="47.805389" lon="10.726622">
<ele>740.425</ele>
<time>2020-09-11T11:28:06Z</time>
</trkpt>
<trkpt lat="47.805344" lon="10.72666">
<ele>740.515</ele>
<time>2020-09-11T11:28:07Z</time>
</trkpt>
<trkpt lat="47.805302" lon="10.726697">
<ele>740.565</ele>
<time>2020-09-11T11:28:08Z</time>
</trkpt>
<trkpt lat="47.805252" lon="10.72673">
<ele>740.594</ele>
<time>2020-09-11T11:28:09Z</time>
</trkpt>
<trkpt lat="47.805206" lon="10.726762">
<ele>740.594</ele>
<time>2020-09-11T11:28:10Z</time>
</trkpt>
<trkpt lat="47.805164" lon="10.726793">
<ele>740.594</ele>
<time>2020-09-11T11:28:11Z</time>
</trkpt>
<trkpt lat="47.805115" lon="10.726823">
<ele>740.594</ele>
<time>2020-09-11T11:28:12Z</time>
</trkpt>
<trkpt lat="47.805069" lon="10.726851">
<ele>740.594</ele>
<time>2020-09-11T11:28:13Z</time>
</trkpt>
<trkpt lat="47.805023" lon="10.72688">
<ele>740.874</ele>
<time>2020-09-11T11:28:14Z</time>
</trkpt>
<trkpt lat="47.804977" lon="10.726905">
<ele>741.094</ele>
<time>2020-09-11T11:28:15Z</time>
</trkpt>
<trkpt lat="47.804924" lon="10.726927">
<ele>741.261</ele>
<time>2020-09-11T11:28:16Z</time>
</trkpt>
<trkpt lat="47.804878" lon="10.726949">
<ele>741.386</ele>
<time>2020-09-11T11:28:17Z</time>
</trkpt>
<trkpt lat="47.804825" lon="10.726972">
<ele>741.472</ele>
<time>2020-09-11T11:28:18Z</time>
</trkpt>
<trkpt lat="47.804779" lon="10.726995">
<ele>741.523</ele>
<time>2020-09-11T11:28:19Z</time>
</trkpt>
<trkpt lat="47.804729" lon="10.72702">
<ele>741.553</ele>
<time>2020-09-11T11:28:20Z</time>
</trkpt>
<trkpt lat="47.804684" lon="10.727043">
<ele>741.576</ele>
<time>2020-09-11T11:28:21Z</time>
</trkpt>
<trkpt lat="47.804638" lon="10.727068">
<ele>741.576</ele>
<time>2020-09-11T11:28:22Z</time>
</trkpt>
<trkpt lat="47.804592" lon="10.727095">
<ele>741.892</ele>
<time>2020-09-11T11:28:23Z</time>
</trkpt>
<trkpt lat="47.80455" lon="10.727125">
<ele>742.135</ele>
<time>2020-09-11T11:28:24Z</time>
</trkpt>
<trkpt lat="47.804504" lon="10.727154">
<ele>742.322</ele>
<time>2020-09-11T11:28:25Z</time>
</trkpt>
<trkpt lat="47.804462" lon="10.727183">
<ele>742.458</ele>
<time>2020-09-11T11:28:26Z</time>
</trkpt>
<trkpt lat="47.804424" lon="10.727215">
<ele>742.555</ele>
<time>2020-09-11T11:28:27Z</time>
</trkpt>
<trkpt lat="47.80439" lon="10.72725">
<ele>742.614</ele>
<time>2020-09-11T11:28:28Z</time>
</trkpt>
<trkpt lat="47.804348" lon="10.727285">
<ele>742.642</ele>
<time>2020-09-11T11:28:29Z</time>
</trkpt>
<trkpt lat="47.80431" lon="10.727317">
<ele>742.647</ele>
<time>2020-09-11T11:28:30Z</time>
</trkpt>
<trkpt lat="47.804264" lon="10.727344">
<ele>742.647</ele>
<time>2020-09-11T11:28:31Z</time>
</trkpt>
<trkpt lat="47.804226" lon="10.727362">
<ele>742.881</ele>
<time>2020-09-11T11:28:32Z</time>
</trkpt>
<trkpt lat="47.804188" lon="10.727367">
<ele>743.053</ele>
<time>2020-09-11T11:28:33Z</time>
</trkpt>
<trkpt lat="47.804153" lon="10.727362">
<ele>743.436</ele>
<time>2020-09-11T11:28:34Z</time>
</trkpt>
<trkpt lat="47.804115" lon="10.727344">
<ele>743.754</ele>
<time>2020-09-11T11:28:35Z</time>
</trkpt>
<trkpt lat="47.804081" lon="10.727311">
<ele>744.007</ele>
<time>2020-09-11T11:28:36Z</time>
</trkpt>
<trkpt lat="47.804047" lon="10.727277">
<ele>744.208</ele>
<time>2020-09-11T11:28:37Z</time>
</trkpt>
<trkpt lat="47.804008" lon="10.727242">
<ele>744.356</ele>
<time>2020-09-11T11:28:38Z</time>
</trkpt>
<trkpt lat="47.80397" lon="10.727205">
<ele>744.453</ele>
<time>2020-09-11T11:28:39Z</time>
</trkpt>
<trkpt lat="47.803932" lon="10.727166">
<ele>744.501</ele>
<time>2020-09-11T11:28:40Z</time>
</trkpt>
<trkpt lat="47.80389" lon="10.72713">
<ele>744.522</ele>
<time>2020-09-11T11:28:41Z</time>
</trkpt>
<trkpt lat="47.803844" lon="10.727095">
<ele>744.522</ele>
<time>2020-09-11T11:28:42Z</time>
</trkpt>
<trkpt lat="47.803802" lon="10.727057">
<ele>744.522</ele>
<time>2020-09-11T11:28:43Z</time>
</trkpt>
<trkpt lat="47.803768" lon="10.727017">
<ele>744.522</ele>
<time>2020-09-11T11:28:44Z</time>
</trkpt>
<trkpt lat="47.803722" lon="10.726975">
<ele>744.522</ele>
<time>2020-09-11T11:28:45Z</time>
</trkpt>
<trkpt lat="47.803684" lon="10.726928">
<ele>744.522</ele>
<time>2020-09-11T11:28:46Z</time>
</trkpt>
<trkpt lat="47.803642" lon="10.72688">
<ele>744.522</ele>
<time>2020-09-11T11:28:47Z</time>
</trkpt>
<trkpt lat="47.803604" lon="10.72683">
<ele>744.522</ele>
<time>2020-09-11T11:28:48Z</time>
</trkpt>
<trkpt lat="47.803562" lon="10.726775">
<ele>744.522</ele>
<time>2020-09-11T11:28:49Z</time>
</trkpt>
<trkpt lat="47.80352" lon="10.726718">
<ele>744.522</ele>
<time>2020-09-11T11:28:50Z</time>
</trkpt>
<trkpt lat="47.803478" lon="10.726659">
<ele>744.522</ele>
<time>2020-09-11T11:28:51Z</time>
</trkpt>
<trkpt lat="47.80344" lon="10.726599">
<ele>744.522</ele>
<time>2020-09-11T11:28:52Z</time>
</trkpt>
<trkpt lat="47.803394" lon="10.72654">
<ele>744.522</ele>
<time>2020-09-11T11:28:53Z</time>
</trkpt>
<trkpt lat="47.803349" lon="10.726481">
<ele>744.522</ele>
<time>2020-09-11T11:28:54Z</time>
</trkpt>
<trkpt lat="47.803303" lon="10.726423">
<ele>744.522</ele>
<time>2020-09-11T11:28:55Z</time>
</trkpt>
<trkpt lat="47.803257" lon="10.726363">
<ele>744.522</ele>
<time>2020-09-11T11:28:56Z</time>
</trkpt>
<trkpt lat="47.803211" lon="10.726303">
<ele>744.282</ele>
<time>2020-09-11T11:28:57Z</time>
</trkpt>
<trkpt lat="47.803162" lon="10.72624">
<ele>744.094</ele>
<time>2020-09-11T11:28:58Z</time>
</trkpt>
<trkpt lat="47.803116" lon="10.726175">
<ele>743.951</ele>
<time>2020-09-11T11:28:59Z</time>
</trkpt>
<trkpt lat="47.803066" lon="10.726109">
<ele>743.846</ele>
<time>2020-09-11T11:29:00Z</time>
</trkpt>
<trkpt lat="47.80302" lon="10.726042">
<ele>743.774</ele>
<time>2020-09-11T11:29:01Z</time>
</trkpt>
<trkpt lat="47.802967" lon="10.725978">
<ele>743.699</ele>
<time>2020-09-11T11:29:02Z</time>
</trkpt>
<trkpt lat="47.802917" lon="10.725913">
<ele>743.652</ele>
<time>2020-09-11T11:29:03Z</time>
</trkpt>
<trkpt lat="47.802864" lon="10.725846">
<ele>743.629</ele>
<time>2020-09-11T11:29:04Z</time>
</trkpt>
<trkpt lat="47.802811" lon="10.72578">
<ele>743.349</ele>
<time>2020-09-11T11:29:05Z</time>
</trkpt>
<trkpt lat="47.802757" lon="10.725717">
<ele>743.134</ele>
<time>2020-09-11T11:29:06Z</time>
</trkpt>
<trkpt lat="47.8027" lon="10.725656">
<ele>742.972</ele>
<time>2020-09-11T11:29:07Z</time>
</trkpt>
<trkpt lat="47.802647" lon="10.725595">
<ele>742.853</ele>
<time>2020-09-11T11:29:08Z</time>
</trkpt>
<trkpt lat="47.802586" lon="10.725536">
<ele>742.77</ele>
<time>2020-09-11T11:29:09Z</time>
</trkpt>
<trkpt lat="47.802528" lon="10.725486">
<ele>742.715</ele>
<time>2020-09-11T11:29:10Z</time>
</trkpt>
<trkpt lat="47.802467" lon="10.725431">
<ele>742.674</ele>
<time>2020-09-11T11:29:11Z</time>
</trkpt>
<trkpt lat="47.80241" lon="10.72538">
<ele>742.647</ele>
<time>2020-09-11T11:29:12Z</time>
</trkpt>
<trkpt lat="47.802349" lon="10.725327">
<ele>742.647</ele>
<time>2020-09-11T11:29:13Z</time>
</trkpt>
<trkpt lat="47.802288" lon="10.725275">
<ele>742.647</ele>
<time>2020-09-11T11:29:14Z</time>
</trkpt>
<trkpt lat="47.802231" lon="10.725224">
<ele>742.372</ele>
<time>2020-09-11T11:29:15Z</time>
</trkpt>
<trkpt lat="47.80217" lon="10.725176">
<ele>742.157</ele>
<time>2020-09-11T11:29:16Z</time>
</trkpt>
<trkpt lat="47.802109" lon="10.72513">
<ele>741.995</ele>
<time>2020-09-11T11:29:17Z</time>
</trkpt>
<trkpt lat="47.802048" lon="10.725081">
<ele>741.874</ele>
<time>2020-09-11T11:29:18Z</time>
</trkpt>
<trkpt lat="47.801991" lon="10.725036">
<ele>741.789</ele>
<time>2020-09-11T11:29:19Z</time>
</trkpt>
<trkpt lat="47.801929" lon="10.72499">
<ele>741.736</ele>
<time>2020-09-11T11:29:20Z</time>
</trkpt>
<trkpt lat="47.801868" lon="10.724947">
<ele>741.693</ele>
<time>2020-09-11T11:29:21Z</time>
</trkpt>
<trkpt lat="47.801807" lon="10.724905">
<ele>741.665</ele>
<time>2020-09-11T11:29:22Z</time>
</trkpt>
<trkpt lat="47.801746" lon="10.724863">
<ele>741.665</ele>
<time>2020-09-11T11:29:23Z</time>
</trkpt>
<trkpt lat="47.801685" lon="10.724827">
<ele>741.665</ele>
<time>2020-09-11T11:29:24Z</time>
</trkpt>
<trkpt lat="47.801624" lon="10.724791">
<ele>741.665</ele>
<time>2020-09-11T11:29:25Z</time>
</trkpt>
<trkpt lat="47.801563" lon="10.724751">
<ele>741.665</ele>
<time>2020-09-11T11:29:26Z</time>
</trkpt>
<trkpt lat="47.801506" lon="10.724711">
<ele>741.665</ele>
<time>2020-09-11T11:29:27Z</time>
</trkpt>
<trkpt lat="47.801445" lon="10.724671">
<ele>741.665</ele>
<time>2020-09-11T11:29:28Z</time>
</trkpt>
<trkpt lat="47.801388" lon="10.724633">
<ele>741.665</ele>
<time>2020-09-11T11:29:29Z</time>
</trkpt>
<trkpt lat="47.801327" lon="10.724597">
<ele>741.665</ele>
<time>2020-09-11T11:29:30Z</time>
</trkpt>
<trkpt lat="47.801266" lon="10.72456">
<ele>741.665</ele>
<time>2020-09-11T11:29:31Z</time>
</trkpt>
<trkpt lat="47.801208" lon="10.724524">
<ele>741.665</ele>
<time>2020-09-11T11:29:32Z</time>
</trkpt>
<trkpt lat="47.801151" lon="10.724486">
<ele>741.983</ele>
<time>2020-09-11T11:29:33Z</time>
</trkpt>
<trkpt lat="47.801098" lon="10.724448">
<ele>742.231</ele>
<time>2020-09-11T11:29:34Z</time>
</trkpt>
<trkpt lat="47.801041" lon="10.724409">
<ele>742.417</ele>
<time>2020-09-11T11:29:35Z</time>
</trkpt>
<trkpt lat="47.800987" lon="10.72437">
<ele>742.552</ele>
<time>2020-09-11T11:29:36Z</time>
</trkpt>
<trkpt lat="47.80093" lon="10.724328">
<ele>742.647</ele>
<time>2020-09-11T11:29:37Z</time>
</trkpt>
<trkpt lat="47.800877" lon="10.724285">
<ele>742.706</ele>
<time>2020-09-11T11:29:38Z</time>
</trkpt>
<trkpt lat="47.800827" lon="10.724241">
<ele>742.733</ele>
<time>2020-09-11T11:29:39Z</time>
</trkpt>
<trkpt lat="47.80077" lon="10.724197">
<ele>742.736</ele>
<time>2020-09-11T11:29:40Z</time>
</trkpt>
<trkpt lat="47.80072" lon="10.724155">
<ele>742.736</ele>
<time>2020-09-11T11:29:41Z</time>
</trkpt>
<trkpt lat="47.800671" lon="10.724112">
<ele>742.736</ele>
<time>2020-09-11T11:29:42Z</time>
</trkpt>
<trkpt lat="47.800617" lon="10.724068">
<ele>742.736</ele>
<time>2020-09-11T11:29:43Z</time>
</trkpt>
<trkpt lat="47.800568" lon="10.724026">
<ele>742.736</ele>
<time>2020-09-11T11:29:44Z</time>
</trkpt>
<trkpt lat="47.80051" lon="10.723978">
<ele>742.736</ele>
<time>2020-09-11T11:29:45Z</time>
</trkpt>
<trkpt lat="47.800457" lon="10.723933">
<ele>742.736</ele>
<time>2020-09-11T11:29:46Z</time>
</trkpt>
<trkpt lat="47.800404" lon="10.723891">
<ele>742.736</ele>
<time>2020-09-11T11:29:47Z</time>
</trkpt>
<trkpt lat="47.800346" lon="10.72385">
<ele>742.736</ele>
<time>2020-09-11T11:29:48Z</time>
</trkpt>
<trkpt lat="47.800293" lon="10.723812">
<ele>742.736</ele>
<time>2020-09-11T11:29:49Z</time>
</trkpt>
<trkpt lat="47.80024" lon="10.723772">
<ele>742.736</ele>
<time>2020-09-11T11:29:50Z</time>
</trkpt>
<trkpt lat="47.800182" lon="10.723737">
<ele>742.736</ele>
<time>2020-09-11T11:29:51Z</time>
</trkpt>
<trkpt lat="47.800125" lon="10.723701">
<ele>742.736</ele>
<time>2020-09-11T11:29:52Z</time>
</trkpt>
<trkpt lat="47.800072" lon="10.723663">
<ele>742.736</ele>
<time>2020-09-11T11:29:53Z</time>
</trkpt>
<trkpt lat="47.800014" lon="10.723627">
<ele>742.736</ele>
<time>2020-09-11T11:29:54Z</time>
</trkpt>
<trkpt lat="47.799957" lon="10.72359">
<ele>742.736</ele>
<time>2020-09-11T11:29:55Z</time>
</trkpt>
<trkpt lat="47.799904" lon="10.723555">
<ele>742.736</ele>
<time>2020-09-11T11:29:56Z</time>
</trkpt>
<trkpt lat="47.79985" lon="10.723516">
<ele>742.736</ele>
<time>2020-09-11T11:29:57Z</time>
</trkpt>
<trkpt lat="47.799793" lon="10.72348">
<ele>742.736</ele>
<time>2020-09-11T11:29:58Z</time>
</trkpt>
<trkpt lat="47.799736" lon="10.723443">
<ele>742.736</ele>
<time>2020-09-11T11:29:59Z</time>
</trkpt>
<trkpt lat="47.799683" lon="10.723408">
<ele>742.997</ele>
<time>2020-09-11T11:30:00Z</time>
</trkpt>
<trkpt lat="47.799629" lon="10.723373">
<ele>743.183</ele>
<time>2020-09-11T11:30:01Z</time>
</trkpt>
<trkpt lat="47.799576" lon="10.723336">
<ele>743.372</ele>
<time>2020-09-11T11:30:02Z</time>
</trkpt>
<trkpt lat="47.799522" lon="10.723303">
<ele>743.525</ele>
<time>2020-09-11T11:30:03Z</time>
</trkpt>
<trkpt lat="47.799465" lon="10.723269">
<ele>743.641</ele>
<time>2020-09-11T11:30:04Z</time>
</trkpt>
<trkpt lat="47.799412" lon="10.723235">
<ele>743.725</ele>
<time>2020-09-11T11:30:05Z</time>
</trkpt>
<trkpt lat="47.799358" lon="10.7232">
<ele>743.781</ele>
<time>2020-09-11T11:30:06Z</time>
</trkpt>
<trkpt lat="47.799305" lon="10.723165">
<ele>743.808</ele>
<time>2020-09-11T11:30:07Z</time>
</trkpt>
<trkpt lat="47.799248" lon="10.723131">
<ele>743.808</ele>
<time>2020-09-11T11:30:08Z</time>
</trkpt>
<trkpt lat="47.799198" lon="10.723097">
<ele>743.808</ele>
<time>2020-09-11T11:30:09Z</time>
</trkpt>
<trkpt lat="47.799141" lon="10.72306">
<ele>743.808</ele>
<time>2020-09-11T11:30:10Z</time>
</trkpt>
<trkpt lat="47.799091" lon="10.723023">
<ele>743.808</ele>
<time>2020-09-11T11:30:11Z</time>
</trkpt>
<trkpt lat="47.799038" lon="10.722986">
<ele>743.808</ele>
<time>2020-09-11T11:30:12Z</time>
</trkpt>
<trkpt lat="47.798981" lon="10.72295">
<ele>743.808</ele>
<time>2020-09-11T11:30:13Z</time>
</trkpt>
<trkpt lat="47.798927" lon="10.722915">
<ele>744.092</ele>
<time>2020-09-11T11:30:14Z</time>
</trkpt>
<trkpt lat="47.798878" lon="10.722879">
<ele>744.311</ele>
<time>2020-09-11T11:30:15Z</time>
</trkpt>
<trkpt lat="47.79882" lon="10.722846">
<ele>744.479</ele>
<time>2020-09-11T11:30:16Z</time>
</trkpt>
<trkpt lat="47.798767" lon="10.72281">
<ele>744.601</ele>
<time>2020-09-11T11:30:17Z</time>
</trkpt>
<trkpt lat="47.798714" lon="10.722774">
<ele>744.685</ele>
<time>2020-09-11T11:30:18Z</time>
</trkpt>
<trkpt lat="47.79866" lon="10.722737">
<ele>744.738</ele>
<time>2020-09-11T11:30:19Z</time>
</trkpt>
<trkpt lat="47.798607" lon="10.722702">
<ele>744.767</ele>
<time>2020-09-11T11:30:20Z</time>
</trkpt>
<trkpt lat="47.798553" lon="10.722666">
<ele>744.79</ele>
<time>2020-09-11T11:30:21Z</time>
</trkpt>
<trkpt lat="47.798496" lon="10.722631">
<ele>744.79</ele>
<time>2020-09-11T11:30:22Z</time>
</trkpt>
<trkpt lat="47.798443" lon="10.722593">
<ele>744.79</ele>
<time>2020-09-11T11:30:23Z</time>
</trkpt>
<trkpt lat="47.798389" lon="10.722557">
<ele>744.79</ele>
<time>2020-09-11T11:30:24Z</time>
</trkpt>
<trkpt lat="47.798336" lon="10.72252">
<ele>744.79</ele>
<time>2020-09-11T11:30:25Z</time>
</trkpt>
<trkpt lat="47.798279" lon="10.722486">
<ele>744.79</ele>
<time>2020-09-11T11:30:26Z</time>
</trkpt>
<trkpt lat="47.798225" lon="10.72245">
<ele>744.79</ele>
<time>2020-09-11T11:30:27Z</time>
</trkpt>
<trkpt lat="47.798168" lon="10.722419">
<ele>745.089</ele>
<time>2020-09-11T11:30:28Z</time>
</trkpt>
<trkpt lat="47.798115" lon="10.722385">
<ele>745.324</ele>
<time>2020-09-11T11:30:29Z</time>
</trkpt>
<trkpt lat="47.798061" lon="10.72235">
<ele>745.505</ele>
<time>2020-09-11T11:30:30Z</time>
</trkpt>
<trkpt lat="47.798" lon="10.722314">
<ele>745.627</ele>
<time>2020-09-11T11:30:31Z</time>
</trkpt>
<trkpt lat="47.797947" lon="10.722279">
<ele>745.763</ele>
<time>2020-09-11T11:30:32Z</time>
</trkpt>
<trkpt lat="47.797894" lon="10.72224">
<ele>745.86</ele>
<time>2020-09-11T11:30:33Z</time>
</trkpt>
<trkpt lat="47.797836" lon="10.722203">
<ele>745.921</ele>
<time>2020-09-11T11:30:34Z</time>
</trkpt>
<trkpt lat="47.797783" lon="10.722168">
<ele>745.951</ele>
<time>2020-09-11T11:30:35Z</time>
</trkpt>
<trkpt lat="47.797729" lon="10.722134">
<ele>745.951</ele>
<time>2020-09-11T11:30:36Z</time>
</trkpt>
<trkpt lat="47.797672" lon="10.7221">
<ele>745.951</ele>
<time>2020-09-11T11:30:37Z</time>
</trkpt>
<trkpt lat="47.797619" lon="10.722063">
<ele>745.951</ele>
<time>2020-09-11T11:30:38Z</time>
</trkpt>
<trkpt lat="47.797565" lon="10.722027">
<ele>745.951</ele>
<time>2020-09-11T11:30:39Z</time>
</trkpt>
<trkpt lat="47.797508" lon="10.72199">
<ele>745.951</ele>
<time>2020-09-11T11:30:40Z</time>
</trkpt>
<trkpt lat="47.797455" lon="10.721953">
<ele>745.951</ele>
<time>2020-09-11T11:30:41Z</time>
</trkpt>
<trkpt lat="47.797401" lon="10.721918">
<ele>745.951</ele>
<time>2020-09-11T11:30:42Z</time>
</trkpt>
<trkpt lat="47.797348" lon="10.721883">
<ele>745.951</ele>
<time>2020-09-11T11:30:43Z</time>
</trkpt>
<trkpt lat="47.797291" lon="10.721847">
<ele>745.951</ele>
<time>2020-09-11T11:30:44Z</time>
</trkpt>
<trkpt lat="47.797234" lon="10.721811">
<ele>745.951</ele>
<time>2020-09-11T11:30:45Z</time>
</trkpt>
<trkpt lat="47.797184" lon="10.721777">
<ele>745.951</ele>
<time>2020-09-11T11:30:46Z</time>
</trkpt>
<trkpt lat="47.797127" lon="10.72174">
<ele>745.951</ele>
<time>2020-09-11T11:30:47Z</time>
</trkpt>
<trkpt lat="47.797073" lon="10.721702">
<ele>745.951</ele>
<time>2020-09-11T11:30:48Z</time>
</trkpt>
<trkpt lat="47.79702" lon="10.721664">
<ele>745.951</ele>
<time>2020-09-11T11:30:49Z</time>
</trkpt>
<trkpt lat="47.796963" lon="10.721626">
<ele>745.951</ele>
<time>2020-09-11T11:30:50Z</time>
</trkpt>
<trkpt lat="47.796913" lon="10.721591">
<ele>745.951</ele>
<time>2020-09-11T11:30:51Z</time>
</trkpt>
<trkpt lat="47.79686" lon="10.721556">
<ele>745.951</ele>
<time>2020-09-11T11:30:52Z</time>
</trkpt>
<trkpt lat="47.79681" lon="10.721514">
<ele>745.951</ele>
<time>2020-09-11T11:30:53Z</time>
</trkpt>
<trkpt lat="47.796757" lon="10.721467">
<ele>745.951</ele>
<time>2020-09-11T11:30:54Z</time>
</trkpt>
<trkpt lat="47.796711" lon="10.721412">
<ele>745.951</ele>
<time>2020-09-11T11:30:55Z</time>
</trkpt>
<trkpt lat="47.796677" lon="10.721342">
<ele>745.951</ele>
<time>2020-09-11T11:30:56Z</time>
</trkpt>
<trkpt lat="47.796654" lon="10.721265">
<ele>745.951</ele>
<time>2020-09-11T11:30:57Z</time>
</trkpt>
<trkpt lat="47.796642" lon="10.721185">
<ele>745.951</ele>
<time>2020-09-11T11:30:58Z</time>
</trkpt>
<trkpt lat="47.796635" lon="10.721102">
<ele>745.951</ele>
<time>2020-09-11T11:30:59Z</time>
</trkpt>
<trkpt lat="47.796631" lon="10.721015">
<ele>745.951</ele>
<time>2020-09-11T11:31:00Z</time>
</trkpt>
<trkpt lat="47.796631" lon="10.720929">
<ele>745.951</ele>
<time>2020-09-11T11:31:01Z</time>
</trkpt>
<trkpt lat="47.796631" lon="10.720837">
<ele>745.951</ele>
<time>2020-09-11T11:31:02Z</time>
</trkpt>
<trkpt lat="47.796627" lon="10.720745">
<ele>745.951</ele>
<time>2020-09-11T11:31:03Z</time>
</trkpt>
<trkpt lat="47.796627" lon="10.720653">
<ele>745.951</ele>
<time>2020-09-11T11:31:04Z</time>
</trkpt>
<trkpt lat="47.796631" lon="10.720563">
<ele>745.951</ele>
<time>2020-09-11T11:31:05Z</time>
</trkpt>
<trkpt lat="47.796631" lon="10.720473">
<ele>745.951</ele>
<time>2020-09-11T11:31:06Z</time>
</trkpt>
<trkpt lat="47.796638" lon="10.720384">
<ele>745.951</ele>
<time>2020-09-11T11:31:07Z</time>
</trkpt>
<trkpt lat="47.796646" lon="10.720297">
<ele>745.951</ele>
<time>2020-09-11T11:31:08Z</time>
</trkpt>
<trkpt lat="47.796654" lon="10.720208">
<ele>745.951</ele>
<time>2020-09-11T11:31:09Z</time>
</trkpt>
<trkpt lat="47.796658" lon="10.72012">
<ele>745.951</ele>
<time>2020-09-11T11:31:10Z</time>
</trkpt>
<trkpt lat="47.796661" lon="10.720032">
<ele>745.951</ele>
<time>2020-09-11T11:31:11Z</time>
</trkpt>
<trkpt lat="47.796661" lon="10.719945">
<ele>745.951</ele>
<time>2020-09-11T11:31:12Z</time>
</trkpt>
<trkpt lat="47.796661" lon="10.719856">
<ele>745.658</ele>
<time>2020-09-11T11:31:13Z</time>
</trkpt>
<trkpt lat="47.796661" lon="10.719769">
<ele>745.431</ele>
<time>2020-09-11T11:31:14Z</time>
</trkpt>
<trkpt lat="47.796661" lon="10.719683">
<ele>745.259</ele>
<time>2020-09-11T11:31:15Z</time>
</trkpt>
<trkpt lat="47.796661" lon="10.719595">
<ele>745.133</ele>
<time>2020-09-11T11:31:16Z</time>
</trkpt>
<trkpt lat="47.796661" lon="10.719506">
<ele>745.047</ele>
<time>2020-09-11T11:31:17Z</time>
</trkpt>
<trkpt lat="47.796658" lon="10.719419">
<ele>744.993</ele>
<time>2020-09-11T11:31:18Z</time>
</trkpt>
<trkpt lat="47.796646" lon="10.719337">
<ele>744.969</ele>
<time>2020-09-11T11:31:19Z</time>
</trkpt>
<trkpt lat="47.796627" lon="10.719255">
<ele>744.969</ele>
<time>2020-09-11T11:31:20Z</time>
</trkpt>
<trkpt lat="47.796608" lon="10.719172">
<ele>744.969</ele>
<time>2020-09-11T11:31:21Z</time>
</trkpt>
<trkpt lat="47.796593" lon="10.719091">
<ele>744.969</ele>
<time>2020-09-11T11:31:22Z</time>
</trkpt>
<trkpt lat="47.796566" lon="10.719016">
<ele>744.969</ele>
<time>2020-09-11T11:31:23Z</time>
</trkpt>
<trkpt lat="47.796535" lon="10.718944">
<ele>744.969</ele>
<time>2020-09-11T11:31:24Z</time>
</trkpt>
<trkpt lat="47.796513" lon="10.718872">
<ele>744.969</ele>
<time>2020-09-11T11:31:25Z</time>
</trkpt>
<trkpt lat="47.796494" lon="10.718802">
<ele>744.969</ele>
<time>2020-09-11T11:31:26Z</time>
</trkpt>
<trkpt lat="47.796474" lon="10.71873">
<ele>744.969</ele>
<time>2020-09-11T11:31:27Z</time>
</trkpt>
<trkpt lat="47.796467" lon="10.718662">
<ele>744.969</ele>
<time>2020-09-11T11:31:28Z</time>
</trkpt>
<trkpt lat="47.796452" lon="10.718599">
<ele>744.969</ele>
<time>2020-09-11T11:31:29Z</time>
</trkpt>
<trkpt lat="47.79644" lon="10.718554">
<ele>744.969</ele>
<time>2020-09-11T11:31:30Z</time>
</trkpt>
<trkpt lat="47.796432" lon="10.718522">
<ele>744.891</ele>
<time>2020-09-11T11:31:31Z</time>
</trkpt>
<trkpt lat="47.796425" lon="10.718496">
<ele>744.826</ele>
<time>2020-09-11T11:31:32Z</time>
</trkpt>
<trkpt lat="47.796421" lon="10.71848">
<ele>744.77</ele>
<time>2020-09-11T11:31:33Z</time>
</trkpt>
<trkpt lat="47.796417" lon="10.718475">
<ele>744.724</ele>
<time>2020-09-11T11:31:34Z</time>
</trkpt>
<trkpt lat="47.796417" lon="10.718478">
<ele>744.686</ele>
<time>2020-09-11T11:31:35Z</time>
</trkpt>
<trkpt lat="47.796413" lon="10.718484">
<ele>744.653</ele>
<time>2020-09-11T11:31:36Z</time>
</trkpt>
<trkpt lat="47.796391" lon="10.718512">
<ele>744.628</ele>
<time>2020-09-11T11:31:42Z</time>
</trkpt>
<trkpt lat="47.796391" lon="10.718532">
<ele>744.612</ele>
<time>2020-09-11T11:31:43Z</time>
</trkpt>
<trkpt lat="47.796394" lon="10.718557">
<ele>744.612</ele>
<time>2020-09-11T11:31:44Z</time>
</trkpt>
<trkpt lat="47.796402" lon="10.718585">
<ele>744.612</ele>
<time>2020-09-11T11:31:45Z</time>
</trkpt>
<trkpt lat="47.796406" lon="10.71862">
<ele>744.611</ele>
<time>2020-09-11T11:31:46Z</time>
</trkpt>
<trkpt lat="47.796421" lon="10.71866">
<ele>744.612</ele>
<time>2020-09-11T11:31:47Z</time>
</trkpt>
<trkpt lat="47.796432" lon="10.718703">
<ele>744.612</ele>
<time>2020-09-11T11:31:48Z</time>
</trkpt>
<trkpt lat="47.796448" lon="10.718752">
<ele>744.612</ele>
<time>2020-09-11T11:31:49Z</time>
</trkpt>
<trkpt lat="47.796463" lon="10.718806">
<ele>744.612</ele>
<time>2020-09-11T11:31:50Z</time>
</trkpt>
<trkpt lat="47.796474" lon="10.71886">
<ele>744.612</ele>
<time>2020-09-11T11:31:51Z</time>
</trkpt>
<trkpt lat="47.796482" lon="10.718911">
<ele>744.612</ele>
<time>2020-09-11T11:31:52Z</time>
</trkpt>
<trkpt lat="47.796482" lon="10.718968">
<ele>744.612</ele>
<time>2020-09-11T11:31:53Z</time>
</trkpt>
<trkpt lat="47.796467" lon="10.719018">
<ele>744.611</ele>
<time>2020-09-11T11:31:54Z</time>
</trkpt>
<trkpt lat="47.796444" lon="10.719051">
<ele>744.612</ele>
<time>2020-09-11T11:31:55Z</time>
</trkpt>
<trkpt lat="47.796417" lon="10.719073">
<ele>744.612</ele>
<time>2020-09-11T11:31:56Z</time>
</trkpt>
<trkpt lat="47.796391" lon="10.71909">
<ele>744.612</ele>
<time>2020-09-11T11:31:57Z</time>
</trkpt>
<trkpt lat="47.796364" lon="10.719107">
<ele>744.612</ele>
<time>2020-09-11T11:31:58Z</time>
</trkpt>
<trkpt lat="47.796333" lon="10.719125">
<ele>744.612</ele>
<time>2020-09-11T11:31:59Z</time>
</trkpt>
<trkpt lat="47.796303" lon="10.719145">
<ele>744.612</ele>
<time>2020-09-11T11:32:00Z</time>
</trkpt>
<trkpt lat="47.796265" lon="10.719172">
<ele>744.612</ele>
<time>2020-09-11T11:32:01Z</time>
</trkpt>
<trkpt lat="47.79623" lon="10.7192">
<ele>744.612</ele>
<time>2020-09-11T11:32:02Z</time>
</trkpt>
<trkpt lat="47.796196" lon="10.719226">
<ele>744.612</ele>
<time>2020-09-11T11:32:03Z</time>
</trkpt>
<trkpt lat="47.796158" lon="10.719258">
<ele>744.612</ele>
<time>2020-09-11T11:32:04Z</time>
</trkpt>
<trkpt lat="47.79612" lon="10.719292">
<ele>744.612</ele>
<time>2020-09-11T11:32:05Z</time>
</trkpt>
<trkpt lat="47.796082" lon="10.71933">
<ele>744.612</ele>
<time>2020-09-11T11:32:06Z</time>
</trkpt>
<trkpt lat="47.796043" lon="10.719366">
<ele>744.612</ele>
<time>2020-09-11T11:32:07Z</time>
</trkpt>
<trkpt lat="47.796005" lon="10.719403">
<ele>744.612</ele>
<time>2020-09-11T11:32:08Z</time>
</trkpt>
<trkpt lat="47.795971" lon="10.71944">
<ele>744.612</ele>
<time>2020-09-11T11:32:09Z</time>
</trkpt>
<trkpt lat="47.795937" lon="10.719477">
<ele>744.612</ele>
<time>2020-09-11T11:32:10Z</time>
</trkpt>
<trkpt lat="47.795906" lon="10.719506">
<ele>744.612</ele>
<time>2020-09-11T11:32:11Z</time>
</trkpt>
<trkpt lat="47.795872" lon="10.719537">
<ele>744.612</ele>
<time>2020-09-11T11:32:12Z</time>
</trkpt>
<trkpt lat="47.795837" lon="10.719568">
<ele>744.612</ele>
<time>2020-09-11T11:32:13Z</time>
</trkpt>
<trkpt lat="47.795807" lon="10.719601">
<ele>744.847</ele>
<time>2020-09-11T11:32:14Z</time>
</trkpt>
<trkpt lat="47.795773" lon="10.719637">
<ele>745.039</ele>
<time>2020-09-11T11:32:15Z</time>
</trkpt>
<trkpt lat="47.795742" lon="10.719676">
<ele>745.175</ele>
<time>2020-09-11T11:32:16Z</time>
</trkpt>
<trkpt lat="47.795712" lon="10.719715">
<ele>745.323</ele>
<time>2020-09-11T11:32:17Z</time>
</trkpt>
<trkpt lat="47.795685" lon="10.719758">
<ele>745.437</ele>
<time>2020-09-11T11:32:18Z</time>
</trkpt>
<trkpt lat="47.79565" lon="10.719805">
<ele>745.52</ele>
<time>2020-09-11T11:32:19Z</time>
</trkpt>
<trkpt lat="47.79562" lon="10.719846">
<ele>745.57</ele>
<time>2020-09-11T11:32:20Z</time>
</trkpt>
<trkpt lat="47.795586" lon="10.719882">
<ele>745.594</ele>
<time>2020-09-11T11:32:21Z</time>
</trkpt>
<trkpt lat="47.795551" lon="10.719917">
<ele>745.594</ele>
<time>2020-09-11T11:32:22Z</time>
</trkpt>
<trkpt lat="47.795517" lon="10.719954">
<ele>745.594</ele>
<time>2020-09-11T11:32:23Z</time>
</trkpt>
<trkpt lat="47.795479" lon="10.719985">
<ele>745.594</ele>
<time>2020-09-11T11:32:24Z</time>
</trkpt>
<trkpt lat="47.795444" lon="10.720016">
<ele>745.594</ele>
<time>2020-09-11T11:32:25Z</time>
</trkpt>
<trkpt lat="47.795406" lon="10.720049">
<ele>745.852</ele>
<time>2020-09-11T11:32:26Z</time>
</trkpt>
<trkpt lat="47.795372" lon="10.720078">
<ele>746.092</ele>
<time>2020-09-11T11:32:27Z</time>
</trkpt>
<trkpt lat="47.795338" lon="10.720106">
<ele>746.295</ele>
<time>2020-09-11T11:32:28Z</time>
</trkpt>
<trkpt lat="47.795292" lon="10.720141">
<ele>746.455</ele>
<time>2020-09-11T11:32:29Z</time>
</trkpt>
<trkpt lat="47.795254" lon="10.720179">
<ele>746.579</ele>
<time>2020-09-11T11:32:30Z</time>
</trkpt>
<trkpt lat="47.795216" lon="10.720223">
<ele>746.67</ele>
<time>2020-09-11T11:32:31Z</time>
</trkpt>
<trkpt lat="47.795189" lon="10.720275">
<ele>746.728</ele>
<time>2020-09-11T11:32:32Z</time>
</trkpt>
<trkpt lat="47.795166" lon="10.720335">
<ele>746.755</ele>
<time>2020-09-11T11:32:33Z</time>
</trkpt>
<trkpt lat="47.795147" lon="10.72039">
<ele>746.755</ele>
<time>2020-09-11T11:32:34Z</time>
</trkpt>
<trkpt lat="47.795132" lon="10.720447">
<ele>746.755</ele>
<time>2020-09-11T11:32:35Z</time>
</trkpt>
<trkpt lat="47.795101" lon="10.720498">
<ele>746.755</ele>
<time>2020-09-11T11:32:36Z</time>
</trkpt>
<trkpt lat="47.795071" lon="10.72055">
<ele>746.755</ele>
<time>2020-09-11T11:32:37Z</time>
</trkpt>
<trkpt lat="47.79504" lon="10.720607">
<ele>746.755</ele>
<time>2020-09-11T11:32:38Z</time>
</trkpt>
<trkpt lat="47.79501" lon="10.720656">
<ele>746.755</ele>
<time>2020-09-11T11:32:39Z</time>
</trkpt>
<trkpt lat="47.794979" lon="10.7207">
<ele>746.755</ele>
<time>2020-09-11T11:32:40Z</time>
</trkpt>
<trkpt lat="47.794941" lon="10.720735">
<ele>746.755</ele>
<time>2020-09-11T11:32:41Z</time>
</trkpt>
<trkpt lat="47.794903" lon="10.720758">
<ele>746.755</ele>
<time>2020-09-11T11:32:42Z</time>
</trkpt>
<trkpt lat="47.794861" lon="10.720774">
<ele>747.004</ele>
<time>2020-09-11T11:32:43Z</time>
</trkpt>
<trkpt lat="47.794823" lon="10.720774">
<ele>747.199</ele>
<time>2020-09-11T11:32:44Z</time>
</trkpt>
<trkpt lat="47.794781" lon="10.72077">
<ele>747.349</ele>
<time>2020-09-11T11:32:45Z</time>
</trkpt>
<trkpt lat="47.794739" lon="10.720768">
<ele>747.454</ele>
<time>2020-09-11T11:32:46Z</time>
</trkpt>
<trkpt lat="47.794697" lon="10.720772">
<ele>747.573</ele>
<time>2020-09-11T11:32:47Z</time>
</trkpt>
<trkpt lat="47.794659" lon="10.720777">
<ele>747.657</ele>
<time>2020-09-11T11:32:48Z</time>
</trkpt>
<trkpt lat="47.794617" lon="10.720783">
<ele>747.711</ele>
<time>2020-09-11T11:32:49Z</time>
</trkpt>
<trkpt lat="47.794575" lon="10.720795">
<ele>747.737</ele>
<time>2020-09-11T11:32:50Z</time>
</trkpt>
<trkpt lat="47.794537" lon="10.720814">
<ele>747.738</ele>
<time>2020-09-11T11:32:51Z</time>
</trkpt>
<trkpt lat="47.79451" lon="10.72083">
<ele>747.737</ele>
<time>2020-09-11T11:32:52Z</time>
</trkpt>
<trkpt lat="47.794483" lon="10.72083">
<ele>747.737</ele>
<time>2020-09-11T11:32:53Z</time>
</trkpt>
<trkpt lat="47.794464" lon="10.720828">
<ele>747.979</ele>
<time>2020-09-11T11:32:54Z</time>
</trkpt>
<trkpt lat="47.794449" lon="10.720823">
<ele>748.168</ele>
<time>2020-09-11T11:32:55Z</time>
</trkpt>
<trkpt lat="47.794449" lon="10.720826">
<ele>748.316</ele>
<time>2020-09-11T11:32:56Z</time>
</trkpt>
<trkpt lat="47.794453" lon="10.72083">
<ele>748.449</ele>
<time>2020-09-11T11:32:57Z</time>
</trkpt>
<trkpt lat="47.79446" lon="10.720835">
<ele>748.567</ele>
<time>2020-09-11T11:32:58Z</time>
</trkpt>
<trkpt lat="47.794464" lon="10.720833">
<ele>748.667</ele>
<time>2020-09-11T11:33:11Z</time>
</trkpt>
<trkpt lat="47.794453" lon="10.720817">
<ele>748.792</ele>
<time>2020-09-11T11:33:12Z</time>
</trkpt>
<trkpt lat="47.794441" lon="10.720797">
<ele>748.879</ele>
<time>2020-09-11T11:33:13Z</time>
</trkpt>
<trkpt lat="47.794422" lon="10.720777">
<ele>748.923</ele>
<time>2020-09-11T11:33:14Z</time>
</trkpt>
<trkpt lat="47.794403" lon="10.720758">
<ele>748.955</ele>
<time>2020-09-11T11:33:15Z</time>
</trkpt>
<trkpt lat="47.794384" lon="10.720742">
<ele>748.975</ele>
<time>2020-09-11T11:33:16Z</time>
</trkpt>
<trkpt lat="47.794365" lon="10.720725">
<ele>748.982</ele>
<time>2020-09-11T11:33:17Z</time>
</trkpt>
<trkpt lat="47.794346" lon="10.720705">
<ele>748.985</ele>
<time>2020-09-11T11:33:18Z</time>
</trkpt>
<trkpt lat="47.794323" lon="10.720684">
<ele>748.988</ele>
<time>2020-09-11T11:33:19Z</time>
</trkpt>
<trkpt lat="47.794304" lon="10.720661">
<ele>748.988</ele>
<time>2020-09-11T11:33:20Z</time>
</trkpt>
<trkpt lat="47.794281" lon="10.720645">
<ele>748.988</ele>
<time>2020-09-11T11:33:21Z</time>
</trkpt>
<trkpt lat="47.79425" lon="10.720632">
<ele>748.988</ele>
<time>2020-09-11T11:33:22Z</time>
</trkpt>
<trkpt lat="47.794224" lon="10.720613">
<ele>748.988</ele>
<time>2020-09-11T11:33:23Z</time>
</trkpt>
<trkpt lat="47.794197" lon="10.720593">
<ele>748.988</ele>
<time>2020-09-11T11:33:24Z</time>
</trkpt>
<trkpt lat="47.794167" lon="10.720572">
<ele>748.988</ele>
<time>2020-09-11T11:33:25Z</time>
</trkpt>
<trkpt lat="47.79414" lon="10.720548">
<ele>748.988</ele>
<time>2020-09-11T11:33:26Z</time>
</trkpt>
<trkpt lat="47.794106" lon="10.720527">
<ele>748.988</ele>
<time>2020-09-11T11:33:27Z</time>
</trkpt>
<trkpt lat="47.794075" lon="10.720504">
<ele>748.988</ele>
<time>2020-09-11T11:33:28Z</time>
</trkpt>
<trkpt lat="47.794041" lon="10.72048">
<ele>748.988</ele>
<time>2020-09-11T11:33:29Z</time>
</trkpt>
<trkpt lat="47.794006" lon="10.720457">
<ele>748.988</ele>
<time>2020-09-11T11:33:30Z</time>
</trkpt>
<trkpt lat="47.793976" lon="10.720433">
<ele>748.988</ele>
<time>2020-09-11T11:33:31Z</time>
</trkpt>
<trkpt lat="47.793949" lon="10.720411">
<ele>748.988</ele>
<time>2020-09-11T11:33:32Z</time>
</trkpt>
<trkpt lat="47.793926" lon="10.720393">
<ele>748.988</ele>
<time>2020-09-11T11:33:33Z</time>
</trkpt>
<trkpt lat="47.793915" lon="10.720384">
<ele>748.988</ele>
<time>2020-09-11T11:33:34Z</time>
</trkpt>
<trkpt lat="47.793907" lon="10.720382">
<ele>748.988</ele>
<time>2020-09-11T11:33:35Z</time>
</trkpt>
<trkpt lat="47.793911" lon="10.720384">
<ele>748.814</ele>
<time>2020-09-11T11:33:36Z</time>
</trkpt>
<trkpt lat="47.793911" lon="10.720387">
<ele>748.674</ele>
<time>2020-09-11T11:33:37Z</time>
</trkpt>
<trkpt lat="47.793922" lon="10.720407">
<ele>748.553</ele>
<time>2020-09-11T11:33:40Z</time>
</trkpt>
<trkpt lat="47.793926" lon="10.720411">
<ele>748.43</ele>
<time>2020-09-11T11:33:41Z</time>
</trkpt>
<trkpt lat="47.793926" lon="10.720413">
<ele>748.321</ele>
<time>2020-09-11T11:33:42Z</time>
</trkpt>
<trkpt lat="47.79393" lon="10.720413">
<ele>748.221</ele>
<time>2020-09-11T11:33:43Z</time>
</trkpt>
<trkpt lat="47.79393" lon="10.720418">
<ele>748.141</ele>
<time>2020-09-11T11:33:44Z</time>
</trkpt>
<trkpt lat="47.793945" lon="10.72043">
<ele>748.095</ele>
<time>2020-09-11T11:33:45Z</time>
</trkpt>
<trkpt lat="47.793957" lon="10.72044">
<ele>748.095</ele>
<time>2020-09-11T11:33:46Z</time>
</trkpt>
<trkpt lat="47.79398" lon="10.720453">
<ele>748.095</ele>
<time>2020-09-11T11:33:47Z</time>
</trkpt>
<trkpt lat="47.794003" lon="10.72047">
<ele>748.095</ele>
<time>2020-09-11T11:33:48Z</time>
</trkpt>
<trkpt lat="47.794029" lon="10.72049">
<ele>748.095</ele>
<time>2020-09-11T11:33:49Z</time>
</trkpt>
<trkpt lat="47.794056" lon="10.720511">
<ele>748.095</ele>
<time>2020-09-11T11:33:50Z</time>
</trkpt>
<trkpt lat="47.794083" lon="10.720531">
<ele>748.095</ele>
<time>2020-09-11T11:33:51Z</time>
</trkpt>
<trkpt lat="47.794106" lon="10.720551">
<ele>748.095</ele>
<time>2020-09-11T11:33:52Z</time>
</trkpt>
<trkpt lat="47.794136" lon="10.720569">
<ele>748.095</ele>
<time>2020-09-11T11:33:53Z</time>
</trkpt>
<trkpt lat="47.794163" lon="10.720587">
<ele>748.095</ele>
<time>2020-09-11T11:33:54Z</time>
</trkpt>
<trkpt lat="47.794186" lon="10.720611">
<ele>748.095</ele>
<time>2020-09-11T11:33:55Z</time>
</trkpt>
<trkpt lat="47.794216" lon="10.720636">
<ele>748.095</ele>
<time>2020-09-11T11:33:56Z</time>
</trkpt>
<trkpt lat="47.794243" lon="10.720656">
<ele>748.095</ele>
<time>2020-09-11T11:33:57Z</time>
</trkpt>
<trkpt lat="47.79427" lon="10.720678">
<ele>748.095</ele>
<time>2020-09-11T11:33:58Z</time>
</trkpt>
<trkpt lat="47.7943" lon="10.7207">
<ele>748.095</ele>
<time>2020-09-11T11:33:59Z</time>
</trkpt>
<trkpt lat="47.794327" lon="10.720718">
<ele>748.094</ele>
<time>2020-09-11T11:34:00Z</time>
</trkpt>
<trkpt lat="47.794353" lon="10.720734">
<ele>748.095</ele>
<time>2020-09-11T11:34:01Z</time>
</trkpt>
<trkpt lat="47.79438" lon="10.720752">
<ele>748.095</ele>
<time>2020-09-11T11:34:02Z</time>
</trkpt>
<trkpt lat="47.794399" lon="10.720774">
<ele>748.095</ele>
<time>2020-09-11T11:34:03Z</time>
</trkpt>
<trkpt lat="47.794418" lon="10.720798">
<ele>748.094</ele>
<time>2020-09-11T11:34:04Z</time>
</trkpt>
<trkpt lat="47.794437" lon="10.720823">
<ele>748.095</ele>
<time>2020-09-11T11:34:05Z</time>
</trkpt>
<trkpt lat="47.794445" lon="10.720848">
<ele>748.095</ele>
<time>2020-09-11T11:34:06Z</time>
</trkpt>
<trkpt lat="47.794453" lon="10.720864">
<ele>748.095</ele>
<time>2020-09-11T11:34:07Z</time>
</trkpt>
<trkpt lat="47.794453" lon="10.720863">
<ele>748.095</ele>
<time>2020-09-11T11:34:08Z</time>
</trkpt>
<trkpt lat="47.794453" lon="10.72086">
<ele>748.095</ele>
<time>2020-09-11T11:34:09Z</time>
</trkpt>
<trkpt lat="47.794453" lon="10.720859">
<ele>748.095</ele>
<time>2020-09-11T11:34:10Z</time>
</trkpt>
<trkpt lat="47.794449" lon="10.720872">
<ele>748.095</ele>
<time>2020-09-11T11:34:31Z</time>
</trkpt>
<trkpt lat="47.794453" lon="10.72089">
<ele>748.095</ele>
<time>2020-09-11T11:34:32Z</time>
</trkpt>
<trkpt lat="47.794453" lon="10.72091">
<ele>748.095</ele>
<time>2020-09-11T11:34:33Z</time>
</trkpt>
<trkpt lat="47.794449" lon="10.720931">
<ele>748.095</ele>
<time>2020-09-11T11:34:34Z</time>
</trkpt>
<trkpt lat="47.794445" lon="10.720957">
<ele>748.095</ele>
<time>2020-09-11T11:34:35Z</time>
</trkpt>
<trkpt lat="47.794434" lon="10.720985">
<ele>748.435</ele>
<time>2020-09-11T11:34:36Z</time>
</trkpt>
<trkpt lat="47.794415" lon="10.721011">
<ele>748.625</ele>
<time>2020-09-11T11:34:37Z</time>
</trkpt>
<trkpt lat="47.794399" lon="10.721038">
<ele>748.742</ele>
<time>2020-09-11T11:34:38Z</time>
</trkpt>
<trkpt lat="47.79438" lon="10.721068">
<ele>748.823</ele>
<time>2020-09-11T11:34:39Z</time>
</trkpt>
<trkpt lat="47.794353" lon="10.721103">
<ele>748.873</ele>
<time>2020-09-11T11:34:40Z</time>
</trkpt>
<trkpt lat="47.794327" lon="10.721141">
<ele>748.937</ele>
<time>2020-09-11T11:34:41Z</time>
</trkpt>
<trkpt lat="47.794304" lon="10.721182">
<ele>748.973</ele>
<time>2020-09-11T11:34:42Z</time>
</trkpt>
<trkpt lat="47.794281" lon="10.721223">
<ele>748.988</ele>
<time>2020-09-11T11:34:43Z</time>
</trkpt>
<trkpt lat="47.794258" lon="10.721269">
<ele>748.988</ele>
<time>2020-09-11T11:34:44Z</time>
</trkpt>
<trkpt lat="47.794235" lon="10.721314">
<ele>748.988</ele>
<time>2020-09-11T11:34:45Z</time>
</trkpt>
<trkpt lat="47.794216" lon="10.721365">
<ele>748.988</ele>
<time>2020-09-11T11:34:46Z</time>
</trkpt>
<trkpt lat="47.794197" lon="10.721418">
<ele>748.988</ele>
<time>2020-09-11T11:34:47Z</time>
</trkpt>
<trkpt lat="47.794182" lon="10.721472">
<ele>748.988</ele>
<time>2020-09-11T11:34:48Z</time>
</trkpt>
<trkpt lat="47.794163" lon="10.721524">
<ele>748.988</ele>
<time>2020-09-11T11:34:49Z</time>
</trkpt>
<trkpt lat="47.794151" lon="10.721581">
<ele>748.988</ele>
<time>2020-09-11T11:34:50Z</time>
</trkpt>
<trkpt lat="47.794136" lon="10.721631">
<ele>748.988</ele>
<time>2020-09-11T11:34:51Z</time>
</trkpt>
<trkpt lat="47.794125" lon="10.721684">
<ele>748.988</ele>
<time>2020-09-11T11:34:52Z</time>
</trkpt>
<trkpt lat="47.794113" lon="10.721731">
<ele>748.988</ele>
<time>2020-09-11T11:34:53Z</time>
</trkpt>
<trkpt lat="47.794106" lon="10.721784">
<ele>748.988</ele>
<time>2020-09-11T11:34:54Z</time>
</trkpt>
<trkpt lat="47.794098" lon="10.721842">
<ele>748.988</ele>
<time>2020-09-11T11:34:55Z</time>
</trkpt>
<trkpt lat="47.794094" lon="10.721899">
<ele>748.988</ele>
<time>2020-09-11T11:34:56Z</time>
</trkpt>
<trkpt lat="47.794094" lon="10.721958">
<ele>748.988</ele>
<time>2020-09-11T11:34:57Z</time>
</trkpt>
<trkpt lat="47.79409" lon="10.722021">
<ele>748.988</ele>
<time>2020-09-11T11:34:58Z</time>
</trkpt>
<trkpt lat="47.79409" lon="10.722087">
<ele>748.988</ele>
<time>2020-09-11T11:34:59Z</time>
</trkpt>
<trkpt lat="47.79409" lon="10.722152">
<ele>748.988</ele>
<time>2020-09-11T11:35:00Z</time>
</trkpt>
<trkpt lat="47.794086" lon="10.722216">
<ele>748.988</ele>
<time>2020-09-11T11:35:01Z</time>
</trkpt>
<trkpt lat="47.794086" lon="10.722279">
<ele>748.988</ele>
<time>2020-09-11T11:35:02Z</time>
</trkpt>
<trkpt lat="47.794075" lon="10.722339">
<ele>748.988</ele>
<time>2020-09-11T11:35:03Z</time>
</trkpt>
<trkpt lat="47.794056" lon="10.722391">
<ele>748.988</ele>
<time>2020-09-11T11:35:04Z</time>
</trkpt>
<trkpt lat="47.794033" lon="10.722438">
<ele>748.988</ele>
<time>2020-09-11T11:35:05Z</time>
</trkpt>
<trkpt lat="47.794006" lon="10.722478">
<ele>748.988</ele>
<time>2020-09-11T11:35:06Z</time>
</trkpt>
<trkpt lat="47.793972" lon="10.72251">
<ele>748.988</ele>
<time>2020-09-11T11:35:07Z</time>
</trkpt>
<trkpt lat="47.793938" lon="10.722533">
<ele>748.988</ele>
<time>2020-09-11T11:35:08Z</time>
</trkpt>
<trkpt lat="47.793896" lon="10.722551">
<ele>748.988</ele>
<time>2020-09-11T11:35:09Z</time>
</trkpt>
<trkpt lat="47.793858" lon="10.722566">
<ele>748.988</ele>
<time>2020-09-11T11:35:10Z</time>
</trkpt>
<trkpt lat="47.793816" lon="10.722578">
<ele>748.988</ele>
<time>2020-09-11T11:35:11Z</time>
</trkpt>
<trkpt lat="47.793777" lon="10.722595">
<ele>748.988</ele>
<time>2020-09-11T11:35:12Z</time>
</trkpt>
<trkpt lat="47.793736" lon="10.722613">
<ele>749.329</ele>
<time>2020-09-11T11:35:13Z</time>
</trkpt>
<trkpt lat="47.793697" lon="10.722633">
<ele>749.59</ele>
<time>2020-09-11T11:35:14Z</time>
</trkpt>
<trkpt lat="47.793663" lon="10.722655">
<ele>749.791</ele>
<time>2020-09-11T11:35:15Z</time>
</trkpt>
<trkpt lat="47.793621" lon="10.72268">
<ele>749.929</ele>
<time>2020-09-11T11:35:16Z</time>
</trkpt>
<trkpt lat="47.793587" lon="10.722706">
<ele>750.026</ele>
<time>2020-09-11T11:35:17Z</time>
</trkpt>
<trkpt lat="47.793552" lon="10.722733">
<ele>750.093</ele>
<time>2020-09-11T11:35:18Z</time>
</trkpt>
<trkpt lat="47.793518" lon="10.722756">
<ele>750.117</ele>
<time>2020-09-11T11:35:19Z</time>
</trkpt>
<trkpt lat="47.793488" lon="10.722776">
<ele>750.384</ele>
<time>2020-09-11T11:35:20Z</time>
</trkpt>
<trkpt lat="47.793457" lon="10.722796">
<ele>750.602</ele>
<time>2020-09-11T11:35:21Z</time>
</trkpt>
<trkpt lat="47.79343" lon="10.722816">
<ele>750.783</ele>
<time>2020-09-11T11:35:22Z</time>
</trkpt>
<trkpt lat="47.793404" lon="10.72284">
<ele>750.909</ele>
<time>2020-09-11T11:35:23Z</time>
</trkpt>
<trkpt lat="47.793373" lon="10.72286">
<ele>751.257</ele>
<time>2020-09-11T11:35:24Z</time>
</trkpt>
<trkpt lat="47.793346" lon="10.722881">
<ele>751.547</ele>
<time>2020-09-11T11:35:25Z</time>
</trkpt>
<trkpt lat="47.793324" lon="10.722903">
<ele>751.747</ele>
<time>2020-09-11T11:35:26Z</time>
</trkpt>
<trkpt lat="47.793297" lon="10.722925">
<ele>752.156</ele>
<time>2020-09-11T11:35:27Z</time>
</trkpt>
<trkpt lat="47.79327" lon="10.722945">
<ele>752.5</ele>
<time>2020-09-11T11:35:28Z</time>
</trkpt>
<trkpt lat="47.793243" lon="10.722963">
<ele>752.689</ele>
<time>2020-09-11T11:35:29Z</time>
</trkpt>
<trkpt lat="47.793213" lon="10.722982">
<ele>753.103</ele>
<time>2020-09-11T11:35:30Z</time>
</trkpt>
<trkpt lat="47.793186" lon="10.723">
<ele>753.449</ele>
<time>2020-09-11T11:35:31Z</time>
</trkpt>
<trkpt lat="47.793159" lon="10.72302">
<ele>753.676</ele>
<time>2020-09-11T11:35:32Z</time>
</trkpt>
<trkpt lat="47.793129" lon="10.723039">
<ele>754.099</ele>
<time>2020-09-11T11:35:33Z</time>
</trkpt>
<trkpt lat="47.793102" lon="10.723055">
<ele>754.423</ele>
<time>2020-09-11T11:35:34Z</time>
</trkpt>
<trkpt lat="47.793072" lon="10.72307">
<ele>754.656</ele>
<time>2020-09-11T11:35:35Z</time>
</trkpt>
<trkpt lat="47.793045" lon="10.723083">
<ele>754.796</ele>
<time>2020-09-11T11:35:36Z</time>
</trkpt>
<trkpt lat="47.793018" lon="10.723093">
<ele>755.153</ele>
<time>2020-09-11T11:35:37Z</time>
</trkpt>
<trkpt lat="47.792999" lon="10.723102">
<ele>755.455</ele>
<time>2020-09-11T11:35:38Z</time>
</trkpt>
<trkpt lat="47.79298" lon="10.723108">
<ele>755.626</ele>
<time>2020-09-11T11:35:39Z</time>
</trkpt>
<trkpt lat="47.792973" lon="10.723114">
<ele>755.759</ele>
<time>2020-09-11T11:35:40Z</time>
</trkpt>
<trkpt lat="47.792957" lon="10.723121">
<ele>755.865</ele>
<time>2020-09-11T11:35:41Z</time>
</trkpt>
<trkpt lat="47.79295" lon="10.723125">
<ele>755.951</ele>
<time>2020-09-11T11:35:42Z</time>
</trkpt>
<trkpt lat="47.79295" lon="10.723126">
<ele>756.012</ele>
<time>2020-09-11T11:35:43Z</time>
</trkpt>
<trkpt lat="47.79295" lon="10.72313">
<ele>756.048</ele>
<time>2020-09-11T11:35:44Z</time>
</trkpt>
<trkpt lat="47.792953" lon="10.72313">
<ele>756.048</ele>
<time>2020-09-11T11:35:45Z</time>
</trkpt>
<trkpt lat="47.792946" lon="10.72313">
<ele>756.048</ele>
<time>2020-09-11T11:36:27Z</time>
</trkpt>
<trkpt lat="47.792931" lon="10.723137">
<ele>756.01</ele>
<time>2020-09-11T11:36:28Z</time>
</trkpt>
<trkpt lat="47.792915" lon="10.723148">
<ele>755.97</ele>
<time>2020-09-11T11:36:29Z</time>
</trkpt>
<trkpt lat="47.7929" lon="10.723168">
<ele>755.93</ele>
<time>2020-09-11T11:36:30Z</time>
</trkpt>
<trkpt lat="47.792881" lon="10.72319">
<ele>755.901</ele>
<time>2020-09-11T11:36:31Z</time>
</trkpt>
<trkpt lat="47.792854" lon="10.723219">
<ele>755.875</ele>
<time>2020-09-11T11:36:32Z</time>
</trkpt>
<trkpt lat="47.792835" lon="10.723242">
<ele>755.872</ele>
<time>2020-09-11T11:36:33Z</time>
</trkpt>
<trkpt lat="47.792812" lon="10.723269">
<ele>755.87</ele>
<time>2020-09-11T11:36:34Z</time>
</trkpt>
<trkpt lat="47.792786" lon="10.723296">
<ele>755.869</ele>
<time>2020-09-11T11:36:35Z</time>
</trkpt>
<trkpt lat="47.792767" lon="10.723326">
<ele>756.142</ele>
<time>2020-09-11T11:36:36Z</time>
</trkpt>
<trkpt lat="47.792747" lon="10.723349">
<ele>756.327</ele>
<time>2020-09-11T11:36:37Z</time>
</trkpt>
<trkpt lat="47.792725" lon="10.72337">
<ele>756.458</ele>
<time>2020-09-11T11:36:38Z</time>
</trkpt>
<trkpt lat="47.792713" lon="10.723392">
<ele>756.557</ele>
<time>2020-09-11T11:36:39Z</time>
</trkpt>
<trkpt lat="47.792694" lon="10.723413">
<ele>756.625</ele>
<time>2020-09-11T11:36:40Z</time>
</trkpt>
<trkpt lat="47.792679" lon="10.723438">
<ele>756.686</ele>
<time>2020-09-11T11:36:41Z</time>
</trkpt>
<trkpt lat="47.792652" lon="10.723456">
<ele>756.736</ele>
<time>2020-09-11T11:36:42Z</time>
</trkpt>
<trkpt lat="47.792633" lon="10.723476">
<ele>756.764</ele>
<time>2020-09-11T11:36:43Z</time>
</trkpt>
<trkpt lat="47.79261" lon="10.723498">
<ele>756.764</ele>
<time>2020-09-11T11:36:44Z</time>
</trkpt>
<trkpt lat="47.792587" lon="10.723523">
<ele>756.764</ele>
<time>2020-09-11T11:36:45Z</time>
</trkpt>
<trkpt lat="47.792568" lon="10.723548">
<ele>756.764</ele>
<time>2020-09-11T11:36:46Z</time>
</trkpt>
<trkpt lat="47.792553" lon="10.723572">
<ele>757.057</ele>
<time>2020-09-11T11:36:47Z</time>
</trkpt>
<trkpt lat="47.79253" lon="10.723595">
<ele>757.272</ele>
<time>2020-09-11T11:36:48Z</time>
</trkpt>
<trkpt lat="47.792511" lon="10.723619">
<ele>757.437</ele>
<time>2020-09-11T11:36:49Z</time>
</trkpt>
<trkpt lat="47.792492" lon="10.723644">
<ele>757.569</ele>
<time>2020-09-11T11:36:50Z</time>
</trkpt>
<trkpt lat="47.792473" lon="10.72367">
<ele>757.656</ele>
<time>2020-09-11T11:36:51Z</time>
</trkpt>
<trkpt lat="47.792454" lon="10.723695">
<ele>757.746</ele>
<time>2020-09-11T11:36:52Z</time>
</trkpt>
<trkpt lat="47.792431" lon="10.72372">
<ele>757.808</ele>
<time>2020-09-11T11:36:53Z</time>
</trkpt>
<trkpt lat="47.792412" lon="10.723743">
<ele>757.837</ele>
<time>2020-09-11T11:36:54Z</time>
</trkpt>
<trkpt lat="47.792393" lon="10.723768">
<ele>757.837</ele>
<time>2020-09-11T11:36:55Z</time>
</trkpt>
<trkpt lat="47.792374" lon="10.723793">
<ele>757.837</ele>
<time>2020-09-11T11:36:56Z</time>
</trkpt>
<trkpt lat="47.792358" lon="10.723815">
<ele>757.837</ele>
<time>2020-09-11T11:36:57Z</time>
</trkpt>
<trkpt lat="47.792343" lon="10.723837">
<ele>757.837</ele>
<time>2020-09-11T11:36:58Z</time>
</trkpt>
<trkpt lat="47.792324" lon="10.72386">
<ele>758.074</ele>
<time>2020-09-11T11:36:59Z</time>
</trkpt>
<trkpt lat="47.792301" lon="10.723882">
<ele>758.263</ele>
<time>2020-09-11T11:37:00Z</time>
</trkpt>
<trkpt lat="47.792286" lon="10.723905">
<ele>758.396</ele>
<time>2020-09-11T11:37:01Z</time>
</trkpt>
<trkpt lat="47.792263" lon="10.723929">
<ele>758.545</ele>
<time>2020-09-11T11:37:02Z</time>
</trkpt>
<trkpt lat="47.792244" lon="10.723953">
<ele>758.662</ele>
<time>2020-09-11T11:37:03Z</time>
</trkpt>
<trkpt lat="47.792221" lon="10.723977">
<ele>758.744</ele>
<time>2020-09-11T11:37:04Z</time>
</trkpt>
<trkpt lat="47.792194" lon="10.724002">
<ele>758.797</ele>
<time>2020-09-11T11:37:05Z</time>
</trkpt>
<trkpt lat="47.792171" lon="10.724027">
<ele>758.82</ele>
<time>2020-09-11T11:37:06Z</time>
</trkpt>
<trkpt lat="47.792152" lon="10.724051">
<ele>758.82</ele>
<time>2020-09-11T11:37:07Z</time>
</trkpt>
<trkpt lat="47.79213" lon="10.724075">
<ele>758.82</ele>
<time>2020-09-11T11:37:08Z</time>
</trkpt>
<trkpt lat="47.792107" lon="10.724097">
<ele>758.82</ele>
<time>2020-09-11T11:37:09Z</time>
</trkpt>
<trkpt lat="47.792088" lon="10.724118">
<ele>758.82</ele>
<time>2020-09-11T11:37:10Z</time>
</trkpt>
<trkpt lat="47.792068" lon="10.724143">
<ele>758.82</ele>
<time>2020-09-11T11:37:11Z</time>
</trkpt>
<trkpt lat="47.792049" lon="10.724168">
<ele>758.82</ele>
<time>2020-09-11T11:37:12Z</time>
</trkpt>
<trkpt lat="47.79203" lon="10.724195">
<ele>758.82</ele>
<time>2020-09-11T11:37:13Z</time>
</trkpt>
<trkpt lat="47.792007" lon="10.72422">
<ele>758.82</ele>
<time>2020-09-11T11:37:14Z</time>
</trkpt>
<trkpt lat="47.791992" lon="10.724248">
<ele>758.82</ele>
<time>2020-09-11T11:37:15Z</time>
</trkpt>
<trkpt lat="47.791973" lon="10.724273">
<ele>758.82</ele>
<time>2020-09-11T11:37:16Z</time>
</trkpt>
<trkpt lat="47.791958" lon="10.724302">
<ele>758.82</ele>
<time>2020-09-11T11:37:17Z</time>
</trkpt>
<trkpt lat="47.791935" lon="10.724332">
<ele>758.82</ele>
<time>2020-09-11T11:37:18Z</time>
</trkpt>
<trkpt lat="47.79192" lon="10.724361">
<ele>758.82</ele>
<time>2020-09-11T11:37:19Z</time>
</trkpt>
<trkpt lat="47.791901" lon="10.724392">
<ele>758.82</ele>
<time>2020-09-11T11:37:20Z</time>
</trkpt>
<trkpt lat="47.791882" lon="10.724418">
<ele>759.041</ele>
<time>2020-09-11T11:37:21Z</time>
</trkpt>
<trkpt lat="47.791866" lon="10.724442">
<ele>759.246</ele>
<time>2020-09-11T11:37:22Z</time>
</trkpt>
<trkpt lat="47.791855" lon="10.724466">
<ele>759.413</ele>
<time>2020-09-11T11:37:23Z</time>
</trkpt>
<trkpt lat="47.79184" lon="10.724486">
<ele>759.547</ele>
<time>2020-09-11T11:37:24Z</time>
</trkpt>
<trkpt lat="47.791836" lon="10.724502">
<ele>759.647</ele>
<time>2020-09-11T11:37:25Z</time>
</trkpt>
<trkpt lat="47.791832" lon="10.724507">
<ele>759.72</ele>
<time>2020-09-11T11:37:26Z</time>
</trkpt>
<trkpt lat="47.791828" lon="10.724508">
<ele>759.775</ele>
<time>2020-09-11T11:37:28Z</time>
</trkpt>
<trkpt lat="47.791821" lon="10.724522">
<ele>759.743</ele>
<time>2020-09-11T11:39:05Z</time>
</trkpt>
<trkpt lat="47.791809" lon="10.724539">
<ele>759.731</ele>
<time>2020-09-11T11:39:06Z</time>
</trkpt>
<trkpt lat="47.791798" lon="10.72456">
<ele>759.663</ele>
<time>2020-09-11T11:39:07Z</time>
</trkpt>
<trkpt lat="47.791782" lon="10.724585">
<ele>759.614</ele>
<time>2020-09-11T11:39:08Z</time>
</trkpt>
<trkpt lat="47.791759" lon="10.724613">
<ele>759.549</ele>
<time>2020-09-11T11:39:09Z</time>
</trkpt>
<trkpt lat="47.791725" lon="10.724646">
<ele>759.133</ele>
<time>2020-09-11T11:39:10Z</time>
</trkpt>
<trkpt lat="47.791679" lon="10.724682">
<ele>758.896</ele>
<time>2020-09-11T11:39:11Z</time>
</trkpt>
<trkpt lat="47.791634" lon="10.724728">
<ele>758.367</ele>
<time>2020-09-11T11:39:12Z</time>
</trkpt>
<trkpt lat="47.79158" lon="10.724789">
<ele>758.172</ele>
<time>2020-09-11T11:39:13Z</time>
</trkpt>
<trkpt lat="47.791546" lon="10.724854">
<ele>757.476</ele>
<time>2020-09-11T11:39:14Z</time>
</trkpt>
<trkpt lat="47.791527" lon="10.724912">
<ele>757.458</ele>
<time>2020-09-11T11:39:15Z</time>
</trkpt>
<trkpt lat="47.791512" lon="10.724965">
<ele>757.444</ele>
<time>2020-09-11T11:39:16Z</time>
</trkpt>
<trkpt lat="47.791489" lon="10.72501">
<ele>757.442</ele>
<time>2020-09-11T11:39:17Z</time>
</trkpt>
<trkpt lat="47.79147" lon="10.725045">
<ele>757.416</ele>
<time>2020-09-11T11:39:18Z</time>
</trkpt>
<trkpt lat="47.791447" lon="10.725073">
<ele>757.643</ele>
<time>2020-09-11T11:39:19Z</time>
</trkpt>
<trkpt lat="47.791416" lon="10.725099">
<ele>757.839</ele>
<time>2020-09-11T11:39:20Z</time>
</trkpt>
<trkpt lat="47.791393" lon="10.725115">
<ele>758.009</ele>
<time>2020-09-11T11:39:21Z</time>
</trkpt>
<trkpt lat="47.791378" lon="10.725121">
<ele>758.16</ele>
<time>2020-09-11T11:39:22Z</time>
</trkpt>
<trkpt lat="47.791351" lon="10.725121">
<ele>758.306</ele>
<time>2020-09-11T11:39:23Z</time>
</trkpt>
<trkpt lat="47.791332" lon="10.725106">
<ele>758.384</ele>
<time>2020-09-11T11:39:24Z</time>
</trkpt>
<trkpt lat="47.791317" lon="10.725081">
<ele>758.437</ele>
<time>2020-09-11T11:39:25Z</time>
</trkpt>
<trkpt lat="47.791306" lon="10.72505">
<ele>758.463</ele>
<time>2020-09-11T11:39:26Z</time>
</trkpt>
<trkpt lat="47.791294" lon="10.72502">
<ele>758.463</ele>
<time>2020-09-11T11:39:27Z</time>
</trkpt>
<trkpt lat="47.791283" lon="10.724994">
<ele>758.463</ele>
<time>2020-09-11T11:39:28Z</time>
</trkpt>
<trkpt lat="47.791271" lon="10.72497">
<ele>758.463</ele>
<time>2020-09-11T11:39:29Z</time>
</trkpt>
<trkpt lat="47.79126" lon="10.724954">
<ele>758.463</ele>
<time>2020-09-11T11:39:30Z</time>
</trkpt>
<trkpt lat="47.79126" lon="10.724952">
<ele>758.463</ele>
<time>2020-09-11T11:39:31Z</time>
</trkpt>
<trkpt lat="47.791264" lon="10.72495">
<ele>758.463</ele>
<time>2020-09-11T11:39:33Z</time>
</trkpt>
<trkpt lat="47.791252" lon="10.724939">
<ele>758.463</ele>
<time>2020-09-11T11:39:55Z</time>
</trkpt>
<trkpt lat="47.791241" lon="10.724933">
<ele>758.501</ele>
<time>2020-09-11T11:39:56Z</time>
</trkpt>
<trkpt lat="47.791218" lon="10.724929">
<ele>758.536</ele>
<time>2020-09-11T11:39:57Z</time>
</trkpt>
<trkpt lat="47.791199" lon="10.724932">
<ele>758.568</ele>
<time>2020-09-11T11:39:58Z</time>
</trkpt>
<trkpt lat="47.791176" lon="10.724945">
<ele>758.597</ele>
<time>2020-09-11T11:39:59Z</time>
</trkpt>
<trkpt lat="47.791153" lon="10.724967">
<ele>758.619</ele>
<time>2020-09-11T11:40:00Z</time>
</trkpt>
<trkpt lat="47.79113" lon="10.724996">
<ele>758.639</ele>
<time>2020-09-11T11:40:01Z</time>
</trkpt>
<trkpt lat="47.791115" lon="10.725029">
<ele>758.926</ele>
<time>2020-09-11T11:40:02Z</time>
</trkpt>
<trkpt lat="47.791096" lon="10.725065">
<ele>759.098</ele>
<time>2020-09-11T11:40:03Z</time>
</trkpt>
<trkpt lat="47.79108" lon="10.725102">
<ele>759.316</ele>
<time>2020-09-11T11:40:04Z</time>
</trkpt>
<trkpt lat="47.791061" lon="10.725142">
<ele>759.405</ele>
<time>2020-09-11T11:40:05Z</time>
</trkpt>
<trkpt lat="47.791042" lon="10.725182">
<ele>759.476</ele>
<time>2020-09-11T11:40:06Z</time>
</trkpt>
<trkpt lat="47.791023" lon="10.725224">
<ele>759.516</ele>
<time>2020-09-11T11:40:07Z</time>
</trkpt>
<trkpt lat="47.791008" lon="10.725266">
<ele>759.529</ele>
<time>2020-09-11T11:40:08Z</time>
</trkpt>
<trkpt lat="47.790989" lon="10.725308">
<ele>759.536</ele>
<time>2020-09-11T11:40:09Z</time>
</trkpt>
<trkpt lat="47.79097" lon="10.725351">
<ele>759.536</ele>
<time>2020-09-11T11:40:10Z</time>
</trkpt>
<trkpt lat="47.790955" lon="10.725396">
<ele>759.536</ele>
<time>2020-09-11T11:40:11Z</time>
</trkpt>
<trkpt lat="47.790936" lon="10.725442">
<ele>759.536</ele>
<time>2020-09-11T11:40:12Z</time>
</trkpt>
<trkpt lat="47.79092" lon="10.725489">
<ele>759.536</ele>
<time>2020-09-11T11:40:13Z</time>
</trkpt>
<trkpt lat="47.790897" lon="10.725533">
<ele>759.817</ele>
<time>2020-09-11T11:40:14Z</time>
</trkpt>
<trkpt lat="47.790882" lon="10.72558">
<ele>760.033</ele>
<time>2020-09-11T11:40:15Z</time>
</trkpt>
<trkpt lat="47.790863" lon="10.725628">
<ele>760.192</ele>
<time>2020-09-11T11:40:16Z</time>
</trkpt>
<trkpt lat="47.790844" lon="10.725678">
<ele>760.312</ele>
<time>2020-09-11T11:40:17Z</time>
</trkpt>
<trkpt lat="47.790825" lon="10.725727">
<ele>760.394</ele>
<time>2020-09-11T11:40:18Z</time>
</trkpt>
<trkpt lat="47.79081" lon="10.725775">
<ele>760.452</ele>
<time>2020-09-11T11:40:19Z</time>
</trkpt>
<trkpt lat="47.790794" lon="10.725827">
<ele>760.493</ele>
<time>2020-09-11T11:40:20Z</time>
</trkpt>
<trkpt lat="47.790771" lon="10.725877">
<ele>760.519</ele>
<time>2020-09-11T11:40:21Z</time>
</trkpt>
<trkpt lat="47.790752" lon="10.725928">
<ele>760.519</ele>
<time>2020-09-11T11:40:22Z</time>
</trkpt>
<trkpt lat="47.79073" lon="10.725982">
<ele>760.519</ele>
<time>2020-09-11T11:40:23Z</time>
</trkpt>
<trkpt lat="47.79071" lon="10.726035">
<ele>760.519</ele>
<time>2020-09-11T11:40:24Z</time>
</trkpt>
<trkpt lat="47.790691" lon="10.726089">
<ele>760.519</ele>
<time>2020-09-11T11:40:25Z</time>
</trkpt>
<trkpt lat="47.790672" lon="10.726146">
<ele>760.784</ele>
<time>2020-09-11T11:40:26Z</time>
</trkpt>
<trkpt lat="47.790653" lon="10.7262">
<ele>760.989</ele>
<time>2020-09-11T11:40:27Z</time>
</trkpt>
<trkpt lat="47.79063" lon="10.726254">
<ele>761.144</ele>
<time>2020-09-11T11:40:28Z</time>
</trkpt>
<trkpt lat="47.790611" lon="10.726312">
<ele>761.263</ele>
<time>2020-09-11T11:40:29Z</time>
</trkpt>
<trkpt lat="47.790592" lon="10.726366">
<ele>761.342</ele>
<time>2020-09-11T11:40:30Z</time>
</trkpt>
<trkpt lat="47.790565" lon="10.72642">
<ele>761.424</ele>
<time>2020-09-11T11:40:31Z</time>
</trkpt>
<trkpt lat="47.790546" lon="10.726477">
<ele>761.476</ele>
<time>2020-09-11T11:40:32Z</time>
</trkpt>
<trkpt lat="47.790531" lon="10.726533">
<ele>761.721</ele>
<time>2020-09-11T11:40:33Z</time>
</trkpt>
<trkpt lat="47.790508" lon="10.72659">
<ele>761.962</ele>
<time>2020-09-11T11:40:34Z</time>
</trkpt>
<trkpt lat="47.790493" lon="10.726648">
<ele>762.113</ele>
<time>2020-09-11T11:40:35Z</time>
</trkpt>
<trkpt lat="47.790474" lon="10.726704">
<ele>762.225</ele>
<time>2020-09-11T11:40:36Z</time>
</trkpt>
<trkpt lat="47.790451" lon="10.72676">
<ele>762.306</ele>
<time>2020-09-11T11:40:37Z</time>
</trkpt>
<trkpt lat="47.790432" lon="10.726816">
<ele>762.347</ele>
<time>2020-09-11T11:40:38Z</time>
</trkpt>
<trkpt lat="47.790409" lon="10.726873">
<ele>762.614</ele>
<time>2020-09-11T11:40:39Z</time>
</trkpt>
<trkpt lat="47.790398" lon="10.726932">
<ele>762.808</ele>
<time>2020-09-11T11:40:40Z</time>
</trkpt>
<trkpt lat="47.790375" lon="10.726986">
<ele>762.984</ele>
<time>2020-09-11T11:40:41Z</time>
</trkpt>
<trkpt lat="47.790356" lon="10.727042">
<ele>763.123</ele>
<time>2020-09-11T11:40:42Z</time>
</trkpt>
<trkpt lat="47.790337" lon="10.727097">
<ele>763.231</ele>
<time>2020-09-11T11:40:43Z</time>
</trkpt>
<trkpt lat="47.790314" lon="10.727152">
<ele>763.309</ele>
<time>2020-09-11T11:40:44Z</time>
</trkpt>
<trkpt lat="47.790295" lon="10.72721">
<ele>763.357</ele>
<time>2020-09-11T11:40:45Z</time>
</trkpt>
<trkpt lat="47.790272" lon="10.727268">
<ele>763.382</ele>
<time>2020-09-11T11:40:46Z</time>
</trkpt>
<trkpt lat="47.790257" lon="10.727325">
<ele>763.382</ele>
<time>2020-09-11T11:40:47Z</time>
</trkpt>
<trkpt lat="47.790237" lon="10.727382">
<ele>763.382</ele>
<time>2020-09-11T11:40:48Z</time>
</trkpt>
<trkpt lat="47.790215" lon="10.727438">
<ele>763.382</ele>
<time>2020-09-11T11:40:49Z</time>
</trkpt>
<trkpt lat="47.790199" lon="10.727497">
<ele>763.382</ele>
<time>2020-09-11T11:40:50Z</time>
</trkpt>
<trkpt lat="47.79018" lon="10.727553">
<ele>763.382</ele>
<time>2020-09-11T11:40:51Z</time>
</trkpt>
<trkpt lat="47.790161" lon="10.727609">
<ele>763.674</ele>
<time>2020-09-11T11:40:52Z</time>
</trkpt>
<trkpt lat="47.790142" lon="10.727665">
<ele>763.899</ele>
<time>2020-09-11T11:40:53Z</time>
</trkpt>
<trkpt lat="47.790123" lon="10.727719">
<ele>764.075</ele>
<time>2020-09-11T11:40:54Z</time>
</trkpt>
<trkpt lat="47.790104" lon="10.727777">
<ele>764.201</ele>
<time>2020-09-11T11:40:55Z</time>
</trkpt>
<trkpt lat="47.790081" lon="10.727833">
<ele>764.287</ele>
<time>2020-09-11T11:40:56Z</time>
</trkpt>
<trkpt lat="47.790066" lon="10.72789">
<ele>764.337</ele>
<time>2020-09-11T11:40:57Z</time>
</trkpt>
<trkpt lat="47.790043" lon="10.727948">
<ele>764.59</ele>
<time>2020-09-11T11:40:58Z</time>
</trkpt>
<trkpt lat="47.790028" lon="10.728006">
<ele>764.768</ele>
<time>2020-09-11T11:40:59Z</time>
</trkpt>
<trkpt lat="47.790009" lon="10.728065">
<ele>764.889</ele>
<time>2020-09-11T11:41:00Z</time>
</trkpt>
<trkpt lat="47.789986" lon="10.728124">
<ele>765.02</ele>
<time>2020-09-11T11:41:01Z</time>
</trkpt>
<trkpt lat="47.789967" lon="10.728183">
<ele>765.122</ele>
<time>2020-09-11T11:41:02Z</time>
</trkpt>
<trkpt lat="47.789948" lon="10.728243">
<ele>765.193</ele>
<time>2020-09-11T11:41:03Z</time>
</trkpt>
<trkpt lat="47.789928" lon="10.728304">
<ele>765.239</ele>
<time>2020-09-11T11:41:04Z</time>
</trkpt>
<trkpt lat="47.789913" lon="10.72836">
<ele>765.261</ele>
<time>2020-09-11T11:41:05Z</time>
</trkpt>
<trkpt lat="47.789894" lon="10.728418">
<ele>765.261</ele>
<time>2020-09-11T11:41:06Z</time>
</trkpt>
<trkpt lat="47.789875" lon="10.728476">
<ele>765.261</ele>
<time>2020-09-11T11:41:07Z</time>
</trkpt>
<trkpt lat="47.789852" lon="10.728532">
<ele>765.504</ele>
<time>2020-09-11T11:41:08Z</time>
</trkpt>
<trkpt lat="47.789833" lon="10.728587">
<ele>765.698</ele>
<time>2020-09-11T11:41:09Z</time>
</trkpt>
<trkpt lat="47.789818" lon="10.728645">
<ele>765.832</ele>
<time>2020-09-11T11:41:10Z</time>
</trkpt>
<trkpt lat="47.789795" lon="10.728702">
<ele>765.977</ele>
<time>2020-09-11T11:41:11Z</time>
</trkpt>
<trkpt lat="47.78978" lon="10.728761">
<ele>766.089</ele>
<time>2020-09-11T11:41:12Z</time>
</trkpt>
<trkpt lat="47.789757" lon="10.728819">
<ele>766.17</ele>
<time>2020-09-11T11:41:13Z</time>
</trkpt>
<trkpt lat="47.789738" lon="10.728875">
<ele>766.22</ele>
<time>2020-09-11T11:41:14Z</time>
</trkpt>
<trkpt lat="47.789719" lon="10.728933">
<ele>766.245</ele>
<time>2020-09-11T11:41:15Z</time>
</trkpt>
<trkpt lat="47.789707" lon="10.72899">
<ele>766.245</ele>
<time>2020-09-11T11:41:16Z</time>
</trkpt>
<trkpt lat="47.789684" lon="10.72905">
<ele>766.245</ele>
<time>2020-09-11T11:41:17Z</time>
</trkpt>
<trkpt lat="47.789669" lon="10.72911">
<ele>766.245</ele>
<time>2020-09-11T11:41:18Z</time>
</trkpt>
<trkpt lat="47.789654" lon="10.729169">
<ele>766.507</ele>
<time>2020-09-11T11:41:19Z</time>
</trkpt>
<trkpt lat="47.789639" lon="10.729228">
<ele>766.693</ele>
<time>2020-09-11T11:41:20Z</time>
</trkpt>
<trkpt lat="47.789619" lon="10.729288">
<ele>766.884</ele>
<time>2020-09-11T11:41:21Z</time>
</trkpt>
<trkpt lat="47.7896" lon="10.729348">
<ele>767.038</ele>
<time>2020-09-11T11:41:22Z</time>
</trkpt>
<trkpt lat="47.789585" lon="10.729406">
<ele>767.156</ele>
<time>2020-09-11T11:41:23Z</time>
</trkpt>
<trkpt lat="47.789566" lon="10.729466">
<ele>767.241</ele>
<time>2020-09-11T11:41:24Z</time>
</trkpt>
<trkpt lat="47.789551" lon="10.729527">
<ele>767.293</ele>
<time>2020-09-11T11:41:25Z</time>
</trkpt>
<trkpt lat="47.789532" lon="10.729587">
<ele>767.319</ele>
<time>2020-09-11T11:41:26Z</time>
</trkpt>
<trkpt lat="47.789513" lon="10.729643">
<ele>767.319</ele>
<time>2020-09-11T11:41:27Z</time>
</trkpt>
<trkpt lat="47.789494" lon="10.729701">
<ele>767.565</ele>
<time>2020-09-11T11:41:28Z</time>
</trkpt>
<trkpt lat="47.789478" lon="10.72976">
<ele>767.758</ele>
<time>2020-09-11T11:41:29Z</time>
</trkpt>
<trkpt lat="47.789459" lon="10.72982">
<ele>767.892</ele>
<time>2020-09-11T11:41:30Z</time>
</trkpt>
<trkpt lat="47.78944" lon="10.729879">
<ele>768.037</ele>
<time>2020-09-11T11:41:31Z</time>
</trkpt>
<trkpt lat="47.789425" lon="10.729939">
<ele>768.147</ele>
<time>2020-09-11T11:41:32Z</time>
</trkpt>
<trkpt lat="47.789406" lon="10.729995">
<ele>768.227</ele>
<time>2020-09-11T11:41:33Z</time>
</trkpt>
<trkpt lat="47.789387" lon="10.730053">
<ele>768.276</ele>
<time>2020-09-11T11:41:34Z</time>
</trkpt>
<trkpt lat="47.789364" lon="10.730108">
<ele>768.564</ele>
<time>2020-09-11T11:41:35Z</time>
</trkpt>
<trkpt lat="47.789349" lon="10.730166">
<ele>768.82</ele>
<time>2020-09-11T11:41:36Z</time>
</trkpt>
<trkpt lat="47.789333" lon="10.730225">
<ele>768.999</ele>
<time>2020-09-11T11:41:37Z</time>
</trkpt>
<trkpt lat="47.789314" lon="10.730284">
<ele>769.127</ele>
<time>2020-09-11T11:41:38Z</time>
</trkpt>
<trkpt lat="47.789295" lon="10.730343">
<ele>769.219</ele>
<time>2020-09-11T11:41:39Z</time>
</trkpt>
<trkpt lat="47.789284" lon="10.7304">
<ele>769.288</ele>
<time>2020-09-11T11:41:40Z</time>
</trkpt>
<trkpt lat="47.789265" lon="10.730455">
<ele>769.566</ele>
<time>2020-09-11T11:41:41Z</time>
</trkpt>
<trkpt lat="47.789249" lon="10.73051">
<ele>769.776</ele>
<time>2020-09-11T11:41:42Z</time>
</trkpt>
<trkpt lat="47.78923" lon="10.730565">
<ele>769.927</ele>
<time>2020-09-11T11:41:43Z</time>
</trkpt>
<trkpt lat="47.789219" lon="10.73062">
<ele>770.046</ele>
<time>2020-09-11T11:41:44Z</time>
</trkpt>
<trkpt lat="47.789204" lon="10.730672">
<ele>770.139</ele>
<time>2020-09-11T11:41:45Z</time>
</trkpt>
<trkpt lat="47.789192" lon="10.730721">
<ele>770.196</ele>
<time>2020-09-11T11:41:46Z</time>
</trkpt>
<trkpt lat="47.789177" lon="10.730775">
<ele>770.48</ele>
<time>2020-09-11T11:41:47Z</time>
</trkpt>
<trkpt lat="47.789162" lon="10.730826">
<ele>770.706</ele>
<time>2020-09-11T11:41:48Z</time>
</trkpt>
<trkpt lat="47.789146" lon="10.730881">
<ele>770.871</ele>
<time>2020-09-11T11:41:49Z</time>
</trkpt>
<trkpt lat="47.789131" lon="10.730933">
<ele>770.978</ele>
<time>2020-09-11T11:41:50Z</time>
</trkpt>
<trkpt lat="47.789116" lon="10.730987">
<ele>771.094</ele>
<time>2020-09-11T11:41:51Z</time>
</trkpt>
<trkpt lat="47.789101" lon="10.73104">
<ele>771.178</ele>
<time>2020-09-11T11:41:52Z</time>
</trkpt>
<trkpt lat="47.789085" lon="10.731094">
<ele>771.233</ele>
<time>2020-09-11T11:41:53Z</time>
</trkpt>
<trkpt lat="47.78907" lon="10.731149">
<ele>771.258</ele>
<time>2020-09-11T11:41:54Z</time>
</trkpt>
<trkpt lat="47.789055" lon="10.731201">
<ele>771.528</ele>
<time>2020-09-11T11:41:55Z</time>
</trkpt>
<trkpt lat="47.789036" lon="10.731254">
<ele>771.737</ele>
<time>2020-09-11T11:41:56Z</time>
</trkpt>
<trkpt lat="47.789021" lon="10.731306">
<ele>771.893</ele>
<time>2020-09-11T11:41:57Z</time>
</trkpt>
<trkpt lat="47.789005" lon="10.73136">
<ele>772.011</ele>
<time>2020-09-11T11:41:58Z</time>
</trkpt>
<trkpt lat="47.788994" lon="10.731413">
<ele>772.079</ele>
<time>2020-09-11T11:41:59Z</time>
</trkpt>
<trkpt lat="47.788979" lon="10.731467">
<ele>772.378</ele>
<time>2020-09-11T11:42:00Z</time>
</trkpt>
<trkpt lat="47.788967" lon="10.731522">
<ele>772.64</ele>
<time>2020-09-11T11:42:01Z</time>
</trkpt>
<trkpt lat="47.788948" lon="10.731575">
<ele>772.838</ele>
<time>2020-09-11T11:42:02Z</time>
</trkpt>
<trkpt lat="47.788937" lon="10.731628">
<ele>772.974</ele>
<time>2020-09-11T11:42:03Z</time>
</trkpt>
<trkpt lat="47.788921" lon="10.73168">
<ele>773.08</ele>
<time>2020-09-11T11:42:04Z</time>
</trkpt>
<trkpt lat="47.788906" lon="10.731731">
<ele>773.155</ele>
<time>2020-09-11T11:42:05Z</time>
</trkpt>
<trkpt lat="47.788895" lon="10.731784">
<ele>773.2</ele>
<time>2020-09-11T11:42:06Z</time>
</trkpt>
<trkpt lat="47.788876" lon="10.731834">
<ele>773.574</ele>
<time>2020-09-11T11:42:07Z</time>
</trkpt>
<trkpt lat="47.788864" lon="10.731887">
<ele>773.877</ele>
<time>2020-09-11T11:42:08Z</time>
</trkpt>
<trkpt lat="47.788849" lon="10.731936">
<ele>774.104</ele>
<time>2020-09-11T11:42:09Z</time>
</trkpt>
<trkpt lat="47.788834" lon="10.731989">
<ele>774.259</ele>
<time>2020-09-11T11:42:10Z</time>
</trkpt>
<trkpt lat="47.788818" lon="10.732039">
<ele>774.427</ele>
<time>2020-09-11T11:42:11Z</time>
</trkpt>
<trkpt lat="47.788807" lon="10.732094">
<ele>774.547</ele>
<time>2020-09-11T11:42:12Z</time>
</trkpt>
<trkpt lat="47.788795" lon="10.732144">
<ele>774.621</ele>
<time>2020-09-11T11:42:13Z</time>
</trkpt>
<trkpt lat="47.788784" lon="10.732193">
<ele>774.899</ele>
<time>2020-09-11T11:42:14Z</time>
</trkpt>
<trkpt lat="47.788773" lon="10.732243">
<ele>775.15</ele>
<time>2020-09-11T11:42:15Z</time>
</trkpt>
<trkpt lat="47.788757" lon="10.732293">
<ele>775.31</ele>
<time>2020-09-11T11:42:16Z</time>
</trkpt>
<trkpt lat="47.788742" lon="10.732346">
<ele>775.412</ele>
<time>2020-09-11T11:42:17Z</time>
</trkpt>
<trkpt lat="47.788734" lon="10.732398">
<ele>775.751</ele>
<time>2020-09-11T11:42:18Z</time>
</trkpt>
<trkpt lat="47.788723" lon="10.732451">
<ele>776.007</ele>
<time>2020-09-11T11:42:19Z</time>
</trkpt>
<trkpt lat="47.788708" lon="10.732505">
<ele>776.192</ele>
<time>2020-09-11T11:42:20Z</time>
</trkpt>
<trkpt lat="47.7887" lon="10.732556">
<ele>776.361</ele>
<time>2020-09-11T11:42:21Z</time>
</trkpt>
<trkpt lat="47.788689" lon="10.732609">
<ele>776.717</ele>
<time>2020-09-11T11:42:22Z</time>
</trkpt>
<trkpt lat="47.788677" lon="10.732661">
<ele>776.996</ele>
<time>2020-09-11T11:42:23Z</time>
</trkpt>
<trkpt lat="47.78867" lon="10.732714">
<ele>777.213</ele>
<time>2020-09-11T11:42:24Z</time>
</trkpt>
<trkpt lat="47.788662" lon="10.732762">
<ele>777.368</ele>
<time>2020-09-11T11:42:25Z</time>
</trkpt>
<trkpt lat="47.788651" lon="10.732812">
<ele>777.537</ele>
<time>2020-09-11T11:42:26Z</time>
</trkpt>
<trkpt lat="47.788643" lon="10.732862">
<ele>777.587</ele>
<time>2020-09-11T11:42:27Z</time>
</trkpt>
<trkpt lat="47.788635" lon="10.73291">
<ele>777.828</ele>
<time>2020-09-11T11:42:28Z</time>
</trkpt>
<trkpt lat="47.788628" lon="10.73296">
<ele>778.012</ele>
<time>2020-09-11T11:42:29Z</time>
</trkpt>
<trkpt lat="47.788616" lon="10.733011">
<ele>778.135</ele>
<time>2020-09-11T11:42:30Z</time>
</trkpt>
<trkpt lat="47.788612" lon="10.733064">
<ele>778.259</ele>
<time>2020-09-11T11:42:31Z</time>
</trkpt>
<trkpt lat="47.788609" lon="10.733116">
<ele>778.607</ele>
<time>2020-09-11T11:42:32Z</time>
</trkpt>
<trkpt lat="47.788597" lon="10.733169">
<ele>778.888</ele>
<time>2020-09-11T11:42:33Z</time>
</trkpt>
<trkpt lat="47.788589" lon="10.733221">
<ele>779.065</ele>
<time>2020-09-11T11:42:34Z</time>
</trkpt>
<trkpt lat="47.788582" lon="10.733272">
<ele>779.455</ele>
<time>2020-09-11T11:42:35Z</time>
</trkpt>
<trkpt lat="47.788578" lon="10.733321">
<ele>779.845</ele>
<time>2020-09-11T11:42:36Z</time>
</trkpt>
<trkpt lat="47.788574" lon="10.73337">
<ele>780.054</ele>
<time>2020-09-11T11:42:37Z</time>
</trkpt>
<trkpt lat="47.78857" lon="10.733424">
<ele>780.176</ele>
<time>2020-09-11T11:42:38Z</time>
</trkpt>
<trkpt lat="47.788563" lon="10.733477">
<ele>780.262</ele>
<time>2020-09-11T11:42:39Z</time>
</trkpt>
<trkpt lat="47.788555" lon="10.733529">
<ele>780.319</ele>
<time>2020-09-11T11:42:40Z</time>
</trkpt>
<trkpt lat="47.788548" lon="10.733579">
<ele>780.674</ele>
<time>2020-09-11T11:42:41Z</time>
</trkpt>
<trkpt lat="47.788544" lon="10.73363">
<ele>780.955</ele>
<time>2020-09-11T11:42:42Z</time>
</trkpt>
<trkpt lat="47.788544" lon="10.73368">
<ele>781.17</ele>
<time>2020-09-11T11:42:43Z</time>
</trkpt>
<trkpt lat="47.788544" lon="10.733732">
<ele>781.338</ele>
<time>2020-09-11T11:42:44Z</time>
</trkpt>
<trkpt lat="47.78854" lon="10.733783">
<ele>781.442</ele>
<time>2020-09-11T11:42:45Z</time>
</trkpt>
<trkpt lat="47.78854" lon="10.733835">
<ele>781.783</ele>
<time>2020-09-11T11:42:46Z</time>
</trkpt>
<trkpt lat="47.78854" lon="10.733885">
<ele>782.054</ele>
<time>2020-09-11T11:42:47Z</time>
</trkpt>
<trkpt lat="47.78854" lon="10.733937">
<ele>782.255</ele>
<time>2020-09-11T11:42:48Z</time>
</trkpt>
<trkpt lat="47.78854" lon="10.73399">
<ele>782.389</ele>
<time>2020-09-11T11:42:49Z</time>
</trkpt>
<trkpt lat="47.78854" lon="10.734038">
<ele>782.471</ele>
<time>2020-09-11T11:42:50Z</time>
</trkpt>
<trkpt lat="47.78854" lon="10.734088">
<ele>782.554</ele>
<time>2020-09-11T11:42:51Z</time>
</trkpt>
<trkpt lat="47.78854" lon="10.734138">
<ele>782.846</ele>
<time>2020-09-11T11:42:52Z</time>
</trkpt>
<trkpt lat="47.78854" lon="10.734187">
<ele>783.073</ele>
<time>2020-09-11T11:42:53Z</time>
</trkpt>
<trkpt lat="47.78854" lon="10.734235">
<ele>783.328</ele>
<time>2020-09-11T11:42:54Z</time>
</trkpt>
<trkpt lat="47.78854" lon="10.734285">
<ele>783.434</ele>
<time>2020-09-11T11:42:55Z</time>
</trkpt>
<trkpt lat="47.78854" lon="10.734335">
<ele>783.79</ele>
<time>2020-09-11T11:42:56Z</time>
</trkpt>
<trkpt lat="47.788544" lon="10.734385">
<ele>784.056</ele>
<time>2020-09-11T11:42:57Z</time>
</trkpt>
<trkpt lat="47.788551" lon="10.734434">
<ele>784.245</ele>
<time>2020-09-11T11:42:58Z</time>
</trkpt>
<trkpt lat="47.788563" lon="10.73449">
<ele>784.362</ele>
<time>2020-09-11T11:42:59Z</time>
</trkpt>
<trkpt lat="47.78857" lon="10.734541">
<ele>784.445</ele>
<time>2020-09-11T11:43:00Z</time>
</trkpt>
<trkpt lat="47.788578" lon="10.734591">
<ele>784.528</ele>
<time>2020-09-11T11:43:01Z</time>
</trkpt>
<trkpt lat="47.788582" lon="10.734642">
<ele>784.825</ele>
<time>2020-09-11T11:43:02Z</time>
</trkpt>
<trkpt lat="47.788586" lon="10.734692">
<ele>785.051</ele>
<time>2020-09-11T11:43:03Z</time>
</trkpt>
<trkpt lat="47.788593" lon="10.734738">
<ele>785.273</ele>
<time>2020-09-11T11:43:04Z</time>
</trkpt>
<trkpt lat="47.788601" lon="10.734786">
<ele>785.671</ele>
<time>2020-09-11T11:43:05Z</time>
</trkpt>
<trkpt lat="47.788609" lon="10.734837">
<ele>785.979</ele>
<time>2020-09-11T11:43:06Z</time>
</trkpt>
<trkpt lat="47.788612" lon="10.734887">
<ele>786.196</ele>
<time>2020-09-11T11:43:07Z</time>
</trkpt>
<trkpt lat="47.788624" lon="10.734937">
<ele>786.309</ele>
<time>2020-09-11T11:43:08Z</time>
</trkpt>
<trkpt lat="47.788631" lon="10.734985">
<ele>786.637</ele>
<time>2020-09-11T11:43:09Z</time>
</trkpt>
<trkpt lat="47.788643" lon="10.735033">
<ele>786.871</ele>
<time>2020-09-11T11:43:10Z</time>
</trkpt>
<trkpt lat="47.788651" lon="10.735084">
<ele>787.089</ele>
<time>2020-09-11T11:43:11Z</time>
</trkpt>
<trkpt lat="47.788662" lon="10.735131">
<ele>787.244</ele>
<time>2020-09-11T11:43:12Z</time>
</trkpt>
<trkpt lat="47.788673" lon="10.73518">
<ele>787.339</ele>
<time>2020-09-11T11:43:13Z</time>
</trkpt>
<trkpt lat="47.788681" lon="10.735227">
<ele>787.401</ele>
<time>2020-09-11T11:43:14Z</time>
</trkpt>
<trkpt lat="47.788689" lon="10.735274">
<ele>787.713</ele>
<time>2020-09-11T11:43:15Z</time>
</trkpt>
<trkpt lat="47.788708" lon="10.735325">
<ele>787.957</ele>
<time>2020-09-11T11:43:16Z</time>
</trkpt>
<trkpt lat="47.788723" lon="10.735373">
<ele>788.176</ele>
<time>2020-09-11T11:43:17Z</time>
</trkpt>
<trkpt lat="47.788738" lon="10.73542">
<ele>788.276</ele>
<time>2020-09-11T11:43:18Z</time>
</trkpt>
<trkpt lat="47.788754" lon="10.735469">
<ele>788.621</ele>
<time>2020-09-11T11:43:19Z</time>
</trkpt>
<trkpt lat="47.788769" lon="10.735514">
<ele>788.88</ele>
<time>2020-09-11T11:43:20Z</time>
</trkpt>
<trkpt lat="47.788784" lon="10.735559">
<ele>789.116</ele>
<time>2020-09-11T11:43:21Z</time>
</trkpt>
<trkpt lat="47.788803" lon="10.735605">
<ele>789.269</ele>
<time>2020-09-11T11:43:22Z</time>
</trkpt>
<trkpt lat="47.788818" lon="10.735649">
<ele>789.597</ele>
<time>2020-09-11T11:43:23Z</time>
</trkpt>
<trkpt lat="47.788837" lon="10.735689">
<ele>789.855</ele>
<time>2020-09-11T11:43:24Z</time>
</trkpt>
<trkpt lat="47.788853" lon="10.735728">
<ele>790.058</ele>
<time>2020-09-11T11:43:25Z</time>
</trkpt>
<trkpt lat="47.788868" lon="10.735766">
<ele>790.208</ele>
<time>2020-09-11T11:43:26Z</time>
</trkpt>
<trkpt lat="47.788879" lon="10.735802">
<ele>790.34</ele>
<time>2020-09-11T11:43:27Z</time>
</trkpt>
<trkpt lat="47.788898" lon="10.73584">
<ele>790.39</ele>
<time>2020-09-11T11:43:28Z</time>
</trkpt>
<trkpt lat="47.78891" lon="10.73588">
<ele>790.41</ele>
<time>2020-09-11T11:43:29Z</time>
</trkpt>
<trkpt lat="47.788933" lon="10.73592">
<ele>790.649</ele>
<time>2020-09-11T11:43:30Z</time>
</trkpt>
<trkpt lat="47.788948" lon="10.735958">
<ele>790.859</ele>
<time>2020-09-11T11:43:31Z</time>
</trkpt>
<trkpt lat="47.788967" lon="10.735999">
<ele>791.035</ele>
<time>2020-09-11T11:43:32Z</time>
</trkpt>
<trkpt lat="47.788982" lon="10.73604">
<ele>791.177</ele>
<time>2020-09-11T11:43:33Z</time>
</trkpt>
<trkpt lat="47.789001" lon="10.73608">
<ele>791.265</ele>
<time>2020-09-11T11:43:34Z</time>
</trkpt>
<trkpt lat="47.789021" lon="10.73612">
<ele>791.594</ele>
<time>2020-09-11T11:43:35Z</time>
</trkpt>
<trkpt lat="47.789036" lon="10.73616">
<ele>791.844</ele>
<time>2020-09-11T11:43:36Z</time>
</trkpt>
<trkpt lat="47.789059" lon="10.7362">
<ele>792.035</ele>
<time>2020-09-11T11:43:37Z</time>
</trkpt>
<trkpt lat="47.789082" lon="10.736237">
<ele>792.178</ele>
<time>2020-09-11T11:43:38Z</time>
</trkpt>
<trkpt lat="47.789108" lon="10.736267">
<ele>792.269</ele>
<time>2020-09-11T11:43:39Z</time>
</trkpt>
<trkpt lat="47.789146" lon="10.736293">
<ele>792.33</ele>
<time>2020-09-11T11:43:40Z</time>
</trkpt>
<trkpt lat="47.789181" lon="10.736317">
<ele>792.384</ele>
<time>2020-09-11T11:43:41Z</time>
</trkpt>
<trkpt lat="47.789215" lon="10.736345">
<ele>792.41</ele>
<time>2020-09-11T11:43:42Z</time>
</trkpt>
<trkpt lat="47.789238" lon="10.736377">
<ele>792.705</ele>
<time>2020-09-11T11:43:43Z</time>
</trkpt>
<trkpt lat="47.789261" lon="10.736406">
<ele>792.926</ele>
<time>2020-09-11T11:43:44Z</time>
</trkpt>
<trkpt lat="47.789284" lon="10.736437">
<ele>793.088</ele>
<time>2020-09-11T11:43:45Z</time>
</trkpt>
<trkpt lat="47.78931" lon="10.736465">
<ele>793.202</ele>
<time>2020-09-11T11:43:46Z</time>
</trkpt>
<trkpt lat="47.78933" lon="10.736495">
<ele>793.276</ele>
<time>2020-09-11T11:43:47Z</time>
</trkpt>
<trkpt lat="47.789349" lon="10.736523">
<ele>793.545</ele>
<time>2020-09-11T11:43:48Z</time>
</trkpt>
<trkpt lat="47.78936" lon="10.736548">
<ele>793.743</ele>
<time>2020-09-11T11:43:49Z</time>
</trkpt>
<trkpt lat="47.789371" lon="10.736562">
<ele>793.903</ele>
<time>2020-09-11T11:43:50Z</time>
</trkpt>
<trkpt lat="47.789379" lon="10.736563">
<ele>794.031</ele>
<time>2020-09-11T11:43:51Z</time>
</trkpt>
<trkpt lat="47.789383" lon="10.73656">
<ele>794.132</ele>
<time>2020-09-11T11:43:52Z</time>
</trkpt>
<trkpt lat="47.789379" lon="10.736562">
<ele>794.205</ele>
<time>2020-09-11T11:43:53Z</time>
</trkpt>
<trkpt lat="47.789383" lon="10.736568">
<ele>794.259</ele>
<time>2020-09-11T11:43:56Z</time>
</trkpt>
<trkpt lat="47.789391" lon="10.736563">
<ele>794.294</ele>
<time>2020-09-11T11:43:57Z</time>
</trkpt>
<trkpt lat="47.789394" lon="10.73656">
<ele>794.294</ele>
<time>2020-09-11T11:43:58Z</time>
</trkpt>
<trkpt lat="47.789406" lon="10.736553">
<ele>794.294</ele>
<time>2020-09-11T11:43:59Z</time>
</trkpt>
<trkpt lat="47.789417" lon="10.736546">
<ele>794.294</ele>
<time>2020-09-11T11:44:00Z</time>
</trkpt>
<trkpt lat="47.789421" lon="10.736538">
<ele>794.294</ele>
<time>2020-09-11T11:44:01Z</time>
</trkpt>
<trkpt lat="47.789425" lon="10.736533">
<ele>794.294</ele>
<time>2020-09-11T11:44:02Z</time>
</trkpt>
<trkpt lat="47.789429" lon="10.736531">
<ele>794.294</ele>
<time>2020-09-11T11:44:03Z</time>
</trkpt>
<trkpt lat="47.789436" lon="10.736535">
<ele>794.294</ele>
<time>2020-09-11T11:44:04Z</time>
</trkpt>
<trkpt lat="47.78944" lon="10.736533">
<ele>794.294</ele>
<time>2020-09-11T11:44:05Z</time>
</trkpt>
<trkpt lat="47.789444" lon="10.736529">
<ele>794.294</ele>
<time>2020-09-11T11:44:06Z</time>
</trkpt>
<trkpt lat="47.789448" lon="10.73654">
<ele>794.294</ele>
<time>2020-09-11T11:44:23Z</time>
</trkpt>
<trkpt lat="47.789455" lon="10.736548">
<ele>794.294</ele>
<time>2020-09-11T11:44:24Z</time>
</trkpt>
<trkpt lat="47.789459" lon="10.736555">
<ele>794.294</ele>
<time>2020-09-11T11:44:25Z</time>
</trkpt>
<trkpt lat="47.789459" lon="10.736558">
<ele>794.294</ele>
<time>2020-09-11T11:44:26Z</time>
</trkpt>
<trkpt lat="47.789459" lon="10.73656">
<ele>794.294</ele>
<time>2020-09-11T11:44:27Z</time>
</trkpt>
<trkpt lat="47.789463" lon="10.736562">
<ele>794.294</ele>
<time>2020-09-11T11:44:28Z</time>
</trkpt>
<trkpt lat="47.789478" lon="10.736586">
<ele>794.294</ele>
<time>2020-09-11T11:44:33Z</time>
</trkpt>
<trkpt lat="47.78949" lon="10.736603">
<ele>794.294</ele>
<time>2020-09-11T11:44:34Z</time>
</trkpt>
<trkpt lat="47.789497" lon="10.73662">
<ele>794.294</ele>
<time>2020-09-11T11:44:35Z</time>
</trkpt>
<trkpt lat="47.789513" lon="10.736638">
<ele>794.294</ele>
<time>2020-09-11T11:44:36Z</time>
</trkpt>
<trkpt lat="47.789528" lon="10.736659">
<ele>794.294</ele>
<time>2020-09-11T11:44:37Z</time>
</trkpt>
<trkpt lat="47.789547" lon="10.73668">
<ele>794.294</ele>
<time>2020-09-11T11:44:38Z</time>
</trkpt>
<trkpt lat="47.789562" lon="10.736705">
<ele>794.294</ele>
<time>2020-09-11T11:44:39Z</time>
</trkpt>
<trkpt lat="47.789577" lon="10.736731">
<ele>794.294</ele>
<time>2020-09-11T11:44:40Z</time>
</trkpt>
<trkpt lat="47.789597" lon="10.736757">
<ele>794.294</ele>
<time>2020-09-11T11:44:41Z</time>
</trkpt>
<trkpt lat="47.789616" lon="10.736783">
<ele>794.586</ele>
<time>2020-09-11T11:44:42Z</time>
</trkpt>
<trkpt lat="47.789635" lon="10.736814">
<ele>794.815</ele>
<time>2020-09-11T11:44:43Z</time>
</trkpt>
<trkpt lat="47.789654" lon="10.736845">
<ele>794.986</ele>
<time>2020-09-11T11:44:44Z</time>
</trkpt>
<trkpt lat="47.789673" lon="10.736876">
<ele>795.121</ele>
<time>2020-09-11T11:44:45Z</time>
</trkpt>
<trkpt lat="47.789692" lon="10.736908">
<ele>795.227</ele>
<time>2020-09-11T11:44:46Z</time>
</trkpt>
<trkpt lat="47.789711" lon="10.736938">
<ele>795.301</ele>
<time>2020-09-11T11:44:47Z</time>
</trkpt>
<trkpt lat="47.789738" lon="10.736967">
<ele>795.349</ele>
<time>2020-09-11T11:44:48Z</time>
</trkpt>
<trkpt lat="47.789761" lon="10.736997">
<ele>795.371</ele>
<time>2020-09-11T11:44:49Z</time>
</trkpt>
<trkpt lat="47.789787" lon="10.737028">
<ele>795.371</ele>
<time>2020-09-11T11:44:50Z</time>
</trkpt>
<trkpt lat="47.789818" lon="10.737059">
<ele>795.371</ele>
<time>2020-09-11T11:44:51Z</time>
</trkpt>
<trkpt lat="47.789841" lon="10.73709">
<ele>795.371</ele>
<time>2020-09-11T11:44:52Z</time>
</trkpt>
<trkpt lat="47.789864" lon="10.737122">
<ele>795.675</ele>
<time>2020-09-11T11:44:53Z</time>
</trkpt>
<trkpt lat="47.78989" lon="10.737153">
<ele>795.905</ele>
<time>2020-09-11T11:44:54Z</time>
</trkpt>
<trkpt lat="47.789913" lon="10.737184">
<ele>796.078</ele>
<time>2020-09-11T11:44:55Z</time>
</trkpt>
<trkpt lat="47.78994" lon="10.737214">
<ele>796.19</ele>
<time>2020-09-11T11:44:56Z</time>
</trkpt>
<trkpt lat="47.789967" lon="10.737244">
<ele>796.274</ele>
<time>2020-09-11T11:44:57Z</time>
</trkpt>
<trkpt lat="47.789986" lon="10.737273">
<ele>796.333</ele>
<time>2020-09-11T11:44:58Z</time>
</trkpt>
<trkpt lat="47.790012" lon="10.737304">
<ele>796.358</ele>
<time>2020-09-11T11:44:59Z</time>
</trkpt>
<trkpt lat="47.790039" lon="10.737333">
<ele>796.358</ele>
<time>2020-09-11T11:45:00Z</time>
</trkpt>
<trkpt lat="47.790062" lon="10.737361">
<ele>796.358</ele>
<time>2020-09-11T11:45:01Z</time>
</trkpt>
<trkpt lat="47.790085" lon="10.737392">
<ele>796.358</ele>
<time>2020-09-11T11:45:02Z</time>
</trkpt>
<trkpt lat="47.790112" lon="10.73742">
<ele>796.358</ele>
<time>2020-09-11T11:45:03Z</time>
</trkpt>
<trkpt lat="47.790138" lon="10.737449">
<ele>796.358</ele>
<time>2020-09-11T11:45:04Z</time>
</trkpt>
<trkpt lat="47.790165" lon="10.73748">
<ele>796.358</ele>
<time>2020-09-11T11:45:05Z</time>
</trkpt>
<trkpt lat="47.790192" lon="10.737514">
<ele>796.358</ele>
<time>2020-09-11T11:45:06Z</time>
</trkpt>
<trkpt lat="47.790218" lon="10.73755">
<ele>796.358</ele>
<time>2020-09-11T11:45:07Z</time>
</trkpt>
<trkpt lat="47.790249" lon="10.737589">
<ele>796.358</ele>
<time>2020-09-11T11:45:08Z</time>
</trkpt>
<trkpt lat="47.790279" lon="10.737627">
<ele>796.358</ele>
<time>2020-09-11T11:45:09Z</time>
</trkpt>
<trkpt lat="47.79031" lon="10.737667">
<ele>796.358</ele>
<time>2020-09-11T11:45:10Z</time>
</trkpt>
<trkpt lat="47.790337" lon="10.737706">
<ele>796.609</ele>
<time>2020-09-11T11:45:11Z</time>
</trkpt>
<trkpt lat="47.790371" lon="10.737748">
<ele>796.842</ele>
<time>2020-09-11T11:45:12Z</time>
</trkpt>
<trkpt lat="47.790401" lon="10.73779">
<ele>797.024</ele>
<time>2020-09-11T11:45:13Z</time>
</trkpt>
<trkpt lat="47.790428" lon="10.737832">
<ele>797.168</ele>
<time>2020-09-11T11:45:14Z</time>
</trkpt>
<trkpt lat="47.790459" lon="10.737872">
<ele>797.278</ele>
<time>2020-09-11T11:45:15Z</time>
</trkpt>
<trkpt lat="47.790489" lon="10.737914">
<ele>797.358</ele>
<time>2020-09-11T11:45:16Z</time>
</trkpt>
<trkpt lat="47.79052" lon="10.737955">
<ele>797.41</ele>
<time>2020-09-11T11:45:17Z</time>
</trkpt>
<trkpt lat="47.790546" lon="10.738">
<ele>797.435</ele>
<time>2020-09-11T11:45:18Z</time>
</trkpt>
<trkpt lat="47.790577" lon="10.738044">
<ele>797.435</ele>
<time>2020-09-11T11:45:19Z</time>
</trkpt>
<trkpt lat="47.790607" lon="10.738087">
<ele>797.435</ele>
<time>2020-09-11T11:45:20Z</time>
</trkpt>
<trkpt lat="47.790634" lon="10.738128">
<ele>797.657</ele>
<time>2020-09-11T11:45:21Z</time>
</trkpt>
<trkpt lat="47.790665" lon="10.738172">
<ele>797.863</ele>
<time>2020-09-11T11:45:22Z</time>
</trkpt>
<trkpt lat="47.790691" lon="10.738214">
<ele>798.033</ele>
<time>2020-09-11T11:45:23Z</time>
</trkpt>
<trkpt lat="47.790722" lon="10.738256">
<ele>798.166</ele>
<time>2020-09-11T11:45:24Z</time>
</trkpt>
<trkpt lat="47.790749" lon="10.738301">
<ele>798.273</ele>
<time>2020-09-11T11:45:25Z</time>
</trkpt>
<trkpt lat="47.790775" lon="10.73835">
<ele>798.348</ele>
<time>2020-09-11T11:45:26Z</time>
</trkpt>
<trkpt lat="47.790806" lon="10.7384">
<ele>798.399</ele>
<time>2020-09-11T11:45:27Z</time>
</trkpt>
<trkpt lat="47.790833" lon="10.73845">
<ele>798.423</ele>
<time>2020-09-11T11:45:28Z</time>
</trkpt>
<trkpt lat="47.790863" lon="10.738499">
<ele>798.423</ele>
<time>2020-09-11T11:45:29Z</time>
</trkpt>
<trkpt lat="47.790894" lon="10.738543">
<ele>798.423</ele>
<time>2020-09-11T11:45:30Z</time>
</trkpt>
<trkpt lat="47.79092" lon="10.73859">
<ele>798.423</ele>
<time>2020-09-11T11:45:31Z</time>
</trkpt>
<trkpt lat="47.790943" lon="10.738637">
<ele>798.684</ele>
<time>2020-09-11T11:45:32Z</time>
</trkpt>
<trkpt lat="47.790962" lon="10.738685">
<ele>798.9</ele>
<time>2020-09-11T11:45:33Z</time>
</trkpt>
<trkpt lat="47.790989" lon="10.738731">
<ele>799.076</ele>
<time>2020-09-11T11:45:34Z</time>
</trkpt>
<trkpt lat="47.791008" lon="10.738778">
<ele>799.22</ele>
<time>2020-09-11T11:45:35Z</time>
</trkpt>
<trkpt lat="47.791027" lon="10.738825">
<ele>799.333</ele>
<time>2020-09-11T11:45:36Z</time>
</trkpt>
<trkpt lat="47.79105" lon="10.738872">
<ele>799.404</ele>
<time>2020-09-11T11:45:37Z</time>
</trkpt>
<trkpt lat="47.791073" lon="10.738918">
<ele>799.683</ele>
<time>2020-09-11T11:45:38Z</time>
</trkpt>
<trkpt lat="47.791092" lon="10.738965">
<ele>799.898</ele>
<time>2020-09-11T11:45:39Z</time>
</trkpt>
<trkpt lat="47.791111" lon="10.739012">
<ele>800.049</ele>
<time>2020-09-11T11:45:40Z</time>
</trkpt>
<trkpt lat="47.791126" lon="10.739054">
<ele>800.147</ele>
<time>2020-09-11T11:45:41Z</time>
</trkpt>
<trkpt lat="47.791149" lon="10.739097">
<ele>800.251</ele>
<time>2020-09-11T11:45:42Z</time>
</trkpt>
<trkpt lat="47.791164" lon="10.73914">
<ele>800.326</ele>
<time>2020-09-11T11:45:43Z</time>
</trkpt>
<trkpt lat="47.791183" lon="10.739186">
<ele>800.374</ele>
<time>2020-09-11T11:45:44Z</time>
</trkpt>
<trkpt lat="47.791199" lon="10.739234">
<ele>800.398</ele>
<time>2020-09-11T11:45:45Z</time>
</trkpt>
<trkpt lat="47.791218" lon="10.73928">
<ele>800.398</ele>
<time>2020-09-11T11:45:46Z</time>
</trkpt>
<trkpt lat="47.791241" lon="10.739324">
<ele>800.398</ele>
<time>2020-09-11T11:45:47Z</time>
</trkpt>
<trkpt lat="47.791264" lon="10.739368">
<ele>800.398</ele>
<time>2020-09-11T11:45:48Z</time>
</trkpt>
<trkpt lat="47.791286" lon="10.739418">
<ele>800.398</ele>
<time>2020-09-11T11:45:49Z</time>
</trkpt>
<trkpt lat="47.791313" lon="10.73947">
<ele>800.398</ele>
<time>2020-09-11T11:45:50Z</time>
</trkpt>
<trkpt lat="47.791336" lon="10.739521">
<ele>800.398</ele>
<time>2020-09-11T11:45:51Z</time>
</trkpt>
<trkpt lat="47.791355" lon="10.739573">
<ele>800.398</ele>
<time>2020-09-11T11:45:52Z</time>
</trkpt>
<trkpt lat="47.791382" lon="10.739623">
<ele>800.398</ele>
<time>2020-09-11T11:45:53Z</time>
</trkpt>
<trkpt lat="47.791401" lon="10.739674">
<ele>800.398</ele>
<time>2020-09-11T11:45:54Z</time>
</trkpt>
<trkpt lat="47.791412" lon="10.739732">
<ele>800.398</ele>
<time>2020-09-11T11:45:55Z</time>
</trkpt>
<trkpt lat="47.791416" lon="10.739797">
<ele>800.125</ele>
<time>2020-09-11T11:45:56Z</time>
</trkpt>
<trkpt lat="47.791409" lon="10.739864">
<ele>799.95</ele>
<time>2020-09-11T11:45:57Z</time>
</trkpt>
<trkpt lat="47.791382" lon="10.739925">
<ele>799.535</ele>
<time>2020-09-11T11:45:58Z</time>
</trkpt>
<trkpt lat="47.791344" lon="10.739969">
<ele>799.273</ele>
<time>2020-09-11T11:45:59Z</time>
</trkpt>
<trkpt lat="47.791302" lon="10.739997">
<ele>798.746</ele>
<time>2020-09-11T11:46:00Z</time>
</trkpt>
<trkpt lat="47.791252" lon="10.740026">
<ele>798.365</ele>
<time>2020-09-11T11:46:01Z</time>
</trkpt>
<trkpt lat="47.791218" lon="10.740062">
<ele>798.017</ele>
<time>2020-09-11T11:46:02Z</time>
</trkpt>
<trkpt lat="47.791183" lon="10.740118">
<ele>797.777</ele>
<time>2020-09-11T11:46:03Z</time>
</trkpt>
<trkpt lat="47.791172" lon="10.74018">
<ele>797.62</ele>
<time>2020-09-11T11:46:04Z</time>
</trkpt>
<trkpt lat="47.791172" lon="10.740248">
<ele>797.517</ele>
<time>2020-09-11T11:46:05Z</time>
</trkpt>
<trkpt lat="47.79118" lon="10.740307">
<ele>797.463</ele>
<time>2020-09-11T11:46:06Z</time>
</trkpt>
<trkpt lat="47.791191" lon="10.740359">
<ele>797.435</ele>
<time>2020-09-11T11:46:07Z</time>
</trkpt>
<trkpt lat="47.791199" lon="10.740407">
<ele>797.435</ele>
<time>2020-09-11T11:46:08Z</time>
</trkpt>
<trkpt lat="47.791206" lon="10.740452">
<ele>797.435</ele>
<time>2020-09-11T11:46:09Z</time>
</trkpt>
<trkpt lat="47.791214" lon="10.740495">
<ele>797.435</ele>
<time>2020-09-11T11:46:10Z</time>
</trkpt>
<trkpt lat="47.791218" lon="10.740541">
<ele>797.636</ele>
<time>2020-09-11T11:46:11Z</time>
</trkpt>
<trkpt lat="47.791229" lon="10.740594">
<ele>797.837</ele>
<time>2020-09-11T11:46:12Z</time>
</trkpt>
<trkpt lat="47.791241" lon="10.740644">
<ele>797.984</ele>
<time>2020-09-11T11:46:13Z</time>
</trkpt>
<trkpt lat="47.791248" lon="10.740694">
<ele>798.355</ele>
<time>2020-09-11T11:46:14Z</time>
</trkpt>
<trkpt lat="47.79126" lon="10.740738">
<ele>798.664</ele>
<time>2020-09-11T11:46:15Z</time>
</trkpt>
<trkpt lat="47.791271" lon="10.740787">
<ele>798.91</ele>
<time>2020-09-11T11:46:16Z</time>
</trkpt>
<trkpt lat="47.791275" lon="10.740839">
<ele>799.056</ele>
<time>2020-09-11T11:46:17Z</time>
</trkpt>
<trkpt lat="47.791275" lon="10.740891">
<ele>799.427</ele>
<time>2020-09-11T11:46:18Z</time>
</trkpt>
<trkpt lat="47.791275" lon="10.740942">
<ele>799.718</ele>
<time>2020-09-11T11:46:19Z</time>
</trkpt>
<trkpt lat="47.791275" lon="10.740993">
<ele>799.902</ele>
<time>2020-09-11T11:46:20Z</time>
</trkpt>
<trkpt lat="47.791271" lon="10.741047">
<ele>800.034</ele>
<time>2020-09-11T11:46:21Z</time>
</trkpt>
<trkpt lat="47.791264" lon="10.7411">
<ele>800.149</ele>
<time>2020-09-11T11:46:22Z</time>
</trkpt>
<trkpt lat="47.791252" lon="10.741157">
<ele>800.228</ele>
<time>2020-09-11T11:46:23Z</time>
</trkpt>
<trkpt lat="47.791241" lon="10.741212">
<ele>800.529</ele>
<time>2020-09-11T11:46:24Z</time>
</trkpt>
<trkpt lat="47.791222" lon="10.741263">
<ele>800.76</ele>
<time>2020-09-11T11:46:25Z</time>
</trkpt>
<trkpt lat="47.791195" lon="10.741312">
<ele>800.996</ele>
<time>2020-09-11T11:46:26Z</time>
</trkpt>
<trkpt lat="47.791172" lon="10.741363">
<ele>801.12</ele>
<time>2020-09-11T11:46:27Z</time>
</trkpt>
<trkpt lat="47.791149" lon="10.741415">
<ele>801.196</ele>
<time>2020-09-11T11:46:28Z</time>
</trkpt>
<trkpt lat="47.791122" lon="10.741462">
<ele>801.246</ele>
<time>2020-09-11T11:46:29Z</time>
</trkpt>
<trkpt lat="47.7911" lon="10.741509">
<ele>801.274</ele>
<time>2020-09-11T11:46:30Z</time>
</trkpt>
<trkpt lat="47.791077" lon="10.74156">
<ele>801.296</ele>
<time>2020-09-11T11:46:31Z</time>
</trkpt>
<trkpt lat="47.791054" lon="10.74161">
<ele>801.296</ele>
<time>2020-09-11T11:46:32Z</time>
</trkpt>
<trkpt lat="47.791027" lon="10.741665">
<ele>801.296</ele>
<time>2020-09-11T11:46:33Z</time>
</trkpt>
<trkpt lat="47.791004" lon="10.741721">
<ele>801.296</ele>
<time>2020-09-11T11:46:34Z</time>
</trkpt>
<trkpt lat="47.790977" lon="10.741779">
<ele>801.296</ele>
<time>2020-09-11T11:46:35Z</time>
</trkpt>
<trkpt lat="47.790958" lon="10.741838">
<ele>801.296</ele>
<time>2020-09-11T11:46:36Z</time>
</trkpt>
<trkpt lat="47.790932" lon="10.741899">
<ele>801.296</ele>
<time>2020-09-11T11:46:37Z</time>
</trkpt>
<trkpt lat="47.790909" lon="10.741958">
<ele>801.296</ele>
<time>2020-09-11T11:46:38Z</time>
</trkpt>
<trkpt lat="47.79089" lon="10.742021">
<ele>801.296</ele>
<time>2020-09-11T11:46:39Z</time>
</trkpt>
<trkpt lat="47.790863" lon="10.742088">
<ele>801.296</ele>
<time>2020-09-11T11:46:40Z</time>
</trkpt>
<trkpt lat="47.79084" lon="10.742162">
<ele>801.296</ele>
<time>2020-09-11T11:46:41Z</time>
</trkpt>
<trkpt lat="47.790825" lon="10.74223">
<ele>801.296</ele>
<time>2020-09-11T11:46:42Z</time>
</trkpt>
<trkpt lat="47.790802" lon="10.742301">
<ele>801.296</ele>
<time>2020-09-11T11:46:43Z</time>
</trkpt>
<trkpt lat="47.790783" lon="10.742373">
<ele>801.296</ele>
<time>2020-09-11T11:46:44Z</time>
</trkpt>
<trkpt lat="47.79076" lon="10.742446">
<ele>801.296</ele>
<time>2020-09-11T11:46:45Z</time>
</trkpt>
<trkpt lat="47.790745" lon="10.742518">
<ele>801.296</ele>
<time>2020-09-11T11:46:46Z</time>
</trkpt>
<trkpt lat="47.790726" lon="10.742593">
<ele>801.296</ele>
<time>2020-09-11T11:46:47Z</time>
</trkpt>
<trkpt lat="47.790703" lon="10.742668">
<ele>801.296</ele>
<time>2020-09-11T11:46:48Z</time>
</trkpt>
<trkpt lat="47.790684" lon="10.74274">
<ele>801.296</ele>
<time>2020-09-11T11:46:49Z</time>
</trkpt>
<trkpt lat="47.790665" lon="10.742815">
<ele>801.296</ele>
<time>2020-09-11T11:46:50Z</time>
</trkpt>
<trkpt lat="47.790642" lon="10.742887">
<ele>801.296</ele>
<time>2020-09-11T11:46:51Z</time>
</trkpt>
<trkpt lat="47.790623" lon="10.742962">
<ele>801.296</ele>
<time>2020-09-11T11:46:52Z</time>
</trkpt>
<trkpt lat="47.790604" lon="10.743034">
<ele>801.296</ele>
<time>2020-09-11T11:46:53Z</time>
</trkpt>
<trkpt lat="47.790585" lon="10.743108">
<ele>801.296</ele>
<time>2020-09-11T11:46:54Z</time>
</trkpt>
<trkpt lat="47.790565" lon="10.743183">
<ele>801.296</ele>
<time>2020-09-11T11:46:55Z</time>
</trkpt>
<trkpt lat="47.790539" lon="10.743258">
<ele>801.296</ele>
<time>2020-09-11T11:46:56Z</time>
</trkpt>
<trkpt lat="47.790516" lon="10.743332">
<ele>801.296</ele>
<time>2020-09-11T11:46:57Z</time>
</trkpt>
<trkpt lat="47.790493" lon="10.743402">
<ele>801.296</ele>
<time>2020-09-11T11:46:58Z</time>
</trkpt>
<trkpt lat="47.79047" lon="10.743472">
<ele>801.296</ele>
<time>2020-09-11T11:46:59Z</time>
</trkpt>
<trkpt lat="47.790447" lon="10.743544">
<ele>801.296</ele>
<time>2020-09-11T11:47:00Z</time>
</trkpt>
<trkpt lat="47.790424" lon="10.743619">
<ele>801.296</ele>
<time>2020-09-11T11:47:01Z</time>
</trkpt>
<trkpt lat="47.790401" lon="10.743692">
<ele>801.296</ele>
<time>2020-09-11T11:47:02Z</time>
</trkpt>
<trkpt lat="47.790382" lon="10.743763">
<ele>801.296</ele>
<time>2020-09-11T11:47:03Z</time>
</trkpt>
<trkpt lat="47.790363" lon="10.743834">
<ele>801.296</ele>
<time>2020-09-11T11:47:04Z</time>
</trkpt>
<trkpt lat="47.79034" lon="10.743906">
<ele>801.296</ele>
<time>2020-09-11T11:47:05Z</time>
</trkpt>
<trkpt lat="47.790321" lon="10.743979">
<ele>801.296</ele>
<time>2020-09-11T11:47:06Z</time>
</trkpt>
<trkpt lat="47.790298" lon="10.74405">
<ele>801.296</ele>
<time>2020-09-11T11:47:07Z</time>
</trkpt>
<trkpt lat="47.790272" lon="10.744118">
<ele>801.296</ele>
<time>2020-09-11T11:47:08Z</time>
</trkpt>
<trkpt lat="47.790253" lon="10.74419">
<ele>801.519</ele>
<time>2020-09-11T11:47:09Z</time>
</trkpt>
<trkpt lat="47.790234" lon="10.744264">
<ele>801.697</ele>
<time>2020-09-11T11:47:10Z</time>
</trkpt>
<trkpt lat="47.790215" lon="10.744337">
<ele>801.82</ele>
<time>2020-09-11T11:47:11Z</time>
</trkpt>
<trkpt lat="47.790195" lon="10.744409">
<ele>801.951</ele>
<time>2020-09-11T11:47:12Z</time>
</trkpt>
<trkpt lat="47.79018" lon="10.744482">
<ele>802.052</ele>
<time>2020-09-11T11:47:13Z</time>
</trkpt>
<trkpt lat="47.790169" lon="10.744555">
<ele>802.124</ele>
<time>2020-09-11T11:47:14Z</time>
</trkpt>
<trkpt lat="47.790154" lon="10.744625">
<ele>802.171</ele>
<time>2020-09-11T11:47:15Z</time>
</trkpt>
<trkpt lat="47.790142" lon="10.744694">
<ele>802.194</ele>
<time>2020-09-11T11:47:16Z</time>
</trkpt>
<trkpt lat="47.790131" lon="10.744761">
<ele>802.194</ele>
<time>2020-09-11T11:47:17Z</time>
</trkpt>
<trkpt lat="47.790119" lon="10.74483">
<ele>802.194</ele>
<time>2020-09-11T11:47:18Z</time>
</trkpt>
<trkpt lat="47.790108" lon="10.744902">
<ele>802.194</ele>
<time>2020-09-11T11:47:19Z</time>
</trkpt>
<trkpt lat="47.7901" lon="10.744973">
<ele>802.194</ele>
<time>2020-09-11T11:47:20Z</time>
</trkpt>
<trkpt lat="47.790085" lon="10.745051">
<ele>802.194</ele>
<time>2020-09-11T11:47:21Z</time>
</trkpt>
<trkpt lat="47.790073" lon="10.745135">
<ele>802.194</ele>
<time>2020-09-11T11:47:22Z</time>
</trkpt>
<trkpt lat="47.790051" lon="10.745224">
<ele>801.913</ele>
<time>2020-09-11T11:47:23Z</time>
</trkpt>
<trkpt lat="47.790024" lon="10.74532">
<ele>801.732</ele>
<time>2020-09-11T11:47:24Z</time>
</trkpt>
<trkpt lat="47.789989" lon="10.745421">
<ele>801.295</ele>
<time>2020-09-11T11:47:25Z</time>
</trkpt>
<trkpt lat="47.789948" lon="10.745523">
<ele>800.628</ele>
<time>2020-09-11T11:47:26Z</time>
</trkpt>
<trkpt lat="47.789906" lon="10.745625">
<ele>800.238</ele>
<time>2020-09-11T11:47:27Z</time>
</trkpt>
<trkpt lat="47.789852" lon="10.745722">
<ele>799.591</ele>
<time>2020-09-11T11:47:28Z</time>
</trkpt>
<trkpt lat="47.789803" lon="10.745815">
<ele>799.174</ele>
<time>2020-09-11T11:47:29Z</time>
</trkpt>
<trkpt lat="47.789753" lon="10.745902">
<ele>798.882</ele>
<time>2020-09-11T11:47:30Z</time>
</trkpt>
<trkpt lat="47.789711" lon="10.745982">
<ele>798.687</ele>
<time>2020-09-11T11:47:31Z</time>
</trkpt>
<trkpt lat="47.789669" lon="10.746066">
<ele>798.511</ele>
<time>2020-09-11T11:47:32Z</time>
</trkpt>
<trkpt lat="47.789631" lon="10.74615">
<ele>798.411</ele>
<time>2020-09-11T11:47:33Z</time>
</trkpt>
<trkpt lat="47.789589" lon="10.746235">
<ele>798.361</ele>
<time>2020-09-11T11:47:34Z</time>
</trkpt>
<trkpt lat="47.789555" lon="10.746318">
<ele>798.124</ele>
<time>2020-09-11T11:47:35Z</time>
</trkpt>
<trkpt lat="47.78952" lon="10.746409">
<ele>797.898</ele>
<time>2020-09-11T11:47:36Z</time>
</trkpt>
<trkpt lat="47.78949" lon="10.746505">
<ele>797.746</ele>
<time>2020-09-11T11:47:37Z</time>
</trkpt>
<trkpt lat="47.789459" lon="10.746605">
<ele>797.63</ele>
<time>2020-09-11T11:47:38Z</time>
</trkpt>
<trkpt lat="47.78944" lon="10.746705">
<ele>797.55</ele>
<time>2020-09-11T11:47:39Z</time>
</trkpt>
<trkpt lat="47.789429" lon="10.746799">
<ele>797.499</ele>
<time>2020-09-11T11:47:40Z</time>
</trkpt>
<trkpt lat="47.789417" lon="10.746894">
<ele>797.46</ele>
<time>2020-09-11T11:47:41Z</time>
</trkpt>
<trkpt lat="47.789406" lon="10.746982">
<ele>797.435</ele>
<time>2020-09-11T11:47:42Z</time>
</trkpt>
<trkpt lat="47.789391" lon="10.747066">
<ele>797.435</ele>
<time>2020-09-11T11:47:43Z</time>
</trkpt>
<trkpt lat="47.789375" lon="10.747145">
<ele>797.435</ele>
<time>2020-09-11T11:47:44Z</time>
</trkpt>
<trkpt lat="47.78936" lon="10.747222">
<ele>797.435</ele>
<time>2020-09-11T11:47:45Z</time>
</trkpt>
<trkpt lat="47.789337" lon="10.747295">
<ele>797.435</ele>
<time>2020-09-11T11:47:46Z</time>
</trkpt>
<trkpt lat="47.789314" lon="10.747363">
<ele>797.435</ele>
<time>2020-09-11T11:47:47Z</time>
</trkpt>
<trkpt lat="47.789288" lon="10.747426">
<ele>797.435</ele>
<time>2020-09-11T11:47:48Z</time>
</trkpt>
<trkpt lat="47.789257" lon="10.747487">
<ele>797.435</ele>
<time>2020-09-11T11:47:49Z</time>
</trkpt>
<trkpt lat="47.78923" lon="10.747541">
<ele>797.435</ele>
<time>2020-09-11T11:47:50Z</time>
</trkpt>
<trkpt lat="47.789196" lon="10.747592">
<ele>797.435</ele>
<time>2020-09-11T11:47:51Z</time>
</trkpt>
<trkpt lat="47.789158" lon="10.747638">
<ele>797.435</ele>
<time>2020-09-11T11:47:52Z</time>
</trkpt>
<trkpt lat="47.78912" lon="10.747675">
<ele>797.435</ele>
<time>2020-09-11T11:47:53Z</time>
</trkpt>
<trkpt lat="47.789078" lon="10.747706">
<ele>797.687</ele>
<time>2020-09-11T11:47:54Z</time>
</trkpt>
<trkpt lat="47.789036" lon="10.747728">
<ele>797.889</ele>
<time>2020-09-11T11:47:55Z</time>
</trkpt>
<trkpt lat="47.788994" lon="10.747748">
<ele>798.043</ele>
<time>2020-09-11T11:47:56Z</time>
</trkpt>
<trkpt lat="47.78894" lon="10.747769">
<ele>798.159</ele>
<time>2020-09-11T11:47:57Z</time>
</trkpt>
<trkpt lat="47.788895" lon="10.747795">
<ele>798.24</ele>
<time>2020-09-11T11:47:58Z</time>
</trkpt>
<trkpt lat="47.788849" lon="10.747822">
<ele>798.284</ele>
<time>2020-09-11T11:47:59Z</time>
</trkpt>
<trkpt lat="47.788803" lon="10.747849">
<ele>798.312</ele>
<time>2020-09-11T11:48:00Z</time>
</trkpt>
<trkpt lat="47.788754" lon="10.747878">
<ele>798.333</ele>
<time>2020-09-11T11:48:01Z</time>
</trkpt>
<trkpt lat="47.788712" lon="10.747907">
<ele>798.333</ele>
<time>2020-09-11T11:48:02Z</time>
</trkpt>
<trkpt lat="47.78867" lon="10.747931">
<ele>798.333</ele>
<time>2020-09-11T11:48:03Z</time>
</trkpt>
<trkpt lat="47.788631" lon="10.747956">
<ele>798.333</ele>
<time>2020-09-11T11:48:04Z</time>
</trkpt>
<trkpt lat="47.788593" lon="10.747981">
<ele>798.675</ele>
<time>2020-09-11T11:48:05Z</time>
</trkpt>
<trkpt lat="47.788555" lon="10.74801">
<ele>798.942</ele>
<time>2020-09-11T11:48:06Z</time>
</trkpt>
<trkpt lat="47.788525" lon="10.748038">
<ele>799.151</ele>
<time>2020-09-11T11:48:07Z</time>
</trkpt>
<trkpt lat="47.78849" lon="10.748069">
<ele>799.278</ele>
<time>2020-09-11T11:48:08Z</time>
</trkpt>
<trkpt lat="47.788456" lon="10.748096">
<ele>799.659</ele>
<time>2020-09-11T11:48:09Z</time>
</trkpt>
<trkpt lat="47.788422" lon="10.748125">
<ele>799.947</ele>
<time>2020-09-11T11:48:10Z</time>
</trkpt>
<trkpt lat="47.788391" lon="10.748155">
<ele>800.167</ele>
<time>2020-09-11T11:48:11Z</time>
</trkpt>
<trkpt lat="47.788361" lon="10.748184">
<ele>800.366</ele>
<time>2020-09-11T11:48:12Z</time>
</trkpt>
<trkpt lat="47.788326" lon="10.748212">
<ele>800.482</ele>
<time>2020-09-11T11:48:13Z</time>
</trkpt>
<trkpt lat="47.788296" lon="10.748241">
<ele>800.795</ele>
<time>2020-09-11T11:48:14Z</time>
</trkpt>
<trkpt lat="47.788261" lon="10.748274">
<ele>801.04</ele>
<time>2020-09-11T11:48:15Z</time>
</trkpt>
<trkpt lat="47.788235" lon="10.748302">
<ele>801.219</ele>
<time>2020-09-11T11:48:16Z</time>
</trkpt>
<trkpt lat="47.788208" lon="10.748333">
<ele>801.373</ele>
<time>2020-09-11T11:48:17Z</time>
</trkpt>
<trkpt lat="47.788177" lon="10.748371">
<ele>801.728</ele>
<time>2020-09-11T11:48:18Z</time>
</trkpt>
<trkpt lat="47.788147" lon="10.748412">
<ele>802.003</ele>
<time>2020-09-11T11:48:19Z</time>
</trkpt>
<trkpt lat="47.788113" lon="10.748452">
<ele>802.207</ele>
<time>2020-09-11T11:48:20Z</time>
</trkpt>
<trkpt lat="47.788082" lon="10.748492">
<ele>802.343</ele>
<time>2020-09-11T11:48:21Z</time>
</trkpt>
<trkpt lat="47.788044" lon="10.748532">
<ele>802.468</ele>
<time>2020-09-11T11:48:22Z</time>
</trkpt>
<trkpt lat="47.78801" lon="10.748576">
<ele>802.554</ele>
<time>2020-09-11T11:48:23Z</time>
</trkpt>
<trkpt lat="47.787975" lon="10.748624">
<ele>802.872</ele>
<time>2020-09-11T11:48:24Z</time>
</trkpt>
<trkpt lat="47.787945" lon="10.748667">
<ele>803.102</ele>
<time>2020-09-11T11:48:25Z</time>
</trkpt>
<trkpt lat="47.78791" lon="10.748706">
<ele>803.331</ele>
<time>2020-09-11T11:48:26Z</time>
</trkpt>
<trkpt lat="47.78788" lon="10.748754">
<ele>803.445</ele>
<time>2020-09-11T11:48:27Z</time>
</trkpt>
<trkpt lat="47.787849" lon="10.7488">
<ele>803.533</ele>
<time>2020-09-11T11:48:28Z</time>
</trkpt>
<trkpt lat="47.787815" lon="10.74885">
<ele>803.579</ele>
<time>2020-09-11T11:48:29Z</time>
</trkpt>
<trkpt lat="47.787785" lon="10.7489">
<ele>803.608</ele>
<time>2020-09-11T11:48:30Z</time>
</trkpt>
<trkpt lat="47.78775" lon="10.74895">
<ele>803.631</ele>
<time>2020-09-11T11:48:31Z</time>
</trkpt>
<trkpt lat="47.78772" lon="10.748997">
<ele>803.631</ele>
<time>2020-09-11T11:48:32Z</time>
</trkpt>
<trkpt lat="47.787693" lon="10.749035">
<ele>803.631</ele>
<time>2020-09-11T11:48:33Z</time>
</trkpt>
<trkpt lat="47.787666" lon="10.749075">
<ele>803.631</ele>
<time>2020-09-11T11:48:34Z</time>
</trkpt>
<trkpt lat="47.787636" lon="10.749117">
<ele>803.631</ele>
<time>2020-09-11T11:48:35Z</time>
</trkpt>
<trkpt lat="47.787613" lon="10.74916">
<ele>803.631</ele>
<time>2020-09-11T11:48:36Z</time>
</trkpt>
<trkpt lat="47.787586" lon="10.749205">
<ele>803.881</ele>
<time>2020-09-11T11:48:37Z</time>
</trkpt>
<trkpt lat="47.787556" lon="10.749259">
<ele>804.085</ele>
<time>2020-09-11T11:48:38Z</time>
</trkpt>
<trkpt lat="47.787529" lon="10.749313">
<ele>804.246</ele>
<time>2020-09-11T11:48:39Z</time>
</trkpt>
<trkpt lat="47.787502" lon="10.749372">
<ele>804.375</ele>
<time>2020-09-11T11:48:40Z</time>
</trkpt>
<trkpt lat="47.787472" lon="10.749431">
<ele>804.463</ele>
<time>2020-09-11T11:48:41Z</time>
</trkpt>
<trkpt lat="47.787441" lon="10.749483">
<ele>804.545</ele>
<time>2020-09-11T11:48:42Z</time>
</trkpt>
<trkpt lat="47.787411" lon="10.749538">
<ele>804.595</ele>
<time>2020-09-11T11:48:43Z</time>
</trkpt>
<trkpt lat="47.787376" lon="10.749594">
<ele>804.619</ele>
<time>2020-09-11T11:48:44Z</time>
</trkpt>
<trkpt lat="47.787342" lon="10.74965">
<ele>804.619</ele>
<time>2020-09-11T11:48:45Z</time>
</trkpt>
<trkpt lat="47.787312" lon="10.749708">
<ele>804.619</ele>
<time>2020-09-11T11:48:46Z</time>
</trkpt>
<trkpt lat="47.787277" lon="10.749765">
<ele>804.619</ele>
<time>2020-09-11T11:48:47Z</time>
</trkpt>
<trkpt lat="47.787247" lon="10.74982">
<ele>804.619</ele>
<time>2020-09-11T11:48:48Z</time>
</trkpt>
<trkpt lat="47.787212" lon="10.749868">
<ele>804.843</ele>
<time>2020-09-11T11:48:49Z</time>
</trkpt>
<trkpt lat="47.787189" lon="10.74991">
<ele>805.019</ele>
<time>2020-09-11T11:48:50Z</time>
</trkpt>
<trkpt lat="47.787159" lon="10.749953">
<ele>805.139</ele>
<time>2020-09-11T11:48:51Z</time>
</trkpt>
<trkpt lat="47.787125" lon="10.750003">
<ele>805.268</ele>
<time>2020-09-11T11:48:52Z</time>
</trkpt>
<trkpt lat="47.787086" lon="10.750057">
<ele>805.37</ele>
<time>2020-09-11T11:48:53Z</time>
</trkpt>
<trkpt lat="47.787052" lon="10.750107">
<ele>805.444</ele>
<time>2020-09-11T11:48:54Z</time>
</trkpt>
<trkpt lat="47.787018" lon="10.75015">
<ele>805.493</ele>
<time>2020-09-11T11:48:55Z</time>
</trkpt>
<trkpt lat="47.786991" lon="10.750194">
<ele>805.517</ele>
<time>2020-09-11T11:48:56Z</time>
</trkpt>
<trkpt lat="47.786957" lon="10.750245">
<ele>805.517</ele>
<time>2020-09-11T11:48:57Z</time>
</trkpt>
<trkpt lat="47.786922" lon="10.7503">
<ele>805.517</ele>
<time>2020-09-11T11:48:58Z</time>
</trkpt>
<trkpt lat="47.786888" lon="10.750346">
<ele>805.517</ele>
<time>2020-09-11T11:48:59Z</time>
</trkpt>
<trkpt lat="47.78685" lon="10.750395">
<ele>805.517</ele>
<time>2020-09-11T11:49:00Z</time>
</trkpt>
<trkpt lat="47.786816" lon="10.750446">
<ele>805.517</ele>
<time>2020-09-11T11:49:01Z</time>
</trkpt>
<trkpt lat="47.786785" lon="10.750491">
<ele>805.761</ele>
<time>2020-09-11T11:49:02Z</time>
</trkpt>
<trkpt lat="47.786751" lon="10.750535">
<ele>805.965</ele>
<time>2020-09-11T11:49:03Z</time>
</trkpt>
<trkpt lat="47.78672" lon="10.750586">
<ele>806.128</ele>
<time>2020-09-11T11:49:04Z</time>
</trkpt>
<trkpt lat="47.786686" lon="10.750633">
<ele>806.255</ele>
<time>2020-09-11T11:49:05Z</time>
</trkpt>
<trkpt lat="47.786652" lon="10.75068">
<ele>806.356</ele>
<time>2020-09-11T11:49:06Z</time>
</trkpt>
<trkpt lat="47.786621" lon="10.750722">
<ele>806.434</ele>
<time>2020-09-11T11:49:07Z</time>
</trkpt>
<trkpt lat="47.786587" lon="10.750763">
<ele>806.481</ele>
<time>2020-09-11T11:49:08Z</time>
</trkpt>
<trkpt lat="47.786556" lon="10.750809">
<ele>806.505</ele>
<time>2020-09-11T11:49:09Z</time>
</trkpt>
<trkpt lat="47.78653" lon="10.750857">
<ele>806.506</ele>
<time>2020-09-11T11:49:10Z</time>
</trkpt>
<trkpt lat="47.786507" lon="10.750912">
<ele>806.505</ele>
<time>2020-09-11T11:49:11Z</time>
</trkpt>
<trkpt lat="47.786488" lon="10.750965">
<ele>806.505</ele>
<time>2020-09-11T11:49:12Z</time>
</trkpt>
<trkpt lat="47.786461" lon="10.751021">
<ele>806.505</ele>
<time>2020-09-11T11:49:13Z</time>
</trkpt>
<trkpt lat="47.78643" lon="10.751067">
<ele>806.506</ele>
<time>2020-09-11T11:49:14Z</time>
</trkpt>
<trkpt lat="47.786392" lon="10.751099">
<ele>806.505</ele>
<time>2020-09-11T11:49:15Z</time>
</trkpt>
<trkpt lat="47.786354" lon="10.75112">
<ele>806.505</ele>
<time>2020-09-11T11:49:16Z</time>
</trkpt>
<trkpt lat="47.786316" lon="10.751143">
<ele>806.505</ele>
<time>2020-09-11T11:49:17Z</time>
</trkpt>
<trkpt lat="47.786274" lon="10.751163">
<ele>806.505</ele>
<time>2020-09-11T11:49:18Z</time>
</trkpt>
<trkpt lat="47.786232" lon="10.75118">
<ele>806.505</ele>
<time>2020-09-11T11:49:19Z</time>
</trkpt>
<trkpt lat="47.786194" lon="10.751191">
<ele>806.505</ele>
<time>2020-09-11T11:49:20Z</time>
</trkpt>
<trkpt lat="47.786148" lon="10.751202">
<ele>806.505</ele>
<time>2020-09-11T11:49:21Z</time>
</trkpt>
<trkpt lat="47.786102" lon="10.751212">
<ele>806.505</ele>
<time>2020-09-11T11:49:22Z</time>
</trkpt>
<trkpt lat="47.78606" lon="10.75122">
<ele>806.505</ele>
<time>2020-09-11T11:49:23Z</time>
</trkpt>
<trkpt lat="47.786015" lon="10.751228">
<ele>806.506</ele>
<time>2020-09-11T11:49:24Z</time>
</trkpt>
<trkpt lat="47.785969" lon="10.751237">
<ele>806.505</ele>
<time>2020-09-11T11:49:25Z</time>
</trkpt>
<trkpt lat="47.785923" lon="10.751244">
<ele>806.506</ele>
<time>2020-09-11T11:49:26Z</time>
</trkpt>
<trkpt lat="47.785873" lon="10.751249">
<ele>806.505</ele>
<time>2020-09-11T11:49:27Z</time>
</trkpt>
<trkpt lat="47.785824" lon="10.751258">
<ele>806.505</ele>
<time>2020-09-11T11:49:28Z</time>
</trkpt>
<trkpt lat="47.785778" lon="10.75126">
<ele>806.505</ele>
<time>2020-09-11T11:49:29Z</time>
</trkpt>
<trkpt lat="47.785732" lon="10.75126">
<ele>806.505</ele>
<time>2020-09-11T11:49:30Z</time>
</trkpt>
<trkpt lat="47.785683" lon="10.751258">
<ele>806.505</ele>
<time>2020-09-11T11:49:31Z</time>
</trkpt>
<trkpt lat="47.785637" lon="10.751262">
<ele>806.505</ele>
<time>2020-09-11T11:49:32Z</time>
</trkpt>
<trkpt lat="47.785583" lon="10.75127">
<ele>806.505</ele>
<time>2020-09-11T11:49:33Z</time>
</trkpt>
<trkpt lat="47.785538" lon="10.751289">
<ele>806.505</ele>
<time>2020-09-11T11:49:34Z</time>
</trkpt>
<trkpt lat="47.785496" lon="10.751318">
<ele>806.505</ele>
<time>2020-09-11T11:49:35Z</time>
</trkpt>
<trkpt lat="47.785454" lon="10.751335">
<ele>806.505</ele>
<time>2020-09-11T11:49:36Z</time>
</trkpt>
<trkpt lat="47.785408" lon="10.751338">
<ele>806.505</ele>
<time>2020-09-11T11:49:37Z</time>
</trkpt>
<trkpt lat="47.785358" lon="10.751337">
<ele>806.505</ele>
<time>2020-09-11T11:49:38Z</time>
</trkpt>
<trkpt lat="47.785313" lon="10.751333">
<ele>806.505</ele>
<time>2020-09-11T11:49:39Z</time>
</trkpt>
<trkpt lat="47.785259" lon="10.751328">
<ele>806.505</ele>
<time>2020-09-11T11:49:40Z</time>
</trkpt>
<trkpt lat="47.78521" lon="10.751325">
<ele>806.505</ele>
<time>2020-09-11T11:49:41Z</time>
</trkpt>
<trkpt lat="47.785156" lon="10.751323">
<ele>806.505</ele>
<time>2020-09-11T11:49:42Z</time>
</trkpt>
<trkpt lat="47.785103" lon="10.75132">
<ele>806.505</ele>
<time>2020-09-11T11:49:43Z</time>
</trkpt>
<trkpt lat="47.785049" lon="10.751315">
<ele>806.505</ele>
<time>2020-09-11T11:49:44Z</time>
</trkpt>
<trkpt lat="47.784992" lon="10.751312">
<ele>806.505</ele>
<time>2020-09-11T11:49:45Z</time>
</trkpt>
<trkpt lat="47.784939" lon="10.751308">
<ele>806.229</ele>
<time>2020-09-11T11:49:46Z</time>
</trkpt>
<trkpt lat="47.784882" lon="10.751304">
<ele>806.016</ele>
<time>2020-09-11T11:49:47Z</time>
</trkpt>
<trkpt lat="47.784828" lon="10.751297">
<ele>805.861</ele>
<time>2020-09-11T11:49:48Z</time>
</trkpt>
<trkpt lat="47.784767" lon="10.751289">
<ele>805.744</ele>
<time>2020-09-11T11:49:49Z</time>
</trkpt>
<trkpt lat="47.784714" lon="10.751283">
<ele>805.658</ele>
<time>2020-09-11T11:49:50Z</time>
</trkpt>
<trkpt lat="47.784653" lon="10.751281">
<ele>805.598</ele>
<time>2020-09-11T11:49:51Z</time>
</trkpt>
<trkpt lat="47.784595" lon="10.751281">
<ele>805.544</ele>
<time>2020-09-11T11:49:52Z</time>
</trkpt>
<trkpt lat="47.784534" lon="10.751275">
<ele>805.517</ele>
<time>2020-09-11T11:49:53Z</time>
</trkpt>
<trkpt lat="47.784477" lon="10.751266">
<ele>805.517</ele>
<time>2020-09-11T11:49:54Z</time>
</trkpt>
<trkpt lat="47.784412" lon="10.751262">
<ele>805.517</ele>
<time>2020-09-11T11:49:55Z</time>
</trkpt>
<trkpt lat="47.784348" lon="10.751255">
<ele>805.517</ele>
<time>2020-09-11T11:49:56Z</time>
</trkpt>
<trkpt lat="47.784286" lon="10.751248">
<ele>805.517</ele>
<time>2020-09-11T11:49:57Z</time>
</trkpt>
<trkpt lat="47.784222" lon="10.751242">
<ele>805.257</ele>
<time>2020-09-11T11:49:58Z</time>
</trkpt>
<trkpt lat="47.784153" lon="10.751237">
<ele>805.055</ele>
<time>2020-09-11T11:49:59Z</time>
</trkpt>
<trkpt lat="47.784088" lon="10.751233">
<ele>804.899</ele>
<time>2020-09-11T11:50:00Z</time>
</trkpt>
<trkpt lat="47.784019" lon="10.751226">
<ele>804.796</ele>
<time>2020-09-11T11:50:01Z</time>
</trkpt>
<trkpt lat="47.783955" lon="10.751224">
<ele>804.685</ele>
<time>2020-09-11T11:50:02Z</time>
</trkpt>
<trkpt lat="47.783886" lon="10.751224">
<ele>804.605</ele>
<time>2020-09-11T11:50:03Z</time>
</trkpt>
<trkpt lat="47.783817" lon="10.751224">
<ele>804.553</ele>
<time>2020-09-11T11:50:04Z</time>
</trkpt>
<trkpt lat="47.783752" lon="10.751225">
<ele>804.529</ele>
<time>2020-09-11T11:50:05Z</time>
</trkpt>
<trkpt lat="47.783688" lon="10.751226">
<ele>804.529</ele>
<time>2020-09-11T11:50:06Z</time>
</trkpt>
<trkpt lat="47.783619" lon="10.751228">
<ele>804.529</ele>
<time>2020-09-11T11:50:07Z</time>
</trkpt>
<trkpt lat="47.783554" lon="10.751228">
<ele>804.529</ele>
<time>2020-09-11T11:50:08Z</time>
</trkpt>
<trkpt lat="47.783493" lon="10.751232">
<ele>804.529</ele>
<time>2020-09-11T11:50:09Z</time>
</trkpt>
<trkpt lat="47.783424" lon="10.751235">
<ele>804.529</ele>
<time>2020-09-11T11:50:10Z</time>
</trkpt>
<trkpt lat="47.78336" lon="10.751241">
<ele>804.529</ele>
<time>2020-09-11T11:50:11Z</time>
</trkpt>
<trkpt lat="47.783298" lon="10.751247">
<ele>804.529</ele>
<time>2020-09-11T11:50:12Z</time>
</trkpt>
<trkpt lat="47.78323" lon="10.751255">
<ele>804.529</ele>
<time>2020-09-11T11:50:13Z</time>
</trkpt>
<trkpt lat="47.783165" lon="10.751264">
<ele>804.529</ele>
<time>2020-09-11T11:50:14Z</time>
</trkpt>
<trkpt lat="47.7831" lon="10.751273">
<ele>804.529</ele>
<time>2020-09-11T11:50:15Z</time>
</trkpt>
<trkpt lat="47.783035" lon="10.751285">
<ele>804.529</ele>
<time>2020-09-11T11:50:16Z</time>
</trkpt>
<trkpt lat="47.78297" lon="10.7513">
<ele>804.529</ele>
<time>2020-09-11T11:50:17Z</time>
</trkpt>
<trkpt lat="47.782902" lon="10.751314">
<ele>804.529</ele>
<time>2020-09-11T11:50:18Z</time>
</trkpt>
<trkpt lat="47.782833" lon="10.751331">
<ele>804.279</ele>
<time>2020-09-11T11:50:19Z</time>
</trkpt>
<trkpt lat="47.782764" lon="10.751351">
<ele>804.082</ele>
<time>2020-09-11T11:50:20Z</time>
</trkpt>
<trkpt lat="47.782692" lon="10.751375">
<ele>803.95</ele>
<time>2020-09-11T11:50:21Z</time>
</trkpt>
<trkpt lat="47.782619" lon="10.751404">
<ele>803.803</ele>
<time>2020-09-11T11:50:22Z</time>
</trkpt>
<trkpt lat="47.782547" lon="10.751431">
<ele>803.702</ele>
<time>2020-09-11T11:50:23Z</time>
</trkpt>
<trkpt lat="47.782475" lon="10.751461">
<ele>803.348</ele>
<time>2020-09-11T11:50:24Z</time>
</trkpt>
<trkpt lat="47.782402" lon="10.751494">
<ele>803.074</ele>
<time>2020-09-11T11:50:25Z</time>
</trkpt>
<trkpt lat="47.78233" lon="10.751528">
<ele>802.868</ele>
<time>2020-09-11T11:50:26Z</time>
</trkpt>
<trkpt lat="47.782261" lon="10.751566">
<ele>802.665</ele>
<time>2020-09-11T11:50:27Z</time>
</trkpt>
<trkpt lat="47.782192" lon="10.751605">
<ele>802.572</ele>
<time>2020-09-11T11:50:28Z</time>
</trkpt>
<trkpt lat="47.782124" lon="10.751641">
<ele>802.518</ele>
<time>2020-09-11T11:50:29Z</time>
</trkpt>
<trkpt lat="47.782059" lon="10.751681">
<ele>802.488</ele>
<time>2020-09-11T11:50:30Z</time>
</trkpt>
<trkpt lat="47.78199" lon="10.75172">
<ele>802.463</ele>
<time>2020-09-11T11:50:31Z</time>
</trkpt>
<trkpt lat="47.781925" lon="10.751759">
<ele>802.463</ele>
<time>2020-09-11T11:50:32Z</time>
</trkpt>
<trkpt lat="47.781864" lon="10.751794">
<ele>802.463</ele>
<time>2020-09-11T11:50:33Z</time>
</trkpt>
<trkpt lat="47.781803" lon="10.751828">
<ele>802.463</ele>
<time>2020-09-11T11:50:34Z</time>
</trkpt>
<trkpt lat="47.781742" lon="10.751863">
<ele>802.463</ele>
<time>2020-09-11T11:50:35Z</time>
</trkpt>
<trkpt lat="47.781681" lon="10.751899">
<ele>802.463</ele>
<time>2020-09-11T11:50:36Z</time>
</trkpt>
<trkpt lat="47.78162" lon="10.751932">
<ele>802.463</ele>
<time>2020-09-11T11:50:37Z</time>
</trkpt>
<trkpt lat="47.781559" lon="10.751962">
<ele>802.463</ele>
<time>2020-09-11T11:50:38Z</time>
</trkpt>
<trkpt lat="47.781498" lon="10.751987">
<ele>802.463</ele>
<time>2020-09-11T11:50:39Z</time>
</trkpt>
<trkpt lat="47.781437" lon="10.75201">
<ele>802.463</ele>
<time>2020-09-11T11:50:40Z</time>
</trkpt>
<trkpt lat="47.781372" lon="10.75203">
<ele>802.463</ele>
<time>2020-09-11T11:50:41Z</time>
</trkpt>
<trkpt lat="47.781307" lon="10.752048">
<ele>802.463</ele>
<time>2020-09-11T11:50:42Z</time>
</trkpt>
<trkpt lat="47.781246" lon="10.752062">
<ele>802.463</ele>
<time>2020-09-11T11:50:43Z</time>
</trkpt>
<trkpt lat="47.781181" lon="10.75207">
<ele>802.463</ele>
<time>2020-09-11T11:50:44Z</time>
</trkpt>
<trkpt lat="47.781113" lon="10.752077">
<ele>802.463</ele>
<time>2020-09-11T11:50:45Z</time>
</trkpt>
<trkpt lat="47.781044" lon="10.752087">
<ele>802.463</ele>
<time>2020-09-11T11:50:46Z</time>
</trkpt>
<trkpt lat="47.780975" lon="10.752088">
<ele>802.463</ele>
<time>2020-09-11T11:50:47Z</time>
</trkpt>
<trkpt lat="47.780899" lon="10.75209">
<ele>802.463</ele>
<time>2020-09-11T11:50:48Z</time>
</trkpt>
<trkpt lat="47.780823" lon="10.752083">
<ele>802.463</ele>
<time>2020-09-11T11:50:49Z</time>
</trkpt>
<trkpt lat="47.78075" lon="10.752075">
<ele>802.191</ele>
<time>2020-09-11T11:50:50Z</time>
</trkpt>
<trkpt lat="47.780674" lon="10.75206">
<ele>802.003</ele>
<time>2020-09-11T11:50:51Z</time>
</trkpt>
<trkpt lat="47.780594" lon="10.752039">
<ele>801.81</ele>
<time>2020-09-11T11:50:52Z</time>
</trkpt>
<trkpt lat="47.780521" lon="10.752012">
<ele>801.66</ele>
<time>2020-09-11T11:50:53Z</time>
</trkpt>
<trkpt lat="47.780445" lon="10.751983">
<ele>801.561</ele>
<time>2020-09-11T11:50:54Z</time>
</trkpt>
<trkpt lat="47.780369" lon="10.751955">
<ele>801.225</ele>
<time>2020-09-11T11:50:55Z</time>
</trkpt>
<trkpt lat="47.780293" lon="10.751924">
<ele>800.967</ele>
<time>2020-09-11T11:50:56Z</time>
</trkpt>
<trkpt lat="47.780212" lon="10.751892">
<ele>800.805</ele>
<time>2020-09-11T11:50:57Z</time>
</trkpt>
<trkpt lat="47.780132" lon="10.751855">
<ele>800.39</ele>
<time>2020-09-11T11:50:58Z</time>
</trkpt>
<trkpt lat="47.780056" lon="10.75182">
<ele>800.115</ele>
<time>2020-09-11T11:50:59Z</time>
</trkpt>
<trkpt lat="47.779976" lon="10.751785">
<ele>799.916</ele>
<time>2020-09-11T11:51:00Z</time>
</trkpt>
<trkpt lat="47.779903" lon="10.751754">
<ele>799.772</ele>
<time>2020-09-11T11:51:01Z</time>
</trkpt>
<trkpt lat="47.779827" lon="10.751727">
<ele>799.644</ele>
<time>2020-09-11T11:51:02Z</time>
</trkpt>
<trkpt lat="47.779755" lon="10.751705">
<ele>799.595</ele>
<time>2020-09-11T11:51:03Z</time>
</trkpt>
<trkpt lat="47.779682" lon="10.751685">
<ele>799.787</ele>
<time>2020-09-11T11:51:04Z</time>
</trkpt>
<trkpt lat="47.779613" lon="10.751666">
<ele>799.956</ele>
<time>2020-09-11T11:51:05Z</time>
</trkpt>
<trkpt lat="47.779545" lon="10.75165">
<ele>800.105</ele>
<time>2020-09-11T11:51:06Z</time>
</trkpt>
<trkpt lat="47.779472" lon="10.751637">
<ele>800.22</ele>
<time>2020-09-11T11:51:07Z</time>
</trkpt>
<trkpt lat="47.779404" lon="10.751623">
<ele>800.299</ele>
<time>2020-09-11T11:51:08Z</time>
</trkpt>
<trkpt lat="47.779339" lon="10.751616">
<ele>800.35</ele>
<time>2020-09-11T11:51:09Z</time>
</trkpt>
<trkpt lat="47.77927" lon="10.75161">
<ele>800.376</ele>
<time>2020-09-11T11:51:10Z</time>
</trkpt>
<trkpt lat="47.779202" lon="10.751607">
<ele>800.398</ele>
<time>2020-09-11T11:51:11Z</time>
</trkpt>
<trkpt lat="47.779133" lon="10.751603">
<ele>800.398</ele>
<time>2020-09-11T11:51:12Z</time>
</trkpt>
<trkpt lat="47.779064" lon="10.751601">
<ele>800.398</ele>
<time>2020-09-11T11:51:13Z</time>
</trkpt>
<trkpt lat="47.778996" lon="10.751599">
<ele>800.398</ele>
<time>2020-09-11T11:51:14Z</time>
</trkpt>
<trkpt lat="47.778927" lon="10.751595">
<ele>800.398</ele>
<time>2020-09-11T11:51:15Z</time>
</trkpt>
<trkpt lat="47.778858" lon="10.751589">
<ele>800.398</ele>
<time>2020-09-11T11:51:16Z</time>
</trkpt>
<trkpt lat="47.778786" lon="10.751582">
<ele>800.398</ele>
<time>2020-09-11T11:51:17Z</time>
</trkpt>
<trkpt lat="47.778713" lon="10.751574">
<ele>800.398</ele>
<time>2020-09-11T11:51:18Z</time>
</trkpt>
<trkpt lat="47.778637" lon="10.751561">
<ele>800.17</ele>
<time>2020-09-11T11:51:19Z</time>
</trkpt>
<trkpt lat="47.778564" lon="10.751545">
<ele>799.988</ele>
<time>2020-09-11T11:51:20Z</time>
</trkpt>
<trkpt lat="47.778484" lon="10.751524">
<ele>799.868</ele>
<time>2020-09-11T11:51:21Z</time>
</trkpt>
<trkpt lat="47.778404" lon="10.7515">
<ele>799.743</ele>
<time>2020-09-11T11:51:22Z</time>
</trkpt>
<trkpt lat="47.778324" lon="10.751475">
<ele>799.392</ele>
<time>2020-09-11T11:51:23Z</time>
</trkpt>
<trkpt lat="47.778244" lon="10.751445">
<ele>799.113</ele>
<time>2020-09-11T11:51:24Z</time>
</trkpt>
<trkpt lat="47.77816" lon="10.751413">
<ele>798.938</ele>
<time>2020-09-11T11:51:25Z</time>
</trkpt>
<trkpt lat="47.77808" lon="10.751377">
<ele>798.524</ele>
<time>2020-09-11T11:51:26Z</time>
</trkpt>
<trkpt lat="47.778" lon="10.751337">
<ele>798.106</ele>
<time>2020-09-11T11:51:27Z</time>
</trkpt>
<trkpt lat="47.77792" lon="10.751293">
<ele>797.891</ele>
<time>2020-09-11T11:51:28Z</time>
</trkpt>
<trkpt lat="47.77784" lon="10.751248">
<ele>797.775</ele>
<time>2020-09-11T11:51:29Z</time>
</trkpt>
<trkpt lat="47.77776" lon="10.751199">
<ele>797.44</ele>
<time>2020-09-11T11:51:30Z</time>
</trkpt>
<trkpt lat="47.777679" lon="10.751148">
<ele>797.192</ele>
<time>2020-09-11T11:51:31Z</time>
</trkpt>
<trkpt lat="47.777599" lon="10.751099">
<ele>796.962</ele>
<time>2020-09-11T11:51:32Z</time>
</trkpt>
<trkpt lat="47.777519" lon="10.751048">
<ele>796.795</ele>
<time>2020-09-11T11:51:33Z</time>
</trkpt>
<trkpt lat="47.777435" lon="10.751">
<ele>796.688</ele>
<time>2020-09-11T11:51:34Z</time>
</trkpt>
<trkpt lat="47.777355" lon="10.750954">
<ele>796.611</ele>
<time>2020-09-11T11:51:35Z</time>
</trkpt>
<trkpt lat="47.777267" lon="10.750908">
<ele>796.561</ele>
<time>2020-09-11T11:51:36Z</time>
</trkpt>
<trkpt lat="47.777187" lon="10.750868">
<ele>796.538</ele>
<time>2020-09-11T11:51:37Z</time>
</trkpt>
<trkpt lat="47.777103" lon="10.75083">
<ele>796.538</ele>
<time>2020-09-11T11:51:38Z</time>
</trkpt>
<trkpt lat="47.777023" lon="10.7508">
<ele>796.291</ele>
<time>2020-09-11T11:51:39Z</time>
</trkpt>
<trkpt lat="47.776939" lon="10.750778">
<ele>796.098</ele>
<time>2020-09-11T11:51:40Z</time>
</trkpt>
<trkpt lat="47.776863" lon="10.750763">
<ele>796.138</ele>
<time>2020-09-11T11:51:41Z</time>
</trkpt>
<trkpt lat="47.776787" lon="10.750755">
<ele>796.177</ele>
<time>2020-09-11T11:51:42Z</time>
</trkpt>
<trkpt lat="47.776714" lon="10.750751">
<ele>796.156</ele>
<time>2020-09-11T11:51:43Z</time>
</trkpt>
<trkpt lat="47.776646" lon="10.750753">
<ele>796.485</ele>
<time>2020-09-11T11:51:44Z</time>
</trkpt>
<trkpt lat="47.776585" lon="10.750763">
<ele>796.756</ele>
<time>2020-09-11T11:51:45Z</time>
</trkpt>
<trkpt lat="47.776527" lon="10.750773">
<ele>796.979</ele>
<time>2020-09-11T11:51:46Z</time>
</trkpt>
<trkpt lat="47.77647" lon="10.750784">
<ele>797.126</ele>
<time>2020-09-11T11:51:47Z</time>
</trkpt>
<trkpt lat="47.776417" lon="10.750793">
<ele>797.53</ele>
<time>2020-09-11T11:51:48Z</time>
</trkpt>
<trkpt lat="47.776363" lon="10.750803">
<ele>797.845</ele>
<time>2020-09-11T11:51:49Z</time>
</trkpt>
<trkpt lat="47.776318" lon="10.750812">
<ele>798.045</ele>
<time>2020-09-11T11:51:50Z</time>
</trkpt>
<trkpt lat="47.776268" lon="10.750824">
<ele>798.462</ele>
<time>2020-09-11T11:51:51Z</time>
</trkpt>
<trkpt lat="47.776222" lon="10.750832">
<ele>798.816</ele>
<time>2020-09-11T11:51:52Z</time>
</trkpt>
<trkpt lat="47.776176" lon="10.75084">
<ele>799.082</ele>
<time>2020-09-11T11:51:53Z</time>
</trkpt>
<trkpt lat="47.776131" lon="10.750843">
<ele>799.563</ele>
<time>2020-09-11T11:51:54Z</time>
</trkpt>
<trkpt lat="47.776085" lon="10.750843">
<ele>799.948</ele>
<time>2020-09-11T11:51:55Z</time>
</trkpt>
<trkpt lat="47.776035" lon="10.750843">
<ele>800.193</ele>
<time>2020-09-11T11:51:56Z</time>
</trkpt>
<trkpt lat="47.77599" lon="10.750841">
<ele>800.662</ele>
<time>2020-09-11T11:51:57Z</time>
</trkpt>
<trkpt lat="47.77594" lon="10.75084">
<ele>801.026</ele>
<time>2020-09-11T11:51:58Z</time>
</trkpt>
<trkpt lat="47.775894" lon="10.750834">
<ele>801.316</ele>
<time>2020-09-11T11:51:59Z</time>
</trkpt>
<trkpt lat="47.775852" lon="10.750825">
<ele>801.444</ele>
<time>2020-09-11T11:52:00Z</time>
</trkpt>
<trkpt lat="47.775806" lon="10.750813">
<ele>801.779</ele>
<time>2020-09-11T11:52:01Z</time>
</trkpt>
<trkpt lat="47.775764" lon="10.750798">
<ele>802.051</ele>
<time>2020-09-11T11:52:02Z</time>
</trkpt>
<trkpt lat="47.775719" lon="10.750784">
<ele>802.258</ele>
<time>2020-09-11T11:52:03Z</time>
</trkpt>
<trkpt lat="47.775677" lon="10.750765">
<ele>802.408</ele>
<time>2020-09-11T11:52:04Z</time>
</trkpt>
<trkpt lat="47.775635" lon="10.750747">
<ele>802.505</ele>
<time>2020-09-11T11:52:05Z</time>
</trkpt>
<trkpt lat="47.775593" lon="10.750728">
<ele>802.577</ele>
<time>2020-09-11T11:52:06Z</time>
</trkpt>
<trkpt lat="47.775551" lon="10.750705">
<ele>802.622</ele>
<time>2020-09-11T11:52:07Z</time>
</trkpt>
<trkpt lat="47.775505" lon="10.75068">
<ele>802.643</ele>
<time>2020-09-11T11:52:08Z</time>
</trkpt>
<trkpt lat="47.775463" lon="10.750656">
<ele>802.643</ele>
<time>2020-09-11T11:52:09Z</time>
</trkpt>
<trkpt lat="47.775417" lon="10.750628">
<ele>802.643</ele>
<time>2020-09-11T11:52:10Z</time>
</trkpt>
<trkpt lat="47.775375" lon="10.7506">
<ele>802.866</ele>
<time>2020-09-11T11:52:11Z</time>
</trkpt>
<trkpt lat="47.775337" lon="10.75057">
<ele>803.075</ele>
<time>2020-09-11T11:52:12Z</time>
</trkpt>
<trkpt lat="47.775299" lon="10.75054">
<ele>803.245</ele>
<time>2020-09-11T11:52:13Z</time>
</trkpt>
<trkpt lat="47.775257" lon="10.750506">
<ele>803.381</ele>
<time>2020-09-11T11:52:14Z</time>
</trkpt>
<trkpt lat="47.775219" lon="10.750474">
<ele>803.483</ele>
<time>2020-09-11T11:52:15Z</time>
</trkpt>
<trkpt lat="47.775177" lon="10.750441">
<ele>803.557</ele>
<time>2020-09-11T11:52:16Z</time>
</trkpt>
<trkpt lat="47.775143" lon="10.750403">
<ele>803.606</ele>
<time>2020-09-11T11:52:17Z</time>
</trkpt>
<trkpt lat="47.775105" lon="10.750367">
<ele>803.631</ele>
<time>2020-09-11T11:52:18Z</time>
</trkpt>
<trkpt lat="47.775066" lon="10.750328">
<ele>803.631</ele>
<time>2020-09-11T11:52:19Z</time>
</trkpt>
<trkpt lat="47.775032" lon="10.750288">
<ele>803.631</ele>
<time>2020-09-11T11:52:20Z</time>
</trkpt>
<trkpt lat="47.774994" lon="10.750246">
<ele>803.631</ele>
<time>2020-09-11T11:52:21Z</time>
</trkpt>
<trkpt lat="47.77496" lon="10.750205">
<ele>803.631</ele>
<time>2020-09-11T11:52:22Z</time>
</trkpt>
<trkpt lat="47.774921" lon="10.750164">
<ele>803.631</ele>
<time>2020-09-11T11:52:23Z</time>
</trkpt>
<trkpt lat="47.774883" lon="10.75012">
<ele>803.631</ele>
<time>2020-09-11T11:52:24Z</time>
</trkpt>
<trkpt lat="47.774849" lon="10.750074">
<ele>803.631</ele>
<time>2020-09-11T11:52:25Z</time>
</trkpt>
<trkpt lat="47.774811" lon="10.750029">
<ele>803.631</ele>
<time>2020-09-11T11:52:26Z</time>
</trkpt>
<trkpt lat="47.774773" lon="10.74998">
<ele>803.631</ele>
<time>2020-09-11T11:52:27Z</time>
</trkpt>
<trkpt lat="47.774738" lon="10.749927">
<ele>803.631</ele>
<time>2020-09-11T11:52:28Z</time>
</trkpt>
<trkpt lat="47.7747" lon="10.74987">
<ele>803.631</ele>
<time>2020-09-11T11:52:29Z</time>
</trkpt>
<trkpt lat="47.77467" lon="10.749812">
<ele>803.631</ele>
<time>2020-09-11T11:52:30Z</time>
</trkpt>
<trkpt lat="47.774639" lon="10.749749">
<ele>803.408</ele>
<time>2020-09-11T11:52:31Z</time>
</trkpt>
<trkpt lat="47.774609" lon="10.749688">
<ele>803.199</ele>
<time>2020-09-11T11:52:32Z</time>
</trkpt>
<trkpt lat="47.774582" lon="10.749621">
<ele>803.029</ele>
<time>2020-09-11T11:52:33Z</time>
</trkpt>
<trkpt lat="47.774555" lon="10.749548">
<ele>802.914</ele>
<time>2020-09-11T11:52:34Z</time>
</trkpt>
<trkpt lat="47.774525" lon="10.749476">
<ele>802.575</ele>
<time>2020-09-11T11:52:35Z</time>
</trkpt>
<trkpt lat="47.774494" lon="10.749407">
<ele>802.309</ele>
<time>2020-09-11T11:52:36Z</time>
</trkpt>
<trkpt lat="47.77446" lon="10.749336">
<ele>802.107</ele>
<time>2020-09-11T11:52:37Z</time>
</trkpt>
<trkpt lat="47.774429" lon="10.749273">
<ele>801.962</ele>
<time>2020-09-11T11:52:38Z</time>
</trkpt>
<trkpt lat="47.774395" lon="10.749217">
<ele>801.852</ele>
<time>2020-09-11T11:52:39Z</time>
</trkpt>
<trkpt lat="47.774357" lon="10.74917">
<ele>801.805</ele>
<time>2020-09-11T11:52:40Z</time>
</trkpt>
<trkpt lat="47.774319" lon="10.749131">
<ele>801.769</ele>
<time>2020-09-11T11:52:41Z</time>
</trkpt>
<trkpt lat="47.774277" lon="10.749106">
<ele>801.745</ele>
<time>2020-09-11T11:52:42Z</time>
</trkpt>
<trkpt lat="47.774231" lon="10.749088">
<ele>801.745</ele>
<time>2020-09-11T11:52:43Z</time>
</trkpt>
<trkpt lat="47.774185" lon="10.749079">
<ele>801.745</ele>
<time>2020-09-11T11:52:44Z</time>
</trkpt>
<trkpt lat="47.774143" lon="10.749075">
<ele>801.744</ele>
<time>2020-09-11T11:52:45Z</time>
</trkpt>
<trkpt lat="47.774101" lon="10.749075">
<ele>801.745</ele>
<time>2020-09-11T11:52:46Z</time>
</trkpt>
<trkpt lat="47.774059" lon="10.749082">
<ele>801.744</ele>
<time>2020-09-11T11:52:47Z</time>
</trkpt>
<trkpt lat="47.77401" lon="10.749088">
<ele>801.745</ele>
<time>2020-09-11T11:52:48Z</time>
</trkpt>
<trkpt lat="47.773964" lon="10.749095">
<ele>801.498</ele>
<time>2020-09-11T11:52:49Z</time>
</trkpt>
<trkpt lat="47.773918" lon="10.749104">
<ele>801.299</ele>
<time>2020-09-11T11:52:50Z</time>
</trkpt>
<trkpt lat="47.77388" lon="10.749119">
<ele>801.167</ele>
<time>2020-09-11T11:52:51Z</time>
</trkpt>
<trkpt lat="47.773846" lon="10.749148">
<ele>801.021</ele>
<time>2020-09-11T11:52:52Z</time>
</trkpt>
<trkpt lat="47.773819" lon="10.749178">
<ele>800.91</ele>
<time>2020-09-11T11:52:53Z</time>
</trkpt>
<trkpt lat="47.7738" lon="10.749215">
<ele>800.831</ele>
<time>2020-09-11T11:52:54Z</time>
</trkpt>
<trkpt lat="47.773785" lon="10.749257">
<ele>800.783</ele>
<time>2020-09-11T11:52:55Z</time>
</trkpt>
<trkpt lat="47.773781" lon="10.749305">
<ele>800.757</ele>
<time>2020-09-11T11:52:56Z</time>
</trkpt>
<trkpt lat="47.773788" lon="10.749349">
<ele>800.757</ele>
<time>2020-09-11T11:52:57Z</time>
</trkpt>
<trkpt lat="47.773804" lon="10.749373">
<ele>800.757</ele>
<time>2020-09-11T11:52:58Z</time>
</trkpt>
<trkpt lat="47.773819" lon="10.749389">
<ele>800.757</ele>
<time>2020-09-11T11:52:59Z</time>
</trkpt>
<trkpt lat="47.773842" lon="10.749412">
<ele>800.757</ele>
<time>2020-09-11T11:53:00Z</time>
</trkpt>
<trkpt lat="47.773865" lon="10.749427">
<ele>800.757</ele>
<time>2020-09-11T11:53:01Z</time>
</trkpt>
<trkpt lat="47.773884" lon="10.749437">
<ele>800.757</ele>
<time>2020-09-11T11:53:02Z</time>
</trkpt>
<trkpt lat="47.773899" lon="10.749435">
<ele>800.757</ele>
<time>2020-09-11T11:53:03Z</time>
</trkpt>
<trkpt lat="47.773907" lon="10.74942">
<ele>800.757</ele>
<time>2020-09-11T11:53:04Z</time>
</trkpt>
<trkpt lat="47.773918" lon="10.749393">
<ele>800.986</ele>
<time>2020-09-11T11:53:05Z</time>
</trkpt>
<trkpt lat="47.773926" lon="10.74937">
<ele>801.181</ele>
<time>2020-09-11T11:53:06Z</time>
</trkpt>
<trkpt lat="47.773933" lon="10.749343">
<ele>801.333</ele>
<time>2020-09-11T11:53:07Z</time>
</trkpt>
<trkpt lat="47.773933" lon="10.749324">
<ele>801.44</ele>
<time>2020-09-11T11:53:08Z</time>
</trkpt>
<trkpt lat="47.773933" lon="10.749313">
<ele>801.524</ele>
<time>2020-09-11T11:53:09Z</time>
</trkpt>
<trkpt lat="47.773933" lon="10.749309">
<ele>801.58</ele>
<time>2020-09-11T11:53:10Z</time>
</trkpt>
<trkpt lat="47.77393" lon="10.749293">
<ele>801.633</ele>
<time>2020-09-11T11:53:11Z</time>
</trkpt>
<trkpt lat="47.773907" lon="10.749271">
<ele>801.512</ele>
<time>2020-09-11T11:55:26Z</time>
</trkpt>
<trkpt lat="47.773907" lon="10.749263">
<ele>801.494</ele>
<time>2020-09-11T11:55:27Z</time>
</trkpt>
<trkpt lat="47.773899" lon="10.749267">
<ele>801.354</ele>
<time>2020-09-11T11:55:28Z</time>
</trkpt>
<trkpt lat="47.773895" lon="10.749263">
<ele>801.242</ele>
<time>2020-09-11T11:55:29Z</time>
</trkpt>
<trkpt lat="47.773907" lon="10.749263">
<ele>801.141</ele>
<time>2020-09-11T11:55:30Z</time>
</trkpt>
<trkpt lat="47.773907" lon="10.749262">
<ele>801.034</ele>
<time>2020-09-11T11:55:32Z</time>
</trkpt>
<trkpt lat="47.773914" lon="10.749262">
<ele>801.041</ele>
<time>2020-09-11T11:55:33Z</time>
</trkpt>
<trkpt lat="47.773926" lon="10.749275">
<ele>801.027</ele>
<time>2020-09-11T11:55:58Z</time>
</trkpt>
<trkpt lat="47.773922" lon="10.749275">
<ele>801.027</ele>
<time>2020-09-11T11:55:59Z</time>
</trkpt>
<trkpt lat="47.773926" lon="10.749275">
<ele>801.027</ele>
<time>2020-09-11T11:56:00Z</time>
</trkpt>
<trkpt lat="47.77393" lon="10.749282">
<ele>801.027</ele>
<time>2020-09-11T11:56:01Z</time>
</trkpt>
<trkpt lat="47.773937" lon="10.749284">
<ele>801.027</ele>
<time>2020-09-11T11:56:02Z</time>
</trkpt>
<trkpt lat="47.773941" lon="10.749285">
<ele>801.026</ele>
<time>2020-09-11T11:56:03Z</time>
</trkpt>
<trkpt lat="47.773941" lon="10.749287">
<ele>801.027</ele>
<time>2020-09-11T11:56:04Z</time>
</trkpt>
<trkpt lat="47.773945" lon="10.749289">
<ele>801.027</ele>
<time>2020-09-11T11:56:05Z</time>
</trkpt>
<trkpt lat="47.773945" lon="10.74929">
<ele>801.027</ele>
<time>2020-09-11T11:56:06Z</time>
</trkpt>
<trkpt lat="47.773945" lon="10.749285">
<ele>801.027</ele>
<time>2020-09-11T11:56:08Z</time>
</trkpt>
<trkpt lat="47.773941" lon="10.749284">
<ele>801.027</ele>
<time>2020-09-11T11:56:09Z</time>
</trkpt>
<trkpt lat="47.773945" lon="10.749282">
<ele>801.027</ele>
<time>2020-09-11T11:56:10Z</time>
</trkpt>
<trkpt lat="47.773945" lon="10.749284">
<ele>801.026</ele>
<time>2020-09-11T11:56:11Z</time>
</trkpt>
<trkpt lat="47.773949" lon="10.749285">
<ele>801.027</ele>
<time>2020-09-11T11:56:12Z</time>
</trkpt>
<trkpt lat="47.773941" lon="10.749273">
<ele>801.027</ele>
<time>2020-09-11T11:56:48Z</time>
</trkpt>
<trkpt lat="47.773941" lon="10.749275">
<ele>801.08</ele>
<time>2020-09-11T11:56:50Z</time>
</trkpt>
<trkpt lat="47.773941" lon="10.749273">
<ele>801.092</ele>
<time>2020-09-11T11:56:51Z</time>
</trkpt>
<trkpt lat="47.773941" lon="10.749263">
<ele>801.1</ele>
<time>2020-09-11T11:57:01Z</time>
</trkpt>
<trkpt lat="47.773941" lon="10.74926">
<ele>801.11</ele>
<time>2020-09-11T11:57:02Z</time>
</trkpt>
<trkpt lat="47.773941" lon="10.749262">
<ele>801.113</ele>
<time>2020-09-11T11:57:03Z</time>
</trkpt>
<trkpt lat="47.773949" lon="10.749282">
<ele>801.115</ele>
<time>2020-09-11T11:57:18Z</time>
</trkpt>
<trkpt lat="47.773956" lon="10.749289">
<ele>801.117</ele>
<time>2020-09-11T11:57:19Z</time>
</trkpt>
<trkpt lat="47.773952" lon="10.749293">
<ele>801.116</ele>
<time>2020-09-11T11:57:20Z</time>
</trkpt>
<trkpt lat="47.77396" lon="10.749297">
<ele>801.117</ele>
<time>2020-09-11T11:57:21Z</time>
</trkpt>
<trkpt lat="47.773979" lon="10.74932">
<ele>801.116</ele>
<time>2020-09-11T11:57:32Z</time>
</trkpt>
<trkpt lat="47.773983" lon="10.749324">
<ele>801.117</ele>
<time>2020-09-11T11:57:33Z</time>
</trkpt>
<trkpt lat="47.773987" lon="10.749329">
<ele>801.117</ele>
<time>2020-09-11T11:57:34Z</time>
</trkpt>
<trkpt lat="47.773991" lon="10.749332">
<ele>801.116</ele>
<time>2020-09-11T11:57:35Z</time>
</trkpt>
<trkpt lat="47.773983" lon="10.749329">
<ele>801.116</ele>
<time>2020-09-11T11:57:50Z</time>
</trkpt>
<trkpt lat="47.773987" lon="10.749327">
<ele>801.117</ele>
<time>2020-09-11T11:57:52Z</time>
</trkpt>
<trkpt lat="47.773972" lon="10.749309">
<ele>801.117</ele>
<time>2020-09-11T11:58:05Z</time>
</trkpt>
<trkpt lat="47.773968" lon="10.749309">
<ele>801.117</ele>
<time>2020-09-11T11:58:06Z</time>
</trkpt>
<trkpt lat="47.773972" lon="10.749307">
<ele>801.116</ele>
<time>2020-09-11T11:58:08Z</time>
</trkpt>
<trkpt lat="47.77396" lon="10.749307">
<ele>801.116</ele>
<time>2020-09-11T11:58:09Z</time>
</trkpt>
<trkpt lat="47.77396" lon="10.749305">
<ele>801.116</ele>
<time>2020-09-11T11:58:10Z</time>
</trkpt>
<trkpt lat="47.77396" lon="10.7493">
<ele>801.117</ele>
<time>2020-09-11T11:58:11Z</time>
</trkpt>
<trkpt lat="47.77396" lon="10.749295">
<ele>801.116</ele>
<time>2020-09-11T11:58:12Z</time>
</trkpt>
<trkpt lat="47.773956" lon="10.749292">
<ele>801.117</ele>
<time>2020-09-11T11:58:13Z</time>
</trkpt>
<trkpt lat="47.773952" lon="10.74929">
<ele>801.116</ele>
<time>2020-09-11T11:58:14Z</time>
</trkpt>
<trkpt lat="47.773949" lon="10.749289">
<ele>801.117</ele>
<time>2020-09-11T11:58:15Z</time>
</trkpt>
<trkpt lat="47.773949" lon="10.74929">
<ele>801.117</ele>
<time>2020-09-11T11:58:16Z</time>
</trkpt>
<trkpt lat="47.773941" lon="10.749285">
<ele>801.117</ele>
<time>2020-09-11T11:58:19Z</time>
</trkpt>
<trkpt lat="47.773933" lon="10.749289">
<ele>801.117</ele>
<time>2020-09-11T11:58:20Z</time>
</trkpt>
<trkpt lat="47.773933" lon="10.749287">
<ele>801.117</ele>
<time>2020-09-11T11:58:21Z</time>
</trkpt>
<trkpt lat="47.773933" lon="10.749285">
<ele>801.116</ele>
<time>2020-09-11T11:58:22Z</time>
</trkpt>
<trkpt lat="47.773914" lon="10.749282">
<ele>801.117</ele>
<time>2020-09-11T11:58:29Z</time>
</trkpt>
<trkpt lat="47.773907" lon="10.749285">
<ele>801.116</ele>
<time>2020-09-11T11:58:30Z</time>
</trkpt>
<trkpt lat="47.773903" lon="10.749287">
<ele>801.117</ele>
<time>2020-09-11T11:58:33Z</time>
</trkpt>
<trkpt lat="47.773903" lon="10.749289">
<ele>801.117</ele>
<time>2020-09-11T11:58:34Z</time>
</trkpt>
<trkpt lat="47.773899" lon="10.749289">
<ele>801.117</ele>
<time>2020-09-11T11:58:35Z</time>
</trkpt>
<trkpt lat="47.773899" lon="10.74929">
<ele>801.116</ele>
<time>2020-09-11T11:58:36Z</time>
</trkpt>
<trkpt lat="47.773891" lon="10.74929">
<ele>801.117</ele>
<time>2020-09-11T11:58:39Z</time>
</trkpt>
<trkpt lat="47.773884" lon="10.749292">
<ele>801.116</ele>
<time>2020-09-11T11:58:40Z</time>
</trkpt>
<trkpt lat="47.77388" lon="10.749292">
<ele>801.117</ele>
<time>2020-09-11T11:58:41Z</time>
</trkpt>
<trkpt lat="47.773872" lon="10.749305">
<ele>801.117</ele>
<time>2020-09-11T11:58:49Z</time>
</trkpt>
<trkpt lat="47.773872" lon="10.749307">
<ele>801.117</ele>
<time>2020-09-11T11:58:50Z</time>
</trkpt>
<trkpt lat="47.773872" lon="10.749305">
<ele>801.116</ele>
<time>2020-09-11T11:58:51Z</time>
</trkpt>
<trkpt lat="47.773872" lon="10.749307">
<ele>801.117</ele>
<time>2020-09-11T11:58:52Z</time>
</trkpt>
<trkpt lat="47.773865" lon="10.749309">
<ele>801.117</ele>
<time>2020-09-11T11:58:58Z</time>
</trkpt>
<trkpt lat="47.773857" lon="10.74931">
<ele>801.117</ele>
<time>2020-09-11T11:58:59Z</time>
</trkpt>
<trkpt lat="47.773853" lon="10.74931">
<ele>801.117</ele>
<time>2020-09-11T11:59:00Z</time>
</trkpt>
<trkpt lat="47.773853" lon="10.749309">
<ele>801.117</ele>
<time>2020-09-11T11:59:01Z</time>
</trkpt>
<trkpt lat="47.773861" lon="10.74931">
<ele>801.116</ele>
<time>2020-09-11T11:59:02Z</time>
</trkpt>
<trkpt lat="47.773869" lon="10.749313">
<ele>801.117</ele>
<time>2020-09-11T11:59:03Z</time>
</trkpt>
<trkpt lat="47.77388" lon="10.749313">
<ele>801.117</ele>
<time>2020-09-11T11:59:17Z</time>
</trkpt>
<trkpt lat="47.773872" lon="10.749311">
<ele>801.117</ele>
<time>2020-09-11T11:59:18Z</time>
</trkpt>
<trkpt lat="47.773872" lon="10.749315">
<ele>801.117</ele>
<time>2020-09-11T11:59:19Z</time>
</trkpt>
<trkpt lat="47.773869" lon="10.749318">
<ele>801.117</ele>
<time>2020-09-11T11:59:20Z</time>
</trkpt>
<trkpt lat="47.773872" lon="10.749318">
<ele>801.117</ele>
<time>2020-09-11T11:59:21Z</time>
</trkpt>
<trkpt lat="47.773888" lon="10.749318">
<ele>801.117</ele>
<time>2020-09-11T11:59:28Z</time>
</trkpt>
<trkpt lat="47.773888" lon="10.749322">
<ele>801.116</ele>
<time>2020-09-11T11:59:29Z</time>
</trkpt>
<trkpt lat="47.773891" lon="10.749327">
<ele>801.117</ele>
<time>2020-09-11T11:59:30Z</time>
</trkpt>
<trkpt lat="47.773899" lon="10.749327">
<ele>801.116</ele>
<time>2020-09-11T11:59:31Z</time>
</trkpt>
<trkpt lat="47.773907" lon="10.749324">
<ele>801.117</ele>
<time>2020-09-11T11:59:32Z</time>
</trkpt>
<trkpt lat="47.773911" lon="10.749275">
<ele>801.117</ele>
<time>2020-09-11T11:59:59Z</time>
</trkpt>
<trkpt lat="47.773911" lon="10.749282">
<ele>801.116</ele>
<time>2020-09-11T12:00:00Z</time>
</trkpt>
<trkpt lat="47.773914" lon="10.74928">
<ele>801.117</ele>
<time>2020-09-11T12:00:01Z</time>
</trkpt>
<trkpt lat="47.773918" lon="10.749278">
<ele>801.117</ele>
<time>2020-09-11T12:00:02Z</time>
</trkpt>
<trkpt lat="47.773918" lon="10.749285">
<ele>801.117</ele>
<time>2020-09-11T12:00:09Z</time>
</trkpt>
<trkpt lat="47.773914" lon="10.74929">
<ele>801.116</ele>
<time>2020-09-11T12:00:10Z</time>
</trkpt>
<trkpt lat="47.773914" lon="10.749293">
<ele>801.116</ele>
<time>2020-09-11T12:00:12Z</time>
</trkpt>
<trkpt lat="47.773918" lon="10.749303">
<ele>801.117</ele>
<time>2020-09-11T12:00:19Z</time>
</trkpt>
<trkpt lat="47.773914" lon="10.749307">
<ele>801.117</ele>
<time>2020-09-11T12:00:20Z</time>
</trkpt>
<trkpt lat="47.773914" lon="10.749305">
<ele>801.117</ele>
<time>2020-09-11T12:00:21Z</time>
</trkpt>
<trkpt lat="47.773918" lon="10.749305">
<ele>801.117</ele>
<time>2020-09-11T12:00:23Z</time>
</trkpt>
<trkpt lat="47.773918" lon="10.74931">
<ele>801.117</ele>
<time>2020-09-11T12:00:39Z</time>
</trkpt>
<trkpt lat="47.773911" lon="10.749313">
<ele>801.116</ele>
<time>2020-09-11T12:00:40Z</time>
</trkpt>
<trkpt lat="47.773911" lon="10.749311">
<ele>801.116</ele>
<time>2020-09-11T12:00:41Z</time>
</trkpt>
<trkpt lat="47.773911" lon="10.74931">
<ele>801.116</ele>
<time>2020-09-11T12:00:42Z</time>
</trkpt>
<trkpt lat="47.773911" lon="10.749307">
<ele>801.116</ele>
<time>2020-09-11T12:00:48Z</time>
</trkpt>
<trkpt lat="47.773907" lon="10.74931">
<ele>801.116</ele>
<time>2020-09-11T12:00:49Z</time>
</trkpt>
<trkpt lat="47.773907" lon="10.749313">
<ele>801.117</ele>
<time>2020-09-11T12:00:50Z</time>
</trkpt>
<trkpt lat="47.773907" lon="10.749311">
<ele>801.117</ele>
<time>2020-09-11T12:00:51Z</time>
</trkpt>
<trkpt lat="47.773911" lon="10.749303">
<ele>801.117</ele>
<time>2020-09-11T12:00:58Z</time>
</trkpt>
<trkpt lat="47.773911" lon="10.749301">
<ele>801.117</ele>
<time>2020-09-11T12:00:59Z</time>
</trkpt>
<trkpt lat="47.773911" lon="10.749303">
<ele>801.117</ele>
<time>2020-09-11T12:01:00Z</time>
</trkpt>
<trkpt lat="47.773922" lon="10.749295">
<ele>801.117</ele>
<time>2020-09-11T12:01:01Z</time>
</trkpt>
<trkpt lat="47.773933" lon="10.749297">
<ele>801.117</ele>
<time>2020-09-11T12:01:02Z</time>
</trkpt>
<trkpt lat="47.773949" lon="10.749301">
<ele>801.117</ele>
<time>2020-09-11T12:01:09Z</time>
</trkpt>
<trkpt lat="47.773945" lon="10.749309">
<ele>801.117</ele>
<time>2020-09-11T12:01:10Z</time>
</trkpt>
<trkpt lat="47.773945" lon="10.749305">
<ele>801.117</ele>
<time>2020-09-11T12:01:11Z</time>
</trkpt>
<trkpt lat="47.773949" lon="10.749301">
<ele>801.117</ele>
<time>2020-09-11T12:01:12Z</time>
</trkpt>
<trkpt lat="47.773972" lon="10.749303">
<ele>801.117</ele>
<time>2020-09-11T12:01:26Z</time>
</trkpt>
<trkpt lat="47.773972" lon="10.749305">
<ele>801.116</ele>
<time>2020-09-11T12:01:27Z</time>
</trkpt>
<trkpt lat="47.773972" lon="10.749307">
<ele>801.116</ele>
<time>2020-09-11T12:01:28Z</time>
</trkpt>
<trkpt lat="47.773968" lon="10.749313">
<ele>801.117</ele>
<time>2020-09-11T12:01:29Z</time>
</trkpt>
<trkpt lat="47.773972" lon="10.749317">
<ele>801.116</ele>
<time>2020-09-11T12:01:30Z</time>
</trkpt>
<trkpt lat="47.773972" lon="10.749315">
<ele>801.117</ele>
<time>2020-09-11T12:01:31Z</time>
</trkpt>
<trkpt lat="47.773972" lon="10.749313">
<ele>801.117</ele>
<time>2020-09-11T12:01:32Z</time>
</trkpt>
<trkpt lat="47.773975" lon="10.749313">
<ele>801.117</ele>
<time>2020-09-11T12:01:33Z</time>
</trkpt>
<trkpt lat="47.773972" lon="10.749311">
<ele>801.117</ele>
<time>2020-09-11T12:01:34Z</time>
</trkpt>
<trkpt lat="47.77396" lon="10.749317">
<ele>801.116</ele>
<time>2020-09-11T12:01:39Z</time>
</trkpt>
<trkpt lat="47.773956" lon="10.749325">
<ele>801.117</ele>
<time>2020-09-11T12:01:40Z</time>
</trkpt>
<trkpt lat="47.773952" lon="10.749325">
<ele>801.117</ele>
<time>2020-09-11T12:01:42Z</time>
</trkpt>
<trkpt lat="47.773949" lon="10.749336">
<ele>801.117</ele>
<time>2020-09-11T12:01:51Z</time>
</trkpt>
<trkpt lat="47.773952" lon="10.749334">
<ele>801.117</ele>
<time>2020-09-11T12:01:52Z</time>
</trkpt>
<trkpt lat="47.773952" lon="10.749336">
<ele>801.117</ele>
<time>2020-09-11T12:01:53Z</time>
</trkpt>
<trkpt lat="47.773952" lon="10.749338">
<ele>801.117</ele>
<time>2020-09-11T12:01:54Z</time>
</trkpt>
<trkpt lat="47.773949" lon="10.749336">
<ele>801.116</ele>
<time>2020-09-11T12:01:55Z</time>
</trkpt>
<trkpt lat="47.773941" lon="10.749343">
<ele>801.117</ele>
<time>2020-09-11T12:01:59Z</time>
</trkpt>
<trkpt lat="47.773937" lon="10.749349">
<ele>801.117</ele>
<time>2020-09-11T12:02:00Z</time>
</trkpt>
<trkpt lat="47.773941" lon="10.749349">
<ele>801.117</ele>
<time>2020-09-11T12:02:01Z</time>
</trkpt>
<trkpt lat="47.773937" lon="10.749347">
<ele>801.116</ele>
<time>2020-09-11T12:02:02Z</time>
</trkpt>
<trkpt lat="47.773937" lon="10.749357">
<ele>801.117</ele>
<time>2020-09-11T12:02:09Z</time>
</trkpt>
<trkpt lat="47.773933" lon="10.749366">
<ele>801.116</ele>
<time>2020-09-11T12:02:10Z</time>
</trkpt>
<trkpt lat="47.773933" lon="10.749367">
<ele>801.117</ele>
<time>2020-09-11T12:02:11Z</time>
</trkpt>
<trkpt lat="47.773926" lon="10.749383">
<ele>801.117</ele>
<time>2020-09-11T12:02:50Z</time>
</trkpt>
<trkpt lat="47.773926" lon="10.749382">
<ele>801.117</ele>
<time>2020-09-11T12:02:51Z</time>
</trkpt>
<trkpt lat="47.773918" lon="10.74938">
<ele>801.117</ele>
<time>2020-09-11T12:02:52Z</time>
</trkpt>
<trkpt lat="47.773911" lon="10.749376">
<ele>801.117</ele>
<time>2020-09-11T12:02:53Z</time>
</trkpt>
<trkpt lat="47.773907" lon="10.749374">
<ele>801.117</ele>
<time>2020-09-11T12:03:39Z</time>
</trkpt>
<trkpt lat="47.773907" lon="10.749378">
<ele>801.116</ele>
<time>2020-09-11T12:03:40Z</time>
</trkpt>
<trkpt lat="47.773911" lon="10.74938">
<ele>801.116</ele>
<time>2020-09-11T12:03:41Z</time>
</trkpt>
<trkpt lat="47.773918" lon="10.749382">
<ele>801.117</ele>
<time>2020-09-11T12:03:42Z</time>
</trkpt>
<trkpt lat="47.773922" lon="10.749385">
<ele>801.117</ele>
<time>2020-09-11T12:03:43Z</time>
</trkpt>
<trkpt lat="47.77396" lon="10.749382">
<ele>801.117</ele>
<time>2020-09-11T12:04:00Z</time>
</trkpt>
<trkpt lat="47.773964" lon="10.749376">
<ele>801.117</ele>
<time>2020-09-11T12:04:01Z</time>
</trkpt>
<trkpt lat="47.773964" lon="10.749372">
<ele>801.117</ele>
<time>2020-09-11T12:04:02Z</time>
</trkpt>
<trkpt lat="47.773968" lon="10.749366">
<ele>801.116</ele>
<time>2020-09-11T12:04:03Z</time>
</trkpt>
<trkpt lat="47.773964" lon="10.749362">
<ele>801.117</ele>
<time>2020-09-11T12:04:04Z</time>
</trkpt>
<trkpt lat="47.773968" lon="10.749358">
<ele>801.116</ele>
<time>2020-09-11T12:04:05Z</time>
</trkpt>
<trkpt lat="47.773968" lon="10.749353">
<ele>801.117</ele>
<time>2020-09-11T12:04:06Z</time>
</trkpt>
<trkpt lat="47.773968" lon="10.74935">
<ele>801.116</ele>
<time>2020-09-11T12:04:07Z</time>
</trkpt>
<trkpt lat="47.773964" lon="10.749353">
<ele>801.117</ele>
<time>2020-09-11T12:04:09Z</time>
</trkpt>
<trkpt lat="47.77396" lon="10.749357">
<ele>801.117</ele>
<time>2020-09-11T12:04:10Z</time>
</trkpt>
<trkpt lat="47.77396" lon="10.749352">
<ele>801.117</ele>
<time>2020-09-11T12:04:11Z</time>
</trkpt>
<trkpt lat="47.773964" lon="10.749352">
<ele>801.117</ele>
<time>2020-09-11T12:04:12Z</time>
</trkpt>
<trkpt lat="47.773914" lon="10.749352">
<ele>801.117</ele>
<time>2020-09-11T12:04:50Z</time>
</trkpt>
<trkpt lat="47.773918" lon="10.749347">
<ele>801.116</ele>
<time>2020-09-11T12:04:51Z</time>
</trkpt>
<trkpt lat="47.773918" lon="10.749345">
<ele>801.116</ele>
<time>2020-09-11T12:04:52Z</time>
</trkpt>
<trkpt lat="47.773918" lon="10.74934">
<ele>801.117</ele>
<time>2020-09-11T12:04:53Z</time>
</trkpt>
<trkpt lat="47.773922" lon="10.749341">
<ele>801.117</ele>
<time>2020-09-11T12:04:54Z</time>
</trkpt>
<trkpt lat="47.773926" lon="10.749334">
<ele>801.117</ele>
<time>2020-09-11T12:05:09Z</time>
</trkpt>
<trkpt lat="47.773922" lon="10.749343">
<ele>801.117</ele>
<time>2020-09-11T12:05:10Z</time>
</trkpt>
<trkpt lat="47.773918" lon="10.749343">
<ele>801.116</ele>
<time>2020-09-11T12:05:11Z</time>
</trkpt>
<trkpt lat="47.773907" lon="10.749333">
<ele>801.116</ele>
<time>2020-09-11T12:05:29Z</time>
</trkpt>
<trkpt lat="47.773907" lon="10.749338">
<ele>801.117</ele>
<time>2020-09-11T12:05:30Z</time>
</trkpt>
<trkpt lat="47.773903" lon="10.749336">
<ele>801.117</ele>
<time>2020-09-11T12:05:31Z</time>
</trkpt>
<trkpt lat="47.773903" lon="10.749332">
<ele>801.117</ele>
<time>2020-09-11T12:05:32Z</time>
</trkpt>
<trkpt lat="47.773899" lon="10.749298">
<ele>801.117</ele>
<time>2020-09-11T12:05:50Z</time>
</trkpt>
<trkpt lat="47.773903" lon="10.749293">
<ele>801.117</ele>
<time>2020-09-11T12:05:51Z</time>
</trkpt>
<trkpt lat="47.773903" lon="10.749292">
<ele>801.116</ele>
<time>2020-09-11T12:05:52Z</time>
</trkpt>
<trkpt lat="47.773907" lon="10.749292">
<ele>801.117</ele>
<time>2020-09-11T12:05:53Z</time>
</trkpt>
<trkpt lat="47.773907" lon="10.74929">
<ele>801.116</ele>
<time>2020-09-11T12:05:54Z</time>
</trkpt>
<trkpt lat="47.773891" lon="10.749285">
<ele>801.117</ele>
<time>2020-09-11T12:06:03Z</time>
</trkpt>
<trkpt lat="47.773888" lon="10.749285">
<ele>801.117</ele>
<time>2020-09-11T12:06:04Z</time>
</trkpt>
<trkpt lat="47.773888" lon="10.749289">
<ele>801.116</ele>
<time>2020-09-11T12:06:05Z</time>
</trkpt>
<trkpt lat="47.773888" lon="10.749292">
<ele>801.116</ele>
<time>2020-09-11T12:06:06Z</time>
</trkpt>
<trkpt lat="47.773884" lon="10.749292">
<ele>801.117</ele>
<time>2020-09-11T12:06:07Z</time>
</trkpt>
<trkpt lat="47.773876" lon="10.749295">
<ele>801.117</ele>
<time>2020-09-11T12:06:09Z</time>
</trkpt>
<trkpt lat="47.773872" lon="10.749301">
<ele>801.116</ele>
<time>2020-09-11T12:06:10Z</time>
</trkpt>
<trkpt lat="47.773872" lon="10.749303">
<ele>801.117</ele>
<time>2020-09-11T12:06:12Z</time>
</trkpt>
<trkpt lat="47.773869" lon="10.749305">
<ele>801.116</ele>
<time>2020-09-11T12:06:39Z</time>
</trkpt>
<trkpt lat="47.773865" lon="10.74931">
<ele>801.117</ele>
<time>2020-09-11T12:06:40Z</time>
</trkpt>
<trkpt lat="47.773865" lon="10.749309">
<ele>801.117</ele>
<time>2020-09-11T12:06:41Z</time>
</trkpt>
<trkpt lat="47.773865" lon="10.749307">
<ele>801.117</ele>
<time>2020-09-11T12:06:42Z</time>
</trkpt>
<trkpt lat="47.773869" lon="10.749309">
<ele>801.117</ele>
<time>2020-09-11T12:06:49Z</time>
</trkpt>
<trkpt lat="47.773865" lon="10.749313">
<ele>801.116</ele>
<time>2020-09-11T12:06:50Z</time>
</trkpt>
<trkpt lat="47.773865" lon="10.749309">
<ele>801.117</ele>
<time>2020-09-11T12:06:51Z</time>
</trkpt>
<trkpt lat="47.773865" lon="10.749303">
<ele>801.117</ele>
<time>2020-09-11T12:06:52Z</time>
</trkpt>
<trkpt lat="47.773869" lon="10.74928">
<ele>801.117</ele>
<time>2020-09-11T12:07:09Z</time>
</trkpt>
<trkpt lat="47.773861" lon="10.749285">
<ele>801.117</ele>
<time>2020-09-11T12:07:10Z</time>
</trkpt>
<trkpt lat="47.773865" lon="10.749282">
<ele>801.117</ele>
<time>2020-09-11T12:07:11Z</time>
</trkpt>
<trkpt lat="47.773869" lon="10.749275">
<ele>801.116</ele>
<time>2020-09-11T12:07:12Z</time>
</trkpt>
<trkpt lat="47.773872" lon="10.749269">
<ele>801.117</ele>
<time>2020-09-11T12:07:19Z</time>
</trkpt>
<trkpt lat="47.773869" lon="10.749275">
<ele>801.116</ele>
<time>2020-09-11T12:07:20Z</time>
</trkpt>
<trkpt lat="47.773872" lon="10.749273">
<ele>801.116</ele>
<time>2020-09-11T12:07:21Z</time>
</trkpt>
<trkpt lat="47.773869" lon="10.749269">
<ele>801.117</ele>
<time>2020-09-11T12:07:22Z</time>
</trkpt>
<trkpt lat="47.773869" lon="10.749265">
<ele>801.117</ele>
<time>2020-09-11T12:07:29Z</time>
</trkpt>
<trkpt lat="47.773865" lon="10.749271">
<ele>801.117</ele>
<time>2020-09-11T12:07:30Z</time>
</trkpt>
<trkpt lat="47.773869" lon="10.749271">
<ele>801.117</ele>
<time>2020-09-11T12:07:31Z</time>
</trkpt>
<trkpt lat="47.773869" lon="10.749275">
<ele>801.117</ele>
<time>2020-09-11T12:07:32Z</time>
</trkpt>
<trkpt lat="47.773869" lon="10.749276">
<ele>801.117</ele>
<time>2020-09-11T12:07:33Z</time>
</trkpt>
<trkpt lat="47.773872" lon="10.749276">
<ele>801.117</ele>
<time>2020-09-11T12:07:39Z</time>
</trkpt>
<trkpt lat="47.773869" lon="10.749284">
<ele>801.116</ele>
<time>2020-09-11T12:07:40Z</time>
</trkpt>
<trkpt lat="47.773872" lon="10.74928">
<ele>801.117</ele>
<time>2020-09-11T12:07:41Z</time>
</trkpt>
<trkpt lat="47.773872" lon="10.749278">
<ele>801.117</ele>
<time>2020-09-11T12:07:42Z</time>
</trkpt>
<trkpt lat="47.773872" lon="10.749276">
<ele>801.117</ele>
<time>2020-09-11T12:07:43Z</time>
</trkpt>
<trkpt lat="47.773872" lon="10.749265">
<ele>801.116</ele>
<time>2020-09-11T12:07:49Z</time>
</trkpt>
<trkpt lat="47.773869" lon="10.749268">
<ele>801.117</ele>
<time>2020-09-11T12:07:50Z</time>
</trkpt>
<trkpt lat="47.773872" lon="10.749265">
<ele>801.116</ele>
<time>2020-09-11T12:07:51Z</time>
</trkpt>
<trkpt lat="47.773872" lon="10.749262">
<ele>801.116</ele>
<time>2020-09-11T12:07:52Z</time>
</trkpt>
<trkpt lat="47.773872" lon="10.749259">
<ele>801.117</ele>
<time>2020-09-11T12:07:59Z</time>
</trkpt>
<trkpt lat="47.773865" lon="10.749267">
<ele>801.116</ele>
<time>2020-09-11T12:08:00Z</time>
</trkpt>
<trkpt lat="47.773869" lon="10.749267">
<ele>801.117</ele>
<time>2020-09-11T12:08:02Z</time>
</trkpt>
<trkpt lat="47.773907" lon="10.749267">
<ele>801.116</ele>
<time>2020-09-11T12:08:21Z</time>
</trkpt>
<trkpt lat="47.773911" lon="10.749262">
<ele>801.116</ele>
<time>2020-09-11T12:08:22Z</time>
</trkpt>
<trkpt lat="47.773914" lon="10.74926">
<ele>801.117</ele>
<time>2020-09-11T12:08:23Z</time>
</trkpt>
<trkpt lat="47.773918" lon="10.74926">
<ele>801.116</ele>
<time>2020-09-11T12:08:24Z</time>
</trkpt>
<trkpt lat="47.773926" lon="10.749259">
<ele>801.116</ele>
<time>2020-09-11T12:08:29Z</time>
</trkpt>
<trkpt lat="47.773922" lon="10.749263">
<ele>801.116</ele>
<time>2020-09-11T12:08:30Z</time>
</trkpt>
<trkpt lat="47.773926" lon="10.749263">
<ele>801.117</ele>
<time>2020-09-11T12:08:31Z</time>
</trkpt>
<trkpt lat="47.77393" lon="10.749263">
<ele>801.116</ele>
<time>2020-09-11T12:08:39Z</time>
</trkpt>
<trkpt lat="47.773926" lon="10.749271">
<ele>801.117</ele>
<time>2020-09-11T12:08:40Z</time>
</trkpt>
<trkpt lat="47.773926" lon="10.749273">
<ele>801.117</ele>
<time>2020-09-11T12:08:41Z</time>
</trkpt>
<trkpt lat="47.773933" lon="10.749275">
<ele>801.117</ele>
<time>2020-09-11T12:08:42Z</time>
</trkpt>
<trkpt lat="47.77393" lon="10.749276">
<ele>801.116</ele>
<time>2020-09-11T12:08:43Z</time>
</trkpt>
<trkpt lat="47.773933" lon="10.749275">
<ele>801.117</ele>
<time>2020-09-11T12:08:59Z</time>
</trkpt>
<trkpt lat="47.77393" lon="10.749278">
<ele>801.117</ele>
<time>2020-09-11T12:09:00Z</time>
</trkpt>
<trkpt lat="47.773933" lon="10.749282">
<ele>801.117</ele>
<time>2020-09-11T12:09:01Z</time>
</trkpt>
<trkpt lat="47.773933" lon="10.749284">
<ele>801.116</ele>
<time>2020-09-11T12:09:02Z</time>
</trkpt>
<trkpt lat="47.773937" lon="10.749284">
<ele>801.117</ele>
<time>2020-09-11T12:09:03Z</time>
</trkpt>
<trkpt lat="47.773933" lon="10.749263">
<ele>801.117</ele>
<time>2020-09-11T12:11:39Z</time>
</trkpt>
<trkpt lat="47.773933" lon="10.74926">
<ele>801.116</ele>
<time>2020-09-11T12:11:40Z</time>
</trkpt>
<trkpt lat="47.773933" lon="10.749259">
<ele>801.116</ele>
<time>2020-09-11T12:11:41Z</time>
</trkpt>
<trkpt lat="47.773937" lon="10.749259">
<ele>801.117</ele>
<time>2020-09-11T12:11:42Z</time>
</trkpt>
<trkpt lat="47.773926" lon="10.749263">
<ele>801.116</ele>
<time>2020-09-11T12:11:59Z</time>
</trkpt>
<trkpt lat="47.773922" lon="10.749265">
<ele>801.117</ele>
<time>2020-09-11T12:12:00Z</time>
</trkpt>
<trkpt lat="47.773918" lon="10.749265">
<ele>801.117</ele>
<time>2020-09-11T12:12:01Z</time>
</trkpt>
<trkpt lat="47.773911" lon="10.749295">
<ele>801.117</ele>
<time>2020-09-11T12:13:26Z</time>
</trkpt>
<trkpt lat="47.773914" lon="10.749297">
<ele>801.117</ele>
<time>2020-09-11T12:13:27Z</time>
</trkpt>
<trkpt lat="47.773918" lon="10.7493">
<ele>801.116</ele>
<time>2020-09-11T12:13:28Z</time>
</trkpt>
<trkpt lat="47.773918" lon="10.749301">
<ele>801.116</ele>
<time>2020-09-11T12:13:30Z</time>
</trkpt>
<trkpt lat="47.773911" lon="10.749297">
<ele>801.117</ele>
<time>2020-09-11T12:13:34Z</time>
</trkpt>
<trkpt lat="47.773907" lon="10.749292">
<ele>801.116</ele>
<time>2020-09-11T12:13:35Z</time>
</trkpt>
<trkpt lat="47.773911" lon="10.749293">
<ele>801.116</ele>
<time>2020-09-11T12:13:36Z</time>
</trkpt>
<trkpt lat="47.773926" lon="10.749285">
<ele>801.117</ele>
<time>2020-09-11T12:13:55Z</time>
</trkpt>
<trkpt lat="47.773933" lon="10.74928">
<ele>801.117</ele>
<time>2020-09-11T12:13:56Z</time>
</trkpt>
<trkpt lat="47.773937" lon="10.749278">
<ele>801.117</ele>
<time>2020-09-11T12:13:57Z</time>
</trkpt>
<trkpt lat="47.773941" lon="10.749278">
<ele>801.117</ele>
<time>2020-09-11T12:13:58Z</time>
</trkpt>
<trkpt lat="47.773937" lon="10.749273">
<ele>801.116</ele>
<time>2020-09-11T12:13:59Z</time>
</trkpt>
<trkpt lat="47.773907" lon="10.749235">
<ele>801.117</ele>
<time>2020-09-11T12:14:11Z</time>
</trkpt>
<trkpt lat="47.773903" lon="10.749228">
<ele>801.116</ele>
<time>2020-09-11T12:14:12Z</time>
</trkpt>
<trkpt lat="47.773899" lon="10.749228">
<ele>801.117</ele>
<time>2020-09-11T12:14:13Z</time>
</trkpt>
<trkpt lat="47.773895" lon="10.749226">
<ele>801.117</ele>
<time>2020-09-11T12:14:14Z</time>
</trkpt>
<trkpt lat="47.773895" lon="10.749222">
<ele>801.116</ele>
<time>2020-09-11T12:14:15Z</time>
</trkpt>
<trkpt lat="47.773895" lon="10.74922">
<ele>801.117</ele>
<time>2020-09-11T12:14:21Z</time>
</trkpt>
<trkpt lat="47.773895" lon="10.749215">
<ele>801.117</ele>
<time>2020-09-11T12:14:23Z</time>
</trkpt>
<trkpt lat="47.773899" lon="10.749208">
<ele>801.117</ele>
<time>2020-09-11T12:14:29Z</time>
</trkpt>
<trkpt lat="47.773903" lon="10.749213">
<ele>801.117</ele>
<time>2020-09-11T12:14:30Z</time>
</trkpt>
<trkpt lat="47.773899" lon="10.749211">
<ele>801.117</ele>
<time>2020-09-11T12:14:31Z</time>
</trkpt>
<trkpt lat="47.773903" lon="10.749211">
<ele>801.117</ele>
<time>2020-09-11T12:14:32Z</time>
</trkpt>
<trkpt lat="47.773907" lon="10.749194">
<ele>801.117</ele>
<time>2020-09-11T12:14:49Z</time>
</trkpt>
<trkpt lat="47.773949" lon="10.74925">
<ele>801.116</ele>
<time>2020-09-11T12:15:32Z</time>
</trkpt>
<trkpt lat="47.773956" lon="10.74925">
<ele>801.117</ele>
<time>2020-09-11T12:15:33Z</time>
</trkpt>
<trkpt lat="47.773956" lon="10.749249">
<ele>801.117</ele>
<time>2020-09-11T12:15:34Z</time>
</trkpt>
<trkpt lat="47.773956" lon="10.749247">
<ele>801.117</ele>
<time>2020-09-11T12:15:36Z</time>
</trkpt>
<trkpt lat="47.77396" lon="10.749245">
<ele>801.117</ele>
<time>2020-09-11T12:15:39Z</time>
</trkpt>
<trkpt lat="47.773952" lon="10.749236">
<ele>801.117</ele>
<time>2020-09-11T12:15:40Z</time>
</trkpt>
<trkpt lat="47.773952" lon="10.74924">
<ele>801.117</ele>
<time>2020-09-11T12:15:42Z</time>
</trkpt>
<trkpt lat="47.773952" lon="10.749242">
<ele>801.116</ele>
<time>2020-09-11T12:15:43Z</time>
</trkpt>
<trkpt lat="47.773907" lon="10.749244">
<ele>801.116</ele>
<time>2020-09-11T12:16:00Z</time>
</trkpt>
<trkpt lat="47.773907" lon="10.749247">
<ele>801.117</ele>
<time>2020-09-11T12:16:01Z</time>
</trkpt>
<trkpt lat="47.773922" lon="10.74925">
<ele>801.116</ele>
<time>2020-09-11T12:16:02Z</time>
</trkpt>
<trkpt lat="47.773926" lon="10.749253">
<ele>801.117</ele>
<time>2020-09-11T12:16:03Z</time>
</trkpt>
<trkpt lat="47.77393" lon="10.749255">
<ele>801.117</ele>
<time>2020-09-11T12:16:04Z</time>
</trkpt>
<trkpt lat="47.77393" lon="10.749257">
<ele>801.116</ele>
<time>2020-09-11T12:16:05Z</time>
</trkpt>
<trkpt lat="47.77393" lon="10.749259">
<ele>801.117</ele>
<time>2020-09-11T12:16:06Z</time>
</trkpt>
<trkpt lat="47.77393" lon="10.74926">
<ele>801.117</ele>
<time>2020-09-11T12:16:07Z</time>
</trkpt>
<trkpt lat="47.773922" lon="10.74926">
<ele>801.117</ele>
<time>2020-09-11T12:16:10Z</time>
</trkpt>
<trkpt lat="47.773918" lon="10.749263">
<ele>801.117</ele>
<time>2020-09-11T12:16:11Z</time>
</trkpt>
<trkpt lat="47.773914" lon="10.749265">
<ele>801.116</ele>
<time>2020-09-11T12:16:12Z</time>
</trkpt>
<trkpt lat="47.773911" lon="10.749267">
<ele>801.117</ele>
<time>2020-09-11T12:16:13Z</time>
</trkpt>
<trkpt lat="47.773907" lon="10.749269">
<ele>801.117</ele>
<time>2020-09-11T12:16:14Z</time>
</trkpt>
<trkpt lat="47.773918" lon="10.74928">
<ele>801.117</ele>
<time>2020-09-11T12:16:23Z</time>
</trkpt>
<trkpt lat="47.773922" lon="10.749278">
<ele>801.117</ele>
<time>2020-09-11T12:16:24Z</time>
</trkpt>
<trkpt lat="47.773926" lon="10.749276">
<ele>801.117</ele>
<time>2020-09-11T12:16:25Z</time>
</trkpt>
<trkpt lat="47.773922" lon="10.749278">
<ele>801.116</ele>
<time>2020-09-11T12:16:33Z</time>
</trkpt>
<trkpt lat="47.773926" lon="10.749273">
<ele>801.116</ele>
<time>2020-09-11T12:16:34Z</time>
</trkpt>
<trkpt lat="47.77393" lon="10.749271">
<ele>801.116</ele>
<time>2020-09-11T12:16:35Z</time>
</trkpt>
<trkpt lat="47.77393" lon="10.749269">
<ele>801.117</ele>
<time>2020-09-11T12:16:36Z</time>
</trkpt>
<trkpt lat="47.773937" lon="10.749263">
<ele>801.116</ele>
<time>2020-09-11T12:16:48Z</time>
</trkpt>
<trkpt lat="47.773926" lon="10.749257">
<ele>801.117</ele>
<time>2020-09-11T12:16:49Z</time>
</trkpt>
<trkpt lat="47.773914" lon="10.749251">
<ele>801.117</ele>
<time>2020-09-11T12:16:50Z</time>
</trkpt>
<trkpt lat="47.773914" lon="10.749255">
<ele>801.117</ele>
<time>2020-09-11T12:16:51Z</time>
</trkpt>
<trkpt lat="47.773914" lon="10.749257">
<ele>801.116</ele>
<time>2020-09-11T12:16:52Z</time>
</trkpt>
<trkpt lat="47.773918" lon="10.749255">
<ele>801.117</ele>
<time>2020-09-11T12:16:53Z</time>
</trkpt>
<trkpt lat="47.77393" lon="10.749275">
<ele>801.117</ele>
<time>2020-09-11T12:19:49Z</time>
</trkpt>
<trkpt lat="47.77393" lon="10.749273">
<ele>801.117</ele>
<time>2020-09-11T12:19:50Z</time>
</trkpt>
<trkpt lat="47.77393" lon="10.749269">
<ele>801.117</ele>
<time>2020-09-11T12:19:51Z</time>
</trkpt>
<trkpt lat="47.773926" lon="10.749269">
<ele>801.117</ele>
<time>2020-09-11T12:19:52Z</time>
</trkpt>
<trkpt lat="47.773918" lon="10.749285">
<ele>801.116</ele>
<time>2020-09-11T12:19:55Z</time>
</trkpt>
<trkpt lat="47.773914" lon="10.749301">
<ele>801.117</ele>
<time>2020-09-11T12:19:56Z</time>
</trkpt>
<trkpt lat="47.773907" lon="10.74932">
<ele>801.116</ele>
<time>2020-09-11T12:19:57Z</time>
</trkpt>
<trkpt lat="47.773899" lon="10.749336">
<ele>801.117</ele>
<time>2020-09-11T12:19:58Z</time>
</trkpt>
<trkpt lat="47.773888" lon="10.749352">
<ele>801.117</ele>
<time>2020-09-11T12:19:59Z</time>
</trkpt>
<trkpt lat="47.773872" lon="10.749364">
<ele>801.117</ele>
<time>2020-09-11T12:20:00Z</time>
</trkpt>
<trkpt lat="47.773865" lon="10.749376">
<ele>801.116</ele>
<time>2020-09-11T12:20:01Z</time>
</trkpt>
<trkpt lat="47.773857" lon="10.749387">
<ele>801.117</ele>
<time>2020-09-11T12:20:02Z</time>
</trkpt>
<trkpt lat="47.773846" lon="10.749392">
<ele>801.117</ele>
<time>2020-09-11T12:20:03Z</time>
</trkpt>
<trkpt lat="47.773838" lon="10.749395">
<ele>801.117</ele>
<time>2020-09-11T12:20:04Z</time>
</trkpt>
<trkpt lat="47.773823" lon="10.7494">
<ele>801.116</ele>
<time>2020-09-11T12:20:05Z</time>
</trkpt>
<trkpt lat="47.773808" lon="10.749405">
<ele>801.116</ele>
<time>2020-09-11T12:20:06Z</time>
</trkpt>
<trkpt lat="47.773792" lon="10.749408">
<ele>801.117</ele>
<time>2020-09-11T12:20:07Z</time>
</trkpt>
<trkpt lat="47.773773" lon="10.749413">
<ele>801.116</ele>
<time>2020-09-11T12:20:08Z</time>
</trkpt>
<trkpt lat="47.773746" lon="10.749413">
<ele>801.117</ele>
<time>2020-09-11T12:20:09Z</time>
</trkpt>
<trkpt lat="47.773724" lon="10.749413">
<ele>801.117</ele>
<time>2020-09-11T12:20:10Z</time>
</trkpt>
<trkpt lat="47.773697" lon="10.749413">
<ele>801.117</ele>
<time>2020-09-11T12:20:11Z</time>
</trkpt>
<trkpt lat="47.77367" lon="10.749422">
<ele>801.116</ele>
<time>2020-09-11T12:20:12Z</time>
</trkpt>
<trkpt lat="47.773636" lon="10.749432">
<ele>801.117</ele>
<time>2020-09-11T12:20:13Z</time>
</trkpt>
<trkpt lat="47.773602" lon="10.749438">
<ele>801.116</ele>
<time>2020-09-11T12:20:14Z</time>
</trkpt>
<trkpt lat="47.773563" lon="10.749443">
<ele>801.117</ele>
<time>2020-09-11T12:20:15Z</time>
</trkpt>
<trkpt lat="47.773529" lon="10.749447">
<ele>801.117</ele>
<time>2020-09-11T12:20:16Z</time>
</trkpt>
<trkpt lat="47.773491" lon="10.749448">
<ele>801.116</ele>
<time>2020-09-11T12:20:17Z</time>
</trkpt>
<trkpt lat="47.773457" lon="10.749447">
<ele>801.117</ele>
<time>2020-09-11T12:20:18Z</time>
</trkpt>
<trkpt lat="47.773418" lon="10.749445">
<ele>801.117</ele>
<time>2020-09-11T12:20:19Z</time>
</trkpt>
<trkpt lat="47.773384" lon="10.749445">
<ele>801.116</ele>
<time>2020-09-11T12:20:20Z</time>
</trkpt>
<trkpt lat="47.773354" lon="10.749445">
<ele>801.117</ele>
<time>2020-09-11T12:20:21Z</time>
</trkpt>
<trkpt lat="47.773315" lon="10.749445">
<ele>801.117</ele>
<time>2020-09-11T12:20:22Z</time>
</trkpt>
<trkpt lat="47.773281" lon="10.749445">
<ele>801.356</ele>
<time>2020-09-11T12:20:23Z</time>
</trkpt>
<trkpt lat="47.773243" lon="10.749443">
<ele>801.527</ele>
<time>2020-09-11T12:20:24Z</time>
</trkpt>
<trkpt lat="47.773205" lon="10.749448">
<ele>801.702</ele>
<time>2020-09-11T12:20:25Z</time>
</trkpt>
<trkpt lat="47.773167" lon="10.749455">
<ele>801.847</ele>
<time>2020-09-11T12:20:26Z</time>
</trkpt>
<trkpt lat="47.773129" lon="10.749462">
<ele>801.955</ele>
<time>2020-09-11T12:20:27Z</time>
</trkpt>
<trkpt lat="47.77309" lon="10.749467">
<ele>802.034</ele>
<time>2020-09-11T12:20:28Z</time>
</trkpt>
<trkpt lat="47.773056" lon="10.749471">
<ele>802.078</ele>
<time>2020-09-11T12:20:29Z</time>
</trkpt>
<trkpt lat="47.773018" lon="10.749473">
<ele>802.346</ele>
<time>2020-09-11T12:20:30Z</time>
</trkpt>
<trkpt lat="47.772984" lon="10.749476">
<ele>802.568</ele>
<time>2020-09-11T12:20:31Z</time>
</trkpt>
<trkpt lat="47.772945" lon="10.749478">
<ele>802.724</ele>
<time>2020-09-11T12:20:32Z</time>
</trkpt>
<trkpt lat="47.772911" lon="10.749483">
<ele>802.844</ele>
<time>2020-09-11T12:20:33Z</time>
</trkpt>
<trkpt lat="47.772869" lon="10.749485">
<ele>802.926</ele>
<time>2020-09-11T12:20:34Z</time>
</trkpt>
<trkpt lat="47.772835" lon="10.749485">
<ele>803.226</ele>
<time>2020-09-11T12:20:35Z</time>
</trkpt>
<trkpt lat="47.772797" lon="10.749487">
<ele>803.467</ele>
<time>2020-09-11T12:20:36Z</time>
</trkpt>
<trkpt lat="47.772755" lon="10.749487">
<ele>803.648</ele>
<time>2020-09-11T12:20:37Z</time>
</trkpt>
<trkpt lat="47.772713" lon="10.749487">
<ele>803.77</ele>
<time>2020-09-11T12:20:38Z</time>
</trkpt>
<trkpt lat="47.772671" lon="10.749492">
<ele>803.863</ele>
<time>2020-09-11T12:20:39Z</time>
</trkpt>
<trkpt lat="47.772629" lon="10.749496">
<ele>803.929</ele>
<time>2020-09-11T12:20:40Z</time>
</trkpt>
<trkpt lat="47.772587" lon="10.749504">
<ele>803.971</ele>
<time>2020-09-11T12:20:41Z</time>
</trkpt>
<trkpt lat="47.772541" lon="10.749516">
<ele>803.99</ele>
<time>2020-09-11T12:20:42Z</time>
</trkpt>
<trkpt lat="47.772503" lon="10.749532">
<ele>803.99</ele>
<time>2020-09-11T12:20:43Z</time>
</trkpt>
<trkpt lat="47.772457" lon="10.74955">
<ele>803.99</ele>
<time>2020-09-11T12:20:44Z</time>
</trkpt>
<trkpt lat="47.772411" lon="10.749567">
<ele>803.991</ele>
<time>2020-09-11T12:20:45Z</time>
</trkpt>
<trkpt lat="47.772366" lon="10.749581">
<ele>803.99</ele>
<time>2020-09-11T12:20:46Z</time>
</trkpt>
<trkpt lat="47.772316" lon="10.749602">
<ele>803.99</ele>
<time>2020-09-11T12:20:47Z</time>
</trkpt>
<trkpt lat="47.77227" lon="10.749632">
<ele>803.99</ele>
<time>2020-09-11T12:20:48Z</time>
</trkpt>
<trkpt lat="47.772221" lon="10.749668">
<ele>803.99</ele>
<time>2020-09-11T12:20:49Z</time>
</trkpt>
<trkpt lat="47.772171" lon="10.749712">
<ele>803.99</ele>
<time>2020-09-11T12:20:50Z</time>
</trkpt>
<trkpt lat="47.772114" lon="10.749758">
<ele>803.99</ele>
<time>2020-09-11T12:20:51Z</time>
</trkpt>
<trkpt lat="47.772053" lon="10.749806">
<ele>803.7</ele>
<time>2020-09-11T12:20:52Z</time>
</trkpt>
<trkpt lat="47.771992" lon="10.74985">
<ele>803.475</ele>
<time>2020-09-11T12:20:53Z</time>
</trkpt>
<trkpt lat="47.771923" lon="10.749895">
<ele>803.333</ele>
<time>2020-09-11T12:20:54Z</time>
</trkpt>
<trkpt lat="47.771854" lon="10.749942">
<ele>802.936</ele>
<time>2020-09-11T12:20:55Z</time>
</trkpt>
<trkpt lat="47.771782" lon="10.749985">
<ele>802.678</ele>
<time>2020-09-11T12:20:56Z</time>
</trkpt>
<trkpt lat="47.771706" lon="10.750026">
<ele>802.173</ele>
<time>2020-09-11T12:20:57Z</time>
</trkpt>
<trkpt lat="47.771626" lon="10.750062">
<ele>801.845</ele>
<time>2020-09-11T12:20:58Z</time>
</trkpt>
<trkpt lat="47.771545" lon="10.750095">
<ele>801.315</ele>
<time>2020-09-11T12:20:59Z</time>
</trkpt>
<trkpt lat="47.771465" lon="10.750122">
<ele>800.921</ele>
<time>2020-09-11T12:21:00Z</time>
</trkpt>
<trkpt lat="47.771389" lon="10.750141">
<ele>800.627</ele>
<time>2020-09-11T12:21:01Z</time>
</trkpt>
<trkpt lat="47.771317" lon="10.750164">
<ele>800.417</ele>
<time>2020-09-11T12:21:02Z</time>
</trkpt>
<trkpt lat="47.771244" lon="10.750181">
<ele>800.282</ele>
<time>2020-09-11T12:21:03Z</time>
</trkpt>
<trkpt lat="47.771175" lon="10.750196">
<ele>800.202</ele>
<time>2020-09-11T12:21:04Z</time>
</trkpt>
<trkpt lat="47.771111" lon="10.750203">
<ele>800.153</ele>
<time>2020-09-11T12:21:05Z</time>
</trkpt>
<trkpt lat="47.771046" lon="10.750208">
<ele>800.132</ele>
<time>2020-09-11T12:21:06Z</time>
</trkpt>
<trkpt lat="47.770981" lon="10.750212">
<ele>800.374</ele>
<time>2020-09-11T12:21:07Z</time>
</trkpt>
<trkpt lat="47.770916" lon="10.750215">
<ele>800.572</ele>
<time>2020-09-11T12:21:08Z</time>
</trkpt>
<trkpt lat="47.770851" lon="10.750216">
<ele>800.73</ele>
<time>2020-09-11T12:21:09Z</time>
</trkpt>
<trkpt lat="47.77079" lon="10.750214">
<ele>800.846</ele>
<time>2020-09-11T12:21:10Z</time>
</trkpt>
<trkpt lat="47.770729" lon="10.75021">
<ele>800.927</ele>
<time>2020-09-11T12:21:11Z</time>
</trkpt>
<trkpt lat="47.770664" lon="10.75021">
<ele>800.978</ele>
<time>2020-09-11T12:21:12Z</time>
</trkpt>
<trkpt lat="47.770599" lon="10.750208">
<ele>801.005</ele>
<time>2020-09-11T12:21:13Z</time>
</trkpt>
<trkpt lat="47.770531" lon="10.750206">
<ele>801.023</ele>
<time>2020-09-11T12:21:14Z</time>
</trkpt>
<trkpt lat="47.770466" lon="10.750206">
<ele>800.807</ele>
<time>2020-09-11T12:21:15Z</time>
</trkpt>
<trkpt lat="47.770393" lon="10.750208">
<ele>800.621</ele>
<time>2020-09-11T12:21:16Z</time>
</trkpt>
<trkpt lat="47.770321" lon="10.750208">
<ele>800.498</ele>
<time>2020-09-11T12:21:17Z</time>
</trkpt>
<trkpt lat="47.770248" lon="10.750212">
<ele>800.117</ele>
<time>2020-09-11T12:21:18Z</time>
</trkpt>
<trkpt lat="47.770168" lon="10.750216">
<ele>799.852</ele>
<time>2020-09-11T12:21:19Z</time>
</trkpt>
<trkpt lat="47.770088" lon="10.75022">
<ele>799.347</ele>
<time>2020-09-11T12:21:20Z</time>
</trkpt>
<trkpt lat="47.770004" lon="10.750227">
<ele>799.004</ele>
<time>2020-09-11T12:21:21Z</time>
</trkpt>
<trkpt lat="47.769917" lon="10.750237">
<ele>798.433</ele>
<time>2020-09-11T12:21:22Z</time>
</trkpt>
<trkpt lat="47.769825" lon="10.750243">
<ele>798.062</ele>
<time>2020-09-11T12:21:23Z</time>
</trkpt>
<trkpt lat="47.76973" lon="10.750254">
<ele>797.489</ele>
<time>2020-09-11T12:21:24Z</time>
</trkpt>
<trkpt lat="47.76963" lon="10.750269">
<ele>796.723</ele>
<time>2020-09-11T12:21:25Z</time>
</trkpt>
<trkpt lat="47.769524" lon="10.750285">
<ele>796.231</ele>
<time>2020-09-11T12:21:26Z</time>
</trkpt>
<trkpt lat="47.769424" lon="10.750303">
<ele>795.474</ele>
<time>2020-09-11T12:21:27Z</time>
</trkpt>
<trkpt lat="47.769321" lon="10.750319">
<ele>794.982</ele>
<time>2020-09-11T12:21:28Z</time>
</trkpt>
<trkpt lat="47.769218" lon="10.750342">
<ele>794.291</ele>
<time>2020-09-11T12:21:29Z</time>
</trkpt>
<trkpt lat="47.769119" lon="10.75037">
<ele>793.792</ele>
<time>2020-09-11T12:21:30Z</time>
</trkpt>
<trkpt lat="47.769024" lon="10.750403">
<ele>793.428</ele>
<time>2020-09-11T12:21:31Z</time>
</trkpt>
<trkpt lat="47.768932" lon="10.750437">
<ele>793.187</ele>
<time>2020-09-11T12:21:32Z</time>
</trkpt>
<trkpt lat="47.768841" lon="10.750474">
<ele>793.056</ele>
<time>2020-09-11T12:21:33Z</time>
</trkpt>
<trkpt lat="47.768757" lon="10.75051">
<ele>792.707</ele>
<time>2020-09-11T12:21:34Z</time>
</trkpt>
<trkpt lat="47.768665" lon="10.750546">
<ele>792.429</ele>
<time>2020-09-11T12:21:35Z</time>
</trkpt>
<trkpt lat="47.768581" lon="10.750582">
<ele>792.217</ele>
<time>2020-09-11T12:21:36Z</time>
</trkpt>
<trkpt lat="47.768494" lon="10.750619">
<ele>792.068</ele>
<time>2020-09-11T12:21:37Z</time>
</trkpt>
<trkpt lat="47.76841" lon="10.750653">
<ele>791.968</ele>
<time>2020-09-11T12:21:38Z</time>
</trkpt>
<trkpt lat="47.768326" lon="10.750689">
<ele>791.573</ele>
<time>2020-09-11T12:21:39Z</time>
</trkpt>
<trkpt lat="47.768242" lon="10.750727">
<ele>791.257</ele>
<time>2020-09-11T12:21:40Z</time>
</trkpt>
<trkpt lat="47.768158" lon="10.750768">
<ele>791.054</ele>
<time>2020-09-11T12:21:41Z</time>
</trkpt>
<trkpt lat="47.76807" lon="10.750812">
<ele>790.623</ele>
<time>2020-09-11T12:21:42Z</time>
</trkpt>
<trkpt lat="47.767982" lon="10.750857">
<ele>790.364</ele>
<time>2020-09-11T12:21:43Z</time>
</trkpt>
<trkpt lat="47.767887" lon="10.750901">
<ele>789.887</ele>
<time>2020-09-11T12:21:44Z</time>
</trkpt>
<trkpt lat="47.767788" lon="10.750948">
<ele>789.495</ele>
<time>2020-09-11T12:21:45Z</time>
</trkpt>
<trkpt lat="47.767689" lon="10.75099">
<ele>788.926</ele>
<time>2020-09-11T12:21:46Z</time>
</trkpt>
<trkpt lat="47.767582" lon="10.751027">
<ele>788.196</ele>
<time>2020-09-11T12:21:47Z</time>
</trkpt>
<trkpt lat="47.767475" lon="10.751053">
<ele>787.699</ele>
<time>2020-09-11T12:21:48Z</time>
</trkpt>
<trkpt lat="47.767365" lon="10.751073">
<ele>787.043</ele>
<time>2020-09-11T12:21:49Z</time>
</trkpt>
<trkpt lat="47.767258" lon="10.751081">
<ele>786.282</ele>
<time>2020-09-11T12:21:50Z</time>
</trkpt>
<trkpt lat="47.767151" lon="10.751081">
<ele>785.707</ele>
<time>2020-09-11T12:21:51Z</time>
</trkpt>
<trkpt lat="47.767044" lon="10.751075">
<ele>785.21</ele>
<time>2020-09-11T12:21:52Z</time>
</trkpt>
<trkpt lat="47.766941" lon="10.75107">
<ele>784.998</ele>
<time>2020-09-11T12:21:53Z</time>
</trkpt>
<trkpt lat="47.766838" lon="10.751073">
<ele>784.838</ele>
<time>2020-09-11T12:21:54Z</time>
</trkpt>
<trkpt lat="47.766735" lon="10.75109">
<ele>784.71</ele>
<time>2020-09-11T12:21:55Z</time>
</trkpt>
<trkpt lat="47.76664" lon="10.751118">
<ele>784.397</ele>
<time>2020-09-11T12:21:56Z</time>
</trkpt>
<trkpt lat="47.766548" lon="10.751157">
<ele>784.174</ele>
<time>2020-09-11T12:21:57Z</time>
</trkpt>
<trkpt lat="47.76646" lon="10.7512">
<ele>783.922</ele>
<time>2020-09-11T12:21:58Z</time>
</trkpt>
<trkpt lat="47.766376" lon="10.751248">
<ele>783.795</ele>
<time>2020-09-11T12:21:59Z</time>
</trkpt>
<trkpt lat="47.766293" lon="10.751298">
<ele>783.706</ele>
<time>2020-09-11T12:22:00Z</time>
</trkpt>
<trkpt lat="47.766212" lon="10.751348">
<ele>783.65</ele>
<time>2020-09-11T12:22:01Z</time>
</trkpt>
<trkpt lat="47.766132" lon="10.751395">
<ele>783.621</ele>
<time>2020-09-11T12:22:02Z</time>
</trkpt>
<trkpt lat="47.766052" lon="10.751438">
<ele>783.621</ele>
<time>2020-09-11T12:22:03Z</time>
</trkpt>
<trkpt lat="47.765972" lon="10.751478">
<ele>783.621</ele>
<time>2020-09-11T12:22:04Z</time>
</trkpt>
<trkpt lat="47.765896" lon="10.751515">
<ele>783.621</ele>
<time>2020-09-11T12:22:05Z</time>
</trkpt>
<trkpt lat="47.765823" lon="10.751554">
<ele>783.621</ele>
<time>2020-09-11T12:22:06Z</time>
</trkpt>
<trkpt lat="47.765755" lon="10.751589">
<ele>783.621</ele>
<time>2020-09-11T12:22:07Z</time>
</trkpt>
<trkpt lat="47.765686" lon="10.751622">
<ele>783.621</ele>
<time>2020-09-11T12:22:08Z</time>
</trkpt>
<trkpt lat="47.765617" lon="10.751656">
<ele>783.903</ele>
<time>2020-09-11T12:22:09Z</time>
</trkpt>
<trkpt lat="47.765553" lon="10.751689">
<ele>784.126</ele>
<time>2020-09-11T12:22:10Z</time>
</trkpt>
<trkpt lat="47.765495" lon="10.75172">
<ele>784.301</ele>
<time>2020-09-11T12:22:11Z</time>
</trkpt>
<trkpt lat="47.76543" lon="10.751752">
<ele>784.431</ele>
<time>2020-09-11T12:22:12Z</time>
</trkpt>
<trkpt lat="47.765373" lon="10.751781">
<ele>784.528</ele>
<time>2020-09-11T12:22:13Z</time>
</trkpt>
<trkpt lat="47.765316" lon="10.751813">
<ele>784.601</ele>
<time>2020-09-11T12:22:14Z</time>
</trkpt>
<trkpt lat="47.765259" lon="10.751844">
<ele>784.665</ele>
<time>2020-09-11T12:22:15Z</time>
</trkpt>
<trkpt lat="47.765202" lon="10.751876">
<ele>784.697</ele>
<time>2020-09-11T12:22:16Z</time>
</trkpt>
<trkpt lat="47.765141" lon="10.751908">
<ele>784.697</ele>
<time>2020-09-11T12:22:17Z</time>
</trkpt>
<trkpt lat="47.765083" lon="10.751942">
<ele>784.697</ele>
<time>2020-09-11T12:22:18Z</time>
</trkpt>
<trkpt lat="47.765022" lon="10.751975">
<ele>784.697</ele>
<time>2020-09-11T12:22:19Z</time>
</trkpt>
<trkpt lat="47.764965" lon="10.752008">
<ele>784.697</ele>
<time>2020-09-11T12:22:20Z</time>
</trkpt>
<trkpt lat="47.764904" lon="10.752044">
<ele>784.697</ele>
<time>2020-09-11T12:22:21Z</time>
</trkpt>
<trkpt lat="47.764839" lon="10.752075">
<ele>784.697</ele>
<time>2020-09-11T12:22:22Z</time>
</trkpt>
<trkpt lat="47.764774" lon="10.752107">
<ele>784.697</ele>
<time>2020-09-11T12:22:23Z</time>
</trkpt>
<trkpt lat="47.764713" lon="10.752137">
<ele>784.454</ele>
<time>2020-09-11T12:22:24Z</time>
</trkpt>
<trkpt lat="47.764645" lon="10.75216">
<ele>784.226</ele>
<time>2020-09-11T12:22:25Z</time>
</trkpt>
<trkpt lat="47.76458" lon="10.752184">
<ele>784.039</ele>
<time>2020-09-11T12:22:26Z</time>
</trkpt>
<trkpt lat="47.764515" lon="10.752205">
<ele>783.893</ele>
<time>2020-09-11T12:22:27Z</time>
</trkpt>
<trkpt lat="47.76445" lon="10.752223">
<ele>783.78</ele>
<time>2020-09-11T12:22:28Z</time>
</trkpt>
<trkpt lat="47.764385" lon="10.75224">
<ele>783.699</ele>
<time>2020-09-11T12:22:29Z</time>
</trkpt>
<trkpt lat="47.76432" lon="10.752254">
<ele>783.647</ele>
<time>2020-09-11T12:22:30Z</time>
</trkpt>
<trkpt lat="47.764259" lon="10.752268">
<ele>783.621</ele>
<time>2020-09-11T12:22:31Z</time>
</trkpt>
<trkpt lat="47.764198" lon="10.752282">
<ele>783.621</ele>
<time>2020-09-11T12:22:32Z</time>
</trkpt>
<trkpt lat="47.764141" lon="10.752295">
<ele>783.621</ele>
<time>2020-09-11T12:22:33Z</time>
</trkpt>
<trkpt lat="47.76408" lon="10.752308">
<ele>783.621</ele>
<time>2020-09-11T12:22:34Z</time>
</trkpt>
<trkpt lat="47.764023" lon="10.75232">
<ele>783.621</ele>
<time>2020-09-11T12:22:35Z</time>
</trkpt>
<trkpt lat="47.763966" lon="10.752328">
<ele>783.621</ele>
<time>2020-09-11T12:22:36Z</time>
</trkpt>
<trkpt lat="47.763912" lon="10.752335">
<ele>783.621</ele>
<time>2020-09-11T12:22:37Z</time>
</trkpt>
<trkpt lat="47.763859" lon="10.752341">
<ele>783.94</ele>
<time>2020-09-11T12:22:38Z</time>
</trkpt>
<trkpt lat="47.763802" lon="10.752343">
<ele>784.192</ele>
<time>2020-09-11T12:22:39Z</time>
</trkpt>
<trkpt lat="47.763752" lon="10.752343">
<ele>784.386</ele>
<time>2020-09-11T12:22:40Z</time>
</trkpt>
<trkpt lat="47.763702" lon="10.75234">
<ele>784.532</ele>
<time>2020-09-11T12:22:41Z</time>
</trkpt>
<trkpt lat="47.763653" lon="10.752335">
<ele>784.614</ele>
<time>2020-09-11T12:22:42Z</time>
</trkpt>
<trkpt lat="47.763603" lon="10.752326">
<ele>784.92</ele>
<time>2020-09-11T12:22:43Z</time>
</trkpt>
<trkpt lat="47.763561" lon="10.752316">
<ele>785.154</ele>
<time>2020-09-11T12:22:44Z</time>
</trkpt>
<trkpt lat="47.763512" lon="10.752305">
<ele>785.362</ele>
<time>2020-09-11T12:22:45Z</time>
</trkpt>
<trkpt lat="47.76347" lon="10.752292">
<ele>785.502</ele>
<time>2020-09-11T12:22:46Z</time>
</trkpt>
<trkpt lat="47.763424" lon="10.752278">
<ele>785.602</ele>
<time>2020-09-11T12:22:47Z</time>
</trkpt>
<trkpt lat="47.763378" lon="10.752265">
<ele>785.923</ele>
<time>2020-09-11T12:22:48Z</time>
</trkpt>
<trkpt lat="47.763336" lon="10.752251">
<ele>786.18</ele>
<time>2020-09-11T12:22:49Z</time>
</trkpt>
<trkpt lat="47.76329" lon="10.752234">
<ele>786.374</ele>
<time>2020-09-11T12:22:50Z</time>
</trkpt>
<trkpt lat="47.763245" lon="10.752213">
<ele>786.546</ele>
<time>2020-09-11T12:22:51Z</time>
</trkpt>
<trkpt lat="47.763199" lon="10.752193">
<ele>786.635</ele>
<time>2020-09-11T12:22:52Z</time>
</trkpt>
<trkpt lat="47.763149" lon="10.752169">
<ele>786.688</ele>
<time>2020-09-11T12:22:53Z</time>
</trkpt>
<trkpt lat="47.763107" lon="10.752144">
<ele>786.732</ele>
<time>2020-09-11T12:22:54Z</time>
</trkpt>
<trkpt lat="47.763062" lon="10.752115">
<ele>786.759</ele>
<time>2020-09-11T12:22:55Z</time>
</trkpt>
<trkpt lat="47.76302" lon="10.752088">
<ele>786.759</ele>
<time>2020-09-11T12:22:56Z</time>
</trkpt>
<trkpt lat="47.762974" lon="10.75206">
<ele>786.759</ele>
<time>2020-09-11T12:22:57Z</time>
</trkpt>
<trkpt lat="47.762932" lon="10.752028">
<ele>786.759</ele>
<time>2020-09-11T12:22:58Z</time>
</trkpt>
<trkpt lat="47.76289" lon="10.751995">
<ele>787.002</ele>
<time>2020-09-11T12:22:59Z</time>
</trkpt>
<trkpt lat="47.762852" lon="10.751957">
<ele>787.189</ele>
<time>2020-09-11T12:23:00Z</time>
</trkpt>
<trkpt lat="47.76281" lon="10.751918">
<ele>787.338</ele>
<time>2020-09-11T12:23:01Z</time>
</trkpt>
<trkpt lat="47.762768" lon="10.751884">
<ele>787.444</ele>
<time>2020-09-11T12:23:02Z</time>
</trkpt>
<trkpt lat="47.762726" lon="10.751846">
<ele>787.523</ele>
<time>2020-09-11T12:23:03Z</time>
</trkpt>
<trkpt lat="47.762688" lon="10.75181">
<ele>787.58</ele>
<time>2020-09-11T12:23:04Z</time>
</trkpt>
<trkpt lat="47.762646" lon="10.751773">
<ele>787.632</ele>
<time>2020-09-11T12:23:05Z</time>
</trkpt>
<trkpt lat="47.762608" lon="10.751734">
<ele>787.656</ele>
<time>2020-09-11T12:23:06Z</time>
</trkpt>
<trkpt lat="47.762569" lon="10.751697">
<ele>787.656</ele>
<time>2020-09-11T12:23:07Z</time>
</trkpt>
<trkpt lat="47.762527" lon="10.751662">
<ele>787.656</ele>
<time>2020-09-11T12:23:08Z</time>
</trkpt>
<trkpt lat="47.762489" lon="10.75163">
<ele>787.656</ele>
<time>2020-09-11T12:23:09Z</time>
</trkpt>
<trkpt lat="47.762444" lon="10.751601">
<ele>787.916</ele>
<time>2020-09-11T12:23:10Z</time>
</trkpt>
<trkpt lat="47.762402" lon="10.751575">
<ele>788.119</ele>
<time>2020-09-11T12:23:11Z</time>
</trkpt>
<trkpt lat="47.762367" lon="10.751552">
<ele>788.276</ele>
<time>2020-09-11T12:23:12Z</time>
</trkpt>
<trkpt lat="47.762321" lon="10.751528">
<ele>788.394</ele>
<time>2020-09-11T12:23:13Z</time>
</trkpt>
<trkpt lat="47.762276" lon="10.751515">
<ele>788.477</ele>
<time>2020-09-11T12:23:14Z</time>
</trkpt>
<trkpt lat="47.762226" lon="10.751509">
<ele>788.562</ele>
<time>2020-09-11T12:23:15Z</time>
</trkpt>
<trkpt lat="47.76218" lon="10.751505">
<ele>788.616</ele>
<time>2020-09-11T12:23:16Z</time>
</trkpt>
<trkpt lat="47.762138" lon="10.751512">
<ele>788.642</ele>
<time>2020-09-11T12:23:17Z</time>
</trkpt>
<trkpt lat="47.762093" lon="10.75153">
<ele>788.643</ele>
<time>2020-09-11T12:23:18Z</time>
</trkpt>
<trkpt lat="47.762043" lon="10.751557">
<ele>788.642</ele>
<time>2020-09-11T12:23:19Z</time>
</trkpt>
<trkpt lat="47.76199" lon="10.751594">
<ele>788.401</ele>
<time>2020-09-11T12:23:20Z</time>
</trkpt>
<trkpt lat="47.761932" lon="10.751647">
<ele>787.937</ele>
<time>2020-09-11T12:23:21Z</time>
</trkpt>
<trkpt lat="47.761871" lon="10.751717">
<ele>787.64</ele>
<time>2020-09-11T12:23:22Z</time>
</trkpt>
<trkpt lat="47.761806" lon="10.751801">
<ele>787.12</ele>
<time>2020-09-11T12:23:23Z</time>
</trkpt>
<trkpt lat="47.761742" lon="10.751902">
<ele>786.405</ele>
<time>2020-09-11T12:23:24Z</time>
</trkpt>
<trkpt lat="47.761681" lon="10.752027">
<ele>785.603</ele>
<time>2020-09-11T12:23:25Z</time>
</trkpt>
<trkpt lat="47.761631" lon="10.752158">
<ele>784.717</ele>
<time>2020-09-11T12:23:26Z</time>
</trkpt>
<trkpt lat="47.761585" lon="10.752305">
<ele>783.805</ele>
<time>2020-09-11T12:23:27Z</time>
</trkpt>
<trkpt lat="47.761524" lon="10.752454">
<ele>782.861</ele>
<time>2020-09-11T12:23:28Z</time>
</trkpt>
<trkpt lat="47.761467" lon="10.752609">
<ele>781.848</ele>
<time>2020-09-11T12:23:29Z</time>
</trkpt>
<trkpt lat="47.761402" lon="10.752772">
<ele>780.835</ele>
<time>2020-09-11T12:23:30Z</time>
</trkpt>
<trkpt lat="47.761337" lon="10.752928">
<ele>779.779</ele>
<time>2020-09-11T12:23:31Z</time>
</trkpt>
<trkpt lat="47.761265" lon="10.753078">
<ele>778.696</ele>
<time>2020-09-11T12:23:32Z</time>
</trkpt>
<trkpt lat="47.761192" lon="10.753225">
<ele>777.535</ele>
<time>2020-09-11T12:23:33Z</time>
</trkpt>
<trkpt lat="47.761112" lon="10.753369">
<ele>776.77</ele>
<time>2020-09-11T12:23:34Z</time>
</trkpt>
<trkpt lat="47.761028" lon="10.753509">
<ele>775.891</ele>
<time>2020-09-11T12:23:35Z</time>
</trkpt>
<trkpt lat="47.760937" lon="10.753636">
<ele>774.876</ele>
<time>2020-09-11T12:23:36Z</time>
</trkpt>
<trkpt lat="47.760845" lon="10.753763">
<ele>774.21</ele>
<time>2020-09-11T12:23:37Z</time>
</trkpt>
<trkpt lat="47.76075" lon="10.753892">
<ele>773.439</ele>
<time>2020-09-11T12:23:38Z</time>
</trkpt>
<trkpt lat="47.760662" lon="10.75402">
<ele>772.554</ele>
<time>2020-09-11T12:23:39Z</time>
</trkpt>
<trkpt lat="47.760571" lon="10.754148">
<ele>771.969</ele>
<time>2020-09-11T12:23:40Z</time>
</trkpt>
<trkpt lat="47.760483" lon="10.754278">
<ele>771.202</ele>
<time>2020-09-11T12:23:41Z</time>
</trkpt>
<trkpt lat="47.760403" lon="10.754412">
<ele>770.623</ele>
<time>2020-09-11T12:23:42Z</time>
</trkpt>
<trkpt lat="47.76033" lon="10.754549">
<ele>770.267</ele>
<time>2020-09-11T12:23:43Z</time>
</trkpt>
<trkpt lat="47.760262" lon="10.754685">
<ele>769.758</ele>
<time>2020-09-11T12:23:44Z</time>
</trkpt>
<trkpt lat="47.760197" lon="10.754822">
<ele>769.364</ele>
<time>2020-09-11T12:23:45Z</time>
</trkpt>
<trkpt lat="47.760136" lon="10.754953">
<ele>768.837</ele>
<time>2020-09-11T12:23:46Z</time>
</trkpt>
<trkpt lat="47.760075" lon="10.755079">
<ele>768.44</ele>
<time>2020-09-11T12:23:47Z</time>
</trkpt>
<trkpt lat="47.760014" lon="10.755205">
<ele>768.138</ele>
<time>2020-09-11T12:23:48Z</time>
</trkpt>
<trkpt lat="47.759956" lon="10.755328">
<ele>767.923</ele>
<time>2020-09-11T12:23:49Z</time>
</trkpt>
<trkpt lat="47.759903" lon="10.755454">
<ele>767.766</ele>
<time>2020-09-11T12:23:50Z</time>
</trkpt>
<trkpt lat="47.75985" lon="10.755573">
<ele>767.663</ele>
<time>2020-09-11T12:23:51Z</time>
</trkpt>
<trkpt lat="47.759792" lon="10.755691">
<ele>767.59</ele>
<time>2020-09-11T12:23:52Z</time>
</trkpt>
<trkpt lat="47.759743" lon="10.755804">
<ele>767.588</ele>
<time>2020-09-11T12:23:53Z</time>
</trkpt>
<trkpt lat="47.759693" lon="10.755911">
<ele>767.588</ele>
<time>2020-09-11T12:23:54Z</time>
</trkpt>
<trkpt lat="47.759636" lon="10.756018">
<ele>767.588</ele>
<time>2020-09-11T12:23:55Z</time>
</trkpt>
<trkpt lat="47.75959" lon="10.756124">
<ele>767.588</ele>
<time>2020-09-11T12:23:56Z</time>
</trkpt>
<trkpt lat="47.759541" lon="10.756228">
<ele>767.588</ele>
<time>2020-09-11T12:23:57Z</time>
</trkpt>
<trkpt lat="47.759495" lon="10.756331">
<ele>767.588</ele>
<time>2020-09-11T12:23:58Z</time>
</trkpt>
<trkpt lat="47.759449" lon="10.756436">
<ele>767.588</ele>
<time>2020-09-11T12:23:59Z</time>
</trkpt>
<trkpt lat="47.759411" lon="10.756539">
<ele>767.588</ele>
<time>2020-09-11T12:24:00Z</time>
</trkpt>
<trkpt lat="47.759373" lon="10.756642">
<ele>767.588</ele>
<time>2020-09-11T12:24:01Z</time>
</trkpt>
<trkpt lat="47.759338" lon="10.756742">
<ele>767.588</ele>
<time>2020-09-11T12:24:02Z</time>
</trkpt>
<trkpt lat="47.759312" lon="10.756844">
<ele>767.588</ele>
<time>2020-09-11T12:24:03Z</time>
</trkpt>
<trkpt lat="47.759293" lon="10.756944">
<ele>767.588</ele>
<time>2020-09-11T12:24:04Z</time>
</trkpt>
<trkpt lat="47.759281" lon="10.757045">
<ele>767.588</ele>
<time>2020-09-11T12:24:05Z</time>
</trkpt>
<trkpt lat="47.75927" lon="10.757145">
<ele>767.588</ele>
<time>2020-09-11T12:24:06Z</time>
</trkpt>
<trkpt lat="47.759258" lon="10.757243">
<ele>767.588</ele>
<time>2020-09-11T12:24:07Z</time>
</trkpt>
<trkpt lat="47.759243" lon="10.757339">
<ele>767.588</ele>
<time>2020-09-11T12:24:08Z</time>
</trkpt>
<trkpt lat="47.759235" lon="10.757437">
<ele>767.588</ele>
<time>2020-09-11T12:24:09Z</time>
</trkpt>
<trkpt lat="47.759228" lon="10.757533">
<ele>767.588</ele>
<time>2020-09-11T12:24:10Z</time>
</trkpt>
<trkpt lat="47.759216" lon="10.757628">
<ele>767.588</ele>
<time>2020-09-11T12:24:11Z</time>
</trkpt>
<trkpt lat="47.759212" lon="10.757727">
<ele>767.588</ele>
<time>2020-09-11T12:24:12Z</time>
</trkpt>
<trkpt lat="47.759205" lon="10.757826">
<ele>767.588</ele>
<time>2020-09-11T12:24:13Z</time>
</trkpt>
<trkpt lat="47.759197" lon="10.757925">
<ele>767.588</ele>
<time>2020-09-11T12:24:14Z</time>
</trkpt>
<trkpt lat="47.759186" lon="10.758025">
<ele>767.588</ele>
<time>2020-09-11T12:24:15Z</time>
</trkpt>
<trkpt lat="47.759171" lon="10.758125">
<ele>767.588</ele>
<time>2020-09-11T12:24:16Z</time>
</trkpt>
<trkpt lat="47.759163" lon="10.758226">
<ele>767.588</ele>
<time>2020-09-11T12:24:17Z</time>
</trkpt>
<trkpt lat="47.759148" lon="10.758327">
<ele>767.588</ele>
<time>2020-09-11T12:24:18Z</time>
</trkpt>
<trkpt lat="47.759136" lon="10.758425">
<ele>767.588</ele>
<time>2020-09-11T12:24:19Z</time>
</trkpt>
<trkpt lat="47.759117" lon="10.758523">
<ele>767.588</ele>
<time>2020-09-11T12:24:20Z</time>
</trkpt>
<trkpt lat="47.759102" lon="10.758618">
<ele>767.588</ele>
<time>2020-09-11T12:24:21Z</time>
</trkpt>
<trkpt lat="47.759079" lon="10.758714">
<ele>767.588</ele>
<time>2020-09-11T12:24:22Z</time>
</trkpt>
<trkpt lat="47.75906" lon="10.758806">
<ele>767.588</ele>
<time>2020-09-11T12:24:23Z</time>
</trkpt>
<trkpt lat="47.759041" lon="10.758901">
<ele>767.825</ele>
<time>2020-09-11T12:24:24Z</time>
</trkpt>
<trkpt lat="47.75901" lon="10.75899">
<ele>768.049</ele>
<time>2020-09-11T12:24:25Z</time>
</trkpt>
<trkpt lat="47.758991" lon="10.759081">
<ele>768.235</ele>
<time>2020-09-11T12:24:26Z</time>
</trkpt>
<trkpt lat="47.758968" lon="10.759173">
<ele>768.384</ele>
<time>2020-09-11T12:24:27Z</time>
</trkpt>
<trkpt lat="47.758942" lon="10.759261">
<ele>768.499</ele>
<time>2020-09-11T12:24:28Z</time>
</trkpt>
<trkpt lat="47.758911" lon="10.759349">
<ele>768.583</ele>
<time>2020-09-11T12:24:29Z</time>
</trkpt>
<trkpt lat="47.758881" lon="10.759432">
<ele>768.636</ele>
<time>2020-09-11T12:24:30Z</time>
</trkpt>
<trkpt lat="47.758854" lon="10.759515">
<ele>768.662</ele>
<time>2020-09-11T12:24:31Z</time>
</trkpt>
<trkpt lat="47.758827" lon="10.759597">
<ele>768.904</ele>
<time>2020-09-11T12:24:32Z</time>
</trkpt>
<trkpt lat="47.758801" lon="10.759682">
<ele>769.098</ele>
<time>2020-09-11T12:24:33Z</time>
</trkpt>
<trkpt lat="47.758778" lon="10.75977">
<ele>769.232</ele>
<time>2020-09-11T12:24:34Z</time>
</trkpt>
<trkpt lat="47.758747" lon="10.759865">
<ele>769.377</ele>
<time>2020-09-11T12:24:35Z</time>
</trkpt>
<trkpt lat="47.75872" lon="10.759954">
<ele>769.49</ele>
<time>2020-09-11T12:24:36Z</time>
</trkpt>
<trkpt lat="47.758694" lon="10.760043">
<ele>769.564</ele>
<time>2020-09-11T12:24:37Z</time>
</trkpt>
<trkpt lat="47.758671" lon="10.760133">
<ele>769.885</ele>
<time>2020-09-11T12:24:38Z</time>
</trkpt>
<trkpt lat="47.758648" lon="10.760221">
<ele>770.132</ele>
<time>2020-09-11T12:24:39Z</time>
</trkpt>
<trkpt lat="47.758629" lon="10.760308">
<ele>770.362</ele>
<time>2020-09-11T12:24:40Z</time>
</trkpt>
<trkpt lat="47.75861" lon="10.760395">
<ele>770.49</ele>
<time>2020-09-11T12:24:41Z</time>
</trkpt>
<trkpt lat="47.758587" lon="10.760482">
<ele>770.584</ele>
<time>2020-09-11T12:24:42Z</time>
</trkpt>
<trkpt lat="47.758575" lon="10.760571">
<ele>770.641</ele>
<time>2020-09-11T12:24:43Z</time>
</trkpt>
<trkpt lat="47.75856" lon="10.760663">
<ele>770.69</ele>
<time>2020-09-11T12:24:44Z</time>
</trkpt>
<trkpt lat="47.758549" lon="10.760755">
<ele>770.721</ele>
<time>2020-09-11T12:24:45Z</time>
</trkpt>
<trkpt lat="47.758541" lon="10.76085">
<ele>770.721</ele>
<time>2020-09-11T12:24:46Z</time>
</trkpt>
<trkpt lat="47.75853" lon="10.760947">
<ele>770.721</ele>
<time>2020-09-11T12:24:47Z</time>
</trkpt>
<trkpt lat="47.758522" lon="10.761046">
<ele>770.721</ele>
<time>2020-09-11T12:24:48Z</time>
</trkpt>
<trkpt lat="47.758518" lon="10.76115">
<ele>770.448</ele>
<time>2020-09-11T12:24:49Z</time>
</trkpt>
<trkpt lat="47.758518" lon="10.761253">
<ele>770.236</ele>
<time>2020-09-11T12:24:50Z</time>
</trkpt>
<trkpt lat="47.758511" lon="10.761353">
<ele>770.076</ele>
<time>2020-09-11T12:24:51Z</time>
</trkpt>
<trkpt lat="47.758503" lon="10.761455">
<ele>769.96</ele>
<time>2020-09-11T12:24:52Z</time>
</trkpt>
<trkpt lat="47.758495" lon="10.761557">
<ele>769.875</ele>
<time>2020-09-11T12:24:53Z</time>
</trkpt>
<trkpt lat="47.758492" lon="10.761657">
<ele>769.816</ele>
<time>2020-09-11T12:24:54Z</time>
</trkpt>
<trkpt lat="47.758484" lon="10.761755">
<ele>769.762</ele>
<time>2020-09-11T12:24:55Z</time>
</trkpt>
<trkpt lat="47.758469" lon="10.761852">
<ele>769.737</ele>
<time>2020-09-11T12:24:56Z</time>
</trkpt>
<trkpt lat="47.758457" lon="10.761949">
<ele>769.736</ele>
<time>2020-09-11T12:24:57Z</time>
</trkpt>
<trkpt lat="47.758446" lon="10.762045">
<ele>769.736</ele>
<time>2020-09-11T12:24:58Z</time>
</trkpt>
<trkpt lat="47.758427" lon="10.762141">
<ele>769.736</ele>
<time>2020-09-11T12:24:59Z</time>
</trkpt>
<trkpt lat="47.758408" lon="10.762239">
<ele>769.5</ele>
<time>2020-09-11T12:25:00Z</time>
</trkpt>
<trkpt lat="47.758385" lon="10.762333">
<ele>769.314</ele>
<time>2020-09-11T12:25:01Z</time>
</trkpt>
<trkpt lat="47.758362" lon="10.76243">
<ele>769.199</ele>
<time>2020-09-11T12:25:02Z</time>
</trkpt>
<trkpt lat="47.758335" lon="10.762525">
<ele>768.84</ele>
<time>2020-09-11T12:25:03Z</time>
</trkpt>
<trkpt lat="47.758308" lon="10.762622">
<ele>768.575</ele>
<time>2020-09-11T12:25:04Z</time>
</trkpt>
<trkpt lat="47.758278" lon="10.762716">
<ele>768.323</ele>
<time>2020-09-11T12:25:05Z</time>
</trkpt>
<trkpt lat="47.758247" lon="10.762814">
<ele>768.135</ele>
<time>2020-09-11T12:25:06Z</time>
</trkpt>
<trkpt lat="47.758221" lon="10.762913">
<ele>768.018</ele>
<time>2020-09-11T12:25:07Z</time>
</trkpt>
<trkpt lat="47.75819" lon="10.763015">
<ele>767.625</ele>
<time>2020-09-11T12:25:08Z</time>
</trkpt>
<trkpt lat="47.75816" lon="10.763124">
<ele>767.312</ele>
<time>2020-09-11T12:25:09Z</time>
</trkpt>
<trkpt lat="47.758129" lon="10.763231">
<ele>767.118</ele>
<time>2020-09-11T12:25:10Z</time>
</trkpt>
<trkpt lat="47.758095" lon="10.763344">
<ele>766.573</ele>
<time>2020-09-11T12:25:11Z</time>
</trkpt>
<trkpt lat="47.758064" lon="10.763458">
<ele>766.267</ele>
<time>2020-09-11T12:25:12Z</time>
</trkpt>
<trkpt lat="47.75803" lon="10.763573">
<ele>765.744</ele>
<time>2020-09-11T12:25:13Z</time>
</trkpt>
<trkpt lat="47.757996" lon="10.76369">
<ele>765.364</ele>
<time>2020-09-11T12:25:14Z</time>
</trkpt>
<trkpt lat="47.757969" lon="10.763807">
<ele>765.025</ele>
<time>2020-09-11T12:25:15Z</time>
</trkpt>
<trkpt lat="47.75795" lon="10.76392">
<ele>764.814</ele>
<time>2020-09-11T12:25:16Z</time>
</trkpt>
<trkpt lat="47.757927" lon="10.764033">
<ele>764.402</ele>
<time>2020-09-11T12:25:17Z</time>
</trkpt>
<trkpt lat="47.7579" lon="10.764145">
<ele>764.093</ele>
<time>2020-09-11T12:25:18Z</time>
</trkpt>
<trkpt lat="47.757885" lon="10.764256">
<ele>763.879</ele>
<time>2020-09-11T12:25:19Z</time>
</trkpt>
<trkpt lat="47.757866" lon="10.764367">
<ele>763.723</ele>
<time>2020-09-11T12:25:20Z</time>
</trkpt>
<trkpt lat="47.757851" lon="10.764477">
<ele>763.576</ele>
<time>2020-09-11T12:25:21Z</time>
</trkpt>
<trkpt lat="47.757832" lon="10.764586">
<ele>763.522</ele>
<time>2020-09-11T12:25:22Z</time>
</trkpt>
<trkpt lat="47.757816" lon="10.764695">
<ele>763.496</ele>
<time>2020-09-11T12:25:23Z</time>
</trkpt>
<trkpt lat="47.757801" lon="10.764803">
<ele>763.472</ele>
<time>2020-09-11T12:25:24Z</time>
</trkpt>
<trkpt lat="47.757782" lon="10.764912">
<ele>763.472</ele>
<time>2020-09-11T12:25:25Z</time>
</trkpt>
<trkpt lat="47.757763" lon="10.765018">
<ele>763.128</ele>
<time>2020-09-11T12:25:26Z</time>
</trkpt>
<trkpt lat="47.757744" lon="10.765123">
<ele>762.858</ele>
<time>2020-09-11T12:25:27Z</time>
</trkpt>
<trkpt lat="47.757721" lon="10.765228">
<ele>762.654</ele>
<time>2020-09-11T12:25:28Z</time>
</trkpt>
<trkpt lat="47.757698" lon="10.765333">
<ele>762.505</ele>
<time>2020-09-11T12:25:29Z</time>
</trkpt>
<trkpt lat="47.757671" lon="10.765437">
<ele>762.402</ele>
<time>2020-09-11T12:25:30Z</time>
</trkpt>
<trkpt lat="47.757641" lon="10.76554">
<ele>762.338</ele>
<time>2020-09-11T12:25:31Z</time>
</trkpt>
<trkpt lat="47.75761" lon="10.765645">
<ele>762.309</ele>
<time>2020-09-11T12:25:32Z</time>
</trkpt>
<trkpt lat="47.75758" lon="10.765748">
<ele>762.068</ele>
<time>2020-09-11T12:25:33Z</time>
</trkpt>
<trkpt lat="47.757542" lon="10.765852">
<ele>761.896</ele>
<time>2020-09-11T12:25:34Z</time>
</trkpt>
<trkpt lat="47.7575" lon="10.765953">
<ele>761.498</ele>
<time>2020-09-11T12:25:35Z</time>
</trkpt>
<trkpt lat="47.757446" lon="10.766051">
<ele>761.218</ele>
<time>2020-09-11T12:25:36Z</time>
</trkpt>
<trkpt lat="47.757389" lon="10.766144">
<ele>760.735</ele>
<time>2020-09-11T12:25:37Z</time>
</trkpt>
<trkpt lat="47.757324" lon="10.766229">
<ele>760.016</ele>
<time>2020-09-11T12:25:38Z</time>
</trkpt>
<trkpt lat="47.757252" lon="10.766311">
<ele>759.451</ele>
<time>2020-09-11T12:25:39Z</time>
</trkpt>
<trkpt lat="47.757175" lon="10.76639">
<ele>759.094</ele>
<time>2020-09-11T12:25:40Z</time>
</trkpt>
<trkpt lat="47.757095" lon="10.76647">
<ele>758.528</ele>
<time>2020-09-11T12:25:41Z</time>
</trkpt>
<trkpt lat="47.757011" lon="10.766546">
<ele>757.81</ele>
<time>2020-09-11T12:25:42Z</time>
</trkpt>
<trkpt lat="47.756924" lon="10.766623">
<ele>757.341</ele>
<time>2020-09-11T12:25:43Z</time>
</trkpt>
<trkpt lat="47.756844" lon="10.766699">
<ele>756.716</ele>
<time>2020-09-11T12:25:44Z</time>
</trkpt>
<trkpt lat="47.756756" lon="10.766768">
<ele>756.242</ele>
<time>2020-09-11T12:25:45Z</time>
</trkpt>
<trkpt lat="47.756664" lon="10.766837">
<ele>755.624</ele>
<time>2020-09-11T12:25:46Z</time>
</trkpt>
<trkpt lat="47.75658" lon="10.766907">
<ele>755.152</ele>
<time>2020-09-11T12:25:47Z</time>
</trkpt>
<trkpt lat="47.756496" lon="10.766973">
<ele>754.809</ele>
<time>2020-09-11T12:25:48Z</time>
</trkpt>
<trkpt lat="47.756413" lon="10.76704">
<ele>754.577</ele>
<time>2020-09-11T12:25:49Z</time>
</trkpt>
<trkpt lat="47.756329" lon="10.767101">
<ele>754.429</ele>
<time>2020-09-11T12:25:50Z</time>
</trkpt>
<trkpt lat="47.756241" lon="10.767155">
<ele>754.332</ele>
<time>2020-09-11T12:25:51Z</time>
</trkpt>
<trkpt lat="47.756157" lon="10.767199">
<ele>754.261</ele>
<time>2020-09-11T12:25:52Z</time>
</trkpt>
<trkpt lat="47.756073" lon="10.767231">
<ele>754.261</ele>
<time>2020-09-11T12:25:53Z</time>
</trkpt>
<trkpt lat="47.755985" lon="10.76726">
<ele>754.261</ele>
<time>2020-09-11T12:25:54Z</time>
</trkpt>
<trkpt lat="47.755905" lon="10.767288">
<ele>754.261</ele>
<time>2020-09-11T12:25:55Z</time>
</trkpt>
<trkpt lat="47.755825" lon="10.767313">
<ele>754.261</ele>
<time>2020-09-11T12:25:56Z</time>
</trkpt>
<trkpt lat="47.755745" lon="10.767335">
<ele>754.261</ele>
<time>2020-09-11T12:25:57Z</time>
</trkpt>
<trkpt lat="47.755665" lon="10.76735">
<ele>754.261</ele>
<time>2020-09-11T12:25:58Z</time>
</trkpt>
<trkpt lat="47.755592" lon="10.767361">
<ele>754.261</ele>
<time>2020-09-11T12:25:59Z</time>
</trkpt>
<trkpt lat="47.75552" lon="10.767359">
<ele>754.489</ele>
<time>2020-09-11T12:26:00Z</time>
</trkpt>
<trkpt lat="47.755444" lon="10.76735">
<ele>754.671</ele>
<time>2020-09-11T12:26:01Z</time>
</trkpt>
<trkpt lat="47.755371" lon="10.767337">
<ele>754.814</ele>
<time>2020-09-11T12:26:02Z</time>
</trkpt>
<trkpt lat="47.755295" lon="10.767321">
<ele>754.923</ele>
<time>2020-09-11T12:26:03Z</time>
</trkpt>
<trkpt lat="47.755226" lon="10.767303">
<ele>755</ele>
<time>2020-09-11T12:26:04Z</time>
</trkpt>
<trkpt lat="47.755154" lon="10.767285">
<ele>755.079</ele>
<time>2020-09-11T12:26:05Z</time>
</trkpt>
<trkpt lat="47.755081" lon="10.767264">
<ele>755.13</ele>
<time>2020-09-11T12:26:06Z</time>
</trkpt>
<trkpt lat="47.755009" lon="10.767245">
<ele>755.155</ele>
<time>2020-09-11T12:26:07Z</time>
</trkpt>
<trkpt lat="47.754936" lon="10.767223">
<ele>755.155</ele>
<time>2020-09-11T12:26:08Z</time>
</trkpt>
<trkpt lat="47.754868" lon="10.7672">
<ele>755.155</ele>
<time>2020-09-11T12:26:09Z</time>
</trkpt>
<trkpt lat="47.754795" lon="10.767175">
<ele>755.155</ele>
<time>2020-09-11T12:26:10Z</time>
</trkpt>
<trkpt lat="47.754723" lon="10.76715">
<ele>755.155</ele>
<time>2020-09-11T12:26:11Z</time>
</trkpt>
<trkpt lat="47.754646" lon="10.767125">
<ele>755.155</ele>
<time>2020-09-11T12:26:12Z</time>
</trkpt>
<trkpt lat="47.754574" lon="10.7671">
<ele>754.936</ele>
<time>2020-09-11T12:26:13Z</time>
</trkpt>
<trkpt lat="47.754498" lon="10.767076">
<ele>754.78</ele>
<time>2020-09-11T12:26:14Z</time>
</trkpt>
<trkpt lat="47.754417" lon="10.767052">
<ele>754.62</ele>
<time>2020-09-11T12:26:15Z</time>
</trkpt>
<trkpt lat="47.754341" lon="10.767028">
<ele>754.492</ele>
<time>2020-09-11T12:26:16Z</time>
</trkpt>
<trkpt lat="47.754261" lon="10.767011">
<ele>754.407</ele>
<time>2020-09-11T12:26:17Z</time>
</trkpt>
<trkpt lat="47.754181" lon="10.766994">
<ele>754.064</ele>
<time>2020-09-11T12:26:18Z</time>
</trkpt>
<trkpt lat="47.754093" lon="10.766981">
<ele>753.795</ele>
<time>2020-09-11T12:26:19Z</time>
</trkpt>
<trkpt lat="47.754013" lon="10.766973">
<ele>753.593</ele>
<time>2020-09-11T12:26:20Z</time>
</trkpt>
<trkpt lat="47.753925" lon="10.766972">
<ele>753.409</ele>
<time>2020-09-11T12:26:21Z</time>
</trkpt>
<trkpt lat="47.753838" lon="10.766978">
<ele>753.319</ele>
<time>2020-09-11T12:26:22Z</time>
</trkpt>
<trkpt lat="47.753754" lon="10.766992">
<ele>753.263</ele>
<time>2020-09-11T12:26:23Z</time>
</trkpt>
<trkpt lat="47.753666" lon="10.767012">
<ele>753.217</ele>
<time>2020-09-11T12:26:24Z</time>
</trkpt>
<trkpt lat="47.753586" lon="10.767042">
<ele>752.946</ele>
<time>2020-09-11T12:26:25Z</time>
</trkpt>
<trkpt lat="47.753506" lon="10.76708">
<ele>752.746</ele>
<time>2020-09-11T12:26:26Z</time>
</trkpt>
<trkpt lat="47.753426" lon="10.767125">
<ele>752.582</ele>
<time>2020-09-11T12:26:27Z</time>
</trkpt>
<trkpt lat="47.753349" lon="10.767177">
<ele>752.451</ele>
<time>2020-09-11T12:26:28Z</time>
</trkpt>
<trkpt lat="47.753273" lon="10.767235">
<ele>752.35</ele>
<time>2020-09-11T12:26:29Z</time>
</trkpt>
<trkpt lat="47.753204" lon="10.767298">
<ele>752.276</ele>
<time>2020-09-11T12:26:30Z</time>
</trkpt>
<trkpt lat="47.753139" lon="10.767368">
<ele>752.228</ele>
<time>2020-09-11T12:26:31Z</time>
</trkpt>
<trkpt lat="47.753075" lon="10.767443">
<ele>752.205</ele>
<time>2020-09-11T12:26:32Z</time>
</trkpt>
<trkpt lat="47.753021" lon="10.767527">
<ele>752.205</ele>
<time>2020-09-11T12:26:33Z</time>
</trkpt>
<trkpt lat="47.752975" lon="10.76762">
<ele>752.205</ele>
<time>2020-09-11T12:26:34Z</time>
</trkpt>
<trkpt lat="47.752941" lon="10.767716">
<ele>752.205</ele>
<time>2020-09-11T12:26:35Z</time>
</trkpt>
<trkpt lat="47.752903" lon="10.767817">
<ele>752.205</ele>
<time>2020-09-11T12:26:36Z</time>
</trkpt>
<trkpt lat="47.752869" lon="10.767914">
<ele>752.205</ele>
<time>2020-09-11T12:26:37Z</time>
</trkpt>
<trkpt lat="47.752831" lon="10.768">
<ele>752.205</ele>
<time>2020-09-11T12:26:38Z</time>
</trkpt>
<trkpt lat="47.752792" lon="10.768082">
<ele>752.205</ele>
<time>2020-09-11T12:26:39Z</time>
</trkpt>
<trkpt lat="47.75275" lon="10.76815">
<ele>752.479</ele>
<time>2020-09-11T12:26:40Z</time>
</trkpt>
<trkpt lat="47.752708" lon="10.768205">
<ele>752.695</ele>
<time>2020-09-11T12:26:41Z</time>
</trkpt>
<trkpt lat="47.752659" lon="10.768247">
<ele>752.834</ele>
<time>2020-09-11T12:26:42Z</time>
</trkpt>
<trkpt lat="47.752613" lon="10.768278">
<ele>753.192</ele>
<time>2020-09-11T12:26:43Z</time>
</trkpt>
<trkpt lat="47.752563" lon="10.768303">
<ele>753.472</ele>
<time>2020-09-11T12:26:44Z</time>
</trkpt>
<trkpt lat="47.752518" lon="10.768318">
<ele>753.728</ele>
<time>2020-09-11T12:26:45Z</time>
</trkpt>
<trkpt lat="47.752464" lon="10.768329">
<ele>754.146</ele>
<time>2020-09-11T12:26:46Z</time>
</trkpt>
<trkpt lat="47.752415" lon="10.768332">
<ele>754.472</ele>
<time>2020-09-11T12:26:47Z</time>
</trkpt>
<trkpt lat="47.752361" lon="10.768333">
<ele>754.681</ele>
<time>2020-09-11T12:26:48Z</time>
</trkpt>
<trkpt lat="47.752312" lon="10.768333">
<ele>755.154</ele>
<time>2020-09-11T12:26:49Z</time>
</trkpt>
<trkpt lat="47.752258" lon="10.768331">
<ele>755.528</ele>
<time>2020-09-11T12:26:50Z</time>
</trkpt>
<trkpt lat="47.752205" lon="10.768327">
<ele>755.839</ele>
<time>2020-09-11T12:26:51Z</time>
</trkpt>
<trkpt lat="47.752155" lon="10.768325">
<ele>756.265</ele>
<time>2020-09-11T12:26:52Z</time>
</trkpt>
<trkpt lat="47.752106" lon="10.76832">
<ele>756.579</ele>
<time>2020-09-11T12:26:53Z</time>
</trkpt>
<trkpt lat="47.752052" lon="10.768315">
<ele>756.796</ele>
<time>2020-09-11T12:26:54Z</time>
</trkpt>
<trkpt lat="47.752003" lon="10.768313">
<ele>757.261</ele>
<time>2020-09-11T12:26:55Z</time>
</trkpt>
<trkpt lat="47.751957" lon="10.76831">
<ele>757.621</ele>
<time>2020-09-11T12:26:56Z</time>
</trkpt>
<trkpt lat="47.751911" lon="10.768303">
<ele>757.841</ele>
<time>2020-09-11T12:26:57Z</time>
</trkpt>
<trkpt lat="47.751869" lon="10.768293">
<ele>758.284</ele>
<time>2020-09-11T12:26:58Z</time>
</trkpt>
<trkpt lat="47.751827" lon="10.768282">
<ele>758.627</ele>
<time>2020-09-11T12:26:59Z</time>
</trkpt>
<trkpt lat="47.751781" lon="10.768266">
<ele>758.88</ele>
<time>2020-09-11T12:27:00Z</time>
</trkpt>
<trkpt lat="47.75174" lon="10.768243">
<ele>759.072</ele>
<time>2020-09-11T12:27:01Z</time>
</trkpt>
<trkpt lat="47.751701" lon="10.76822">
<ele>759.184</ele>
<time>2020-09-11T12:27:02Z</time>
</trkpt>
<trkpt lat="47.751659" lon="10.768197">
<ele>759.487</ele>
<time>2020-09-11T12:27:03Z</time>
</trkpt>
<trkpt lat="47.751617" lon="10.768175">
<ele>759.697</ele>
<time>2020-09-11T12:27:04Z</time>
</trkpt>
<trkpt lat="47.751579" lon="10.768153">
<ele>759.888</ele>
<time>2020-09-11T12:27:05Z</time>
</trkpt>
<trkpt lat="47.751541" lon="10.768131">
<ele>760.003</ele>
<time>2020-09-11T12:27:06Z</time>
</trkpt>
<trkpt lat="47.751503" lon="10.768108">
<ele>760.343</ele>
<time>2020-09-11T12:27:07Z</time>
</trkpt>
<trkpt lat="47.751465" lon="10.768084">
<ele>760.584</ele>
<time>2020-09-11T12:27:08Z</time>
</trkpt>
<trkpt lat="47.751427" lon="10.76806">
<ele>761.041</ele>
<time>2020-09-11T12:27:09Z</time>
</trkpt>
<trkpt lat="47.751389" lon="10.768038">
<ele>761.404</ele>
<time>2020-09-11T12:27:10Z</time>
</trkpt>
<trkpt lat="47.75135" lon="10.768017">
<ele>761.759</ele>
<time>2020-09-11T12:27:11Z</time>
</trkpt>
<trkpt lat="47.751312" lon="10.767998">
<ele>761.938</ele>
<time>2020-09-11T12:27:12Z</time>
</trkpt>
<trkpt lat="47.751278" lon="10.767982">
<ele>762.026</ele>
<time>2020-09-11T12:27:13Z</time>
</trkpt>
<trkpt lat="47.751236" lon="10.767964">
<ele>762.351</ele>
<time>2020-09-11T12:27:14Z</time>
</trkpt>
<trkpt lat="47.751202" lon="10.76795">
<ele>762.615</ele>
<time>2020-09-11T12:27:15Z</time>
</trkpt>
<trkpt lat="47.75116" lon="10.767939">
<ele>762.813</ele>
<time>2020-09-11T12:27:16Z</time>
</trkpt>
<trkpt lat="47.751125" lon="10.767926">
<ele>762.951</ele>
<time>2020-09-11T12:27:17Z</time>
</trkpt>
<trkpt lat="47.751087" lon="10.767917">
<ele>763.055</ele>
<time>2020-09-11T12:27:18Z</time>
</trkpt>
<trkpt lat="47.751053" lon="10.767908">
<ele>763.131</ele>
<time>2020-09-11T12:27:19Z</time>
</trkpt>
<trkpt lat="47.751015" lon="10.767899">
<ele>763.179</ele>
<time>2020-09-11T12:27:20Z</time>
</trkpt>
<trkpt lat="47.750977" lon="10.767886">
<ele>763.203</ele>
<time>2020-09-11T12:27:21Z</time>
</trkpt>
<trkpt lat="47.750935" lon="10.767874">
<ele>763.203</ele>
<time>2020-09-11T12:27:22Z</time>
</trkpt>
<trkpt lat="47.750889" lon="10.767859">
<ele>763.203</ele>
<time>2020-09-11T12:27:23Z</time>
</trkpt>
<trkpt lat="47.750847" lon="10.767847">
<ele>763.203</ele>
<time>2020-09-11T12:27:24Z</time>
</trkpt>
<trkpt lat="47.750801" lon="10.767835">
<ele>763.203</ele>
<time>2020-09-11T12:27:25Z</time>
</trkpt>
<trkpt lat="47.750759" lon="10.767825">
<ele>763.203</ele>
<time>2020-09-11T12:27:26Z</time>
</trkpt>
<trkpt lat="47.750713" lon="10.767816">
<ele>763.203</ele>
<time>2020-09-11T12:27:27Z</time>
</trkpt>
<trkpt lat="47.750664" lon="10.7678">
<ele>763.203</ele>
<time>2020-09-11T12:27:28Z</time>
</trkpt>
<trkpt lat="47.750618" lon="10.767783">
<ele>763.203</ele>
<time>2020-09-11T12:27:29Z</time>
</trkpt>
<trkpt lat="47.750565" lon="10.767765">
<ele>762.936</ele>
<time>2020-09-11T12:27:30Z</time>
</trkpt>
<trkpt lat="47.750515" lon="10.767744">
<ele>762.73</ele>
<time>2020-09-11T12:27:31Z</time>
</trkpt>
<trkpt lat="47.750465" lon="10.767718">
<ele>762.573</ele>
<time>2020-09-11T12:27:32Z</time>
</trkpt>
<trkpt lat="47.75042" lon="10.767688">
<ele>762.454</ele>
<time>2020-09-11T12:27:33Z</time>
</trkpt>
<trkpt lat="47.750374" lon="10.767655">
<ele>762.374</ele>
<time>2020-09-11T12:27:34Z</time>
</trkpt>
<trkpt lat="47.750328" lon="10.76762">
<ele>762.026</ele>
<time>2020-09-11T12:27:35Z</time>
</trkpt>
<trkpt lat="47.750278" lon="10.767583">
<ele>761.761</ele>
<time>2020-09-11T12:27:36Z</time>
</trkpt>
<trkpt lat="47.750233" lon="10.767547">
<ele>761.557</ele>
<time>2020-09-11T12:27:37Z</time>
</trkpt>
<trkpt lat="47.750183" lon="10.767509">
<ele>761.414</ele>
<time>2020-09-11T12:27:38Z</time>
</trkpt>
<trkpt lat="47.750141" lon="10.767466">
<ele>761.324</ele>
<time>2020-09-11T12:27:39Z</time>
</trkpt>
<trkpt lat="47.750092" lon="10.767424">
<ele>760.988</ele>
<time>2020-09-11T12:27:40Z</time>
</trkpt>
<trkpt lat="47.750042" lon="10.767382">
<ele>760.728</ele>
<time>2020-09-11T12:27:41Z</time>
</trkpt>
<trkpt lat="47.75" lon="10.767344">
<ele>760.536</ele>
<time>2020-09-11T12:27:42Z</time>
</trkpt>
<trkpt lat="47.74995" lon="10.767304">
<ele>760.407</ele>
<time>2020-09-11T12:27:43Z</time>
</trkpt>
<trkpt lat="47.749901" lon="10.76727">
<ele>760.325</ele>
<time>2020-09-11T12:27:44Z</time>
</trkpt>
<trkpt lat="47.749847" lon="10.767237">
<ele>760.242</ele>
<time>2020-09-11T12:27:45Z</time>
</trkpt>
<trkpt lat="47.749798" lon="10.767205">
<ele>760.188</ele>
<time>2020-09-11T12:27:46Z</time>
</trkpt>
<trkpt lat="47.749744" lon="10.76718">
<ele>760.162</ele>
<time>2020-09-11T12:27:47Z</time>
</trkpt>
<trkpt lat="47.749687" lon="10.767155">
<ele>760.162</ele>
<time>2020-09-11T12:27:48Z</time>
</trkpt>
<trkpt lat="47.749638" lon="10.767128">
<ele>760.162</ele>
<time>2020-09-11T12:27:49Z</time>
</trkpt>
<trkpt lat="47.749588" lon="10.767103">
<ele>760.162</ele>
<time>2020-09-11T12:27:50Z</time>
</trkpt>
<trkpt lat="47.749538" lon="10.767076">
<ele>760.414</ele>
<time>2020-09-11T12:27:51Z</time>
</trkpt>
<trkpt lat="47.749489" lon="10.767052">
<ele>760.611</ele>
<time>2020-09-11T12:27:52Z</time>
</trkpt>
<trkpt lat="47.749439" lon="10.76703">
<ele>760.763</ele>
<time>2020-09-11T12:27:53Z</time>
</trkpt>
<trkpt lat="47.74939" lon="10.767011">
<ele>760.867</ele>
<time>2020-09-11T12:27:54Z</time>
</trkpt>
<trkpt lat="47.74934" lon="10.766992">
<ele>760.978</ele>
<time>2020-09-11T12:27:55Z</time>
</trkpt>
<trkpt lat="47.749294" lon="10.766971">
<ele>761.297</ele>
<time>2020-09-11T12:27:56Z</time>
</trkpt>
<trkpt lat="47.749249" lon="10.76695">
<ele>761.551</ele>
<time>2020-09-11T12:27:57Z</time>
</trkpt>
<trkpt lat="47.749199" lon="10.76693">
<ele>761.743</ele>
<time>2020-09-11T12:27:58Z</time>
</trkpt>
<trkpt lat="47.749157" lon="10.766911">
<ele>761.955</ele>
<time>2020-09-11T12:27:59Z</time>
</trkpt>
<trkpt lat="47.749107" lon="10.76689">
<ele>762.049</ele>
<time>2020-09-11T12:28:00Z</time>
</trkpt>
<trkpt lat="47.749062" lon="10.766869">
<ele>762.105</ele>
<time>2020-09-11T12:28:01Z</time>
</trkpt>
<trkpt lat="47.749012" lon="10.766845">
<ele>762.125</ele>
<time>2020-09-11T12:28:02Z</time>
</trkpt>
<trkpt lat="47.748966" lon="10.766818">
<ele>762.13</ele>
<time>2020-09-11T12:28:03Z</time>
</trkpt>
<trkpt lat="47.74892" lon="10.76679">
<ele>762.33</ele>
<time>2020-09-11T12:28:04Z</time>
</trkpt>
<trkpt lat="47.748875" lon="10.766759">
<ele>762.519</ele>
<time>2020-09-11T12:28:05Z</time>
</trkpt>
<trkpt lat="47.748829" lon="10.766728">
<ele>762.675</ele>
<time>2020-09-11T12:28:06Z</time>
</trkpt>
<trkpt lat="47.748779" lon="10.766697">
<ele>762.798</ele>
<time>2020-09-11T12:28:07Z</time>
</trkpt>
<trkpt lat="47.748737" lon="10.766668">
<ele>762.893</ele>
<time>2020-09-11T12:28:08Z</time>
</trkpt>
<trkpt lat="47.748688" lon="10.766638">
<ele>762.96</ele>
<time>2020-09-11T12:28:09Z</time>
</trkpt>
<trkpt lat="47.748642" lon="10.766606">
<ele>763.003</ele>
<time>2020-09-11T12:28:10Z</time>
</trkpt>
<trkpt lat="47.748596" lon="10.766575">
<ele>763.025</ele>
<time>2020-09-11T12:28:11Z</time>
</trkpt>
<trkpt lat="47.74855" lon="10.766545">
<ele>763.025</ele>
<time>2020-09-11T12:28:12Z</time>
</trkpt>
<trkpt lat="47.748501" lon="10.766514">
<ele>763.025</ele>
<time>2020-09-11T12:28:13Z</time>
</trkpt>
<trkpt lat="47.748451" lon="10.766483">
<ele>763.025</ele>
<time>2020-09-11T12:28:14Z</time>
</trkpt>
<trkpt lat="47.748402" lon="10.766454">
<ele>763.025</ele>
<time>2020-09-11T12:28:15Z</time>
</trkpt>
<trkpt lat="47.748352" lon="10.766424">
<ele>763.025</ele>
<time>2020-09-11T12:28:16Z</time>
</trkpt>
<trkpt lat="47.748299" lon="10.766397">
<ele>763.025</ele>
<time>2020-09-11T12:28:17Z</time>
</trkpt>
<trkpt lat="47.748249" lon="10.766368">
<ele>763.025</ele>
<time>2020-09-11T12:28:18Z</time>
</trkpt>
<trkpt lat="47.748192" lon="10.766343">
<ele>763.025</ele>
<time>2020-09-11T12:28:19Z</time>
</trkpt>
<trkpt lat="47.748142" lon="10.766318">
<ele>763.025</ele>
<time>2020-09-11T12:28:20Z</time>
</trkpt>
<trkpt lat="47.748085" lon="10.766296">
<ele>763.025</ele>
<time>2020-09-11T12:28:21Z</time>
</trkpt>
<trkpt lat="47.748032" lon="10.76628">
<ele>763.025</ele>
<time>2020-09-11T12:28:22Z</time>
</trkpt>
<trkpt lat="47.747978" lon="10.766269">
<ele>763.025</ele>
<time>2020-09-11T12:28:23Z</time>
</trkpt>
<trkpt lat="47.747925" lon="10.766261">
<ele>763.025</ele>
<time>2020-09-11T12:28:24Z</time>
</trkpt>
<trkpt lat="47.747868" lon="10.766258">
<ele>763.263</ele>
<time>2020-09-11T12:28:25Z</time>
</trkpt>
<trkpt lat="47.747814" lon="10.76626">
<ele>763.463</ele>
<time>2020-09-11T12:28:26Z</time>
</trkpt>
<trkpt lat="47.747757" lon="10.766261">
<ele>763.628</ele>
<time>2020-09-11T12:28:27Z</time>
</trkpt>
<trkpt lat="47.747696" lon="10.766267">
<ele>763.761</ele>
<time>2020-09-11T12:28:28Z</time>
</trkpt>
<trkpt lat="47.747639" lon="10.766272">
<ele>763.864</ele>
<time>2020-09-11T12:28:29Z</time>
</trkpt>
<trkpt lat="47.747581" lon="10.766277">
<ele>763.939</ele>
<time>2020-09-11T12:28:30Z</time>
</trkpt>
<trkpt lat="47.747524" lon="10.766284">
<ele>763.986</ele>
<time>2020-09-11T12:28:31Z</time>
</trkpt>
<trkpt lat="47.747467" lon="10.766288">
<ele>764.009</ele>
<time>2020-09-11T12:28:32Z</time>
</trkpt>
<trkpt lat="47.747406" lon="10.766296">
<ele>764.009</ele>
<time>2020-09-11T12:28:33Z</time>
</trkpt>
<trkpt lat="47.747349" lon="10.7663">
<ele>764.009</ele>
<time>2020-09-11T12:28:34Z</time>
</trkpt>
<trkpt lat="47.747292" lon="10.766307">
<ele>764.009</ele>
<time>2020-09-11T12:28:35Z</time>
</trkpt>
<trkpt lat="47.747234" lon="10.766317">
<ele>764.009</ele>
<time>2020-09-11T12:28:36Z</time>
</trkpt>
<trkpt lat="47.747173" lon="10.766327">
<ele>764.009</ele>
<time>2020-09-11T12:28:37Z</time>
</trkpt>
<trkpt lat="47.747108" lon="10.766336">
<ele>764.009</ele>
<time>2020-09-11T12:28:38Z</time>
</trkpt>
<trkpt lat="47.747044" lon="10.766342">
<ele>763.736</ele>
<time>2020-09-11T12:28:39Z</time>
</trkpt>
<trkpt lat="47.746983" lon="10.766349">
<ele>763.524</ele>
<time>2020-09-11T12:28:40Z</time>
</trkpt>
<trkpt lat="47.746918" lon="10.766358">
<ele>763.365</ele>
<time>2020-09-11T12:28:41Z</time>
</trkpt>
<trkpt lat="47.746853" lon="10.766372">
<ele>763.246</ele>
<time>2020-09-11T12:28:42Z</time>
</trkpt>
<trkpt lat="47.746788" lon="10.766383">
<ele>763.185</ele>
<time>2020-09-11T12:28:43Z</time>
</trkpt>
<trkpt lat="47.746723" lon="10.766393">
<ele>762.881</ele>
<time>2020-09-11T12:28:44Z</time>
</trkpt>
<trkpt lat="47.746658" lon="10.766405">
<ele>762.621</ele>
<time>2020-09-11T12:28:45Z</time>
</trkpt>
<trkpt lat="47.746593" lon="10.76642">
<ele>762.424</ele>
<time>2020-09-11T12:28:46Z</time>
</trkpt>
<trkpt lat="47.746525" lon="10.766441">
<ele>762.289</ele>
<time>2020-09-11T12:28:47Z</time>
</trkpt>
<trkpt lat="47.746456" lon="10.766466">
<ele>762.186</ele>
<time>2020-09-11T12:28:48Z</time>
</trkpt>
<trkpt lat="47.746391" lon="10.766495">
<ele>762.112</ele>
<time>2020-09-11T12:28:49Z</time>
</trkpt>
<trkpt lat="47.746319" lon="10.766522">
<ele>762.063</ele>
<time>2020-09-11T12:28:50Z</time>
</trkpt>
<trkpt lat="47.746246" lon="10.766548">
<ele>762.04</ele>
<time>2020-09-11T12:28:51Z</time>
</trkpt>
<trkpt lat="47.746178" lon="10.76658">
<ele>761.765</ele>
<time>2020-09-11T12:28:52Z</time>
</trkpt>
<trkpt lat="47.746105" lon="10.766617">
<ele>761.549</ele>
<time>2020-09-11T12:28:53Z</time>
</trkpt>
<trkpt lat="47.746033" lon="10.766655">
<ele>761.407</ele>
<time>2020-09-11T12:28:54Z</time>
</trkpt>
<trkpt lat="47.74596" lon="10.766695">
<ele>760.985</ele>
<time>2020-09-11T12:28:55Z</time>
</trkpt>
<trkpt lat="47.745884" lon="10.766738">
<ele>760.69</ele>
<time>2020-09-11T12:28:56Z</time>
</trkpt>
<trkpt lat="47.745808" lon="10.76679">
<ele>760.16</ele>
<time>2020-09-11T12:28:57Z</time>
</trkpt>
<trkpt lat="47.745731" lon="10.766843">
<ele>759.743</ele>
<time>2020-09-11T12:28:58Z</time>
</trkpt>
<trkpt lat="47.745651" lon="10.766904">
<ele>759.482</ele>
<time>2020-09-11T12:28:59Z</time>
</trkpt>
<trkpt lat="47.745571" lon="10.766967">
<ele>758.995</ele>
<time>2020-09-11T12:29:00Z</time>
</trkpt>
<trkpt lat="47.745491" lon="10.767034">
<ele>758.63</ele>
<time>2020-09-11T12:29:01Z</time>
</trkpt>
<trkpt lat="47.745411" lon="10.767105">
<ele>758.402</ele>
<time>2020-09-11T12:29:02Z</time>
</trkpt>
<trkpt lat="47.745331" lon="10.767182">
<ele>757.981</ele>
<time>2020-09-11T12:29:03Z</time>
</trkpt>
<trkpt lat="47.745251" lon="10.767264">
<ele>757.702</ele>
<time>2020-09-11T12:29:04Z</time>
</trkpt>
<trkpt lat="47.745174" lon="10.767353">
<ele>757.231</ele>
<time>2020-09-11T12:29:05Z</time>
</trkpt>
<trkpt lat="47.745094" lon="10.767451">
<ele>756.551</ele>
<time>2020-09-11T12:29:06Z</time>
</trkpt>
<trkpt lat="47.745022" lon="10.767557">
<ele>756.09</ele>
<time>2020-09-11T12:29:07Z</time>
</trkpt>
<trkpt lat="47.744953" lon="10.767672">
<ele>755.421</ele>
<time>2020-09-11T12:29:08Z</time>
</trkpt>
<trkpt lat="47.744888" lon="10.767794">
<ele>754.958</ele>
<time>2020-09-11T12:29:09Z</time>
</trkpt>
<trkpt lat="47.744827" lon="10.767923">
<ele>754.301</ele>
<time>2020-09-11T12:29:10Z</time>
</trkpt>
<trkpt lat="47.744778" lon="10.768057">
<ele>753.87</ele>
<time>2020-09-11T12:29:11Z</time>
</trkpt>
<trkpt lat="47.744728" lon="10.768193">
<ele>753.271</ele>
<time>2020-09-11T12:29:12Z</time>
</trkpt>
<trkpt lat="47.744678" lon="10.768333">
<ele>752.57</ele>
<time>2020-09-11T12:29:13Z</time>
</trkpt>
<trkpt lat="47.744629" lon="10.76847">
<ele>752.108</ele>
<time>2020-09-11T12:29:14Z</time>
</trkpt>
<trkpt lat="47.744568" lon="10.768603">
<ele>751.421</ele>
<time>2020-09-11T12:29:15Z</time>
</trkpt>
<trkpt lat="47.744503" lon="10.768724">
<ele>750.902</ele>
<time>2020-09-11T12:29:16Z</time>
</trkpt>
<trkpt lat="47.744434" lon="10.76884">
<ele>750.565</ele>
<time>2020-09-11T12:29:17Z</time>
</trkpt>
<trkpt lat="47.744358" lon="10.768947">
<ele>750.032</ele>
<time>2020-09-11T12:29:18Z</time>
</trkpt>
<trkpt lat="47.744278" lon="10.769045">
<ele>749.635</ele>
<time>2020-09-11T12:29:19Z</time>
</trkpt>
<trkpt lat="47.744198" lon="10.769137">
<ele>749.361</ele>
<time>2020-09-11T12:29:20Z</time>
</trkpt>
<trkpt lat="47.744114" lon="10.769227">
<ele>749.174</ele>
<time>2020-09-11T12:29:21Z</time>
</trkpt>
<trkpt lat="47.744034" lon="10.769312">
<ele>749.064</ele>
<time>2020-09-11T12:29:22Z</time>
</trkpt>
<trkpt lat="47.743946" lon="10.769393">
<ele>748.679</ele>
<time>2020-09-11T12:29:23Z</time>
</trkpt>
<trkpt lat="47.743858" lon="10.769472">
<ele>748.409</ele>
<time>2020-09-11T12:29:24Z</time>
</trkpt>
<trkpt lat="47.743771" lon="10.76954">
<ele>748.16</ele>
<time>2020-09-11T12:29:25Z</time>
</trkpt>
<trkpt lat="47.743679" lon="10.769603">
<ele>747.981</ele>
<time>2020-09-11T12:29:26Z</time>
</trkpt>
<trkpt lat="47.743587" lon="10.769667">
<ele>747.843</ele>
<time>2020-09-11T12:29:27Z</time>
</trkpt>
<trkpt lat="47.743492" lon="10.76973">
<ele>747.743</ele>
<time>2020-09-11T12:29:28Z</time>
</trkpt>
<trkpt lat="47.743408" lon="10.769797">
<ele>747.679</ele>
<time>2020-09-11T12:29:29Z</time>
</trkpt>
<trkpt lat="47.743324" lon="10.769862">
<ele>747.648</ele>
<time>2020-09-11T12:29:30Z</time>
</trkpt>
<trkpt lat="47.743233" lon="10.769927">
<ele>747.376</ele>
<time>2020-09-11T12:29:31Z</time>
</trkpt>
<trkpt lat="47.743153" lon="10.769988">
<ele>747.161</ele>
<time>2020-09-11T12:29:32Z</time>
</trkpt>
<trkpt lat="47.743069" lon="10.770048">
<ele>746.995</ele>
<time>2020-09-11T12:29:33Z</time>
</trkpt>
<trkpt lat="47.742989" lon="10.770105">
<ele>746.88</ele>
<time>2020-09-11T12:29:34Z</time>
</trkpt>
<trkpt lat="47.742908" lon="10.770162">
<ele>746.756</ele>
<time>2020-09-11T12:29:35Z</time>
</trkpt>
<trkpt lat="47.742828" lon="10.770212">
<ele>746.665</ele>
<time>2020-09-11T12:29:36Z</time>
</trkpt>
<trkpt lat="47.742744" lon="10.770253">
<ele>746.606</ele>
<time>2020-09-11T12:29:37Z</time>
</trkpt>
<trkpt lat="47.742664" lon="10.770289">
<ele>746.577</ele>
<time>2020-09-11T12:29:38Z</time>
</trkpt>
<trkpt lat="47.74258" lon="10.77032">
<ele>746.577</ele>
<time>2020-09-11T12:29:39Z</time>
</trkpt>
<trkpt lat="47.7425" lon="10.770349">
<ele>746.577</ele>
<time>2020-09-11T12:29:40Z</time>
</trkpt>
<trkpt lat="47.742416" lon="10.77038">
<ele>746.577</ele>
<time>2020-09-11T12:29:41Z</time>
</trkpt>
<trkpt lat="47.742336" lon="10.770415">
<ele>746.577</ele>
<time>2020-09-11T12:29:42Z</time>
</trkpt>
<trkpt lat="47.742252" lon="10.770455">
<ele>746.339</ele>
<time>2020-09-11T12:29:43Z</time>
</trkpt>
<trkpt lat="47.742176" lon="10.770496">
<ele>746.169</ele>
<time>2020-09-11T12:29:44Z</time>
</trkpt>
<trkpt lat="47.742096" lon="10.770538">
<ele>745.994</ele>
<time>2020-09-11T12:29:45Z</time>
</trkpt>
<trkpt lat="47.742023" lon="10.770581">
<ele>745.854</ele>
<time>2020-09-11T12:29:46Z</time>
</trkpt>
<trkpt lat="47.741947" lon="10.770629">
<ele>745.746</ele>
<time>2020-09-11T12:29:47Z</time>
</trkpt>
<trkpt lat="47.741871" lon="10.770683">
<ele>745.668</ele>
<time>2020-09-11T12:29:48Z</time>
</trkpt>
<trkpt lat="47.741798" lon="10.770741">
<ele>745.618</ele>
<time>2020-09-11T12:29:49Z</time>
</trkpt>
<trkpt lat="47.74173" lon="10.770801">
<ele>745.594</ele>
<time>2020-09-11T12:29:50Z</time>
</trkpt>
<trkpt lat="47.741665" lon="10.770862">
<ele>745.594</ele>
<time>2020-09-11T12:29:51Z</time>
</trkpt>
<trkpt lat="47.7416" lon="10.770926">
<ele>745.594</ele>
<time>2020-09-11T12:29:52Z</time>
</trkpt>
<trkpt lat="47.741539" lon="10.770997">
<ele>745.594</ele>
<time>2020-09-11T12:29:53Z</time>
</trkpt>
<trkpt lat="47.741482" lon="10.771069">
<ele>745.594</ele>
<time>2020-09-11T12:29:54Z</time>
</trkpt>
<trkpt lat="47.741428" lon="10.77114">
<ele>745.594</ele>
<time>2020-09-11T12:29:55Z</time>
</trkpt>
<trkpt lat="47.741371" lon="10.771216">
<ele>745.594</ele>
<time>2020-09-11T12:29:56Z</time>
</trkpt>
<trkpt lat="47.741325" lon="10.771296">
<ele>745.875</ele>
<time>2020-09-11T12:29:57Z</time>
</trkpt>
<trkpt lat="47.741272" lon="10.771375">
<ele>746.094</ele>
<time>2020-09-11T12:29:58Z</time>
</trkpt>
<trkpt lat="47.741219" lon="10.771453">
<ele>746.261</ele>
<time>2020-09-11T12:29:59Z</time>
</trkpt>
<trkpt lat="47.741173" lon="10.771528">
<ele>746.386</ele>
<time>2020-09-11T12:30:00Z</time>
</trkpt>
<trkpt lat="47.741119" lon="10.771607">
<ele>746.472</ele>
<time>2020-09-11T12:30:01Z</time>
</trkpt>
<trkpt lat="47.74107" lon="10.771683">
<ele>746.526</ele>
<time>2020-09-11T12:30:02Z</time>
</trkpt>
<trkpt lat="47.74102" lon="10.771758">
<ele>746.554</ele>
<time>2020-09-11T12:30:03Z</time>
</trkpt>
<trkpt lat="47.740974" lon="10.771832">
<ele>746.577</ele>
<time>2020-09-11T12:30:04Z</time>
</trkpt>
<trkpt lat="47.740921" lon="10.771907">
<ele>746.577</ele>
<time>2020-09-11T12:30:05Z</time>
</trkpt>
<trkpt lat="47.740875" lon="10.771983">
<ele>746.577</ele>
<time>2020-09-11T12:30:06Z</time>
</trkpt>
<trkpt lat="47.740826" lon="10.772056">
<ele>746.577</ele>
<time>2020-09-11T12:30:07Z</time>
</trkpt>
<trkpt lat="47.740776" lon="10.772127">
<ele>746.304</ele>
<time>2020-09-11T12:30:08Z</time>
</trkpt>
<trkpt lat="47.740726" lon="10.772199">
<ele>746.091</ele>
<time>2020-09-11T12:30:09Z</time>
</trkpt>
<trkpt lat="47.740681" lon="10.77227">
<ele>745.927</ele>
<time>2020-09-11T12:30:10Z</time>
</trkpt>
<trkpt lat="47.740631" lon="10.772339">
<ele>745.806</ele>
<time>2020-09-11T12:30:11Z</time>
</trkpt>
<trkpt lat="47.740589" lon="10.772407">
<ele>745.722</ele>
<time>2020-09-11T12:30:12Z</time>
</trkpt>
<trkpt lat="47.740547" lon="10.772479">
<ele>745.667</ele>
<time>2020-09-11T12:30:13Z</time>
</trkpt>
<trkpt lat="47.740501" lon="10.772549">
<ele>745.623</ele>
<time>2020-09-11T12:30:14Z</time>
</trkpt>
<trkpt lat="47.740459" lon="10.772617">
<ele>745.594</ele>
<time>2020-09-11T12:30:15Z</time>
</trkpt>
<trkpt lat="47.740417" lon="10.772687">
<ele>745.594</ele>
<time>2020-09-11T12:30:16Z</time>
</trkpt>
<trkpt lat="47.740376" lon="10.772758">
<ele>745.594</ele>
<time>2020-09-11T12:30:17Z</time>
</trkpt>
<trkpt lat="47.740334" lon="10.772835">
<ele>745.594</ele>
<time>2020-09-11T12:30:18Z</time>
</trkpt>
<trkpt lat="47.740295" lon="10.772912">
<ele>745.594</ele>
<time>2020-09-11T12:30:19Z</time>
</trkpt>
<trkpt lat="47.740257" lon="10.772993">
<ele>745.594</ele>
<time>2020-09-11T12:30:20Z</time>
</trkpt>
<trkpt lat="47.740219" lon="10.773078">
<ele>745.594</ele>
<time>2020-09-11T12:30:21Z</time>
</trkpt>
<trkpt lat="47.740185" lon="10.77317">
<ele>745.594</ele>
<time>2020-09-11T12:30:22Z</time>
</trkpt>
<trkpt lat="47.740147" lon="10.773267">
<ele>745.327</ele>
<time>2020-09-11T12:30:23Z</time>
</trkpt>
<trkpt lat="47.740112" lon="10.77336">
<ele>745.139</ele>
<time>2020-09-11T12:30:24Z</time>
</trkpt>
<trkpt lat="47.740074" lon="10.773455">
<ele>744.959</ele>
<time>2020-09-11T12:30:25Z</time>
</trkpt>
<trkpt lat="47.740032" lon="10.77355">
<ele>744.579</ele>
<time>2020-09-11T12:30:26Z</time>
</trkpt>
<trkpt lat="47.739998" lon="10.773643">
<ele>744.314</ele>
<time>2020-09-11T12:30:27Z</time>
</trkpt>
<trkpt lat="47.739952" lon="10.773736">
<ele>743.823</ele>
<time>2020-09-11T12:30:28Z</time>
</trkpt>
<trkpt lat="47.739906" lon="10.773829">
<ele>743.441</ele>
<time>2020-09-11T12:30:29Z</time>
</trkpt>
<trkpt lat="47.739864" lon="10.773918">
<ele>743.155</ele>
<time>2020-09-11T12:30:30Z</time>
</trkpt>
<trkpt lat="47.739815" lon="10.774011">
<ele>742.88</ele>
<time>2020-09-11T12:30:31Z</time>
</trkpt>
<trkpt lat="47.739773" lon="10.774103">
<ele>742.774</ele>
<time>2020-09-11T12:30:32Z</time>
</trkpt>
<trkpt lat="47.739723" lon="10.774201">
<ele>742.729</ele>
<time>2020-09-11T12:30:33Z</time>
</trkpt>
<trkpt lat="47.739677" lon="10.774298">
<ele>742.434</ele>
<time>2020-09-11T12:30:34Z</time>
</trkpt>
<trkpt lat="47.739635" lon="10.774395">
<ele>742.179</ele>
<time>2020-09-11T12:30:35Z</time>
</trkpt>
<trkpt lat="47.739586" lon="10.774493">
<ele>741.994</ele>
<time>2020-09-11T12:30:36Z</time>
</trkpt>
<trkpt lat="47.73954" lon="10.774593">
<ele>741.846</ele>
<time>2020-09-11T12:30:37Z</time>
</trkpt>
<trkpt lat="47.739494" lon="10.774692">
<ele>741.751</ele>
<time>2020-09-11T12:30:38Z</time>
</trkpt>
<trkpt lat="47.739449" lon="10.77479">
<ele>741.419</ele>
<time>2020-09-11T12:30:39Z</time>
</trkpt>
<trkpt lat="47.739395" lon="10.774886">
<ele>741.162</ele>
<time>2020-09-11T12:30:40Z</time>
</trkpt>
<trkpt lat="47.739342" lon="10.774981">
<ele>740.97</ele>
<time>2020-09-11T12:30:41Z</time>
</trkpt>
<trkpt lat="47.739285" lon="10.775066">
<ele>740.818</ele>
<time>2020-09-11T12:30:42Z</time>
</trkpt>
<trkpt lat="47.739223" lon="10.775146">
<ele>740.736</ele>
<time>2020-09-11T12:30:43Z</time>
</trkpt>
<trkpt lat="47.739162" lon="10.775222">
<ele>740.676</ele>
<time>2020-09-11T12:30:44Z</time>
</trkpt>
<trkpt lat="47.739098" lon="10.775287">
<ele>740.621</ele>
<time>2020-09-11T12:30:45Z</time>
</trkpt>
<trkpt lat="47.739029" lon="10.77535">
<ele>740.594</ele>
<time>2020-09-11T12:30:46Z</time>
</trkpt>
<trkpt lat="47.73896" lon="10.77541">
<ele>740.312</ele>
<time>2020-09-11T12:30:47Z</time>
</trkpt>
<trkpt lat="47.738895" lon="10.775467">
<ele>740.093</ele>
<time>2020-09-11T12:30:48Z</time>
</trkpt>
<trkpt lat="47.738831" lon="10.775527">
<ele>739.928</ele>
<time>2020-09-11T12:30:49Z</time>
</trkpt>
<trkpt lat="47.73877" lon="10.775597">
<ele>739.804</ele>
<time>2020-09-11T12:30:50Z</time>
</trkpt>
<trkpt lat="47.738712" lon="10.775674">
<ele>739.718</ele>
<time>2020-09-11T12:30:51Z</time>
</trkpt>
<trkpt lat="47.738667" lon="10.775757">
<ele>739.661</ele>
<time>2020-09-11T12:30:52Z</time>
</trkpt>
<trkpt lat="47.738617" lon="10.775846">
<ele>739.636</ele>
<time>2020-09-11T12:30:53Z</time>
</trkpt>
<trkpt lat="47.738575" lon="10.77594">
<ele>739.613</ele>
<time>2020-09-11T12:30:54Z</time>
</trkpt>
<trkpt lat="47.738537" lon="10.776034">
<ele>739.613</ele>
<time>2020-09-11T12:30:55Z</time>
</trkpt>
<trkpt lat="47.738503" lon="10.776134">
<ele>739.612</ele>
<time>2020-09-11T12:30:56Z</time>
</trkpt>
<trkpt lat="47.738468" lon="10.776232">
<ele>739.613</ele>
<time>2020-09-11T12:30:58Z</time>
</trkpt>
<trkpt lat="47.738392" lon="10.776428">
<ele>739.37</ele>
<time>2020-09-11T12:30:59Z</time>
</trkpt>
<trkpt lat="47.738354" lon="10.776526">
<ele>739.179</ele>
<time>2020-09-11T12:31:00Z</time>
</trkpt>
<trkpt lat="47.738323" lon="10.776627">
<ele>739.034</ele>
<time>2020-09-11T12:31:01Z</time>
</trkpt>
<trkpt lat="47.738293" lon="10.776726">
<ele>738.928</ele>
<time>2020-09-11T12:31:02Z</time>
</trkpt>
<trkpt lat="47.738266" lon="10.776825">
<ele>738.849</ele>
<time>2020-09-11T12:31:03Z</time>
</trkpt>
<trkpt lat="47.738239" lon="10.776929">
<ele>738.794</ele>
<time>2020-09-11T12:31:04Z</time>
</trkpt>
<trkpt lat="47.738213" lon="10.77703">
<ele>738.744</ele>
<time>2020-09-11T12:31:05Z</time>
</trkpt>
<trkpt lat="47.73819" lon="10.777126">
<ele>738.72</ele>
<time>2020-09-11T12:31:06Z</time>
</trkpt>
<trkpt lat="47.738171" lon="10.777222">
<ele>738.72</ele>
<time>2020-09-11T12:31:07Z</time>
</trkpt>
<trkpt lat="47.738144" lon="10.777313">
<ele>738.72</ele>
<time>2020-09-11T12:31:08Z</time>
</trkpt>
<trkpt lat="47.738121" lon="10.777405">
<ele>738.72</ele>
<time>2020-09-11T12:31:09Z</time>
</trkpt>
<trkpt lat="47.738098" lon="10.777492">
<ele>738.72</ele>
<time>2020-09-11T12:31:10Z</time>
</trkpt>
<trkpt lat="47.738071" lon="10.777574">
<ele>738.72</ele>
<time>2020-09-11T12:31:11Z</time>
</trkpt>
<trkpt lat="47.738045" lon="10.777652">
<ele>738.72</ele>
<time>2020-09-11T12:31:12Z</time>
</trkpt>
<trkpt lat="47.738018" lon="10.777723">
<ele>738.72</ele>
<time>2020-09-11T12:31:13Z</time>
</trkpt>
<trkpt lat="47.737988" lon="10.777794">
<ele>738.72</ele>
<time>2020-09-11T12:31:14Z</time>
</trkpt>
<trkpt lat="47.737961" lon="10.777859">
<ele>738.72</ele>
<time>2020-09-11T12:31:15Z</time>
</trkpt>
<trkpt lat="47.73793" lon="10.777915">
<ele>738.72</ele>
<time>2020-09-11T12:31:16Z</time>
</trkpt>
<trkpt lat="47.737896" lon="10.77796">
<ele>738.72</ele>
<time>2020-09-11T12:31:17Z</time>
</trkpt>
<trkpt lat="47.73785" lon="10.777997">
<ele>738.72</ele>
<time>2020-09-11T12:31:18Z</time>
</trkpt>
<trkpt lat="47.737801" lon="10.778023">
<ele>738.72</ele>
<time>2020-09-11T12:31:19Z</time>
</trkpt>
<trkpt lat="47.737747" lon="10.77804">
<ele>738.72</ele>
<time>2020-09-11T12:31:20Z</time>
</trkpt>
<trkpt lat="47.737686" lon="10.778044">
<ele>738.72</ele>
<time>2020-09-11T12:31:21Z</time>
</trkpt>
<trkpt lat="47.737625" lon="10.778046">
<ele>738.72</ele>
<time>2020-09-11T12:31:22Z</time>
</trkpt>
<trkpt lat="47.737568" lon="10.778044">
<ele>738.72</ele>
<time>2020-09-11T12:31:23Z</time>
</trkpt>
<trkpt lat="47.737511" lon="10.778037">
<ele>738.72</ele>
<time>2020-09-11T12:31:24Z</time>
</trkpt>
<trkpt lat="47.73745" lon="10.778025">
<ele>738.72</ele>
<time>2020-09-11T12:31:25Z</time>
</trkpt>
<trkpt lat="47.737381" lon="10.778008">
<ele>738.72</ele>
<time>2020-09-11T12:31:26Z</time>
</trkpt>
<trkpt lat="47.737312" lon="10.777983">
<ele>738.72</ele>
<time>2020-09-11T12:31:27Z</time>
</trkpt>
<trkpt lat="47.73724" lon="10.77796">
<ele>738.46</ele>
<time>2020-09-11T12:31:28Z</time>
</trkpt>
<trkpt lat="47.737167" lon="10.777955">
<ele>737.948</ele>
<time>2020-09-11T12:31:29Z</time>
</trkpt>
<trkpt lat="47.737099" lon="10.777972">
<ele>737.56</ele>
<time>2020-09-11T12:31:30Z</time>
</trkpt>
<trkpt lat="47.737026" lon="10.778018">
<ele>737.331</ele>
<time>2020-09-11T12:31:31Z</time>
</trkpt>
<trkpt lat="47.736961" lon="10.77809">
<ele>736.914</ele>
<time>2020-09-11T12:31:32Z</time>
</trkpt>
<trkpt lat="47.736904" lon="10.778173">
<ele>736.265</ele>
<time>2020-09-11T12:31:33Z</time>
</trkpt>
<trkpt lat="47.736839" lon="10.778257">
<ele>735.796</ele>
<time>2020-09-11T12:31:34Z</time>
</trkpt>
<trkpt lat="47.736767" lon="10.77833">
<ele>735.114</ele>
<time>2020-09-11T12:31:35Z</time>
</trkpt>
<trkpt lat="47.736691" lon="10.778392">
<ele>734.611</ele>
<time>2020-09-11T12:31:36Z</time>
</trkpt>
<trkpt lat="47.736614" lon="10.778445">
<ele>734.297</ele>
<time>2020-09-11T12:31:37Z</time>
</trkpt>
<trkpt lat="47.736534" lon="10.778483">
<ele>733.759</ele>
<time>2020-09-11T12:31:38Z</time>
</trkpt>
<trkpt lat="47.736454" lon="10.778511">
<ele>733.371</ele>
<time>2020-09-11T12:31:39Z</time>
</trkpt>
<trkpt lat="47.736382" lon="10.778536">
<ele>733.138</ele>
<time>2020-09-11T12:31:40Z</time>
</trkpt>
<trkpt lat="47.736313" lon="10.778573">
<ele>732.667</ele>
<time>2020-09-11T12:31:41Z</time>
</trkpt>
<trkpt lat="47.736244" lon="10.778626">
<ele>732.345</ele>
<time>2020-09-11T12:31:42Z</time>
</trkpt>
<trkpt lat="47.736179" lon="10.778693">
<ele>731.825</ele>
<time>2020-09-11T12:31:43Z</time>
</trkpt>
<trkpt lat="47.736122" lon="10.778764">
<ele>731.452</ele>
<time>2020-09-11T12:31:44Z</time>
</trkpt>
<trkpt lat="47.736061" lon="10.778838">
<ele>731.132</ele>
<time>2020-09-11T12:31:45Z</time>
</trkpt>
<trkpt lat="47.735992" lon="10.778909">
<ele>730.647</ele>
<time>2020-09-11T12:31:46Z</time>
</trkpt>
<trkpt lat="47.73592" lon="10.778978">
<ele>730.257</ele>
<time>2020-09-11T12:31:47Z</time>
</trkpt>
<trkpt lat="47.735847" lon="10.779043">
<ele>729.975</ele>
<time>2020-09-11T12:31:48Z</time>
</trkpt>
<trkpt lat="47.735775" lon="10.779103">
<ele>729.794</ele>
<time>2020-09-11T12:31:49Z</time>
</trkpt>
<trkpt lat="47.735703" lon="10.779157">
<ele>729.67</ele>
<time>2020-09-11T12:31:50Z</time>
</trkpt>
<trkpt lat="47.735634" lon="10.779206">
<ele>729.555</ele>
<time>2020-09-11T12:31:51Z</time>
</trkpt>
<trkpt lat="47.735565" lon="10.779257">
<ele>729.531</ele>
<time>2020-09-11T12:31:52Z</time>
</trkpt>
<trkpt lat="47.735497" lon="10.779295">
<ele>729.531</ele>
<time>2020-09-11T12:31:53Z</time>
</trkpt>
<trkpt lat="47.735428" lon="10.779332">
<ele>729.531</ele>
<time>2020-09-11T12:31:54Z</time>
</trkpt>
<trkpt lat="47.735359" lon="10.779367">
<ele>729.531</ele>
<time>2020-09-11T12:31:55Z</time>
</trkpt>
<trkpt lat="47.735283" lon="10.779411">
<ele>729.531</ele>
<time>2020-09-11T12:31:56Z</time>
</trkpt>
<trkpt lat="47.735218" lon="10.779453">
<ele>729.531</ele>
<time>2020-09-11T12:31:57Z</time>
</trkpt>
<trkpt lat="47.735157" lon="10.779493">
<ele>729.531</ele>
<time>2020-09-11T12:31:58Z</time>
</trkpt>
<trkpt lat="47.7351" lon="10.779533">
<ele>729.531</ele>
<time>2020-09-11T12:31:59Z</time>
</trkpt>
<trkpt lat="47.735043" lon="10.779575">
<ele>729.531</ele>
<time>2020-09-11T12:32:00Z</time>
</trkpt>
<trkpt lat="47.734982" lon="10.77962">
<ele>729.775</ele>
<time>2020-09-11T12:32:01Z</time>
</trkpt>
<trkpt lat="47.734921" lon="10.779663">
<ele>729.971</ele>
<time>2020-09-11T12:32:02Z</time>
</trkpt>
<trkpt lat="47.734859" lon="10.779712">
<ele>730.122</ele>
<time>2020-09-11T12:32:03Z</time>
</trkpt>
<trkpt lat="47.734798" lon="10.779758">
<ele>730.228</ele>
<time>2020-09-11T12:32:04Z</time>
</trkpt>
<trkpt lat="47.734745" lon="10.779799">
<ele>730.345</ele>
<time>2020-09-11T12:32:05Z</time>
</trkpt>
<trkpt lat="47.734688" lon="10.779843">
<ele>730.693</ele>
<time>2020-09-11T12:32:06Z</time>
</trkpt>
<trkpt lat="47.734634" lon="10.77989">
<ele>730.964</ele>
<time>2020-09-11T12:32:07Z</time>
</trkpt>
<trkpt lat="47.734581" lon="10.779933">
<ele>731.134</ele>
<time>2020-09-11T12:32:08Z</time>
</trkpt>
<trkpt lat="47.734524" lon="10.779975">
<ele>731.759</ele>
<time>2020-09-11T12:32:09Z</time>
</trkpt>
<trkpt lat="47.734478" lon="10.780017">
<ele>731.915</ele>
<time>2020-09-11T12:32:10Z</time>
</trkpt>
<trkpt lat="47.734428" lon="10.78006">
<ele>732.015</ele>
<time>2020-09-11T12:32:11Z</time>
</trkpt>
<trkpt lat="47.734371" lon="10.780105">
<ele>732.068</ele>
<time>2020-09-11T12:32:12Z</time>
</trkpt>
<trkpt lat="47.734318" lon="10.780149">
<ele>732.277</ele>
<time>2020-09-11T12:32:13Z</time>
</trkpt>
<trkpt lat="47.734264" lon="10.780191">
<ele>732.451</ele>
<time>2020-09-11T12:32:14Z</time>
</trkpt>
<trkpt lat="47.734211" lon="10.780237">
<ele>732.584</ele>
<time>2020-09-11T12:32:15Z</time>
</trkpt>
<trkpt lat="47.734158" lon="10.780281">
<ele>732.683</ele>
<time>2020-09-11T12:32:16Z</time>
</trkpt>
<trkpt lat="47.734108" lon="10.780327">
<ele>732.779</ele>
<time>2020-09-11T12:32:17Z</time>
</trkpt>
<trkpt lat="47.734062" lon="10.780377">
<ele>732.821</ele>
<time>2020-09-11T12:32:18Z</time>
</trkpt>
<trkpt lat="47.734016" lon="10.780427">
<ele>732.856</ele>
<time>2020-09-11T12:32:19Z</time>
</trkpt>
<trkpt lat="47.733971" lon="10.780482">
<ele>732.895</ele>
<time>2020-09-11T12:32:20Z</time>
</trkpt>
<trkpt lat="47.733932" lon="10.780537">
<ele>733.154</ele>
<time>2020-09-11T12:32:21Z</time>
</trkpt>
<trkpt lat="47.733891" lon="10.780589">
<ele>733.364</ele>
<time>2020-09-11T12:32:22Z</time>
</trkpt>
<trkpt lat="47.733852" lon="10.780642">
<ele>733.516</ele>
<time>2020-09-11T12:32:23Z</time>
</trkpt>
<trkpt lat="47.733807" lon="10.780696">
<ele>733.623</ele>
<time>2020-09-11T12:32:24Z</time>
</trkpt>
<trkpt lat="47.733772" lon="10.780752">
<ele>733.738</ele>
<time>2020-09-11T12:32:25Z</time>
</trkpt>
<trkpt lat="47.733734" lon="10.780809">
<ele>733.817</ele>
<time>2020-09-11T12:32:26Z</time>
</trkpt>
<trkpt lat="47.733696" lon="10.780868">
<ele>734.111</ele>
<time>2020-09-11T12:32:27Z</time>
</trkpt>
<trkpt lat="47.733658" lon="10.780929">
<ele>734.339</ele>
<time>2020-09-11T12:32:28Z</time>
</trkpt>
<trkpt lat="47.73362" lon="10.780989">
<ele>734.543</ele>
<time>2020-09-11T12:32:29Z</time>
</trkpt>
<trkpt lat="47.733585" lon="10.781048">
<ele>734.938</ele>
<time>2020-09-11T12:32:30Z</time>
</trkpt>
<trkpt lat="47.733547" lon="10.781109">
<ele>735.232</ele>
<time>2020-09-11T12:32:31Z</time>
</trkpt>
<trkpt lat="47.733513" lon="10.781168">
<ele>735.443</ele>
<time>2020-09-11T12:32:32Z</time>
</trkpt>
<trkpt lat="47.733475" lon="10.78123">
<ele>735.594</ele>
<time>2020-09-11T12:32:33Z</time>
</trkpt>
<trkpt lat="47.733444" lon="10.78129">
<ele>735.7</ele>
<time>2020-09-11T12:32:34Z</time>
</trkpt>
<trkpt lat="47.733406" lon="10.781345">
<ele>735.784</ele>
<time>2020-09-11T12:32:35Z</time>
</trkpt>
<trkpt lat="47.733376" lon="10.7814">
<ele>735.836</ele>
<time>2020-09-11T12:32:36Z</time>
</trkpt>
<trkpt lat="47.733341" lon="10.781455">
<ele>736.077</ele>
<time>2020-09-11T12:32:37Z</time>
</trkpt>
<trkpt lat="47.733311" lon="10.78151">
<ele>736.315</ele>
<time>2020-09-11T12:32:38Z</time>
</trkpt>
<trkpt lat="47.73328" lon="10.781565">
<ele>736.467</ele>
<time>2020-09-11T12:32:39Z</time>
</trkpt>
<trkpt lat="47.73325" lon="10.781622">
<ele>736.561</ele>
<time>2020-09-11T12:32:40Z</time>
</trkpt>
<trkpt lat="47.733219" lon="10.781674">
<ele>736.919</ele>
<time>2020-09-11T12:32:41Z</time>
</trkpt>
<trkpt lat="47.733189" lon="10.781725">
<ele>737.186</ele>
<time>2020-09-11T12:32:42Z</time>
</trkpt>
<trkpt lat="47.733158" lon="10.781775">
<ele>737.385</ele>
<time>2020-09-11T12:32:43Z</time>
</trkpt>
<trkpt lat="47.733124" lon="10.781825">
<ele>737.526</ele>
<time>2020-09-11T12:32:44Z</time>
</trkpt>
<trkpt lat="47.733093" lon="10.781874">
<ele>737.651</ele>
<time>2020-09-11T12:32:45Z</time>
</trkpt>
<trkpt lat="47.733059" lon="10.781919">
<ele>737.737</ele>
<time>2020-09-11T12:32:46Z</time>
</trkpt>
<trkpt lat="47.733025" lon="10.781968">
<ele>738.035</ele>
<time>2020-09-11T12:32:47Z</time>
</trkpt>
<trkpt lat="47.73299" lon="10.782016">
<ele>738.264</ele>
<time>2020-09-11T12:32:48Z</time>
</trkpt>
<trkpt lat="47.732956" lon="10.782064">
<ele>738.471</ele>
<time>2020-09-11T12:32:49Z</time>
</trkpt>
<trkpt lat="47.732922" lon="10.782112">
<ele>738.848</ele>
<time>2020-09-11T12:32:50Z</time>
</trkpt>
<trkpt lat="47.732887" lon="10.782155">
<ele>739.121</ele>
<time>2020-09-11T12:32:51Z</time>
</trkpt>
<trkpt lat="47.732849" lon="10.782196">
<ele>739.316</ele>
<time>2020-09-11T12:32:52Z</time>
</trkpt>
<trkpt lat="47.732819" lon="10.782233">
<ele>739.429</ele>
<time>2020-09-11T12:32:53Z</time>
</trkpt>
<trkpt lat="47.73278" lon="10.782269">
<ele>739.77</ele>
<time>2020-09-11T12:32:54Z</time>
</trkpt>
<trkpt lat="47.732746" lon="10.782309">
<ele>740.044</ele>
<time>2020-09-11T12:32:55Z</time>
</trkpt>
<trkpt lat="47.732704" lon="10.782347">
<ele>740.262</ele>
<time>2020-09-11T12:32:56Z</time>
</trkpt>
<trkpt lat="47.73267" lon="10.782378">
<ele>740.423</ele>
<time>2020-09-11T12:32:57Z</time>
</trkpt>
<trkpt lat="47.732632" lon="10.782407">
<ele>740.531</ele>
<time>2020-09-11T12:32:58Z</time>
</trkpt>
<trkpt lat="47.732601" lon="10.782434">
<ele>740.609</ele>
<time>2020-09-11T12:32:59Z</time>
</trkpt>
<trkpt lat="47.732559" lon="10.782456">
<ele>740.655</ele>
<time>2020-09-11T12:33:00Z</time>
</trkpt>
<trkpt lat="47.732525" lon="10.782481">
<ele>740.962</ele>
<time>2020-09-11T12:33:01Z</time>
</trkpt>
<trkpt lat="47.732483" lon="10.782505">
<ele>741.205</ele>
<time>2020-09-11T12:33:02Z</time>
</trkpt>
<trkpt lat="47.732445" lon="10.782529">
<ele>741.387</ele>
<time>2020-09-11T12:33:03Z</time>
</trkpt>
<trkpt lat="47.732407" lon="10.782548">
<ele>741.513</ele>
<time>2020-09-11T12:33:04Z</time>
</trkpt>
<trkpt lat="47.732372" lon="10.782565">
<ele>741.654</ele>
<time>2020-09-11T12:33:05Z</time>
</trkpt>
<trkpt lat="47.732334" lon="10.782583">
<ele>741.753</ele>
<time>2020-09-11T12:33:06Z</time>
</trkpt>
<trkpt lat="47.732296" lon="10.782598">
<ele>741.815</ele>
<time>2020-09-11T12:33:07Z</time>
</trkpt>
<trkpt lat="47.732258" lon="10.782611">
<ele>741.844</ele>
<time>2020-09-11T12:33:08Z</time>
</trkpt>
<trkpt lat="47.73222" lon="10.782621">
<ele>741.844</ele>
<time>2020-09-11T12:33:09Z</time>
</trkpt>
<trkpt lat="47.732185" lon="10.782634">
<ele>741.844</ele>
<time>2020-09-11T12:33:10Z</time>
</trkpt>
<trkpt lat="47.732147" lon="10.78264">
<ele>741.844</ele>
<time>2020-09-11T12:33:11Z</time>
</trkpt>
<trkpt lat="47.732109" lon="10.782648">
<ele>741.844</ele>
<time>2020-09-11T12:33:12Z</time>
</trkpt>
<trkpt lat="47.732063" lon="10.78266">
<ele>741.844</ele>
<time>2020-09-11T12:33:13Z</time>
</trkpt>
<trkpt lat="47.732018" lon="10.782672">
<ele>741.844</ele>
<time>2020-09-11T12:33:14Z</time>
</trkpt>
<trkpt lat="47.731976" lon="10.782676">
<ele>741.844</ele>
<time>2020-09-11T12:33:15Z</time>
</trkpt>
<trkpt lat="47.731926" lon="10.782678">
<ele>741.844</ele>
<time>2020-09-11T12:33:16Z</time>
</trkpt>
<trkpt lat="47.731873" lon="10.78268">
<ele>741.844</ele>
<time>2020-09-11T12:33:17Z</time>
</trkpt>
<trkpt lat="47.731819" lon="10.782678">
<ele>741.844</ele>
<time>2020-09-11T12:33:18Z</time>
</trkpt>
<trkpt lat="47.731762" lon="10.782677">
<ele>741.844</ele>
<time>2020-09-11T12:33:19Z</time>
</trkpt>
<trkpt lat="47.731701" lon="10.782674">
<ele>741.844</ele>
<time>2020-09-11T12:33:20Z</time>
</trkpt>
<trkpt lat="47.73164" lon="10.782665">
<ele>741.844</ele>
<time>2020-09-11T12:33:21Z</time>
</trkpt>
<trkpt lat="47.731583" lon="10.782655">
<ele>741.608</ele>
<time>2020-09-11T12:33:22Z</time>
</trkpt>
<trkpt lat="47.731522" lon="10.782643">
<ele>741.425</ele>
<time>2020-09-11T12:33:23Z</time>
</trkpt>
<trkpt lat="47.731457" lon="10.782628">
<ele>741.308</ele>
<time>2020-09-11T12:33:24Z</time>
</trkpt>
<trkpt lat="47.731392" lon="10.782613">
<ele>741.181</ele>
<time>2020-09-11T12:33:25Z</time>
</trkpt>
<trkpt lat="47.731327" lon="10.782595">
<ele>741.094</ele>
<time>2020-09-11T12:33:26Z</time>
</trkpt>
<trkpt lat="47.731258" lon="10.782574">
<ele>740.773</ele>
<time>2020-09-11T12:33:27Z</time>
</trkpt>
<trkpt lat="47.73119" lon="10.78255">
<ele>740.524</ele>
<time>2020-09-11T12:33:28Z</time>
</trkpt>
<trkpt lat="47.731117" lon="10.782523">
<ele>740.369</ele>
<time>2020-09-11T12:33:29Z</time>
</trkpt>
<trkpt lat="47.731045" lon="10.782495">
<ele>739.871</ele>
<time>2020-09-11T12:33:30Z</time>
</trkpt>
<trkpt lat="47.730972" lon="10.782467">
<ele>739.557</ele>
<time>2020-09-11T12:33:31Z</time>
</trkpt>
<trkpt lat="47.730892" lon="10.782436">
<ele>739.375</ele>
<time>2020-09-11T12:33:32Z</time>
</trkpt>
<trkpt lat="47.730808" lon="10.782405">
<ele>738.984</ele>
<time>2020-09-11T12:33:33Z</time>
</trkpt>
<trkpt lat="47.730728" lon="10.782374">
<ele>738.399</ele>
<time>2020-09-11T12:33:34Z</time>
</trkpt>
<trkpt lat="47.73064" lon="10.782343">
<ele>737.934</ele>
<time>2020-09-11T12:33:35Z</time>
</trkpt>
<trkpt lat="47.730549" lon="10.782311">
<ele>737.313</ele>
<time>2020-09-11T12:33:36Z</time>
</trkpt>
<trkpt lat="47.730457" lon="10.782284">
<ele>736.902</ele>
<time>2020-09-11T12:33:37Z</time>
</trkpt>
<trkpt lat="47.730362" lon="10.782259">
<ele>736.331</ele>
<time>2020-09-11T12:33:38Z</time>
</trkpt>
<trkpt lat="47.730259" lon="10.782231">
<ele>735.65</ele>
<time>2020-09-11T12:33:39Z</time>
</trkpt>
<trkpt lat="47.730156" lon="10.78221">
<ele>734.867</ele>
<time>2020-09-11T12:33:40Z</time>
</trkpt>
<trkpt lat="47.730045" lon="10.782195">
<ele>734.049</ele>
<time>2020-09-11T12:33:41Z</time>
</trkpt>
<trkpt lat="47.729927" lon="10.782186">
<ele>733.078</ele>
<time>2020-09-11T12:33:42Z</time>
</trkpt>
<trkpt lat="47.729809" lon="10.78218">
<ele>732.246</ele>
<time>2020-09-11T12:33:43Z</time>
</trkpt>
<trkpt lat="47.729691" lon="10.782177">
<ele>731.288</ele>
<time>2020-09-11T12:33:44Z</time>
</trkpt>
<trkpt lat="47.729565" lon="10.782175">
<ele>730.243</ele>
<time>2020-09-11T12:33:45Z</time>
</trkpt>
<trkpt lat="47.729439" lon="10.782177">
<ele>729.564</ele>
<time>2020-09-11T12:33:46Z</time>
</trkpt>
<trkpt lat="47.729309" lon="10.782182">
<ele>728.787</ele>
<time>2020-09-11T12:33:47Z</time>
</trkpt>
<trkpt lat="47.729179" lon="10.782187">
<ele>727.977</ele>
<time>2020-09-11T12:33:48Z</time>
</trkpt>
<trkpt lat="47.729057" lon="10.782193">
<ele>727.086</ele>
<time>2020-09-11T12:33:49Z</time>
</trkpt>
<trkpt lat="47.728935" lon="10.782202">
<ele>726.43</ele>
<time>2020-09-11T12:33:50Z</time>
</trkpt>
<trkpt lat="47.728813" lon="10.78221">
<ele>726.02</ele>
<time>2020-09-11T12:33:51Z</time>
</trkpt>
<trkpt lat="47.728699" lon="10.782217">
<ele>725.447</ele>
<time>2020-09-11T12:33:52Z</time>
</trkpt>
<trkpt lat="47.728592" lon="10.782224">
<ele>725.03</ele>
<time>2020-09-11T12:33:53Z</time>
</trkpt>
<trkpt lat="47.728493" lon="10.782228">
<ele>724.762</ele>
<time>2020-09-11T12:33:54Z</time>
</trkpt>
<trkpt lat="47.728394" lon="10.782235">
<ele>724.55</ele>
<time>2020-09-11T12:33:55Z</time>
</trkpt>
<trkpt lat="47.728306" lon="10.782242">
<ele>724.421</ele>
<time>2020-09-11T12:33:56Z</time>
</trkpt>
<trkpt lat="47.728222" lon="10.782252">
<ele>724.347</ele>
<time>2020-09-11T12:33:57Z</time>
</trkpt>
<trkpt lat="47.728134" lon="10.782261">
<ele>724.299</ele>
<time>2020-09-11T12:33:58Z</time>
</trkpt>
<trkpt lat="47.728058" lon="10.782261">
<ele>724.05</ele>
<time>2020-09-11T12:33:59Z</time>
</trkpt>
<trkpt lat="47.727974" lon="10.782261">
<ele>723.819</ele>
<time>2020-09-11T12:34:00Z</time>
</trkpt>
<trkpt lat="47.727901" lon="10.782263">
<ele>723.657</ele>
<time>2020-09-11T12:34:01Z</time>
</trkpt>
<trkpt lat="47.727825" lon="10.782269">
<ele>723.533</ele>
<time>2020-09-11T12:34:02Z</time>
</trkpt>
<trkpt lat="47.727757" lon="10.78228">
<ele>723.447</ele>
<time>2020-09-11T12:34:03Z</time>
</trkpt>
<trkpt lat="47.72768" lon="10.782301">
<ele>723.379</ele>
<time>2020-09-11T12:34:04Z</time>
</trkpt>
<trkpt lat="47.727612" lon="10.782338">
<ele>723.32</ele>
<time>2020-09-11T12:34:05Z</time>
</trkpt>
<trkpt lat="47.727543" lon="10.782391">
<ele>723.291</ele>
<time>2020-09-11T12:34:06Z</time>
</trkpt>
<trkpt lat="47.727482" lon="10.782465">
<ele>722.984</ele>
<time>2020-09-11T12:34:07Z</time>
</trkpt>
<trkpt lat="47.727428" lon="10.782557">
<ele>722.742</ele>
<time>2020-09-11T12:34:08Z</time>
</trkpt>
<trkpt lat="47.727386" lon="10.782657">
<ele>722.589</ele>
<time>2020-09-11T12:34:09Z</time>
</trkpt>
<trkpt lat="47.727341" lon="10.78276">
<ele>722.196</ele>
<time>2020-09-11T12:34:10Z</time>
</trkpt>
<trkpt lat="47.727291" lon="10.782862">
<ele>721.906</ele>
<time>2020-09-11T12:34:11Z</time>
</trkpt>
<trkpt lat="47.727245" lon="10.78296">
<ele>721.712</ele>
<time>2020-09-11T12:34:12Z</time>
</trkpt>
<trkpt lat="47.727192" lon="10.783053">
<ele>721.574</ele>
<time>2020-09-11T12:34:13Z</time>
</trkpt>
<trkpt lat="47.727142" lon="10.783141">
<ele>721.475</ele>
<time>2020-09-11T12:34:14Z</time>
</trkpt>
<trkpt lat="47.727089" lon="10.783227">
<ele>721.402</ele>
<time>2020-09-11T12:34:15Z</time>
</trkpt>
<trkpt lat="47.727028" lon="10.783308">
<ele>721.354</ele>
<time>2020-09-11T12:34:16Z</time>
</trkpt>
<trkpt lat="47.726971" lon="10.783385">
<ele>721.331</ele>
<time>2020-09-11T12:34:17Z</time>
</trkpt>
<trkpt lat="47.726913" lon="10.78346">
<ele>721.331</ele>
<time>2020-09-11T12:34:18Z</time>
</trkpt>
<trkpt lat="47.726852" lon="10.783537">
<ele>721.331</ele>
<time>2020-09-11T12:34:19Z</time>
</trkpt>
<trkpt lat="47.726795" lon="10.783612">
<ele>721.331</ele>
<time>2020-09-11T12:34:20Z</time>
</trkpt>
<trkpt lat="47.726734" lon="10.783687">
<ele>721.08</ele>
<time>2020-09-11T12:34:21Z</time>
</trkpt>
<trkpt lat="47.726673" lon="10.783758">
<ele>720.882</ele>
<time>2020-09-11T12:34:22Z</time>
</trkpt>
<trkpt lat="47.726616" lon="10.78383">
<ele>720.73</ele>
<time>2020-09-11T12:34:23Z</time>
</trkpt>
<trkpt lat="47.726562" lon="10.783903">
<ele>720.625</ele>
<time>2020-09-11T12:34:24Z</time>
</trkpt>
<trkpt lat="47.726505" lon="10.783978">
<ele>720.511</ele>
<time>2020-09-11T12:34:25Z</time>
</trkpt>
<trkpt lat="47.726456" lon="10.784059">
<ele>720.428</ele>
<time>2020-09-11T12:34:26Z</time>
</trkpt>
<trkpt lat="47.726406" lon="10.78414">
<ele>720.376</ele>
<time>2020-09-11T12:34:27Z</time>
</trkpt>
<trkpt lat="47.726357" lon="10.78422">
<ele>720.351</ele>
<time>2020-09-11T12:34:28Z</time>
</trkpt>
<trkpt lat="47.726311" lon="10.7843">
<ele>720.351</ele>
<time>2020-09-11T12:34:29Z</time>
</trkpt>
<trkpt lat="47.726269" lon="10.784385">
<ele>720.351</ele>
<time>2020-09-11T12:34:30Z</time>
</trkpt>
<trkpt lat="47.726223" lon="10.784467">
<ele>720.351</ele>
<time>2020-09-11T12:34:31Z</time>
</trkpt>
<trkpt lat="47.726177" lon="10.784549">
<ele>720.351</ele>
<time>2020-09-11T12:34:32Z</time>
</trkpt>
<trkpt lat="47.726135" lon="10.784627">
<ele>720.351</ele>
<time>2020-09-11T12:34:33Z</time>
</trkpt>
<trkpt lat="47.726089" lon="10.784705">
<ele>720.351</ele>
<time>2020-09-11T12:34:34Z</time>
</trkpt>
<trkpt lat="47.726048" lon="10.784781">
<ele>720.351</ele>
<time>2020-09-11T12:34:35Z</time>
</trkpt>
<trkpt lat="47.726006" lon="10.784857">
<ele>720.351</ele>
<time>2020-09-11T12:34:36Z</time>
</trkpt>
<trkpt lat="47.725956" lon="10.78493">
<ele>720.351</ele>
<time>2020-09-11T12:34:37Z</time>
</trkpt>
<trkpt lat="47.725914" lon="10.785002">
<ele>720.351</ele>
<time>2020-09-11T12:34:38Z</time>
</trkpt>
<trkpt lat="47.725864" lon="10.785072">
<ele>720.351</ele>
<time>2020-09-11T12:34:39Z</time>
</trkpt>
<trkpt lat="47.725815" lon="10.785137">
<ele>720.351</ele>
<time>2020-09-11T12:34:40Z</time>
</trkpt>
<trkpt lat="47.725761" lon="10.785198">
<ele>720.351</ele>
<time>2020-09-11T12:34:41Z</time>
</trkpt>
<trkpt lat="47.725708" lon="10.785254">
<ele>720.351</ele>
<time>2020-09-11T12:34:42Z</time>
</trkpt>
<trkpt lat="47.725658" lon="10.785312">
<ele>720.351</ele>
<time>2020-09-11T12:34:43Z</time>
</trkpt>
<trkpt lat="47.725597" lon="10.785365">
<ele>720.351</ele>
<time>2020-09-11T12:34:44Z</time>
</trkpt>
<trkpt lat="47.725544" lon="10.78542">
<ele>720.351</ele>
<time>2020-09-11T12:34:45Z</time>
</trkpt>
<trkpt lat="47.725487" lon="10.785472">
<ele>720.351</ele>
<time>2020-09-11T12:34:46Z</time>
</trkpt>
<trkpt lat="47.725426" lon="10.785521">
<ele>720.066</ele>
<time>2020-09-11T12:34:47Z</time>
</trkpt>
<trkpt lat="47.725365" lon="10.785567">
<ele>719.844</ele>
<time>2020-09-11T12:34:48Z</time>
</trkpt>
<trkpt lat="47.7253" lon="10.785611">
<ele>719.678</ele>
<time>2020-09-11T12:34:49Z</time>
</trkpt>
<trkpt lat="47.725231" lon="10.785655">
<ele>719.553</ele>
<time>2020-09-11T12:34:50Z</time>
</trkpt>
<trkpt lat="47.725163" lon="10.7857">
<ele>719.468</ele>
<time>2020-09-11T12:34:51Z</time>
</trkpt>
<trkpt lat="47.725094" lon="10.785747">
<ele>719.417</ele>
<time>2020-09-11T12:34:52Z</time>
</trkpt>
<trkpt lat="47.725025" lon="10.785791">
<ele>719.397</ele>
<time>2020-09-11T12:34:53Z</time>
</trkpt>
<trkpt lat="47.724953" lon="10.785837">
<ele>719.129</ele>
<time>2020-09-11T12:34:54Z</time>
</trkpt>
<trkpt lat="47.724884" lon="10.785885">
<ele>718.901</ele>
<time>2020-09-11T12:34:55Z</time>
</trkpt>
<trkpt lat="47.724808" lon="10.785932">
<ele>718.715</ele>
<time>2020-09-11T12:34:56Z</time>
</trkpt>
<trkpt lat="47.724739" lon="10.78598">
<ele>718.57</ele>
<time>2020-09-11T12:34:57Z</time>
</trkpt>
<trkpt lat="47.724667" lon="10.786028">
<ele>718.458</ele>
<time>2020-09-11T12:34:58Z</time>
</trkpt>
<trkpt lat="47.724594" lon="10.78608">
<ele>718.378</ele>
<time>2020-09-11T12:34:59Z</time>
</trkpt>
<trkpt lat="47.724525" lon="10.786132">
<ele>718.327</ele>
<time>2020-09-11T12:35:00Z</time>
</trkpt>
<trkpt lat="47.724457" lon="10.786181">
<ele>718.302</ele>
<time>2020-09-11T12:35:01Z</time>
</trkpt>
<trkpt lat="47.724388" lon="10.78623">
<ele>718.302</ele>
<time>2020-09-11T12:35:02Z</time>
</trkpt>
<trkpt lat="47.724319" lon="10.786279">
<ele>718.302</ele>
<time>2020-09-11T12:35:03Z</time>
</trkpt>
<trkpt lat="47.724255" lon="10.786327">
<ele>718.302</ele>
<time>2020-09-11T12:35:04Z</time>
</trkpt>
<trkpt lat="47.72419" lon="10.786378">
<ele>718.302</ele>
<time>2020-09-11T12:35:05Z</time>
</trkpt>
<trkpt lat="47.724125" lon="10.786432">
<ele>718.302</ele>
<time>2020-09-11T12:35:06Z</time>
</trkpt>
<trkpt lat="47.724064" lon="10.786483">
<ele>718.302</ele>
<time>2020-09-11T12:35:07Z</time>
</trkpt>
<trkpt lat="47.724003" lon="10.786539">
<ele>718.302</ele>
<time>2020-09-11T12:35:08Z</time>
</trkpt>
<trkpt lat="47.723949" lon="10.786595">
<ele>718.302</ele>
<time>2020-09-11T12:35:09Z</time>
</trkpt>
<trkpt lat="47.723896" lon="10.78665">
<ele>718.624</ele>
<time>2020-09-11T12:35:10Z</time>
</trkpt>
<trkpt lat="47.723843" lon="10.786703">
<ele>718.64</ele>
<time>2020-09-11T12:35:11Z</time>
</trkpt>
<trkpt lat="47.723793" lon="10.786755">
<ele>718.647</ele>
<time>2020-09-11T12:35:12Z</time>
</trkpt>
<trkpt lat="47.723743" lon="10.786803">
<ele>718.648</ele>
<time>2020-09-11T12:35:13Z</time>
</trkpt>
<trkpt lat="47.723698" lon="10.78685">
<ele>718.772</ele>
<time>2020-09-11T12:35:14Z</time>
</trkpt>
<trkpt lat="47.723652" lon="10.786897">
<ele>718.966</ele>
<time>2020-09-11T12:35:15Z</time>
</trkpt>
<trkpt lat="47.723606" lon="10.786945">
<ele>719.12</ele>
<time>2020-09-11T12:35:16Z</time>
</trkpt>
<trkpt lat="47.723564" lon="10.78699">
<ele>719.237</ele>
<time>2020-09-11T12:35:17Z</time>
</trkpt>
<trkpt lat="47.723518" lon="10.787037">
<ele>719.36</ele>
<time>2020-09-11T12:35:18Z</time>
</trkpt>
<trkpt lat="47.723476" lon="10.787084">
<ele>719.42</ele>
<time>2020-09-11T12:35:19Z</time>
</trkpt>
<trkpt lat="47.723434" lon="10.787132">
<ele>719.463</ele>
<time>2020-09-11T12:35:20Z</time>
</trkpt>
<trkpt lat="47.723389" lon="10.78718">
<ele>719.757</ele>
<time>2020-09-11T12:35:21Z</time>
</trkpt>
<trkpt lat="47.723343" lon="10.787225">
<ele>719.985</ele>
<time>2020-09-11T12:35:22Z</time>
</trkpt>
<trkpt lat="47.723297" lon="10.787272">
<ele>720.151</ele>
<time>2020-09-11T12:35:23Z</time>
</trkpt>
<trkpt lat="47.723251" lon="10.78732">
<ele>720.256</ele>
<time>2020-09-11T12:35:24Z</time>
</trkpt>
<trkpt lat="47.723213" lon="10.787369">
<ele>720.367</ele>
<time>2020-09-11T12:35:25Z</time>
</trkpt>
<trkpt lat="47.723164" lon="10.787416">
<ele>720.691</ele>
<time>2020-09-11T12:35:26Z</time>
</trkpt>
<trkpt lat="47.723122" lon="10.787463">
<ele>720.944</ele>
<time>2020-09-11T12:35:27Z</time>
</trkpt>
<trkpt lat="47.72308" lon="10.787509">
<ele>721.131</ele>
<time>2020-09-11T12:35:28Z</time>
</trkpt>
<trkpt lat="47.723034" lon="10.787553">
<ele>721.346</ele>
<time>2020-09-11T12:35:29Z</time>
</trkpt>
<trkpt lat="47.722988" lon="10.787597">
<ele>721.42</ele>
<time>2020-09-11T12:35:30Z</time>
</trkpt>
<trkpt lat="47.722946" lon="10.787642">
<ele>721.708</ele>
<time>2020-09-11T12:35:31Z</time>
</trkpt>
<trkpt lat="47.7229" lon="10.787682">
<ele>721.916</ele>
<time>2020-09-11T12:35:32Z</time>
</trkpt>
<trkpt lat="47.722855" lon="10.787724">
<ele>722.055</ele>
<time>2020-09-11T12:35:33Z</time>
</trkpt>
<trkpt lat="47.722809" lon="10.787763">
<ele>722.151</ele>
<time>2020-09-11T12:35:34Z</time>
</trkpt>
<trkpt lat="47.722759" lon="10.787802">
<ele>722.252</ele>
<time>2020-09-11T12:35:35Z</time>
</trkpt>
<trkpt lat="47.722717" lon="10.78784">
<ele>722.588</ele>
<time>2020-09-11T12:35:36Z</time>
</trkpt>
<trkpt lat="47.722668" lon="10.787876">
<ele>722.855</ele>
<time>2020-09-11T12:35:37Z</time>
</trkpt>
<trkpt lat="47.722618" lon="10.78791">
<ele>723.06</ele>
<time>2020-09-11T12:35:38Z</time>
</trkpt>
<trkpt lat="47.722569" lon="10.787943">
<ele>723.288</ele>
<time>2020-09-11T12:35:39Z</time>
</trkpt>
<trkpt lat="47.722519" lon="10.787974">
<ele>723.382</ele>
<time>2020-09-11T12:35:40Z</time>
</trkpt>
<trkpt lat="47.722462" lon="10.788004">
<ele>723.439</ele>
<time>2020-09-11T12:35:41Z</time>
</trkpt>
<trkpt lat="47.722416" lon="10.788033">
<ele>723.466</ele>
<time>2020-09-11T12:35:42Z</time>
</trkpt>
<trkpt lat="47.722363" lon="10.78806">
<ele>723.47</ele>
<time>2020-09-11T12:35:43Z</time>
</trkpt>
<trkpt lat="47.722313" lon="10.788087">
<ele>723.688</ele>
<time>2020-09-11T12:35:44Z</time>
</trkpt>
<trkpt lat="47.72226" lon="10.78811">
<ele>723.894</ele>
<time>2020-09-11T12:35:45Z</time>
</trkpt>
<trkpt lat="47.722206" lon="10.788132">
<ele>724.063</ele>
<time>2020-09-11T12:35:46Z</time>
</trkpt>
<trkpt lat="47.722153" lon="10.788148">
<ele>724.199</ele>
<time>2020-09-11T12:35:47Z</time>
</trkpt>
<trkpt lat="47.722103" lon="10.788167">
<ele>724.302</ele>
<time>2020-09-11T12:35:48Z</time>
</trkpt>
<trkpt lat="47.722046" lon="10.788183">
<ele>724.378</ele>
<time>2020-09-11T12:35:49Z</time>
</trkpt>
<trkpt lat="47.721992" lon="10.788198">
<ele>724.427</ele>
<time>2020-09-11T12:35:50Z</time>
</trkpt>
<trkpt lat="47.721935" lon="10.78821">
<ele>724.45</ele>
<time>2020-09-11T12:35:51Z</time>
</trkpt>
<trkpt lat="47.721878" lon="10.788219">
<ele>724.45</ele>
<time>2020-09-11T12:35:52Z</time>
</trkpt>
<trkpt lat="47.721825" lon="10.78823">
<ele>724.45</ele>
<time>2020-09-11T12:35:53Z</time>
</trkpt>
<trkpt lat="47.721764" lon="10.788242">
<ele>724.45</ele>
<time>2020-09-11T12:35:54Z</time>
</trkpt>
<trkpt lat="47.721706" lon="10.78825">
<ele>724.45</ele>
<time>2020-09-11T12:35:55Z</time>
</trkpt>
<trkpt lat="47.721645" lon="10.788259">
<ele>724.45</ele>
<time>2020-09-11T12:35:56Z</time>
</trkpt>
<trkpt lat="47.721588" lon="10.78827">
<ele>724.45</ele>
<time>2020-09-11T12:35:57Z</time>
</trkpt>
<trkpt lat="47.721531" lon="10.788279">
<ele>724.45</ele>
<time>2020-09-11T12:35:58Z</time>
</trkpt>
<trkpt lat="47.72147" lon="10.788286">
<ele>724.45</ele>
<time>2020-09-11T12:35:59Z</time>
</trkpt>
<trkpt lat="47.721409" lon="10.788295">
<ele>724.45</ele>
<time>2020-09-11T12:36:00Z</time>
</trkpt>
<trkpt lat="47.721344" lon="10.788303">
<ele>724.45</ele>
<time>2020-09-11T12:36:01Z</time>
</trkpt>
<trkpt lat="47.721279" lon="10.78831">
<ele>724.45</ele>
<time>2020-09-11T12:36:02Z</time>
</trkpt>
<trkpt lat="47.721214" lon="10.788316">
<ele>724.45</ele>
<time>2020-09-11T12:36:03Z</time>
</trkpt>
<trkpt lat="47.721149" lon="10.788323">
<ele>724.45</ele>
<time>2020-09-11T12:36:04Z</time>
</trkpt>
<trkpt lat="47.721081" lon="10.788326">
<ele>724.45</ele>
<time>2020-09-11T12:36:05Z</time>
</trkpt>
<trkpt lat="47.721012" lon="10.788333">
<ele>724.45</ele>
<time>2020-09-11T12:36:06Z</time>
</trkpt>
<trkpt lat="47.720947" lon="10.788341">
<ele>724.45</ele>
<time>2020-09-11T12:36:07Z</time>
</trkpt>
<trkpt lat="47.720879" lon="10.788347">
<ele>724.45</ele>
<time>2020-09-11T12:36:08Z</time>
</trkpt>
<trkpt lat="47.72081" lon="10.788355">
<ele>724.45</ele>
<time>2020-09-11T12:36:09Z</time>
</trkpt>
<trkpt lat="47.720741" lon="10.788362">
<ele>724.212</ele>
<time>2020-09-11T12:36:10Z</time>
</trkpt>
<trkpt lat="47.720673" lon="10.788368">
<ele>724.026</ele>
<time>2020-09-11T12:36:11Z</time>
</trkpt>
<trkpt lat="47.720604" lon="10.788375">
<ele>723.887</ele>
<time>2020-09-11T12:36:12Z</time>
</trkpt>
<trkpt lat="47.720535" lon="10.788382">
<ele>723.779</ele>
<time>2020-09-11T12:36:13Z</time>
</trkpt>
<trkpt lat="47.720463" lon="10.788389">
<ele>723.706</ele>
<time>2020-09-11T12:36:14Z</time>
</trkpt>
<trkpt lat="47.72039" lon="10.7884">
<ele>723.63</ele>
<time>2020-09-11T12:36:15Z</time>
</trkpt>
<trkpt lat="47.720318" lon="10.78841">
<ele>723.582</ele>
<time>2020-09-11T12:36:16Z</time>
</trkpt>
<trkpt lat="47.720249" lon="10.788421">
<ele>723.558</ele>
<time>2020-09-11T12:36:17Z</time>
</trkpt>
<trkpt lat="47.720181" lon="10.788431">
<ele>723.558</ele>
<time>2020-09-11T12:36:18Z</time>
</trkpt>
<trkpt lat="47.720116" lon="10.788442">
<ele>723.558</ele>
<time>2020-09-11T12:36:19Z</time>
</trkpt>
<trkpt lat="47.720047" lon="10.788452">
<ele>723.558</ele>
<time>2020-09-11T12:36:20Z</time>
</trkpt>
<trkpt lat="47.719978" lon="10.788462">
<ele>723.558</ele>
<time>2020-09-11T12:36:21Z</time>
</trkpt>
<trkpt lat="47.719913" lon="10.788473">
<ele>723.558</ele>
<time>2020-09-11T12:36:22Z</time>
</trkpt>
<trkpt lat="47.719849" lon="10.788487">
<ele>723.558</ele>
<time>2020-09-11T12:36:23Z</time>
</trkpt>
<trkpt lat="47.719784" lon="10.788505">
<ele>723.558</ele>
<time>2020-09-11T12:36:24Z</time>
</trkpt>
<trkpt lat="47.719723" lon="10.788526">
<ele>723.558</ele>
<time>2020-09-11T12:36:25Z</time>
</trkpt>
<trkpt lat="47.719658" lon="10.78855">
<ele>723.558</ele>
<time>2020-09-11T12:36:26Z</time>
</trkpt>
<trkpt lat="47.719597" lon="10.788575">
<ele>723.558</ele>
<time>2020-09-11T12:36:27Z</time>
</trkpt>
<trkpt lat="47.719536" lon="10.788603">
<ele>723.558</ele>
<time>2020-09-11T12:36:28Z</time>
</trkpt>
<trkpt lat="47.719479" lon="10.788634">
<ele>723.558</ele>
<time>2020-09-11T12:36:29Z</time>
</trkpt>
<trkpt lat="47.719421" lon="10.788665">
<ele>723.558</ele>
<time>2020-09-11T12:36:30Z</time>
</trkpt>
<trkpt lat="47.719364" lon="10.788697">
<ele>723.558</ele>
<time>2020-09-11T12:36:31Z</time>
</trkpt>
<trkpt lat="47.719307" lon="10.788727">
<ele>723.558</ele>
<time>2020-09-11T12:36:32Z</time>
</trkpt>
<trkpt lat="47.719254" lon="10.788756">
<ele>723.558</ele>
<time>2020-09-11T12:36:33Z</time>
</trkpt>
<trkpt lat="47.7192" lon="10.788787">
<ele>723.558</ele>
<time>2020-09-11T12:36:34Z</time>
</trkpt>
<trkpt lat="47.719143" lon="10.788815">
<ele>723.558</ele>
<time>2020-09-11T12:36:35Z</time>
</trkpt>
<trkpt lat="47.71909" lon="10.788843">
<ele>723.558</ele>
<time>2020-09-11T12:36:36Z</time>
</trkpt>
<trkpt lat="47.71904" lon="10.788872">
<ele>723.558</ele>
<time>2020-09-11T12:36:37Z</time>
</trkpt>
<trkpt lat="47.718979" lon="10.788894">
<ele>723.558</ele>
<time>2020-09-11T12:36:38Z</time>
</trkpt>
<trkpt lat="47.718925" lon="10.788913">
<ele>723.558</ele>
<time>2020-09-11T12:36:39Z</time>
</trkpt>
<trkpt lat="47.718868" lon="10.788928">
<ele>723.558</ele>
<time>2020-09-11T12:36:40Z</time>
</trkpt>
<trkpt lat="47.718811" lon="10.788943">
<ele>723.558</ele>
<time>2020-09-11T12:36:41Z</time>
</trkpt>
<trkpt lat="47.718754" lon="10.788955">
<ele>723.558</ele>
<time>2020-09-11T12:36:42Z</time>
</trkpt>
<trkpt lat="47.7187" lon="10.788961">
<ele>723.558</ele>
<time>2020-09-11T12:36:43Z</time>
</trkpt>
<trkpt lat="47.718647" lon="10.788965">
<ele>723.558</ele>
<time>2020-09-11T12:36:44Z</time>
</trkpt>
<trkpt lat="47.718586" lon="10.78897">
<ele>723.558</ele>
<time>2020-09-11T12:36:45Z</time>
</trkpt>
<trkpt lat="47.718521" lon="10.788978">
<ele>723.558</ele>
<time>2020-09-11T12:36:46Z</time>
</trkpt>
<trkpt lat="47.71846" lon="10.788988">
<ele>723.558</ele>
<time>2020-09-11T12:36:47Z</time>
</trkpt>
<trkpt lat="47.718391" lon="10.789001">
<ele>723.558</ele>
<time>2020-09-11T12:36:48Z</time>
</trkpt>
<trkpt lat="47.718323" lon="10.789009">
<ele>723.282</ele>
<time>2020-09-11T12:36:49Z</time>
</trkpt>
<trkpt lat="47.718254" lon="10.789021">
<ele>723.104</ele>
<time>2020-09-11T12:36:50Z</time>
</trkpt>
<trkpt lat="47.71817" lon="10.789039">
<ele>722.658</ele>
<time>2020-09-11T12:36:51Z</time>
</trkpt>
<trkpt lat="47.71809" lon="10.789048">
<ele>722.328</ele>
<time>2020-09-11T12:36:52Z</time>
</trkpt>
<trkpt lat="47.718006" lon="10.789057">
<ele>722.138</ele>
<time>2020-09-11T12:36:53Z</time>
</trkpt>
<trkpt lat="47.717922" lon="10.789063">
<ele>721.657</ele>
<time>2020-09-11T12:36:54Z</time>
</trkpt>
<trkpt lat="47.717831" lon="10.789079">
<ele>721.267</ele>
<time>2020-09-11T12:36:55Z</time>
</trkpt>
<trkpt lat="47.717739" lon="10.789093">
<ele>720.744</ele>
<time>2020-09-11T12:36:56Z</time>
</trkpt>
<trkpt lat="47.717644" lon="10.789108">
<ele>720.085</ele>
<time>2020-09-11T12:36:57Z</time>
</trkpt>
<trkpt lat="47.717545" lon="10.78912">
<ele>719.654</ele>
<time>2020-09-11T12:36:58Z</time>
</trkpt>
<trkpt lat="47.717449" lon="10.789124">
<ele>719.013</ele>
<time>2020-09-11T12:36:59Z</time>
</trkpt>
<trkpt lat="47.717354" lon="10.78913">
<ele>718.559</ele>
<time>2020-09-11T12:37:00Z</time>
</trkpt>
<trkpt lat="47.717251" lon="10.789135">
<ele>718.245</ele>
<time>2020-09-11T12:37:01Z</time>
</trkpt>
<trkpt lat="47.717152" lon="10.789144">
<ele>717.76</ele>
<time>2020-09-11T12:37:02Z</time>
</trkpt>
<trkpt lat="47.717056" lon="10.789144">
<ele>717.218</ele>
<time>2020-09-11T12:37:03Z</time>
</trkpt>
<trkpt lat="47.716957" lon="10.789142">
<ele>716.823</ele>
<time>2020-09-11T12:37:04Z</time>
</trkpt>
<trkpt lat="47.716862" lon="10.789135">
<ele>716.476</ele>
<time>2020-09-11T12:37:05Z</time>
</trkpt>
<trkpt lat="47.716763" lon="10.789124">
<ele>716.215</ele>
<time>2020-09-11T12:37:06Z</time>
</trkpt>
<trkpt lat="47.716671" lon="10.789114">
<ele>715.946</ele>
<time>2020-09-11T12:37:07Z</time>
</trkpt>
<trkpt lat="47.716576" lon="10.789099">
<ele>715.867</ele>
<time>2020-09-11T12:37:08Z</time>
</trkpt>
<trkpt lat="47.716488" lon="10.789083">
<ele>715.835</ele>
<time>2020-09-11T12:37:09Z</time>
</trkpt>
<trkpt lat="47.716396" lon="10.789068">
<ele>715.808</ele>
<time>2020-09-11T12:37:10Z</time>
</trkpt>
<trkpt lat="47.716309" lon="10.789055">
<ele>715.808</ele>
<time>2020-09-11T12:37:11Z</time>
</trkpt>
<trkpt lat="47.716225" lon="10.789042">
<ele>715.808</ele>
<time>2020-09-11T12:37:12Z</time>
</trkpt>
<trkpt lat="47.716137" lon="10.789028">
<ele>716.019</ele>
<time>2020-09-11T12:37:13Z</time>
</trkpt>
<trkpt lat="47.716053" lon="10.789018">
<ele>716.173</ele>
<time>2020-09-11T12:37:14Z</time>
</trkpt>
<trkpt lat="47.715973" lon="10.78901">
<ele>716.33</ele>
<time>2020-09-11T12:37:15Z</time>
</trkpt>
<trkpt lat="47.715889" lon="10.789007">
<ele>716.458</ele>
<time>2020-09-11T12:37:16Z</time>
</trkpt>
<trkpt lat="47.715809" lon="10.789003">
<ele>716.558</ele>
<time>2020-09-11T12:37:17Z</time>
</trkpt>
<trkpt lat="47.715725" lon="10.789001">
<ele>716.63</ele>
<time>2020-09-11T12:37:18Z</time>
</trkpt>
<trkpt lat="47.715645" lon="10.789001">
<ele>716.676</ele>
<time>2020-09-11T12:37:19Z</time>
</trkpt>
<trkpt lat="47.715561" lon="10.788999">
<ele>716.699</ele>
<time>2020-09-11T12:37:20Z</time>
</trkpt>
<trkpt lat="47.715477" lon="10.788995">
<ele>716.699</ele>
<time>2020-09-11T12:37:21Z</time>
</trkpt>
<trkpt lat="47.715389" lon="10.788997">
<ele>716.699</ele>
<time>2020-09-11T12:37:22Z</time>
</trkpt>
<trkpt lat="47.715302" lon="10.788999">
<ele>716.699</ele>
<time>2020-09-11T12:37:23Z</time>
</trkpt>
<trkpt lat="47.715218" lon="10.788995">
<ele>716.699</ele>
<time>2020-09-11T12:37:24Z</time>
</trkpt>
<trkpt lat="47.715126" lon="10.78899">
<ele>716.699</ele>
<time>2020-09-11T12:37:25Z</time>
</trkpt>
<trkpt lat="47.715038" lon="10.788978">
<ele>716.4</ele>
<time>2020-09-11T12:37:26Z</time>
</trkpt>
<trkpt lat="47.714947" lon="10.788961">
<ele>716.172</ele>
<time>2020-09-11T12:37:27Z</time>
</trkpt>
<trkpt lat="47.714863" lon="10.788942">
<ele>716.003</ele>
<time>2020-09-11T12:37:28Z</time>
</trkpt>
<trkpt lat="47.714767" lon="10.788918">
<ele>715.901</ele>
<time>2020-09-11T12:37:29Z</time>
</trkpt>
<trkpt lat="47.714684" lon="10.788892">
<ele>715.57</ele>
<time>2020-09-11T12:37:30Z</time>
</trkpt>
<trkpt lat="47.7146" lon="10.788865">
<ele>715.329</ele>
<time>2020-09-11T12:37:31Z</time>
</trkpt>
<trkpt lat="47.714516" lon="10.788836">
<ele>715.161</ele>
<time>2020-09-11T12:37:32Z</time>
</trkpt>
<trkpt lat="47.714432" lon="10.788806">
<ele>715.053</ele>
<time>2020-09-11T12:37:33Z</time>
</trkpt>
<trkpt lat="47.714352" lon="10.788783">
<ele>714.978</ele>
<time>2020-09-11T12:37:34Z</time>
</trkpt>
<trkpt lat="47.714272" lon="10.788758">
<ele>714.902</ele>
<time>2020-09-11T12:37:35Z</time>
</trkpt>
<trkpt lat="47.714195" lon="10.788732">
<ele>714.853</ele>
<time>2020-09-11T12:37:36Z</time>
</trkpt>
<trkpt lat="47.714123" lon="10.788699">
<ele>714.829</ele>
<time>2020-09-11T12:37:37Z</time>
</trkpt>
<trkpt lat="47.714058" lon="10.788667">
<ele>714.829</ele>
<time>2020-09-11T12:37:38Z</time>
</trkpt>
<trkpt lat="47.713997" lon="10.788633">
<ele>714.829</ele>
<time>2020-09-11T12:37:39Z</time>
</trkpt>
<trkpt lat="47.713947" lon="10.788607">
<ele>714.829</ele>
<time>2020-09-11T12:37:40Z</time>
</trkpt>
<trkpt lat="47.713902" lon="10.788582">
<ele>714.829</ele>
<time>2020-09-11T12:37:41Z</time>
</trkpt>
<trkpt lat="47.713871" lon="10.788568">
<ele>714.829</ele>
<time>2020-09-11T12:37:42Z</time>
</trkpt>
<trkpt lat="47.713848" lon="10.788563">
<ele>714.829</ele>
<time>2020-09-11T12:37:43Z</time>
</trkpt>
<trkpt lat="47.713837" lon="10.788561">
<ele>714.829</ele>
<time>2020-09-11T12:37:44Z</time>
</trkpt>
<trkpt lat="47.713825" lon="10.788555">
<ele>714.829</ele>
<time>2020-09-11T12:37:45Z</time>
</trkpt>
<trkpt lat="47.713825" lon="10.788557">
<ele>714.829</ele>
<time>2020-09-11T12:37:46Z</time>
</trkpt>
<trkpt lat="47.713825" lon="10.788555">
<ele>714.829</ele>
<time>2020-09-11T12:37:47Z</time>
</trkpt>
<trkpt lat="47.713829" lon="10.788592">
<ele>714.829</ele>
<time>2020-09-11T12:38:50Z</time>
</trkpt>
<trkpt lat="47.713825" lon="10.788592">
<ele>714.829</ele>
<time>2020-09-11T12:38:51Z</time>
</trkpt>
<trkpt lat="47.713821" lon="10.788595">
<ele>714.829</ele>
<time>2020-09-11T12:38:52Z</time>
</trkpt>
<trkpt lat="47.713818" lon="10.788596">
<ele>714.829</ele>
<time>2020-09-11T12:38:53Z</time>
</trkpt>
<trkpt lat="47.713814" lon="10.788598">
<ele>714.829</ele>
<time>2020-09-11T12:38:54Z</time>
</trkpt>
<trkpt lat="47.713806" lon="10.7886">
<ele>714.829</ele>
<time>2020-09-11T12:38:56Z</time>
</trkpt>
<trkpt lat="47.713799" lon="10.788603">
<ele>714.829</ele>
<time>2020-09-11T12:38:57Z</time>
</trkpt>
<trkpt lat="47.713791" lon="10.788609">
<ele>714.829</ele>
<time>2020-09-11T12:38:58Z</time>
</trkpt>
<trkpt lat="47.713791" lon="10.788611">
<ele>714.829</ele>
<time>2020-09-11T12:38:59Z</time>
</trkpt>
<trkpt lat="47.713787" lon="10.788611">
<ele>714.829</ele>
<time>2020-09-11T12:39:00Z</time>
</trkpt>
<trkpt lat="47.713776" lon="10.788626">
<ele>714.829</ele>
<time>2020-09-11T12:39:16Z</time>
</trkpt>
<trkpt lat="47.713757" lon="10.78863">
<ele>714.829</ele>
<time>2020-09-11T12:39:17Z</time>
</trkpt>
<trkpt lat="47.713745" lon="10.788636">
<ele>714.829</ele>
<time>2020-09-11T12:39:18Z</time>
</trkpt>
<trkpt lat="47.713726" lon="10.788643">
<ele>714.829</ele>
<time>2020-09-11T12:39:19Z</time>
</trkpt>
<trkpt lat="47.713707" lon="10.788653">
<ele>714.829</ele>
<time>2020-09-11T12:39:20Z</time>
</trkpt>
<trkpt lat="47.713692" lon="10.788667">
<ele>714.829</ele>
<time>2020-09-11T12:39:21Z</time>
</trkpt>
<trkpt lat="47.713669" lon="10.788685">
<ele>714.829</ele>
<time>2020-09-11T12:39:22Z</time>
</trkpt>
<trkpt lat="47.71365" lon="10.788703">
<ele>714.829</ele>
<time>2020-09-11T12:39:23Z</time>
</trkpt>
<trkpt lat="47.713623" lon="10.788722">
<ele>714.829</ele>
<time>2020-09-11T12:39:24Z</time>
</trkpt>
<trkpt lat="47.713593" lon="10.788734">
<ele>714.829</ele>
<time>2020-09-11T12:39:25Z</time>
</trkpt>
<trkpt lat="47.713562" lon="10.788745">
<ele>714.829</ele>
<time>2020-09-11T12:39:26Z</time>
</trkpt>
<trkpt lat="47.713524" lon="10.788755">
<ele>714.829</ele>
<time>2020-09-11T12:39:27Z</time>
</trkpt>
<trkpt lat="47.713486" lon="10.78877">
<ele>714.829</ele>
<time>2020-09-11T12:39:28Z</time>
</trkpt>
<trkpt lat="47.713448" lon="10.788789">
<ele>714.829</ele>
<time>2020-09-11T12:39:29Z</time>
</trkpt>
<trkpt lat="47.713409" lon="10.788804">
<ele>714.829</ele>
<time>2020-09-11T12:39:30Z</time>
</trkpt>
<trkpt lat="47.713367" lon="10.78882">
<ele>714.829</ele>
<time>2020-09-11T12:39:31Z</time>
</trkpt>
<trkpt lat="47.713329" lon="10.788834">
<ele>714.829</ele>
<time>2020-09-11T12:39:32Z</time>
</trkpt>
<trkpt lat="47.71328" lon="10.788852">
<ele>714.829</ele>
<time>2020-09-11T12:39:33Z</time>
</trkpt>
<trkpt lat="47.713238" lon="10.788871">
<ele>714.829</ele>
<time>2020-09-11T12:39:34Z</time>
</trkpt>
<trkpt lat="47.713196" lon="10.78889">
<ele>714.829</ele>
<time>2020-09-11T12:39:35Z</time>
</trkpt>
<trkpt lat="47.713146" lon="10.78891">
<ele>714.829</ele>
<time>2020-09-11T12:39:36Z</time>
</trkpt>
<trkpt lat="47.713104" lon="10.788928">
<ele>714.829</ele>
<time>2020-09-11T12:39:37Z</time>
</trkpt>
<trkpt lat="47.713055" lon="10.788944">
<ele>714.829</ele>
<time>2020-09-11T12:39:38Z</time>
</trkpt>
<trkpt lat="47.713009" lon="10.788961">
<ele>715.051</ele>
<time>2020-09-11T12:39:39Z</time>
</trkpt>
<trkpt lat="47.712959" lon="10.788976">
<ele>715.206</ele>
<time>2020-09-11T12:39:40Z</time>
</trkpt>
<trkpt lat="47.71291" lon="10.788988">
<ele>715.362</ele>
<time>2020-09-11T12:39:41Z</time>
</trkpt>
<trkpt lat="47.712864" lon="10.789001">
<ele>715.489</ele>
<time>2020-09-11T12:39:42Z</time>
</trkpt>
<trkpt lat="47.712811" lon="10.789013">
<ele>715.573</ele>
<time>2020-09-11T12:39:43Z</time>
</trkpt>
<trkpt lat="47.712761" lon="10.789021">
<ele>715.889</ele>
<time>2020-09-11T12:39:44Z</time>
</trkpt>
<trkpt lat="47.712711" lon="10.789028">
<ele>716.141</ele>
<time>2020-09-11T12:39:45Z</time>
</trkpt>
<trkpt lat="47.712658" lon="10.789033">
<ele>716.327</ele>
<time>2020-09-11T12:39:46Z</time>
</trkpt>
<trkpt lat="47.712608" lon="10.789037">
<ele>716.498</ele>
<time>2020-09-11T12:39:47Z</time>
</trkpt>
<trkpt lat="47.712555" lon="10.789039">
<ele>716.58</ele>
<time>2020-09-11T12:39:48Z</time>
</trkpt>
<trkpt lat="47.712505" lon="10.789041">
<ele>716.621</ele>
<time>2020-09-11T12:39:49Z</time>
</trkpt>
<trkpt lat="47.712452" lon="10.789043">
<ele>716.911</ele>
<time>2020-09-11T12:39:50Z</time>
</trkpt>
<trkpt lat="47.712402" lon="10.789043">
<ele>717.16</ele>
<time>2020-09-11T12:39:51Z</time>
</trkpt>
<trkpt lat="47.712353" lon="10.789045">
<ele>717.32</ele>
<time>2020-09-11T12:39:52Z</time>
</trkpt>
<trkpt lat="47.712296" lon="10.789047">
<ele>717.716</ele>
<time>2020-09-11T12:39:53Z</time>
</trkpt>
<trkpt lat="47.71225" lon="10.789048">
<ele>718.036</ele>
<time>2020-09-11T12:39:54Z</time>
</trkpt>
<trkpt lat="47.7122" lon="10.789053">
<ele>718.288</ele>
<time>2020-09-11T12:39:55Z</time>
</trkpt>
<trkpt lat="47.712151" lon="10.789058">
<ele>718.476</ele>
<time>2020-09-11T12:39:56Z</time>
</trkpt>
<trkpt lat="47.712097" lon="10.789062">
<ele>718.605</ele>
<time>2020-09-11T12:39:57Z</time>
</trkpt>
<trkpt lat="47.712051" lon="10.789065">
<ele>718.7</ele>
<time>2020-09-11T12:39:58Z</time>
</trkpt>
<trkpt lat="47.712002" lon="10.78907">
<ele>718.724</ele>
<time>2020-09-11T12:39:59Z</time>
</trkpt>
<trkpt lat="47.711956" lon="10.789075">
<ele>718.747</ele>
<time>2020-09-11T12:40:00Z</time>
</trkpt>
<trkpt lat="47.71191" lon="10.789088">
<ele>718.747</ele>
<time>2020-09-11T12:40:01Z</time>
</trkpt>
<trkpt lat="47.711868" lon="10.789105">
<ele>718.747</ele>
<time>2020-09-11T12:40:02Z</time>
</trkpt>
<trkpt lat="47.711819" lon="10.789126">
<ele>719.004</ele>
<time>2020-09-11T12:40:03Z</time>
</trkpt>
<trkpt lat="47.711769" lon="10.78915">
<ele>719.201</ele>
<time>2020-09-11T12:40:04Z</time>
</trkpt>
<trkpt lat="47.711723" lon="10.78918">
<ele>719.357</ele>
<time>2020-09-11T12:40:05Z</time>
</trkpt>
<trkpt lat="47.711678" lon="10.789215">
<ele>719.471</ele>
<time>2020-09-11T12:40:06Z</time>
</trkpt>
<trkpt lat="47.711639" lon="10.789256">
<ele>719.548</ele>
<time>2020-09-11T12:40:07Z</time>
</trkpt>
<trkpt lat="47.711597" lon="10.789303">
<ele>719.593</ele>
<time>2020-09-11T12:40:08Z</time>
</trkpt>
<trkpt lat="47.711559" lon="10.789357">
<ele>719.618</ele>
<time>2020-09-11T12:40:09Z</time>
</trkpt>
<trkpt lat="47.711521" lon="10.789412">
<ele>719.638</ele>
<time>2020-09-11T12:40:10Z</time>
</trkpt>
<trkpt lat="47.711483" lon="10.789478">
<ele>719.638</ele>
<time>2020-09-11T12:40:11Z</time>
</trkpt>
<trkpt lat="47.711449" lon="10.789548">
<ele>719.638</ele>
<time>2020-09-11T12:40:12Z</time>
</trkpt>
<trkpt lat="47.711414" lon="10.789625">
<ele>719.372</ele>
<time>2020-09-11T12:40:13Z</time>
</trkpt>
<trkpt lat="47.711384" lon="10.789711">
<ele>719.164</ele>
<time>2020-09-11T12:40:14Z</time>
</trkpt>
<trkpt lat="47.711353" lon="10.789808">
<ele>719.044</ele>
<time>2020-09-11T12:40:15Z</time>
</trkpt>
<trkpt lat="47.711319" lon="10.789907">
<ele>718.614</ele>
<time>2020-09-11T12:40:16Z</time>
</trkpt>
<trkpt lat="47.711285" lon="10.790013">
<ele>718.357</ele>
<time>2020-09-11T12:40:17Z</time>
</trkpt>
<trkpt lat="47.71125" lon="10.79012">
<ele>717.89</ele>
<time>2020-09-11T12:40:18Z</time>
</trkpt>
<trkpt lat="47.711212" lon="10.790233">
<ele>717.281</ele>
<time>2020-09-11T12:40:19Z</time>
</trkpt>
<trkpt lat="47.711178" lon="10.790354">
<ele>716.853</ele>
<time>2020-09-11T12:40:20Z</time>
</trkpt>
<trkpt lat="47.711132" lon="10.790475">
<ele>716.187</ele>
<time>2020-09-11T12:40:22Z</time>
</trkpt>
<trkpt lat="47.711021" lon="10.790719">
<ele>715.102</ele>
<time>2020-09-11T12:40:23Z</time>
</trkpt>
<trkpt lat="47.710953" lon="10.79083">
<ele>714.687</ele>
<time>2020-09-11T12:40:24Z</time>
</trkpt>
<trkpt lat="47.710873" lon="10.790933">
<ele>714.068</ele>
<time>2020-09-11T12:40:25Z</time>
</trkpt>
<trkpt lat="47.710789" lon="10.791027">
<ele>713.292</ele>
<time>2020-09-11T12:40:26Z</time>
</trkpt>
<trkpt lat="47.710697" lon="10.79111">
<ele>712.788</ele>
<time>2020-09-11T12:40:27Z</time>
</trkpt>
<trkpt lat="47.710613" lon="10.791186">
<ele>712.059</ele>
<time>2020-09-11T12:40:28Z</time>
</trkpt>
<trkpt lat="47.710526" lon="10.791265">
<ele>711.579</ele>
<time>2020-09-11T12:40:29Z</time>
</trkpt>
<trkpt lat="47.710438" lon="10.791344">
<ele>710.935</ele>
<time>2020-09-11T12:40:30Z</time>
</trkpt>
<trkpt lat="47.710358" lon="10.79143">
<ele>710.41</ele>
<time>2020-09-11T12:40:31Z</time>
</trkpt>
<trkpt lat="47.710274" lon="10.791519">
<ele>710.054</ele>
<time>2020-09-11T12:40:32Z</time>
</trkpt>
<trkpt lat="47.710194" lon="10.791605">
<ele>709.521</ele>
<time>2020-09-11T12:40:33Z</time>
</trkpt>
<trkpt lat="47.710114" lon="10.79168">
<ele>709.126</ele>
<time>2020-09-11T12:40:34Z</time>
</trkpt>
<trkpt lat="47.710045" lon="10.791757">
<ele>708.831</ele>
<time>2020-09-11T12:40:35Z</time>
</trkpt>
<trkpt lat="47.709999" lon="10.791845">
<ele>708.631</ele>
<time>2020-09-11T12:40:36Z</time>
</trkpt>
<trkpt lat="47.709972" lon="10.79195">
<ele>708.494</ele>
<time>2020-09-11T12:40:37Z</time>
</trkpt>
<trkpt lat="47.709953" lon="10.79206">
<ele>708.389</ele>
<time>2020-09-11T12:40:38Z</time>
</trkpt>
<trkpt lat="47.709942" lon="10.792163">
<ele>708.551</ele>
<time>2020-09-11T12:40:39Z</time>
</trkpt>
<trkpt lat="47.709919" lon="10.792265">
<ele>708.689</ele>
<time>2020-09-11T12:40:40Z</time>
</trkpt>
<trkpt lat="47.709892" lon="10.792358">
<ele>708.732</ele>
<time>2020-09-11T12:40:41Z</time>
</trkpt>
<trkpt lat="47.709858" lon="10.792448">
<ele>708.903</ele>
<time>2020-09-11T12:40:42Z</time>
</trkpt>
<trkpt lat="47.70982" lon="10.792533">
<ele>709.046</ele>
<time>2020-09-11T12:40:43Z</time>
</trkpt>
<trkpt lat="47.709782" lon="10.79261">
<ele>709.157</ele>
<time>2020-09-11T12:40:44Z</time>
</trkpt>
<trkpt lat="47.709728" lon="10.792682">
<ele>709.234</ele>
<time>2020-09-11T12:40:45Z</time>
</trkpt>
<trkpt lat="47.709679" lon="10.79275">
<ele>709.285</ele>
<time>2020-09-11T12:40:46Z</time>
</trkpt>
<trkpt lat="47.709618" lon="10.792808">
<ele>709.31</ele>
<time>2020-09-11T12:40:47Z</time>
</trkpt>
<trkpt lat="47.709557" lon="10.792855">
<ele>709.31</ele>
<time>2020-09-11T12:40:48Z</time>
</trkpt>
<trkpt lat="47.709488" lon="10.79289">
<ele>709.31</ele>
<time>2020-09-11T12:40:49Z</time>
</trkpt>
<trkpt lat="47.709423" lon="10.792914">
<ele>709.31</ele>
<time>2020-09-11T12:40:50Z</time>
</trkpt>
<trkpt lat="47.709347" lon="10.792932">
<ele>709.31</ele>
<time>2020-09-11T12:40:51Z</time>
</trkpt>
<trkpt lat="47.709274" lon="10.792946">
<ele>709.31</ele>
<time>2020-09-11T12:40:52Z</time>
</trkpt>
<trkpt lat="47.709198" lon="10.792956">
<ele>709.31</ele>
<time>2020-09-11T12:40:53Z</time>
</trkpt>
<trkpt lat="47.709129" lon="10.792969">
<ele>709.031</ele>
<time>2020-09-11T12:40:54Z</time>
</trkpt>
<trkpt lat="47.709053" lon="10.792983">
<ele>708.815</ele>
<time>2020-09-11T12:40:55Z</time>
</trkpt>
<trkpt lat="47.708977" lon="10.793">
<ele>708.652</ele>
<time>2020-09-11T12:40:56Z</time>
</trkpt>
<trkpt lat="47.7089" lon="10.793016">
<ele>708.534</ele>
<time>2020-09-11T12:40:57Z</time>
</trkpt>
<trkpt lat="47.708828" lon="10.793036">
<ele>708.452</ele>
<time>2020-09-11T12:40:58Z</time>
</trkpt>
<trkpt lat="47.708748" lon="10.793056">
<ele>708.4</ele>
<time>2020-09-11T12:40:59Z</time>
</trkpt>
<trkpt lat="47.708672" lon="10.793078">
<ele>708.357</ele>
<time>2020-09-11T12:41:00Z</time>
</trkpt>
<trkpt lat="47.708595" lon="10.7931">
<ele>708.331</ele>
<time>2020-09-11T12:41:01Z</time>
</trkpt>
<trkpt lat="47.708511" lon="10.793125">
<ele>708.005</ele>
<time>2020-09-11T12:41:02Z</time>
</trkpt>
<trkpt lat="47.708435" lon="10.793149">
<ele>707.757</ele>
<time>2020-09-11T12:41:03Z</time>
</trkpt>
<trkpt lat="47.708351" lon="10.793174">
<ele>707.573</ele>
<time>2020-09-11T12:41:04Z</time>
</trkpt>
<trkpt lat="47.708271" lon="10.793199">
<ele>707.436</ele>
<time>2020-09-11T12:41:05Z</time>
</trkpt>
<trkpt lat="47.708187" lon="10.793223">
<ele>707.358</ele>
<time>2020-09-11T12:41:06Z</time>
</trkpt>
<trkpt lat="47.708111" lon="10.793247">
<ele>707.038</ele>
<time>2020-09-11T12:41:07Z</time>
</trkpt>
<trkpt lat="47.708027" lon="10.79327">
<ele>706.815</ele>
<time>2020-09-11T12:41:08Z</time>
</trkpt>
<trkpt lat="47.707951" lon="10.793295">
<ele>706.66</ele>
<time>2020-09-11T12:41:09Z</time>
</trkpt>
<trkpt lat="47.70787" lon="10.793319">
<ele>706.556</ele>
<time>2020-09-11T12:41:10Z</time>
</trkpt>
<trkpt lat="47.70779" lon="10.793342">
<ele>706.444</ele>
<time>2020-09-11T12:41:11Z</time>
</trkpt>
<trkpt lat="47.707718" lon="10.793364">
<ele>706.363</ele>
<time>2020-09-11T12:41:12Z</time>
</trkpt>
<trkpt lat="47.707638" lon="10.793384">
<ele>706.31</ele>
<time>2020-09-11T12:41:13Z</time>
</trkpt>
<trkpt lat="47.707561" lon="10.793403">
<ele>706.285</ele>
<time>2020-09-11T12:41:14Z</time>
</trkpt>
<trkpt lat="47.707493" lon="10.793424">
<ele>706.285</ele>
<time>2020-09-11T12:41:15Z</time>
</trkpt>
<trkpt lat="47.707417" lon="10.793445">
<ele>706.285</ele>
<time>2020-09-11T12:41:16Z</time>
</trkpt>
<trkpt lat="47.707344" lon="10.793469">
<ele>706.285</ele>
<time>2020-09-11T12:41:17Z</time>
</trkpt>
<trkpt lat="47.707272" lon="10.793495">
<ele>706.285</ele>
<time>2020-09-11T12:41:18Z</time>
</trkpt>
<trkpt lat="47.707203" lon="10.793516">
<ele>706.285</ele>
<time>2020-09-11T12:41:19Z</time>
</trkpt>
<trkpt lat="47.70713" lon="10.793538">
<ele>706.285</ele>
<time>2020-09-11T12:41:20Z</time>
</trkpt>
<trkpt lat="47.707058" lon="10.79356">
<ele>706.285</ele>
<time>2020-09-11T12:41:21Z</time>
</trkpt>
<trkpt lat="47.706985" lon="10.793581">
<ele>706.285</ele>
<time>2020-09-11T12:41:22Z</time>
</trkpt>
<trkpt lat="47.706917" lon="10.793604">
<ele>706.285</ele>
<time>2020-09-11T12:41:23Z</time>
</trkpt>
<trkpt lat="47.706848" lon="10.793625">
<ele>706.285</ele>
<time>2020-09-11T12:41:24Z</time>
</trkpt>
<trkpt lat="47.706779" lon="10.793648">
<ele>706.285</ele>
<time>2020-09-11T12:41:25Z</time>
</trkpt>
<trkpt lat="47.706711" lon="10.793669">
<ele>706.285</ele>
<time>2020-09-11T12:41:26Z</time>
</trkpt>
<trkpt lat="47.706642" lon="10.793692">
<ele>706.285</ele>
<time>2020-09-11T12:41:27Z</time>
</trkpt>
<trkpt lat="47.70657" lon="10.793713">
<ele>706.285</ele>
<time>2020-09-11T12:41:28Z</time>
</trkpt>
<trkpt lat="47.706501" lon="10.793736">
<ele>706.285</ele>
<time>2020-09-11T12:41:29Z</time>
</trkpt>
<trkpt lat="47.706432" lon="10.793756">
<ele>706.285</ele>
<time>2020-09-11T12:41:30Z</time>
</trkpt>
<trkpt lat="47.706364" lon="10.79378">
<ele>706.285</ele>
<time>2020-09-11T12:41:31Z</time>
</trkpt>
<trkpt lat="47.706291" lon="10.793801">
<ele>706.285</ele>
<time>2020-09-11T12:41:32Z</time>
</trkpt>
<trkpt lat="47.706226" lon="10.793823">
<ele>706.285</ele>
<time>2020-09-11T12:41:33Z</time>
</trkpt>
<trkpt lat="47.706158" lon="10.793845">
<ele>706.285</ele>
<time>2020-09-11T12:41:34Z</time>
</trkpt>
<trkpt lat="47.706089" lon="10.793865">
<ele>706.285</ele>
<time>2020-09-11T12:41:35Z</time>
</trkpt>
<trkpt lat="47.70602" lon="10.793882">
<ele>706.285</ele>
<time>2020-09-11T12:41:36Z</time>
</trkpt>
<trkpt lat="47.705952" lon="10.7939">
<ele>706.285</ele>
<time>2020-09-11T12:41:37Z</time>
</trkpt>
<trkpt lat="47.705879" lon="10.793921">
<ele>706.285</ele>
<time>2020-09-11T12:41:38Z</time>
</trkpt>
<trkpt lat="47.705811" lon="10.79394">
<ele>706.285</ele>
<time>2020-09-11T12:41:39Z</time>
</trkpt>
<trkpt lat="47.705738" lon="10.793956">
<ele>706.285</ele>
<time>2020-09-11T12:41:40Z</time>
</trkpt>
<trkpt lat="47.705669" lon="10.793968">
<ele>706.285</ele>
<time>2020-09-11T12:41:41Z</time>
</trkpt>
<trkpt lat="47.705597" lon="10.793981">
<ele>706.285</ele>
<time>2020-09-11T12:41:42Z</time>
</trkpt>
<trkpt lat="47.705524" lon="10.793989">
<ele>706.285</ele>
<time>2020-09-11T12:41:43Z</time>
</trkpt>
<trkpt lat="47.705456" lon="10.793991">
<ele>706.034</ele>
<time>2020-09-11T12:41:44Z</time>
</trkpt>
<trkpt lat="47.705387" lon="10.793991">
<ele>705.841</ele>
<time>2020-09-11T12:41:45Z</time>
</trkpt>
<trkpt lat="47.705315" lon="10.79399">
<ele>705.693</ele>
<time>2020-09-11T12:41:46Z</time>
</trkpt>
<trkpt lat="47.70525" lon="10.793985">
<ele>705.586</ele>
<time>2020-09-11T12:41:47Z</time>
</trkpt>
<trkpt lat="47.705185" lon="10.793979">
<ele>705.51</ele>
<time>2020-09-11T12:41:48Z</time>
</trkpt>
<trkpt lat="47.705116" lon="10.793973">
<ele>705.46</ele>
<time>2020-09-11T12:41:49Z</time>
</trkpt>
<trkpt lat="47.705051" lon="10.793966">
<ele>705.42</ele>
<time>2020-09-11T12:41:50Z</time>
</trkpt>
<trkpt lat="47.704987" lon="10.79396">
<ele>705.395</ele>
<time>2020-09-11T12:41:51Z</time>
</trkpt>
<trkpt lat="47.704922" lon="10.793954">
<ele>705.395</ele>
<time>2020-09-11T12:41:52Z</time>
</trkpt>
<trkpt lat="47.704861" lon="10.79395">
<ele>705.395</ele>
<time>2020-09-11T12:41:53Z</time>
</trkpt>
<trkpt lat="47.7048" lon="10.793948">
<ele>705.395</ele>
<time>2020-09-11T12:41:54Z</time>
</trkpt>
<trkpt lat="47.704739" lon="10.793947">
<ele>705.395</ele>
<time>2020-09-11T12:41:55Z</time>
</trkpt>
<trkpt lat="47.704681" lon="10.79395">
<ele>705.395</ele>
<time>2020-09-11T12:41:56Z</time>
</trkpt>
<trkpt lat="47.70462" lon="10.79396">
<ele>705.395</ele>
<time>2020-09-11T12:41:57Z</time>
</trkpt>
<trkpt lat="47.704559" lon="10.793981">
<ele>705.395</ele>
<time>2020-09-11T12:41:58Z</time>
</trkpt>
<trkpt lat="47.704498" lon="10.794008">
<ele>705.395</ele>
<time>2020-09-11T12:41:59Z</time>
</trkpt>
<trkpt lat="47.704437" lon="10.794045">
<ele>705.395</ele>
<time>2020-09-11T12:42:00Z</time>
</trkpt>
<trkpt lat="47.70438" lon="10.794088">
<ele>705.395</ele>
<time>2020-09-11T12:42:01Z</time>
</trkpt>
<trkpt lat="47.704323" lon="10.794138">
<ele>705.096</ele>
<time>2020-09-11T12:42:02Z</time>
</trkpt>
<trkpt lat="47.704269" lon="10.794195">
<ele>704.868</ele>
<time>2020-09-11T12:42:03Z</time>
</trkpt>
<trkpt lat="47.704216" lon="10.794253">
<ele>704.696</ele>
<time>2020-09-11T12:42:04Z</time>
</trkpt>
<trkpt lat="47.704159" lon="10.794312">
<ele>704.598</ele>
<time>2020-09-11T12:42:05Z</time>
</trkpt>
<trkpt lat="47.704102" lon="10.794365">
<ele>704.268</ele>
<time>2020-09-11T12:42:06Z</time>
</trkpt>
<trkpt lat="47.704037" lon="10.794413">
<ele>703.741</ele>
<time>2020-09-11T12:42:07Z</time>
</trkpt>
<trkpt lat="47.703968" lon="10.794448">
<ele>703.409</ele>
<time>2020-09-11T12:42:08Z</time>
</trkpt>
<trkpt lat="47.703888" lon="10.794467">
<ele>702.909</ele>
<time>2020-09-11T12:42:09Z</time>
</trkpt>
<trkpt lat="47.703808" lon="10.794477">
<ele>702.245</ele>
<time>2020-09-11T12:42:10Z</time>
</trkpt>
<trkpt lat="47.703716" lon="10.794486">
<ele>701.694</ele>
<time>2020-09-11T12:42:11Z</time>
</trkpt>
<trkpt lat="47.703629" lon="10.794494">
<ele>701.027</ele>
<time>2020-09-11T12:42:12Z</time>
</trkpt>
<trkpt lat="47.703537" lon="10.7945">
<ele>700.224</ele>
<time>2020-09-11T12:42:13Z</time>
</trkpt>
<trkpt lat="47.703445" lon="10.794509">
<ele>699.64</ele>
<time>2020-09-11T12:42:14Z</time>
</trkpt>
<trkpt lat="47.703358" lon="10.794525">
<ele>699.287</ele>
<time>2020-09-11T12:42:15Z</time>
</trkpt>
<trkpt lat="47.703266" lon="10.794545">
<ele>698.719</ele>
<time>2020-09-11T12:42:16Z</time>
</trkpt>
<trkpt lat="47.703178" lon="10.794574">
<ele>698.318</ele>
<time>2020-09-11T12:42:17Z</time>
</trkpt>
<trkpt lat="47.703094" lon="10.794603">
<ele>697.976</ele>
<time>2020-09-11T12:42:18Z</time>
</trkpt>
<trkpt lat="47.703007" lon="10.794639">
<ele>697.837</ele>
<time>2020-09-11T12:42:19Z</time>
</trkpt>
<trkpt lat="47.702927" lon="10.794673">
<ele>697.733</ele>
<time>2020-09-11T12:42:20Z</time>
</trkpt>
<trkpt lat="47.702847" lon="10.794708">
<ele>697.65</ele>
<time>2020-09-11T12:42:21Z</time>
</trkpt>
<trkpt lat="47.702766" lon="10.794737">
<ele>697.597</ele>
<time>2020-09-11T12:42:22Z</time>
</trkpt>
<trkpt lat="47.70269" lon="10.79475">
<ele>697.337</ele>
<time>2020-09-11T12:42:23Z</time>
</trkpt>
<trkpt lat="47.702606" lon="10.794765">
<ele>697.076</ele>
<time>2020-09-11T12:42:24Z</time>
</trkpt>
<trkpt lat="47.70253" lon="10.794777">
<ele>696.907</ele>
<time>2020-09-11T12:42:25Z</time>
</trkpt>
<trkpt lat="47.702446" lon="10.794788">
<ele>696.782</ele>
<time>2020-09-11T12:42:26Z</time>
</trkpt>
<trkpt lat="47.702362" lon="10.794798">
<ele>696.713</ele>
<time>2020-09-11T12:42:27Z</time>
</trkpt>
<trkpt lat="47.702282" lon="10.794805">
<ele>696.407</ele>
<time>2020-09-11T12:42:28Z</time>
</trkpt>
<trkpt lat="47.702198" lon="10.794808">
<ele>696.179</ele>
<time>2020-09-11T12:42:29Z</time>
</trkpt>
<trkpt lat="47.702118" lon="10.79481">
<ele>696.019</ele>
<time>2020-09-11T12:42:30Z</time>
</trkpt>
<trkpt lat="47.702038" lon="10.794813">
<ele>695.875</ele>
<time>2020-09-11T12:42:31Z</time>
</trkpt>
<trkpt lat="47.701958" lon="10.79482">
<ele>695.767</ele>
<time>2020-09-11T12:42:32Z</time>
</trkpt>
<trkpt lat="47.701889" lon="10.794831">
<ele>695.688</ele>
<time>2020-09-11T12:42:33Z</time>
</trkpt>
<trkpt lat="47.70182" lon="10.794847">
<ele>695.639</ele>
<time>2020-09-11T12:42:34Z</time>
</trkpt>
<trkpt lat="47.701756" lon="10.794865">
<ele>695.614</ele>
<time>2020-09-11T12:42:35Z</time>
</trkpt>
<trkpt lat="47.701694" lon="10.79489">
<ele>695.614</ele>
<time>2020-09-11T12:42:36Z</time>
</trkpt>
<trkpt lat="47.701633" lon="10.794918">
<ele>695.614</ele>
<time>2020-09-11T12:42:37Z</time>
</trkpt>
<trkpt lat="47.701584" lon="10.794951">
<ele>695.614</ele>
<time>2020-09-11T12:42:38Z</time>
</trkpt>
<trkpt lat="47.701534" lon="10.794987">
<ele>695.835</ele>
<time>2020-09-11T12:42:39Z</time>
</trkpt>
<trkpt lat="47.701492" lon="10.795025">
<ele>696.002</ele>
<time>2020-09-11T12:42:40Z</time>
</trkpt>
<trkpt lat="47.701447" lon="10.795065">
<ele>696.173</ele>
<time>2020-09-11T12:42:41Z</time>
</trkpt>
<trkpt lat="47.701401" lon="10.795102">
<ele>696.315</ele>
<time>2020-09-11T12:42:42Z</time>
</trkpt>
<trkpt lat="47.701366" lon="10.795139">
<ele>696.426</ele>
<time>2020-09-11T12:42:43Z</time>
</trkpt>
<trkpt lat="47.701324" lon="10.795179">
<ele>696.51</ele>
<time>2020-09-11T12:42:44Z</time>
</trkpt>
<trkpt lat="47.701286" lon="10.795218">
<ele>696.565</ele>
<time>2020-09-11T12:42:45Z</time>
</trkpt>
<trkpt lat="47.701244" lon="10.795255">
<ele>696.591</ele>
<time>2020-09-11T12:42:46Z</time>
</trkpt>
<trkpt lat="47.701206" lon="10.79529">
<ele>696.591</ele>
<time>2020-09-11T12:42:47Z</time>
</trkpt>
<trkpt lat="47.701168" lon="10.795323">
<ele>696.354</ele>
<time>2020-09-11T12:42:48Z</time>
</trkpt>
<trkpt lat="47.701134" lon="10.795355">
<ele>696.165</ele>
<time>2020-09-11T12:42:49Z</time>
</trkpt>
<trkpt lat="47.701099" lon="10.795384">
<ele>696.028</ele>
<time>2020-09-11T12:42:50Z</time>
</trkpt>
<trkpt lat="47.701065" lon="10.795414">
<ele>695.886</ele>
<time>2020-09-11T12:42:51Z</time>
</trkpt>
<trkpt lat="47.701035" lon="10.795439">
<ele>695.776</ele>
<time>2020-09-11T12:42:52Z</time>
</trkpt>
<trkpt lat="47.701004" lon="10.79546">
<ele>695.694</ele>
<time>2020-09-11T12:42:53Z</time>
</trkpt>
<trkpt lat="47.70097" lon="10.795481">
<ele>695.641</ele>
<time>2020-09-11T12:42:54Z</time>
</trkpt>
<trkpt lat="47.700939" lon="10.795498">
<ele>695.614</ele>
<time>2020-09-11T12:42:55Z</time>
</trkpt>
<trkpt lat="47.700909" lon="10.795515">
<ele>695.614</ele>
<time>2020-09-11T12:42:56Z</time>
</trkpt>
<trkpt lat="47.700878" lon="10.795531">
<ele>695.614</ele>
<time>2020-09-11T12:42:57Z</time>
</trkpt>
<trkpt lat="47.700848" lon="10.795548">
<ele>695.614</ele>
<time>2020-09-11T12:42:58Z</time>
</trkpt>
<trkpt lat="47.700817" lon="10.795567">
<ele>695.614</ele>
<time>2020-09-11T12:42:59Z</time>
</trkpt>
<trkpt lat="47.70079" lon="10.795584">
<ele>695.614</ele>
<time>2020-09-11T12:43:00Z</time>
</trkpt>
<trkpt lat="47.70076" lon="10.7956">
<ele>695.614</ele>
<time>2020-09-11T12:43:01Z</time>
</trkpt>
<trkpt lat="47.700733" lon="10.795613">
<ele>695.614</ele>
<time>2020-09-11T12:43:02Z</time>
</trkpt>
<trkpt lat="47.700703" lon="10.795631">
<ele>695.614</ele>
<time>2020-09-11T12:43:03Z</time>
</trkpt>
<trkpt lat="47.700676" lon="10.795643">
<ele>695.614</ele>
<time>2020-09-11T12:43:04Z</time>
</trkpt>
<trkpt lat="47.700649" lon="10.795657">
<ele>695.614</ele>
<time>2020-09-11T12:43:05Z</time>
</trkpt>
<trkpt lat="47.700619" lon="10.795671">
<ele>695.614</ele>
<time>2020-09-11T12:43:06Z</time>
</trkpt>
<trkpt lat="47.700592" lon="10.795691">
<ele>695.614</ele>
<time>2020-09-11T12:43:07Z</time>
</trkpt>
<trkpt lat="47.700562" lon="10.795707">
<ele>695.614</ele>
<time>2020-09-11T12:43:08Z</time>
</trkpt>
<trkpt lat="47.700531" lon="10.795718">
<ele>695.614</ele>
<time>2020-09-11T12:43:09Z</time>
</trkpt>
<trkpt lat="47.700504" lon="10.795736">
<ele>695.614</ele>
<time>2020-09-11T12:43:10Z</time>
</trkpt>
<trkpt lat="47.700474" lon="10.795752">
<ele>695.614</ele>
<time>2020-09-11T12:43:11Z</time>
</trkpt>
<trkpt lat="47.700447" lon="10.795764">
<ele>695.614</ele>
<time>2020-09-11T12:43:12Z</time>
</trkpt>
<trkpt lat="47.700417" lon="10.795774">
<ele>695.614</ele>
<time>2020-09-11T12:43:13Z</time>
</trkpt>
<trkpt lat="47.700382" lon="10.795785">
<ele>695.614</ele>
<time>2020-09-11T12:43:14Z</time>
</trkpt>
<trkpt lat="47.700352" lon="10.795798">
<ele>695.614</ele>
<time>2020-09-11T12:43:15Z</time>
</trkpt>
<trkpt lat="47.700321" lon="10.795815">
<ele>695.614</ele>
<time>2020-09-11T12:43:16Z</time>
</trkpt>
<trkpt lat="47.700287" lon="10.795829">
<ele>695.614</ele>
<time>2020-09-11T12:43:17Z</time>
</trkpt>
<trkpt lat="47.700256" lon="10.795838">
<ele>695.614</ele>
<time>2020-09-11T12:43:18Z</time>
</trkpt>
<trkpt lat="47.700226" lon="10.79585">
<ele>695.614</ele>
<time>2020-09-11T12:43:19Z</time>
</trkpt>
<trkpt lat="47.700191" lon="10.795862">
<ele>695.614</ele>
<time>2020-09-11T12:43:20Z</time>
</trkpt>
<trkpt lat="47.700161" lon="10.795875">
<ele>695.614</ele>
<time>2020-09-11T12:43:21Z</time>
</trkpt>
<trkpt lat="47.700127" lon="10.79589">
<ele>695.614</ele>
<time>2020-09-11T12:43:22Z</time>
</trkpt>
<trkpt lat="47.700096" lon="10.795904">
<ele>695.614</ele>
<time>2020-09-11T12:43:23Z</time>
</trkpt>
<trkpt lat="47.700069" lon="10.795904">
<ele>695.614</ele>
<time>2020-09-11T12:43:24Z</time>
</trkpt>
<trkpt lat="47.700054" lon="10.795898">
<ele>695.614</ele>
<time>2020-09-11T12:43:25Z</time>
</trkpt>
<trkpt lat="47.700043" lon="10.795894">
<ele>695.614</ele>
<time>2020-09-11T12:43:26Z</time>
</trkpt>
<trkpt lat="47.700043" lon="10.795897">
<ele>695.614</ele>
<time>2020-09-11T12:43:28Z</time>
</trkpt>
<trkpt lat="47.700047" lon="10.795887">
<ele>695.614</ele>
<time>2020-09-11T12:43:34Z</time>
</trkpt>
<trkpt lat="47.700047" lon="10.795883">
<ele>695.614</ele>
<time>2020-09-11T12:43:35Z</time>
</trkpt>
<trkpt lat="47.700047" lon="10.795887">
<ele>695.614</ele>
<time>2020-09-11T12:43:37Z</time>
</trkpt>
<trkpt lat="47.70005" lon="10.795888">
<ele>695.614</ele>
<time>2020-09-11T12:43:38Z</time>
</trkpt>
<trkpt lat="47.700058" lon="10.795906">
<ele>695.614</ele>
<time>2020-09-11T12:43:39Z</time>
</trkpt>
<trkpt lat="47.700073" lon="10.795921">
<ele>695.614</ele>
<time>2020-09-11T12:43:40Z</time>
</trkpt>
<trkpt lat="47.700089" lon="10.795915">
<ele>695.614</ele>
<time>2020-09-11T12:43:41Z</time>
</trkpt>
<trkpt lat="47.700115" lon="10.795902">
<ele>695.614</ele>
<time>2020-09-11T12:43:42Z</time>
</trkpt>
<trkpt lat="47.700146" lon="10.795887">
<ele>695.614</ele>
<time>2020-09-11T12:43:43Z</time>
</trkpt>
<trkpt lat="47.70018" lon="10.795875">
<ele>695.614</ele>
<time>2020-09-11T12:43:44Z</time>
</trkpt>
<trkpt lat="47.700211" lon="10.795875">
<ele>695.614</ele>
<time>2020-09-11T12:43:45Z</time>
</trkpt>
<trkpt lat="47.700245" lon="10.795892">
<ele>695.614</ele>
<time>2020-09-11T12:43:46Z</time>
</trkpt>
<trkpt lat="47.700294" lon="10.7959">
<ele>695.614</ele>
<time>2020-09-11T12:43:47Z</time>
</trkpt>
<trkpt lat="47.700348" lon="10.795897">
<ele>695.614</ele>
<time>2020-09-11T12:43:48Z</time>
</trkpt>
<trkpt lat="47.700405" lon="10.795877">
<ele>695.614</ele>
<time>2020-09-11T12:43:49Z</time>
</trkpt>
<trkpt lat="47.700466" lon="10.795841">
<ele>695.614</ele>
<time>2020-09-11T12:43:50Z</time>
</trkpt>
<trkpt lat="47.700531" lon="10.795806">
<ele>695.614</ele>
<time>2020-09-11T12:43:51Z</time>
</trkpt>
<trkpt lat="47.700596" lon="10.795774">
<ele>695.614</ele>
<time>2020-09-11T12:43:52Z</time>
</trkpt>
<trkpt lat="47.700661" lon="10.795741">
<ele>695.614</ele>
<time>2020-09-11T12:43:53Z</time>
</trkpt>
<trkpt lat="47.700722" lon="10.795709">
<ele>695.614</ele>
<time>2020-09-11T12:43:54Z</time>
</trkpt>
<trkpt lat="47.700783" lon="10.795673">
<ele>695.614</ele>
<time>2020-09-11T12:43:55Z</time>
</trkpt>
<trkpt lat="47.700848" lon="10.795636">
<ele>695.614</ele>
<time>2020-09-11T12:43:56Z</time>
</trkpt>
<trkpt lat="47.700905" lon="10.795602">
<ele>695.614</ele>
<time>2020-09-11T12:43:57Z</time>
</trkpt>
<trkpt lat="47.700958" lon="10.795565">
<ele>695.614</ele>
<time>2020-09-11T12:43:58Z</time>
</trkpt>
<trkpt lat="47.701015" lon="10.795528">
<ele>695.614</ele>
<time>2020-09-11T12:43:59Z</time>
</trkpt>
<trkpt lat="47.701069" lon="10.795487">
<ele>695.614</ele>
<time>2020-09-11T12:44:00Z</time>
</trkpt>
<trkpt lat="47.701122" lon="10.795447">
<ele>695.614</ele>
<time>2020-09-11T12:44:01Z</time>
</trkpt>
<trkpt lat="47.701172" lon="10.795405">
<ele>695.614</ele>
<time>2020-09-11T12:44:02Z</time>
</trkpt>
<trkpt lat="47.701225" lon="10.795362">
<ele>695.614</ele>
<time>2020-09-11T12:44:03Z</time>
</trkpt>
<trkpt lat="47.701271" lon="10.795318">
<ele>695.614</ele>
<time>2020-09-11T12:44:04Z</time>
</trkpt>
<trkpt lat="47.701313" lon="10.795274">
<ele>695.614</ele>
<time>2020-09-11T12:44:05Z</time>
</trkpt>
<trkpt lat="47.701355" lon="10.795228">
<ele>695.614</ele>
<time>2020-09-11T12:44:06Z</time>
</trkpt>
<trkpt lat="47.701389" lon="10.795179">
<ele>695.614</ele>
<time>2020-09-11T12:44:07Z</time>
</trkpt>
<trkpt lat="47.701412" lon="10.79513">
<ele>695.614</ele>
<time>2020-09-11T12:44:08Z</time>
</trkpt>
<trkpt lat="47.701431" lon="10.795087">
<ele>695.614</ele>
<time>2020-09-11T12:44:09Z</time>
</trkpt>
<trkpt lat="47.701454" lon="10.795052">
<ele>695.614</ele>
<time>2020-09-11T12:44:10Z</time>
</trkpt>
<trkpt lat="47.701477" lon="10.795022">
<ele>695.614</ele>
<time>2020-09-11T12:44:11Z</time>
</trkpt>
<trkpt lat="47.7015" lon="10.794997">
<ele>695.614</ele>
<time>2020-09-11T12:44:12Z</time>
</trkpt>
<trkpt lat="47.701527" lon="10.794978">
<ele>695.614</ele>
<time>2020-09-11T12:44:13Z</time>
</trkpt>
<trkpt lat="47.701542" lon="10.794955">
<ele>695.614</ele>
<time>2020-09-11T12:44:14Z</time>
</trkpt>
<trkpt lat="47.701553" lon="10.794922">
<ele>695.614</ele>
<time>2020-09-11T12:44:15Z</time>
</trkpt>
<trkpt lat="47.701553" lon="10.794887">
<ele>695.614</ele>
<time>2020-09-11T12:44:16Z</time>
</trkpt>
<trkpt lat="47.70155" lon="10.794861">
<ele>695.614</ele>
<time>2020-09-11T12:44:17Z</time>
</trkpt>
<trkpt lat="47.701542" lon="10.79485">
<ele>695.614</ele>
<time>2020-09-11T12:44:18Z</time>
</trkpt>
<trkpt lat="47.701538" lon="10.794842">
<ele>695.614</ele>
<time>2020-09-11T12:44:19Z</time>
</trkpt>
<trkpt lat="47.701534" lon="10.794838">
<ele>695.614</ele>
<time>2020-09-11T12:44:20Z</time>
</trkpt>
<trkpt lat="47.701534" lon="10.794835">
<ele>695.614</ele>
<time>2020-09-11T12:44:21Z</time>
</trkpt>
<trkpt lat="47.701534" lon="10.794828">
<ele>695.614</ele>
<time>2020-09-11T12:44:27Z</time>
</trkpt>
<trkpt lat="47.701534" lon="10.794831">
<ele>695.614</ele>
<time>2020-09-11T12:44:28Z</time>
</trkpt>
<trkpt lat="47.70153" lon="10.794829">
<ele>695.614</ele>
<time>2020-09-11T12:44:29Z</time>
</trkpt>
<trkpt lat="47.701527" lon="10.794855">
<ele>695.614</ele>
<time>2020-09-11T12:45:50Z</time>
</trkpt>
<trkpt lat="47.701527" lon="10.794868">
<ele>695.614</ele>
<time>2020-09-11T12:45:51Z</time>
</trkpt>
<trkpt lat="47.70153" lon="10.794882">
<ele>695.614</ele>
<time>2020-09-11T12:45:52Z</time>
</trkpt>
<trkpt lat="47.70153" lon="10.794884">
<ele>695.614</ele>
<time>2020-09-11T12:45:53Z</time>
</trkpt>
<trkpt lat="47.70153" lon="10.79489">
<ele>695.614</ele>
<time>2020-09-11T12:45:54Z</time>
</trkpt>
<trkpt lat="47.70153" lon="10.794892">
<ele>695.614</ele>
<time>2020-09-11T12:45:55Z</time>
</trkpt>
<trkpt lat="47.70153" lon="10.794896">
<ele>695.614</ele>
<time>2020-09-11T12:45:56Z</time>
</trkpt>
<trkpt lat="47.701534" lon="10.794898">
<ele>695.614</ele>
<time>2020-09-11T12:45:57Z</time>
</trkpt>
<trkpt lat="47.701515" lon="10.794924">
<ele>695.614</ele>
<time>2020-09-11T12:53:52Z</time>
</trkpt>
<trkpt lat="47.701515" lon="10.794915">
<ele>695.614</ele>
<time>2020-09-11T12:53:53Z</time>
</trkpt>
<trkpt lat="47.701515" lon="10.794909">
<ele>695.614</ele>
<time>2020-09-11T12:53:54Z</time>
</trkpt>
<trkpt lat="47.701519" lon="10.794902">
<ele>695.614</ele>
<time>2020-09-11T12:53:55Z</time>
</trkpt>
<trkpt lat="47.701519" lon="10.794895">
<ele>695.614</ele>
<time>2020-09-11T12:53:56Z</time>
</trkpt>
<trkpt lat="47.701515" lon="10.794887">
<ele>695.614</ele>
<time>2020-09-11T12:53:57Z</time>
</trkpt>
<trkpt lat="47.701515" lon="10.794878">
<ele>695.614</ele>
<time>2020-09-11T12:53:58Z</time>
</trkpt>
<trkpt lat="47.701515" lon="10.794869">
<ele>695.614</ele>
<time>2020-09-11T12:53:59Z</time>
</trkpt>
<trkpt lat="47.701515" lon="10.794861">
<ele>695.614</ele>
<time>2020-09-11T12:54:00Z</time>
</trkpt>
<trkpt lat="47.701515" lon="10.794852">
<ele>695.614</ele>
<time>2020-09-11T12:54:01Z</time>
</trkpt>
<trkpt lat="47.701511" lon="10.794845">
<ele>695.614</ele>
<time>2020-09-11T12:54:02Z</time>
</trkpt>
<trkpt lat="47.701511" lon="10.79484">
<ele>695.614</ele>
<time>2020-09-11T12:54:03Z</time>
</trkpt>
<trkpt lat="47.701511" lon="10.794847">
<ele>695.614</ele>
<time>2020-09-11T12:55:45Z</time>
</trkpt>
<trkpt lat="47.701511" lon="10.794855">
<ele>695.614</ele>
<time>2020-09-11T12:55:46Z</time>
</trkpt>
<trkpt lat="47.701511" lon="10.794863">
<ele>695.614</ele>
<time>2020-09-11T12:55:47Z</time>
</trkpt>
<trkpt lat="47.701515" lon="10.794873">
<ele>695.614</ele>
<time>2020-09-11T12:55:48Z</time>
</trkpt>
<trkpt lat="47.701515" lon="10.794882">
<ele>695.614</ele>
<time>2020-09-11T12:55:49Z</time>
</trkpt>
<trkpt lat="47.701511" lon="10.79489">
<ele>695.614</ele>
<time>2020-09-11T12:55:50Z</time>
</trkpt>
<trkpt lat="47.701508" lon="10.794895">
<ele>695.614</ele>
<time>2020-09-11T12:55:51Z</time>
</trkpt>
<trkpt lat="47.701504" lon="10.794898">
<ele>695.614</ele>
<time>2020-09-11T12:55:52Z</time>
</trkpt>
<trkpt lat="47.7015" lon="10.794903">
<ele>695.614</ele>
<time>2020-09-11T12:55:53Z</time>
</trkpt>
<trkpt lat="47.7015" lon="10.794911">
<ele>695.614</ele>
<time>2020-09-11T12:55:54Z</time>
</trkpt>
<trkpt lat="47.701496" lon="10.794918">
<ele>695.614</ele>
<time>2020-09-11T12:55:55Z</time>
</trkpt>
<trkpt lat="47.701496" lon="10.794926">
<ele>695.614</ele>
<time>2020-09-11T12:55:56Z</time>
</trkpt>
<trkpt lat="47.701492" lon="10.794929">
<ele>695.614</ele>
<time>2020-09-11T12:55:57Z</time>
</trkpt>
<trkpt lat="47.701492" lon="10.79493">
<ele>695.614</ele>
<time>2020-09-11T12:55:58Z</time>
</trkpt>
<trkpt lat="47.701492" lon="10.794949">
<ele>695.614</ele>
<time>2020-09-11T12:56:25Z</time>
</trkpt>
<trkpt lat="47.701492" lon="10.794953">
<ele>695.614</ele>
<time>2020-09-11T12:56:26Z</time>
</trkpt>
<trkpt lat="47.701488" lon="10.794959">
<ele>695.614</ele>
<time>2020-09-11T12:56:27Z</time>
</trkpt>
<trkpt lat="47.701488" lon="10.79496">
<ele>695.614</ele>
<time>2020-09-11T12:56:28Z</time>
</trkpt>
<trkpt lat="47.701485" lon="10.794978">
<ele>695.614</ele>
<time>2020-09-11T12:56:49Z</time>
</trkpt>
<trkpt lat="47.701481" lon="10.794997">
<ele>695.614</ele>
<time>2020-09-11T12:56:50Z</time>
</trkpt>
<trkpt lat="47.701469" lon="10.795015">
<ele>695.614</ele>
<time>2020-09-11T12:56:51Z</time>
</trkpt>
<trkpt lat="47.701466" lon="10.79504">
<ele>695.614</ele>
<time>2020-09-11T12:56:52Z</time>
</trkpt>
<trkpt lat="47.70145" lon="10.795065">
<ele>695.614</ele>
<time>2020-09-11T12:56:53Z</time>
</trkpt>
<trkpt lat="47.701435" lon="10.795094">
<ele>695.614</ele>
<time>2020-09-11T12:56:54Z</time>
</trkpt>
<trkpt lat="47.701416" lon="10.795123">
<ele>695.614</ele>
<time>2020-09-11T12:56:55Z</time>
</trkpt>
<trkpt lat="47.701389" lon="10.795152">
<ele>695.614</ele>
<time>2020-09-11T12:56:56Z</time>
</trkpt>
<trkpt lat="47.701359" lon="10.795188">
<ele>695.614</ele>
<time>2020-09-11T12:56:57Z</time>
</trkpt>
<trkpt lat="47.701324" lon="10.795217">
<ele>695.614</ele>
<time>2020-09-11T12:56:58Z</time>
</trkpt>
<trkpt lat="47.701294" lon="10.79525">
<ele>695.614</ele>
<time>2020-09-11T12:56:59Z</time>
</trkpt>
<trkpt lat="47.70126" lon="10.795283">
<ele>695.614</ele>
<time>2020-09-11T12:57:00Z</time>
</trkpt>
<trkpt lat="47.701225" lon="10.795317">
<ele>695.614</ele>
<time>2020-09-11T12:57:01Z</time>
</trkpt>
<trkpt lat="47.701187" lon="10.79535">
<ele>695.614</ele>
<time>2020-09-11T12:57:02Z</time>
</trkpt>
<trkpt lat="47.701145" lon="10.795381">
<ele>695.614</ele>
<time>2020-09-11T12:57:03Z</time>
</trkpt>
<trkpt lat="47.701107" lon="10.79541">
<ele>695.614</ele>
<time>2020-09-11T12:57:04Z</time>
</trkpt>
<trkpt lat="47.701061" lon="10.79544">
<ele>695.614</ele>
<time>2020-09-11T12:57:05Z</time>
</trkpt>
<trkpt lat="47.701015" lon="10.795466">
<ele>695.614</ele>
<time>2020-09-11T12:57:06Z</time>
</trkpt>
<trkpt lat="47.700977" lon="10.795493">
<ele>695.614</ele>
<time>2020-09-11T12:57:07Z</time>
</trkpt>
<trkpt lat="47.700932" lon="10.795521">
<ele>695.614</ele>
<time>2020-09-11T12:57:08Z</time>
</trkpt>
<trkpt lat="47.700886" lon="10.795547">
<ele>695.614</ele>
<time>2020-09-11T12:57:09Z</time>
</trkpt>
<trkpt lat="47.700844" lon="10.795571">
<ele>695.614</ele>
<time>2020-09-11T12:57:10Z</time>
</trkpt>
<trkpt lat="47.700794" lon="10.795594">
<ele>695.614</ele>
<time>2020-09-11T12:57:11Z</time>
</trkpt>
<trkpt lat="47.700748" lon="10.795617">
<ele>695.614</ele>
<time>2020-09-11T12:57:12Z</time>
</trkpt>
<trkpt lat="47.700699" lon="10.795636">
<ele>695.614</ele>
<time>2020-09-11T12:57:13Z</time>
</trkpt>
<trkpt lat="47.700653" lon="10.795659">
<ele>695.614</ele>
<time>2020-09-11T12:57:14Z</time>
</trkpt>
<trkpt lat="47.7006" lon="10.79568">
<ele>695.614</ele>
<time>2020-09-11T12:57:15Z</time>
</trkpt>
<trkpt lat="47.700554" lon="10.7957">
<ele>695.614</ele>
<time>2020-09-11T12:57:16Z</time>
</trkpt>
<trkpt lat="47.700504" lon="10.79572">
<ele>695.614</ele>
<time>2020-09-11T12:57:17Z</time>
</trkpt>
<trkpt lat="47.700455" lon="10.795741">
<ele>695.614</ele>
<time>2020-09-11T12:57:18Z</time>
</trkpt>
<trkpt lat="47.700409" lon="10.795764">
<ele>695.614</ele>
<time>2020-09-11T12:57:19Z</time>
</trkpt>
<trkpt lat="47.700363" lon="10.795783">
<ele>695.614</ele>
<time>2020-09-11T12:57:20Z</time>
</trkpt>
<trkpt lat="47.700314" lon="10.795801">
<ele>695.614</ele>
<time>2020-09-11T12:57:21Z</time>
</trkpt>
<trkpt lat="47.700264" lon="10.79582">
<ele>695.614</ele>
<time>2020-09-11T12:57:22Z</time>
</trkpt>
<trkpt lat="47.700218" lon="10.795838">
<ele>695.614</ele>
<time>2020-09-11T12:57:23Z</time>
</trkpt>
<trkpt lat="47.700172" lon="10.795858">
<ele>695.614</ele>
<time>2020-09-11T12:57:24Z</time>
</trkpt>
<trkpt lat="47.700127" lon="10.795878">
<ele>695.614</ele>
<time>2020-09-11T12:57:25Z</time>
</trkpt>
<trkpt lat="47.700077" lon="10.795897">
<ele>695.614</ele>
<time>2020-09-11T12:57:26Z</time>
</trkpt>
<trkpt lat="47.700031" lon="10.795913">
<ele>695.614</ele>
<time>2020-09-11T12:57:27Z</time>
</trkpt>
<trkpt lat="47.699982" lon="10.795934">
<ele>695.614</ele>
<time>2020-09-11T12:57:28Z</time>
</trkpt>
<trkpt lat="47.699936" lon="10.795955">
<ele>695.614</ele>
<time>2020-09-11T12:57:29Z</time>
</trkpt>
<trkpt lat="47.69989" lon="10.795977">
<ele>695.614</ele>
<time>2020-09-11T12:57:30Z</time>
</trkpt>
<trkpt lat="47.699837" lon="10.796">
<ele>695.614</ele>
<time>2020-09-11T12:57:31Z</time>
</trkpt>
<trkpt lat="47.699791" lon="10.79602">
<ele>695.614</ele>
<time>2020-09-11T12:57:32Z</time>
</trkpt>
<trkpt lat="47.699738" lon="10.796041">
<ele>695.614</ele>
<time>2020-09-11T12:57:33Z</time>
</trkpt>
<trkpt lat="47.699692" lon="10.796059">
<ele>695.614</ele>
<time>2020-09-11T12:57:34Z</time>
</trkpt>
<trkpt lat="47.699642" lon="10.796077">
<ele>695.614</ele>
<time>2020-09-11T12:57:35Z</time>
</trkpt>
<trkpt lat="47.699589" lon="10.796099">
<ele>695.614</ele>
<time>2020-09-11T12:57:36Z</time>
</trkpt>
<trkpt lat="47.699539" lon="10.796122">
<ele>695.614</ele>
<time>2020-09-11T12:57:37Z</time>
</trkpt>
<trkpt lat="47.699486" lon="10.796147">
<ele>695.614</ele>
<time>2020-09-11T12:57:38Z</time>
</trkpt>
<trkpt lat="47.69944" lon="10.796175">
<ele>695.614</ele>
<time>2020-09-11T12:57:39Z</time>
</trkpt>
<trkpt lat="47.69939" lon="10.796206">
<ele>695.614</ele>
<time>2020-09-11T12:57:40Z</time>
</trkpt>
<trkpt lat="47.699345" lon="10.796227">
<ele>695.614</ele>
<time>2020-09-11T12:57:41Z</time>
</trkpt>
<trkpt lat="47.699295" lon="10.796252">
<ele>695.614</ele>
<time>2020-09-11T12:57:42Z</time>
</trkpt>
<trkpt lat="47.699249" lon="10.796279">
<ele>695.614</ele>
<time>2020-09-11T12:57:43Z</time>
</trkpt>
<trkpt lat="47.6992" lon="10.796307">
<ele>695.614</ele>
<time>2020-09-11T12:57:44Z</time>
</trkpt>
<trkpt lat="47.699154" lon="10.796335">
<ele>695.614</ele>
<time>2020-09-11T12:57:45Z</time>
</trkpt>
<trkpt lat="47.699112" lon="10.796365">
<ele>695.614</ele>
<time>2020-09-11T12:57:46Z</time>
</trkpt>
<trkpt lat="47.699062" lon="10.796393">
<ele>695.614</ele>
<time>2020-09-11T12:57:47Z</time>
</trkpt>
<trkpt lat="47.699017" lon="10.796424">
<ele>695.614</ele>
<time>2020-09-11T12:57:48Z</time>
</trkpt>
<trkpt lat="47.698967" lon="10.796453">
<ele>695.614</ele>
<time>2020-09-11T12:57:49Z</time>
</trkpt>
<trkpt lat="47.698925" lon="10.796485">
<ele>695.614</ele>
<time>2020-09-11T12:57:50Z</time>
</trkpt>
<trkpt lat="47.698875" lon="10.796514">
<ele>695.614</ele>
<time>2020-09-11T12:57:51Z</time>
</trkpt>
<trkpt lat="47.698826" lon="10.796541">
<ele>695.832</ele>
<time>2020-09-11T12:57:52Z</time>
</trkpt>
<trkpt lat="47.698784" lon="10.796572">
<ele>696.039</ele>
<time>2020-09-11T12:57:53Z</time>
</trkpt>
<trkpt lat="47.698734" lon="10.7966">
<ele>696.207</ele>
<time>2020-09-11T12:57:54Z</time>
</trkpt>
<trkpt lat="47.698692" lon="10.79663">
<ele>696.34</ele>
<time>2020-09-11T12:57:55Z</time>
</trkpt>
<trkpt lat="47.69865" lon="10.79666">
<ele>696.443</ele>
<time>2020-09-11T12:57:56Z</time>
</trkpt>
<trkpt lat="47.698601" lon="10.796688">
<ele>696.518</ele>
<time>2020-09-11T12:57:57Z</time>
</trkpt>
<trkpt lat="47.698563" lon="10.796717">
<ele>696.568</ele>
<time>2020-09-11T12:57:58Z</time>
</trkpt>
<trkpt lat="47.698517" lon="10.796744">
<ele>696.591</ele>
<time>2020-09-11T12:57:59Z</time>
</trkpt>
<trkpt lat="47.698471" lon="10.796774">
<ele>696.591</ele>
<time>2020-09-11T12:58:00Z</time>
</trkpt>
<trkpt lat="47.698425" lon="10.796802">
<ele>696.591</ele>
<time>2020-09-11T12:58:01Z</time>
</trkpt>
<trkpt lat="47.698376" lon="10.796832">
<ele>696.591</ele>
<time>2020-09-11T12:58:02Z</time>
</trkpt>
<trkpt lat="47.69833" lon="10.796862">
<ele>696.591</ele>
<time>2020-09-11T12:58:03Z</time>
</trkpt>
<trkpt lat="47.69828" lon="10.796895">
<ele>696.592</ele>
<time>2020-09-11T12:58:04Z</time>
</trkpt>
<trkpt lat="47.698235" lon="10.796928">
<ele>696.592</ele>
<time>2020-09-11T12:58:05Z</time>
</trkpt>
<trkpt lat="47.698181" lon="10.79696">
<ele>696.591</ele>
<time>2020-09-11T12:58:06Z</time>
</trkpt>
<trkpt lat="47.698135" lon="10.796991">
<ele>696.591</ele>
<time>2020-09-11T12:58:07Z</time>
</trkpt>
<trkpt lat="47.698082" lon="10.797021">
<ele>696.592</ele>
<time>2020-09-11T12:58:08Z</time>
</trkpt>
<trkpt lat="47.698032" lon="10.79705">
<ele>696.592</ele>
<time>2020-09-11T12:58:09Z</time>
</trkpt>
<trkpt lat="47.697983" lon="10.797075">
<ele>696.591</ele>
<time>2020-09-11T12:58:10Z</time>
</trkpt>
<trkpt lat="47.697929" lon="10.797096">
<ele>696.592</ele>
<time>2020-09-11T12:58:11Z</time>
</trkpt>
<trkpt lat="47.697876" lon="10.797118">
<ele>696.592</ele>
<time>2020-09-11T12:58:12Z</time>
</trkpt>
<trkpt lat="47.697819" lon="10.79713">
<ele>696.591</ele>
<time>2020-09-11T12:58:13Z</time>
</trkpt>
<trkpt lat="47.697765" lon="10.797133">
<ele>696.592</ele>
<time>2020-09-11T12:58:14Z</time>
</trkpt>
<trkpt lat="47.697716" lon="10.797132">
<ele>696.591</ele>
<time>2020-09-11T12:58:15Z</time>
</trkpt>
<trkpt lat="47.697659" lon="10.797128">
<ele>696.591</ele>
<time>2020-09-11T12:58:16Z</time>
</trkpt>
<trkpt lat="47.697601" lon="10.79712">
<ele>696.592</ele>
<time>2020-09-11T12:58:17Z</time>
</trkpt>
<trkpt lat="47.697548" lon="10.797109">
<ele>696.592</ele>
<time>2020-09-11T12:58:18Z</time>
</trkpt>
<trkpt lat="47.697491" lon="10.797091">
<ele>696.592</ele>
<time>2020-09-11T12:58:19Z</time>
</trkpt>
<trkpt lat="47.697437" lon="10.797075">
<ele>696.591</ele>
<time>2020-09-11T12:58:20Z</time>
</trkpt>
<trkpt lat="47.697388" lon="10.797053">
<ele>696.591</ele>
<time>2020-09-11T12:58:21Z</time>
</trkpt>
<trkpt lat="47.69733" lon="10.797027">
<ele>696.592</ele>
<time>2020-09-11T12:58:22Z</time>
</trkpt>
<trkpt lat="47.697281" lon="10.796996">
<ele>696.591</ele>
<time>2020-09-11T12:58:23Z</time>
</trkpt>
<trkpt lat="47.697227" lon="10.796965">
<ele>696.592</ele>
<time>2020-09-11T12:58:24Z</time>
</trkpt>
<trkpt lat="47.697182" lon="10.796933">
<ele>696.591</ele>
<time>2020-09-11T12:58:25Z</time>
</trkpt>
<trkpt lat="47.697144" lon="10.796904">
<ele>696.592</ele>
<time>2020-09-11T12:58:26Z</time>
</trkpt>
<trkpt lat="47.697113" lon="10.796875">
<ele>696.591</ele>
<time>2020-09-11T12:58:27Z</time>
</trkpt>
<trkpt lat="47.697086" lon="10.796851">
<ele>696.592</ele>
<time>2020-09-11T12:58:28Z</time>
</trkpt>
<trkpt lat="47.697067" lon="10.796833">
<ele>696.833</ele>
<time>2020-09-11T12:58:29Z</time>
</trkpt>
<trkpt lat="47.697048" lon="10.796815">
<ele>697.027</ele>
<time>2020-09-11T12:58:30Z</time>
</trkpt>
<trkpt lat="47.697029" lon="10.796795">
<ele>697.181</ele>
<time>2020-09-11T12:58:31Z</time>
</trkpt>
<trkpt lat="47.697006" lon="10.796782">
<ele>697.305</ele>
<time>2020-09-11T12:58:32Z</time>
</trkpt>
<trkpt lat="47.696987" lon="10.796768">
<ele>697.638</ele>
<time>2020-09-11T12:58:33Z</time>
</trkpt>
<trkpt lat="47.696972" lon="10.796759">
<ele>697.937</ele>
<time>2020-09-11T12:58:34Z</time>
</trkpt>
<trkpt lat="47.69696" lon="10.796748">
<ele>698.176</ele>
<time>2020-09-11T12:58:35Z</time>
</trkpt>
<trkpt lat="47.696953" lon="10.796743">
<ele>698.362</ele>
<time>2020-09-11T12:58:36Z</time>
</trkpt>
<trkpt lat="47.696945" lon="10.796739">
<ele>698.474</ele>
<time>2020-09-11T12:58:37Z</time>
</trkpt>
<trkpt lat="47.696941" lon="10.796736">
<ele>698.551</ele>
<time>2020-09-11T12:58:38Z</time>
</trkpt>
<trkpt lat="47.696934" lon="10.796734">
<ele>698.606</ele>
<time>2020-09-11T12:58:39Z</time>
</trkpt>
<trkpt lat="47.69693" lon="10.796739">
<ele>698.636</ele>
<time>2020-09-11T12:58:40Z</time>
</trkpt>
<trkpt lat="47.696926" lon="10.796741">
<ele>698.636</ele>
<time>2020-09-11T12:58:41Z</time>
</trkpt>
<trkpt lat="47.696915" lon="10.796772">
<ele>698.636</ele>
<time>2020-09-11T12:58:42Z</time>
</trkpt>
<trkpt lat="47.696903" lon="10.796811">
<ele>698.636</ele>
<time>2020-09-11T12:58:43Z</time>
</trkpt>
<trkpt lat="47.69688" lon="10.796857">
<ele>698.636</ele>
<time>2020-09-11T12:58:44Z</time>
</trkpt>
<trkpt lat="47.696857" lon="10.796906">
<ele>698.636</ele>
<time>2020-09-11T12:58:45Z</time>
</trkpt>
<trkpt lat="47.696835" lon="10.796958">
<ele>698.636</ele>
<time>2020-09-11T12:58:46Z</time>
</trkpt>
<trkpt lat="47.696808" lon="10.797015">
<ele>698.636</ele>
<time>2020-09-11T12:58:47Z</time>
</trkpt>
<trkpt lat="47.696785" lon="10.797077">
<ele>698.636</ele>
<time>2020-09-11T12:58:48Z</time>
</trkpt>
<trkpt lat="47.696766" lon="10.797136">
<ele>698.636</ele>
<time>2020-09-11T12:58:49Z</time>
</trkpt>
<trkpt lat="47.696735" lon="10.7972">
<ele>698.636</ele>
<time>2020-09-11T12:58:50Z</time>
</trkpt>
<trkpt lat="47.696709" lon="10.797265">
<ele>698.636</ele>
<time>2020-09-11T12:58:51Z</time>
</trkpt>
<trkpt lat="47.69669" lon="10.797331">
<ele>698.636</ele>
<time>2020-09-11T12:58:52Z</time>
</trkpt>
<trkpt lat="47.696663" lon="10.797397">
<ele>698.636</ele>
<time>2020-09-11T12:58:53Z</time>
</trkpt>
<trkpt lat="47.696636" lon="10.797461">
<ele>698.636</ele>
<time>2020-09-11T12:58:54Z</time>
</trkpt>
<trkpt lat="47.696609" lon="10.797525">
<ele>698.636</ele>
<time>2020-09-11T12:58:55Z</time>
</trkpt>
<trkpt lat="47.696579" lon="10.79759">
<ele>698.636</ele>
<time>2020-09-11T12:58:56Z</time>
</trkpt>
<trkpt lat="47.696552" lon="10.797653">
<ele>698.636</ele>
<time>2020-09-11T12:58:57Z</time>
</trkpt>
<trkpt lat="47.696526" lon="10.797714">
<ele>698.636</ele>
<time>2020-09-11T12:58:58Z</time>
</trkpt>
<trkpt lat="47.696495" lon="10.797777">
<ele>698.636</ele>
<time>2020-09-11T12:58:59Z</time>
</trkpt>
<trkpt lat="47.696461" lon="10.797832">
<ele>698.636</ele>
<time>2020-09-11T12:59:00Z</time>
</trkpt>
<trkpt lat="47.696426" lon="10.79789">
<ele>698.636</ele>
<time>2020-09-11T12:59:01Z</time>
</trkpt>
<trkpt lat="47.696407" lon="10.797945">
<ele>698.853</ele>
<time>2020-09-11T12:59:02Z</time>
</trkpt>
<trkpt lat="47.696377" lon="10.798008">
<ele>699.057</ele>
<time>2020-09-11T12:59:04Z</time>
</trkpt>
<trkpt lat="47.69632" lon="10.798132">
<ele>699.362</ele>
<time>2020-09-11T12:59:05Z</time>
</trkpt>
<trkpt lat="47.696285" lon="10.798192">
<ele>699.466</ele>
<time>2020-09-11T12:59:06Z</time>
</trkpt>
<trkpt lat="47.696251" lon="10.798251">
<ele>699.541</ele>
<time>2020-09-11T12:59:07Z</time>
</trkpt>
<trkpt lat="47.696217" lon="10.798309">
<ele>699.59</ele>
<time>2020-09-11T12:59:08Z</time>
</trkpt>
<trkpt lat="47.696186" lon="10.798367">
<ele>699.614</ele>
<time>2020-09-11T12:59:09Z</time>
</trkpt>
<trkpt lat="47.696148" lon="10.798418">
<ele>699.614</ele>
<time>2020-09-11T12:59:10Z</time>
</trkpt>
<trkpt lat="47.69611" lon="10.79846">
<ele>699.614</ele>
<time>2020-09-11T12:59:11Z</time>
</trkpt>
<trkpt lat="47.696068" lon="10.798493">
<ele>699.614</ele>
<time>2020-09-11T12:59:12Z</time>
</trkpt>
<trkpt lat="47.696018" lon="10.798521">
<ele>699.614</ele>
<time>2020-09-11T12:59:13Z</time>
</trkpt>
<trkpt lat="47.695969" lon="10.79854">
<ele>699.614</ele>
<time>2020-09-11T12:59:14Z</time>
</trkpt>
<trkpt lat="47.695923" lon="10.798551">
<ele>699.614</ele>
<time>2020-09-11T12:59:15Z</time>
</trkpt>
<trkpt lat="47.695866" lon="10.798556">
<ele>699.614</ele>
<time>2020-09-11T12:59:16Z</time>
</trkpt>
<trkpt lat="47.69582" lon="10.798563">
<ele>699.614</ele>
<time>2020-09-11T12:59:17Z</time>
</trkpt>
<trkpt lat="47.695766" lon="10.798565">
<ele>699.614</ele>
<time>2020-09-11T12:59:18Z</time>
</trkpt>
<trkpt lat="47.695721" lon="10.798569">
<ele>699.614</ele>
<time>2020-09-11T12:59:19Z</time>
</trkpt>
<trkpt lat="47.695671" lon="10.798573">
<ele>699.614</ele>
<time>2020-09-11T12:59:20Z</time>
</trkpt>
<trkpt lat="47.695629" lon="10.798573">
<ele>699.614</ele>
<time>2020-09-11T12:59:21Z</time>
</trkpt>
<trkpt lat="47.69558" lon="10.798577">
<ele>699.614</ele>
<time>2020-09-11T12:59:22Z</time>
</trkpt>
<trkpt lat="47.695522" lon="10.798586">
<ele>699.614</ele>
<time>2020-09-11T12:59:23Z</time>
</trkpt>
<trkpt lat="47.695469" lon="10.798594">
<ele>699.614</ele>
<time>2020-09-11T12:59:24Z</time>
</trkpt>
<trkpt lat="47.695415" lon="10.798612">
<ele>699.904</ele>
<time>2020-09-11T12:59:25Z</time>
</trkpt>
<trkpt lat="47.695366" lon="10.798626">
<ele>700.124</ele>
<time>2020-09-11T12:59:26Z</time>
</trkpt>
<trkpt lat="47.695309" lon="10.798645">
<ele>700.292</ele>
<time>2020-09-11T12:59:27Z</time>
</trkpt>
<trkpt lat="47.695263" lon="10.798667">
<ele>700.414</ele>
<time>2020-09-11T12:59:28Z</time>
</trkpt>
<trkpt lat="47.695221" lon="10.798701">
<ele>700.493</ele>
<time>2020-09-11T12:59:29Z</time>
</trkpt>
<trkpt lat="47.695183" lon="10.798754">
<ele>700.545</ele>
<time>2020-09-11T12:59:30Z</time>
</trkpt>
<trkpt lat="47.695156" lon="10.798817">
<ele>700.568</ele>
<time>2020-09-11T12:59:31Z</time>
</trkpt>
<trkpt lat="47.695141" lon="10.798888">
<ele>700.592</ele>
<time>2020-09-11T12:59:32Z</time>
</trkpt>
<trkpt lat="47.695133" lon="10.798967">
<ele>700.592</ele>
<time>2020-09-11T12:59:33Z</time>
</trkpt>
<trkpt lat="47.695133" lon="10.799055">
<ele>700.592</ele>
<time>2020-09-11T12:59:34Z</time>
</trkpt>
<trkpt lat="47.695141" lon="10.799131">
<ele>700.592</ele>
<time>2020-09-11T12:59:35Z</time>
</trkpt>
<trkpt lat="47.695156" lon="10.799205">
<ele>700.592</ele>
<time>2020-09-11T12:59:36Z</time>
</trkpt>
<trkpt lat="47.695171" lon="10.799273">
<ele>700.592</ele>
<time>2020-09-11T12:59:37Z</time>
</trkpt>
<trkpt lat="47.69519" lon="10.799352">
<ele>700.592</ele>
<time>2020-09-11T12:59:38Z</time>
</trkpt>
<trkpt lat="47.695213" lon="10.799428">
<ele>700.592</ele>
<time>2020-09-11T12:59:39Z</time>
</trkpt>
<trkpt lat="47.69524" lon="10.7995">
<ele>700.592</ele>
<time>2020-09-11T12:59:40Z</time>
</trkpt>
<trkpt lat="47.695259" lon="10.79957">
<ele>700.592</ele>
<time>2020-09-11T12:59:41Z</time>
</trkpt>
<trkpt lat="47.695282" lon="10.799638">
<ele>700.592</ele>
<time>2020-09-11T12:59:42Z</time>
</trkpt>
<trkpt lat="47.695305" lon="10.799708">
<ele>700.592</ele>
<time>2020-09-11T12:59:43Z</time>
</trkpt>
<trkpt lat="47.695324" lon="10.799776">
<ele>700.592</ele>
<time>2020-09-11T12:59:44Z</time>
</trkpt>
<trkpt lat="47.695343" lon="10.799849">
<ele>700.899</ele>
<time>2020-09-11T12:59:45Z</time>
</trkpt>
<trkpt lat="47.695366" lon="10.799918">
<ele>701.132</ele>
<time>2020-09-11T12:59:46Z</time>
</trkpt>
<trkpt lat="47.695381" lon="10.799987">
<ele>701.313</ele>
<time>2020-09-11T12:59:47Z</time>
</trkpt>
<trkpt lat="47.695404" lon="10.800053">
<ele>701.45</ele>
<time>2020-09-11T12:59:48Z</time>
</trkpt>
<trkpt lat="47.695423" lon="10.800121">
<ele>701.548</ele>
<time>2020-09-11T12:59:49Z</time>
</trkpt>
<trkpt lat="47.695442" lon="10.80019">
<ele>701.607</ele>
<time>2020-09-11T12:59:50Z</time>
</trkpt>
<trkpt lat="47.695465" lon="10.80026">
<ele>701.634</ele>
<time>2020-09-11T12:59:51Z</time>
</trkpt>
<trkpt lat="47.695484" lon="10.800331">
<ele>701.659</ele>
<time>2020-09-11T12:59:52Z</time>
</trkpt>
<trkpt lat="47.695499" lon="10.800402">
<ele>701.659</ele>
<time>2020-09-11T12:59:53Z</time>
</trkpt>
<trkpt lat="47.695522" lon="10.800471">
<ele>701.659</ele>
<time>2020-09-11T12:59:54Z</time>
</trkpt>
<trkpt lat="47.695541" lon="10.800542">
<ele>701.659</ele>
<time>2020-09-11T12:59:55Z</time>
</trkpt>
<trkpt lat="47.695564" lon="10.800613">
<ele>701.659</ele>
<time>2020-09-11T12:59:56Z</time>
</trkpt>
<trkpt lat="47.695583" lon="10.800685">
<ele>701.659</ele>
<time>2020-09-11T12:59:57Z</time>
</trkpt>
<trkpt lat="47.695602" lon="10.800755">
<ele>701.659</ele>
<time>2020-09-11T12:59:58Z</time>
</trkpt>
<trkpt lat="47.695625" lon="10.800823">
<ele>701.659</ele>
<time>2020-09-11T12:59:59Z</time>
</trkpt>
<trkpt lat="47.695644" lon="10.80089">
<ele>701.901</ele>
<time>2020-09-11T13:00:00Z</time>
</trkpt>
<trkpt lat="47.695663" lon="10.800957">
<ele>702.095</ele>
<time>2020-09-11T13:00:01Z</time>
</trkpt>
<trkpt lat="47.695694" lon="10.801022">
<ele>702.228</ele>
<time>2020-09-11T13:00:02Z</time>
</trkpt>
<trkpt lat="47.695721" lon="10.801082">
<ele>702.369</ele>
<time>2020-09-11T13:00:03Z</time>
</trkpt>
<trkpt lat="47.695744" lon="10.80114">
<ele>702.479</ele>
<time>2020-09-11T13:00:04Z</time>
</trkpt>
<trkpt lat="47.69577" lon="10.801196">
<ele>702.553</ele>
<time>2020-09-11T13:00:05Z</time>
</trkpt>
<trkpt lat="47.695797" lon="10.801253">
<ele>702.865</ele>
<time>2020-09-11T13:00:06Z</time>
</trkpt>
<trkpt lat="47.695827" lon="10.801308">
<ele>703.11</ele>
<time>2020-09-11T13:00:07Z</time>
</trkpt>
<trkpt lat="47.695858" lon="10.80136">
<ele>703.309</ele>
<time>2020-09-11T13:00:08Z</time>
</trkpt>
<trkpt lat="47.695889" lon="10.801412">
<ele>703.676</ele>
<time>2020-09-11T13:00:09Z</time>
</trkpt>
<trkpt lat="47.695923" lon="10.80146">
<ele>703.954</ele>
<time>2020-09-11T13:00:10Z</time>
</trkpt>
<trkpt lat="47.695953" lon="10.801507">
<ele>704.165</ele>
<time>2020-09-11T13:00:11Z</time>
</trkpt>
<trkpt lat="47.695984" lon="10.801552">
<ele>704.316</ele>
<time>2020-09-11T13:00:12Z</time>
</trkpt>
<trkpt lat="47.696014" lon="10.801595">
<ele>704.703</ele>
<time>2020-09-11T13:00:13Z</time>
</trkpt>
<trkpt lat="47.696049" lon="10.801637">
<ele>704.992</ele>
<time>2020-09-11T13:00:14Z</time>
</trkpt>
<trkpt lat="47.696087" lon="10.801675">
<ele>705.222</ele>
<time>2020-09-11T13:00:15Z</time>
</trkpt>
<trkpt lat="47.696121" lon="10.801712">
<ele>705.361</ele>
<time>2020-09-11T13:00:16Z</time>
</trkpt>
<trkpt lat="47.696156" lon="10.801748">
<ele>705.719</ele>
<time>2020-09-11T13:00:17Z</time>
</trkpt>
<trkpt lat="47.69619" lon="10.801782">
<ele>706.01</ele>
<time>2020-09-11T13:00:18Z</time>
</trkpt>
<trkpt lat="47.69622" lon="10.801815">
<ele>706.233</ele>
<time>2020-09-11T13:00:19Z</time>
</trkpt>
<trkpt lat="47.696259" lon="10.801848">
<ele>706.394</ele>
<time>2020-09-11T13:00:20Z</time>
</trkpt>
<trkpt lat="47.696293" lon="10.801882">
<ele>706.494</ele>
<time>2020-09-11T13:00:21Z</time>
</trkpt>
<trkpt lat="47.696327" lon="10.801917">
<ele>706.557</ele>
<time>2020-09-11T13:00:22Z</time>
</trkpt>
<trkpt lat="47.696362" lon="10.80195">
<ele>706.612</ele>
<time>2020-09-11T13:00:23Z</time>
</trkpt>
<trkpt lat="47.6964" lon="10.801982">
<ele>706.64</ele>
<time>2020-09-11T13:00:24Z</time>
</trkpt>
<trkpt lat="47.696438" lon="10.802015">
<ele>706.952</ele>
<time>2020-09-11T13:00:25Z</time>
</trkpt>
<trkpt lat="47.696472" lon="10.80205">
<ele>707.192</ele>
<time>2020-09-11T13:00:26Z</time>
</trkpt>
<trkpt lat="47.696507" lon="10.802085">
<ele>707.376</ele>
<time>2020-09-11T13:00:27Z</time>
</trkpt>
<trkpt lat="47.696541" lon="10.802123">
<ele>707.507</ele>
<time>2020-09-11T13:00:28Z</time>
</trkpt>
<trkpt lat="47.696571" lon="10.802163">
<ele>707.599</ele>
<time>2020-09-11T13:00:29Z</time>
</trkpt>
<trkpt lat="47.696602" lon="10.802204">
<ele>707.656</ele>
<time>2020-09-11T13:00:30Z</time>
</trkpt>
<trkpt lat="47.696632" lon="10.802243">
<ele>707.679</ele>
<time>2020-09-11T13:00:31Z</time>
</trkpt>
<trkpt lat="47.696659" lon="10.802286">
<ele>707.943</ele>
<time>2020-09-11T13:00:32Z</time>
</trkpt>
<trkpt lat="47.69669" lon="10.802334">
<ele>708.167</ele>
<time>2020-09-11T13:00:33Z</time>
</trkpt>
<trkpt lat="47.696712" lon="10.802383">
<ele>708.353</ele>
<time>2020-09-11T13:00:34Z</time>
</trkpt>
<trkpt lat="47.696739" lon="10.802432">
<ele>708.502</ele>
<time>2020-09-11T13:00:35Z</time>
</trkpt>
<trkpt lat="47.696766" lon="10.802481">
<ele>708.597</ele>
<time>2020-09-11T13:00:36Z</time>
</trkpt>
<trkpt lat="47.696789" lon="10.802526">
<ele>708.949</ele>
<time>2020-09-11T13:00:37Z</time>
</trkpt>
<trkpt lat="47.696808" lon="10.802577">
<ele>709.225</ele>
<time>2020-09-11T13:00:38Z</time>
</trkpt>
<trkpt lat="47.696831" lon="10.802627">
<ele>709.43</ele>
<time>2020-09-11T13:00:39Z</time>
</trkpt>
<trkpt lat="47.69685" lon="10.80268">
<ele>709.592</ele>
<time>2020-09-11T13:00:40Z</time>
</trkpt>
<trkpt lat="47.696869" lon="10.802732">
<ele>709.683</ele>
<time>2020-09-11T13:00:41Z</time>
</trkpt>
<trkpt lat="47.696899" lon="10.80278">
<ele>709.751</ele>
<time>2020-09-11T13:00:42Z</time>
</trkpt>
<trkpt lat="47.696918" lon="10.802831">
<ele>709.813</ele>
<time>2020-09-11T13:00:43Z</time>
</trkpt>
<trkpt lat="47.696945" lon="10.802881">
<ele>710.062</ele>
<time>2020-09-11T13:00:44Z</time>
</trkpt>
<trkpt lat="47.696972" lon="10.80293">
<ele>710.322</ele>
<time>2020-09-11T13:00:45Z</time>
</trkpt>
<trkpt lat="47.696999" lon="10.802979">
<ele>710.476</ele>
<time>2020-09-11T13:00:46Z</time>
</trkpt>
<trkpt lat="47.697021" lon="10.803027">
<ele>710.569</ele>
<time>2020-09-11T13:00:47Z</time>
</trkpt>
<trkpt lat="47.697048" lon="10.803077">
<ele>710.963</ele>
<time>2020-09-11T13:00:48Z</time>
</trkpt>
<trkpt lat="47.697075" lon="10.803123">
<ele>711.257</ele>
<time>2020-09-11T13:00:49Z</time>
</trkpt>
<trkpt lat="47.697102" lon="10.803172">
<ele>711.465</ele>
<time>2020-09-11T13:00:50Z</time>
</trkpt>
<trkpt lat="47.697128" lon="10.803216">
<ele>711.601</ele>
<time>2020-09-11T13:00:51Z</time>
</trkpt>
<trkpt lat="47.697147" lon="10.803256">
<ele>711.696</ele>
<time>2020-09-11T13:00:52Z</time>
</trkpt>
<trkpt lat="47.697163" lon="10.803293">
<ele>711.793</ele>
<time>2020-09-11T13:00:53Z</time>
</trkpt>
<trkpt lat="47.697189" lon="10.803329">
<ele>712.166</ele>
<time>2020-09-11T13:00:54Z</time>
</trkpt>
<trkpt lat="47.697212" lon="10.80337">
<ele>712.461</ele>
<time>2020-09-11T13:00:55Z</time>
</trkpt>
<trkpt lat="47.697243" lon="10.803413">
<ele>712.797</ele>
<time>2020-09-11T13:00:56Z</time>
</trkpt>
<trkpt lat="47.697269" lon="10.803455">
<ele>712.976</ele>
<time>2020-09-11T13:00:57Z</time>
</trkpt>
<trkpt lat="47.697296" lon="10.8035">
<ele>713.101</ele>
<time>2020-09-11T13:00:58Z</time>
</trkpt>
<trkpt lat="47.697323" lon="10.803543">
<ele>713.182</ele>
<time>2020-09-11T13:00:59Z</time>
</trkpt>
<trkpt lat="47.697338" lon="10.803587">
<ele>713.218</ele>
<time>2020-09-11T13:01:00Z</time>
</trkpt>
<trkpt lat="47.697357" lon="10.803632">
<ele>713.226</ele>
<time>2020-09-11T13:01:01Z</time>
</trkpt>
<trkpt lat="47.697376" lon="10.803679">
<ele>713.226</ele>
<time>2020-09-11T13:01:02Z</time>
</trkpt>
<trkpt lat="47.697399" lon="10.80373">
<ele>713.226</ele>
<time>2020-09-11T13:01:03Z</time>
</trkpt>
<trkpt lat="47.697422" lon="10.803782">
<ele>713.226</ele>
<time>2020-09-11T13:01:04Z</time>
</trkpt>
<trkpt lat="47.697437" lon="10.803835">
<ele>713.509</ele>
<time>2020-09-11T13:01:05Z</time>
</trkpt>
<trkpt lat="47.697453" lon="10.80389">
<ele>713.73</ele>
<time>2020-09-11T13:01:06Z</time>
</trkpt>
<trkpt lat="47.697468" lon="10.803942">
<ele>713.901</ele>
<time>2020-09-11T13:01:07Z</time>
</trkpt>
<trkpt lat="47.697495" lon="10.803997">
<ele>714.029</ele>
<time>2020-09-11T13:01:08Z</time>
</trkpt>
<trkpt lat="47.697521" lon="10.804051">
<ele>714.105</ele>
<time>2020-09-11T13:01:09Z</time>
</trkpt>
<trkpt lat="47.697536" lon="10.804105">
<ele>714.154</ele>
<time>2020-09-11T13:01:10Z</time>
</trkpt>
<trkpt lat="47.697556" lon="10.804158">
<ele>714.178</ele>
<time>2020-09-11T13:01:11Z</time>
</trkpt>
<trkpt lat="47.697571" lon="10.804212">
<ele>714.405</ele>
<time>2020-09-11T13:01:12Z</time>
</trkpt>
<trkpt lat="47.69759" lon="10.804265">
<ele>714.591</ele>
<time>2020-09-11T13:01:13Z</time>
</trkpt>
<trkpt lat="47.697605" lon="10.80432">
<ele>714.743</ele>
<time>2020-09-11T13:01:14Z</time>
</trkpt>
<trkpt lat="47.69762" lon="10.804375">
<ele>714.863</ele>
<time>2020-09-11T13:01:15Z</time>
</trkpt>
<trkpt lat="47.697639" lon="10.804432">
<ele>714.955</ele>
<time>2020-09-11T13:01:16Z</time>
</trkpt>
<trkpt lat="47.697651" lon="10.804486">
<ele>715.028</ele>
<time>2020-09-11T13:01:17Z</time>
</trkpt>
<trkpt lat="47.697662" lon="10.804544">
<ele>715.075</ele>
<time>2020-09-11T13:01:18Z</time>
</trkpt>
<trkpt lat="47.697678" lon="10.804602">
<ele>715.096</ele>
<time>2020-09-11T13:01:19Z</time>
</trkpt>
<trkpt lat="47.697685" lon="10.804658">
<ele>715.096</ele>
<time>2020-09-11T13:01:20Z</time>
</trkpt>
<trkpt lat="47.697704" lon="10.804713">
<ele>715.356</ele>
<time>2020-09-11T13:01:21Z</time>
</trkpt>
<trkpt lat="47.697716" lon="10.804769">
<ele>715.541</ele>
<time>2020-09-11T13:01:22Z</time>
</trkpt>
<trkpt lat="47.697723" lon="10.804825">
<ele>715.729</ele>
<time>2020-09-11T13:01:23Z</time>
</trkpt>
<trkpt lat="47.697735" lon="10.804884">
<ele>715.881</ele>
<time>2020-09-11T13:01:24Z</time>
</trkpt>
<trkpt lat="47.697746" lon="10.804943">
<ele>716</ele>
<time>2020-09-11T13:01:25Z</time>
</trkpt>
<trkpt lat="47.697758" lon="10.804999">
<ele>716.074</ele>
<time>2020-09-11T13:01:26Z</time>
</trkpt>
<trkpt lat="47.697769" lon="10.805057">
<ele>716.375</ele>
<time>2020-09-11T13:01:27Z</time>
</trkpt>
<trkpt lat="47.697781" lon="10.805112">
<ele>716.604</ele>
<time>2020-09-11T13:01:28Z</time>
</trkpt>
<trkpt lat="47.697788" lon="10.805168">
<ele>716.801</ele>
<time>2020-09-11T13:01:29Z</time>
</trkpt>
<trkpt lat="47.6978" lon="10.805227">
<ele>716.915</ele>
<time>2020-09-11T13:01:30Z</time>
</trkpt>
<trkpt lat="47.697815" lon="10.805286">
<ele>717</ele>
<time>2020-09-11T13:01:31Z</time>
</trkpt>
<trkpt lat="47.697823" lon="10.805345">
<ele>717.061</ele>
<time>2020-09-11T13:01:32Z</time>
</trkpt>
<trkpt lat="47.697842" lon="10.805406">
<ele>717.117</ele>
<time>2020-09-11T13:01:33Z</time>
</trkpt>
<trkpt lat="47.697849" lon="10.805464">
<ele>717.144</ele>
<time>2020-09-11T13:01:34Z</time>
</trkpt>
<trkpt lat="47.697861" lon="10.805521">
<ele>717.432</ele>
<time>2020-09-11T13:01:35Z</time>
</trkpt>
<trkpt lat="47.697876" lon="10.80558">
<ele>717.65</ele>
<time>2020-09-11T13:01:36Z</time>
</trkpt>
<trkpt lat="47.697884" lon="10.805638">
<ele>717.813</ele>
<time>2020-09-11T13:01:37Z</time>
</trkpt>
<trkpt lat="47.697895" lon="10.805696">
<ele>717.933</ele>
<time>2020-09-11T13:01:38Z</time>
</trkpt>
<trkpt lat="47.69791" lon="10.805756">
<ele>718.017</ele>
<time>2020-09-11T13:01:39Z</time>
</trkpt>
<trkpt lat="47.697922" lon="10.805814">
<ele>718.075</ele>
<time>2020-09-11T13:01:40Z</time>
</trkpt>
<trkpt lat="47.697937" lon="10.805873">
<ele>718.095</ele>
<time>2020-09-11T13:01:41Z</time>
</trkpt>
<trkpt lat="47.697952" lon="10.805933">
<ele>718.323</ele>
<time>2020-09-11T13:01:42Z</time>
</trkpt>
<trkpt lat="47.697968" lon="10.805994">
<ele>718.512</ele>
<time>2020-09-11T13:01:43Z</time>
</trkpt>
<trkpt lat="47.697979" lon="10.806053">
<ele>718.667</ele>
<time>2020-09-11T13:01:44Z</time>
</trkpt>
<trkpt lat="47.697994" lon="10.806113">
<ele>718.79</ele>
<time>2020-09-11T13:01:45Z</time>
</trkpt>
<trkpt lat="47.698009" lon="10.806174">
<ele>718.884</ele>
<time>2020-09-11T13:01:46Z</time>
</trkpt>
<trkpt lat="47.698025" lon="10.806235">
<ele>718.951</ele>
<time>2020-09-11T13:01:47Z</time>
</trkpt>
<trkpt lat="47.69804" lon="10.806295">
<ele>718.994</ele>
<time>2020-09-11T13:01:48Z</time>
</trkpt>
<trkpt lat="47.698055" lon="10.806358">
<ele>719.015</ele>
<time>2020-09-11T13:01:49Z</time>
</trkpt>
<trkpt lat="47.698074" lon="10.806421">
<ele>719.015</ele>
<time>2020-09-11T13:01:50Z</time>
</trkpt>
<trkpt lat="47.698086" lon="10.806485">
<ele>719.015</ele>
<time>2020-09-11T13:01:51Z</time>
</trkpt>
<trkpt lat="47.698105" lon="10.806547">
<ele>719.015</ele>
<time>2020-09-11T13:01:52Z</time>
</trkpt>
<trkpt lat="47.698116" lon="10.806608">
<ele>719.277</ele>
<time>2020-09-11T13:01:53Z</time>
</trkpt>
<trkpt lat="47.698139" lon="10.806673">
<ele>719.496</ele>
<time>2020-09-11T13:01:54Z</time>
</trkpt>
<trkpt lat="47.698154" lon="10.806738">
<ele>719.677</ele>
<time>2020-09-11T13:01:55Z</time>
</trkpt>
<trkpt lat="47.698174" lon="10.806805">
<ele>719.82</ele>
<time>2020-09-11T13:01:56Z</time>
</trkpt>
<trkpt lat="47.698193" lon="10.806871">
<ele>719.929</ele>
<time>2020-09-11T13:01:57Z</time>
</trkpt>
<trkpt lat="47.698212" lon="10.80694">
<ele>720.008</ele>
<time>2020-09-11T13:01:58Z</time>
</trkpt>
<trkpt lat="47.698235" lon="10.80701">
<ele>720.06</ele>
<time>2020-09-11T13:01:59Z</time>
</trkpt>
<trkpt lat="47.69825" lon="10.807079">
<ele>720.084</ele>
<time>2020-09-11T13:02:00Z</time>
</trkpt>
<trkpt lat="47.698273" lon="10.807148">
<ele>720.084</ele>
<time>2020-09-11T13:02:01Z</time>
</trkpt>
<trkpt lat="47.698296" lon="10.807216">
<ele>720.084</ele>
<time>2020-09-11T13:02:02Z</time>
</trkpt>
<trkpt lat="47.698311" lon="10.807281">
<ele>720.084</ele>
<time>2020-09-11T13:02:03Z</time>
</trkpt>
<trkpt lat="47.698338" lon="10.807347">
<ele>720.084</ele>
<time>2020-09-11T13:02:04Z</time>
</trkpt>
<trkpt lat="47.698357" lon="10.80741">
<ele>720.084</ele>
<time>2020-09-11T13:02:05Z</time>
</trkpt>
<trkpt lat="47.698376" lon="10.807475">
<ele>720.084</ele>
<time>2020-09-11T13:02:06Z</time>
</trkpt>
<trkpt lat="47.698402" lon="10.807538">
<ele>720.084</ele>
<time>2020-09-11T13:02:07Z</time>
</trkpt>
<trkpt lat="47.698425" lon="10.807603">
<ele>720.084</ele>
<time>2020-09-11T13:02:08Z</time>
</trkpt>
<trkpt lat="47.698448" lon="10.807669">
<ele>720.084</ele>
<time>2020-09-11T13:02:09Z</time>
</trkpt>
<trkpt lat="47.698475" lon="10.807735">
<ele>720.084</ele>
<time>2020-09-11T13:02:10Z</time>
</trkpt>
<trkpt lat="47.698502" lon="10.807805">
<ele>720.084</ele>
<time>2020-09-11T13:02:11Z</time>
</trkpt>
<trkpt lat="47.698524" lon="10.807874">
<ele>720.084</ele>
<time>2020-09-11T13:02:12Z</time>
</trkpt>
<trkpt lat="47.698551" lon="10.807945">
<ele>720.084</ele>
<time>2020-09-11T13:02:13Z</time>
</trkpt>
<trkpt lat="47.698582" lon="10.808014">
<ele>720.084</ele>
<time>2020-09-11T13:02:14Z</time>
</trkpt>
<trkpt lat="47.698608" lon="10.808084">
<ele>720.084</ele>
<time>2020-09-11T13:02:15Z</time>
</trkpt>
<trkpt lat="47.698639" lon="10.808154">
<ele>720.084</ele>
<time>2020-09-11T13:02:16Z</time>
</trkpt>
<trkpt lat="47.698669" lon="10.808222">
<ele>720.084</ele>
<time>2020-09-11T13:02:17Z</time>
</trkpt>
<trkpt lat="47.6987" lon="10.808292">
<ele>720.084</ele>
<time>2020-09-11T13:02:18Z</time>
</trkpt>
<trkpt lat="47.698727" lon="10.808364">
<ele>720.084</ele>
<time>2020-09-11T13:02:19Z</time>
</trkpt>
<trkpt lat="47.698761" lon="10.808434">
<ele>720.084</ele>
<time>2020-09-11T13:02:20Z</time>
</trkpt>
<trkpt lat="47.698792" lon="10.808505">
<ele>720.084</ele>
<time>2020-09-11T13:02:21Z</time>
</trkpt>
<trkpt lat="47.698822" lon="10.808578">
<ele>720.084</ele>
<time>2020-09-11T13:02:22Z</time>
</trkpt>
<trkpt lat="47.698856" lon="10.80865">
<ele>720.084</ele>
<time>2020-09-11T13:02:23Z</time>
</trkpt>
<trkpt lat="47.698887" lon="10.808723">
<ele>720.084</ele>
<time>2020-09-11T13:02:24Z</time>
</trkpt>
<trkpt lat="47.698921" lon="10.808798">
<ele>720.084</ele>
<time>2020-09-11T13:02:25Z</time>
</trkpt>
<trkpt lat="47.698952" lon="10.80887">
<ele>720.084</ele>
<time>2020-09-11T13:02:26Z</time>
</trkpt>
<trkpt lat="47.698986" lon="10.808944">
<ele>720.084</ele>
<time>2020-09-11T13:02:27Z</time>
</trkpt>
<trkpt lat="47.699017" lon="10.809018">
<ele>720.084</ele>
<time>2020-09-11T13:02:28Z</time>
</trkpt>
<trkpt lat="47.699047" lon="10.809093">
<ele>720.084</ele>
<time>2020-09-11T13:02:29Z</time>
</trkpt>
<trkpt lat="47.699081" lon="10.809168">
<ele>720.084</ele>
<time>2020-09-11T13:02:30Z</time>
</trkpt>
<trkpt lat="47.699112" lon="10.809243">
<ele>720.084</ele>
<time>2020-09-11T13:02:31Z</time>
</trkpt>
<trkpt lat="47.699146" lon="10.809319">
<ele>720.084</ele>
<time>2020-09-11T13:02:32Z</time>
</trkpt>
<trkpt lat="47.699181" lon="10.809393">
<ele>720.084</ele>
<time>2020-09-11T13:02:33Z</time>
</trkpt>
<trkpt lat="47.699215" lon="10.80947">
<ele>720.084</ele>
<time>2020-09-11T13:02:34Z</time>
</trkpt>
<trkpt lat="47.699249" lon="10.809547">
<ele>719.823</ele>
<time>2020-09-11T13:02:35Z</time>
</trkpt>
<trkpt lat="47.69928" lon="10.809623">
<ele>719.622</ele>
<time>2020-09-11T13:02:36Z</time>
</trkpt>
<trkpt lat="47.699314" lon="10.809702">
<ele>719.47</ele>
<time>2020-09-11T13:02:37Z</time>
</trkpt>
<trkpt lat="47.699345" lon="10.80978">
<ele>719.36</ele>
<time>2020-09-11T13:02:38Z</time>
</trkpt>
<trkpt lat="47.699375" lon="10.80986">
<ele>719.286</ele>
<time>2020-09-11T13:02:39Z</time>
</trkpt>
<trkpt lat="47.699409" lon="10.809939">
<ele>719.238</ele>
<time>2020-09-11T13:02:40Z</time>
</trkpt>
<trkpt lat="47.69944" lon="10.810021">
<ele>719.213</ele>
<time>2020-09-11T13:02:41Z</time>
</trkpt>
<trkpt lat="47.699471" lon="10.810105">
<ele>719.193</ele>
<time>2020-09-11T13:02:42Z</time>
</trkpt>
<trkpt lat="47.699497" lon="10.810188">
<ele>719.192</ele>
<time>2020-09-11T13:02:43Z</time>
</trkpt>
<trkpt lat="47.699528" lon="10.81027">
<ele>719.193</ele>
<time>2020-09-11T13:02:44Z</time>
</trkpt>
<trkpt lat="47.699554" lon="10.810354">
<ele>719.193</ele>
<time>2020-09-11T13:02:45Z</time>
</trkpt>
<trkpt lat="47.699585" lon="10.81044">
<ele>719.193</ele>
<time>2020-09-11T13:02:46Z</time>
</trkpt>
<trkpt lat="47.699612" lon="10.810525">
<ele>719.193</ele>
<time>2020-09-11T13:02:47Z</time>
</trkpt>
<trkpt lat="47.699642" lon="10.810612">
<ele>719.193</ele>
<time>2020-09-11T13:02:48Z</time>
</trkpt>
<trkpt lat="47.699669" lon="10.810698">
<ele>719.192</ele>
<time>2020-09-11T13:02:49Z</time>
</trkpt>
<trkpt lat="47.699696" lon="10.810786">
<ele>719.192</ele>
<time>2020-09-11T13:02:50Z</time>
</trkpt>
<trkpt lat="47.699718" lon="10.810876">
<ele>719.192</ele>
<time>2020-09-11T13:02:51Z</time>
</trkpt>
<trkpt lat="47.699741" lon="10.810966">
<ele>719.193</ele>
<time>2020-09-11T13:02:52Z</time>
</trkpt>
<trkpt lat="47.699768" lon="10.811058">
<ele>719.193</ele>
<time>2020-09-11T13:02:53Z</time>
</trkpt>
<trkpt lat="47.699791" lon="10.811151">
<ele>719.193</ele>
<time>2020-09-11T13:02:54Z</time>
</trkpt>
<trkpt lat="47.69981" lon="10.811243">
<ele>719.193</ele>
<time>2020-09-11T13:02:55Z</time>
</trkpt>
<trkpt lat="47.699837" lon="10.811337">
<ele>719.192</ele>
<time>2020-09-11T13:02:56Z</time>
</trkpt>
<trkpt lat="47.699856" lon="10.811431">
<ele>719.193</ele>
<time>2020-09-11T13:02:57Z</time>
</trkpt>
<trkpt lat="47.699875" lon="10.811527">
<ele>719.193</ele>
<time>2020-09-11T13:02:58Z</time>
</trkpt>
<trkpt lat="47.699894" lon="10.811622">
<ele>719.193</ele>
<time>2020-09-11T13:02:59Z</time>
</trkpt>
<trkpt lat="47.699909" lon="10.811715">
<ele>719.193</ele>
<time>2020-09-11T13:03:00Z</time>
</trkpt>
<trkpt lat="47.699928" lon="10.811806">
<ele>719.193</ele>
<time>2020-09-11T13:03:01Z</time>
</trkpt>
<trkpt lat="47.699944" lon="10.811895">
<ele>719.193</ele>
<time>2020-09-11T13:03:02Z</time>
</trkpt>
<trkpt lat="47.699963" lon="10.811986">
<ele>719.193</ele>
<time>2020-09-11T13:03:03Z</time>
</trkpt>
<trkpt lat="47.699974" lon="10.812075">
<ele>719.193</ele>
<time>2020-09-11T13:03:04Z</time>
</trkpt>
<trkpt lat="47.699986" lon="10.812164">
<ele>719.193</ele>
<time>2020-09-11T13:03:05Z</time>
</trkpt>
<trkpt lat="47.700001" lon="10.812255">
<ele>719.193</ele>
<time>2020-09-11T13:03:06Z</time>
</trkpt>
<trkpt lat="47.700012" lon="10.812345">
<ele>719.193</ele>
<time>2020-09-11T13:03:07Z</time>
</trkpt>
<trkpt lat="47.700024" lon="10.812439">
<ele>718.912</ele>
<time>2020-09-11T13:03:08Z</time>
</trkpt>
<trkpt lat="47.700031" lon="10.812531">
<ele>718.69</ele>
<time>2020-09-11T13:03:09Z</time>
</trkpt>
<trkpt lat="47.700043" lon="10.812623">
<ele>718.52</ele>
<time>2020-09-11T13:03:10Z</time>
</trkpt>
<trkpt lat="47.700058" lon="10.812716">
<ele>718.39</ele>
<time>2020-09-11T13:03:11Z</time>
</trkpt>
<trkpt lat="47.700066" lon="10.812808">
<ele>718.3</ele>
<time>2020-09-11T13:03:12Z</time>
</trkpt>
<trkpt lat="47.700073" lon="10.812898">
<ele>718.21</ele>
<time>2020-09-11T13:03:13Z</time>
</trkpt>
<trkpt lat="47.700085" lon="10.812988">
<ele>718.152</ele>
<time>2020-09-11T13:03:14Z</time>
</trkpt>
<trkpt lat="47.700092" lon="10.813078">
<ele>718.124</ele>
<time>2020-09-11T13:03:15Z</time>
</trkpt>
<trkpt lat="47.7001" lon="10.813166">
<ele>718.124</ele>
<time>2020-09-11T13:03:16Z</time>
</trkpt>
<trkpt lat="47.700108" lon="10.813253">
<ele>718.124</ele>
<time>2020-09-11T13:03:17Z</time>
</trkpt>
<trkpt lat="47.700111" lon="10.81334">
<ele>718.124</ele>
<time>2020-09-11T13:03:18Z</time>
</trkpt>
<trkpt lat="47.700119" lon="10.813425">
<ele>718.124</ele>
<time>2020-09-11T13:03:19Z</time>
</trkpt>
<trkpt lat="47.700123" lon="10.813512">
<ele>718.124</ele>
<time>2020-09-11T13:03:20Z</time>
</trkpt>
<trkpt lat="47.700127" lon="10.813595">
<ele>718.124</ele>
<time>2020-09-11T13:03:21Z</time>
</trkpt>
<trkpt lat="47.70013" lon="10.813679">
<ele>718.319</ele>
<time>2020-09-11T13:03:22Z</time>
</trkpt>
<trkpt lat="47.700134" lon="10.813763">
<ele>718.505</ele>
<time>2020-09-11T13:03:23Z</time>
</trkpt>
<trkpt lat="47.700142" lon="10.813848">
<ele>718.66</ele>
<time>2020-09-11T13:03:24Z</time>
</trkpt>
<trkpt lat="47.700146" lon="10.813932">
<ele>718.783</ele>
<time>2020-09-11T13:03:25Z</time>
</trkpt>
<trkpt lat="47.70015" lon="10.814014">
<ele>718.879</ele>
<time>2020-09-11T13:03:26Z</time>
</trkpt>
<trkpt lat="47.700157" lon="10.8141">
<ele>718.949</ele>
<time>2020-09-11T13:03:27Z</time>
</trkpt>
<trkpt lat="47.700161" lon="10.814186">
<ele>718.993</ele>
<time>2020-09-11T13:03:28Z</time>
</trkpt>
<trkpt lat="47.700161" lon="10.814272">
<ele>719.015</ele>
<time>2020-09-11T13:03:29Z</time>
</trkpt>
<trkpt lat="47.700165" lon="10.814357">
<ele>719.015</ele>
<time>2020-09-11T13:03:30Z</time>
</trkpt>
<trkpt lat="47.700165" lon="10.814442">
<ele>719.015</ele>
<time>2020-09-11T13:03:31Z</time>
</trkpt>
<trkpt lat="47.700169" lon="10.814528">
<ele>719.015</ele>
<time>2020-09-11T13:03:32Z</time>
</trkpt>
<trkpt lat="47.700169" lon="10.814613">
<ele>719.015</ele>
<time>2020-09-11T13:03:33Z</time>
</trkpt>
<trkpt lat="47.700172" lon="10.814697">
<ele>719.015</ele>
<time>2020-09-11T13:03:34Z</time>
</trkpt>
<trkpt lat="47.700176" lon="10.814781">
<ele>719.015</ele>
<time>2020-09-11T13:03:35Z</time>
</trkpt>
<trkpt lat="47.700176" lon="10.814869">
<ele>719.015</ele>
<time>2020-09-11T13:03:36Z</time>
</trkpt>
<trkpt lat="47.70018" lon="10.814953">
<ele>719.015</ele>
<time>2020-09-11T13:03:37Z</time>
</trkpt>
<trkpt lat="47.70018" lon="10.815039">
<ele>719.015</ele>
<time>2020-09-11T13:03:38Z</time>
</trkpt>
<trkpt lat="47.70018" lon="10.815122">
<ele>719.265</ele>
<time>2020-09-11T13:03:39Z</time>
</trkpt>
<trkpt lat="47.700184" lon="10.815202">
<ele>719.463</ele>
<time>2020-09-11T13:03:40Z</time>
</trkpt>
<trkpt lat="47.700184" lon="10.815286">
<ele>719.616</ele>
<time>2020-09-11T13:03:41Z</time>
</trkpt>
<trkpt lat="47.700184" lon="10.815368">
<ele>719.722</ele>
<time>2020-09-11T13:03:42Z</time>
</trkpt>
<trkpt lat="47.700184" lon="10.815452">
<ele>719.834</ele>
<time>2020-09-11T13:03:43Z</time>
</trkpt>
<trkpt lat="47.700184" lon="10.815536">
<ele>719.911</ele>
<time>2020-09-11T13:03:44Z</time>
</trkpt>
<trkpt lat="47.700184" lon="10.815619">
<ele>720.206</ele>
<time>2020-09-11T13:03:45Z</time>
</trkpt>
<trkpt lat="47.700184" lon="10.815701">
<ele>720.433</ele>
<time>2020-09-11T13:03:46Z</time>
</trkpt>
<trkpt lat="47.700184" lon="10.815784">
<ele>720.665</ele>
<time>2020-09-11T13:03:47Z</time>
</trkpt>
<trkpt lat="47.700184" lon="10.815865">
<ele>720.787</ele>
<time>2020-09-11T13:03:48Z</time>
</trkpt>
<trkpt lat="47.700184" lon="10.815947">
<ele>720.87</ele>
<time>2020-09-11T13:03:49Z</time>
</trkpt>
<trkpt lat="47.700184" lon="10.816028">
<ele>720.923</ele>
<time>2020-09-11T13:03:50Z</time>
</trkpt>
<trkpt lat="47.70018" lon="10.816107">
<ele>720.947</ele>
<time>2020-09-11T13:03:51Z</time>
</trkpt>
<trkpt lat="47.700176" lon="10.816185">
<ele>721.19</ele>
<time>2020-09-11T13:03:52Z</time>
</trkpt>
<trkpt lat="47.700172" lon="10.816265">
<ele>721.394</ele>
<time>2020-09-11T13:03:53Z</time>
</trkpt>
<trkpt lat="47.700169" lon="10.816343">
<ele>721.565</ele>
<time>2020-09-11T13:03:54Z</time>
</trkpt>
<trkpt lat="47.700165" lon="10.816423">
<ele>721.7</ele>
<time>2020-09-11T13:03:55Z</time>
</trkpt>
<trkpt lat="47.700161" lon="10.8165">
<ele>721.806</ele>
<time>2020-09-11T13:03:56Z</time>
</trkpt>
<trkpt lat="47.700161" lon="10.816577">
<ele>721.871</ele>
<time>2020-09-11T13:03:57Z</time>
</trkpt>
<trkpt lat="47.700153" lon="10.816653">
<ele>722.164</ele>
<time>2020-09-11T13:03:58Z</time>
</trkpt>
<trkpt lat="47.700146" lon="10.81673">
<ele>722.391</ele>
<time>2020-09-11T13:03:59Z</time>
</trkpt>
<trkpt lat="47.700138" lon="10.816805">
<ele>722.571</ele>
<time>2020-09-11T13:04:00Z</time>
</trkpt>
<trkpt lat="47.70013" lon="10.81688">
<ele>722.687</ele>
<time>2020-09-11T13:04:01Z</time>
</trkpt>
<trkpt lat="47.700119" lon="10.816957">
<ele>722.77</ele>
<time>2020-09-11T13:04:02Z</time>
</trkpt>
<trkpt lat="47.700111" lon="10.817033">
<ele>722.854</ele>
<time>2020-09-11T13:04:03Z</time>
</trkpt>
<trkpt lat="47.7001" lon="10.81711">
<ele>722.909</ele>
<time>2020-09-11T13:04:04Z</time>
</trkpt>
<trkpt lat="47.700089" lon="10.817184">
<ele>722.935</ele>
<time>2020-09-11T13:04:05Z</time>
</trkpt>
<trkpt lat="47.700077" lon="10.817258">
<ele>723.259</ele>
<time>2020-09-11T13:04:06Z</time>
</trkpt>
<trkpt lat="47.700066" lon="10.817331">
<ele>723.514</ele>
<time>2020-09-11T13:04:07Z</time>
</trkpt>
<trkpt lat="47.700054" lon="10.817405">
<ele>723.703</ele>
<time>2020-09-11T13:04:08Z</time>
</trkpt>
<trkpt lat="47.700043" lon="10.817478">
<ele>723.848</ele>
<time>2020-09-11T13:04:09Z</time>
</trkpt>
<trkpt lat="47.700031" lon="10.817552">
<ele>723.942</ele>
<time>2020-09-11T13:04:10Z</time>
</trkpt>
<trkpt lat="47.700016" lon="10.817622">
<ele>724.009</ele>
<time>2020-09-11T13:04:11Z</time>
</trkpt>
<trkpt lat="47.700001" lon="10.817692">
<ele>724.061</ele>
<time>2020-09-11T13:04:12Z</time>
</trkpt>
<trkpt lat="47.699982" lon="10.81776">
<ele>724.093</ele>
<time>2020-09-11T13:04:13Z</time>
</trkpt>
<trkpt lat="47.699966" lon="10.817828">
<ele>724.094</ele>
<time>2020-09-11T13:04:14Z</time>
</trkpt>
<trkpt lat="47.699947" lon="10.817897">
<ele>724.376</ele>
<time>2020-09-11T13:04:15Z</time>
</trkpt>
<trkpt lat="47.699928" lon="10.817964">
<ele>724.596</ele>
<time>2020-09-11T13:04:16Z</time>
</trkpt>
<trkpt lat="47.699905" lon="10.81803">
<ele>724.764</ele>
<time>2020-09-11T13:04:17Z</time>
</trkpt>
<trkpt lat="47.699886" lon="10.818095">
<ele>724.887</ele>
<time>2020-09-11T13:04:18Z</time>
</trkpt>
<trkpt lat="47.699867" lon="10.818162">
<ele>724.973</ele>
<time>2020-09-11T13:04:19Z</time>
</trkpt>
<trkpt lat="47.699841" lon="10.818227">
<ele>725.013</ele>
<time>2020-09-11T13:04:20Z</time>
</trkpt>
<trkpt lat="47.699814" lon="10.818292">
<ele>725.287</ele>
<time>2020-09-11T13:04:21Z</time>
</trkpt>
<trkpt lat="47.699791" lon="10.818357">
<ele>725.483</ele>
<time>2020-09-11T13:04:22Z</time>
</trkpt>
<trkpt lat="47.699764" lon="10.818422">
<ele>725.659</ele>
<time>2020-09-11T13:04:23Z</time>
</trkpt>
<trkpt lat="47.699738" lon="10.818485">
<ele>725.798</ele>
<time>2020-09-11T13:04:24Z</time>
</trkpt>
<trkpt lat="47.699711" lon="10.818545">
<ele>725.905</ele>
<time>2020-09-11T13:04:25Z</time>
</trkpt>
<trkpt lat="47.69968" lon="10.818603">
<ele>725.974</ele>
<time>2020-09-11T13:04:26Z</time>
</trkpt>
<trkpt lat="47.69965" lon="10.818662">
<ele>726.265</ele>
<time>2020-09-11T13:04:27Z</time>
</trkpt>
<trkpt lat="47.699619" lon="10.818718">
<ele>726.491</ele>
<time>2020-09-11T13:04:28Z</time>
</trkpt>
<trkpt lat="47.699585" lon="10.818776">
<ele>726.685</ele>
<time>2020-09-11T13:04:29Z</time>
</trkpt>
<trkpt lat="47.699551" lon="10.818833">
<ele>726.804</ele>
<time>2020-09-11T13:04:30Z</time>
</trkpt>
<trkpt lat="47.699516" lon="10.81889">
<ele>726.871</ele>
<time>2020-09-11T13:04:31Z</time>
</trkpt>
<trkpt lat="47.699482" lon="10.818948">
<ele>727.153</ele>
<time>2020-09-11T13:04:32Z</time>
</trkpt>
<trkpt lat="47.699451" lon="10.819003">
<ele>727.397</ele>
<time>2020-09-11T13:04:33Z</time>
</trkpt>
<trkpt lat="47.699417" lon="10.819057">
<ele>727.576</ele>
<time>2020-09-11T13:04:34Z</time>
</trkpt>
<trkpt lat="47.699387" lon="10.819108">
<ele>727.698</ele>
<time>2020-09-11T13:04:35Z</time>
</trkpt>
<trkpt lat="47.699352" lon="10.819161">
<ele>727.791</ele>
<time>2020-09-11T13:04:36Z</time>
</trkpt>
<trkpt lat="47.699322" lon="10.819217">
<ele>727.86</ele>
<time>2020-09-11T13:04:37Z</time>
</trkpt>
<trkpt lat="47.699287" lon="10.819271">
<ele>727.901</ele>
<time>2020-09-11T13:04:38Z</time>
</trkpt>
<trkpt lat="47.699253" lon="10.819328">
<ele>728.186</ele>
<time>2020-09-11T13:04:39Z</time>
</trkpt>
<trkpt lat="47.699219" lon="10.819384">
<ele>728.419</ele>
<time>2020-09-11T13:04:40Z</time>
</trkpt>
<trkpt lat="47.699184" lon="10.819438">
<ele>728.588</ele>
<time>2020-09-11T13:04:41Z</time>
</trkpt>
<trkpt lat="47.699154" lon="10.819493">
<ele>728.702</ele>
<time>2020-09-11T13:04:42Z</time>
</trkpt>
<trkpt lat="47.69912" lon="10.819549">
<ele>728.827</ele>
<time>2020-09-11T13:04:43Z</time>
</trkpt>
<trkpt lat="47.699085" lon="10.819605">
<ele>728.913</ele>
<time>2020-09-11T13:04:44Z</time>
</trkpt>
<trkpt lat="47.699055" lon="10.819662">
<ele>728.97</ele>
<time>2020-09-11T13:04:45Z</time>
</trkpt>
<trkpt lat="47.69902" lon="10.819718">
<ele>728.996</ele>
<time>2020-09-11T13:04:46Z</time>
</trkpt>
<trkpt lat="47.69899" lon="10.819777">
<ele>728.996</ele>
<time>2020-09-11T13:04:47Z</time>
</trkpt>
<trkpt lat="47.698952" lon="10.819834">
<ele>728.996</ele>
<time>2020-09-11T13:04:48Z</time>
</trkpt>
<trkpt lat="47.698921" lon="10.819893">
<ele>728.996</ele>
<time>2020-09-11T13:04:49Z</time>
</trkpt>
<trkpt lat="47.698887" lon="10.819952">
<ele>728.996</ele>
<time>2020-09-11T13:04:50Z</time>
</trkpt>
<trkpt lat="47.698856" lon="10.820012">
<ele>728.996</ele>
<time>2020-09-11T13:04:51Z</time>
</trkpt>
<trkpt lat="47.698822" lon="10.820075">
<ele>728.996</ele>
<time>2020-09-11T13:04:52Z</time>
</trkpt>
<trkpt lat="47.698792" lon="10.820138">
<ele>728.996</ele>
<time>2020-09-11T13:04:53Z</time>
</trkpt>
<trkpt lat="47.698761" lon="10.820205">
<ele>728.996</ele>
<time>2020-09-11T13:04:54Z</time>
</trkpt>
<trkpt lat="47.698727" lon="10.820271">
<ele>728.996</ele>
<time>2020-09-11T13:04:55Z</time>
</trkpt>
<trkpt lat="47.698696" lon="10.820341">
<ele>728.996</ele>
<time>2020-09-11T13:04:56Z</time>
</trkpt>
<trkpt lat="47.698666" lon="10.820413">
<ele>728.996</ele>
<time>2020-09-11T13:04:57Z</time>
</trkpt>
<trkpt lat="47.698639" lon="10.820486">
<ele>728.996</ele>
<time>2020-09-11T13:04:58Z</time>
</trkpt>
<trkpt lat="47.698608" lon="10.820561">
<ele>728.996</ele>
<time>2020-09-11T13:04:59Z</time>
</trkpt>
<trkpt lat="47.698586" lon="10.820641">
<ele>728.996</ele>
<time>2020-09-11T13:05:00Z</time>
</trkpt>
<trkpt lat="47.698563" lon="10.820721">
<ele>728.996</ele>
<time>2020-09-11T13:05:01Z</time>
</trkpt>
<trkpt lat="47.698532" lon="10.8208">
<ele>728.996</ele>
<time>2020-09-11T13:05:02Z</time>
</trkpt>
<trkpt lat="47.698513" lon="10.820882">
<ele>728.996</ele>
<time>2020-09-11T13:05:03Z</time>
</trkpt>
<trkpt lat="47.69849" lon="10.820964">
<ele>728.996</ele>
<time>2020-09-11T13:05:04Z</time>
</trkpt>
<trkpt lat="47.698467" lon="10.821045">
<ele>728.996</ele>
<time>2020-09-11T13:05:05Z</time>
</trkpt>
<trkpt lat="47.698452" lon="10.82113">
<ele>728.996</ele>
<time>2020-09-11T13:05:06Z</time>
</trkpt>
<trkpt lat="47.698433" lon="10.821217">
<ele>728.996</ele>
<time>2020-09-11T13:05:07Z</time>
</trkpt>
<trkpt lat="47.698425" lon="10.821293">
<ele>728.996</ele>
<time>2020-09-11T13:05:08Z</time>
</trkpt>
<trkpt lat="47.698414" lon="10.821374">
<ele>728.996</ele>
<time>2020-09-11T13:05:09Z</time>
</trkpt>
<trkpt lat="47.698402" lon="10.82146">
<ele>728.996</ele>
<time>2020-09-11T13:05:10Z</time>
</trkpt>
<trkpt lat="47.698395" lon="10.821548">
<ele>728.996</ele>
<time>2020-09-11T13:05:11Z</time>
</trkpt>
<trkpt lat="47.698387" lon="10.821636">
<ele>728.996</ele>
<time>2020-09-11T13:05:12Z</time>
</trkpt>
<trkpt lat="47.69838" lon="10.821729">
<ele>728.996</ele>
<time>2020-09-11T13:05:13Z</time>
</trkpt>
<trkpt lat="47.698376" lon="10.821816">
<ele>728.996</ele>
<time>2020-09-11T13:05:14Z</time>
</trkpt>
<trkpt lat="47.698372" lon="10.821906">
<ele>728.996</ele>
<time>2020-09-11T13:05:15Z</time>
</trkpt>
<trkpt lat="47.698372" lon="10.822005">
<ele>728.996</ele>
<time>2020-09-11T13:05:16Z</time>
</trkpt>
<trkpt lat="47.698372" lon="10.8221">
<ele>728.996</ele>
<time>2020-09-11T13:05:17Z</time>
</trkpt>
<trkpt lat="47.698372" lon="10.822195">
<ele>728.996</ele>
<time>2020-09-11T13:05:18Z</time>
</trkpt>
<trkpt lat="47.69838" lon="10.822289">
<ele>728.996</ele>
<time>2020-09-11T13:05:19Z</time>
</trkpt>
<trkpt lat="47.698387" lon="10.82238">
<ele>728.996</ele>
<time>2020-09-11T13:05:20Z</time>
</trkpt>
<trkpt lat="47.698395" lon="10.822472">
<ele>728.996</ele>
<time>2020-09-11T13:05:21Z</time>
</trkpt>
<trkpt lat="47.698402" lon="10.822564">
<ele>728.996</ele>
<time>2020-09-11T13:05:22Z</time>
</trkpt>
<trkpt lat="47.698418" lon="10.822655">
<ele>728.996</ele>
<time>2020-09-11T13:05:23Z</time>
</trkpt>
<trkpt lat="47.698433" lon="10.822744">
<ele>728.996</ele>
<time>2020-09-11T13:05:24Z</time>
</trkpt>
<trkpt lat="47.698444" lon="10.822835">
<ele>728.996</ele>
<time>2020-09-11T13:05:25Z</time>
</trkpt>
<trkpt lat="47.698463" lon="10.822927">
<ele>728.996</ele>
<time>2020-09-11T13:05:26Z</time>
</trkpt>
<trkpt lat="47.698483" lon="10.823013">
<ele>728.996</ele>
<time>2020-09-11T13:05:27Z</time>
</trkpt>
<trkpt lat="47.698505" lon="10.823103">
<ele>728.759</ele>
<time>2020-09-11T13:05:28Z</time>
</trkpt>
<trkpt lat="47.698528" lon="10.823194">
<ele>728.574</ele>
<time>2020-09-11T13:05:29Z</time>
</trkpt>
<trkpt lat="47.698551" lon="10.823283">
<ele>728.433</ele>
<time>2020-09-11T13:05:30Z</time>
</trkpt>
<trkpt lat="47.698578" lon="10.823371">
<ele>728.325</ele>
<time>2020-09-11T13:05:31Z</time>
</trkpt>
<trkpt lat="47.698601" lon="10.823459">
<ele>728.252</ele>
<time>2020-09-11T13:05:32Z</time>
</trkpt>
<trkpt lat="47.698627" lon="10.823546">
<ele>728.176</ele>
<time>2020-09-11T13:05:33Z</time>
</trkpt>
<trkpt lat="47.69865" lon="10.823635">
<ele>728.128</ele>
<time>2020-09-11T13:05:34Z</time>
</trkpt>
<trkpt lat="47.698677" lon="10.823721">
<ele>728.104</ele>
<time>2020-09-11T13:05:35Z</time>
</trkpt>
<trkpt lat="47.698704" lon="10.823811">
<ele>728.104</ele>
<time>2020-09-11T13:05:36Z</time>
</trkpt>
<trkpt lat="47.69873" lon="10.8239">
<ele>728.104</ele>
<time>2020-09-11T13:05:37Z</time>
</trkpt>
<trkpt lat="47.698761" lon="10.823989">
<ele>728.104</ele>
<time>2020-09-11T13:05:38Z</time>
</trkpt>
<trkpt lat="47.698784" lon="10.824079">
<ele>728.104</ele>
<time>2020-09-11T13:05:39Z</time>
</trkpt>
<trkpt lat="47.698811" lon="10.824171">
<ele>728.104</ele>
<time>2020-09-11T13:05:40Z</time>
</trkpt>
<trkpt lat="47.698841" lon="10.824262">
<ele>728.104</ele>
<time>2020-09-11T13:05:41Z</time>
</trkpt>
<trkpt lat="47.698868" lon="10.824347">
<ele>728.104</ele>
<time>2020-09-11T13:05:42Z</time>
</trkpt>
<trkpt lat="47.698891" lon="10.824433">
<ele>728.104</ele>
<time>2020-09-11T13:05:43Z</time>
</trkpt>
<trkpt lat="47.698917" lon="10.824523">
<ele>727.813</ele>
<time>2020-09-11T13:05:44Z</time>
</trkpt>
<trkpt lat="47.698944" lon="10.824618">
<ele>727.588</ele>
<time>2020-09-11T13:05:45Z</time>
</trkpt>
<trkpt lat="47.698975" lon="10.824714">
<ele>727.415</ele>
<time>2020-09-11T13:05:46Z</time>
</trkpt>
<trkpt lat="47.698997" lon="10.824806">
<ele>727.292</ele>
<time>2020-09-11T13:05:47Z</time>
</trkpt>
<trkpt lat="47.69902" lon="10.8249">
<ele>727.207</ele>
<time>2020-09-11T13:05:48Z</time>
</trkpt>
<trkpt lat="47.699043" lon="10.824992">
<ele>727.152</ele>
<time>2020-09-11T13:05:49Z</time>
</trkpt>
<trkpt lat="47.699066" lon="10.825085">
<ele>727.127</ele>
<time>2020-09-11T13:05:50Z</time>
</trkpt>
<trkpt lat="47.699085" lon="10.825178">
<ele>727.124</ele>
<time>2020-09-11T13:05:51Z</time>
</trkpt>
<trkpt lat="47.699104" lon="10.825275">
<ele>727.124</ele>
<time>2020-09-11T13:05:52Z</time>
</trkpt>
<trkpt lat="47.699127" lon="10.825374">
<ele>727.124</ele>
<time>2020-09-11T13:05:53Z</time>
</trkpt>
<trkpt lat="47.699146" lon="10.825472">
<ele>727.124</ele>
<time>2020-09-11T13:05:54Z</time>
</trkpt>
<trkpt lat="47.699162" lon="10.825568">
<ele>727.124</ele>
<time>2020-09-11T13:05:55Z</time>
</trkpt>
<trkpt lat="47.699177" lon="10.825664">
<ele>727.124</ele>
<time>2020-09-11T13:05:56Z</time>
</trkpt>
<trkpt lat="47.699192" lon="10.825764">
<ele>727.124</ele>
<time>2020-09-11T13:05:57Z</time>
</trkpt>
<trkpt lat="47.699211" lon="10.825864">
<ele>727.124</ele>
<time>2020-09-11T13:05:58Z</time>
</trkpt>
<trkpt lat="47.69923" lon="10.825965">
<ele>727.124</ele>
<time>2020-09-11T13:05:59Z</time>
</trkpt>
<trkpt lat="47.699249" lon="10.826063">
<ele>727.124</ele>
<time>2020-09-11T13:06:00Z</time>
</trkpt>
<trkpt lat="47.699276" lon="10.826159">
<ele>727.124</ele>
<time>2020-09-11T13:06:01Z</time>
</trkpt>
<trkpt lat="47.699295" lon="10.826257">
<ele>726.905</ele>
<time>2020-09-11T13:06:02Z</time>
</trkpt>
<trkpt lat="47.699318" lon="10.826352">
<ele>726.697</ele>
<time>2020-09-11T13:06:03Z</time>
</trkpt>
<trkpt lat="47.699348" lon="10.826448">
<ele>726.529</ele>
<time>2020-09-11T13:06:04Z</time>
</trkpt>
<trkpt lat="47.699371" lon="10.826541">
<ele>726.396</ele>
<time>2020-09-11T13:06:05Z</time>
</trkpt>
<trkpt lat="47.699398" lon="10.826635">
<ele>726.292</ele>
<time>2020-09-11T13:06:06Z</time>
</trkpt>
<trkpt lat="47.699429" lon="10.82673">
<ele>726.216</ele>
<time>2020-09-11T13:06:07Z</time>
</trkpt>
<trkpt lat="47.699463" lon="10.826825">
<ele>726.167</ele>
<time>2020-09-11T13:06:08Z</time>
</trkpt>
<trkpt lat="47.699497" lon="10.826917">
<ele>726.143</ele>
<time>2020-09-11T13:06:09Z</time>
</trkpt>
<trkpt lat="47.699532" lon="10.82701">
<ele>725.919</ele>
<time>2020-09-11T13:06:10Z</time>
</trkpt>
<trkpt lat="47.699577" lon="10.827104">
<ele>725.74</ele>
<time>2020-09-11T13:06:11Z</time>
</trkpt>
<trkpt lat="47.699619" lon="10.827192">
<ele>725.62</ele>
<time>2020-09-11T13:06:12Z</time>
</trkpt>
<trkpt lat="47.699657" lon="10.827276">
<ele>725.495</ele>
<time>2020-09-11T13:06:13Z</time>
</trkpt>
<trkpt lat="47.699711" lon="10.827365">
<ele>725.107</ele>
<time>2020-09-11T13:06:14Z</time>
</trkpt>
<trkpt lat="47.699768" lon="10.82745">
<ele>724.798</ele>
<time>2020-09-11T13:06:15Z</time>
</trkpt>
<trkpt lat="47.699821" lon="10.827536">
<ele>724.554</ele>
<time>2020-09-11T13:06:16Z</time>
</trkpt>
<trkpt lat="47.699875" lon="10.827621">
<ele>724.41</ele>
<time>2020-09-11T13:06:17Z</time>
</trkpt>
<trkpt lat="47.699936" lon="10.827706">
<ele>723.928</ele>
<time>2020-09-11T13:06:18Z</time>
</trkpt>
<trkpt lat="47.699997" lon="10.827791">
<ele>723.655</ele>
<time>2020-09-11T13:06:19Z</time>
</trkpt>
<trkpt lat="47.700062" lon="10.827877">
<ele>723.496</ele>
<time>2020-09-11T13:06:20Z</time>
</trkpt>
<trkpt lat="47.700123" lon="10.827959">
<ele>723.124</ele>
<time>2020-09-11T13:06:21Z</time>
</trkpt>
<trkpt lat="47.700188" lon="10.82804">
<ele>722.861</ele>
<time>2020-09-11T13:06:22Z</time>
</trkpt>
<trkpt lat="47.700253" lon="10.828127">
<ele>722.6</ele>
<time>2020-09-11T13:06:23Z</time>
</trkpt>
<trkpt lat="47.70031" lon="10.828213">
<ele>722.426</ele>
<time>2020-09-11T13:06:24Z</time>
</trkpt>
<trkpt lat="47.700367" lon="10.828301">
<ele>722.049</ele>
<time>2020-09-11T13:06:25Z</time>
</trkpt>
<trkpt lat="47.700424" lon="10.828393">
<ele>721.769</ele>
<time>2020-09-11T13:06:26Z</time>
</trkpt>
<trkpt lat="47.700478" lon="10.828488">
<ele>721.588</ele>
<time>2020-09-11T13:06:27Z</time>
</trkpt>
<trkpt lat="47.700523" lon="10.828584">
<ele>721.162</ele>
<time>2020-09-11T13:06:28Z</time>
</trkpt>
<trkpt lat="47.700577" lon="10.828685">
<ele>720.76</ele>
<time>2020-09-11T13:06:29Z</time>
</trkpt>
<trkpt lat="47.700619" lon="10.828789">
<ele>720.533</ele>
<time>2020-09-11T13:06:30Z</time>
</trkpt>
<trkpt lat="47.700665" lon="10.828894">
<ele>720.379</ele>
<time>2020-09-11T13:06:31Z</time>
</trkpt>
<trkpt lat="47.700706" lon="10.829002">
<ele>720.263</ele>
<time>2020-09-11T13:06:32Z</time>
</trkpt>
<trkpt lat="47.700745" lon="10.829111">
<ele>720.171</ele>
<time>2020-09-11T13:06:33Z</time>
</trkpt>
<trkpt lat="47.700783" lon="10.829225">
<ele>720.114</ele>
<time>2020-09-11T13:06:34Z</time>
</trkpt>
<trkpt lat="47.700813" lon="10.829342">
<ele>719.844</ele>
<time>2020-09-11T13:06:35Z</time>
</trkpt>
<trkpt lat="47.70084" lon="10.829459">
<ele>719.578</ele>
<time>2020-09-11T13:06:36Z</time>
</trkpt>
<trkpt lat="47.700863" lon="10.829578">
<ele>719.413</ele>
<time>2020-09-11T13:06:37Z</time>
</trkpt>
<trkpt lat="47.700878" lon="10.829697">
<ele>719.29</ele>
<time>2020-09-11T13:06:38Z</time>
</trkpt>
<trkpt lat="47.700897" lon="10.829815">
<ele>719.206</ele>
<time>2020-09-11T13:06:39Z</time>
</trkpt>
<trkpt lat="47.700912" lon="10.82993">
<ele>719.154</ele>
<time>2020-09-11T13:06:40Z</time>
</trkpt>
<trkpt lat="47.70092" lon="10.830046">
<ele>719.126</ele>
<time>2020-09-11T13:06:41Z</time>
</trkpt>
<trkpt lat="47.700928" lon="10.83016">
<ele>719.103</ele>
<time>2020-09-11T13:06:42Z</time>
</trkpt>
<trkpt lat="47.700932" lon="10.830274">
<ele>718.87</ele>
<time>2020-09-11T13:06:43Z</time>
</trkpt>
<trkpt lat="47.700928" lon="10.830387">
<ele>718.672</ele>
<time>2020-09-11T13:06:44Z</time>
</trkpt>
<trkpt lat="47.700924" lon="10.830497">
<ele>718.507</ele>
<time>2020-09-11T13:06:45Z</time>
</trkpt>
<trkpt lat="47.700916" lon="10.830608">
<ele>718.374</ele>
<time>2020-09-11T13:06:46Z</time>
</trkpt>
<trkpt lat="47.700909" lon="10.830716">
<ele>718.271</ele>
<time>2020-09-11T13:06:47Z</time>
</trkpt>
<trkpt lat="47.700897" lon="10.830825">
<ele>718.195</ele>
<time>2020-09-11T13:06:48Z</time>
</trkpt>
<trkpt lat="47.700878" lon="10.83093">
<ele>718.147</ele>
<time>2020-09-11T13:06:49Z</time>
</trkpt>
<trkpt lat="47.700867" lon="10.831033">
<ele>718.124</ele>
<time>2020-09-11T13:06:50Z</time>
</trkpt>
<trkpt lat="47.700848" lon="10.831135">
<ele>718.124</ele>
<time>2020-09-11T13:06:51Z</time>
</trkpt>
<trkpt lat="47.700825" lon="10.831234">
<ele>718.124</ele>
<time>2020-09-11T13:06:52Z</time>
</trkpt>
<trkpt lat="47.700802" lon="10.831332">
<ele>718.124</ele>
<time>2020-09-11T13:06:53Z</time>
</trkpt>
<trkpt lat="47.700771" lon="10.831425">
<ele>718.124</ele>
<time>2020-09-11T13:06:54Z</time>
</trkpt>
<trkpt lat="47.700741" lon="10.831516">
<ele>718.124</ele>
<time>2020-09-11T13:06:55Z</time>
</trkpt>
<trkpt lat="47.70071" lon="10.831609">
<ele>718.124</ele>
<time>2020-09-11T13:06:56Z</time>
</trkpt>
<trkpt lat="47.70068" lon="10.831698">
<ele>718.124</ele>
<time>2020-09-11T13:06:57Z</time>
</trkpt>
<trkpt lat="47.700649" lon="10.831785">
<ele>718.124</ele>
<time>2020-09-11T13:06:58Z</time>
</trkpt>
<trkpt lat="47.700611" lon="10.831868">
<ele>718.124</ele>
<time>2020-09-11T13:06:59Z</time>
</trkpt>
<trkpt lat="47.700581" lon="10.831948">
<ele>718.124</ele>
<time>2020-09-11T13:07:00Z</time>
</trkpt>
<trkpt lat="47.700546" lon="10.83203">
<ele>718.124</ele>
<time>2020-09-11T13:07:01Z</time>
</trkpt>
<trkpt lat="47.700512" lon="10.832108">
<ele>718.124</ele>
<time>2020-09-11T13:07:02Z</time>
</trkpt>
<trkpt lat="47.700478" lon="10.832187">
<ele>718.124</ele>
<time>2020-09-11T13:07:03Z</time>
</trkpt>
<trkpt lat="47.700443" lon="10.832262">
<ele>718.124</ele>
<time>2020-09-11T13:07:04Z</time>
</trkpt>
<trkpt lat="47.700409" lon="10.832336">
<ele>718.124</ele>
<time>2020-09-11T13:07:05Z</time>
</trkpt>
<trkpt lat="47.700375" lon="10.832414">
<ele>718.124</ele>
<time>2020-09-11T13:07:06Z</time>
</trkpt>
<trkpt lat="47.700336" lon="10.832487">
<ele>718.388</ele>
<time>2020-09-11T13:07:07Z</time>
</trkpt>
<trkpt lat="47.700306" lon="10.832558">
<ele>718.596</ele>
<time>2020-09-11T13:07:08Z</time>
</trkpt>
<trkpt lat="47.700272" lon="10.832628">
<ele>718.755</ele>
<time>2020-09-11T13:07:09Z</time>
</trkpt>
<trkpt lat="47.700241" lon="10.832698">
<ele>718.874</ele>
<time>2020-09-11T13:07:10Z</time>
</trkpt>
<trkpt lat="47.700207" lon="10.832767">
<ele>718.957</ele>
<time>2020-09-11T13:07:11Z</time>
</trkpt>
<trkpt lat="47.700172" lon="10.83284">
<ele>719.021</ele>
<time>2020-09-11T13:07:12Z</time>
</trkpt>
<trkpt lat="47.700138" lon="10.83291">
<ele>719.076</ele>
<time>2020-09-11T13:07:13Z</time>
</trkpt>
<trkpt lat="47.700111" lon="10.83298">
<ele>719.103</ele>
<time>2020-09-11T13:07:14Z</time>
</trkpt>
<trkpt lat="47.700077" lon="10.833052">
<ele>719.103</ele>
<time>2020-09-11T13:07:15Z</time>
</trkpt>
<trkpt lat="47.700047" lon="10.833125">
<ele>719.103</ele>
<time>2020-09-11T13:07:16Z</time>
</trkpt>
<trkpt lat="47.700024" lon="10.8332">
<ele>719.103</ele>
<time>2020-09-11T13:07:17Z</time>
</trkpt>
<trkpt lat="47.699997" lon="10.833275">
<ele>719.104</ele>
<time>2020-09-11T13:07:18Z</time>
</trkpt>
<trkpt lat="47.69997" lon="10.833354">
<ele>719.103</ele>
<time>2020-09-11T13:07:19Z</time>
</trkpt>
<trkpt lat="47.699944" lon="10.833429">
<ele>719.103</ele>
<time>2020-09-11T13:07:20Z</time>
</trkpt>
<trkpt lat="47.699921" lon="10.833508">
<ele>719.103</ele>
<time>2020-09-11T13:07:21Z</time>
</trkpt>
<trkpt lat="47.699902" lon="10.833589">
<ele>719.103</ele>
<time>2020-09-11T13:07:22Z</time>
</trkpt>
<trkpt lat="47.699879" lon="10.833669">
<ele>719.103</ele>
<time>2020-09-11T13:07:23Z</time>
</trkpt>
<trkpt lat="47.69986" lon="10.833748">
<ele>719.103</ele>
<time>2020-09-11T13:07:24Z</time>
</trkpt>
<trkpt lat="47.699837" lon="10.83383">
<ele>719.361</ele>
<time>2020-09-11T13:07:25Z</time>
</trkpt>
<trkpt lat="47.699825" lon="10.833915">
<ele>719.561</ele>
<time>2020-09-11T13:07:26Z</time>
</trkpt>
<trkpt lat="47.69981" lon="10.833997">
<ele>719.715</ele>
<time>2020-09-11T13:07:27Z</time>
</trkpt>
<trkpt lat="47.699799" lon="10.834082">
<ele>719.827</ele>
<time>2020-09-11T13:07:28Z</time>
</trkpt>
<trkpt lat="47.699783" lon="10.834165">
<ele>719.903</ele>
<time>2020-09-11T13:07:29Z</time>
</trkpt>
<trkpt lat="47.699772" lon="10.834249">
<ele>719.948</ele>
<time>2020-09-11T13:07:30Z</time>
</trkpt>
<trkpt lat="47.699764" lon="10.834332">
<ele>719.974</ele>
<time>2020-09-11T13:07:31Z</time>
</trkpt>
<trkpt lat="47.699753" lon="10.834416">
<ele>719.995</ele>
<time>2020-09-11T13:07:32Z</time>
</trkpt>
<trkpt lat="47.699745" lon="10.834504">
<ele>719.994</ele>
<time>2020-09-11T13:07:33Z</time>
</trkpt>
<trkpt lat="47.699738" lon="10.834588">
<ele>719.995</ele>
<time>2020-09-11T13:07:34Z</time>
</trkpt>
<trkpt lat="47.69973" lon="10.834675">
<ele>719.994</ele>
<time>2020-09-11T13:07:35Z</time>
</trkpt>
<trkpt lat="47.699722" lon="10.834764">
<ele>719.995</ele>
<time>2020-09-11T13:07:36Z</time>
</trkpt>
<trkpt lat="47.699715" lon="10.834848">
<ele>719.995</ele>
<time>2020-09-11T13:07:37Z</time>
</trkpt>
<trkpt lat="47.699707" lon="10.834933">
<ele>719.995</ele>
<time>2020-09-11T13:07:38Z</time>
</trkpt>
<trkpt lat="47.699703" lon="10.835018">
<ele>719.995</ele>
<time>2020-09-11T13:07:39Z</time>
</trkpt>
<trkpt lat="47.699696" lon="10.835101">
<ele>719.995</ele>
<time>2020-09-11T13:07:40Z</time>
</trkpt>
<trkpt lat="47.699692" lon="10.835185">
<ele>719.995</ele>
<time>2020-09-11T13:07:41Z</time>
</trkpt>
<trkpt lat="47.69968" lon="10.835269">
<ele>719.995</ele>
<time>2020-09-11T13:07:42Z</time>
</trkpt>
<trkpt lat="47.699673" lon="10.835353">
<ele>719.995</ele>
<time>2020-09-11T13:07:43Z</time>
</trkpt>
<trkpt lat="47.699665" lon="10.835437">
<ele>719.994</ele>
<time>2020-09-11T13:07:44Z</time>
</trkpt>
<trkpt lat="47.699654" lon="10.83552">
<ele>719.995</ele>
<time>2020-09-11T13:07:45Z</time>
</trkpt>
<trkpt lat="47.699642" lon="10.835604">
<ele>720.295</ele>
<time>2020-09-11T13:07:46Z</time>
</trkpt>
<trkpt lat="47.699631" lon="10.835687">
<ele>720.527</ele>
<time>2020-09-11T13:07:47Z</time>
</trkpt>
<trkpt lat="47.699615" lon="10.83577">
<ele>720.708</ele>
<time>2020-09-11T13:07:48Z</time>
</trkpt>
<trkpt lat="47.699604" lon="10.835852">
<ele>720.839</ele>
<time>2020-09-11T13:07:49Z</time>
</trkpt>
<trkpt lat="47.699585" lon="10.835935">
<ele>720.93</ele>
<time>2020-09-11T13:07:50Z</time>
</trkpt>
<trkpt lat="47.69957" lon="10.836017">
<ele>720.987</ele>
<time>2020-09-11T13:07:51Z</time>
</trkpt>
<trkpt lat="47.699547" lon="10.836099">
<ele>721.034</ele>
<time>2020-09-11T13:07:52Z</time>
</trkpt>
<trkpt lat="47.699528" lon="10.83618">
<ele>721.064</ele>
<time>2020-09-11T13:07:53Z</time>
</trkpt>
<trkpt lat="47.699509" lon="10.836262">
<ele>721.064</ele>
<time>2020-09-11T13:07:54Z</time>
</trkpt>
<trkpt lat="47.699482" lon="10.836342">
<ele>721.064</ele>
<time>2020-09-11T13:07:55Z</time>
</trkpt>
<trkpt lat="47.699459" lon="10.83642">
<ele>721.064</ele>
<time>2020-09-11T13:07:56Z</time>
</trkpt>
<trkpt lat="47.699436" lon="10.836498">
<ele>721.064</ele>
<time>2020-09-11T13:07:57Z</time>
</trkpt>
<trkpt lat="47.699409" lon="10.836575">
<ele>721.064</ele>
<time>2020-09-11T13:07:58Z</time>
</trkpt>
<trkpt lat="47.699383" lon="10.836652">
<ele>721.064</ele>
<time>2020-09-11T13:07:59Z</time>
</trkpt>
<trkpt lat="47.699356" lon="10.836729">
<ele>721.064</ele>
<time>2020-09-11T13:08:00Z</time>
</trkpt>
<trkpt lat="47.699329" lon="10.836804">
<ele>721.063</ele>
<time>2020-09-11T13:08:01Z</time>
</trkpt>
<trkpt lat="47.699303" lon="10.836878">
<ele>721.281</ele>
<time>2020-09-11T13:08:02Z</time>
</trkpt>
<trkpt lat="47.699272" lon="10.836953">
<ele>721.487</ele>
<time>2020-09-11T13:08:03Z</time>
</trkpt>
<trkpt lat="47.699245" lon="10.837027">
<ele>721.657</ele>
<time>2020-09-11T13:08:04Z</time>
</trkpt>
<trkpt lat="47.699215" lon="10.8371">
<ele>721.792</ele>
<time>2020-09-11T13:08:05Z</time>
</trkpt>
<trkpt lat="47.699184" lon="10.837173">
<ele>721.897</ele>
<time>2020-09-11T13:08:06Z</time>
</trkpt>
<trkpt lat="47.699154" lon="10.837249">
<ele>721.972</ele>
<time>2020-09-11T13:08:07Z</time>
</trkpt>
<trkpt lat="47.69912" lon="10.837324">
<ele>722.02</ele>
<time>2020-09-11T13:08:08Z</time>
</trkpt>
<trkpt lat="47.699085" lon="10.837399">
<ele>722.044</ele>
<time>2020-09-11T13:08:09Z</time>
</trkpt>
<trkpt lat="47.699059" lon="10.837475">
<ele>722.044</ele>
<time>2020-09-11T13:08:10Z</time>
</trkpt>
<trkpt lat="47.699024" lon="10.83755">
<ele>722.044</ele>
<time>2020-09-11T13:08:11Z</time>
</trkpt>
<trkpt lat="47.698994" lon="10.837626">
<ele>722.044</ele>
<time>2020-09-11T13:08:12Z</time>
</trkpt>
<trkpt lat="47.698963" lon="10.837699">
<ele>722.044</ele>
<time>2020-09-11T13:08:13Z</time>
</trkpt>
<trkpt lat="47.698933" lon="10.837773">
<ele>722.044</ele>
<time>2020-09-11T13:08:14Z</time>
</trkpt>
<trkpt lat="47.698906" lon="10.837847">
<ele>722.301</ele>
<time>2020-09-11T13:08:15Z</time>
</trkpt>
<trkpt lat="47.698875" lon="10.837919">
<ele>722.5</ele>
<time>2020-09-11T13:08:16Z</time>
</trkpt>
<trkpt lat="47.698853" lon="10.837995">
<ele>722.652</ele>
<time>2020-09-11T13:08:17Z</time>
</trkpt>
<trkpt lat="47.698826" lon="10.83807">
<ele>722.765</ele>
<time>2020-09-11T13:08:18Z</time>
</trkpt>
<trkpt lat="47.698795" lon="10.838145">
<ele>722.842</ele>
<time>2020-09-11T13:08:19Z</time>
</trkpt>
<trkpt lat="47.698772" lon="10.838221">
<ele>722.891</ele>
<time>2020-09-11T13:08:20Z</time>
</trkpt>
<trkpt lat="47.69875" lon="10.838297">
<ele>722.914</ele>
<time>2020-09-11T13:08:21Z</time>
</trkpt>
<trkpt lat="47.698727" lon="10.838376">
<ele>722.935</ele>
<time>2020-09-11T13:08:22Z</time>
</trkpt>
<trkpt lat="47.6987" lon="10.838457">
<ele>722.935</ele>
<time>2020-09-11T13:08:23Z</time>
</trkpt>
<trkpt lat="47.698677" lon="10.838537">
<ele>722.935</ele>
<time>2020-09-11T13:08:24Z</time>
</trkpt>
<trkpt lat="47.698658" lon="10.838614">
<ele>722.935</ele>
<time>2020-09-11T13:08:25Z</time>
</trkpt>
<trkpt lat="47.698639" lon="10.838695">
<ele>722.935</ele>
<time>2020-09-11T13:08:26Z</time>
</trkpt>
<trkpt lat="47.69862" lon="10.838775">
<ele>722.935</ele>
<time>2020-09-11T13:08:27Z</time>
</trkpt>
<trkpt lat="47.698601" lon="10.838857">
<ele>722.935</ele>
<time>2020-09-11T13:08:28Z</time>
</trkpt>
<trkpt lat="47.698586" lon="10.838938">
<ele>722.935</ele>
<time>2020-09-11T13:08:29Z</time>
</trkpt>
<trkpt lat="47.69857" lon="10.83902">
<ele>722.935</ele>
<time>2020-09-11T13:08:30Z</time>
</trkpt>
<trkpt lat="47.698555" lon="10.839103">
<ele>722.935</ele>
<time>2020-09-11T13:08:31Z</time>
</trkpt>
<trkpt lat="47.69854" lon="10.839187">
<ele>722.935</ele>
<time>2020-09-11T13:08:32Z</time>
</trkpt>
<trkpt lat="47.698532" lon="10.839271">
<ele>722.935</ele>
<time>2020-09-11T13:08:33Z</time>
</trkpt>
<trkpt lat="47.698517" lon="10.839354">
<ele>722.935</ele>
<time>2020-09-11T13:08:34Z</time>
</trkpt>
<trkpt lat="47.698509" lon="10.839438">
<ele>722.935</ele>
<time>2020-09-11T13:08:35Z</time>
</trkpt>
<trkpt lat="47.698502" lon="10.839521">
<ele>722.935</ele>
<time>2020-09-11T13:08:36Z</time>
</trkpt>
<trkpt lat="47.698494" lon="10.839605">
<ele>722.935</ele>
<time>2020-09-11T13:08:37Z</time>
</trkpt>
<trkpt lat="47.698486" lon="10.839687">
<ele>722.935</ele>
<time>2020-09-11T13:08:38Z</time>
</trkpt>
<trkpt lat="47.698475" lon="10.839768">
<ele>722.935</ele>
<time>2020-09-11T13:08:39Z</time>
</trkpt>
<trkpt lat="47.698467" lon="10.83985">
<ele>722.935</ele>
<time>2020-09-11T13:08:40Z</time>
</trkpt>
<trkpt lat="47.698467" lon="10.839931">
<ele>722.935</ele>
<time>2020-09-11T13:08:41Z</time>
</trkpt>
<trkpt lat="47.69846" lon="10.840012">
<ele>722.935</ele>
<time>2020-09-11T13:08:42Z</time>
</trkpt>
<trkpt lat="47.698452" lon="10.840094">
<ele>722.935</ele>
<time>2020-09-11T13:08:43Z</time>
</trkpt>
<trkpt lat="47.698448" lon="10.840176">
<ele>722.935</ele>
<time>2020-09-11T13:08:44Z</time>
</trkpt>
<trkpt lat="47.698444" lon="10.840257">
<ele>722.935</ele>
<time>2020-09-11T13:08:45Z</time>
</trkpt>
<trkpt lat="47.698441" lon="10.840339">
<ele>723.193</ele>
<time>2020-09-11T13:08:46Z</time>
</trkpt>
<trkpt lat="47.698441" lon="10.840422">
<ele>723.396</ele>
<time>2020-09-11T13:08:47Z</time>
</trkpt>
<trkpt lat="47.698437" lon="10.840503">
<ele>723.554</ele>
<time>2020-09-11T13:08:48Z</time>
</trkpt>
<trkpt lat="47.698433" lon="10.840585">
<ele>723.668</ele>
<time>2020-09-11T13:08:49Z</time>
</trkpt>
<trkpt lat="47.698433" lon="10.840667">
<ele>723.752</ele>
<time>2020-09-11T13:08:50Z</time>
</trkpt>
<trkpt lat="47.698429" lon="10.840748">
<ele>723.804</ele>
<time>2020-09-11T13:08:51Z</time>
</trkpt>
<trkpt lat="47.698429" lon="10.84083">
<ele>723.834</ele>
<time>2020-09-11T13:08:52Z</time>
</trkpt>
<trkpt lat="47.698421" lon="10.840911">
<ele>723.889</ele>
<time>2020-09-11T13:08:53Z</time>
</trkpt>
<trkpt lat="47.698418" lon="10.840993">
<ele>723.915</ele>
<time>2020-09-11T13:08:54Z</time>
</trkpt>
<trkpt lat="47.69841" lon="10.841075">
<ele>723.915</ele>
<time>2020-09-11T13:08:55Z</time>
</trkpt>
<trkpt lat="47.698406" lon="10.841155">
<ele>723.915</ele>
<time>2020-09-11T13:08:56Z</time>
</trkpt>
<trkpt lat="47.698402" lon="10.841235">
<ele>723.915</ele>
<time>2020-09-11T13:08:57Z</time>
</trkpt>
<trkpt lat="47.698399" lon="10.841315">
<ele>723.915</ele>
<time>2020-09-11T13:08:58Z</time>
</trkpt>
<trkpt lat="47.698387" lon="10.841397">
<ele>723.915</ele>
<time>2020-09-11T13:08:59Z</time>
</trkpt>
<trkpt lat="47.69838" lon="10.841476">
<ele>723.915</ele>
<time>2020-09-11T13:09:00Z</time>
</trkpt>
<trkpt lat="47.698368" lon="10.84156">
<ele>723.915</ele>
<time>2020-09-11T13:09:01Z</time>
</trkpt>
<trkpt lat="47.698357" lon="10.841642">
<ele>723.915</ele>
<time>2020-09-11T13:09:02Z</time>
</trkpt>
<trkpt lat="47.698345" lon="10.841725">
<ele>723.915</ele>
<time>2020-09-11T13:09:03Z</time>
</trkpt>
<trkpt lat="47.698338" lon="10.841808">
<ele>723.915</ele>
<time>2020-09-11T13:09:04Z</time>
</trkpt>
<trkpt lat="47.698322" lon="10.841889">
<ele>723.915</ele>
<time>2020-09-11T13:09:05Z</time>
</trkpt>
<trkpt lat="47.698303" lon="10.841971">
<ele>723.915</ele>
<time>2020-09-11T13:09:06Z</time>
</trkpt>
<trkpt lat="47.698292" lon="10.842053">
<ele>723.915</ele>
<time>2020-09-11T13:09:07Z</time>
</trkpt>
<trkpt lat="47.698277" lon="10.842133">
<ele>723.915</ele>
<time>2020-09-11T13:09:08Z</time>
</trkpt>
<trkpt lat="47.698261" lon="10.842214">
<ele>723.915</ele>
<time>2020-09-11T13:09:09Z</time>
</trkpt>
<trkpt lat="47.698242" lon="10.842296">
<ele>723.915</ele>
<time>2020-09-11T13:09:10Z</time>
</trkpt>
<trkpt lat="47.698231" lon="10.842375">
<ele>723.915</ele>
<time>2020-09-11T13:09:11Z</time>
</trkpt>
<trkpt lat="47.698212" lon="10.842455">
<ele>724.133</ele>
<time>2020-09-11T13:09:12Z</time>
</trkpt>
<trkpt lat="47.698196" lon="10.842537">
<ele>724.339</ele>
<time>2020-09-11T13:09:13Z</time>
</trkpt>
<trkpt lat="47.698177" lon="10.842616">
<ele>724.508</ele>
<time>2020-09-11T13:09:14Z</time>
</trkpt>
<trkpt lat="47.698166" lon="10.842696">
<ele>724.644</ele>
<time>2020-09-11T13:09:15Z</time>
</trkpt>
<trkpt lat="47.698151" lon="10.842778">
<ele>724.749</ele>
<time>2020-09-11T13:09:16Z</time>
</trkpt>
<trkpt lat="47.698135" lon="10.842858">
<ele>724.824</ele>
<time>2020-09-11T13:09:17Z</time>
</trkpt>
<trkpt lat="47.69812" lon="10.842939">
<ele>724.872</ele>
<time>2020-09-11T13:09:18Z</time>
</trkpt>
<trkpt lat="47.698109" lon="10.84302">
<ele>724.895</ele>
<time>2020-09-11T13:09:19Z</time>
</trkpt>
<trkpt lat="47.698093" lon="10.843101">
<ele>724.895</ele>
<time>2020-09-11T13:09:20Z</time>
</trkpt>
<trkpt lat="47.698074" lon="10.843176">
<ele>724.895</ele>
<time>2020-09-11T13:09:21Z</time>
</trkpt>
<trkpt lat="47.698063" lon="10.843253">
<ele>724.895</ele>
<time>2020-09-11T13:09:22Z</time>
</trkpt>
<trkpt lat="47.698051" lon="10.843333">
<ele>724.895</ele>
<time>2020-09-11T13:09:23Z</time>
</trkpt>
<trkpt lat="47.698044" lon="10.843415">
<ele>724.895</ele>
<time>2020-09-11T13:09:24Z</time>
</trkpt>
<trkpt lat="47.698032" lon="10.843494">
<ele>724.895</ele>
<time>2020-09-11T13:09:25Z</time>
</trkpt>
<trkpt lat="47.698025" lon="10.843575">
<ele>724.895</ele>
<time>2020-09-11T13:09:26Z</time>
</trkpt>
<trkpt lat="47.698017" lon="10.843656">
<ele>724.895</ele>
<time>2020-09-11T13:09:27Z</time>
</trkpt>
<trkpt lat="47.698009" lon="10.843733">
<ele>724.895</ele>
<time>2020-09-11T13:09:28Z</time>
</trkpt>
<trkpt lat="47.698006" lon="10.843813">
<ele>724.895</ele>
<time>2020-09-11T13:09:29Z</time>
</trkpt>
<trkpt lat="47.698002" lon="10.843893">
<ele>724.895</ele>
<time>2020-09-11T13:09:30Z</time>
</trkpt>
<trkpt lat="47.697998" lon="10.843972">
<ele>724.895</ele>
<time>2020-09-11T13:09:31Z</time>
</trkpt>
<trkpt lat="47.697994" lon="10.844049">
<ele>724.895</ele>
<time>2020-09-11T13:09:32Z</time>
</trkpt>
<trkpt lat="47.697994" lon="10.84413">
<ele>724.982</ele>
<time>2020-09-11T13:09:33Z</time>
</trkpt>
<trkpt lat="47.69799" lon="10.844211">
<ele>725.054</ele>
<time>2020-09-11T13:09:34Z</time>
</trkpt>
<trkpt lat="47.697994" lon="10.84429">
<ele>725.114</ele>
<time>2020-09-11T13:09:35Z</time>
</trkpt>
<trkpt lat="47.697994" lon="10.844368">
<ele>725.163</ele>
<time>2020-09-11T13:09:36Z</time>
</trkpt>
<trkpt lat="47.697994" lon="10.844448">
<ele>725.199</ele>
<time>2020-09-11T13:09:37Z</time>
</trkpt>
<trkpt lat="47.697998" lon="10.844529">
<ele>725.226</ele>
<time>2020-09-11T13:09:38Z</time>
</trkpt>
<trkpt lat="47.698002" lon="10.844608">
<ele>725.243</ele>
<time>2020-09-11T13:09:39Z</time>
</trkpt>
<trkpt lat="47.698002" lon="10.844688">
<ele>725.252</ele>
<time>2020-09-11T13:09:40Z</time>
</trkpt>
<trkpt lat="47.698002" lon="10.844772">
<ele>725.252</ele>
<time>2020-09-11T13:09:41Z</time>
</trkpt>
<trkpt lat="47.698006" lon="10.844853">
<ele>725.252</ele>
<time>2020-09-11T13:09:42Z</time>
</trkpt>
<trkpt lat="47.698009" lon="10.844935">
<ele>725.252</ele>
<time>2020-09-11T13:09:43Z</time>
</trkpt>
<trkpt lat="47.698013" lon="10.845017">
<ele>725.252</ele>
<time>2020-09-11T13:09:44Z</time>
</trkpt>
<trkpt lat="47.698017" lon="10.845097">
<ele>725.252</ele>
<time>2020-09-11T13:09:45Z</time>
</trkpt>
<trkpt lat="47.698021" lon="10.845179">
<ele>725.252</ele>
<time>2020-09-11T13:09:46Z</time>
</trkpt>
<trkpt lat="47.698025" lon="10.845259">
<ele>725.252</ele>
<time>2020-09-11T13:09:47Z</time>
</trkpt>
<trkpt lat="47.698029" lon="10.845336">
<ele>725.486</ele>
<time>2020-09-11T13:09:48Z</time>
</trkpt>
<trkpt lat="47.698032" lon="10.845417">
<ele>725.668</ele>
<time>2020-09-11T13:09:49Z</time>
</trkpt>
<trkpt lat="47.698036" lon="10.845493">
<ele>725.81</ele>
<time>2020-09-11T13:09:50Z</time>
</trkpt>
<trkpt lat="47.698036" lon="10.845572">
<ele>725.918</ele>
<time>2020-09-11T13:09:51Z</time>
</trkpt>
<trkpt lat="47.69804" lon="10.845648">
<ele>725.993</ele>
<time>2020-09-11T13:09:52Z</time>
</trkpt>
<trkpt lat="47.69804" lon="10.845725">
<ele>726.07</ele>
<time>2020-09-11T13:09:53Z</time>
</trkpt>
<trkpt lat="47.698036" lon="10.845803">
<ele>726.119</ele>
<time>2020-09-11T13:09:54Z</time>
</trkpt>
<trkpt lat="47.698036" lon="10.845881">
<ele>726.143</ele>
<time>2020-09-11T13:09:55Z</time>
</trkpt>
<trkpt lat="47.698032" lon="10.84596">
<ele>726.143</ele>
<time>2020-09-11T13:09:56Z</time>
</trkpt>
<trkpt lat="47.698025" lon="10.846038">
<ele>726.143</ele>
<time>2020-09-11T13:09:57Z</time>
</trkpt>
<trkpt lat="47.698017" lon="10.846115">
<ele>726.143</ele>
<time>2020-09-11T13:09:58Z</time>
</trkpt>
<trkpt lat="47.698009" lon="10.846191">
<ele>726.143</ele>
<time>2020-09-11T13:09:59Z</time>
</trkpt>
<trkpt lat="47.698002" lon="10.846269">
<ele>726.143</ele>
<time>2020-09-11T13:10:00Z</time>
</trkpt>
<trkpt lat="47.69799" lon="10.846347">
<ele>726.535</ele>
<time>2020-09-11T13:10:01Z</time>
</trkpt>
<trkpt lat="47.697979" lon="10.846423">
<ele>726.812</ele>
<time>2020-09-11T13:10:02Z</time>
</trkpt>
<trkpt lat="47.697964" lon="10.846501">
<ele>727.098</ele>
<time>2020-09-11T13:10:03Z</time>
</trkpt>
<trkpt lat="47.697948" lon="10.846581">
<ele>727.327</ele>
<time>2020-09-11T13:10:04Z</time>
</trkpt>
<trkpt lat="47.697937" lon="10.846655">
<ele>727.503</ele>
<time>2020-09-11T13:10:05Z</time>
</trkpt>
<trkpt lat="47.697918" lon="10.846728">
<ele>727.629</ele>
<time>2020-09-11T13:10:06Z</time>
</trkpt>
<trkpt lat="47.697903" lon="10.846803">
<ele>727.709</ele>
<time>2020-09-11T13:10:07Z</time>
</trkpt>
<trkpt lat="47.697884" lon="10.846878">
<ele>727.748</ele>
<time>2020-09-11T13:10:08Z</time>
</trkpt>
<trkpt lat="47.697868" lon="10.846953">
<ele>727.748</ele>
<time>2020-09-11T13:10:09Z</time>
</trkpt>
<trkpt lat="47.697849" lon="10.847029">
<ele>727.748</ele>
<time>2020-09-11T13:10:10Z</time>
</trkpt>
<trkpt lat="47.697826" lon="10.847102">
<ele>727.748</ele>
<time>2020-09-11T13:10:11Z</time>
</trkpt>
<trkpt lat="47.697811" lon="10.847177">
<ele>727.748</ele>
<time>2020-09-11T13:10:12Z</time>
</trkpt>
<trkpt lat="47.697788" lon="10.84725">
<ele>727.748</ele>
<time>2020-09-11T13:10:13Z</time>
</trkpt>
<trkpt lat="47.697773" lon="10.847324">
<ele>727.748</ele>
<time>2020-09-11T13:10:14Z</time>
</trkpt>
<trkpt lat="47.69775" lon="10.8474">
<ele>727.748</ele>
<time>2020-09-11T13:10:15Z</time>
</trkpt>
<trkpt lat="47.697739" lon="10.847475">
<ele>727.748</ele>
<time>2020-09-11T13:10:16Z</time>
</trkpt>
<trkpt lat="47.69772" lon="10.847552">
<ele>727.748</ele>
<time>2020-09-11T13:10:17Z</time>
</trkpt>
<trkpt lat="47.697708" lon="10.84763">
<ele>727.748</ele>
<time>2020-09-11T13:10:18Z</time>
</trkpt>
<trkpt lat="47.697693" lon="10.84771">
<ele>727.748</ele>
<time>2020-09-11T13:10:19Z</time>
</trkpt>
<trkpt lat="47.697681" lon="10.847789">
<ele>727.748</ele>
<time>2020-09-11T13:10:20Z</time>
</trkpt>
<trkpt lat="47.697674" lon="10.847871">
<ele>727.748</ele>
<time>2020-09-11T13:10:21Z</time>
</trkpt>
<trkpt lat="47.697662" lon="10.84795">
<ele>727.748</ele>
<time>2020-09-11T13:10:22Z</time>
</trkpt>
<trkpt lat="47.697655" lon="10.848032">
<ele>727.988</ele>
<time>2020-09-11T13:10:23Z</time>
</trkpt>
<trkpt lat="47.697655" lon="10.84811">
<ele>728.188</ele>
<time>2020-09-11T13:10:24Z</time>
</trkpt>
<trkpt lat="47.697655" lon="10.848189">
<ele>728.352</ele>
<time>2020-09-11T13:10:25Z</time>
</trkpt>
<trkpt lat="47.697655" lon="10.848271">
<ele>728.483</ele>
<time>2020-09-11T13:10:26Z</time>
</trkpt>
<trkpt lat="47.697655" lon="10.848351">
<ele>728.584</ele>
<time>2020-09-11T13:10:27Z</time>
</trkpt>
<trkpt lat="47.697662" lon="10.84843">
<ele>728.658</ele>
<time>2020-09-11T13:10:28Z</time>
</trkpt>
<trkpt lat="47.69767" lon="10.848508">
<ele>728.705</ele>
<time>2020-09-11T13:10:29Z</time>
</trkpt>
<trkpt lat="47.697681" lon="10.848585">
<ele>728.729</ele>
<time>2020-09-11T13:10:30Z</time>
</trkpt>
<trkpt lat="47.697689" lon="10.848663">
<ele>728.729</ele>
<time>2020-09-11T13:10:31Z</time>
</trkpt>
<trkpt lat="47.697704" lon="10.848742">
<ele>728.729</ele>
<time>2020-09-11T13:10:32Z</time>
</trkpt>
<trkpt lat="47.697716" lon="10.848818">
<ele>728.945</ele>
<time>2020-09-11T13:10:33Z</time>
</trkpt>
<trkpt lat="47.697735" lon="10.848897">
<ele>729.128</ele>
<time>2020-09-11T13:10:34Z</time>
</trkpt>
<trkpt lat="47.697754" lon="10.848975">
<ele>729.28</ele>
<time>2020-09-11T13:10:35Z</time>
</trkpt>
<trkpt lat="47.697777" lon="10.849052">
<ele>729.399</ele>
<time>2020-09-11T13:10:36Z</time>
</trkpt>
<trkpt lat="47.6978" lon="10.849126">
<ele>729.492</ele>
<time>2020-09-11T13:10:37Z</time>
</trkpt>
<trkpt lat="47.697823" lon="10.849199">
<ele>729.558</ele>
<time>2020-09-11T13:10:38Z</time>
</trkpt>
<trkpt lat="47.697849" lon="10.849272">
<ele>729.6</ele>
<time>2020-09-11T13:10:39Z</time>
</trkpt>
<trkpt lat="47.69788" lon="10.849341">
<ele>729.621</ele>
<time>2020-09-11T13:10:40Z</time>
</trkpt>
<trkpt lat="47.697906" lon="10.849413">
<ele>729.621</ele>
<time>2020-09-11T13:10:41Z</time>
</trkpt>
<trkpt lat="47.697933" lon="10.849483">
<ele>729.621</ele>
<time>2020-09-11T13:10:42Z</time>
</trkpt>
<trkpt lat="47.69796" lon="10.849551">
<ele>729.621</ele>
<time>2020-09-11T13:10:43Z</time>
</trkpt>
<trkpt lat="47.697987" lon="10.84962">
<ele>729.621</ele>
<time>2020-09-11T13:10:44Z</time>
</trkpt>
<trkpt lat="47.698013" lon="10.849691">
<ele>729.621</ele>
<time>2020-09-11T13:10:45Z</time>
</trkpt>
<trkpt lat="47.698044" lon="10.849761">
<ele>729.621</ele>
<time>2020-09-11T13:10:46Z</time>
</trkpt>
<trkpt lat="47.698067" lon="10.849834">
<ele>729.621</ele>
<time>2020-09-11T13:10:47Z</time>
</trkpt>
<trkpt lat="47.698093" lon="10.84991">
<ele>729.621</ele>
<time>2020-09-11T13:10:48Z</time>
</trkpt>
<trkpt lat="47.698116" lon="10.849987">
<ele>729.621</ele>
<time>2020-09-11T13:10:49Z</time>
</trkpt>
<trkpt lat="47.698139" lon="10.850065">
<ele>729.621</ele>
<time>2020-09-11T13:10:50Z</time>
</trkpt>
<trkpt lat="47.698158" lon="10.850143">
<ele>729.621</ele>
<time>2020-09-11T13:10:51Z</time>
</trkpt>
<trkpt lat="47.698174" lon="10.850222">
<ele>729.621</ele>
<time>2020-09-11T13:10:52Z</time>
</trkpt>
<trkpt lat="47.698196" lon="10.8503">
<ele>729.621</ele>
<time>2020-09-11T13:10:53Z</time>
</trkpt>
<trkpt lat="47.698212" lon="10.850379">
<ele>729.997</ele>
<time>2020-09-11T13:10:54Z</time>
</trkpt>
<trkpt lat="47.698231" lon="10.850456">
<ele>730.28</ele>
<time>2020-09-11T13:10:55Z</time>
</trkpt>
<trkpt lat="47.698242" lon="10.850535">
<ele>730.238</ele>
<time>2020-09-11T13:10:56Z</time>
</trkpt>
<trkpt lat="47.698257" lon="10.850614">
<ele>730.198</ele>
<time>2020-09-11T13:10:57Z</time>
</trkpt>
<trkpt lat="47.698269" lon="10.850695">
<ele>730.149</ele>
<time>2020-09-11T13:10:58Z</time>
</trkpt>
<trkpt lat="47.698277" lon="10.850773">
<ele>730.3</ele>
<time>2020-09-11T13:10:59Z</time>
</trkpt>
<trkpt lat="47.698288" lon="10.850854">
<ele>730.409</ele>
<time>2020-09-11T13:11:00Z</time>
</trkpt>
<trkpt lat="47.698299" lon="10.850934">
<ele>730.486</ele>
<time>2020-09-11T13:11:01Z</time>
</trkpt>
<trkpt lat="47.698303" lon="10.851015">
<ele>730.595</ele>
<time>2020-09-11T13:11:02Z</time>
</trkpt>
<trkpt lat="47.698315" lon="10.851097">
<ele>730.637</ele>
<time>2020-09-11T13:11:03Z</time>
</trkpt>
<trkpt lat="47.698322" lon="10.851179">
<ele>730.679</ele>
<time>2020-09-11T13:11:04Z</time>
</trkpt>
<trkpt lat="47.698326" lon="10.851263">
<ele>730.711</ele>
<time>2020-09-11T13:11:05Z</time>
</trkpt>
<trkpt lat="47.698334" lon="10.851343">
<ele>730.757</ele>
<time>2020-09-11T13:11:06Z</time>
</trkpt>
<trkpt lat="47.698338" lon="10.851423">
<ele>730.78</ele>
<time>2020-09-11T13:11:07Z</time>
</trkpt>
<trkpt lat="47.698345" lon="10.851503">
<ele>730.78</ele>
<time>2020-09-11T13:11:08Z</time>
</trkpt>
<trkpt lat="47.698353" lon="10.851582">
<ele>730.78</ele>
<time>2020-09-11T13:11:09Z</time>
</trkpt>
<trkpt lat="47.698364" lon="10.851662">
<ele>730.78</ele>
<time>2020-09-11T13:11:10Z</time>
</trkpt>
<trkpt lat="47.698368" lon="10.851742">
<ele>730.78</ele>
<time>2020-09-11T13:11:11Z</time>
</trkpt>
<trkpt lat="47.69838" lon="10.851822">
<ele>730.78</ele>
<time>2020-09-11T13:11:12Z</time>
</trkpt>
<trkpt lat="47.698391" lon="10.851902">
<ele>730.78</ele>
<time>2020-09-11T13:11:13Z</time>
</trkpt>
<trkpt lat="47.698402" lon="10.851981">
<ele>730.78</ele>
<time>2020-09-11T13:11:14Z</time>
</trkpt>
<trkpt lat="47.698414" lon="10.852059">
<ele>730.78</ele>
<time>2020-09-11T13:11:15Z</time>
</trkpt>
<trkpt lat="47.698429" lon="10.852139">
<ele>730.78</ele>
<time>2020-09-11T13:11:16Z</time>
</trkpt>
<trkpt lat="47.698441" lon="10.852214">
<ele>730.78</ele>
<time>2020-09-11T13:11:17Z</time>
</trkpt>
<trkpt lat="47.698452" lon="10.852288">
<ele>730.78</ele>
<time>2020-09-11T13:11:18Z</time>
</trkpt>
<trkpt lat="47.698467" lon="10.852361">
<ele>730.78</ele>
<time>2020-09-11T13:11:19Z</time>
</trkpt>
<trkpt lat="47.698486" lon="10.852433">
<ele>731.042</ele>
<time>2020-09-11T13:11:20Z</time>
</trkpt>
<trkpt lat="47.698502" lon="10.852505">
<ele>731.252</ele>
<time>2020-09-11T13:11:21Z</time>
</trkpt>
<trkpt lat="47.698524" lon="10.852574">
<ele>731.398</ele>
<time>2020-09-11T13:11:22Z</time>
</trkpt>
<trkpt lat="47.698547" lon="10.852645">
<ele>731.556</ele>
<time>2020-09-11T13:11:23Z</time>
</trkpt>
<trkpt lat="47.69857" lon="10.852715">
<ele>731.678</ele>
<time>2020-09-11T13:11:24Z</time>
</trkpt>
<trkpt lat="47.698597" lon="10.852783">
<ele>731.768</ele>
<time>2020-09-11T13:11:25Z</time>
</trkpt>
<trkpt lat="47.698624" lon="10.85285">
<ele>731.823</ele>
<time>2020-09-11T13:11:26Z</time>
</trkpt>
<trkpt lat="47.69865" lon="10.852917">
<ele>731.85</ele>
<time>2020-09-11T13:11:27Z</time>
</trkpt>
<trkpt lat="47.698681" lon="10.852979">
<ele>731.85</ele>
<time>2020-09-11T13:11:28Z</time>
</trkpt>
<trkpt lat="47.698711" lon="10.85304">
<ele>731.85</ele>
<time>2020-09-11T13:11:29Z</time>
</trkpt>
<trkpt lat="47.698742" lon="10.853102">
<ele>731.85</ele>
<time>2020-09-11T13:11:30Z</time>
</trkpt>
<trkpt lat="47.698772" lon="10.853162">
<ele>731.85</ele>
<time>2020-09-11T13:11:31Z</time>
</trkpt>
<trkpt lat="47.698807" lon="10.853222">
<ele>731.85</ele>
<time>2020-09-11T13:11:32Z</time>
</trkpt>
<trkpt lat="47.698845" lon="10.853278">
<ele>731.85</ele>
<time>2020-09-11T13:11:33Z</time>
</trkpt>
<trkpt lat="47.698879" lon="10.853333">
<ele>731.85</ele>
<time>2020-09-11T13:11:34Z</time>
</trkpt>
<trkpt lat="47.698917" lon="10.853385">
<ele>731.85</ele>
<time>2020-09-11T13:11:35Z</time>
</trkpt>
<trkpt lat="47.698956" lon="10.853437">
<ele>731.85</ele>
<time>2020-09-11T13:11:36Z</time>
</trkpt>
<trkpt lat="47.69899" lon="10.853486">
<ele>731.85</ele>
<time>2020-09-11T13:11:37Z</time>
</trkpt>
<trkpt lat="47.699032" lon="10.853535">
<ele>731.85</ele>
<time>2020-09-11T13:11:38Z</time>
</trkpt>
<trkpt lat="47.69907" lon="10.853583">
<ele>731.85</ele>
<time>2020-09-11T13:11:39Z</time>
</trkpt>
<trkpt lat="47.699116" lon="10.85363">
<ele>731.85</ele>
<time>2020-09-11T13:11:40Z</time>
</trkpt>
<trkpt lat="47.699158" lon="10.853679">
<ele>731.85</ele>
<time>2020-09-11T13:11:41Z</time>
</trkpt>
<trkpt lat="47.699203" lon="10.853726">
<ele>731.85</ele>
<time>2020-09-11T13:11:42Z</time>
</trkpt>
<trkpt lat="47.699249" lon="10.853771">
<ele>731.85</ele>
<time>2020-09-11T13:11:43Z</time>
</trkpt>
<trkpt lat="47.699291" lon="10.853815">
<ele>731.85</ele>
<time>2020-09-11T13:11:44Z</time>
</trkpt>
<trkpt lat="47.699341" lon="10.853857">
<ele>731.85</ele>
<time>2020-09-11T13:11:45Z</time>
</trkpt>
<trkpt lat="47.699383" lon="10.853898">
<ele>731.85</ele>
<time>2020-09-11T13:11:46Z</time>
</trkpt>
<trkpt lat="47.699429" lon="10.853942">
<ele>731.85</ele>
<time>2020-09-11T13:11:47Z</time>
</trkpt>
<trkpt lat="47.699478" lon="10.853985">
<ele>731.85</ele>
<time>2020-09-11T13:11:48Z</time>
</trkpt>
<trkpt lat="47.699524" lon="10.854031">
<ele>731.85</ele>
<time>2020-09-11T13:11:49Z</time>
</trkpt>
<trkpt lat="47.69957" lon="10.854076">
<ele>732.095</ele>
<time>2020-09-11T13:11:50Z</time>
</trkpt>
<trkpt lat="47.699615" lon="10.854123">
<ele>732.291</ele>
<time>2020-09-11T13:11:51Z</time>
</trkpt>
<trkpt lat="47.699661" lon="10.854172">
<ele>732.426</ele>
<time>2020-09-11T13:11:52Z</time>
</trkpt>
<trkpt lat="47.699707" lon="10.854221">
<ele>732.57</ele>
<time>2020-09-11T13:11:53Z</time>
</trkpt>
<trkpt lat="47.699749" lon="10.854274">
<ele>732.679</ele>
<time>2020-09-11T13:11:54Z</time>
</trkpt>
<trkpt lat="47.699791" lon="10.854326">
<ele>732.758</ele>
<time>2020-09-11T13:11:55Z</time>
</trkpt>
<trkpt lat="47.699837" lon="10.854381">
<ele>732.807</ele>
<time>2020-09-11T13:11:56Z</time>
</trkpt>
<trkpt lat="47.699875" lon="10.854437">
<ele>732.831</ele>
<time>2020-09-11T13:11:57Z</time>
</trkpt>
<trkpt lat="47.699913" lon="10.854491">
<ele>732.831</ele>
<time>2020-09-11T13:11:58Z</time>
</trkpt>
<trkpt lat="47.699951" lon="10.85455">
<ele>732.831</ele>
<time>2020-09-11T13:11:59Z</time>
</trkpt>
<trkpt lat="47.699989" lon="10.854611">
<ele>732.831</ele>
<time>2020-09-11T13:12:00Z</time>
</trkpt>
<trkpt lat="47.700027" lon="10.854673">
<ele>732.831</ele>
<time>2020-09-11T13:12:01Z</time>
</trkpt>
<trkpt lat="47.700062" lon="10.854734">
<ele>732.831</ele>
<time>2020-09-11T13:12:02Z</time>
</trkpt>
<trkpt lat="47.700096" lon="10.854798">
<ele>732.831</ele>
<time>2020-09-11T13:12:03Z</time>
</trkpt>
<trkpt lat="47.70013" lon="10.854862">
<ele>732.831</ele>
<time>2020-09-11T13:12:04Z</time>
</trkpt>
<trkpt lat="47.700161" lon="10.854927">
<ele>732.831</ele>
<time>2020-09-11T13:12:05Z</time>
</trkpt>
<trkpt lat="47.700191" lon="10.854994">
<ele>732.831</ele>
<time>2020-09-11T13:12:06Z</time>
</trkpt>
<trkpt lat="47.700222" lon="10.855062">
<ele>732.831</ele>
<time>2020-09-11T13:12:07Z</time>
</trkpt>
<trkpt lat="47.700245" lon="10.855133">
<ele>732.831</ele>
<time>2020-09-11T13:12:08Z</time>
</trkpt>
<trkpt lat="47.700272" lon="10.855206">
<ele>732.831</ele>
<time>2020-09-11T13:12:09Z</time>
</trkpt>
<trkpt lat="47.700294" lon="10.85528">
<ele>732.831</ele>
<time>2020-09-11T13:12:10Z</time>
</trkpt>
<trkpt lat="47.700321" lon="10.855353">
<ele>732.831</ele>
<time>2020-09-11T13:12:11Z</time>
</trkpt>
<trkpt lat="47.700336" lon="10.855426">
<ele>732.831</ele>
<time>2020-09-11T13:12:12Z</time>
</trkpt>
<trkpt lat="47.700359" lon="10.855501">
<ele>732.831</ele>
<time>2020-09-11T13:12:13Z</time>
</trkpt>
<trkpt lat="47.700378" lon="10.855577">
<ele>733.122</ele>
<time>2020-09-11T13:12:14Z</time>
</trkpt>
<trkpt lat="47.700394" lon="10.855652">
<ele>733.35</ele>
<time>2020-09-11T13:12:15Z</time>
</trkpt>
<trkpt lat="47.700413" lon="10.855728">
<ele>733.521</ele>
<time>2020-09-11T13:12:16Z</time>
</trkpt>
<trkpt lat="47.700428" lon="10.855803">
<ele>733.646</ele>
<time>2020-09-11T13:12:17Z</time>
</trkpt>
<trkpt lat="47.700443" lon="10.855883">
<ele>733.734</ele>
<time>2020-09-11T13:12:18Z</time>
</trkpt>
<trkpt lat="47.700455" lon="10.855962">
<ele>733.788</ele>
<time>2020-09-11T13:12:19Z</time>
</trkpt>
<trkpt lat="47.700466" lon="10.856042">
<ele>733.808</ele>
<time>2020-09-11T13:12:20Z</time>
</trkpt>
<trkpt lat="47.700481" lon="10.856122">
<ele>733.812</ele>
<time>2020-09-11T13:12:21Z</time>
</trkpt>
<trkpt lat="47.700489" lon="10.856205">
<ele>733.812</ele>
<time>2020-09-11T13:12:22Z</time>
</trkpt>
<trkpt lat="47.7005" lon="10.856287">
<ele>733.812</ele>
<time>2020-09-11T13:12:23Z</time>
</trkpt>
<trkpt lat="47.700512" lon="10.856368">
<ele>733.812</ele>
<time>2020-09-11T13:12:24Z</time>
</trkpt>
<trkpt lat="47.70052" lon="10.85645">
<ele>733.812</ele>
<time>2020-09-11T13:12:25Z</time>
</trkpt>
<trkpt lat="47.700523" lon="10.856532">
<ele>733.812</ele>
<time>2020-09-11T13:12:26Z</time>
</trkpt>
<trkpt lat="47.700531" lon="10.856613">
<ele>733.812</ele>
<time>2020-09-11T13:12:27Z</time>
</trkpt>
<trkpt lat="47.700535" lon="10.856693">
<ele>733.812</ele>
<time>2020-09-11T13:12:28Z</time>
</trkpt>
<trkpt lat="47.700535" lon="10.856777">
<ele>733.812</ele>
<time>2020-09-11T13:12:29Z</time>
</trkpt>
<trkpt lat="47.700539" lon="10.85686">
<ele>733.812</ele>
<time>2020-09-11T13:12:30Z</time>
</trkpt>
<trkpt lat="47.700542" lon="10.856945">
<ele>733.812</ele>
<time>2020-09-11T13:12:31Z</time>
</trkpt>
<trkpt lat="47.700542" lon="10.857028">
<ele>733.812</ele>
<time>2020-09-11T13:12:32Z</time>
</trkpt>
<trkpt lat="47.700542" lon="10.85711">
<ele>733.812</ele>
<time>2020-09-11T13:12:33Z</time>
</trkpt>
<trkpt lat="47.700542" lon="10.85719">
<ele>733.812</ele>
<time>2020-09-11T13:12:34Z</time>
</trkpt>
<trkpt lat="47.700546" lon="10.857268">
<ele>733.812</ele>
<time>2020-09-11T13:12:35Z</time>
</trkpt>
<trkpt lat="47.700546" lon="10.857347">
<ele>733.812</ele>
<time>2020-09-11T13:12:36Z</time>
</trkpt>
<trkpt lat="47.700546" lon="10.857425">
<ele>733.812</ele>
<time>2020-09-11T13:12:37Z</time>
</trkpt>
<trkpt lat="47.700546" lon="10.857505">
<ele>733.812</ele>
<time>2020-09-11T13:12:38Z</time>
</trkpt>
<trkpt lat="47.700542" lon="10.857584">
<ele>733.812</ele>
<time>2020-09-11T13:12:39Z</time>
</trkpt>
<trkpt lat="47.700546" lon="10.857661">
<ele>733.812</ele>
<time>2020-09-11T13:12:40Z</time>
</trkpt>
<trkpt lat="47.700542" lon="10.85774">
<ele>733.812</ele>
<time>2020-09-11T13:12:41Z</time>
</trkpt>
<trkpt lat="47.700539" lon="10.857819">
<ele>733.812</ele>
<time>2020-09-11T13:12:42Z</time>
</trkpt>
<trkpt lat="47.700535" lon="10.857897">
<ele>733.812</ele>
<time>2020-09-11T13:12:43Z</time>
</trkpt>
<trkpt lat="47.700531" lon="10.857978">
<ele>733.812</ele>
<time>2020-09-11T13:12:44Z</time>
</trkpt>
<trkpt lat="47.700531" lon="10.85806">
<ele>733.812</ele>
<time>2020-09-11T13:12:45Z</time>
</trkpt>
<trkpt lat="47.700527" lon="10.858147">
<ele>733.812</ele>
<time>2020-09-11T13:12:46Z</time>
</trkpt>
<trkpt lat="47.700527" lon="10.858232">
<ele>733.812</ele>
<time>2020-09-11T13:12:47Z</time>
</trkpt>
<trkpt lat="47.700527" lon="10.858318">
<ele>733.812</ele>
<time>2020-09-11T13:12:48Z</time>
</trkpt>
<trkpt lat="47.700527" lon="10.858403">
<ele>733.812</ele>
<time>2020-09-11T13:12:49Z</time>
</trkpt>
<trkpt lat="47.700527" lon="10.858485">
<ele>733.812</ele>
<time>2020-09-11T13:12:50Z</time>
</trkpt>
<trkpt lat="47.700527" lon="10.858564">
<ele>733.812</ele>
<time>2020-09-11T13:12:51Z</time>
</trkpt>
<trkpt lat="47.700527" lon="10.858646">
<ele>733.812</ele>
<time>2020-09-11T13:12:52Z</time>
</trkpt>
<trkpt lat="47.700523" lon="10.858727">
<ele>733.812</ele>
<time>2020-09-11T13:12:53Z</time>
</trkpt>
<trkpt lat="47.700523" lon="10.858807">
<ele>733.812</ele>
<time>2020-09-11T13:12:54Z</time>
</trkpt>
<trkpt lat="47.700527" lon="10.858887">
<ele>733.812</ele>
<time>2020-09-11T13:12:55Z</time>
</trkpt>
<trkpt lat="47.700531" lon="10.858967">
<ele>733.812</ele>
<time>2020-09-11T13:12:56Z</time>
</trkpt>
<trkpt lat="47.700531" lon="10.859046">
<ele>733.812</ele>
<time>2020-09-11T13:12:57Z</time>
</trkpt>
<trkpt lat="47.700531" lon="10.859126">
<ele>733.812</ele>
<time>2020-09-11T13:12:58Z</time>
</trkpt>
<trkpt lat="47.700535" lon="10.859205">
<ele>733.812</ele>
<time>2020-09-11T13:12:59Z</time>
</trkpt>
<trkpt lat="47.700535" lon="10.859285">
<ele>733.812</ele>
<time>2020-09-11T13:13:00Z</time>
</trkpt>
<trkpt lat="47.700539" lon="10.859362">
<ele>733.812</ele>
<time>2020-09-11T13:13:01Z</time>
</trkpt>
<trkpt lat="47.700546" lon="10.859433">
<ele>733.812</ele>
<time>2020-09-11T13:13:02Z</time>
</trkpt>
<trkpt lat="47.70055" lon="10.859501">
<ele>733.812</ele>
<time>2020-09-11T13:13:03Z</time>
</trkpt>
<trkpt lat="47.700554" lon="10.859567">
<ele>733.812</ele>
<time>2020-09-11T13:13:04Z</time>
</trkpt>
<trkpt lat="47.700554" lon="10.859631">
<ele>733.812</ele>
<time>2020-09-11T13:13:05Z</time>
</trkpt>
<trkpt lat="47.700558" lon="10.859689">
<ele>733.812</ele>
<time>2020-09-11T13:13:06Z</time>
</trkpt>
<trkpt lat="47.700562" lon="10.859746">
<ele>733.812</ele>
<time>2020-09-11T13:13:07Z</time>
</trkpt>
<trkpt lat="47.700569" lon="10.859802">
<ele>733.812</ele>
<time>2020-09-11T13:13:08Z</time>
</trkpt>
<trkpt lat="47.700581" lon="10.859845">
<ele>733.812</ele>
<time>2020-09-11T13:13:09Z</time>
</trkpt>
<trkpt lat="47.700588" lon="10.859881">
<ele>733.812</ele>
<time>2020-09-11T13:13:10Z</time>
</trkpt>
<trkpt lat="47.7006" lon="10.859914">
<ele>733.812</ele>
<time>2020-09-11T13:13:11Z</time>
</trkpt>
<trkpt lat="47.700619" lon="10.859943">
<ele>733.812</ele>
<time>2020-09-11T13:13:12Z</time>
</trkpt>
<trkpt lat="47.700642" lon="10.859968">
<ele>733.812</ele>
<time>2020-09-11T13:13:13Z</time>
</trkpt>
<trkpt lat="47.700672" lon="10.859983">
<ele>733.519</ele>
<time>2020-09-11T13:13:14Z</time>
</trkpt>
<trkpt lat="47.700714" lon="10.859985">
<ele>733.273</ele>
<time>2020-09-11T13:13:15Z</time>
</trkpt>
<trkpt lat="47.700752" lon="10.859982">
<ele>733.07</ele>
<time>2020-09-11T13:13:16Z</time>
</trkpt>
<trkpt lat="47.700798" lon="10.859981">
<ele>732.907</ele>
<time>2020-09-11T13:13:17Z</time>
</trkpt>
<trkpt lat="47.700848" lon="10.859982">
<ele>732.818</ele>
<time>2020-09-11T13:13:18Z</time>
</trkpt>
<trkpt lat="47.700893" lon="10.859982">
<ele>732.768</ele>
<time>2020-09-11T13:13:19Z</time>
</trkpt>
<trkpt lat="47.700947" lon="10.859981">
<ele>732.742</ele>
<time>2020-09-11T13:13:20Z</time>
</trkpt>
<trkpt lat="47.700993" lon="10.859982">
<ele>732.742</ele>
<time>2020-09-11T13:13:21Z</time>
</trkpt>
<trkpt lat="47.701046" lon="10.859988">
<ele>732.742</ele>
<time>2020-09-11T13:13:22Z</time>
</trkpt>
<trkpt lat="47.701099" lon="10.859997">
<ele>732.742</ele>
<time>2020-09-11T13:13:23Z</time>
</trkpt>
<trkpt lat="47.701157" lon="10.860005">
<ele>732.742</ele>
<time>2020-09-11T13:13:24Z</time>
</trkpt>
<trkpt lat="47.701206" lon="10.860015">
<ele>732.742</ele>
<time>2020-09-11T13:13:25Z</time>
</trkpt>
<trkpt lat="47.701263" lon="10.860028">
<ele>732.461</ele>
<time>2020-09-11T13:13:26Z</time>
</trkpt>
<trkpt lat="47.701313" lon="10.860047">
<ele>732.242</ele>
<time>2020-09-11T13:13:27Z</time>
</trkpt>
<trkpt lat="47.70137" lon="10.860066">
<ele>732.083</ele>
<time>2020-09-11T13:13:28Z</time>
</trkpt>
<trkpt lat="47.70142" lon="10.860088">
<ele>731.967</ele>
<time>2020-09-11T13:13:29Z</time>
</trkpt>
<trkpt lat="47.701469" lon="10.86011">
<ele>731.886</ele>
<time>2020-09-11T13:13:30Z</time>
</trkpt>
<trkpt lat="47.701523" lon="10.860137">
<ele>731.831</ele>
<time>2020-09-11T13:13:31Z</time>
</trkpt>
<trkpt lat="47.701572" lon="10.860168">
<ele>731.789</ele>
<time>2020-09-11T13:13:32Z</time>
</trkpt>
<trkpt lat="47.701626" lon="10.8602">
<ele>731.761</ele>
<time>2020-09-11T13:13:33Z</time>
</trkpt>
<trkpt lat="47.701675" lon="10.860236">
<ele>731.761</ele>
<time>2020-09-11T13:13:34Z</time>
</trkpt>
<trkpt lat="47.701729" lon="10.860275">
<ele>731.473</ele>
<time>2020-09-11T13:13:35Z</time>
</trkpt>
<trkpt lat="47.701782" lon="10.860312">
<ele>731.25</ele>
<time>2020-09-11T13:13:36Z</time>
</trkpt>
<trkpt lat="47.701836" lon="10.86035">
<ele>731.081</ele>
<time>2020-09-11T13:13:37Z</time>
</trkpt>
<trkpt lat="47.701889" lon="10.860389">
<ele>730.983</ele>
<time>2020-09-11T13:13:38Z</time>
</trkpt>
<trkpt lat="47.70195" lon="10.86043">
<ele>730.652</ele>
<time>2020-09-11T13:13:39Z</time>
</trkpt>
<trkpt lat="47.702003" lon="10.860471">
<ele>730.419</ele>
<time>2020-09-11T13:13:40Z</time>
</trkpt>
<trkpt lat="47.702061" lon="10.860513">
<ele>730.247</ele>
<time>2020-09-11T13:13:41Z</time>
</trkpt>
<trkpt lat="47.702118" lon="10.86056">
<ele>730.13</ele>
<time>2020-09-11T13:13:42Z</time>
</trkpt>
<trkpt lat="47.702175" lon="10.860605">
<ele>729.784</ele>
<time>2020-09-11T13:13:43Z</time>
</trkpt>
<trkpt lat="47.702229" lon="10.860653">
<ele>729.51</ele>
<time>2020-09-11T13:13:44Z</time>
</trkpt>
<trkpt lat="47.702282" lon="10.8607">
<ele>729.301</ele>
<time>2020-09-11T13:13:45Z</time>
</trkpt>
<trkpt lat="47.702343" lon="10.860748">
<ele>729.148</ele>
<time>2020-09-11T13:13:46Z</time>
</trkpt>
<trkpt lat="47.702408" lon="10.860795">
<ele>729.049</ele>
<time>2020-09-11T13:13:47Z</time>
</trkpt>
<trkpt lat="47.702469" lon="10.86084">
<ele>728.975</ele>
<time>2020-09-11T13:13:48Z</time>
</trkpt>
<trkpt lat="47.702522" lon="10.860888">
<ele>728.93</ele>
<time>2020-09-11T13:13:49Z</time>
</trkpt>
<trkpt lat="47.702579" lon="10.860936">
<ele>728.907</ele>
<time>2020-09-11T13:13:50Z</time>
</trkpt>
<trkpt lat="47.702637" lon="10.860982">
<ele>728.907</ele>
<time>2020-09-11T13:13:51Z</time>
</trkpt>
<trkpt lat="47.702686" lon="10.861025">
<ele>728.907</ele>
<time>2020-09-11T13:13:52Z</time>
</trkpt>
<trkpt lat="47.70274" lon="10.86107">
<ele>728.907</ele>
<time>2020-09-11T13:13:53Z</time>
</trkpt>
<trkpt lat="47.702789" lon="10.861115">
<ele>728.907</ele>
<time>2020-09-11T13:13:54Z</time>
</trkpt>
<trkpt lat="47.702835" lon="10.86116">
<ele>728.907</ele>
<time>2020-09-11T13:13:55Z</time>
</trkpt>
<trkpt lat="47.702888" lon="10.861202">
<ele>728.907</ele>
<time>2020-09-11T13:13:56Z</time>
</trkpt>
<trkpt lat="47.702934" lon="10.861243">
<ele>728.907</ele>
<time>2020-09-11T13:13:57Z</time>
</trkpt>
<trkpt lat="47.70298" lon="10.861288">
<ele>728.907</ele>
<time>2020-09-11T13:13:58Z</time>
</trkpt>
<trkpt lat="47.70303" lon="10.861332">
<ele>728.907</ele>
<time>2020-09-11T13:13:59Z</time>
</trkpt>
<trkpt lat="47.703072" lon="10.861372">
<ele>728.907</ele>
<time>2020-09-11T13:14:00Z</time>
</trkpt>
<trkpt lat="47.703117" lon="10.861415">
<ele>728.907</ele>
<time>2020-09-11T13:14:01Z</time>
</trkpt>
<trkpt lat="47.703163" lon="10.861458">
<ele>728.907</ele>
<time>2020-09-11T13:14:02Z</time>
</trkpt>
<trkpt lat="47.703194" lon="10.861506">
<ele>728.907</ele>
<time>2020-09-11T13:14:03Z</time>
</trkpt>
<trkpt lat="47.703209" lon="10.861548">
<ele>728.907</ele>
<time>2020-09-11T13:14:04Z</time>
</trkpt>
<trkpt lat="47.703217" lon="10.861586">
<ele>728.907</ele>
<time>2020-09-11T13:14:05Z</time>
</trkpt>
<trkpt lat="47.703224" lon="10.861609">
<ele>728.907</ele>
<time>2020-09-11T13:14:06Z</time>
</trkpt>
<trkpt lat="47.703228" lon="10.86162">
<ele>728.907</ele>
<time>2020-09-11T13:14:07Z</time>
</trkpt>
<trkpt lat="47.703232" lon="10.861612">
<ele>728.907</ele>
<time>2020-09-11T13:14:08Z</time>
</trkpt>
<trkpt lat="47.703239" lon="10.861596">
<ele>728.907</ele>
<time>2020-09-11T13:14:09Z</time>
</trkpt>
<trkpt lat="47.703239" lon="10.861577">
<ele>728.907</ele>
<time>2020-09-11T13:14:10Z</time>
</trkpt>
<trkpt lat="47.703236" lon="10.861562">
<ele>728.907</ele>
<time>2020-09-11T13:14:11Z</time>
</trkpt>
<trkpt lat="47.703224" lon="10.861548">
<ele>728.907</ele>
<time>2020-09-11T13:14:12Z</time>
</trkpt>
<trkpt lat="47.703209" lon="10.861537">
<ele>728.907</ele>
<time>2020-09-11T13:14:13Z</time>
</trkpt>
<trkpt lat="47.703194" lon="10.861523">
<ele>728.907</ele>
<time>2020-09-11T13:14:14Z</time>
</trkpt>
<trkpt lat="47.703182" lon="10.86151">
<ele>728.907</ele>
<time>2020-09-11T13:14:15Z</time>
</trkpt>
<trkpt lat="47.703167" lon="10.861493">
<ele>728.907</ele>
<time>2020-09-11T13:14:16Z</time>
</trkpt>
<trkpt lat="47.703148" lon="10.86147">
<ele>728.907</ele>
<time>2020-09-11T13:14:17Z</time>
</trkpt>
<trkpt lat="47.703129" lon="10.861445">
<ele>728.907</ele>
<time>2020-09-11T13:14:18Z</time>
</trkpt>
<trkpt lat="47.703106" lon="10.86142">
<ele>728.907</ele>
<time>2020-09-11T13:14:19Z</time>
</trkpt>
<trkpt lat="47.703079" lon="10.861395">
<ele>728.907</ele>
<time>2020-09-11T13:14:20Z</time>
</trkpt>
<trkpt lat="47.703053" lon="10.861372">
<ele>728.907</ele>
<time>2020-09-11T13:14:21Z</time>
</trkpt>
<trkpt lat="47.703026" lon="10.861348">
<ele>728.907</ele>
<time>2020-09-11T13:14:22Z</time>
</trkpt>
<trkpt lat="47.702995" lon="10.861323">
<ele>728.907</ele>
<time>2020-09-11T13:14:23Z</time>
</trkpt>
<trkpt lat="47.702965" lon="10.861297">
<ele>728.907</ele>
<time>2020-09-11T13:14:24Z</time>
</trkpt>
<trkpt lat="47.702934" lon="10.861272">
<ele>728.907</ele>
<time>2020-09-11T13:14:25Z</time>
</trkpt>
<trkpt lat="47.702908" lon="10.86125">
<ele>728.907</ele>
<time>2020-09-11T13:14:26Z</time>
</trkpt>
<trkpt lat="47.702881" lon="10.861229">
<ele>728.907</ele>
<time>2020-09-11T13:14:27Z</time>
</trkpt>
<trkpt lat="47.702854" lon="10.861204">
<ele>728.907</ele>
<time>2020-09-11T13:14:28Z</time>
</trkpt>
<trkpt lat="47.702827" lon="10.861181">
<ele>728.907</ele>
<time>2020-09-11T13:14:29Z</time>
</trkpt>
<trkpt lat="47.702805" lon="10.861156">
<ele>728.907</ele>
<time>2020-09-11T13:14:30Z</time>
</trkpt>
<trkpt lat="47.702774" lon="10.861131">
<ele>728.907</ele>
<time>2020-09-11T13:14:31Z</time>
</trkpt>
<trkpt lat="47.702747" lon="10.861107">
<ele>728.907</ele>
<time>2020-09-11T13:14:32Z</time>
</trkpt>
<trkpt lat="47.702721" lon="10.861083">
<ele>728.907</ele>
<time>2020-09-11T13:14:33Z</time>
</trkpt>
<trkpt lat="47.702694" lon="10.86106">
<ele>728.907</ele>
<time>2020-09-11T13:14:34Z</time>
</trkpt>
<trkpt lat="47.702667" lon="10.861045">
<ele>728.907</ele>
<time>2020-09-11T13:14:35Z</time>
</trkpt>
<trkpt lat="47.702641" lon="10.86104">
<ele>728.907</ele>
<time>2020-09-11T13:14:36Z</time>
</trkpt>
<trkpt lat="47.702618" lon="10.861041">
<ele>728.907</ele>
<time>2020-09-11T13:14:37Z</time>
</trkpt>
<trkpt lat="47.702602" lon="10.861053">
<ele>728.907</ele>
<time>2020-09-11T13:14:38Z</time>
</trkpt>
<trkpt lat="47.702583" lon="10.861064">
<ele>728.907</ele>
<time>2020-09-11T13:14:39Z</time>
</trkpt>
<trkpt lat="47.702576" lon="10.861072">
<ele>728.907</ele>
<time>2020-09-11T13:14:40Z</time>
</trkpt>
<trkpt lat="47.702564" lon="10.861078">
<ele>728.907</ele>
<time>2020-09-11T13:14:41Z</time>
</trkpt>
<trkpt lat="47.702557" lon="10.861083">
<ele>728.907</ele>
<time>2020-09-11T13:14:42Z</time>
</trkpt>
<trkpt lat="47.702545" lon="10.861087">
<ele>728.907</ele>
<time>2020-09-11T13:14:43Z</time>
</trkpt>
<trkpt lat="47.702538" lon="10.861091">
<ele>728.907</ele>
<time>2020-09-11T13:14:44Z</time>
</trkpt>
<trkpt lat="47.702526" lon="10.861094">
<ele>728.907</ele>
<time>2020-09-11T13:14:45Z</time>
</trkpt>
<trkpt lat="47.702526" lon="10.861091">
<ele>728.907</ele>
<time>2020-09-11T13:14:46Z</time>
</trkpt>
<trkpt lat="47.702518" lon="10.861091">
<ele>728.907</ele>
<time>2020-09-11T13:14:47Z</time>
</trkpt>
<trkpt lat="47.702511" lon="10.86112">
<ele>728.907</ele>
<time>2020-09-11T13:14:54Z</time>
</trkpt>
<trkpt lat="47.702511" lon="10.861139">
<ele>728.907</ele>
<time>2020-09-11T13:14:55Z</time>
</trkpt>
<trkpt lat="47.702511" lon="10.861164">
<ele>728.907</ele>
<time>2020-09-11T13:14:56Z</time>
</trkpt>
<trkpt lat="47.702503" lon="10.86119">
<ele>728.907</ele>
<time>2020-09-11T13:14:57Z</time>
</trkpt>
<trkpt lat="47.702499" lon="10.86122">
<ele>728.907</ele>
<time>2020-09-11T13:14:58Z</time>
</trkpt>
<trkpt lat="47.702492" lon="10.861252">
<ele>729.327</ele>
<time>2020-09-11T13:14:59Z</time>
</trkpt>
<trkpt lat="47.702488" lon="10.861288">
<ele>729.537</ele>
<time>2020-09-11T13:15:00Z</time>
</trkpt>
<trkpt lat="47.702484" lon="10.861325">
<ele>729.676</ele>
<time>2020-09-11T13:15:01Z</time>
</trkpt>
<trkpt lat="47.702477" lon="10.861362">
<ele>729.738</ele>
<time>2020-09-11T13:15:02Z</time>
</trkpt>
<trkpt lat="47.702477" lon="10.861399">
<ele>729.82</ele>
<time>2020-09-11T13:15:03Z</time>
</trkpt>
<trkpt lat="47.702473" lon="10.861439">
<ele>729.869</ele>
<time>2020-09-11T13:15:04Z</time>
</trkpt>
<trkpt lat="47.702465" lon="10.861475">
<ele>729.888</ele>
<time>2020-09-11T13:15:05Z</time>
</trkpt>
<trkpt lat="47.702461" lon="10.861514">
<ele>729.888</ele>
<time>2020-09-11T13:15:06Z</time>
</trkpt>
<trkpt lat="47.702454" lon="10.86155">
<ele>729.888</ele>
<time>2020-09-11T13:15:07Z</time>
</trkpt>
<trkpt lat="47.702454" lon="10.861588">
<ele>729.888</ele>
<time>2020-09-11T13:15:08Z</time>
</trkpt>
<trkpt lat="47.70245" lon="10.861627">
<ele>729.888</ele>
<time>2020-09-11T13:15:09Z</time>
</trkpt>
<trkpt lat="47.70245" lon="10.861658">
<ele>729.888</ele>
<time>2020-09-11T13:15:10Z</time>
</trkpt>
<trkpt lat="47.70245" lon="10.861693">
<ele>729.888</ele>
<time>2020-09-11T13:15:11Z</time>
</trkpt>
<trkpt lat="47.70245" lon="10.861728">
<ele>729.888</ele>
<time>2020-09-11T13:15:12Z</time>
</trkpt>
<trkpt lat="47.70245" lon="10.861761">
<ele>729.888</ele>
<time>2020-09-11T13:15:13Z</time>
</trkpt>
<trkpt lat="47.702454" lon="10.861794">
<ele>729.888</ele>
<time>2020-09-11T13:15:14Z</time>
</trkpt>
<trkpt lat="47.702454" lon="10.861824">
<ele>729.888</ele>
<time>2020-09-11T13:15:15Z</time>
</trkpt>
<trkpt lat="47.70245" lon="10.861854">
<ele>729.888</ele>
<time>2020-09-11T13:15:16Z</time>
</trkpt>
<trkpt lat="47.702446" lon="10.861878">
<ele>729.888</ele>
<time>2020-09-11T13:15:17Z</time>
</trkpt>
<trkpt lat="47.702446" lon="10.86191">
<ele>729.888</ele>
<time>2020-09-11T13:15:18Z</time>
</trkpt>
<trkpt lat="47.70245" lon="10.861938">
<ele>729.888</ele>
<time>2020-09-11T13:15:19Z</time>
</trkpt>
<trkpt lat="47.70245" lon="10.861971">
<ele>729.888</ele>
<time>2020-09-11T13:15:20Z</time>
</trkpt>
<trkpt lat="47.70245" lon="10.862003">
<ele>729.888</ele>
<time>2020-09-11T13:15:21Z</time>
</trkpt>
<trkpt lat="47.702446" lon="10.862036">
<ele>729.888</ele>
<time>2020-09-11T13:15:22Z</time>
</trkpt>
<trkpt lat="47.702446" lon="10.862068">
<ele>729.888</ele>
<time>2020-09-11T13:15:23Z</time>
</trkpt>
<trkpt lat="47.702438" lon="10.862103">
<ele>729.888</ele>
<time>2020-09-11T13:15:24Z</time>
</trkpt>
<trkpt lat="47.702431" lon="10.862141">
<ele>729.888</ele>
<time>2020-09-11T13:15:25Z</time>
</trkpt>
<trkpt lat="47.702427" lon="10.862174">
<ele>729.888</ele>
<time>2020-09-11T13:15:26Z</time>
</trkpt>
<trkpt lat="47.702427" lon="10.862206">
<ele>729.888</ele>
<time>2020-09-11T13:15:27Z</time>
</trkpt>
<trkpt lat="47.702427" lon="10.862244">
<ele>729.888</ele>
<time>2020-09-11T13:15:28Z</time>
</trkpt>
<trkpt lat="47.702427" lon="10.862282">
<ele>729.888</ele>
<time>2020-09-11T13:15:29Z</time>
</trkpt>
<trkpt lat="47.702427" lon="10.86232">
<ele>729.888</ele>
<time>2020-09-11T13:15:30Z</time>
</trkpt>
<trkpt lat="47.702427" lon="10.862365">
<ele>729.888</ele>
<time>2020-09-11T13:15:31Z</time>
</trkpt>
<trkpt lat="47.702427" lon="10.862413">
<ele>729.888</ele>
<time>2020-09-11T13:15:32Z</time>
</trkpt>
<trkpt lat="47.702423" lon="10.862461">
<ele>729.888</ele>
<time>2020-09-11T13:15:33Z</time>
</trkpt>
<trkpt lat="47.702423" lon="10.862514">
<ele>730.138</ele>
<time>2020-09-11T13:15:34Z</time>
</trkpt>
<trkpt lat="47.702423" lon="10.862563">
<ele>730.322</ele>
<time>2020-09-11T13:15:35Z</time>
</trkpt>
<trkpt lat="47.702427" lon="10.862617">
<ele>730.464</ele>
<time>2020-09-11T13:15:36Z</time>
</trkpt>
<trkpt lat="47.702431" lon="10.862668">
<ele>730.552</ele>
<time>2020-09-11T13:15:37Z</time>
</trkpt>
<trkpt lat="47.702431" lon="10.862723">
<ele>730.649</ele>
<time>2020-09-11T13:15:38Z</time>
</trkpt>
<trkpt lat="47.702438" lon="10.862773">
<ele>730.714</ele>
<time>2020-09-11T13:15:39Z</time>
</trkpt>
<trkpt lat="47.70245" lon="10.862823">
<ele>730.758</ele>
<time>2020-09-11T13:15:40Z</time>
</trkpt>
<trkpt lat="47.702469" lon="10.86287">
<ele>730.78</ele>
<time>2020-09-11T13:15:41Z</time>
</trkpt>
<trkpt lat="47.702492" lon="10.862913">
<ele>730.78</ele>
<time>2020-09-11T13:15:42Z</time>
</trkpt>
<trkpt lat="47.702522" lon="10.862955">
<ele>730.78</ele>
<time>2020-09-11T13:15:43Z</time>
</trkpt>
<trkpt lat="47.702557" lon="10.862993">
<ele>730.78</ele>
<time>2020-09-11T13:15:44Z</time>
</trkpt>
<trkpt lat="47.702591" lon="10.86303">
<ele>730.78</ele>
<time>2020-09-11T13:15:45Z</time>
</trkpt>
<trkpt lat="47.702625" lon="10.863063">
<ele>730.78</ele>
<time>2020-09-11T13:15:46Z</time>
</trkpt>
<trkpt lat="47.702663" lon="10.8631">
<ele>730.78</ele>
<time>2020-09-11T13:15:47Z</time>
</trkpt>
<trkpt lat="47.702702" lon="10.863135">
<ele>730.78</ele>
<time>2020-09-11T13:15:48Z</time>
</trkpt>
<trkpt lat="47.70274" lon="10.86316">
<ele>730.78</ele>
<time>2020-09-11T13:15:49Z</time>
</trkpt>
<trkpt lat="47.702774" lon="10.863182">
<ele>730.78</ele>
<time>2020-09-11T13:15:50Z</time>
</trkpt>
<trkpt lat="47.702816" lon="10.863194">
<ele>730.78</ele>
<time>2020-09-11T13:15:51Z</time>
</trkpt>
<trkpt lat="47.702858" lon="10.863196">
<ele>730.78</ele>
<time>2020-09-11T13:15:52Z</time>
</trkpt>
<trkpt lat="47.7029" lon="10.863194">
<ele>730.78</ele>
<time>2020-09-11T13:15:53Z</time>
</trkpt>
<trkpt lat="47.70295" lon="10.86319">
<ele>730.78</ele>
<time>2020-09-11T13:15:54Z</time>
</trkpt>
<trkpt lat="47.702991" lon="10.863185">
<ele>730.78</ele>
<time>2020-09-11T13:15:55Z</time>
</trkpt>
<trkpt lat="47.703037" lon="10.863178">
<ele>730.78</ele>
<time>2020-09-11T13:15:56Z</time>
</trkpt>
<trkpt lat="47.703083" lon="10.863172">
<ele>730.78</ele>
<time>2020-09-11T13:15:57Z</time>
</trkpt>
<trkpt lat="47.703129" lon="10.863169">
<ele>730.78</ele>
<time>2020-09-11T13:15:58Z</time>
</trkpt>
<trkpt lat="47.703175" lon="10.863163">
<ele>730.78</ele>
<time>2020-09-11T13:15:59Z</time>
</trkpt>
<trkpt lat="47.703224" lon="10.863158">
<ele>730.78</ele>
<time>2020-09-11T13:16:00Z</time>
</trkpt>
<trkpt lat="47.703266" lon="10.863153">
<ele>730.78</ele>
<time>2020-09-11T13:16:01Z</time>
</trkpt>
<trkpt lat="47.703316" lon="10.863149">
<ele>730.78</ele>
<time>2020-09-11T13:16:02Z</time>
</trkpt>
<trkpt lat="47.703358" lon="10.863144">
<ele>730.78</ele>
<time>2020-09-11T13:16:03Z</time>
</trkpt>
<trkpt lat="47.703403" lon="10.86314">
<ele>730.78</ele>
<time>2020-09-11T13:16:04Z</time>
</trkpt>
<trkpt lat="47.703453" lon="10.863133">
<ele>730.78</ele>
<time>2020-09-11T13:16:05Z</time>
</trkpt>
<trkpt lat="47.703499" lon="10.863127">
<ele>730.78</ele>
<time>2020-09-11T13:16:06Z</time>
</trkpt>
<trkpt lat="47.703545" lon="10.863123">
<ele>730.78</ele>
<time>2020-09-11T13:16:07Z</time>
</trkpt>
<trkpt lat="47.703587" lon="10.86312">
<ele>730.78</ele>
<time>2020-09-11T13:16:08Z</time>
</trkpt>
<trkpt lat="47.703625" lon="10.863115">
<ele>730.78</ele>
<time>2020-09-11T13:16:09Z</time>
</trkpt>
<trkpt lat="47.703663" lon="10.863109">
<ele>730.529</ele>
<time>2020-09-11T13:16:10Z</time>
</trkpt>
<trkpt lat="47.703701" lon="10.863102">
<ele>730.331</ele>
<time>2020-09-11T13:16:11Z</time>
</trkpt>
<trkpt lat="47.703732" lon="10.863096">
<ele>730.182</ele>
<time>2020-09-11T13:16:12Z</time>
</trkpt>
<trkpt lat="47.703762" lon="10.863095">
<ele>730.072</ele>
<time>2020-09-11T13:16:13Z</time>
</trkpt>
<trkpt lat="47.703789" lon="10.863096">
<ele>729.996</ele>
<time>2020-09-11T13:16:14Z</time>
</trkpt>
<trkpt lat="47.703808" lon="10.8631">
<ele>729.937</ele>
<time>2020-09-11T13:16:15Z</time>
</trkpt>
<trkpt lat="47.703827" lon="10.863111">
<ele>729.911</ele>
<time>2020-09-11T13:16:16Z</time>
</trkpt>
<trkpt lat="47.703842" lon="10.863115">
<ele>729.888</ele>
<time>2020-09-11T13:16:17Z</time>
</trkpt>
<trkpt lat="47.703846" lon="10.863115">
<ele>729.888</ele>
<time>2020-09-11T13:16:18Z</time>
</trkpt>
<trkpt lat="47.70385" lon="10.863115">
<ele>729.888</ele>
<time>2020-09-11T13:16:19Z</time>
</trkpt>
<trkpt lat="47.703869" lon="10.863123">
<ele>729.888</ele>
<time>2020-09-11T13:16:22Z</time>
</trkpt>
<trkpt lat="47.703876" lon="10.863142">
<ele>729.888</ele>
<time>2020-09-11T13:16:23Z</time>
</trkpt>
<trkpt lat="47.70388" lon="10.863167">
<ele>729.888</ele>
<time>2020-09-11T13:16:24Z</time>
</trkpt>
<trkpt lat="47.70388" lon="10.8632">
<ele>729.888</ele>
<time>2020-09-11T13:16:25Z</time>
</trkpt>
<trkpt lat="47.70388" lon="10.86324">
<ele>729.888</ele>
<time>2020-09-11T13:16:26Z</time>
</trkpt>
<trkpt lat="47.70388" lon="10.863282">
<ele>729.888</ele>
<time>2020-09-11T13:16:27Z</time>
</trkpt>
<trkpt lat="47.70388" lon="10.863327">
<ele>729.888</ele>
<time>2020-09-11T13:16:28Z</time>
</trkpt>
<trkpt lat="47.703876" lon="10.863373">
<ele>729.888</ele>
<time>2020-09-11T13:16:29Z</time>
</trkpt>
<trkpt lat="47.703873" lon="10.86342">
<ele>729.888</ele>
<time>2020-09-11T13:16:30Z</time>
</trkpt>
<trkpt lat="47.703873" lon="10.86347">
<ele>729.888</ele>
<time>2020-09-11T13:16:31Z</time>
</trkpt>
<trkpt lat="47.703873" lon="10.863519">
<ele>729.888</ele>
<time>2020-09-11T13:16:32Z</time>
</trkpt>
<trkpt lat="47.703869" lon="10.863568">
<ele>729.888</ele>
<time>2020-09-11T13:16:33Z</time>
</trkpt>
<trkpt lat="47.703865" lon="10.86362">
<ele>730.142</ele>
<time>2020-09-11T13:16:34Z</time>
</trkpt>
<trkpt lat="47.703861" lon="10.863674">
<ele>730.333</ele>
<time>2020-09-11T13:16:35Z</time>
</trkpt>
<trkpt lat="47.703861" lon="10.863727">
<ele>730.471</ele>
<time>2020-09-11T13:16:36Z</time>
</trkpt>
<trkpt lat="47.703857" lon="10.863781">
<ele>730.576</ele>
<time>2020-09-11T13:16:37Z</time>
</trkpt>
<trkpt lat="47.703854" lon="10.863835">
<ele>730.655</ele>
<time>2020-09-11T13:16:38Z</time>
</trkpt>
<trkpt lat="47.70385" lon="10.86389">
<ele>730.708</ele>
<time>2020-09-11T13:16:39Z</time>
</trkpt>
<trkpt lat="47.70385" lon="10.863945">
<ele>731.002</ele>
<time>2020-09-11T13:16:40Z</time>
</trkpt>
<trkpt lat="47.70385" lon="10.864001">
<ele>731.225</ele>
<time>2020-09-11T13:16:41Z</time>
</trkpt>
<trkpt lat="47.70385" lon="10.864058">
<ele>731.388</ele>
<time>2020-09-11T13:16:42Z</time>
</trkpt>
<trkpt lat="47.703854" lon="10.864115">
<ele>731.519</ele>
<time>2020-09-11T13:16:43Z</time>
</trkpt>
<trkpt lat="47.703857" lon="10.864171">
<ele>731.62</ele>
<time>2020-09-11T13:16:44Z</time>
</trkpt>
<trkpt lat="47.703861" lon="10.864232">
<ele>731.692</ele>
<time>2020-09-11T13:16:45Z</time>
</trkpt>
<trkpt lat="47.703869" lon="10.864292">
<ele>731.739</ele>
<time>2020-09-11T13:16:46Z</time>
</trkpt>
<trkpt lat="47.703876" lon="10.864351">
<ele>731.761</ele>
<time>2020-09-11T13:16:47Z</time>
</trkpt>
<trkpt lat="47.703884" lon="10.864409">
<ele>731.761</ele>
<time>2020-09-11T13:16:48Z</time>
</trkpt>
<trkpt lat="47.703896" lon="10.864467">
<ele>731.761</ele>
<time>2020-09-11T13:16:49Z</time>
</trkpt>
<trkpt lat="47.703907" lon="10.864527">
<ele>732.025</ele>
<time>2020-09-11T13:16:50Z</time>
</trkpt>
<trkpt lat="47.703915" lon="10.864587">
<ele>732.245</ele>
<time>2020-09-11T13:16:51Z</time>
</trkpt>
<trkpt lat="47.70393" lon="10.864645">
<ele>732.423</ele>
<time>2020-09-11T13:16:52Z</time>
</trkpt>
<trkpt lat="47.703945" lon="10.864705">
<ele>732.564</ele>
<time>2020-09-11T13:16:53Z</time>
</trkpt>
<trkpt lat="47.703957" lon="10.864761">
<ele>732.675</ele>
<time>2020-09-11T13:16:54Z</time>
</trkpt>
<trkpt lat="47.703976" lon="10.864814">
<ele>732.755</ele>
<time>2020-09-11T13:16:55Z</time>
</trkpt>
<trkpt lat="47.703983" lon="10.864868">
<ele>732.807</ele>
<time>2020-09-11T13:16:56Z</time>
</trkpt>
<trkpt lat="47.703991" lon="10.864923">
<ele>732.831</ele>
<time>2020-09-11T13:16:57Z</time>
</trkpt>
<trkpt lat="47.704002" lon="10.86498">
<ele>732.831</ele>
<time>2020-09-11T13:16:58Z</time>
</trkpt>
<trkpt lat="47.704006" lon="10.86504">
<ele>732.831</ele>
<time>2020-09-11T13:16:59Z</time>
</trkpt>
<trkpt lat="47.70401" lon="10.865102">
<ele>733.09</ele>
<time>2020-09-11T13:17:00Z</time>
</trkpt>
<trkpt lat="47.704018" lon="10.865162">
<ele>733.309</ele>
<time>2020-09-11T13:17:01Z</time>
</trkpt>
<trkpt lat="47.704033" lon="10.865229">
<ele>733.496</ele>
<time>2020-09-11T13:17:02Z</time>
</trkpt>
<trkpt lat="47.704041" lon="10.86529">
<ele>733.644</ele>
<time>2020-09-11T13:17:03Z</time>
</trkpt>
<trkpt lat="47.704044" lon="10.865356">
<ele>733.753</ele>
<time>2020-09-11T13:17:04Z</time>
</trkpt>
<trkpt lat="47.704052" lon="10.865421">
<ele>733.83</ele>
<time>2020-09-11T13:17:05Z</time>
</trkpt>
<trkpt lat="47.704063" lon="10.865486">
<ele>733.878</ele>
<time>2020-09-11T13:17:06Z</time>
</trkpt>
<trkpt lat="47.704071" lon="10.865552">
<ele>733.901</ele>
<time>2020-09-11T13:17:07Z</time>
</trkpt>
<trkpt lat="47.704075" lon="10.865617">
<ele>733.901</ele>
<time>2020-09-11T13:17:08Z</time>
</trkpt>
<trkpt lat="47.704082" lon="10.86568">
<ele>733.901</ele>
<time>2020-09-11T13:17:09Z</time>
</trkpt>
<trkpt lat="47.704086" lon="10.865742">
<ele>733.901</ele>
<time>2020-09-11T13:17:10Z</time>
</trkpt>
<trkpt lat="47.70409" lon="10.865803">
<ele>733.901</ele>
<time>2020-09-11T13:17:11Z</time>
</trkpt>
<trkpt lat="47.704098" lon="10.865866">
<ele>733.901</ele>
<time>2020-09-11T13:17:12Z</time>
</trkpt>
<trkpt lat="47.704102" lon="10.865929">
<ele>733.902</ele>
<time>2020-09-11T13:17:13Z</time>
</trkpt>
<trkpt lat="47.704109" lon="10.865993">
<ele>733.901</ele>
<time>2020-09-11T13:17:14Z</time>
</trkpt>
<trkpt lat="47.704113" lon="10.866058">
<ele>733.902</ele>
<time>2020-09-11T13:17:15Z</time>
</trkpt>
<trkpt lat="47.704117" lon="10.866123">
<ele>733.901</ele>
<time>2020-09-11T13:17:16Z</time>
</trkpt>
<trkpt lat="47.704124" lon="10.86619">
<ele>733.901</ele>
<time>2020-09-11T13:17:17Z</time>
</trkpt>
<trkpt lat="47.704128" lon="10.866255">
<ele>734.166</ele>
<time>2020-09-11T13:17:18Z</time>
</trkpt>
<trkpt lat="47.704132" lon="10.866321">
<ele>734.352</ele>
<time>2020-09-11T13:17:19Z</time>
</trkpt>
<trkpt lat="47.704132" lon="10.866387">
<ele>734.542</ele>
<time>2020-09-11T13:17:20Z</time>
</trkpt>
<trkpt lat="47.704132" lon="10.866452">
<ele>734.692</ele>
<time>2020-09-11T13:17:21Z</time>
</trkpt>
<trkpt lat="47.704132" lon="10.866517">
<ele>734.808</ele>
<time>2020-09-11T13:17:22Z</time>
</trkpt>
<trkpt lat="47.704128" lon="10.86658">
<ele>734.892</ele>
<time>2020-09-11T13:17:23Z</time>
</trkpt>
<trkpt lat="47.704128" lon="10.866643">
<ele>734.946</ele>
<time>2020-09-11T13:17:24Z</time>
</trkpt>
<trkpt lat="47.704128" lon="10.866706">
<ele>734.972</ele>
<time>2020-09-11T13:17:25Z</time>
</trkpt>
<trkpt lat="47.704128" lon="10.866769">
<ele>734.972</ele>
<time>2020-09-11T13:17:26Z</time>
</trkpt>
<trkpt lat="47.704128" lon="10.866832">
<ele>734.972</ele>
<time>2020-09-11T13:17:27Z</time>
</trkpt>
<trkpt lat="47.704128" lon="10.866895">
<ele>734.972</ele>
<time>2020-09-11T13:17:28Z</time>
</trkpt>
<trkpt lat="47.704128" lon="10.86696">
<ele>735.189</ele>
<time>2020-09-11T13:17:29Z</time>
</trkpt>
<trkpt lat="47.704128" lon="10.867024">
<ele>735.396</ele>
<time>2020-09-11T13:17:30Z</time>
</trkpt>
<trkpt lat="47.704124" lon="10.867088">
<ele>735.567</ele>
<time>2020-09-11T13:17:31Z</time>
</trkpt>
<trkpt lat="47.704121" lon="10.867152">
<ele>735.703</ele>
<time>2020-09-11T13:17:32Z</time>
</trkpt>
<trkpt lat="47.704117" lon="10.867215">
<ele>735.791</ele>
<time>2020-09-11T13:17:33Z</time>
</trkpt>
<trkpt lat="47.704117" lon="10.867276">
<ele>736.092</ele>
<time>2020-09-11T13:17:34Z</time>
</trkpt>
<trkpt lat="47.704121" lon="10.867338">
<ele>736.325</ele>
<time>2020-09-11T13:17:35Z</time>
</trkpt>
<trkpt lat="47.704124" lon="10.867401">
<ele>736.5</ele>
<time>2020-09-11T13:17:36Z</time>
</trkpt>
<trkpt lat="47.704124" lon="10.867465">
<ele>736.614</ele>
<time>2020-09-11T13:17:37Z</time>
</trkpt>
<trkpt lat="47.704124" lon="10.86753">
<ele>736.96</ele>
<time>2020-09-11T13:17:38Z</time>
</trkpt>
<trkpt lat="47.704124" lon="10.867594">
<ele>737.217</ele>
<time>2020-09-11T13:17:39Z</time>
</trkpt>
<trkpt lat="47.704121" lon="10.867655">
<ele>737.459</ele>
<time>2020-09-11T13:17:40Z</time>
</trkpt>
<trkpt lat="47.704121" lon="10.867718">
<ele>737.636</ele>
<time>2020-09-11T13:17:41Z</time>
</trkpt>
<trkpt lat="47.704121" lon="10.867783">
<ele>737.754</ele>
<time>2020-09-11T13:17:42Z</time>
</trkpt>
<trkpt lat="47.704121" lon="10.867846">
<ele>737.838</ele>
<time>2020-09-11T13:17:43Z</time>
</trkpt>
<trkpt lat="47.704121" lon="10.867908">
<ele>737.891</ele>
<time>2020-09-11T13:17:44Z</time>
</trkpt>
<trkpt lat="47.704117" lon="10.86797">
<ele>737.917</ele>
<time>2020-09-11T13:17:45Z</time>
</trkpt>
<trkpt lat="47.704117" lon="10.868032">
<ele>737.917</ele>
<time>2020-09-11T13:17:46Z</time>
</trkpt>
<trkpt lat="47.704113" lon="10.868093">
<ele>737.917</ele>
<time>2020-09-11T13:17:47Z</time>
</trkpt>
<trkpt lat="47.704113" lon="10.868155">
<ele>737.917</ele>
<time>2020-09-11T13:17:48Z</time>
</trkpt>
<trkpt lat="47.704109" lon="10.868215">
<ele>737.917</ele>
<time>2020-09-11T13:17:49Z</time>
</trkpt>
<trkpt lat="47.704109" lon="10.868275">
<ele>737.917</ele>
<time>2020-09-11T13:17:50Z</time>
</trkpt>
<trkpt lat="47.704105" lon="10.868337">
<ele>738.207</ele>
<time>2020-09-11T13:17:51Z</time>
</trkpt>
<trkpt lat="47.704102" lon="10.868401">
<ele>738.437</ele>
<time>2020-09-11T13:17:52Z</time>
</trkpt>
<trkpt lat="47.704094" lon="10.868462">
<ele>738.605</ele>
<time>2020-09-11T13:17:53Z</time>
</trkpt>
<trkpt lat="47.704086" lon="10.86852">
<ele>738.729</ele>
<time>2020-09-11T13:17:54Z</time>
</trkpt>
<trkpt lat="47.704075" lon="10.868577">
<ele>738.815</ele>
<time>2020-09-11T13:17:55Z</time>
</trkpt>
<trkpt lat="47.704067" lon="10.868631">
<ele>738.868</ele>
<time>2020-09-11T13:17:56Z</time>
</trkpt>
<trkpt lat="47.704056" lon="10.868687">
<ele>738.893</ele>
<time>2020-09-11T13:17:57Z</time>
</trkpt>
<trkpt lat="47.704041" lon="10.86874">
<ele>738.898</ele>
<time>2020-09-11T13:17:58Z</time>
</trkpt>
<trkpt lat="47.704029" lon="10.868793">
<ele>738.898</ele>
<time>2020-09-11T13:17:59Z</time>
</trkpt>
<trkpt lat="47.704014" lon="10.868847">
<ele>738.898</ele>
<time>2020-09-11T13:18:00Z</time>
</trkpt>
<trkpt lat="47.704002" lon="10.868903">
<ele>738.898</ele>
<time>2020-09-11T13:18:01Z</time>
</trkpt>
<trkpt lat="47.703983" lon="10.868957">
<ele>738.898</ele>
<time>2020-09-11T13:18:02Z</time>
</trkpt>
<trkpt lat="47.703968" lon="10.86901">
<ele>738.898</ele>
<time>2020-09-11T13:18:03Z</time>
</trkpt>
<trkpt lat="47.703949" lon="10.869061">
<ele>739.167</ele>
<time>2020-09-11T13:18:04Z</time>
</trkpt>
<trkpt lat="47.703938" lon="10.869115">
<ele>739.377</ele>
<time>2020-09-11T13:18:05Z</time>
</trkpt>
<trkpt lat="47.703918" lon="10.869159">
<ele>739.532</ele>
<time>2020-09-11T13:18:06Z</time>
</trkpt>
<trkpt lat="47.703903" lon="10.869204">
<ele>739.647</ele>
<time>2020-09-11T13:18:07Z</time>
</trkpt>
<trkpt lat="47.703884" lon="10.869249">
<ele>739.734</ele>
<time>2020-09-11T13:18:08Z</time>
</trkpt>
<trkpt lat="47.703873" lon="10.869298">
<ele>739.795</ele>
<time>2020-09-11T13:18:09Z</time>
</trkpt>
<trkpt lat="47.703854" lon="10.869351">
<ele>740.067</ele>
<time>2020-09-11T13:18:10Z</time>
</trkpt>
<trkpt lat="47.703838" lon="10.869405">
<ele>740.276</ele>
<time>2020-09-11T13:18:11Z</time>
</trkpt>
<trkpt lat="47.703815" lon="10.869456">
<ele>740.431</ele>
<time>2020-09-11T13:18:12Z</time>
</trkpt>
<trkpt lat="47.7038" lon="10.869512">
<ele>740.554</ele>
<time>2020-09-11T13:18:13Z</time>
</trkpt>
<trkpt lat="47.703781" lon="10.869559">
<ele>740.651</ele>
<time>2020-09-11T13:18:14Z</time>
</trkpt>
<trkpt lat="47.703762" lon="10.86961">
<ele>740.714</ele>
<time>2020-09-11T13:18:15Z</time>
</trkpt>
<trkpt lat="47.703747" lon="10.869662">
<ele>740.754</ele>
<time>2020-09-11T13:18:16Z</time>
</trkpt>
<trkpt lat="47.703724" lon="10.86971">
<ele>740.773</ele>
<time>2020-09-11T13:18:17Z</time>
</trkpt>
<trkpt lat="47.703705" lon="10.869759">
<ele>740.773</ele>
<time>2020-09-11T13:18:18Z</time>
</trkpt>
<trkpt lat="47.703686" lon="10.869808">
<ele>740.989</ele>
<time>2020-09-11T13:18:19Z</time>
</trkpt>
<trkpt lat="47.703667" lon="10.869857">
<ele>741.195</ele>
<time>2020-09-11T13:18:20Z</time>
</trkpt>
<trkpt lat="47.703648" lon="10.869905">
<ele>741.364</ele>
<time>2020-09-11T13:18:21Z</time>
</trkpt>
<trkpt lat="47.703625" lon="10.869949">
<ele>741.503</ele>
<time>2020-09-11T13:18:22Z</time>
</trkpt>
<trkpt lat="47.703606" lon="10.869993">
<ele>741.606</ele>
<time>2020-09-11T13:18:23Z</time>
</trkpt>
<trkpt lat="47.703587" lon="10.870037">
<ele>741.681</ele>
<time>2020-09-11T13:18:24Z</time>
</trkpt>
<trkpt lat="47.703564" lon="10.87008">
<ele>741.727</ele>
<time>2020-09-11T13:18:25Z</time>
</trkpt>
<trkpt lat="47.703541" lon="10.870123">
<ele>741.991</ele>
<time>2020-09-11T13:18:26Z</time>
</trkpt>
<trkpt lat="47.703522" lon="10.870167">
<ele>742.198</ele>
<time>2020-09-11T13:18:27Z</time>
</trkpt>
<trkpt lat="47.703495" lon="10.870207">
<ele>742.355</ele>
<time>2020-09-11T13:18:28Z</time>
</trkpt>
<trkpt lat="47.703468" lon="10.870249">
<ele>742.461</ele>
<time>2020-09-11T13:18:29Z</time>
</trkpt>
<trkpt lat="47.703449" lon="10.870287">
<ele>742.577</ele>
<time>2020-09-11T13:18:30Z</time>
</trkpt>
<trkpt lat="47.703423" lon="10.870326">
<ele>742.659</ele>
<time>2020-09-11T13:18:31Z</time>
</trkpt>
<trkpt lat="47.703396" lon="10.870365">
<ele>742.711</ele>
<time>2020-09-11T13:18:32Z</time>
</trkpt>
<trkpt lat="47.703373" lon="10.870403">
<ele>742.737</ele>
<time>2020-09-11T13:18:33Z</time>
</trkpt>
<trkpt lat="47.70335" lon="10.870441">
<ele>743</ele>
<time>2020-09-11T13:18:34Z</time>
</trkpt>
<trkpt lat="47.703323" lon="10.870479">
<ele>743.207</ele>
<time>2020-09-11T13:18:35Z</time>
</trkpt>
<trkpt lat="47.7033" lon="10.870515">
<ele>743.367</ele>
<time>2020-09-11T13:18:36Z</time>
</trkpt>
<trkpt lat="47.703274" lon="10.870552">
<ele>743.485</ele>
<time>2020-09-11T13:18:37Z</time>
</trkpt>
<trkpt lat="47.703251" lon="10.870588">
<ele>743.555</ele>
<time>2020-09-11T13:18:38Z</time>
</trkpt>
<trkpt lat="47.703224" lon="10.870626">
<ele>743.853</ele>
<time>2020-09-11T13:18:39Z</time>
</trkpt>
<trkpt lat="47.703197" lon="10.870666">
<ele>744.119</ele>
<time>2020-09-11T13:18:40Z</time>
</trkpt>
<trkpt lat="47.703175" lon="10.870704">
<ele>744.314</ele>
<time>2020-09-11T13:18:41Z</time>
</trkpt>
<trkpt lat="47.703152" lon="10.870743">
<ele>744.452</ele>
<time>2020-09-11T13:18:42Z</time>
</trkpt>
<trkpt lat="47.703129" lon="10.870783">
<ele>744.555</ele>
<time>2020-09-11T13:18:43Z</time>
</trkpt>
<trkpt lat="47.703102" lon="10.87082">
<ele>744.63</ele>
<time>2020-09-11T13:18:44Z</time>
</trkpt>
<trkpt lat="47.703079" lon="10.870856">
<ele>744.678</ele>
<time>2020-09-11T13:18:45Z</time>
</trkpt>
<trkpt lat="47.703053" lon="10.870896">
<ele>744.701</ele>
<time>2020-09-11T13:18:46Z</time>
</trkpt>
<trkpt lat="47.70303" lon="10.870935">
<ele>744.946</ele>
<time>2020-09-11T13:18:47Z</time>
</trkpt>
<trkpt lat="47.703003" lon="10.870974">
<ele>745.141</ele>
<time>2020-09-11T13:18:48Z</time>
</trkpt>
<trkpt lat="47.702976" lon="10.871012">
<ele>745.276</ele>
<time>2020-09-11T13:18:49Z</time>
</trkpt>
<trkpt lat="47.702953" lon="10.871054">
<ele>745.419</ele>
<time>2020-09-11T13:18:50Z</time>
</trkpt>
<trkpt lat="47.70293" lon="10.871093">
<ele>745.531</ele>
<time>2020-09-11T13:18:51Z</time>
</trkpt>
<trkpt lat="47.702904" lon="10.871135">
<ele>745.611</ele>
<time>2020-09-11T13:18:52Z</time>
</trkpt>
<trkpt lat="47.702885" lon="10.871177">
<ele>745.66</ele>
<time>2020-09-11T13:18:53Z</time>
</trkpt>
<trkpt lat="47.702862" lon="10.871221">
<ele>745.684</ele>
<time>2020-09-11T13:18:54Z</time>
</trkpt>
<trkpt lat="47.702835" lon="10.871262">
<ele>745.684</ele>
<time>2020-09-11T13:18:55Z</time>
</trkpt>
<trkpt lat="47.702816" lon="10.871306">
<ele>745.981</ele>
<time>2020-09-11T13:18:56Z</time>
</trkpt>
<trkpt lat="47.702793" lon="10.871353">
<ele>746.216</ele>
<time>2020-09-11T13:18:57Z</time>
</trkpt>
<trkpt lat="47.70277" lon="10.871401">
<ele>746.402</ele>
<time>2020-09-11T13:18:58Z</time>
</trkpt>
<trkpt lat="47.702747" lon="10.871445">
<ele>746.526</ele>
<time>2020-09-11T13:18:59Z</time>
</trkpt>
<trkpt lat="47.702728" lon="10.871493">
<ele>746.922</ele>
<time>2020-09-11T13:19:00Z</time>
</trkpt>
<trkpt lat="47.702705" lon="10.871542">
<ele>747.237</ele>
<time>2020-09-11T13:19:01Z</time>
</trkpt>
<trkpt lat="47.70269" lon="10.87159">
<ele>747.477</ele>
<time>2020-09-11T13:19:02Z</time>
</trkpt>
<trkpt lat="47.702671" lon="10.87164">
<ele>747.651</ele>
<time>2020-09-11T13:19:03Z</time>
</trkpt>
<trkpt lat="47.702656" lon="10.871692">
<ele>747.76</ele>
<time>2020-09-11T13:19:04Z</time>
</trkpt>
<trkpt lat="47.702641" lon="10.871743">
<ele>747.839</ele>
<time>2020-09-11T13:19:05Z</time>
</trkpt>
<trkpt lat="47.702621" lon="10.871793">
<ele>747.892</ele>
<time>2020-09-11T13:19:06Z</time>
</trkpt>
<trkpt lat="47.702606" lon="10.871845">
<ele>747.917</ele>
<time>2020-09-11T13:19:07Z</time>
</trkpt>
<trkpt lat="47.702595" lon="10.871898">
<ele>747.917</ele>
<time>2020-09-11T13:19:08Z</time>
</trkpt>
<trkpt lat="47.702576" lon="10.871952">
<ele>748.135</ele>
<time>2020-09-11T13:19:09Z</time>
</trkpt>
<trkpt lat="47.702564" lon="10.872006">
<ele>748.343</ele>
<time>2020-09-11T13:19:10Z</time>
</trkpt>
<trkpt lat="47.702549" lon="10.872061">
<ele>748.513</ele>
<time>2020-09-11T13:19:11Z</time>
</trkpt>
<trkpt lat="47.702541" lon="10.872115">
<ele>748.648</ele>
<time>2020-09-11T13:19:12Z</time>
</trkpt>
<trkpt lat="47.702522" lon="10.872171">
<ele>748.737</ele>
<time>2020-09-11T13:19:13Z</time>
</trkpt>
<trkpt lat="47.702511" lon="10.872229">
<ele>749.064</ele>
<time>2020-09-11T13:19:14Z</time>
</trkpt>
<trkpt lat="47.702496" lon="10.872283">
<ele>749.319</ele>
<time>2020-09-11T13:19:15Z</time>
</trkpt>
<trkpt lat="47.70248" lon="10.872338">
<ele>749.507</ele>
<time>2020-09-11T13:19:16Z</time>
</trkpt>
<trkpt lat="47.702473" lon="10.872392">
<ele>749.653</ele>
<time>2020-09-11T13:19:17Z</time>
</trkpt>
<trkpt lat="47.702457" lon="10.872447">
<ele>749.72</ele>
<time>2020-09-11T13:19:18Z</time>
</trkpt>
<trkpt lat="47.702446" lon="10.872503">
<ele>750</ele>
<time>2020-09-11T13:19:19Z</time>
</trkpt>
<trkpt lat="47.702431" lon="10.872558">
<ele>750.241</ele>
<time>2020-09-11T13:19:20Z</time>
</trkpt>
<trkpt lat="47.702415" lon="10.872614">
<ele>750.42</ele>
<time>2020-09-11T13:19:21Z</time>
</trkpt>
<trkpt lat="47.702408" lon="10.87267">
<ele>750.546</ele>
<time>2020-09-11T13:19:22Z</time>
</trkpt>
<trkpt lat="47.702389" lon="10.872725">
<ele>750.642</ele>
<time>2020-09-11T13:19:23Z</time>
</trkpt>
<trkpt lat="47.702381" lon="10.87278">
<ele>750.711</ele>
<time>2020-09-11T13:19:24Z</time>
</trkpt>
<trkpt lat="47.702366" lon="10.872835">
<ele>750.752</ele>
<time>2020-09-11T13:19:25Z</time>
</trkpt>
<trkpt lat="47.702354" lon="10.872889">
<ele>751.035</ele>
<time>2020-09-11T13:19:26Z</time>
</trkpt>
<trkpt lat="47.702343" lon="10.872943">
<ele>751.266</ele>
<time>2020-09-11T13:19:27Z</time>
</trkpt>
<trkpt lat="47.702332" lon="10.872998">
<ele>751.433</ele>
<time>2020-09-11T13:19:28Z</time>
</trkpt>
<trkpt lat="47.70232" lon="10.873054">
<ele>751.547</ele>
<time>2020-09-11T13:19:29Z</time>
</trkpt>
<trkpt lat="47.702309" lon="10.873108">
<ele>751.671</ele>
<time>2020-09-11T13:19:30Z</time>
</trkpt>
<trkpt lat="47.702293" lon="10.873161">
<ele>751.762</ele>
<time>2020-09-11T13:19:31Z</time>
</trkpt>
<trkpt lat="47.702282" lon="10.873215">
<ele>751.82</ele>
<time>2020-09-11T13:19:32Z</time>
</trkpt>
<trkpt lat="47.702271" lon="10.873268">
<ele>751.848</ele>
<time>2020-09-11T13:19:33Z</time>
</trkpt>
<trkpt lat="47.702259" lon="10.87332">
<ele>751.848</ele>
<time>2020-09-11T13:19:34Z</time>
</trkpt>
<trkpt lat="47.702248" lon="10.873373">
<ele>752.105</ele>
<time>2020-09-11T13:19:35Z</time>
</trkpt>
<trkpt lat="47.702232" lon="10.873426">
<ele>752.307</ele>
<time>2020-09-11T13:19:36Z</time>
</trkpt>
<trkpt lat="47.702217" lon="10.873475">
<ele>752.462</ele>
<time>2020-09-11T13:19:37Z</time>
</trkpt>
<trkpt lat="47.702206" lon="10.873528">
<ele>752.583</ele>
<time>2020-09-11T13:19:38Z</time>
</trkpt>
<trkpt lat="47.702194" lon="10.873582">
<ele>752.666</ele>
<time>2020-09-11T13:19:39Z</time>
</trkpt>
<trkpt lat="47.702183" lon="10.873636">
<ele>752.751</ele>
<time>2020-09-11T13:19:40Z</time>
</trkpt>
<trkpt lat="47.702168" lon="10.873691">
<ele>752.805</ele>
<time>2020-09-11T13:19:41Z</time>
</trkpt>
<trkpt lat="47.702156" lon="10.873743">
<ele>752.831</ele>
<time>2020-09-11T13:19:42Z</time>
</trkpt>
<trkpt lat="47.702148" lon="10.873796">
<ele>752.831</ele>
<time>2020-09-11T13:19:43Z</time>
</trkpt>
<trkpt lat="47.702133" lon="10.87385">
<ele>752.831</ele>
<time>2020-09-11T13:19:44Z</time>
</trkpt>
<trkpt lat="47.702126" lon="10.873905">
<ele>752.831</ele>
<time>2020-09-11T13:19:45Z</time>
</trkpt>
<trkpt lat="47.702118" lon="10.873959">
<ele>753.106</ele>
<time>2020-09-11T13:19:46Z</time>
</trkpt>
<trkpt lat="47.70211" lon="10.874012">
<ele>753.322</ele>
<time>2020-09-11T13:19:47Z</time>
</trkpt>
<trkpt lat="47.702103" lon="10.874066">
<ele>753.488</ele>
<time>2020-09-11T13:19:48Z</time>
</trkpt>
<trkpt lat="47.702095" lon="10.874122">
<ele>753.605</ele>
<time>2020-09-11T13:19:49Z</time>
</trkpt>
<trkpt lat="47.702087" lon="10.874177">
<ele>753.992</ele>
<time>2020-09-11T13:19:50Z</time>
</trkpt>
<trkpt lat="47.702087" lon="10.874233">
<ele>754.3</ele>
<time>2020-09-11T13:19:51Z</time>
</trkpt>
<trkpt lat="47.702084" lon="10.874291">
<ele>754.534</ele>
<time>2020-09-11T13:19:52Z</time>
</trkpt>
<trkpt lat="47.70208" lon="10.874349">
<ele>754.709</ele>
<time>2020-09-11T13:19:53Z</time>
</trkpt>
<trkpt lat="47.702076" lon="10.874407">
<ele>754.821</ele>
<time>2020-09-11T13:19:54Z</time>
</trkpt>
<trkpt lat="47.702076" lon="10.874464">
<ele>754.901</ele>
<time>2020-09-11T13:19:55Z</time>
</trkpt>
<trkpt lat="47.702072" lon="10.874522">
<ele>754.951</ele>
<time>2020-09-11T13:19:56Z</time>
</trkpt>
<trkpt lat="47.702072" lon="10.874581">
<ele>754.976</ele>
<time>2020-09-11T13:19:57Z</time>
</trkpt>
<trkpt lat="47.702076" lon="10.87464">
<ele>754.976</ele>
<time>2020-09-11T13:19:58Z</time>
</trkpt>
<trkpt lat="47.702076" lon="10.874701">
<ele>754.976</ele>
<time>2020-09-11T13:19:59Z</time>
</trkpt>
<trkpt lat="47.702076" lon="10.87476">
<ele>755.217</ele>
<time>2020-09-11T13:20:00Z</time>
</trkpt>
<trkpt lat="47.70208" lon="10.874824">
<ele>755.42</ele>
<time>2020-09-11T13:20:01Z</time>
</trkpt>
<trkpt lat="47.702084" lon="10.874885">
<ele>755.586</ele>
<time>2020-09-11T13:20:02Z</time>
</trkpt>
<trkpt lat="47.702087" lon="10.874947">
<ele>755.718</ele>
<time>2020-09-11T13:20:03Z</time>
</trkpt>
<trkpt lat="47.702087" lon="10.875007">
<ele>755.818</ele>
<time>2020-09-11T13:20:04Z</time>
</trkpt>
<trkpt lat="47.702091" lon="10.875065">
<ele>755.89</ele>
<time>2020-09-11T13:20:05Z</time>
</trkpt>
<trkpt lat="47.702095" lon="10.875124">
<ele>755.937</ele>
<time>2020-09-11T13:20:06Z</time>
</trkpt>
<trkpt lat="47.702099" lon="10.875183">
<ele>755.959</ele>
<time>2020-09-11T13:20:07Z</time>
</trkpt>
<trkpt lat="47.702099" lon="10.875245">
<ele>755.959</ele>
<time>2020-09-11T13:20:08Z</time>
</trkpt>
<trkpt lat="47.702095" lon="10.875303">
<ele>756.196</ele>
<time>2020-09-11T13:20:09Z</time>
</trkpt>
<trkpt lat="47.702099" lon="10.875367">
<ele>756.422</ele>
<time>2020-09-11T13:20:10Z</time>
</trkpt>
<trkpt lat="47.702099" lon="10.875428">
<ele>756.609</ele>
<time>2020-09-11T13:20:11Z</time>
</trkpt>
<trkpt lat="47.702099" lon="10.875492">
<ele>756.76</ele>
<time>2020-09-11T13:20:12Z</time>
</trkpt>
<trkpt lat="47.702099" lon="10.875558">
<ele>756.875</ele>
<time>2020-09-11T13:20:13Z</time>
</trkpt>
<trkpt lat="47.702099" lon="10.875625">
<ele>756.956</ele>
<time>2020-09-11T13:20:14Z</time>
</trkpt>
<trkpt lat="47.702099" lon="10.875691">
<ele>757.007</ele>
<time>2020-09-11T13:20:15Z</time>
</trkpt>
<trkpt lat="47.702095" lon="10.875758">
<ele>757.032</ele>
<time>2020-09-11T13:20:16Z</time>
</trkpt>
<trkpt lat="47.702091" lon="10.875823">
<ele>757.032</ele>
<time>2020-09-11T13:20:17Z</time>
</trkpt>
<trkpt lat="47.702087" lon="10.875887">
<ele>757.032</ele>
<time>2020-09-11T13:20:18Z</time>
</trkpt>
<trkpt lat="47.702087" lon="10.87595">
<ele>757.032</ele>
<time>2020-09-11T13:20:19Z</time>
</trkpt>
<trkpt lat="47.702084" lon="10.876012">
<ele>757.032</ele>
<time>2020-09-11T13:20:20Z</time>
</trkpt>
<trkpt lat="47.702084" lon="10.87607">
<ele>757.032</ele>
<time>2020-09-11T13:20:21Z</time>
</trkpt>
<trkpt lat="47.702076" lon="10.876132">
<ele>757.284</ele>
<time>2020-09-11T13:20:22Z</time>
</trkpt>
<trkpt lat="47.702068" lon="10.876195">
<ele>757.483</ele>
<time>2020-09-11T13:20:23Z</time>
</trkpt>
<trkpt lat="47.702065" lon="10.876253">
<ele>757.636</ele>
<time>2020-09-11T13:20:24Z</time>
</trkpt>
<trkpt lat="47.702061" lon="10.876311">
<ele>757.749</ele>
<time>2020-09-11T13:20:25Z</time>
</trkpt>
<trkpt lat="47.702053" lon="10.87637">
<ele>757.828</ele>
<time>2020-09-11T13:20:26Z</time>
</trkpt>
<trkpt lat="47.702045" lon="10.87643">
<ele>757.877</ele>
<time>2020-09-11T13:20:27Z</time>
</trkpt>
<trkpt lat="47.702038" lon="10.87649">
<ele>757.905</ele>
<time>2020-09-11T13:20:28Z</time>
</trkpt>
<trkpt lat="47.70203" lon="10.876551">
<ele>757.927</ele>
<time>2020-09-11T13:20:29Z</time>
</trkpt>
<trkpt lat="47.702023" lon="10.87661">
<ele>757.926</ele>
<time>2020-09-11T13:20:30Z</time>
</trkpt>
<trkpt lat="47.702015" lon="10.876666">
<ele>757.927</ele>
<time>2020-09-11T13:20:31Z</time>
</trkpt>
<trkpt lat="47.702003" lon="10.876722">
<ele>758.21</ele>
<time>2020-09-11T13:20:32Z</time>
</trkpt>
<trkpt lat="47.701992" lon="10.876779">
<ele>758.428</ele>
<time>2020-09-11T13:20:33Z</time>
</trkpt>
<trkpt lat="47.701988" lon="10.876837">
<ele>758.598</ele>
<time>2020-09-11T13:20:34Z</time>
</trkpt>
<trkpt lat="47.701977" lon="10.876895">
<ele>758.72</ele>
<time>2020-09-11T13:20:35Z</time>
</trkpt>
<trkpt lat="47.701965" lon="10.876953">
<ele>758.786</ele>
<time>2020-09-11T13:20:36Z</time>
</trkpt>
<trkpt lat="47.701954" lon="10.877015">
<ele>759.094</ele>
<time>2020-09-11T13:20:37Z</time>
</trkpt>
<trkpt lat="47.70195" lon="10.877076">
<ele>759.327</ele>
<time>2020-09-11T13:20:38Z</time>
</trkpt>
<trkpt lat="47.701939" lon="10.87714">
<ele>759.489</ele>
<time>2020-09-11T13:20:39Z</time>
</trkpt>
<trkpt lat="47.701931" lon="10.877204">
<ele>759.634</ele>
<time>2020-09-11T13:20:40Z</time>
</trkpt>
<trkpt lat="47.701923" lon="10.87727">
<ele>759.743</ele>
<time>2020-09-11T13:20:41Z</time>
</trkpt>
<trkpt lat="47.701916" lon="10.877338">
<ele>759.821</ele>
<time>2020-09-11T13:20:42Z</time>
</trkpt>
<trkpt lat="47.701904" lon="10.877401">
<ele>759.87</ele>
<time>2020-09-11T13:20:43Z</time>
</trkpt>
<trkpt lat="47.7019" lon="10.877461">
<ele>759.894</ele>
<time>2020-09-11T13:20:44Z</time>
</trkpt>
<trkpt lat="47.701893" lon="10.877521">
<ele>760.127</ele>
<time>2020-09-11T13:20:45Z</time>
</trkpt>
<trkpt lat="47.701893" lon="10.87758">
<ele>760.309</ele>
<time>2020-09-11T13:20:46Z</time>
</trkpt>
<trkpt lat="47.701889" lon="10.877638">
<ele>760.448</ele>
<time>2020-09-11T13:20:47Z</time>
</trkpt>
<trkpt lat="47.701889" lon="10.877695">
<ele>760.556</ele>
<time>2020-09-11T13:20:48Z</time>
</trkpt>
<trkpt lat="47.701889" lon="10.877747">
<ele>760.63</ele>
<time>2020-09-11T13:20:49Z</time>
</trkpt>
<trkpt lat="47.701889" lon="10.8778">
<ele>760.709</ele>
<time>2020-09-11T13:20:50Z</time>
</trkpt>
<trkpt lat="47.701889" lon="10.877862">
<ele>760.763</ele>
<time>2020-09-11T13:20:51Z</time>
</trkpt>
<trkpt lat="47.7019" lon="10.877929">
<ele>760.788</ele>
<time>2020-09-11T13:20:52Z</time>
</trkpt>
<trkpt lat="47.701912" lon="10.87799">
<ele>761.095</ele>
<time>2020-09-11T13:20:53Z</time>
</trkpt>
<trkpt lat="47.701904" lon="10.878042">
<ele>761.331</ele>
<time>2020-09-11T13:20:54Z</time>
</trkpt>
<trkpt lat="47.701908" lon="10.878105">
<ele>761.509</ele>
<time>2020-09-11T13:20:55Z</time>
</trkpt>
<trkpt lat="47.701904" lon="10.878163">
<ele>761.646</ele>
<time>2020-09-11T13:20:56Z</time>
</trkpt>
<trkpt lat="47.701908" lon="10.878223">
<ele>761.731</ele>
<time>2020-09-11T13:20:57Z</time>
</trkpt>
<trkpt lat="47.701912" lon="10.878275">
<ele>761.79</ele>
<time>2020-09-11T13:20:58Z</time>
</trkpt>
<trkpt lat="47.701923" lon="10.878329">
<ele>761.832</ele>
<time>2020-09-11T13:20:59Z</time>
</trkpt>
<trkpt lat="47.701935" lon="10.878373">
<ele>761.861</ele>
<time>2020-09-11T13:21:00Z</time>
</trkpt>
<trkpt lat="47.701942" lon="10.878417">
<ele>761.862</ele>
<time>2020-09-11T13:21:01Z</time>
</trkpt>
<trkpt lat="47.70195" lon="10.878453">
<ele>762.131</ele>
<time>2020-09-11T13:21:02Z</time>
</trkpt>
<trkpt lat="47.701965" lon="10.878495">
<ele>762.337</ele>
<time>2020-09-11T13:21:03Z</time>
</trkpt>
<trkpt lat="47.701981" lon="10.878545">
<ele>762.509</ele>
<time>2020-09-11T13:21:04Z</time>
</trkpt>
<trkpt lat="47.701992" lon="10.878595">
<ele>762.643</ele>
<time>2020-09-11T13:21:05Z</time>
</trkpt>
<trkpt lat="47.701996" lon="10.878646">
<ele>762.733</ele>
<time>2020-09-11T13:21:06Z</time>
</trkpt>
<trkpt lat="47.702011" lon="10.878707">
<ele>762.794</ele>
<time>2020-09-11T13:21:07Z</time>
</trkpt>
<trkpt lat="47.702019" lon="10.878772">
<ele>762.824</ele>
<time>2020-09-11T13:21:08Z</time>
</trkpt>
<trkpt lat="47.702038" lon="10.878828">
<ele>762.846</ele>
<time>2020-09-11T13:21:09Z</time>
</trkpt>
<trkpt lat="47.702053" lon="10.878885">
<ele>762.846</ele>
<time>2020-09-11T13:21:10Z</time>
</trkpt>
<trkpt lat="47.702061" lon="10.878942">
<ele>762.845</ele>
<time>2020-09-11T13:21:11Z</time>
</trkpt>
<trkpt lat="47.702087" lon="10.879">
<ele>763.198</ele>
<time>2020-09-11T13:21:12Z</time>
</trkpt>
<trkpt lat="47.702114" lon="10.87905">
<ele>763.457</ele>
<time>2020-09-11T13:21:13Z</time>
</trkpt>
<trkpt lat="47.702126" lon="10.8791">
<ele>763.647</ele>
<time>2020-09-11T13:21:14Z</time>
</trkpt>
<trkpt lat="47.702137" lon="10.87914">
<ele>763.784</ele>
<time>2020-09-11T13:21:15Z</time>
</trkpt>
<trkpt lat="47.702152" lon="10.87918">
<ele>763.878</ele>
<time>2020-09-11T13:21:16Z</time>
</trkpt>
<trkpt lat="47.702152" lon="10.879224">
<ele>763.943</ele>
<time>2020-09-11T13:21:17Z</time>
</trkpt>
<trkpt lat="47.702152" lon="10.87927">
<ele>763.975</ele>
<time>2020-09-11T13:21:18Z</time>
</trkpt>
<trkpt lat="47.702156" lon="10.879329">
<ele>764.213</ele>
<time>2020-09-11T13:21:19Z</time>
</trkpt>
<trkpt lat="47.702156" lon="10.879394">
<ele>764.416</ele>
<time>2020-09-11T13:21:20Z</time>
</trkpt>
<trkpt lat="47.70216" lon="10.879453">
<ele>764.601</ele>
<time>2020-09-11T13:21:21Z</time>
</trkpt>
<trkpt lat="47.70216" lon="10.879512">
<ele>764.751</ele>
<time>2020-09-11T13:21:22Z</time>
</trkpt>
<trkpt lat="47.702168" lon="10.879577">
<ele>764.864</ele>
<time>2020-09-11T13:21:23Z</time>
</trkpt>
<trkpt lat="47.702183" lon="10.879641">
<ele>764.933</ele>
<time>2020-09-11T13:21:24Z</time>
</trkpt>
<trkpt lat="47.702194" lon="10.879698">
<ele>764.971</ele>
<time>2020-09-11T13:21:25Z</time>
</trkpt>
<trkpt lat="47.702209" lon="10.879748">
<ele>765.238</ele>
<time>2020-09-11T13:21:26Z</time>
</trkpt>
<trkpt lat="47.702217" lon="10.879795">
<ele>765.438</ele>
<time>2020-09-11T13:21:27Z</time>
</trkpt>
<trkpt lat="47.70224" lon="10.879845">
<ele>765.59</ele>
<time>2020-09-11T13:21:28Z</time>
</trkpt>
<trkpt lat="47.702259" lon="10.879898">
<ele>765.699</ele>
<time>2020-09-11T13:21:29Z</time>
</trkpt>
<trkpt lat="47.702278" lon="10.879949">
<ele>765.811</ele>
<time>2020-09-11T13:21:30Z</time>
</trkpt>
<trkpt lat="47.702286" lon="10.879992">
<ele>765.891</ele>
<time>2020-09-11T13:21:31Z</time>
</trkpt>
<trkpt lat="47.702297" lon="10.88004">
<ele>765.947</ele>
<time>2020-09-11T13:21:32Z</time>
</trkpt>
<trkpt lat="47.702301" lon="10.880092">
<ele>765.977</ele>
<time>2020-09-11T13:21:33Z</time>
</trkpt>
<trkpt lat="47.702312" lon="10.880134">
<ele>765.977</ele>
<time>2020-09-11T13:21:34Z</time>
</trkpt>
<trkpt lat="47.702328" lon="10.880179">
<ele>766.23</ele>
<time>2020-09-11T13:21:35Z</time>
</trkpt>
<trkpt lat="47.702354" lon="10.880228">
<ele>766.429</ele>
<time>2020-09-11T13:21:36Z</time>
</trkpt>
<trkpt lat="47.702377" lon="10.880277">
<ele>766.589</ele>
<time>2020-09-11T13:21:37Z</time>
</trkpt>
<trkpt lat="47.702389" lon="10.880323">
<ele>766.716</ele>
<time>2020-09-11T13:21:38Z</time>
</trkpt>
<trkpt lat="47.7024" lon="10.88037">
<ele>766.804</ele>
<time>2020-09-11T13:21:39Z</time>
</trkpt>
<trkpt lat="47.702423" lon="10.88042">
<ele>766.881</ele>
<time>2020-09-11T13:21:40Z</time>
</trkpt>
<trkpt lat="47.702438" lon="10.880468">
<ele>767.224</ele>
<time>2020-09-11T13:21:41Z</time>
</trkpt>
<trkpt lat="47.702446" lon="10.880517">
<ele>767.49</ele>
<time>2020-09-11T13:21:42Z</time>
</trkpt>
<trkpt lat="47.702473" lon="10.880567">
<ele>767.777</ele>
<time>2020-09-11T13:21:43Z</time>
</trkpt>
<trkpt lat="47.702477" lon="10.88061">
<ele>767.92</ele>
<time>2020-09-11T13:21:44Z</time>
</trkpt>
<trkpt lat="47.702465" lon="10.880653">
<ele>768.032</ele>
<time>2020-09-11T13:21:45Z</time>
</trkpt>
<trkpt lat="47.70248" lon="10.880712">
<ele>768.098</ele>
<time>2020-09-11T13:21:46Z</time>
</trkpt>
<trkpt lat="47.702503" lon="10.880766">
<ele>768.125</ele>
<time>2020-09-11T13:21:47Z</time>
</trkpt>
<trkpt lat="47.702526" lon="10.880816">
<ele>768.125</ele>
<time>2020-09-11T13:21:48Z</time>
</trkpt>
<trkpt lat="47.702549" lon="10.880865">
<ele>768.125</ele>
<time>2020-09-11T13:21:49Z</time>
</trkpt>
<trkpt lat="47.702557" lon="10.880906">
<ele>768.125</ele>
<time>2020-09-11T13:21:50Z</time>
</trkpt>
<trkpt lat="47.702572" lon="10.880952">
<ele>768.417</ele>
<time>2020-09-11T13:21:51Z</time>
</trkpt>
<trkpt lat="47.702579" lon="10.881005">
<ele>768.651</ele>
<time>2020-09-11T13:21:52Z</time>
</trkpt>
<trkpt lat="47.702587" lon="10.881057">
<ele>768.809</ele>
<time>2020-09-11T13:21:53Z</time>
</trkpt>
<trkpt lat="47.702599" lon="10.881115">
<ele>768.924</ele>
<time>2020-09-11T13:21:54Z</time>
</trkpt>
<trkpt lat="47.702606" lon="10.881165">
<ele>769.01</ele>
<time>2020-09-11T13:21:55Z</time>
</trkpt>
<trkpt lat="47.702614" lon="10.881223">
<ele>769.334</ele>
<time>2020-09-11T13:21:56Z</time>
</trkpt>
<trkpt lat="47.702618" lon="10.881279">
<ele>769.561</ele>
<time>2020-09-11T13:21:57Z</time>
</trkpt>
<trkpt lat="47.702621" lon="10.88133">
<ele>769.732</ele>
<time>2020-09-11T13:21:58Z</time>
</trkpt>
<trkpt lat="47.702641" lon="10.881371">
<ele>769.828</ele>
<time>2020-09-11T13:21:59Z</time>
</trkpt>
<trkpt lat="47.702644" lon="10.881425">
<ele>769.93</ele>
<time>2020-09-11T13:22:00Z</time>
</trkpt>
<trkpt lat="47.702641" lon="10.881476">
<ele>770.25</ele>
<time>2020-09-11T13:22:01Z</time>
</trkpt>
<trkpt lat="47.702644" lon="10.881531">
<ele>770.499</ele>
<time>2020-09-11T13:22:02Z</time>
</trkpt>
<trkpt lat="47.702644" lon="10.881577">
<ele>770.694</ele>
<time>2020-09-11T13:22:03Z</time>
</trkpt>
<trkpt lat="47.702644" lon="10.881617">
<ele>770.899</ele>
<time>2020-09-11T13:22:04Z</time>
</trkpt>
<trkpt lat="47.702644" lon="10.88166">
<ele>770.991</ele>
<time>2020-09-11T13:22:05Z</time>
</trkpt>
<trkpt lat="47.702644" lon="10.88171">
<ele>771.042</ele>
<time>2020-09-11T13:22:06Z</time>
</trkpt>
<trkpt lat="47.702644" lon="10.88176">
<ele>771.31</ele>
<time>2020-09-11T13:22:07Z</time>
</trkpt>
<trkpt lat="47.702644" lon="10.881808">
<ele>771.511</ele>
<time>2020-09-11T13:22:08Z</time>
</trkpt>
<trkpt lat="47.702641" lon="10.881853">
<ele>771.647</ele>
<time>2020-09-11T13:22:09Z</time>
</trkpt>
<trkpt lat="47.702641" lon="10.8819">
<ele>771.795</ele>
<time>2020-09-11T13:22:10Z</time>
</trkpt>
<trkpt lat="47.702641" lon="10.881953">
<ele>771.916</ele>
<time>2020-09-11T13:22:11Z</time>
</trkpt>
<trkpt lat="47.702656" lon="10.882007">
<ele>771.991</ele>
<time>2020-09-11T13:22:12Z</time>
</trkpt>
<trkpt lat="47.702656" lon="10.882056">
<ele>772.287</ele>
<time>2020-09-11T13:22:13Z</time>
</trkpt>
<trkpt lat="47.702648" lon="10.882103">
<ele>772.511</ele>
<time>2020-09-11T13:22:14Z</time>
</trkpt>
<trkpt lat="47.702648" lon="10.882151">
<ele>772.722</ele>
<time>2020-09-11T13:22:15Z</time>
</trkpt>
<trkpt lat="47.702656" lon="10.882203">
<ele>772.843</ele>
<time>2020-09-11T13:22:16Z</time>
</trkpt>
<trkpt lat="47.702656" lon="10.882256">
<ele>772.926</ele>
<time>2020-09-11T13:22:17Z</time>
</trkpt>
<trkpt lat="47.702656" lon="10.882303">
<ele>772.97</ele>
<time>2020-09-11T13:22:18Z</time>
</trkpt>
<trkpt lat="47.702648" lon="10.882345">
<ele>773.237</ele>
<time>2020-09-11T13:22:19Z</time>
</trkpt>
<trkpt lat="47.702648" lon="10.88239">
<ele>773.467</ele>
<time>2020-09-11T13:22:20Z</time>
</trkpt>
<trkpt lat="47.702644" lon="10.882438">
<ele>773.642</ele>
<time>2020-09-11T13:22:21Z</time>
</trkpt>
<trkpt lat="47.702644" lon="10.882482">
<ele>773.778</ele>
<time>2020-09-11T13:22:22Z</time>
</trkpt>
<trkpt lat="47.702641" lon="10.882532">
<ele>773.881</ele>
<time>2020-09-11T13:22:23Z</time>
</trkpt>
<trkpt lat="47.702641" lon="10.882586">
<ele>773.945</ele>
<time>2020-09-11T13:22:24Z</time>
</trkpt>
<trkpt lat="47.702641" lon="10.882633">
<ele>774.247</ele>
<time>2020-09-11T13:22:25Z</time>
</trkpt>
<trkpt lat="47.702641" lon="10.882679">
<ele>774.482</ele>
<time>2020-09-11T13:22:26Z</time>
</trkpt>
<trkpt lat="47.702633" lon="10.882729">
<ele>774.662</ele>
<time>2020-09-11T13:22:27Z</time>
</trkpt>
<trkpt lat="47.702625" lon="10.882771">
<ele>774.779</ele>
<time>2020-09-11T13:22:28Z</time>
</trkpt>
<trkpt lat="47.702625" lon="10.882821">
<ele>774.859</ele>
<time>2020-09-11T13:22:29Z</time>
</trkpt>
<trkpt lat="47.702618" lon="10.882867">
<ele>774.941</ele>
<time>2020-09-11T13:22:30Z</time>
</trkpt>
<trkpt lat="47.70261" lon="10.882909">
<ele>775.226</ele>
<time>2020-09-11T13:22:31Z</time>
</trkpt>
<trkpt lat="47.702606" lon="10.882952">
<ele>775.45</ele>
<time>2020-09-11T13:22:32Z</time>
</trkpt>
<trkpt lat="47.702606" lon="10.882997">
<ele>775.706</ele>
<time>2020-09-11T13:22:33Z</time>
</trkpt>
<trkpt lat="47.70261" lon="10.883047">
<ele>775.832</ele>
<time>2020-09-11T13:22:34Z</time>
</trkpt>
<trkpt lat="47.70261" lon="10.883098">
<ele>775.917</ele>
<time>2020-09-11T13:22:35Z</time>
</trkpt>
<trkpt lat="47.702614" lon="10.883153">
<ele>775.981</ele>
<time>2020-09-11T13:22:36Z</time>
</trkpt>
<trkpt lat="47.702618" lon="10.883194">
<ele>775.997</ele>
<time>2020-09-11T13:22:37Z</time>
</trkpt>
<trkpt lat="47.702618" lon="10.883232">
<ele>776.245</ele>
<time>2020-09-11T13:22:38Z</time>
</trkpt>
<trkpt lat="47.702621" lon="10.883282">
<ele>776.418</ele>
<time>2020-09-11T13:22:39Z</time>
</trkpt>
<trkpt lat="47.702621" lon="10.883328">
<ele>776.59</ele>
<time>2020-09-11T13:22:40Z</time>
</trkpt>
<trkpt lat="47.702618" lon="10.883375">
<ele>776.725</ele>
<time>2020-09-11T13:22:41Z</time>
</trkpt>
<trkpt lat="47.702614" lon="10.88342">
<ele>776.815</ele>
<time>2020-09-11T13:22:42Z</time>
</trkpt>
<trkpt lat="47.702606" lon="10.883458">
<ele>777.134</ele>
<time>2020-09-11T13:22:43Z</time>
</trkpt>
<trkpt lat="47.70261" lon="10.883496">
<ele>777.39</ele>
<time>2020-09-11T13:22:44Z</time>
</trkpt>
<trkpt lat="47.702621" lon="10.883549">
<ele>777.6</ele>
<time>2020-09-11T13:22:45Z</time>
</trkpt>
<trkpt lat="47.702625" lon="10.883605">
<ele>777.77</ele>
<time>2020-09-11T13:22:46Z</time>
</trkpt>
<trkpt lat="47.702621" lon="10.883652">
<ele>777.848</ele>
<time>2020-09-11T13:22:47Z</time>
</trkpt>
<trkpt lat="47.702621" lon="10.883703">
<ele>777.904</ele>
<time>2020-09-11T13:22:48Z</time>
</trkpt>
<trkpt lat="47.702625" lon="10.883761">
<ele>777.947</ele>
<time>2020-09-11T13:22:49Z</time>
</trkpt>
<trkpt lat="47.702625" lon="10.883825">
<ele>777.975</ele>
<time>2020-09-11T13:22:50Z</time>
</trkpt>
<trkpt lat="47.702629" lon="10.883888">
<ele>777.975</ele>
<time>2020-09-11T13:22:51Z</time>
</trkpt>
<trkpt lat="47.702637" lon="10.883945">
<ele>778.28</ele>
<time>2020-09-11T13:22:52Z</time>
</trkpt>
<trkpt lat="47.702648" lon="10.884002">
<ele>778.494</ele>
<time>2020-09-11T13:22:53Z</time>
</trkpt>
<trkpt lat="47.702663" lon="10.884051">
<ele>778.663</ele>
<time>2020-09-11T13:22:54Z</time>
</trkpt>
<trkpt lat="47.702675" lon="10.884102">
<ele>778.787</ele>
<time>2020-09-11T13:22:55Z</time>
</trkpt>
<trkpt lat="47.702686" lon="10.88415">
<ele>778.862</ele>
<time>2020-09-11T13:22:56Z</time>
</trkpt>
<trkpt lat="47.702698" lon="10.884198">
<ele>778.911</ele>
<time>2020-09-11T13:22:57Z</time>
</trkpt>
<trkpt lat="47.702713" lon="10.88424">
<ele>778.931</ele>
<time>2020-09-11T13:22:58Z</time>
</trkpt>
<trkpt lat="47.702732" lon="10.884281">
<ele>779.152</ele>
<time>2020-09-11T13:22:59Z</time>
</trkpt>
<trkpt lat="47.70274" lon="10.884327">
<ele>779.337</ele>
<time>2020-09-11T13:23:00Z</time>
</trkpt>
<trkpt lat="47.702747" lon="10.884372">
<ele>779.49</ele>
<time>2020-09-11T13:23:01Z</time>
</trkpt>
<trkpt lat="47.702759" lon="10.884416">
<ele>779.618</ele>
<time>2020-09-11T13:23:02Z</time>
</trkpt>
<trkpt lat="47.70277" lon="10.884457">
<ele>779.717</ele>
<time>2020-09-11T13:23:03Z</time>
</trkpt>
<trkpt lat="47.702778" lon="10.884501">
<ele>779.789</ele>
<time>2020-09-11T13:23:04Z</time>
</trkpt>
<trkpt lat="47.702797" lon="10.88454">
<ele>779.835</ele>
<time>2020-09-11T13:23:05Z</time>
</trkpt>
<trkpt lat="47.702808" lon="10.884585">
<ele>779.857</ele>
<time>2020-09-11T13:23:06Z</time>
</trkpt>
<trkpt lat="47.70282" lon="10.884627">
<ele>780.122</ele>
<time>2020-09-11T13:23:07Z</time>
</trkpt>
<trkpt lat="47.70282" lon="10.884668">
<ele>780.336</ele>
<time>2020-09-11T13:23:08Z</time>
</trkpt>
<trkpt lat="47.702827" lon="10.88471">
<ele>780.484</ele>
<time>2020-09-11T13:23:09Z</time>
</trkpt>
<trkpt lat="47.702835" lon="10.884759">
<ele>780.641</ele>
<time>2020-09-11T13:23:10Z</time>
</trkpt>
<trkpt lat="47.702839" lon="10.884807">
<ele>780.764</ele>
<time>2020-09-11T13:23:11Z</time>
</trkpt>
<trkpt lat="47.70285" lon="10.884856">
<ele>780.849</ele>
<time>2020-09-11T13:23:12Z</time>
</trkpt>
<trkpt lat="47.702866" lon="10.884908">
<ele>780.903</ele>
<time>2020-09-11T13:23:13Z</time>
</trkpt>
<trkpt lat="47.702869" lon="10.884958">
<ele>781.182</ele>
<time>2020-09-11T13:23:14Z</time>
</trkpt>
<trkpt lat="47.702877" lon="10.885003">
<ele>781.421</ele>
<time>2020-09-11T13:23:15Z</time>
</trkpt>
<trkpt lat="47.702881" lon="10.88505">
<ele>781.58</ele>
<time>2020-09-11T13:23:16Z</time>
</trkpt>
<trkpt lat="47.702885" lon="10.885098">
<ele>781.692</ele>
<time>2020-09-11T13:23:17Z</time>
</trkpt>
<trkpt lat="47.702888" lon="10.885142">
<ele>781.756</ele>
<time>2020-09-11T13:23:18Z</time>
</trkpt>
<trkpt lat="47.702892" lon="10.885183">
<ele>782.05</ele>
<time>2020-09-11T13:23:19Z</time>
</trkpt>
<trkpt lat="47.702896" lon="10.885223">
<ele>782.302</ele>
<time>2020-09-11T13:23:20Z</time>
</trkpt>
<trkpt lat="47.702896" lon="10.885266">
<ele>782.497</ele>
<time>2020-09-11T13:23:21Z</time>
</trkpt>
<trkpt lat="47.702896" lon="10.885304">
<ele>782.639</ele>
<time>2020-09-11T13:23:22Z</time>
</trkpt>
<trkpt lat="47.702896" lon="10.885348">
<ele>782.75</ele>
<time>2020-09-11T13:23:23Z</time>
</trkpt>
<trkpt lat="47.702896" lon="10.885392">
<ele>782.816</ele>
<time>2020-09-11T13:23:24Z</time>
</trkpt>
<trkpt lat="47.702892" lon="10.885436">
<ele>783.09</ele>
<time>2020-09-11T13:23:25Z</time>
</trkpt>
<trkpt lat="47.702888" lon="10.88548">
<ele>783.308</ele>
<time>2020-09-11T13:23:26Z</time>
</trkpt>
<trkpt lat="47.702885" lon="10.885524">
<ele>783.471</ele>
<time>2020-09-11T13:23:27Z</time>
</trkpt>
<trkpt lat="47.702877" lon="10.88557">
<ele>783.583</ele>
<time>2020-09-11T13:23:28Z</time>
</trkpt>
<trkpt lat="47.702873" lon="10.885614">
<ele>783.655</ele>
<time>2020-09-11T13:23:29Z</time>
</trkpt>
<trkpt lat="47.702869" lon="10.885656">
<ele>783.733</ele>
<time>2020-09-11T13:23:30Z</time>
</trkpt>
<trkpt lat="47.702862" lon="10.885698">
<ele>783.776</ele>
<time>2020-09-11T13:23:31Z</time>
</trkpt>
<trkpt lat="47.702854" lon="10.885738">
<ele>784.06</ele>
<time>2020-09-11T13:23:32Z</time>
</trkpt>
<trkpt lat="47.702847" lon="10.885777">
<ele>784.344</ele>
<time>2020-09-11T13:23:33Z</time>
</trkpt>
<trkpt lat="47.702835" lon="10.885818">
<ele>784.533</ele>
<time>2020-09-11T13:23:34Z</time>
</trkpt>
<trkpt lat="47.702827" lon="10.885859">
<ele>784.668</ele>
<time>2020-09-11T13:23:35Z</time>
</trkpt>
<trkpt lat="47.702824" lon="10.885905">
<ele>784.761</ele>
<time>2020-09-11T13:23:36Z</time>
</trkpt>
<trkpt lat="47.702812" lon="10.88595">
<ele>784.815</ele>
<time>2020-09-11T13:23:37Z</time>
</trkpt>
<trkpt lat="47.702801" lon="10.885993">
<ele>784.846</ele>
<time>2020-09-11T13:23:38Z</time>
</trkpt>
<trkpt lat="47.702789" lon="10.886035">
<ele>785.101</ele>
<time>2020-09-11T13:23:39Z</time>
</trkpt>
<trkpt lat="47.702774" lon="10.886075">
<ele>785.312</ele>
<time>2020-09-11T13:23:40Z</time>
</trkpt>
<trkpt lat="47.702763" lon="10.88612">
<ele>785.482</ele>
<time>2020-09-11T13:23:41Z</time>
</trkpt>
<trkpt lat="47.702751" lon="10.886159">
<ele>785.613</ele>
<time>2020-09-11T13:23:42Z</time>
</trkpt>
<trkpt lat="47.70274" lon="10.8862">
<ele>785.716</ele>
<time>2020-09-11T13:23:43Z</time>
</trkpt>
<trkpt lat="47.702728" lon="10.88624">
<ele>785.789</ele>
<time>2020-09-11T13:23:44Z</time>
</trkpt>
<trkpt lat="47.702713" lon="10.88628">
<ele>785.838</ele>
<time>2020-09-11T13:23:45Z</time>
</trkpt>
<trkpt lat="47.702702" lon="10.886322">
<ele>785.863</ele>
<time>2020-09-11T13:23:46Z</time>
</trkpt>
<trkpt lat="47.702686" lon="10.886362">
<ele>785.863</ele>
<time>2020-09-11T13:23:47Z</time>
</trkpt>
<trkpt lat="47.702667" lon="10.8864">
<ele>785.863</ele>
<time>2020-09-11T13:23:48Z</time>
</trkpt>
<trkpt lat="47.702648" lon="10.886437">
<ele>785.863</ele>
<time>2020-09-11T13:23:49Z</time>
</trkpt>
<trkpt lat="47.702633" lon="10.886475">
<ele>786.105</ele>
<time>2020-09-11T13:23:50Z</time>
</trkpt>
<trkpt lat="47.702618" lon="10.886513">
<ele>786.306</ele>
<time>2020-09-11T13:23:51Z</time>
</trkpt>
<trkpt lat="47.702602" lon="10.88655">
<ele>786.47</ele>
<time>2020-09-11T13:23:52Z</time>
</trkpt>
<trkpt lat="47.702583" lon="10.886586">
<ele>786.6</ele>
<time>2020-09-11T13:23:53Z</time>
</trkpt>
<trkpt lat="47.702564" lon="10.886623">
<ele>786.703</ele>
<time>2020-09-11T13:23:54Z</time>
</trkpt>
<trkpt lat="47.702541" lon="10.886665">
<ele>786.765</ele>
<time>2020-09-11T13:23:55Z</time>
</trkpt>
<trkpt lat="47.702526" lon="10.886706">
<ele>787.066</ele>
<time>2020-09-11T13:23:56Z</time>
</trkpt>
<trkpt lat="47.702507" lon="10.886745">
<ele>787.299</ele>
<time>2020-09-11T13:23:57Z</time>
</trkpt>
<trkpt lat="47.702488" lon="10.886786">
<ele>787.467</ele>
<time>2020-09-11T13:23:58Z</time>
</trkpt>
<trkpt lat="47.702477" lon="10.886822">
<ele>787.573</ele>
<time>2020-09-11T13:23:59Z</time>
</trkpt>
<trkpt lat="47.702454" lon="10.886862">
<ele>787.683</ele>
<time>2020-09-11T13:24:00Z</time>
</trkpt>
<trkpt lat="47.702438" lon="10.886902">
<ele>787.761</ele>
<time>2020-09-11T13:24:01Z</time>
</trkpt>
<trkpt lat="47.702415" lon="10.886949">
<ele>787.811</ele>
<time>2020-09-11T13:24:02Z</time>
</trkpt>
<trkpt lat="47.702396" lon="10.886992">
<ele>787.835</ele>
<time>2020-09-11T13:24:03Z</time>
</trkpt>
<trkpt lat="47.702377" lon="10.887031">
<ele>787.835</ele>
<time>2020-09-11T13:24:04Z</time>
</trkpt>
<trkpt lat="47.702358" lon="10.887066">
<ele>788.073</ele>
<time>2020-09-11T13:24:05Z</time>
</trkpt>
<trkpt lat="47.702343" lon="10.887103">
<ele>788.257</ele>
<time>2020-09-11T13:24:06Z</time>
</trkpt>
<trkpt lat="47.702328" lon="10.887136">
<ele>788.401</ele>
<time>2020-09-11T13:24:07Z</time>
</trkpt>
<trkpt lat="47.702312" lon="10.887177">
<ele>788.502</ele>
<time>2020-09-11T13:24:08Z</time>
</trkpt>
<trkpt lat="47.702293" lon="10.887217">
<ele>788.576</ele>
<time>2020-09-11T13:24:09Z</time>
</trkpt>
<trkpt lat="47.702278" lon="10.887255">
<ele>788.651</ele>
<time>2020-09-11T13:24:10Z</time>
</trkpt>
<trkpt lat="47.702263" lon="10.887299">
<ele>788.706</ele>
<time>2020-09-11T13:24:11Z</time>
</trkpt>
<trkpt lat="47.702248" lon="10.887341">
<ele>788.732</ele>
<time>2020-09-11T13:24:12Z</time>
</trkpt>
<trkpt lat="47.70224" lon="10.887384">
<ele>789.012</ele>
<time>2020-09-11T13:24:13Z</time>
</trkpt>
<trkpt lat="47.702225" lon="10.88743">
<ele>789.23</ele>
<time>2020-09-11T13:24:14Z</time>
</trkpt>
<trkpt lat="47.702217" lon="10.887473">
<ele>789.391</ele>
<time>2020-09-11T13:24:15Z</time>
</trkpt>
<trkpt lat="47.702213" lon="10.887515">
<ele>789.506</ele>
<time>2020-09-11T13:24:16Z</time>
</trkpt>
<trkpt lat="47.702206" lon="10.887556">
<ele>789.59</ele>
<time>2020-09-11T13:24:17Z</time>
</trkpt>
<trkpt lat="47.702202" lon="10.887596">
<ele>789.649</ele>
<time>2020-09-11T13:24:18Z</time>
</trkpt>
<trkpt lat="47.702194" lon="10.887636">
<ele>789.69</ele>
<time>2020-09-11T13:24:19Z</time>
</trkpt>
<trkpt lat="47.70219" lon="10.88768">
<ele>789.719</ele>
<time>2020-09-11T13:24:20Z</time>
</trkpt>
<trkpt lat="47.70219" lon="10.88772">
<ele>790.027</ele>
<time>2020-09-11T13:24:21Z</time>
</trkpt>
<trkpt lat="47.70219" lon="10.88776">
<ele>790.271</ele>
<time>2020-09-11T13:24:22Z</time>
</trkpt>
<trkpt lat="47.70219" lon="10.887801">
<ele>790.464</ele>
<time>2020-09-11T13:24:23Z</time>
</trkpt>
<trkpt lat="47.702198" lon="10.887845">
<ele>790.613</ele>
<time>2020-09-11T13:24:24Z</time>
</trkpt>
<trkpt lat="47.702183" lon="10.887868">
<ele>790.7</ele>
<time>2020-09-11T13:24:25Z</time>
</trkpt>
<trkpt lat="47.702183" lon="10.887903">
<ele>790.754</ele>
<time>2020-09-11T13:24:26Z</time>
</trkpt>
<trkpt lat="47.702187" lon="10.887943">
<ele>791.022</ele>
<time>2020-09-11T13:24:27Z</time>
</trkpt>
<trkpt lat="47.702194" lon="10.887981">
<ele>791.225</ele>
<time>2020-09-11T13:24:28Z</time>
</trkpt>
<trkpt lat="47.702206" lon="10.888028">
<ele>791.361</ele>
<time>2020-09-11T13:24:29Z</time>
</trkpt>
<trkpt lat="47.702217" lon="10.888074">
<ele>791.51</ele>
<time>2020-09-11T13:24:30Z</time>
</trkpt>
<trkpt lat="47.702236" lon="10.888117">
<ele>791.624</ele>
<time>2020-09-11T13:24:31Z</time>
</trkpt>
<trkpt lat="47.702248" lon="10.88816">
<ele>791.708</ele>
<time>2020-09-11T13:24:32Z</time>
</trkpt>
<trkpt lat="47.702267" lon="10.888204">
<ele>791.764</ele>
<time>2020-09-11T13:24:33Z</time>
</trkpt>
<trkpt lat="47.702278" lon="10.888247">
<ele>791.782</ele>
<time>2020-09-11T13:24:34Z</time>
</trkpt>
<trkpt lat="47.702282" lon="10.888295">
<ele>791.782</ele>
<time>2020-09-11T13:24:35Z</time>
</trkpt>
<trkpt lat="47.702282" lon="10.888338">
<ele>791.782</ele>
<time>2020-09-11T13:24:36Z</time>
</trkpt>
<trkpt lat="47.702282" lon="10.888384">
<ele>792.065</ele>
<time>2020-09-11T13:24:37Z</time>
</trkpt>
<trkpt lat="47.702282" lon="10.888428">
<ele>792.294</ele>
<time>2020-09-11T13:24:38Z</time>
</trkpt>
<trkpt lat="47.702286" lon="10.888478">
<ele>792.452</ele>
<time>2020-09-11T13:24:39Z</time>
</trkpt>
<trkpt lat="47.70229" lon="10.888524">
<ele>792.625</ele>
<time>2020-09-11T13:24:40Z</time>
</trkpt>
<trkpt lat="47.702301" lon="10.888572">
<ele>792.759</ele>
<time>2020-09-11T13:24:41Z</time>
</trkpt>
<trkpt lat="47.702305" lon="10.888615">
<ele>792.848</ele>
<time>2020-09-11T13:24:42Z</time>
</trkpt>
<trkpt lat="47.702312" lon="10.88866">
<ele>793.133</ele>
<time>2020-09-11T13:24:43Z</time>
</trkpt>
<trkpt lat="47.702328" lon="10.888706">
<ele>793.354</ele>
<time>2020-09-11T13:24:44Z</time>
</trkpt>
<trkpt lat="47.702347" lon="10.888757">
<ele>793.551</ele>
<time>2020-09-11T13:24:45Z</time>
</trkpt>
<trkpt lat="47.702358" lon="10.888803">
<ele>793.655</ele>
<time>2020-09-11T13:24:46Z</time>
</trkpt>
<trkpt lat="47.70237" lon="10.88885">
<ele>793.734</ele>
<time>2020-09-11T13:24:47Z</time>
</trkpt>
<trkpt lat="47.702381" lon="10.888893">
<ele>793.784</ele>
<time>2020-09-11T13:24:48Z</time>
</trkpt>
<trkpt lat="47.702389" lon="10.88893">
<ele>793.82</ele>
<time>2020-09-11T13:24:49Z</time>
</trkpt>
<trkpt lat="47.7024" lon="10.88897">
<ele>794.08</ele>
<time>2020-09-11T13:24:50Z</time>
</trkpt>
<trkpt lat="47.702408" lon="10.889012">
<ele>794.272</ele>
<time>2020-09-11T13:24:51Z</time>
</trkpt>
<trkpt lat="47.702412" lon="10.889051">
<ele>794.401</ele>
<time>2020-09-11T13:24:52Z</time>
</trkpt>
<trkpt lat="47.702419" lon="10.889094">
<ele>794.771</ele>
<time>2020-09-11T13:24:53Z</time>
</trkpt>
<trkpt lat="47.702427" lon="10.889135">
<ele>795.093</ele>
<time>2020-09-11T13:24:54Z</time>
</trkpt>
<trkpt lat="47.702435" lon="10.889176">
<ele>795.348</ele>
<time>2020-09-11T13:24:55Z</time>
</trkpt>
<trkpt lat="47.702442" lon="10.889218">
<ele>795.545</ele>
<time>2020-09-11T13:24:56Z</time>
</trkpt>
<trkpt lat="47.702446" lon="10.889258">
<ele>795.68</ele>
<time>2020-09-11T13:24:57Z</time>
</trkpt>
<trkpt lat="47.702454" lon="10.889299">
<ele>795.738</ele>
<time>2020-09-11T13:24:58Z</time>
</trkpt>
<trkpt lat="47.702461" lon="10.889343">
<ele>795.991</ele>
<time>2020-09-11T13:24:59Z</time>
</trkpt>
<trkpt lat="47.702465" lon="10.889388">
<ele>796.209</ele>
<time>2020-09-11T13:25:00Z</time>
</trkpt>
<trkpt lat="47.702469" lon="10.88943">
<ele>796.363</ele>
<time>2020-09-11T13:25:01Z</time>
</trkpt>
<trkpt lat="47.702473" lon="10.889471">
<ele>796.49</ele>
<time>2020-09-11T13:25:02Z</time>
</trkpt>
<trkpt lat="47.702477" lon="10.889515">
<ele>796.569</ele>
<time>2020-09-11T13:25:03Z</time>
</trkpt>
<trkpt lat="47.702477" lon="10.889555">
<ele>796.929</ele>
<time>2020-09-11T13:25:04Z</time>
</trkpt>
<trkpt lat="47.702484" lon="10.889597">
<ele>797.216</ele>
<time>2020-09-11T13:25:05Z</time>
</trkpt>
<trkpt lat="47.702488" lon="10.889643">
<ele>797.432</ele>
<time>2020-09-11T13:25:06Z</time>
</trkpt>
<trkpt lat="47.702492" lon="10.889688">
<ele>797.605</ele>
<time>2020-09-11T13:25:07Z</time>
</trkpt>
<trkpt lat="47.702496" lon="10.88973">
<ele>797.711</ele>
<time>2020-09-11T13:25:08Z</time>
</trkpt>
<trkpt lat="47.702499" lon="10.889767">
<ele>797.789</ele>
<time>2020-09-11T13:25:09Z</time>
</trkpt>
<trkpt lat="47.702499" lon="10.889807">
<ele>797.852</ele>
<time>2020-09-11T13:25:10Z</time>
</trkpt>
<trkpt lat="47.702503" lon="10.889845">
<ele>798.097</ele>
<time>2020-09-11T13:25:11Z</time>
</trkpt>
<trkpt lat="47.702503" lon="10.88988">
<ele>798.346</ele>
<time>2020-09-11T13:25:12Z</time>
</trkpt>
<trkpt lat="47.702507" lon="10.889917">
<ele>798.497</ele>
<time>2020-09-11T13:25:13Z</time>
</trkpt>
<trkpt lat="47.702507" lon="10.889952">
<ele>798.61</ele>
<time>2020-09-11T13:25:14Z</time>
</trkpt>
<trkpt lat="47.702511" lon="10.889989">
<ele>798.703</ele>
<time>2020-09-11T13:25:15Z</time>
</trkpt>
<trkpt lat="47.702511" lon="10.890024">
<ele>798.757</ele>
<time>2020-09-11T13:25:16Z</time>
</trkpt>
<trkpt lat="47.702511" lon="10.890059">
<ele>798.782</ele>
<time>2020-09-11T13:25:17Z</time>
</trkpt>
<trkpt lat="47.702511" lon="10.890095">
<ele>798.782</ele>
<time>2020-09-11T13:25:18Z</time>
</trkpt>
<trkpt lat="47.702511" lon="10.89013">
<ele>799</ele>
<time>2020-09-11T13:25:19Z</time>
</trkpt>
<trkpt lat="47.702511" lon="10.890164">
<ele>799.208</ele>
<time>2020-09-11T13:25:20Z</time>
</trkpt>
<trkpt lat="47.702511" lon="10.8902">
<ele>799.355</ele>
<time>2020-09-11T13:25:21Z</time>
</trkpt>
<trkpt lat="47.702511" lon="10.890235">
<ele>799.719</ele>
<time>2020-09-11T13:25:22Z</time>
</trkpt>
<trkpt lat="47.702511" lon="10.890269">
<ele>800.01</ele>
<time>2020-09-11T13:25:23Z</time>
</trkpt>
<trkpt lat="47.702511" lon="10.890305">
<ele>800.244</ele>
<time>2020-09-11T13:25:24Z</time>
</trkpt>
<trkpt lat="47.702511" lon="10.890343">
<ele>800.421</ele>
<time>2020-09-11T13:25:25Z</time>
</trkpt>
<trkpt lat="47.702511" lon="10.89038">
<ele>800.535</ele>
<time>2020-09-11T13:25:26Z</time>
</trkpt>
<trkpt lat="47.702511" lon="10.890411">
<ele>800.608</ele>
<time>2020-09-11T13:25:27Z</time>
</trkpt>
<trkpt lat="47.702511" lon="10.890447">
<ele>800.884</ele>
<time>2020-09-11T13:25:28Z</time>
</trkpt>
<trkpt lat="47.702511" lon="10.890483">
<ele>801.078</ele>
<time>2020-09-11T13:25:29Z</time>
</trkpt>
<trkpt lat="47.702511" lon="10.89052">
<ele>801.254</ele>
<time>2020-09-11T13:25:30Z</time>
</trkpt>
<trkpt lat="47.702515" lon="10.890556">
<ele>801.394</ele>
<time>2020-09-11T13:25:31Z</time>
</trkpt>
<trkpt lat="47.702515" lon="10.890594">
<ele>801.488</ele>
<time>2020-09-11T13:25:32Z</time>
</trkpt>
<trkpt lat="47.702511" lon="10.890627">
<ele>801.81</ele>
<time>2020-09-11T13:25:33Z</time>
</trkpt>
<trkpt lat="47.702511" lon="10.890665">
<ele>802.073</ele>
<time>2020-09-11T13:25:34Z</time>
</trkpt>
<trkpt lat="47.702511" lon="10.890698">
<ele>802.269</ele>
<time>2020-09-11T13:25:35Z</time>
</trkpt>
<trkpt lat="47.702511" lon="10.890735">
<ele>802.435</ele>
<time>2020-09-11T13:25:36Z</time>
</trkpt>
<trkpt lat="47.702511" lon="10.890772">
<ele>802.5</ele>
<time>2020-09-11T13:25:37Z</time>
</trkpt>
<trkpt lat="47.702515" lon="10.890806">
<ele>802.801</ele>
<time>2020-09-11T13:25:38Z</time>
</trkpt>
<trkpt lat="47.702518" lon="10.890841">
<ele>803.026</ele>
<time>2020-09-11T13:25:39Z</time>
</trkpt>
<trkpt lat="47.702522" lon="10.89088">
<ele>803.231</ele>
<time>2020-09-11T13:25:40Z</time>
</trkpt>
<trkpt lat="47.702522" lon="10.890913">
<ele>803.358</ele>
<time>2020-09-11T13:25:41Z</time>
</trkpt>
<trkpt lat="47.702522" lon="10.890946">
<ele>803.685</ele>
<time>2020-09-11T13:25:42Z</time>
</trkpt>
<trkpt lat="47.702522" lon="10.890978">
<ele>803.954</ele>
<time>2020-09-11T13:25:43Z</time>
</trkpt>
<trkpt lat="47.702526" lon="10.891011">
<ele>804.151</ele>
<time>2020-09-11T13:25:44Z</time>
</trkpt>
<trkpt lat="47.702526" lon="10.891042">
<ele>804.298</ele>
<time>2020-09-11T13:25:45Z</time>
</trkpt>
<trkpt lat="47.70253" lon="10.891075">
<ele>804.411</ele>
<time>2020-09-11T13:25:46Z</time>
</trkpt>
<trkpt lat="47.70253" lon="10.891111">
<ele>804.708</ele>
<time>2020-09-11T13:25:47Z</time>
</trkpt>
<trkpt lat="47.702534" lon="10.891147">
<ele>804.941</ele>
<time>2020-09-11T13:25:48Z</time>
</trkpt>
<trkpt lat="47.702538" lon="10.891178">
<ele>805.108</ele>
<time>2020-09-11T13:25:49Z</time>
</trkpt>
<trkpt lat="47.702541" lon="10.891214">
<ele>805.254</ele>
<time>2020-09-11T13:25:50Z</time>
</trkpt>
<trkpt lat="47.702541" lon="10.89125">
<ele>805.367</ele>
<time>2020-09-11T13:25:51Z</time>
</trkpt>
<trkpt lat="47.702541" lon="10.891287">
<ele>805.445</ele>
<time>2020-09-11T13:25:52Z</time>
</trkpt>
<trkpt lat="47.702545" lon="10.891323">
<ele>805.493</ele>
<time>2020-09-11T13:25:53Z</time>
</trkpt>
<trkpt lat="47.702549" lon="10.891356">
<ele>805.826</ele>
<time>2020-09-11T13:25:54Z</time>
</trkpt>
<trkpt lat="47.702553" lon="10.891395">
<ele>806.124</ele>
<time>2020-09-11T13:25:55Z</time>
</trkpt>
<trkpt lat="47.70256" lon="10.891434">
<ele>806.339</ele>
<time>2020-09-11T13:25:56Z</time>
</trkpt>
<trkpt lat="47.702564" lon="10.891474">
<ele>806.492</ele>
<time>2020-09-11T13:25:57Z</time>
</trkpt>
<trkpt lat="47.702568" lon="10.891505">
<ele>806.593</ele>
<time>2020-09-11T13:25:58Z</time>
</trkpt>
<trkpt lat="47.702572" lon="10.89154">
<ele>806.673</ele>
<time>2020-09-11T13:25:59Z</time>
</trkpt>
<trkpt lat="47.702576" lon="10.891573">
<ele>806.741</ele>
<time>2020-09-11T13:26:00Z</time>
</trkpt>
<trkpt lat="47.702595" lon="10.891615">
<ele>806.775</ele>
<time>2020-09-11T13:26:01Z</time>
</trkpt>
<trkpt lat="47.702606" lon="10.891657">
<ele>806.775</ele>
<time>2020-09-11T13:26:02Z</time>
</trkpt>
<trkpt lat="47.702618" lon="10.891696">
<ele>807.115</ele>
<time>2020-09-11T13:26:03Z</time>
</trkpt>
<trkpt lat="47.702621" lon="10.891733">
<ele>807.375</ele>
<time>2020-09-11T13:26:04Z</time>
</trkpt>
<trkpt lat="47.702629" lon="10.891771">
<ele>807.572</ele>
<time>2020-09-11T13:26:05Z</time>
</trkpt>
<trkpt lat="47.702633" lon="10.891809">
<ele>807.718</ele>
<time>2020-09-11T13:26:06Z</time>
</trkpt>
<trkpt lat="47.702637" lon="10.891843">
<ele>807.798</ele>
<time>2020-09-11T13:26:07Z</time>
</trkpt>
<trkpt lat="47.702641" lon="10.891876">
<ele>807.863</ele>
<time>2020-09-11T13:26:08Z</time>
</trkpt>
<trkpt lat="47.702644" lon="10.891912">
<ele>807.906</ele>
<time>2020-09-11T13:26:09Z</time>
</trkpt>
<trkpt lat="47.702648" lon="10.891945">
<ele>808.191</ele>
<time>2020-09-11T13:26:10Z</time>
</trkpt>
<trkpt lat="47.702652" lon="10.89198">
<ele>808.412</ele>
<time>2020-09-11T13:26:11Z</time>
</trkpt>
<trkpt lat="47.702656" lon="10.892018">
<ele>808.597</ele>
<time>2020-09-11T13:26:12Z</time>
</trkpt>
<trkpt lat="47.702663" lon="10.892058">
<ele>808.745</ele>
<time>2020-09-11T13:26:13Z</time>
</trkpt>
<trkpt lat="47.702667" lon="10.892097">
<ele>808.841</ele>
<time>2020-09-11T13:26:14Z</time>
</trkpt>
<trkpt lat="47.702671" lon="10.892138">
<ele>809.186</ele>
<time>2020-09-11T13:26:15Z</time>
</trkpt>
<trkpt lat="47.702675" lon="10.892179">
<ele>809.452</ele>
<time>2020-09-11T13:26:16Z</time>
</trkpt>
<trkpt lat="47.702682" lon="10.892218">
<ele>809.645</ele>
<time>2020-09-11T13:26:17Z</time>
</trkpt>
<trkpt lat="47.70269" lon="10.892258">
<ele>809.777</ele>
<time>2020-09-11T13:26:18Z</time>
</trkpt>
<trkpt lat="47.702694" lon="10.892298">
<ele>809.852</ele>
<time>2020-09-11T13:26:19Z</time>
</trkpt>
<trkpt lat="47.702702" lon="10.892337">
<ele>809.932</ele>
<time>2020-09-11T13:26:20Z</time>
</trkpt>
<trkpt lat="47.702705" lon="10.892377">
<ele>809.984</ele>
<time>2020-09-11T13:26:21Z</time>
</trkpt>
<trkpt lat="47.702709" lon="10.892417">
<ele>810.01</ele>
<time>2020-09-11T13:26:22Z</time>
</trkpt>
<trkpt lat="47.702717" lon="10.892455">
<ele>810.311</ele>
<time>2020-09-11T13:26:23Z</time>
</trkpt>
<trkpt lat="47.702721" lon="10.892495">
<ele>810.548</ele>
<time>2020-09-11T13:26:24Z</time>
</trkpt>
<trkpt lat="47.702728" lon="10.892533">
<ele>810.727</ele>
<time>2020-09-11T13:26:25Z</time>
</trkpt>
<trkpt lat="47.702732" lon="10.892573">
<ele>810.86</ele>
<time>2020-09-11T13:26:26Z</time>
</trkpt>
<trkpt lat="47.702736" lon="10.892615">
<ele>810.954</ele>
<time>2020-09-11T13:26:27Z</time>
</trkpt>
<trkpt lat="47.70274" lon="10.892656">
<ele>810.999</ele>
<time>2020-09-11T13:26:28Z</time>
</trkpt>
<trkpt lat="47.70274" lon="10.892697">
<ele>811.279</ele>
<time>2020-09-11T13:26:29Z</time>
</trkpt>
<trkpt lat="47.70274" lon="10.892737">
<ele>811.518</ele>
<time>2020-09-11T13:26:30Z</time>
</trkpt>
<trkpt lat="47.702744" lon="10.892776">
<ele>811.69</ele>
<time>2020-09-11T13:26:31Z</time>
</trkpt>
<trkpt lat="47.702747" lon="10.892817">
<ele>811.825</ele>
<time>2020-09-11T13:26:32Z</time>
</trkpt>
<trkpt lat="47.702747" lon="10.892857">
<ele>811.93</ele>
<time>2020-09-11T13:26:33Z</time>
</trkpt>
<trkpt lat="47.702751" lon="10.892897">
<ele>811.994</ele>
<time>2020-09-11T13:26:34Z</time>
</trkpt>
<trkpt lat="47.702751" lon="10.892935">
<ele>812.266</ele>
<time>2020-09-11T13:26:35Z</time>
</trkpt>
<trkpt lat="47.702751" lon="10.892974">
<ele>812.476</ele>
<time>2020-09-11T13:26:36Z</time>
</trkpt>
<trkpt lat="47.702755" lon="10.893015">
<ele>812.643</ele>
<time>2020-09-11T13:26:37Z</time>
</trkpt>
<trkpt lat="47.702755" lon="10.893055">
<ele>812.75</ele>
<time>2020-09-11T13:26:38Z</time>
</trkpt>
<trkpt lat="47.702759" lon="10.893097">
<ele>812.825</ele>
<time>2020-09-11T13:26:39Z</time>
</trkpt>
<trkpt lat="47.702759" lon="10.89314">
<ele>813.146</ele>
<time>2020-09-11T13:26:40Z</time>
</trkpt>
<trkpt lat="47.702759" lon="10.893182">
<ele>813.401</ele>
<time>2020-09-11T13:26:41Z</time>
</trkpt>
<trkpt lat="47.702759" lon="10.893224">
<ele>813.592</ele>
<time>2020-09-11T13:26:42Z</time>
</trkpt>
<trkpt lat="47.702763" lon="10.893267">
<ele>813.725</ele>
<time>2020-09-11T13:26:43Z</time>
</trkpt>
<trkpt lat="47.702763" lon="10.89331">
<ele>813.825</ele>
<time>2020-09-11T13:26:44Z</time>
</trkpt>
<trkpt lat="47.702766" lon="10.893357">
<ele>813.896</ele>
<time>2020-09-11T13:26:45Z</time>
</trkpt>
<trkpt lat="47.702766" lon="10.893403">
<ele>813.943</ele>
<time>2020-09-11T13:26:46Z</time>
</trkpt>
<trkpt lat="47.702763" lon="10.89345">
<ele>813.965</ele>
<time>2020-09-11T13:26:47Z</time>
</trkpt>
<trkpt lat="47.702763" lon="10.893496">
<ele>814.211</ele>
<time>2020-09-11T13:26:48Z</time>
</trkpt>
<trkpt lat="47.702763" lon="10.893545">
<ele>814.385</ele>
<time>2020-09-11T13:26:49Z</time>
</trkpt>
<trkpt lat="47.702763" lon="10.893592">
<ele>814.562</ele>
<time>2020-09-11T13:26:50Z</time>
</trkpt>
<trkpt lat="47.702763" lon="10.893637">
<ele>814.7</ele>
<time>2020-09-11T13:26:51Z</time>
</trkpt>
<trkpt lat="47.702766" lon="10.893686">
<ele>814.805</ele>
<time>2020-09-11T13:26:52Z</time>
</trkpt>
<trkpt lat="47.702763" lon="10.893732">
<ele>814.88</ele>
<time>2020-09-11T13:26:53Z</time>
</trkpt>
<trkpt lat="47.702763" lon="10.893777">
<ele>814.93</ele>
<time>2020-09-11T13:26:54Z</time>
</trkpt>
<trkpt lat="47.702759" lon="10.893822">
<ele>814.954</ele>
<time>2020-09-11T13:26:55Z</time>
</trkpt>
<trkpt lat="47.702759" lon="10.89387">
<ele>814.954</ele>
<time>2020-09-11T13:26:56Z</time>
</trkpt>
<trkpt lat="47.702759" lon="10.893919">
<ele>814.954</ele>
<time>2020-09-11T13:26:57Z</time>
</trkpt>
<trkpt lat="47.702759" lon="10.893965">
<ele>814.954</ele>
<time>2020-09-11T13:26:58Z</time>
</trkpt>
<trkpt lat="47.702759" lon="10.894011">
<ele>815.175</ele>
<time>2020-09-11T13:26:59Z</time>
</trkpt>
<trkpt lat="47.702759" lon="10.894062">
<ele>815.382</ele>
<time>2020-09-11T13:27:00Z</time>
</trkpt>
<trkpt lat="47.702759" lon="10.894114">
<ele>815.559</ele>
<time>2020-09-11T13:27:01Z</time>
</trkpt>
<trkpt lat="47.702759" lon="10.89416">
<ele>815.695</ele>
<time>2020-09-11T13:27:02Z</time>
</trkpt>
<trkpt lat="47.702759" lon="10.894205">
<ele>815.797</ele>
<time>2020-09-11T13:27:03Z</time>
</trkpt>
<trkpt lat="47.702755" lon="10.894252">
<ele>815.87</ele>
<time>2020-09-11T13:27:04Z</time>
</trkpt>
<trkpt lat="47.702759" lon="10.8943">
<ele>815.919</ele>
<time>2020-09-11T13:27:05Z</time>
</trkpt>
<trkpt lat="47.702755" lon="10.894348">
<ele>815.943</ele>
<time>2020-09-11T13:27:06Z</time>
</trkpt>
<trkpt lat="47.702755" lon="10.894401">
<ele>815.943</ele>
<time>2020-09-11T13:27:07Z</time>
</trkpt>
<trkpt lat="47.702751" lon="10.894451">
<ele>815.943</ele>
<time>2020-09-11T13:27:08Z</time>
</trkpt>
<trkpt lat="47.702751" lon="10.894508">
<ele>815.943</ele>
<time>2020-09-11T13:27:09Z</time>
</trkpt>
<trkpt lat="47.702751" lon="10.894564">
<ele>815.943</ele>
<time>2020-09-11T13:27:10Z</time>
</trkpt>
<trkpt lat="47.702751" lon="10.89462">
<ele>815.943</ele>
<time>2020-09-11T13:27:11Z</time>
</trkpt>
<trkpt lat="47.702751" lon="10.89468">
<ele>815.943</ele>
<time>2020-09-11T13:27:12Z</time>
</trkpt>
<trkpt lat="47.702751" lon="10.894742">
<ele>815.943</ele>
<time>2020-09-11T13:27:13Z</time>
</trkpt>
<trkpt lat="47.702747" lon="10.894805">
<ele>815.943</ele>
<time>2020-09-11T13:27:14Z</time>
</trkpt>
<trkpt lat="47.702747" lon="10.894866">
<ele>815.943</ele>
<time>2020-09-11T13:27:15Z</time>
</trkpt>
<trkpt lat="47.702747" lon="10.894931">
<ele>816.181</ele>
<time>2020-09-11T13:27:16Z</time>
</trkpt>
<trkpt lat="47.702747" lon="10.894997">
<ele>816.366</ele>
<time>2020-09-11T13:27:17Z</time>
</trkpt>
<trkpt lat="47.702747" lon="10.895065">
<ele>816.508</ele>
<time>2020-09-11T13:27:18Z</time>
</trkpt>
<trkpt lat="47.702747" lon="10.895132">
<ele>816.6</ele>
<time>2020-09-11T13:27:19Z</time>
</trkpt>
<trkpt lat="47.702744" lon="10.895204">
<ele>816.648</ele>
<time>2020-09-11T13:27:20Z</time>
</trkpt>
<trkpt lat="47.702744" lon="10.895275">
<ele>816.473</ele>
<time>2020-09-11T13:27:21Z</time>
</trkpt>
<trkpt lat="47.702744" lon="10.895347">
<ele>816.324</ele>
<time>2020-09-11T13:27:22Z</time>
</trkpt>
<trkpt lat="47.702744" lon="10.895415">
<ele>816.196</ele>
<time>2020-09-11T13:27:23Z</time>
</trkpt>
<trkpt lat="47.702744" lon="10.895484">
<ele>816.091</ele>
<time>2020-09-11T13:27:24Z</time>
</trkpt>
<trkpt lat="47.702744" lon="10.895554">
<ele>816.016</ele>
<time>2020-09-11T13:27:25Z</time>
</trkpt>
<trkpt lat="47.702744" lon="10.895627">
<ele>815.969</ele>
<time>2020-09-11T13:27:26Z</time>
</trkpt>
<trkpt lat="47.702744" lon="10.8957">
<ele>815.947</ele>
<time>2020-09-11T13:27:27Z</time>
</trkpt>
<trkpt lat="47.702744" lon="10.895775">
<ele>815.943</ele>
<time>2020-09-11T13:27:28Z</time>
</trkpt>
<trkpt lat="47.702744" lon="10.89585">
<ele>815.943</ele>
<time>2020-09-11T13:27:29Z</time>
</trkpt>
<trkpt lat="47.702744" lon="10.895928">
<ele>815.943</ele>
<time>2020-09-11T13:27:30Z</time>
</trkpt>
<trkpt lat="47.702744" lon="10.896008">
<ele>815.943</ele>
<time>2020-09-11T13:27:31Z</time>
</trkpt>
<trkpt lat="47.702744" lon="10.896087">
<ele>815.943</ele>
<time>2020-09-11T13:27:32Z</time>
</trkpt>
<trkpt lat="47.70274" lon="10.896167">
<ele>815.943</ele>
<time>2020-09-11T13:27:33Z</time>
</trkpt>
<trkpt lat="47.70274" lon="10.896249">
<ele>815.943</ele>
<time>2020-09-11T13:27:34Z</time>
</trkpt>
<trkpt lat="47.70274" lon="10.896335">
<ele>815.943</ele>
<time>2020-09-11T13:27:35Z</time>
</trkpt>
<trkpt lat="47.702744" lon="10.896427">
<ele>815.682</ele>
<time>2020-09-11T13:27:36Z</time>
</trkpt>
<trkpt lat="47.702744" lon="10.89652">
<ele>815.476</ele>
<time>2020-09-11T13:27:37Z</time>
</trkpt>
<trkpt lat="47.702744" lon="10.896615">
<ele>815.321</ele>
<time>2020-09-11T13:27:38Z</time>
</trkpt>
<trkpt lat="47.702744" lon="10.896715">
<ele>815.218</ele>
<time>2020-09-11T13:27:39Z</time>
</trkpt>
<trkpt lat="47.702744" lon="10.896816">
<ele>815.109</ele>
<time>2020-09-11T13:27:40Z</time>
</trkpt>
<trkpt lat="47.702744" lon="10.896923">
<ele>814.773</ele>
<time>2020-09-11T13:27:41Z</time>
</trkpt>
<trkpt lat="47.702744" lon="10.89703">
<ele>814.517</ele>
<time>2020-09-11T13:27:42Z</time>
</trkpt>
<trkpt lat="47.702747" lon="10.89714">
<ele>814.329</ele>
<time>2020-09-11T13:27:43Z</time>
</trkpt>
<trkpt lat="47.702751" lon="10.897255">
<ele>814.141</ele>
<time>2020-09-11T13:27:44Z</time>
</trkpt>
<trkpt lat="47.702751" lon="10.897369">
<ele>813.779</ele>
<time>2020-09-11T13:27:45Z</time>
</trkpt>
<trkpt lat="47.702751" lon="10.897487">
<ele>813.51</ele>
<time>2020-09-11T13:27:46Z</time>
</trkpt>
<trkpt lat="47.702751" lon="10.897604">
<ele>813.368</ele>
<time>2020-09-11T13:27:47Z</time>
</trkpt>
<trkpt lat="47.702751" lon="10.897721">
<ele>812.987</ele>
<time>2020-09-11T13:27:48Z</time>
</trkpt>
<trkpt lat="47.702747" lon="10.89784">
<ele>812.717</ele>
<time>2020-09-11T13:27:49Z</time>
</trkpt>
<trkpt lat="47.702744" lon="10.897957">
<ele>812.471</ele>
<time>2020-09-11T13:27:50Z</time>
</trkpt>
<trkpt lat="47.70274" lon="10.898071">
<ele>812.012</ele>
<time>2020-09-11T13:27:51Z</time>
</trkpt>
<trkpt lat="47.702732" lon="10.898185">
<ele>811.659</ele>
<time>2020-09-11T13:27:52Z</time>
</trkpt>
<trkpt lat="47.702721" lon="10.898298">
<ele>811.399</ele>
<time>2020-09-11T13:27:53Z</time>
</trkpt>
<trkpt lat="47.702705" lon="10.898412">
<ele>811.204</ele>
<time>2020-09-11T13:27:54Z</time>
</trkpt>
<trkpt lat="47.70269" lon="10.898521">
<ele>811.068</ele>
<time>2020-09-11T13:27:55Z</time>
</trkpt>
<trkpt lat="47.702671" lon="10.898631">
<ele>810.936</ele>
<time>2020-09-11T13:27:56Z</time>
</trkpt>
<trkpt lat="47.702648" lon="10.898742">
<ele>810.909</ele>
<time>2020-09-11T13:27:57Z</time>
</trkpt>
<trkpt lat="47.702625" lon="10.898851">
<ele>810.908</ele>
<time>2020-09-11T13:27:58Z</time>
</trkpt>
<trkpt lat="47.702602" lon="10.898962">
<ele>810.908</ele>
<time>2020-09-11T13:27:59Z</time>
</trkpt>
<trkpt lat="47.702576" lon="10.899069">
<ele>810.908</ele>
<time>2020-09-11T13:28:00Z</time>
</trkpt>
<trkpt lat="47.702549" lon="10.899177">
<ele>810.613</ele>
<time>2020-09-11T13:28:01Z</time>
</trkpt>
<trkpt lat="47.702522" lon="10.899286">
<ele>810.384</ele>
<time>2020-09-11T13:28:02Z</time>
</trkpt>
<trkpt lat="47.702492" lon="10.899397">
<ele>810.209</ele>
<time>2020-09-11T13:28:03Z</time>
</trkpt>
<trkpt lat="47.702469" lon="10.899505">
<ele>810.084</ele>
<time>2020-09-11T13:28:04Z</time>
</trkpt>
<trkpt lat="47.702438" lon="10.899609">
<ele>810</ele>
<time>2020-09-11T13:28:05Z</time>
</trkpt>
<trkpt lat="47.702412" lon="10.89971">
<ele>809.947</ele>
<time>2020-09-11T13:28:06Z</time>
</trkpt>
<trkpt lat="47.702381" lon="10.899813">
<ele>809.92</ele>
<time>2020-09-11T13:28:07Z</time>
</trkpt>
<trkpt lat="47.702354" lon="10.899917">
<ele>809.92</ele>
<time>2020-09-11T13:28:08Z</time>
</trkpt>
<trkpt lat="47.702328" lon="10.900022">
<ele>809.92</ele>
<time>2020-09-11T13:28:09Z</time>
</trkpt>
<trkpt lat="47.702301" lon="10.90012">
<ele>809.92</ele>
<time>2020-09-11T13:28:10Z</time>
</trkpt>
<trkpt lat="47.702278" lon="10.900219">
<ele>809.92</ele>
<time>2020-09-11T13:28:11Z</time>
</trkpt>
<trkpt lat="47.702251" lon="10.900317">
<ele>809.92</ele>
<time>2020-09-11T13:28:12Z</time>
</trkpt>
<trkpt lat="47.702229" lon="10.900416">
<ele>809.92</ele>
<time>2020-09-11T13:28:13Z</time>
</trkpt>
<trkpt lat="47.702209" lon="10.900518">
<ele>809.92</ele>
<time>2020-09-11T13:28:14Z</time>
</trkpt>
<trkpt lat="47.70219" lon="10.900619">
<ele>809.92</ele>
<time>2020-09-11T13:28:15Z</time>
</trkpt>
<trkpt lat="47.702179" lon="10.900715">
<ele>809.92</ele>
<time>2020-09-11T13:28:16Z</time>
</trkpt>
<trkpt lat="47.702164" lon="10.900808">
<ele>809.92</ele>
<time>2020-09-11T13:28:17Z</time>
</trkpt>
<trkpt lat="47.702148" lon="10.900902">
<ele>809.92</ele>
<time>2020-09-11T13:28:18Z</time>
</trkpt>
<trkpt lat="47.702137" lon="10.900994">
<ele>809.92</ele>
<time>2020-09-11T13:28:19Z</time>
</trkpt>
<trkpt lat="47.702129" lon="10.901093">
<ele>809.92</ele>
<time>2020-09-11T13:28:20Z</time>
</trkpt>
<trkpt lat="47.702122" lon="10.901187">
<ele>809.92</ele>
<time>2020-09-11T13:28:21Z</time>
</trkpt>
<trkpt lat="47.70211" lon="10.901275">
<ele>809.92</ele>
<time>2020-09-11T13:28:22Z</time>
</trkpt>
<trkpt lat="47.702095" lon="10.901361">
<ele>809.92</ele>
<time>2020-09-11T13:28:23Z</time>
</trkpt>
<trkpt lat="47.702087" lon="10.90145">
<ele>809.92</ele>
<time>2020-09-11T13:28:24Z</time>
</trkpt>
<trkpt lat="47.702084" lon="10.901541">
<ele>809.92</ele>
<time>2020-09-11T13:28:25Z</time>
</trkpt>
<trkpt lat="47.702076" lon="10.901631">
<ele>809.92</ele>
<time>2020-09-11T13:28:26Z</time>
</trkpt>
<trkpt lat="47.702068" lon="10.901725">
<ele>809.92</ele>
<time>2020-09-11T13:28:27Z</time>
</trkpt>
<trkpt lat="47.702061" lon="10.901814">
<ele>809.92</ele>
<time>2020-09-11T13:28:28Z</time>
</trkpt>
<trkpt lat="47.702061" lon="10.901899">
<ele>809.92</ele>
<time>2020-09-11T13:28:29Z</time>
</trkpt>
<trkpt lat="47.702053" lon="10.901985">
<ele>810.159</ele>
<time>2020-09-11T13:28:30Z</time>
</trkpt>
<trkpt lat="47.702049" lon="10.902068">
<ele>810.359</ele>
<time>2020-09-11T13:28:31Z</time>
</trkpt>
<trkpt lat="47.702045" lon="10.902152">
<ele>810.523</ele>
<time>2020-09-11T13:28:32Z</time>
</trkpt>
<trkpt lat="47.702038" lon="10.902235">
<ele>810.655</ele>
<time>2020-09-11T13:28:33Z</time>
</trkpt>
<trkpt lat="47.702034" lon="10.902318">
<ele>810.758</ele>
<time>2020-09-11T13:28:34Z</time>
</trkpt>
<trkpt lat="47.702026" lon="10.902402">
<ele>810.834</ele>
<time>2020-09-11T13:28:35Z</time>
</trkpt>
<trkpt lat="47.702023" lon="10.902486">
<ele>810.885</ele>
<time>2020-09-11T13:28:36Z</time>
</trkpt>
<trkpt lat="47.702015" lon="10.902565">
<ele>810.908</ele>
<time>2020-09-11T13:28:37Z</time>
</trkpt>
<trkpt lat="47.702011" lon="10.902647">
<ele>810.909</ele>
<time>2020-09-11T13:28:38Z</time>
</trkpt>
<trkpt lat="47.702003" lon="10.902729">
<ele>810.908</ele>
<time>2020-09-11T13:28:39Z</time>
</trkpt>
<trkpt lat="47.701996" lon="10.90281">
<ele>811.126</ele>
<time>2020-09-11T13:28:40Z</time>
</trkpt>
<trkpt lat="47.701992" lon="10.90289">
<ele>811.309</ele>
<time>2020-09-11T13:28:41Z</time>
</trkpt>
<trkpt lat="47.701988" lon="10.902973">
<ele>811.46</ele>
<time>2020-09-11T13:28:42Z</time>
</trkpt>
<trkpt lat="47.701984" lon="10.903058">
<ele>811.581</ele>
<time>2020-09-11T13:28:43Z</time>
</trkpt>
<trkpt lat="47.701981" lon="10.903137">
<ele>811.676</ele>
<time>2020-09-11T13:28:44Z</time>
</trkpt>
<trkpt lat="47.701973" lon="10.903215">
<ele>811.744</ele>
<time>2020-09-11T13:28:45Z</time>
</trkpt>
<trkpt lat="47.701973" lon="10.903293">
<ele>811.787</ele>
<time>2020-09-11T13:28:46Z</time>
</trkpt>
<trkpt lat="47.701969" lon="10.903372">
<ele>811.808</ele>
<time>2020-09-11T13:28:47Z</time>
</trkpt>
<trkpt lat="47.701962" lon="10.903448">
<ele>811.808</ele>
<time>2020-09-11T13:28:48Z</time>
</trkpt>
<trkpt lat="47.701962" lon="10.903529">
<ele>811.808</ele>
<time>2020-09-11T13:28:49Z</time>
</trkpt>
<trkpt lat="47.701962" lon="10.903613">
<ele>811.808</ele>
<time>2020-09-11T13:28:50Z</time>
</trkpt>
<trkpt lat="47.701962" lon="10.903702">
<ele>811.808</ele>
<time>2020-09-11T13:28:51Z</time>
</trkpt>
<trkpt lat="47.701962" lon="10.90379">
<ele>811.808</ele>
<time>2020-09-11T13:28:52Z</time>
</trkpt>
<trkpt lat="47.701962" lon="10.903877">
<ele>811.808</ele>
<time>2020-09-11T13:28:53Z</time>
</trkpt>
<trkpt lat="47.701962" lon="10.903963">
<ele>811.808</ele>
<time>2020-09-11T13:28:54Z</time>
</trkpt>
<trkpt lat="47.701969" lon="10.904049">
<ele>811.808</ele>
<time>2020-09-11T13:28:55Z</time>
</trkpt>
<trkpt lat="47.701973" lon="10.904135">
<ele>811.808</ele>
<time>2020-09-11T13:28:56Z</time>
</trkpt>
<trkpt lat="47.701981" lon="10.904222">
<ele>811.808</ele>
<time>2020-09-11T13:28:57Z</time>
</trkpt>
<trkpt lat="47.701988" lon="10.904311">
<ele>811.808</ele>
<time>2020-09-11T13:28:58Z</time>
</trkpt>
<trkpt lat="47.702" lon="10.904399">
<ele>811.808</ele>
<time>2020-09-11T13:28:59Z</time>
</trkpt>
<trkpt lat="47.702007" lon="10.904483">
<ele>811.808</ele>
<time>2020-09-11T13:29:00Z</time>
</trkpt>
<trkpt lat="47.702023" lon="10.904572">
<ele>811.808</ele>
<time>2020-09-11T13:29:01Z</time>
</trkpt>
<trkpt lat="47.702042" lon="10.904662">
<ele>811.808</ele>
<time>2020-09-11T13:29:02Z</time>
</trkpt>
<trkpt lat="47.702053" lon="10.90475">
<ele>811.808</ele>
<time>2020-09-11T13:29:03Z</time>
</trkpt>
<trkpt lat="47.702072" lon="10.90484">
<ele>811.536</ele>
<time>2020-09-11T13:29:04Z</time>
</trkpt>
<trkpt lat="47.702087" lon="10.904924">
<ele>811.326</ele>
<time>2020-09-11T13:29:05Z</time>
</trkpt>
<trkpt lat="47.702106" lon="10.905005">
<ele>811.167</ele>
<time>2020-09-11T13:29:06Z</time>
</trkpt>
<trkpt lat="47.702129" lon="10.905086">
<ele>811.047</ele>
<time>2020-09-11T13:29:07Z</time>
</trkpt>
<trkpt lat="47.702152" lon="10.905164">
<ele>810.962</ele>
<time>2020-09-11T13:29:08Z</time>
</trkpt>
<trkpt lat="47.702183" lon="10.905245">
<ele>810.902</ele>
<time>2020-09-11T13:29:09Z</time>
</trkpt>
<trkpt lat="47.702209" lon="10.905332">
<ele>810.846</ele>
<time>2020-09-11T13:29:10Z</time>
</trkpt>
<trkpt lat="47.702244" lon="10.905427">
<ele>810.819</ele>
<time>2020-09-11T13:29:11Z</time>
</trkpt>
<trkpt lat="47.702278" lon="10.905521">
<ele>810.818</ele>
<time>2020-09-11T13:29:12Z</time>
</trkpt>
<trkpt lat="47.70232" lon="10.905617">
<ele>810.819</ele>
<time>2020-09-11T13:29:13Z</time>
</trkpt>
<trkpt lat="47.702374" lon="10.905717">
<ele>810.53</ele>
<time>2020-09-11T13:29:14Z</time>
</trkpt>
<trkpt lat="47.702431" lon="10.905813">
<ele>810.312</ele>
<time>2020-09-11T13:29:15Z</time>
</trkpt>
<trkpt lat="47.702473" lon="10.905905">
<ele>810.153</ele>
<time>2020-09-11T13:29:16Z</time>
</trkpt>
<trkpt lat="47.702511" lon="10.905998">
<ele>810.066</ele>
<time>2020-09-11T13:29:17Z</time>
</trkpt>
<trkpt lat="47.702553" lon="10.906092">
<ele>809.731</ele>
<time>2020-09-11T13:29:18Z</time>
</trkpt>
<trkpt lat="47.702599" lon="10.906183">
<ele>809.493</ele>
<time>2020-09-11T13:29:19Z</time>
</trkpt>
<trkpt lat="47.702637" lon="10.906276">
<ele>809.269</ele>
<time>2020-09-11T13:29:20Z</time>
</trkpt>
<trkpt lat="47.702679" lon="10.90637">
<ele>809.109</ele>
<time>2020-09-11T13:29:21Z</time>
</trkpt>
<trkpt lat="47.702721" lon="10.906465">
<ele>809.003</ele>
<time>2020-09-11T13:29:22Z</time>
</trkpt>
<trkpt lat="47.702763" lon="10.906558">
<ele>808.921</ele>
<time>2020-09-11T13:29:23Z</time>
</trkpt>
<trkpt lat="47.702805" lon="10.906653">
<ele>808.866</ele>
<time>2020-09-11T13:29:24Z</time>
</trkpt>
<trkpt lat="47.702839" lon="10.906752">
<ele>808.842</ele>
<time>2020-09-11T13:29:25Z</time>
</trkpt>
<trkpt lat="47.702881" lon="10.906852">
<ele>808.842</ele>
<time>2020-09-11T13:29:26Z</time>
</trkpt>
<trkpt lat="47.702915" lon="10.90695">
<ele>808.842</ele>
<time>2020-09-11T13:29:27Z</time>
</trkpt>
<trkpt lat="47.702953" lon="10.90705">
<ele>808.6</ele>
<time>2020-09-11T13:29:28Z</time>
</trkpt>
<trkpt lat="47.702984" lon="10.907149">
<ele>808.429</ele>
<time>2020-09-11T13:29:29Z</time>
</trkpt>
<trkpt lat="47.703018" lon="10.907248">
<ele>808.254</ele>
<time>2020-09-11T13:29:30Z</time>
</trkpt>
<trkpt lat="47.703049" lon="10.907349">
<ele>808.114</ele>
<time>2020-09-11T13:29:31Z</time>
</trkpt>
<trkpt lat="47.703068" lon="10.90745">
<ele>808.007</ele>
<time>2020-09-11T13:29:32Z</time>
</trkpt>
<trkpt lat="47.703098" lon="10.907552">
<ele>807.929</ele>
<time>2020-09-11T13:29:33Z</time>
</trkpt>
<trkpt lat="47.703121" lon="10.907659">
<ele>807.878</ele>
<time>2020-09-11T13:29:34Z</time>
</trkpt>
<trkpt lat="47.703148" lon="10.90776">
<ele>807.853</ele>
<time>2020-09-11T13:29:35Z</time>
</trkpt>
<trkpt lat="47.703175" lon="10.907858">
<ele>807.853</ele>
<time>2020-09-11T13:29:36Z</time>
</trkpt>
<trkpt lat="47.703194" lon="10.907954">
<ele>807.853</ele>
<time>2020-09-11T13:29:37Z</time>
</trkpt>
<trkpt lat="47.703213" lon="10.908045">
<ele>807.853</ele>
<time>2020-09-11T13:29:38Z</time>
</trkpt>
<trkpt lat="47.703232" lon="10.908136">
<ele>807.853</ele>
<time>2020-09-11T13:29:39Z</time>
</trkpt>
<trkpt lat="47.703247" lon="10.908225">
<ele>807.853</ele>
<time>2020-09-11T13:29:40Z</time>
</trkpt>
<trkpt lat="47.703259" lon="10.908312">
<ele>807.853</ele>
<time>2020-09-11T13:29:41Z</time>
</trkpt>
<trkpt lat="47.703274" lon="10.908397">
<ele>807.853</ele>
<time>2020-09-11T13:29:42Z</time>
</trkpt>
<trkpt lat="47.703293" lon="10.908484">
<ele>807.853</ele>
<time>2020-09-11T13:29:43Z</time>
</trkpt>
<trkpt lat="47.7033" lon="10.908568">
<ele>807.853</ele>
<time>2020-09-11T13:29:44Z</time>
</trkpt>
<trkpt lat="47.703312" lon="10.908653">
<ele>807.853</ele>
<time>2020-09-11T13:29:45Z</time>
</trkpt>
<trkpt lat="47.70332" lon="10.908738">
<ele>807.853</ele>
<time>2020-09-11T13:29:46Z</time>
</trkpt>
<trkpt lat="47.703327" lon="10.908821">
<ele>807.853</ele>
<time>2020-09-11T13:29:47Z</time>
</trkpt>
<trkpt lat="47.703335" lon="10.908898">
<ele>807.853</ele>
<time>2020-09-11T13:29:48Z</time>
</trkpt>
<trkpt lat="47.703339" lon="10.90898">
<ele>807.853</ele>
<time>2020-09-11T13:29:49Z</time>
</trkpt>
<trkpt lat="47.703346" lon="10.909062">
<ele>807.853</ele>
<time>2020-09-11T13:29:50Z</time>
</trkpt>
<trkpt lat="47.703354" lon="10.909142">
<ele>807.853</ele>
<time>2020-09-11T13:29:51Z</time>
</trkpt>
<trkpt lat="47.703358" lon="10.909224">
<ele>807.853</ele>
<time>2020-09-11T13:29:52Z</time>
</trkpt>
<trkpt lat="47.703365" lon="10.909307">
<ele>807.853</ele>
<time>2020-09-11T13:29:53Z</time>
</trkpt>
<trkpt lat="47.703369" lon="10.909397">
<ele>807.853</ele>
<time>2020-09-11T13:29:54Z</time>
</trkpt>
<trkpt lat="47.703373" lon="10.909487">
<ele>807.853</ele>
<time>2020-09-11T13:29:55Z</time>
</trkpt>
<trkpt lat="47.703381" lon="10.909572">
<ele>807.853</ele>
<time>2020-09-11T13:29:56Z</time>
</trkpt>
<trkpt lat="47.703384" lon="10.909663">
<ele>807.853</ele>
<time>2020-09-11T13:29:57Z</time>
</trkpt>
<trkpt lat="47.703388" lon="10.909754">
<ele>807.853</ele>
<time>2020-09-11T13:29:58Z</time>
</trkpt>
<trkpt lat="47.703392" lon="10.909843">
<ele>807.853</ele>
<time>2020-09-11T13:29:59Z</time>
</trkpt>
<trkpt lat="47.703392" lon="10.909935">
<ele>807.853</ele>
<time>2020-09-11T13:30:00Z</time>
</trkpt>
<trkpt lat="47.703392" lon="10.910027">
<ele>807.853</ele>
<time>2020-09-11T13:30:01Z</time>
</trkpt>
<trkpt lat="47.703392" lon="10.91012">
<ele>807.853</ele>
<time>2020-09-11T13:30:02Z</time>
</trkpt>
<trkpt lat="47.703392" lon="10.910213">
<ele>807.853</ele>
<time>2020-09-11T13:30:03Z</time>
</trkpt>
<trkpt lat="47.703396" lon="10.910303">
<ele>808.125</ele>
<time>2020-09-11T13:30:04Z</time>
</trkpt>
<trkpt lat="47.703396" lon="10.910395">
<ele>808.079</ele>
<time>2020-09-11T13:30:05Z</time>
</trkpt>
<trkpt lat="47.7034" lon="10.910489">
<ele>808.04</ele>
<time>2020-09-11T13:30:06Z</time>
</trkpt>
<trkpt lat="47.703403" lon="10.910582">
<ele>808.047</ele>
<time>2020-09-11T13:30:07Z</time>
</trkpt>
<trkpt lat="47.703407" lon="10.910675">
<ele>808.048</ele>
<time>2020-09-11T13:30:08Z</time>
</trkpt>
<trkpt lat="47.703407" lon="10.910766">
<ele>808.05</ele>
<time>2020-09-11T13:30:09Z</time>
</trkpt>
<trkpt lat="47.703411" lon="10.910851">
<ele>808.047</ele>
<time>2020-09-11T13:30:10Z</time>
</trkpt>
<trkpt lat="47.703415" lon="10.910944">
<ele>808.041</ele>
<time>2020-09-11T13:30:11Z</time>
</trkpt>
<trkpt lat="47.703419" lon="10.911034">
<ele>808.039</ele>
<time>2020-09-11T13:30:12Z</time>
</trkpt>
<trkpt lat="47.703423" lon="10.911125">
<ele>808.024</ele>
<time>2020-09-11T13:30:13Z</time>
</trkpt>
<trkpt lat="47.703423" lon="10.911215">
<ele>808.028</ele>
<time>2020-09-11T13:30:14Z</time>
</trkpt>
<trkpt lat="47.703426" lon="10.911306">
<ele>808.033</ele>
<time>2020-09-11T13:30:15Z</time>
</trkpt>
<trkpt lat="47.703426" lon="10.911396">
<ele>808.033</ele>
<time>2020-09-11T13:30:16Z</time>
</trkpt>
<trkpt lat="47.70343" lon="10.911487">
<ele>808.033</ele>
<time>2020-09-11T13:30:17Z</time>
</trkpt>
<trkpt lat="47.703434" lon="10.911576">
<ele>808.033</ele>
<time>2020-09-11T13:30:18Z</time>
</trkpt>
<trkpt lat="47.703434" lon="10.911667">
<ele>808.033</ele>
<time>2020-09-11T13:30:19Z</time>
</trkpt>
<trkpt lat="47.703438" lon="10.911757">
<ele>808.033</ele>
<time>2020-09-11T13:30:20Z</time>
</trkpt>
<trkpt lat="47.703438" lon="10.911849">
<ele>808.033</ele>
<time>2020-09-11T13:30:21Z</time>
</trkpt>
<trkpt lat="47.703442" lon="10.911942">
<ele>808.033</ele>
<time>2020-09-11T13:30:22Z</time>
</trkpt>
<trkpt lat="47.703445" lon="10.912035">
<ele>808.033</ele>
<time>2020-09-11T13:30:23Z</time>
</trkpt>
<trkpt lat="47.703445" lon="10.912127">
<ele>808.033</ele>
<time>2020-09-11T13:30:24Z</time>
</trkpt>
<trkpt lat="47.703449" lon="10.91222">
<ele>808.033</ele>
<time>2020-09-11T13:30:25Z</time>
</trkpt>
<trkpt lat="47.703453" lon="10.912312">
<ele>808.033</ele>
<time>2020-09-11T13:30:26Z</time>
</trkpt>
<trkpt lat="47.703457" lon="10.912402">
<ele>807.785</ele>
<time>2020-09-11T13:30:27Z</time>
</trkpt>
<trkpt lat="47.703457" lon="10.912492">
<ele>807.591</ele>
<time>2020-09-11T13:30:28Z</time>
</trkpt>
<trkpt lat="47.703457" lon="10.912581">
<ele>807.543</ele>
<time>2020-09-11T13:30:29Z</time>
</trkpt>
<trkpt lat="47.703461" lon="10.91267">
<ele>807.403</ele>
<time>2020-09-11T13:30:30Z</time>
</trkpt>
<trkpt lat="47.703465" lon="10.912755">
<ele>807.245</ele>
<time>2020-09-11T13:30:31Z</time>
</trkpt>
<trkpt lat="47.703468" lon="10.91284">
<ele>807.139</ele>
<time>2020-09-11T13:30:32Z</time>
</trkpt>
<trkpt lat="47.703472" lon="10.912926">
<ele>807.074</ele>
<time>2020-09-11T13:30:33Z</time>
</trkpt>
<trkpt lat="47.703476" lon="10.913007">
<ele>807.044</ele>
<time>2020-09-11T13:30:34Z</time>
</trkpt>
<trkpt lat="47.70348" lon="10.91309">
<ele>807.044</ele>
<time>2020-09-11T13:30:35Z</time>
</trkpt>
<trkpt lat="47.703487" lon="10.913175">
<ele>807.044</ele>
<time>2020-09-11T13:30:36Z</time>
</trkpt>
<trkpt lat="47.703487" lon="10.913261">
<ele>807.044</ele>
<time>2020-09-11T13:30:37Z</time>
</trkpt>
<trkpt lat="47.703491" lon="10.913346">
<ele>807.044</ele>
<time>2020-09-11T13:30:38Z</time>
</trkpt>
<trkpt lat="47.703499" lon="10.91343">
<ele>807.044</ele>
<time>2020-09-11T13:30:39Z</time>
</trkpt>
<trkpt lat="47.703503" lon="10.913513">
<ele>807.044</ele>
<time>2020-09-11T13:30:40Z</time>
</trkpt>
<trkpt lat="47.70351" lon="10.913594">
<ele>807.044</ele>
<time>2020-09-11T13:30:41Z</time>
</trkpt>
<trkpt lat="47.703522" lon="10.913678">
<ele>807.044</ele>
<time>2020-09-11T13:30:42Z</time>
</trkpt>
<trkpt lat="47.703526" lon="10.91376">
<ele>807.044</ele>
<time>2020-09-11T13:30:43Z</time>
</trkpt>
<trkpt lat="47.703537" lon="10.913839">
<ele>807.044</ele>
<time>2020-09-11T13:30:44Z</time>
</trkpt>
<trkpt lat="47.703545" lon="10.913921">
<ele>807.044</ele>
<time>2020-09-11T13:30:45Z</time>
</trkpt>
<trkpt lat="47.703552" lon="10.914005">
<ele>807.044</ele>
<time>2020-09-11T13:30:46Z</time>
</trkpt>
<trkpt lat="47.703564" lon="10.914088">
<ele>807.044</ele>
<time>2020-09-11T13:30:47Z</time>
</trkpt>
<trkpt lat="47.703575" lon="10.914172">
<ele>807.044</ele>
<time>2020-09-11T13:30:48Z</time>
</trkpt>
<trkpt lat="47.703587" lon="10.914253">
<ele>807.044</ele>
<time>2020-09-11T13:30:49Z</time>
</trkpt>
<trkpt lat="47.703594" lon="10.914335">
<ele>807.044</ele>
<time>2020-09-11T13:30:50Z</time>
</trkpt>
<trkpt lat="47.703606" lon="10.914417">
<ele>807.044</ele>
<time>2020-09-11T13:30:51Z</time>
</trkpt>
<trkpt lat="47.703621" lon="10.914498">
<ele>807.044</ele>
<time>2020-09-11T13:30:52Z</time>
</trkpt>
<trkpt lat="47.703636" lon="10.91458">
<ele>807.044</ele>
<time>2020-09-11T13:30:53Z</time>
</trkpt>
<trkpt lat="47.703651" lon="10.91466">
<ele>807.044</ele>
<time>2020-09-11T13:30:54Z</time>
</trkpt>
<trkpt lat="47.703663" lon="10.91474">
<ele>807.044</ele>
<time>2020-09-11T13:30:55Z</time>
</trkpt>
<trkpt lat="47.703674" lon="10.914818">
<ele>807.044</ele>
<time>2020-09-11T13:30:56Z</time>
</trkpt>
<trkpt lat="47.70369" lon="10.914899">
<ele>807.044</ele>
<time>2020-09-11T13:30:57Z</time>
</trkpt>
<trkpt lat="47.703705" lon="10.914979">
<ele>807.044</ele>
<time>2020-09-11T13:30:58Z</time>
</trkpt>
<trkpt lat="47.70372" lon="10.915058">
<ele>807.044</ele>
<time>2020-09-11T13:30:59Z</time>
</trkpt>
<trkpt lat="47.703739" lon="10.915136">
<ele>807.045</ele>
<time>2020-09-11T13:31:00Z</time>
</trkpt>
<trkpt lat="47.703751" lon="10.915214">
<ele>807.044</ele>
<time>2020-09-11T13:31:01Z</time>
</trkpt>
<trkpt lat="47.70377" lon="10.915292">
<ele>807.044</ele>
<time>2020-09-11T13:31:02Z</time>
</trkpt>
<trkpt lat="47.703781" lon="10.91537">
<ele>807.044</ele>
<time>2020-09-11T13:31:03Z</time>
</trkpt>
<trkpt lat="47.7038" lon="10.915448">
<ele>807.044</ele>
<time>2020-09-11T13:31:04Z</time>
</trkpt>
<trkpt lat="47.703815" lon="10.915526">
<ele>807.044</ele>
<time>2020-09-11T13:31:05Z</time>
</trkpt>
<trkpt lat="47.703835" lon="10.915606">
<ele>807.044</ele>
<time>2020-09-11T13:31:06Z</time>
</trkpt>
<trkpt lat="47.70385" lon="10.915683">
<ele>807.044</ele>
<time>2020-09-11T13:31:07Z</time>
</trkpt>
<trkpt lat="47.703869" lon="10.915763">
<ele>807.044</ele>
<time>2020-09-11T13:31:08Z</time>
</trkpt>
<trkpt lat="47.70388" lon="10.915842">
<ele>807.044</ele>
<time>2020-09-11T13:31:09Z</time>
</trkpt>
<trkpt lat="47.703899" lon="10.915918">
<ele>807.044</ele>
<time>2020-09-11T13:31:10Z</time>
</trkpt>
<trkpt lat="47.703911" lon="10.915997">
<ele>807.044</ele>
<time>2020-09-11T13:31:11Z</time>
</trkpt>
<trkpt lat="47.70393" lon="10.916075">
<ele>807.044</ele>
<time>2020-09-11T13:31:12Z</time>
</trkpt>
<trkpt lat="47.703945" lon="10.916155">
<ele>807.044</ele>
<time>2020-09-11T13:31:13Z</time>
</trkpt>
<trkpt lat="47.703964" lon="10.916234">
<ele>807.044</ele>
<time>2020-09-11T13:31:14Z</time>
</trkpt>
<trkpt lat="47.703976" lon="10.916309">
<ele>807.281</ele>
<time>2020-09-11T13:31:15Z</time>
</trkpt>
<trkpt lat="47.703995" lon="10.916387">
<ele>807.466</ele>
<time>2020-09-11T13:31:16Z</time>
</trkpt>
<trkpt lat="47.70401" lon="10.91646">
<ele>807.61</ele>
<time>2020-09-11T13:31:17Z</time>
</trkpt>
<trkpt lat="47.704025" lon="10.916537">
<ele>807.718</ele>
<time>2020-09-11T13:31:18Z</time>
</trkpt>
<trkpt lat="47.704041" lon="10.916612">
<ele>807.793</ele>
<time>2020-09-11T13:31:19Z</time>
</trkpt>
<trkpt lat="47.70406" lon="10.916688">
<ele>807.869</ele>
<time>2020-09-11T13:31:20Z</time>
</trkpt>
<trkpt lat="47.704075" lon="10.916759">
<ele>807.919</ele>
<time>2020-09-11T13:31:21Z</time>
</trkpt>
<trkpt lat="47.704094" lon="10.916835">
<ele>807.943</ele>
<time>2020-09-11T13:31:22Z</time>
</trkpt>
<trkpt lat="47.704109" lon="10.916908">
<ele>807.943</ele>
<time>2020-09-11T13:31:23Z</time>
</trkpt>
<trkpt lat="47.704128" lon="10.916984">
<ele>807.943</ele>
<time>2020-09-11T13:31:24Z</time>
</trkpt>
<trkpt lat="47.704144" lon="10.917059">
<ele>807.943</ele>
<time>2020-09-11T13:31:25Z</time>
</trkpt>
<trkpt lat="47.704163" lon="10.917137">
<ele>807.943</ele>
<time>2020-09-11T13:31:26Z</time>
</trkpt>
<trkpt lat="47.704178" lon="10.917212">
<ele>807.943</ele>
<time>2020-09-11T13:31:27Z</time>
</trkpt>
<trkpt lat="47.704193" lon="10.917287">
<ele>808.184</ele>
<time>2020-09-11T13:31:28Z</time>
</trkpt>
<trkpt lat="47.704208" lon="10.917361">
<ele>808.357</ele>
<time>2020-09-11T13:31:29Z</time>
</trkpt>
<trkpt lat="47.704224" lon="10.917437">
<ele>808.532</ele>
<time>2020-09-11T13:31:30Z</time>
</trkpt>
<trkpt lat="47.704239" lon="10.917519">
<ele>808.673</ele>
<time>2020-09-11T13:31:31Z</time>
</trkpt>
<trkpt lat="47.704258" lon="10.9176">
<ele>808.78</ele>
<time>2020-09-11T13:31:32Z</time>
</trkpt>
<trkpt lat="47.704269" lon="10.917684">
<ele>808.858</ele>
<time>2020-09-11T13:31:33Z</time>
</trkpt>
<trkpt lat="47.704285" lon="10.917768">
<ele>808.907</ele>
<time>2020-09-11T13:31:34Z</time>
</trkpt>
<trkpt lat="47.704296" lon="10.91785">
<ele>808.932</ele>
<time>2020-09-11T13:31:35Z</time>
</trkpt>
<trkpt lat="47.704308" lon="10.917935">
<ele>808.932</ele>
<time>2020-09-11T13:31:36Z</time>
</trkpt>
<trkpt lat="47.704319" lon="10.918021">
<ele>808.932</ele>
<time>2020-09-11T13:31:37Z</time>
</trkpt>
<trkpt lat="47.704334" lon="10.918107">
<ele>808.932</ele>
<time>2020-09-11T13:31:38Z</time>
</trkpt>
<trkpt lat="47.704342" lon="10.918193">
<ele>808.932</ele>
<time>2020-09-11T13:31:39Z</time>
</trkpt>
<trkpt lat="47.704357" lon="10.918282">
<ele>808.932</ele>
<time>2020-09-11T13:31:40Z</time>
</trkpt>
<trkpt lat="47.704365" lon="10.918368">
<ele>808.634</ele>
<time>2020-09-11T13:31:41Z</time>
</trkpt>
<trkpt lat="47.704369" lon="10.918457">
<ele>808.403</ele>
<time>2020-09-11T13:31:42Z</time>
</trkpt>
<trkpt lat="47.704372" lon="10.918549">
<ele>808.23</ele>
<time>2020-09-11T13:31:43Z</time>
</trkpt>
<trkpt lat="47.70438" lon="10.91864">
<ele>808.106</ele>
<time>2020-09-11T13:31:44Z</time>
</trkpt>
<trkpt lat="47.704384" lon="10.91873">
<ele>808.021</ele>
<time>2020-09-11T13:31:45Z</time>
</trkpt>
<trkpt lat="47.704384" lon="10.918823">
<ele>807.967</ele>
<time>2020-09-11T13:31:46Z</time>
</trkpt>
<trkpt lat="47.704388" lon="10.918918">
<ele>807.943</ele>
<time>2020-09-11T13:31:47Z</time>
</trkpt>
<trkpt lat="47.704388" lon="10.919017">
<ele>807.943</ele>
<time>2020-09-11T13:31:48Z</time>
</trkpt>
<trkpt lat="47.704388" lon="10.919117">
<ele>807.74</ele>
<time>2020-09-11T13:31:49Z</time>
</trkpt>
<trkpt lat="47.704384" lon="10.919215">
<ele>807.548</ele>
<time>2020-09-11T13:31:50Z</time>
</trkpt>
<trkpt lat="47.704376" lon="10.919312">
<ele>807.393</ele>
<time>2020-09-11T13:31:51Z</time>
</trkpt>
<trkpt lat="47.704372" lon="10.919414">
<ele>807.269</ele>
<time>2020-09-11T13:31:52Z</time>
</trkpt>
<trkpt lat="47.704369" lon="10.919515">
<ele>807.189</ele>
<time>2020-09-11T13:31:53Z</time>
</trkpt>
<trkpt lat="47.704361" lon="10.919621">
<ele>806.869</ele>
<time>2020-09-11T13:31:54Z</time>
</trkpt>
<trkpt lat="47.704353" lon="10.919728">
<ele>806.619</ele>
<time>2020-09-11T13:31:55Z</time>
</trkpt>
<trkpt lat="47.704338" lon="10.919837">
<ele>806.43</ele>
<time>2020-09-11T13:31:56Z</time>
</trkpt>
<trkpt lat="47.704327" lon="10.919944">
<ele>806.278</ele>
<time>2020-09-11T13:31:57Z</time>
</trkpt>
<trkpt lat="47.704308" lon="10.920053">
<ele>806.195</ele>
<time>2020-09-11T13:31:58Z</time>
</trkpt>
<trkpt lat="47.704292" lon="10.920165">
<ele>806.135</ele>
<time>2020-09-11T13:31:59Z</time>
</trkpt>
<trkpt lat="47.704273" lon="10.920277">
<ele>805.836</ele>
<time>2020-09-11T13:32:00Z</time>
</trkpt>
<trkpt lat="47.704254" lon="10.920384">
<ele>805.607</ele>
<time>2020-09-11T13:32:01Z</time>
</trkpt>
<trkpt lat="47.704235" lon="10.920491">
<ele>805.443</ele>
<time>2020-09-11T13:32:02Z</time>
</trkpt>
<trkpt lat="47.704212" lon="10.9206">
<ele>805.311</ele>
<time>2020-09-11T13:32:03Z</time>
</trkpt>
<trkpt lat="47.704193" lon="10.920709">
<ele>805.21</ele>
<time>2020-09-11T13:32:04Z</time>
</trkpt>
<trkpt lat="47.70417" lon="10.920816">
<ele>805.137</ele>
<time>2020-09-11T13:32:05Z</time>
</trkpt>
<trkpt lat="47.704147" lon="10.92092">
<ele>805.091</ele>
<time>2020-09-11T13:32:06Z</time>
</trkpt>
<trkpt lat="47.704124" lon="10.921021">
<ele>805.068</ele>
<time>2020-09-11T13:32:07Z</time>
</trkpt>
<trkpt lat="47.704102" lon="10.921125">
<ele>804.83</ele>
<time>2020-09-11T13:32:08Z</time>
</trkpt>
<trkpt lat="47.704082" lon="10.921228">
<ele>804.659</ele>
<time>2020-09-11T13:32:09Z</time>
</trkpt>
<trkpt lat="47.704067" lon="10.921333">
<ele>804.484</ele>
<time>2020-09-11T13:32:10Z</time>
</trkpt>
<trkpt lat="47.704048" lon="10.921436">
<ele>804.344</ele>
<time>2020-09-11T13:32:11Z</time>
</trkpt>
<trkpt lat="47.704029" lon="10.92154">
<ele>804.235</ele>
<time>2020-09-11T13:32:12Z</time>
</trkpt>
<trkpt lat="47.70401" lon="10.921645">
<ele>804.156</ele>
<time>2020-09-11T13:32:13Z</time>
</trkpt>
<trkpt lat="47.704002" lon="10.92175">
<ele>804.104</ele>
<time>2020-09-11T13:32:14Z</time>
</trkpt>
<trkpt lat="47.703987" lon="10.921855">
<ele>804.08</ele>
<time>2020-09-11T13:32:15Z</time>
</trkpt>
<trkpt lat="47.703976" lon="10.921957">
<ele>804.08</ele>
<time>2020-09-11T13:32:16Z</time>
</trkpt>
<trkpt lat="47.703972" lon="10.92206">
<ele>804.08</ele>
<time>2020-09-11T13:32:17Z</time>
</trkpt>
<trkpt lat="47.70396" lon="10.922163">
<ele>804.08</ele>
<time>2020-09-11T13:32:18Z</time>
</trkpt>
<trkpt lat="47.703953" lon="10.922265">
<ele>804.08</ele>
<time>2020-09-11T13:32:19Z</time>
</trkpt>
<trkpt lat="47.703953" lon="10.922366">
<ele>804.08</ele>
<time>2020-09-11T13:32:20Z</time>
</trkpt>
<trkpt lat="47.703949" lon="10.922466">
<ele>804.08</ele>
<time>2020-09-11T13:32:21Z</time>
</trkpt>
<trkpt lat="47.703949" lon="10.922565">
<ele>804.08</ele>
<time>2020-09-11T13:32:22Z</time>
</trkpt>
<trkpt lat="47.703953" lon="10.922666">
<ele>804.08</ele>
<time>2020-09-11T13:32:23Z</time>
</trkpt>
<trkpt lat="47.70396" lon="10.922762">
<ele>804.08</ele>
<time>2020-09-11T13:32:24Z</time>
</trkpt>
<trkpt lat="47.703968" lon="10.922856">
<ele>804.08</ele>
<time>2020-09-11T13:32:25Z</time>
</trkpt>
<trkpt lat="47.703976" lon="10.922947">
<ele>804.08</ele>
<time>2020-09-11T13:32:26Z</time>
</trkpt>
<trkpt lat="47.703991" lon="10.923037">
<ele>804.08</ele>
<time>2020-09-11T13:32:27Z</time>
</trkpt>
<trkpt lat="47.704006" lon="10.923122">
<ele>804.08</ele>
<time>2020-09-11T13:32:28Z</time>
</trkpt>
<trkpt lat="47.704018" lon="10.923203">
<ele>804.08</ele>
<time>2020-09-11T13:32:29Z</time>
</trkpt>
<trkpt lat="47.704037" lon="10.923286">
<ele>804.08</ele>
<time>2020-09-11T13:32:30Z</time>
</trkpt>
<trkpt lat="47.704052" lon="10.923366">
<ele>804.08</ele>
<time>2020-09-11T13:32:31Z</time>
</trkpt>
<trkpt lat="47.704075" lon="10.923441">
<ele>804.08</ele>
<time>2020-09-11T13:32:32Z</time>
</trkpt>
<trkpt lat="47.704094" lon="10.923518">
<ele>804.08</ele>
<time>2020-09-11T13:32:33Z</time>
</trkpt>
<trkpt lat="47.704113" lon="10.923596">
<ele>804.08</ele>
<time>2020-09-11T13:32:34Z</time>
</trkpt>
<trkpt lat="47.704136" lon="10.923676">
<ele>804.08</ele>
<time>2020-09-11T13:32:35Z</time>
</trkpt>
<trkpt lat="47.704155" lon="10.923753">
<ele>804.08</ele>
<time>2020-09-11T13:32:36Z</time>
</trkpt>
<trkpt lat="47.704178" lon="10.923831">
<ele>804.08</ele>
<time>2020-09-11T13:32:37Z</time>
</trkpt>
<trkpt lat="47.704205" lon="10.923912">
<ele>804.08</ele>
<time>2020-09-11T13:32:38Z</time>
</trkpt>
<trkpt lat="47.704224" lon="10.923992">
<ele>804.08</ele>
<time>2020-09-11T13:32:39Z</time>
</trkpt>
<trkpt lat="47.704247" lon="10.924069">
<ele>804.08</ele>
<time>2020-09-11T13:32:40Z</time>
</trkpt>
<trkpt lat="47.704273" lon="10.924147">
<ele>804.08</ele>
<time>2020-09-11T13:32:41Z</time>
</trkpt>
<trkpt lat="47.704296" lon="10.924227">
<ele>804.08</ele>
<time>2020-09-11T13:32:42Z</time>
</trkpt>
<trkpt lat="47.704315" lon="10.924307">
<ele>804.08</ele>
<time>2020-09-11T13:32:43Z</time>
</trkpt>
<trkpt lat="47.704334" lon="10.924388">
<ele>804.08</ele>
<time>2020-09-11T13:32:44Z</time>
</trkpt>
<trkpt lat="47.704357" lon="10.924472">
<ele>804.08</ele>
<time>2020-09-11T13:32:45Z</time>
</trkpt>
<trkpt lat="47.704372" lon="10.924557">
<ele>804.08</ele>
<time>2020-09-11T13:32:46Z</time>
</trkpt>
<trkpt lat="47.704395" lon="10.92464">
<ele>804.08</ele>
<time>2020-09-11T13:32:47Z</time>
</trkpt>
<trkpt lat="47.704414" lon="10.924727">
<ele>804.08</ele>
<time>2020-09-11T13:32:48Z</time>
</trkpt>
<trkpt lat="47.70443" lon="10.924813">
<ele>804.08</ele>
<time>2020-09-11T13:32:49Z</time>
</trkpt>
<trkpt lat="47.704437" lon="10.924902">
<ele>804.08</ele>
<time>2020-09-11T13:32:50Z</time>
</trkpt>
<trkpt lat="47.704445" lon="10.924989">
<ele>804.08</ele>
<time>2020-09-11T13:32:51Z</time>
</trkpt>
<trkpt lat="47.704453" lon="10.925078">
<ele>804.08</ele>
<time>2020-09-11T13:32:52Z</time>
</trkpt>
<trkpt lat="47.70446" lon="10.92517">
<ele>804.08</ele>
<time>2020-09-11T13:32:53Z</time>
</trkpt>
<trkpt lat="47.704464" lon="10.925261">
<ele>804.08</ele>
<time>2020-09-11T13:32:54Z</time>
</trkpt>
<trkpt lat="47.704464" lon="10.925352">
<ele>804.08</ele>
<time>2020-09-11T13:32:55Z</time>
</trkpt>
<trkpt lat="47.704464" lon="10.925442">
<ele>804.08</ele>
<time>2020-09-11T13:32:56Z</time>
</trkpt>
<trkpt lat="47.70446" lon="10.925531">
<ele>804.08</ele>
<time>2020-09-11T13:32:57Z</time>
</trkpt>
<trkpt lat="47.704456" lon="10.925622">
<ele>804.08</ele>
<time>2020-09-11T13:32:58Z</time>
</trkpt>
<trkpt lat="47.704453" lon="10.925714">
<ele>804.08</ele>
<time>2020-09-11T13:32:59Z</time>
</trkpt>
<trkpt lat="47.704445" lon="10.925807">
<ele>803.839</ele>
<time>2020-09-11T13:33:00Z</time>
</trkpt>
<trkpt lat="47.704437" lon="10.925894">
<ele>803.638</ele>
<time>2020-09-11T13:33:01Z</time>
</trkpt>
<trkpt lat="47.704433" lon="10.925983">
<ele>803.471</ele>
<time>2020-09-11T13:33:02Z</time>
</trkpt>
<trkpt lat="47.704426" lon="10.926073">
<ele>803.338</ele>
<time>2020-09-11T13:33:03Z</time>
</trkpt>
<trkpt lat="47.704414" lon="10.926163">
<ele>803.236</ele>
<time>2020-09-11T13:33:04Z</time>
</trkpt>
<trkpt lat="47.704403" lon="10.92625">
<ele>803.162</ele>
<time>2020-09-11T13:33:05Z</time>
</trkpt>
<trkpt lat="47.704395" lon="10.926334">
<ele>803.125</ele>
<time>2020-09-11T13:33:06Z</time>
</trkpt>
<trkpt lat="47.704388" lon="10.92642">
<ele>803.14</ele>
<time>2020-09-11T13:33:07Z</time>
</trkpt>
<trkpt lat="47.70438" lon="10.92651">
<ele>803.172</ele>
<time>2020-09-11T13:33:08Z</time>
</trkpt>
<trkpt lat="47.704372" lon="10.926605">
<ele>803.181</ele>
<time>2020-09-11T13:33:09Z</time>
</trkpt>
<trkpt lat="47.704372" lon="10.926701">
<ele>802.886</ele>
<time>2020-09-11T13:33:10Z</time>
</trkpt>
<trkpt lat="47.704372" lon="10.92679">
<ele>802.652</ele>
<time>2020-09-11T13:33:11Z</time>
</trkpt>
<trkpt lat="47.704372" lon="10.926884">
<ele>802.476</ele>
<time>2020-09-11T13:33:12Z</time>
</trkpt>
<trkpt lat="47.704372" lon="10.926973">
<ele>802.342</ele>
<time>2020-09-11T13:33:13Z</time>
</trkpt>
<trkpt lat="47.704376" lon="10.927063">
<ele>802.248</ele>
<time>2020-09-11T13:33:14Z</time>
</trkpt>
<trkpt lat="47.70438" lon="10.927152">
<ele>802.184</ele>
<time>2020-09-11T13:33:15Z</time>
</trkpt>
<trkpt lat="47.704384" lon="10.927239">
<ele>802.131</ele>
<time>2020-09-11T13:33:16Z</time>
</trkpt>
<trkpt lat="47.704391" lon="10.927327">
<ele>802.104</ele>
<time>2020-09-11T13:33:17Z</time>
</trkpt>
<trkpt lat="47.704399" lon="10.927413">
<ele>802.104</ele>
<time>2020-09-11T13:33:18Z</time>
</trkpt>
<trkpt lat="47.704407" lon="10.9275">
<ele>802.322</ele>
<time>2020-09-11T13:33:19Z</time>
</trkpt>
<trkpt lat="47.704418" lon="10.927585">
<ele>802.527</ele>
<time>2020-09-11T13:33:20Z</time>
</trkpt>
<trkpt lat="47.70443" lon="10.92767">
<ele>802.699</ele>
<time>2020-09-11T13:33:21Z</time>
</trkpt>
<trkpt lat="47.704441" lon="10.927755">
<ele>802.836</ele>
<time>2020-09-11T13:33:22Z</time>
</trkpt>
<trkpt lat="47.704456" lon="10.927838">
<ele>802.942</ele>
<time>2020-09-11T13:33:23Z</time>
</trkpt>
<trkpt lat="47.704468" lon="10.927923">
<ele>803.019</ele>
<time>2020-09-11T13:33:24Z</time>
</trkpt>
<trkpt lat="47.704483" lon="10.92801">
<ele>803.068</ele>
<time>2020-09-11T13:33:25Z</time>
</trkpt>
<trkpt lat="47.704498" lon="10.928094">
<ele>803.092</ele>
<time>2020-09-11T13:33:26Z</time>
</trkpt>
<trkpt lat="47.704517" lon="10.928178">
<ele>803.092</ele>
<time>2020-09-11T13:33:27Z</time>
</trkpt>
<trkpt lat="47.704536" lon="10.928264">
<ele>803.092</ele>
<time>2020-09-11T13:33:28Z</time>
</trkpt>
<trkpt lat="47.704556" lon="10.928348">
<ele>803.092</ele>
<time>2020-09-11T13:33:29Z</time>
</trkpt>
<trkpt lat="47.704571" lon="10.928436">
<ele>803.092</ele>
<time>2020-09-11T13:33:30Z</time>
</trkpt>
<trkpt lat="47.704594" lon="10.92852">
<ele>803.092</ele>
<time>2020-09-11T13:33:31Z</time>
</trkpt>
<trkpt lat="47.704609" lon="10.928605">
<ele>803.092</ele>
<time>2020-09-11T13:33:32Z</time>
</trkpt>
<trkpt lat="47.704628" lon="10.92869">
<ele>803.092</ele>
<time>2020-09-11T13:33:33Z</time>
</trkpt>
<trkpt lat="47.704651" lon="10.928773">
<ele>803.092</ele>
<time>2020-09-11T13:33:34Z</time>
</trkpt>
<trkpt lat="47.70467" lon="10.928859">
<ele>803.092</ele>
<time>2020-09-11T13:33:35Z</time>
</trkpt>
<trkpt lat="47.704693" lon="10.928945">
<ele>803.092</ele>
<time>2020-09-11T13:33:36Z</time>
</trkpt>
<trkpt lat="47.704708" lon="10.929031">
<ele>803.092</ele>
<time>2020-09-11T13:33:37Z</time>
</trkpt>
<trkpt lat="47.704731" lon="10.92912">
<ele>803.092</ele>
<time>2020-09-11T13:33:38Z</time>
</trkpt>
<trkpt lat="47.70475" lon="10.929205">
<ele>803.092</ele>
<time>2020-09-11T13:33:39Z</time>
</trkpt>
<trkpt lat="47.704765" lon="10.929288">
<ele>803.092</ele>
<time>2020-09-11T13:33:40Z</time>
</trkpt>
<trkpt lat="47.704781" lon="10.929374">
<ele>803.092</ele>
<time>2020-09-11T13:33:41Z</time>
</trkpt>
<trkpt lat="47.704792" lon="10.929463">
<ele>803.092</ele>
<time>2020-09-11T13:33:42Z</time>
</trkpt>
<trkpt lat="47.7048" lon="10.929555">
<ele>803.092</ele>
<time>2020-09-11T13:33:43Z</time>
</trkpt>
<trkpt lat="47.704819" lon="10.92965">
<ele>803.092</ele>
<time>2020-09-11T13:33:44Z</time>
</trkpt>
<trkpt lat="47.70483" lon="10.929743">
<ele>803.092</ele>
<time>2020-09-11T13:33:45Z</time>
</trkpt>
<trkpt lat="47.704842" lon="10.929838">
<ele>803.092</ele>
<time>2020-09-11T13:33:46Z</time>
</trkpt>
<trkpt lat="47.704849" lon="10.929928">
<ele>803.092</ele>
<time>2020-09-11T13:33:47Z</time>
</trkpt>
<trkpt lat="47.704857" lon="10.930019">
<ele>803.092</ele>
<time>2020-09-11T13:33:48Z</time>
</trkpt>
<trkpt lat="47.704861" lon="10.930112">
<ele>803.092</ele>
<time>2020-09-11T13:33:49Z</time>
</trkpt>
<trkpt lat="47.704861" lon="10.9302">
<ele>803.092</ele>
<time>2020-09-11T13:33:50Z</time>
</trkpt>
<trkpt lat="47.704861" lon="10.930288">
<ele>803.092</ele>
<time>2020-09-11T13:33:51Z</time>
</trkpt>
<trkpt lat="47.704857" lon="10.930376">
<ele>803.092</ele>
<time>2020-09-11T13:33:52Z</time>
</trkpt>
<trkpt lat="47.704857" lon="10.930464">
<ele>803.092</ele>
<time>2020-09-11T13:33:53Z</time>
</trkpt>
<trkpt lat="47.704853" lon="10.930548">
<ele>803.092</ele>
<time>2020-09-11T13:33:54Z</time>
</trkpt>
<trkpt lat="47.704845" lon="10.930629">
<ele>803.092</ele>
<time>2020-09-11T13:33:55Z</time>
</trkpt>
<trkpt lat="47.704834" lon="10.930707">
<ele>803.092</ele>
<time>2020-09-11T13:33:56Z</time>
</trkpt>
<trkpt lat="47.704826" lon="10.930783">
<ele>803.092</ele>
<time>2020-09-11T13:33:57Z</time>
</trkpt>
<trkpt lat="47.704811" lon="10.930857">
<ele>803.092</ele>
<time>2020-09-11T13:33:58Z</time>
</trkpt>
<trkpt lat="47.704796" lon="10.93093">
<ele>803.092</ele>
<time>2020-09-11T13:33:59Z</time>
</trkpt>
<trkpt lat="47.704784" lon="10.930998">
<ele>803.092</ele>
<time>2020-09-11T13:34:00Z</time>
</trkpt>
<trkpt lat="47.704773" lon="10.931067">
<ele>803.092</ele>
<time>2020-09-11T13:34:01Z</time>
</trkpt>
<trkpt lat="47.704758" lon="10.931132">
<ele>803.092</ele>
<time>2020-09-11T13:34:02Z</time>
</trkpt>
<trkpt lat="47.704746" lon="10.931197">
<ele>803.092</ele>
<time>2020-09-11T13:34:03Z</time>
</trkpt>
<trkpt lat="47.704731" lon="10.93126">
<ele>803.092</ele>
<time>2020-09-11T13:34:04Z</time>
</trkpt>
<trkpt lat="47.704723" lon="10.931318">
<ele>803.092</ele>
<time>2020-09-11T13:34:05Z</time>
</trkpt>
<trkpt lat="47.704708" lon="10.931378">
<ele>803.335</ele>
<time>2020-09-11T13:34:06Z</time>
</trkpt>
<trkpt lat="47.7047" lon="10.931438">
<ele>803.53</ele>
<time>2020-09-11T13:34:07Z</time>
</trkpt>
<trkpt lat="47.704693" lon="10.9315">
<ele>803.688</ele>
<time>2020-09-11T13:34:08Z</time>
</trkpt>
<trkpt lat="47.704681" lon="10.93156">
<ele>803.796</ele>
<time>2020-09-11T13:34:09Z</time>
</trkpt>
<trkpt lat="47.70467" lon="10.931617">
<ele>803.913</ele>
<time>2020-09-11T13:34:10Z</time>
</trkpt>
<trkpt lat="47.704662" lon="10.931672">
<ele>803.993</ele>
<time>2020-09-11T13:34:11Z</time>
</trkpt>
<trkpt lat="47.704655" lon="10.931725">
<ele>804.264</ele>
<time>2020-09-11T13:34:12Z</time>
</trkpt>
<trkpt lat="47.704643" lon="10.93178">
<ele>804.475</ele>
<time>2020-09-11T13:34:13Z</time>
</trkpt>
<trkpt lat="47.704636" lon="10.931835">
<ele>804.688</ele>
<time>2020-09-11T13:34:14Z</time>
</trkpt>
<trkpt lat="47.704628" lon="10.931892">
<ele>804.797</ele>
<time>2020-09-11T13:34:15Z</time>
</trkpt>
<trkpt lat="47.70462" lon="10.931947">
<ele>804.881</ele>
<time>2020-09-11T13:34:16Z</time>
</trkpt>
<trkpt lat="47.704617" lon="10.932">
<ele>804.919</ele>
<time>2020-09-11T13:34:17Z</time>
</trkpt>
<trkpt lat="47.704609" lon="10.932052">
<ele>805.191</ele>
<time>2020-09-11T13:34:18Z</time>
</trkpt>
<trkpt lat="47.704605" lon="10.932105">
<ele>805.388</ele>
<time>2020-09-11T13:34:19Z</time>
</trkpt>
<trkpt lat="47.704601" lon="10.932158">
<ele>805.563</ele>
<time>2020-09-11T13:34:20Z</time>
</trkpt>
<trkpt lat="47.704597" lon="10.93221">
<ele>805.701</ele>
<time>2020-09-11T13:34:21Z</time>
</trkpt>
<trkpt lat="47.704597" lon="10.932261">
<ele>805.81</ele>
<time>2020-09-11T13:34:22Z</time>
</trkpt>
<trkpt lat="47.704594" lon="10.932316">
<ele>805.88</ele>
<time>2020-09-11T13:34:23Z</time>
</trkpt>
<trkpt lat="47.70459" lon="10.932368">
<ele>806.177</ele>
<time>2020-09-11T13:34:24Z</time>
</trkpt>
<trkpt lat="47.704586" lon="10.932422">
<ele>806.408</ele>
<time>2020-09-11T13:34:25Z</time>
</trkpt>
<trkpt lat="47.704586" lon="10.932473">
<ele>806.603</ele>
<time>2020-09-11T13:34:26Z</time>
</trkpt>
<trkpt lat="47.704582" lon="10.932525">
<ele>806.695</ele>
<time>2020-09-11T13:34:27Z</time>
</trkpt>
<trkpt lat="47.704582" lon="10.932577">
<ele>807.012</ele>
<time>2020-09-11T13:34:28Z</time>
</trkpt>
<trkpt lat="47.704578" lon="10.932627">
<ele>807.247</ele>
<time>2020-09-11T13:34:29Z</time>
</trkpt>
<trkpt lat="47.704578" lon="10.932676">
<ele>807.46</ele>
<time>2020-09-11T13:34:30Z</time>
</trkpt>
<trkpt lat="47.704575" lon="10.932725">
<ele>807.612</ele>
<time>2020-09-11T13:34:31Z</time>
</trkpt>
<trkpt lat="47.704575" lon="10.932772">
<ele>807.713</ele>
<time>2020-09-11T13:34:32Z</time>
</trkpt>
<trkpt lat="47.704571" lon="10.932818">
<ele>807.784</ele>
<time>2020-09-11T13:34:33Z</time>
</trkpt>
<trkpt lat="47.704571" lon="10.932867">
<ele>807.828</ele>
<time>2020-09-11T13:34:34Z</time>
</trkpt>
<trkpt lat="47.704571" lon="10.932917">
<ele>808.09</ele>
<time>2020-09-11T13:34:35Z</time>
</trkpt>
<trkpt lat="47.704571" lon="10.932965">
<ele>808.313</ele>
<time>2020-09-11T13:34:36Z</time>
</trkpt>
<trkpt lat="47.704571" lon="10.933013">
<ele>808.476</ele>
<time>2020-09-11T13:34:37Z</time>
</trkpt>
<trkpt lat="47.704567" lon="10.933058">
<ele>808.593</ele>
<time>2020-09-11T13:34:38Z</time>
</trkpt>
<trkpt lat="47.704567" lon="10.933105">
<ele>808.678</ele>
<time>2020-09-11T13:34:39Z</time>
</trkpt>
<trkpt lat="47.704567" lon="10.933151">
<ele>809.002</ele>
<time>2020-09-11T13:34:40Z</time>
</trkpt>
<trkpt lat="47.704567" lon="10.933196">
<ele>809.255</ele>
<time>2020-09-11T13:34:41Z</time>
</trkpt>
<trkpt lat="47.704563" lon="10.933245">
<ele>809.444</ele>
<time>2020-09-11T13:34:42Z</time>
</trkpt>
<trkpt lat="47.704563" lon="10.933293">
<ele>809.578</ele>
<time>2020-09-11T13:34:43Z</time>
</trkpt>
<trkpt lat="47.704563" lon="10.93334">
<ele>809.683</ele>
<time>2020-09-11T13:34:44Z</time>
</trkpt>
<trkpt lat="47.704559" lon="10.933389">
<ele>809.759</ele>
<time>2020-09-11T13:34:45Z</time>
</trkpt>
<trkpt lat="47.704556" lon="10.933436">
<ele>809.803</ele>
<time>2020-09-11T13:34:46Z</time>
</trkpt>
<trkpt lat="47.704552" lon="10.933489">
<ele>810.052</ele>
<time>2020-09-11T13:34:47Z</time>
</trkpt>
<trkpt lat="47.704548" lon="10.933537">
<ele>810.237</ele>
<time>2020-09-11T13:34:48Z</time>
</trkpt>
<trkpt lat="47.704544" lon="10.933585">
<ele>810.359</ele>
<time>2020-09-11T13:34:49Z</time>
</trkpt>
<trkpt lat="47.70454" lon="10.933634">
<ele>810.488</ele>
<time>2020-09-11T13:34:50Z</time>
</trkpt>
<trkpt lat="47.704533" lon="10.933678">
<ele>810.581</ele>
<time>2020-09-11T13:34:51Z</time>
</trkpt>
<trkpt lat="47.704533" lon="10.933725">
<ele>810.897</ele>
<time>2020-09-11T13:34:52Z</time>
</trkpt>
<trkpt lat="47.704525" lon="10.93377">
<ele>811.144</ele>
<time>2020-09-11T13:34:53Z</time>
</trkpt>
<trkpt lat="47.704517" lon="10.933813">
<ele>811.331</ele>
<time>2020-09-11T13:34:54Z</time>
</trkpt>
<trkpt lat="47.70451" lon="10.933858">
<ele>811.524</ele>
<time>2020-09-11T13:34:55Z</time>
</trkpt>
<trkpt lat="47.704498" lon="10.933902">
<ele>811.607</ele>
<time>2020-09-11T13:34:56Z</time>
</trkpt>
<trkpt lat="47.704494" lon="10.933942">
<ele>811.661</ele>
<time>2020-09-11T13:34:57Z</time>
</trkpt>
<trkpt lat="47.704487" lon="10.933986">
<ele>811.693</ele>
<time>2020-09-11T13:34:58Z</time>
</trkpt>
<trkpt lat="47.704475" lon="10.934025">
<ele>811.718</ele>
<time>2020-09-11T13:34:59Z</time>
</trkpt>
<trkpt lat="47.704468" lon="10.934067">
<ele>811.997</ele>
<time>2020-09-11T13:35:00Z</time>
</trkpt>
<trkpt lat="47.704456" lon="10.934107">
<ele>812.235</ele>
<time>2020-09-11T13:35:01Z</time>
</trkpt>
<trkpt lat="47.704445" lon="10.934149">
<ele>812.432</ele>
<time>2020-09-11T13:35:02Z</time>
</trkpt>
<trkpt lat="47.704433" lon="10.934189">
<ele>812.557</ele>
<time>2020-09-11T13:35:03Z</time>
</trkpt>
<trkpt lat="47.704426" lon="10.934229">
<ele>812.935</ele>
<time>2020-09-11T13:35:04Z</time>
</trkpt>
<trkpt lat="47.704411" lon="10.93427">
<ele>813.239</ele>
<time>2020-09-11T13:35:05Z</time>
</trkpt>
<trkpt lat="47.704399" lon="10.934312">
<ele>813.464</ele>
<time>2020-09-11T13:35:06Z</time>
</trkpt>
<trkpt lat="47.704384" lon="10.934355">
<ele>813.631</ele>
<time>2020-09-11T13:35:07Z</time>
</trkpt>
<trkpt lat="47.704369" lon="10.934395">
<ele>813.733</ele>
<time>2020-09-11T13:35:08Z</time>
</trkpt>
<trkpt lat="47.704357" lon="10.934435">
<ele>813.794</ele>
<time>2020-09-11T13:35:09Z</time>
</trkpt>
<trkpt lat="47.704342" lon="10.934475">
<ele>813.848</ele>
<time>2020-09-11T13:35:10Z</time>
</trkpt>
<trkpt lat="47.704327" lon="10.934515">
<ele>814.14</ele>
<time>2020-09-11T13:35:11Z</time>
</trkpt>
<trkpt lat="47.704308" lon="10.934555">
<ele>814.451</ele>
<time>2020-09-11T13:35:12Z</time>
</trkpt>
<trkpt lat="47.704292" lon="10.934597">
<ele>814.637</ele>
<time>2020-09-11T13:35:13Z</time>
</trkpt>
<trkpt lat="47.704273" lon="10.934637">
<ele>814.774</ele>
<time>2020-09-11T13:35:14Z</time>
</trkpt>
<trkpt lat="47.704258" lon="10.934677">
<ele>814.869</ele>
<time>2020-09-11T13:35:15Z</time>
</trkpt>
<trkpt lat="47.704239" lon="10.934718">
<ele>814.928</ele>
<time>2020-09-11T13:35:16Z</time>
</trkpt>
<trkpt lat="47.704224" lon="10.934758">
<ele>814.954</ele>
<time>2020-09-11T13:35:17Z</time>
</trkpt>
<trkpt lat="47.704208" lon="10.9348">
<ele>814.954</ele>
<time>2020-09-11T13:35:18Z</time>
</trkpt>
<trkpt lat="47.704189" lon="10.934838">
<ele>814.954</ele>
<time>2020-09-11T13:35:19Z</time>
</trkpt>
<trkpt lat="47.704174" lon="10.93488">
<ele>815.194</ele>
<time>2020-09-11T13:35:20Z</time>
</trkpt>
<trkpt lat="47.704155" lon="10.93492">
<ele>815.395</ele>
<time>2020-09-11T13:35:21Z</time>
</trkpt>
<trkpt lat="47.70414" lon="10.934961">
<ele>815.531</ele>
<time>2020-09-11T13:35:22Z</time>
</trkpt>
<trkpt lat="47.704121" lon="10.935003">
<ele>815.961</ele>
<time>2020-09-11T13:35:23Z</time>
</trkpt>
<trkpt lat="47.704102" lon="10.935045">
<ele>816.313</ele>
<time>2020-09-11T13:35:24Z</time>
</trkpt>
<trkpt lat="47.704082" lon="10.935087">
<ele>816.593</ele>
<time>2020-09-11T13:35:25Z</time>
</trkpt>
<trkpt lat="47.704071" lon="10.935127">
<ele>816.799</ele>
<time>2020-09-11T13:35:26Z</time>
</trkpt>
<trkpt lat="47.704056" lon="10.935169">
<ele>816.943</ele>
<time>2020-09-11T13:35:27Z</time>
</trkpt>
<trkpt lat="47.704041" lon="10.935211">
<ele>817.029</ele>
<time>2020-09-11T13:35:28Z</time>
</trkpt>
<trkpt lat="47.704021" lon="10.935253">
<ele>817.08</ele>
<time>2020-09-11T13:35:29Z</time>
</trkpt>
<trkpt lat="47.70401" lon="10.935299">
<ele>817.112</ele>
<time>2020-09-11T13:35:30Z</time>
</trkpt>
<trkpt lat="47.703995" lon="10.935342">
<ele>817.112</ele>
<time>2020-09-11T13:35:31Z</time>
</trkpt>
<trkpt lat="47.703979" lon="10.935385">
<ele>817.112</ele>
<time>2020-09-11T13:35:32Z</time>
</trkpt>
<trkpt lat="47.703968" lon="10.93543">
<ele>817.112</ele>
<time>2020-09-11T13:35:33Z</time>
</trkpt>
<trkpt lat="47.703953" lon="10.935477">
<ele>817.358</ele>
<time>2020-09-11T13:35:34Z</time>
</trkpt>
<trkpt lat="47.703945" lon="10.935523">
<ele>817.551</ele>
<time>2020-09-11T13:35:35Z</time>
</trkpt>
<trkpt lat="47.70393" lon="10.93557">
<ele>817.694</ele>
<time>2020-09-11T13:35:36Z</time>
</trkpt>
<trkpt lat="47.703918" lon="10.935618">
<ele>817.807</ele>
<time>2020-09-11T13:35:37Z</time>
</trkpt>
<trkpt lat="47.703911" lon="10.935665">
<ele>817.882</ele>
<time>2020-09-11T13:35:38Z</time>
</trkpt>
<trkpt lat="47.703899" lon="10.935712">
<ele>817.938</ele>
<time>2020-09-11T13:35:39Z</time>
</trkpt>
<trkpt lat="47.703884" lon="10.935759">
<ele>817.989</ele>
<time>2020-09-11T13:35:40Z</time>
</trkpt>
<trkpt lat="47.70388" lon="10.935806">
<ele>818.012</ele>
<time>2020-09-11T13:35:41Z</time>
</trkpt>
<trkpt lat="47.703873" lon="10.935857">
<ele>818.322</ele>
<time>2020-09-11T13:35:42Z</time>
</trkpt>
<trkpt lat="47.703861" lon="10.935906">
<ele>818.565</ele>
<time>2020-09-11T13:35:43Z</time>
</trkpt>
<trkpt lat="47.703854" lon="10.935957">
<ele>818.748</ele>
<time>2020-09-11T13:35:44Z</time>
</trkpt>
<trkpt lat="47.70385" lon="10.936007">
<ele>818.882</ele>
<time>2020-09-11T13:35:45Z</time>
</trkpt>
<trkpt lat="47.703846" lon="10.936058">
<ele>818.976</ele>
<time>2020-09-11T13:35:46Z</time>
</trkpt>
<trkpt lat="47.703838" lon="10.936111">
<ele>819.033</ele>
<time>2020-09-11T13:35:47Z</time>
</trkpt>
<trkpt lat="47.703835" lon="10.936162">
<ele>819.067</ele>
<time>2020-09-11T13:35:48Z</time>
</trkpt>
<trkpt lat="47.703827" lon="10.936213">
<ele>819.091</ele>
<time>2020-09-11T13:35:49Z</time>
</trkpt>
<trkpt lat="47.703823" lon="10.936267">
<ele>819.091</ele>
<time>2020-09-11T13:35:50Z</time>
</trkpt>
<trkpt lat="47.703819" lon="10.936319">
<ele>819.091</ele>
<time>2020-09-11T13:35:51Z</time>
</trkpt>
<trkpt lat="47.703815" lon="10.936374">
<ele>819.405</ele>
<time>2020-09-11T13:35:52Z</time>
</trkpt>
<trkpt lat="47.703815" lon="10.936423">
<ele>819.645</ele>
<time>2020-09-11T13:35:53Z</time>
</trkpt>
<trkpt lat="47.703812" lon="10.936473">
<ele>819.825</ele>
<time>2020-09-11T13:35:54Z</time>
</trkpt>
<trkpt lat="47.703808" lon="10.936523">
<ele>819.96</ele>
<time>2020-09-11T13:35:55Z</time>
</trkpt>
<trkpt lat="47.703808" lon="10.936573">
<ele>820.054</ele>
<time>2020-09-11T13:35:56Z</time>
</trkpt>
<trkpt lat="47.703808" lon="10.936625">
<ele>820.117</ele>
<time>2020-09-11T13:35:57Z</time>
</trkpt>
<trkpt lat="47.703808" lon="10.936671">
<ele>820.145</ele>
<time>2020-09-11T13:35:58Z</time>
</trkpt>
<trkpt lat="47.703808" lon="10.936717">
<ele>820.171</ele>
<time>2020-09-11T13:35:59Z</time>
</trkpt>
<trkpt lat="47.703808" lon="10.936766">
<ele>820.406</ele>
<time>2020-09-11T13:36:00Z</time>
</trkpt>
<trkpt lat="47.703815" lon="10.936816">
<ele>820.609</ele>
<time>2020-09-11T13:36:01Z</time>
</trkpt>
<trkpt lat="47.703819" lon="10.936865">
<ele>820.775</ele>
<time>2020-09-11T13:36:02Z</time>
</trkpt>
<trkpt lat="47.703823" lon="10.936911">
<ele>820.908</ele>
<time>2020-09-11T13:36:03Z</time>
</trkpt>
<trkpt lat="47.703827" lon="10.936956">
<ele>821.012</ele>
<time>2020-09-11T13:36:04Z</time>
</trkpt>
<trkpt lat="47.703835" lon="10.937005">
<ele>821.087</ele>
<time>2020-09-11T13:36:05Z</time>
</trkpt>
<trkpt lat="47.703842" lon="10.937051">
<ele>821.138</ele>
<time>2020-09-11T13:36:06Z</time>
</trkpt>
<trkpt lat="47.703846" lon="10.9371">
<ele>821.16</ele>
<time>2020-09-11T13:36:07Z</time>
</trkpt>
<trkpt lat="47.703857" lon="10.937152">
<ele>821.16</ele>
<time>2020-09-11T13:36:09Z</time>
</trkpt>
<trkpt lat="47.70388" lon="10.937255">
<ele>821.597</ele>
<time>2020-09-11T13:36:10Z</time>
</trkpt>
<trkpt lat="47.703884" lon="10.937304">
<ele>821.772</ele>
<time>2020-09-11T13:36:11Z</time>
</trkpt>
<trkpt lat="47.703896" lon="10.937357">
<ele>821.906</ele>
<time>2020-09-11T13:36:12Z</time>
</trkpt>
<trkpt lat="47.703903" lon="10.937408">
<ele>822.008</ele>
<time>2020-09-11T13:36:13Z</time>
</trkpt>
<trkpt lat="47.703911" lon="10.937459">
<ele>822.082</ele>
<time>2020-09-11T13:36:14Z</time>
</trkpt>
<trkpt lat="47.703922" lon="10.937505">
<ele>822.124</ele>
<time>2020-09-11T13:36:15Z</time>
</trkpt>
<trkpt lat="47.703938" lon="10.937555">
<ele>822.41</ele>
<time>2020-09-11T13:36:16Z</time>
</trkpt>
<trkpt lat="47.703953" lon="10.937602">
<ele>822.64</ele>
<time>2020-09-11T13:36:17Z</time>
</trkpt>
<trkpt lat="47.703968" lon="10.937648">
<ele>822.81</ele>
<time>2020-09-11T13:36:18Z</time>
</trkpt>
<trkpt lat="47.703979" lon="10.937696">
<ele>822.928</ele>
<time>2020-09-11T13:36:19Z</time>
</trkpt>
<trkpt lat="47.703999" lon="10.937742">
<ele>823.052</ele>
<time>2020-09-11T13:36:20Z</time>
</trkpt>
<trkpt lat="47.70401" lon="10.937788">
<ele>823.144</ele>
<time>2020-09-11T13:36:21Z</time>
</trkpt>
<trkpt lat="47.704029" lon="10.937832">
<ele>823.202</ele>
<time>2020-09-11T13:36:22Z</time>
</trkpt>
<trkpt lat="47.704044" lon="10.937875">
<ele>823.23</ele>
<time>2020-09-11T13:36:23Z</time>
</trkpt>
<trkpt lat="47.704063" lon="10.937917">
<ele>823.23</ele>
<time>2020-09-11T13:36:24Z</time>
</trkpt>
<trkpt lat="47.704079" lon="10.93796">
<ele>823.463</ele>
<time>2020-09-11T13:36:25Z</time>
</trkpt>
<trkpt lat="47.704094" lon="10.938">
<ele>823.647</ele>
<time>2020-09-11T13:36:26Z</time>
</trkpt>
<trkpt lat="47.704109" lon="10.93804">
<ele>823.789</ele>
<time>2020-09-11T13:36:27Z</time>
</trkpt>
<trkpt lat="47.704132" lon="10.93808">
<ele>823.901</ele>
<time>2020-09-11T13:36:28Z</time>
</trkpt>
<trkpt lat="47.704147" lon="10.93812">
<ele>823.976</ele>
<time>2020-09-11T13:36:29Z</time>
</trkpt>
<trkpt lat="47.704166" lon="10.93816">
<ele>824.055</ele>
<time>2020-09-11T13:36:30Z</time>
</trkpt>
<trkpt lat="47.704178" lon="10.938201">
<ele>824.105</ele>
<time>2020-09-11T13:36:31Z</time>
</trkpt>
<trkpt lat="47.704197" lon="10.938241">
<ele>824.13</ele>
<time>2020-09-11T13:36:32Z</time>
</trkpt>
<trkpt lat="47.704216" lon="10.93828">
<ele>824.13</ele>
<time>2020-09-11T13:36:33Z</time>
</trkpt>
<trkpt lat="47.704235" lon="10.938318">
<ele>824.425</ele>
<time>2020-09-11T13:36:34Z</time>
</trkpt>
<trkpt lat="47.704262" lon="10.938355">
<ele>824.655</ele>
<time>2020-09-11T13:36:35Z</time>
</trkpt>
<trkpt lat="47.704285" lon="10.938392">
<ele>824.833</ele>
<time>2020-09-11T13:36:36Z</time>
</trkpt>
<trkpt lat="47.704304" lon="10.938432">
<ele>824.96</ele>
<time>2020-09-11T13:36:37Z</time>
</trkpt>
<trkpt lat="47.704334" lon="10.93847">
<ele>825.057</ele>
<time>2020-09-11T13:36:38Z</time>
</trkpt>
<trkpt lat="47.704357" lon="10.938509">
<ele>825.123</ele>
<time>2020-09-11T13:36:39Z</time>
</trkpt>
<trkpt lat="47.70438" lon="10.938545">
<ele>825.183</ele>
<time>2020-09-11T13:36:40Z</time>
</trkpt>
<trkpt lat="47.704399" lon="10.938583">
<ele>825.21</ele>
<time>2020-09-11T13:36:41Z</time>
</trkpt>
<trkpt lat="47.704426" lon="10.93862">
<ele>825.495</ele>
<time>2020-09-11T13:36:42Z</time>
</trkpt>
<trkpt lat="47.704445" lon="10.938658">
<ele>825.717</ele>
<time>2020-09-11T13:36:43Z</time>
</trkpt>
<trkpt lat="47.704468" lon="10.938698">
<ele>825.886</ele>
<time>2020-09-11T13:36:44Z</time>
</trkpt>
<trkpt lat="47.704487" lon="10.938739">
<ele>826.01</ele>
<time>2020-09-11T13:36:45Z</time>
</trkpt>
<trkpt lat="47.704502" lon="10.938775">
<ele>826.089</ele>
<time>2020-09-11T13:36:46Z</time>
</trkpt>
<trkpt lat="47.704514" lon="10.938815">
<ele>826.15</ele>
<time>2020-09-11T13:36:47Z</time>
</trkpt>
<trkpt lat="47.704517" lon="10.938857">
<ele>826.176</ele>
<time>2020-09-11T13:36:48Z</time>
</trkpt>
<trkpt lat="47.704514" lon="10.938898">
<ele>826.2</ele>
<time>2020-09-11T13:36:49Z</time>
</trkpt>
<trkpt lat="47.704506" lon="10.938934">
<ele>826.2</ele>
<time>2020-09-11T13:36:50Z</time>
</trkpt>
<trkpt lat="47.704498" lon="10.938972">
<ele>826.506</ele>
<time>2020-09-11T13:36:51Z</time>
</trkpt>
<trkpt lat="47.704483" lon="10.939003">
<ele>826.744</ele>
<time>2020-09-11T13:36:52Z</time>
</trkpt>
<trkpt lat="47.704468" lon="10.939034">
<ele>826.937</ele>
<time>2020-09-11T13:36:53Z</time>
</trkpt>
<trkpt lat="47.70446" lon="10.939069">
<ele>827.059</ele>
<time>2020-09-11T13:36:54Z</time>
</trkpt>
<trkpt lat="47.704445" lon="10.9391">
<ele>827.398</ele>
<time>2020-09-11T13:36:55Z</time>
</trkpt>
<trkpt lat="47.704433" lon="10.939129">
<ele>827.637</ele>
<time>2020-09-11T13:36:56Z</time>
</trkpt>
<trkpt lat="47.704422" lon="10.939155">
<ele>828.065</ele>
<time>2020-09-11T13:36:57Z</time>
</trkpt>
<trkpt lat="47.704403" lon="10.939181">
<ele>828.409</ele>
<time>2020-09-11T13:36:58Z</time>
</trkpt>
<trkpt lat="47.704391" lon="10.93921">
<ele>828.644</ele>
<time>2020-09-11T13:36:59Z</time>
</trkpt>
<trkpt lat="47.704372" lon="10.93924">
<ele>829.126</ele>
<time>2020-09-11T13:37:00Z</time>
</trkpt>
<trkpt lat="47.704361" lon="10.939263">
<ele>829.5</ele>
<time>2020-09-11T13:37:01Z</time>
</trkpt>
<trkpt lat="47.704342" lon="10.939286">
<ele>829.782</ele>
<time>2020-09-11T13:37:02Z</time>
</trkpt>
<trkpt lat="47.704323" lon="10.939307">
<ele>829.947</ele>
<time>2020-09-11T13:37:03Z</time>
</trkpt>
<trkpt lat="47.704304" lon="10.939323">
<ele>830.382</ele>
<time>2020-09-11T13:37:04Z</time>
</trkpt>
<trkpt lat="47.704281" lon="10.939339">
<ele>830.7</ele>
<time>2020-09-11T13:37:05Z</time>
</trkpt>
<trkpt lat="47.704258" lon="10.939353">
<ele>830.943</ele>
<time>2020-09-11T13:37:06Z</time>
</trkpt>
<trkpt lat="47.704239" lon="10.939366">
<ele>831.128</ele>
<time>2020-09-11T13:37:07Z</time>
</trkpt>
<trkpt lat="47.704216" lon="10.939379">
<ele>831.227</ele>
<time>2020-09-11T13:37:08Z</time>
</trkpt>
<trkpt lat="47.704197" lon="10.939384">
<ele>831.549</ele>
<time>2020-09-11T13:37:09Z</time>
</trkpt>
<trkpt lat="47.704163" lon="10.939395">
<ele>831.823</ele>
<time>2020-09-11T13:37:10Z</time>
</trkpt>
<trkpt lat="47.704132" lon="10.939408">
<ele>832.027</ele>
<time>2020-09-11T13:37:11Z</time>
</trkpt>
<trkpt lat="47.704109" lon="10.939422">
<ele>832.165</ele>
<time>2020-09-11T13:37:12Z</time>
</trkpt>
<trkpt lat="47.70409" lon="10.93943">
<ele>832.27</ele>
<time>2020-09-11T13:37:13Z</time>
</trkpt>
<trkpt lat="47.704071" lon="10.93944">
<ele>832.344</ele>
<time>2020-09-11T13:37:14Z</time>
</trkpt>
<trkpt lat="47.704052" lon="10.939453">
<ele>832.391</ele>
<time>2020-09-11T13:37:15Z</time>
</trkpt>
<trkpt lat="47.704041" lon="10.93947">
<ele>832.413</ele>
<time>2020-09-11T13:37:16Z</time>
</trkpt>
<trkpt lat="47.704021" lon="10.939486">
<ele>832.639</ele>
<time>2020-09-11T13:37:17Z</time>
</trkpt>
<trkpt lat="47.704006" lon="10.939496">
<ele>832.815</ele>
<time>2020-09-11T13:37:18Z</time>
</trkpt>
<trkpt lat="47.703979" lon="10.939515">
<ele>832.96</ele>
<time>2020-09-11T13:37:19Z</time>
</trkpt>
<trkpt lat="47.703957" lon="10.939538">
<ele>833.128</ele>
<time>2020-09-11T13:37:20Z</time>
</trkpt>
<trkpt lat="47.703938" lon="10.939569">
<ele>833.25</ele>
<time>2020-09-11T13:37:21Z</time>
</trkpt>
<trkpt lat="47.703911" lon="10.939593">
<ele>833.331</ele>
<time>2020-09-11T13:37:22Z</time>
</trkpt>
<trkpt lat="47.703888" lon="10.939617">
<ele>833.382</ele>
<time>2020-09-11T13:37:23Z</time>
</trkpt>
<trkpt lat="47.703869" lon="10.939642">
<ele>833.403</ele>
<time>2020-09-11T13:37:24Z</time>
</trkpt>
<trkpt lat="47.703842" lon="10.939667">
<ele>833.403</ele>
<time>2020-09-11T13:37:25Z</time>
</trkpt>
<trkpt lat="47.703815" lon="10.939691">
<ele>833.403</ele>
<time>2020-09-11T13:37:26Z</time>
</trkpt>
<trkpt lat="47.703785" lon="10.939712">
<ele>833.403</ele>
<time>2020-09-11T13:37:27Z</time>
</trkpt>
<trkpt lat="47.703754" lon="10.93973">
<ele>833.403</ele>
<time>2020-09-11T13:37:28Z</time>
</trkpt>
<trkpt lat="47.703724" lon="10.939749">
<ele>833.403</ele>
<time>2020-09-11T13:37:29Z</time>
</trkpt>
<trkpt lat="47.70369" lon="10.939764">
<ele>833.403</ele>
<time>2020-09-11T13:37:30Z</time>
</trkpt>
<trkpt lat="47.703659" lon="10.939776">
<ele>833.404</ele>
<time>2020-09-11T13:37:31Z</time>
</trkpt>
<trkpt lat="47.703629" lon="10.939789">
<ele>833.403</ele>
<time>2020-09-11T13:37:32Z</time>
</trkpt>
<trkpt lat="47.703594" lon="10.939798">
<ele>833.403</ele>
<time>2020-09-11T13:37:33Z</time>
</trkpt>
<trkpt lat="47.703556" lon="10.939818">
<ele>833.403</ele>
<time>2020-09-11T13:37:34Z</time>
</trkpt>
<trkpt lat="47.703522" lon="10.939847">
<ele>833.403</ele>
<time>2020-09-11T13:37:35Z</time>
</trkpt>
<trkpt lat="47.703487" lon="10.939878">
<ele>833.403</ele>
<time>2020-09-11T13:37:36Z</time>
</trkpt>
<trkpt lat="47.703457" lon="10.939913">
<ele>833.403</ele>
<time>2020-09-11T13:37:37Z</time>
</trkpt>
<trkpt lat="47.703434" lon="10.939943">
<ele>833.403</ele>
<time>2020-09-11T13:37:38Z</time>
</trkpt>
<trkpt lat="47.7034" lon="10.939965">
<ele>833.404</ele>
<time>2020-09-11T13:37:39Z</time>
</trkpt>
<trkpt lat="47.703369" lon="10.939981">
<ele>833.403</ele>
<time>2020-09-11T13:37:40Z</time>
</trkpt>
<trkpt lat="47.703335" lon="10.940003">
<ele>833.403</ele>
<time>2020-09-11T13:37:41Z</time>
</trkpt>
<trkpt lat="47.7033" lon="10.940028">
<ele>833.403</ele>
<time>2020-09-11T13:37:42Z</time>
</trkpt>
<trkpt lat="47.703266" lon="10.940053">
<ele>833.403</ele>
<time>2020-09-11T13:37:43Z</time>
</trkpt>
<trkpt lat="47.703236" lon="10.940082">
<ele>833.403</ele>
<time>2020-09-11T13:37:44Z</time>
</trkpt>
<trkpt lat="47.703197" lon="10.940112">
<ele>833.403</ele>
<time>2020-09-11T13:37:45Z</time>
</trkpt>
<trkpt lat="47.703163" lon="10.940139">
<ele>833.403</ele>
<time>2020-09-11T13:37:46Z</time>
</trkpt>
<trkpt lat="47.703125" lon="10.940162">
<ele>833.404</ele>
<time>2020-09-11T13:37:47Z</time>
</trkpt>
<trkpt lat="47.703087" lon="10.940187">
<ele>833.403</ele>
<time>2020-09-11T13:37:48Z</time>
</trkpt>
<trkpt lat="47.703049" lon="10.940215">
<ele>833.403</ele>
<time>2020-09-11T13:37:49Z</time>
</trkpt>
<trkpt lat="47.703011" lon="10.940244">
<ele>833.156</ele>
<time>2020-09-11T13:37:50Z</time>
</trkpt>
<trkpt lat="47.702965" lon="10.940271">
<ele>832.948</ele>
<time>2020-09-11T13:37:51Z</time>
</trkpt>
<trkpt lat="47.702923" lon="10.940302">
<ele>832.783</ele>
<time>2020-09-11T13:37:52Z</time>
</trkpt>
<trkpt lat="47.702881" lon="10.940331">
<ele>832.654</ele>
<time>2020-09-11T13:37:53Z</time>
</trkpt>
<trkpt lat="47.702835" lon="10.940376">
<ele>832.551</ele>
<time>2020-09-11T13:37:54Z</time>
</trkpt>
<trkpt lat="47.702789" lon="10.940426">
<ele>832.479</ele>
<time>2020-09-11T13:37:55Z</time>
</trkpt>
<trkpt lat="47.70274" lon="10.94047">
<ele>832.433</ele>
<time>2020-09-11T13:37:56Z</time>
</trkpt>
<trkpt lat="47.702694" lon="10.940516">
<ele>832.413</ele>
<time>2020-09-11T13:37:57Z</time>
</trkpt>
<trkpt lat="47.702641" lon="10.94057">
<ele>832.413</ele>
<time>2020-09-11T13:37:58Z</time>
</trkpt>
<trkpt lat="47.702587" lon="10.940625">
<ele>832.16</ele>
<time>2020-09-11T13:37:59Z</time>
</trkpt>
<trkpt lat="47.702538" lon="10.940683">
<ele>831.924</ele>
<time>2020-09-11T13:38:00Z</time>
</trkpt>
<trkpt lat="47.702477" lon="10.940743">
<ele>831.735</ele>
<time>2020-09-11T13:38:01Z</time>
</trkpt>
<trkpt lat="47.702423" lon="10.940805">
<ele>831.618</ele>
<time>2020-09-11T13:38:02Z</time>
</trkpt>
<trkpt lat="47.702374" lon="10.940866">
<ele>831.198</ele>
<time>2020-09-11T13:38:03Z</time>
</trkpt>
<trkpt lat="47.702316" lon="10.940925">
<ele>830.871</ele>
<time>2020-09-11T13:38:04Z</time>
</trkpt>
<trkpt lat="47.702267" lon="10.940985">
<ele>830.624</ele>
<time>2020-09-11T13:38:05Z</time>
</trkpt>
<trkpt lat="47.702217" lon="10.941047">
<ele>830.449</ele>
<time>2020-09-11T13:38:06Z</time>
</trkpt>
<trkpt lat="47.702171" lon="10.941107">
<ele>830.306</ele>
<time>2020-09-11T13:38:07Z</time>
</trkpt>
<trkpt lat="47.702129" lon="10.941168">
<ele>830.245</ele>
<time>2020-09-11T13:38:08Z</time>
</trkpt>
<trkpt lat="47.702084" lon="10.941228">
<ele>830.195</ele>
<time>2020-09-11T13:38:09Z</time>
</trkpt>
<trkpt lat="47.702045" lon="10.941292">
<ele>830.161</ele>
<time>2020-09-11T13:38:10Z</time>
</trkpt>
<trkpt lat="47.702003" lon="10.941355">
<ele>830.161</ele>
<time>2020-09-11T13:38:11Z</time>
</trkpt>
<trkpt lat="47.701965" lon="10.941422">
<ele>830.161</ele>
<time>2020-09-11T13:38:12Z</time>
</trkpt>
<trkpt lat="47.701927" lon="10.941488">
<ele>830.161</ele>
<time>2020-09-11T13:38:13Z</time>
</trkpt>
<trkpt lat="47.701893" lon="10.94156">
<ele>830.161</ele>
<time>2020-09-11T13:38:14Z</time>
</trkpt>
<trkpt lat="47.701862" lon="10.941633">
<ele>830.161</ele>
<time>2020-09-11T13:38:15Z</time>
</trkpt>
<trkpt lat="47.701832" lon="10.941709">
<ele>830.161</ele>
<time>2020-09-11T13:38:16Z</time>
</trkpt>
<trkpt lat="47.701805" lon="10.941787">
<ele>830.161</ele>
<time>2020-09-11T13:38:17Z</time>
</trkpt>
<trkpt lat="47.701778" lon="10.941863">
<ele>830.161</ele>
<time>2020-09-11T13:38:18Z</time>
</trkpt>
<trkpt lat="47.701756" lon="10.94194">
<ele>830.402</ele>
<time>2020-09-11T13:38:19Z</time>
</trkpt>
<trkpt lat="47.701729" lon="10.942017">
<ele>830.628</ele>
<time>2020-09-11T13:38:20Z</time>
</trkpt>
<trkpt lat="47.70171" lon="10.942094">
<ele>830.814</ele>
<time>2020-09-11T13:38:21Z</time>
</trkpt>
<trkpt lat="47.701694" lon="10.942166">
<ele>830.94</ele>
<time>2020-09-11T13:38:22Z</time>
</trkpt>
<trkpt lat="47.701672" lon="10.942238">
<ele>831.278</ele>
<time>2020-09-11T13:38:23Z</time>
</trkpt>
<trkpt lat="47.701656" lon="10.942308">
<ele>831.548</ele>
<time>2020-09-11T13:38:24Z</time>
</trkpt>
<trkpt lat="47.701641" lon="10.942375">
<ele>831.727</ele>
<time>2020-09-11T13:38:25Z</time>
</trkpt>
<trkpt lat="47.701622" lon="10.94244">
<ele>832.121</ele>
<time>2020-09-11T13:38:26Z</time>
</trkpt>
<trkpt lat="47.701603" lon="10.942504">
<ele>832.45</ele>
<time>2020-09-11T13:38:27Z</time>
</trkpt>
<trkpt lat="47.701591" lon="10.942569">
<ele>832.628</ele>
<time>2020-09-11T13:38:28Z</time>
</trkpt>
<trkpt lat="47.701572" lon="10.942632">
<ele>833.034</ele>
<time>2020-09-11T13:38:29Z</time>
</trkpt>
<trkpt lat="47.701561" lon="10.942695">
<ele>833.384</ele>
<time>2020-09-11T13:38:30Z</time>
</trkpt>
<trkpt lat="47.701542" lon="10.942757">
<ele>833.641</ele>
<time>2020-09-11T13:38:31Z</time>
</trkpt>
<trkpt lat="47.701527" lon="10.942821">
<ele>833.837</ele>
<time>2020-09-11T13:38:32Z</time>
</trkpt>
<trkpt lat="47.701511" lon="10.942885">
<ele>833.972</ele>
<time>2020-09-11T13:38:33Z</time>
</trkpt>
<trkpt lat="47.7015" lon="10.942952">
<ele>834.05</ele>
<time>2020-09-11T13:38:34Z</time>
</trkpt>
<trkpt lat="47.701485" lon="10.94302">
<ele>834.101</ele>
<time>2020-09-11T13:38:35Z</time>
</trkpt>
<trkpt lat="47.701466" lon="10.94309">
<ele>834.124</ele>
<time>2020-09-11T13:38:36Z</time>
</trkpt>
<trkpt lat="47.70145" lon="10.94316">
<ele>834.124</ele>
<time>2020-09-11T13:38:37Z</time>
</trkpt>
<trkpt lat="47.701435" lon="10.943232">
<ele>834.372</ele>
<time>2020-09-11T13:38:38Z</time>
</trkpt>
<trkpt lat="47.701416" lon="10.943303">
<ele>834.545</ele>
<time>2020-09-11T13:38:39Z</time>
</trkpt>
<trkpt lat="47.701401" lon="10.943376">
<ele>834.722</ele>
<time>2020-09-11T13:38:40Z</time>
</trkpt>
<trkpt lat="47.701382" lon="10.94345">
<ele>834.862</ele>
<time>2020-09-11T13:38:41Z</time>
</trkpt>
<trkpt lat="47.701366" lon="10.943524">
<ele>834.968</ele>
<time>2020-09-11T13:38:42Z</time>
</trkpt>
<trkpt lat="47.701355" lon="10.9436">
<ele>835.044</ele>
<time>2020-09-11T13:38:43Z</time>
</trkpt>
<trkpt lat="47.701336" lon="10.943677">
<ele>835.092</ele>
<time>2020-09-11T13:38:44Z</time>
</trkpt>
<trkpt lat="47.701332" lon="10.943757">
<ele>835.115</ele>
<time>2020-09-11T13:38:45Z</time>
</trkpt>
<trkpt lat="47.701324" lon="10.94384">
<ele>835.115</ele>
<time>2020-09-11T13:38:46Z</time>
</trkpt>
<trkpt lat="47.701317" lon="10.943927">
<ele>834.839</ele>
<time>2020-09-11T13:38:47Z</time>
</trkpt>
<trkpt lat="47.701317" lon="10.944013">
<ele>834.622</ele>
<time>2020-09-11T13:38:48Z</time>
</trkpt>
<trkpt lat="47.701317" lon="10.944101">
<ele>834.477</ele>
<time>2020-09-11T13:38:49Z</time>
</trkpt>
<trkpt lat="47.701317" lon="10.94419">
<ele>834.326</ele>
<time>2020-09-11T13:38:50Z</time>
</trkpt>
<trkpt lat="47.701321" lon="10.944287">
<ele>833.929</ele>
<time>2020-09-11T13:38:51Z</time>
</trkpt>
<trkpt lat="47.701321" lon="10.944388">
<ele>833.661</ele>
<time>2020-09-11T13:38:52Z</time>
</trkpt>
<trkpt lat="47.701324" lon="10.944499">
<ele>833.152</ele>
<time>2020-09-11T13:38:53Z</time>
</trkpt>
<trkpt lat="47.701324" lon="10.944607">
<ele>832.454</ele>
<time>2020-09-11T13:38:54Z</time>
</trkpt>
<trkpt lat="47.701332" lon="10.944721">
<ele>831.818</ele>
<time>2020-09-11T13:38:55Z</time>
</trkpt>
<trkpt lat="47.701336" lon="10.944835">
<ele>831.195</ele>
<time>2020-09-11T13:38:56Z</time>
</trkpt>
<trkpt lat="47.701336" lon="10.944941">
<ele>830.454</ele>
<time>2020-09-11T13:38:57Z</time>
</trkpt>
<trkpt lat="47.701336" lon="10.945039">
<ele>829.947</ele>
<time>2020-09-11T13:38:58Z</time>
</trkpt>
<trkpt lat="47.701332" lon="10.945125">
<ele>829.588</ele>
<time>2020-09-11T13:38:59Z</time>
</trkpt>
<trkpt lat="47.701328" lon="10.945193">
<ele>829.265</ele>
<time>2020-09-11T13:39:00Z</time>
</trkpt>
<trkpt lat="47.701328" lon="10.945243">
<ele>829.057</ele>
<time>2020-09-11T13:39:01Z</time>
</trkpt>
<trkpt lat="47.701328" lon="10.945278">
<ele>828.923</ele>
<time>2020-09-11T13:39:02Z</time>
</trkpt>
<trkpt lat="47.701332" lon="10.945303">
<ele>828.841</ele>
<time>2020-09-11T13:39:03Z</time>
</trkpt>
<trkpt lat="47.701332" lon="10.945308">
<ele>828.81</ele>
<time>2020-09-11T13:39:04Z</time>
</trkpt>
<trkpt lat="47.701332" lon="10.945305">
<ele>828.811</ele>
<time>2020-09-11T13:39:05Z</time>
</trkpt>
<trkpt lat="47.701321" lon="10.945292">
<ele>828.81</ele>
<time>2020-09-11T13:45:21Z</time>
</trkpt>
<trkpt lat="47.701317" lon="10.945315">
<ele>828.81</ele>
<time>2020-09-11T13:45:22Z</time>
</trkpt>
<trkpt lat="47.701313" lon="10.945341">
<ele>828.81</ele>
<time>2020-09-11T13:45:23Z</time>
</trkpt>
<trkpt lat="47.701305" lon="10.94538">
<ele>828.81</ele>
<time>2020-09-11T13:45:24Z</time>
</trkpt>
<trkpt lat="47.701302" lon="10.945421">
<ele>828.81</ele>
<time>2020-09-11T13:45:25Z</time>
</trkpt>
<trkpt lat="47.70129" lon="10.945471">
<ele>828.81</ele>
<time>2020-09-11T13:45:26Z</time>
</trkpt>
<trkpt lat="47.701279" lon="10.945523">
<ele>828.81</ele>
<time>2020-09-11T13:45:27Z</time>
</trkpt>
<trkpt lat="47.701271" lon="10.94558">
<ele>828.81</ele>
<time>2020-09-11T13:45:28Z</time>
</trkpt>
<trkpt lat="47.701256" lon="10.945639">
<ele>828.81</ele>
<time>2020-09-11T13:45:29Z</time>
</trkpt>
<trkpt lat="47.701237" lon="10.945697">
<ele>828.81</ele>
<time>2020-09-11T13:45:30Z</time>
</trkpt>
<trkpt lat="47.701225" lon="10.945758">
<ele>828.81</ele>
<time>2020-09-11T13:45:31Z</time>
</trkpt>
<trkpt lat="47.701206" lon="10.945819">
<ele>828.81</ele>
<time>2020-09-11T13:45:32Z</time>
</trkpt>
<trkpt lat="47.701187" lon="10.945877">
<ele>828.81</ele>
<time>2020-09-11T13:45:33Z</time>
</trkpt>
<trkpt lat="47.701172" lon="10.945936">
<ele>828.81</ele>
<time>2020-09-11T13:45:34Z</time>
</trkpt>
<trkpt lat="47.701149" lon="10.945996">
<ele>828.81</ele>
<time>2020-09-11T13:45:35Z</time>
</trkpt>
<trkpt lat="47.70113" lon="10.946055">
<ele>828.81</ele>
<time>2020-09-11T13:45:36Z</time>
</trkpt>
<trkpt lat="47.701107" lon="10.946114">
<ele>828.81</ele>
<time>2020-09-11T13:45:37Z</time>
</trkpt>
<trkpt lat="47.701084" lon="10.946172">
<ele>828.81</ele>
<time>2020-09-11T13:45:38Z</time>
</trkpt>
<trkpt lat="47.701061" lon="10.946232">
<ele>828.81</ele>
<time>2020-09-11T13:45:39Z</time>
</trkpt>
<trkpt lat="47.701038" lon="10.946288">
<ele>828.81</ele>
<time>2020-09-11T13:45:40Z</time>
</trkpt>
<trkpt lat="47.701012" lon="10.946344">
<ele>828.81</ele>
<time>2020-09-11T13:45:41Z</time>
</trkpt>
<trkpt lat="47.700985" lon="10.946404">
<ele>828.81</ele>
<time>2020-09-11T13:45:42Z</time>
</trkpt>
<trkpt lat="47.700962" lon="10.94646">
<ele>828.81</ele>
<time>2020-09-11T13:45:43Z</time>
</trkpt>
<trkpt lat="47.700935" lon="10.946517">
<ele>828.81</ele>
<time>2020-09-11T13:45:44Z</time>
</trkpt>
<trkpt lat="47.700901" lon="10.946571">
<ele>828.81</ele>
<time>2020-09-11T13:45:45Z</time>
</trkpt>
<trkpt lat="47.700871" lon="10.946623">
<ele>828.81</ele>
<time>2020-09-11T13:45:46Z</time>
</trkpt>
<trkpt lat="47.700836" lon="10.946671">
<ele>828.81</ele>
<time>2020-09-11T13:45:47Z</time>
</trkpt>
<trkpt lat="47.700806" lon="10.94672">
<ele>828.81</ele>
<time>2020-09-11T13:45:48Z</time>
</trkpt>
<trkpt lat="47.700768" lon="10.946768">
<ele>828.81</ele>
<time>2020-09-11T13:45:49Z</time>
</trkpt>
<trkpt lat="47.700733" lon="10.946816">
<ele>828.81</ele>
<time>2020-09-11T13:45:50Z</time>
</trkpt>
<trkpt lat="47.700695" lon="10.946862">
<ele>829.066</ele>
<time>2020-09-11T13:45:51Z</time>
</trkpt>
<trkpt lat="47.700661" lon="10.946906">
<ele>829.262</ele>
<time>2020-09-11T13:45:52Z</time>
</trkpt>
<trkpt lat="47.700623" lon="10.94695">
<ele>829.419</ele>
<time>2020-09-11T13:45:53Z</time>
</trkpt>
<trkpt lat="47.700588" lon="10.94699">
<ele>829.527</ele>
<time>2020-09-11T13:45:54Z</time>
</trkpt>
<trkpt lat="47.700546" lon="10.94703">
<ele>829.641</ele>
<time>2020-09-11T13:45:55Z</time>
</trkpt>
<trkpt lat="47.700508" lon="10.94707">
<ele>829.723</ele>
<time>2020-09-11T13:45:56Z</time>
</trkpt>
<trkpt lat="47.70047" lon="10.947109">
<ele>829.775</ele>
<time>2020-09-11T13:45:57Z</time>
</trkpt>
<trkpt lat="47.700428" lon="10.947149">
<ele>829.801</ele>
<time>2020-09-11T13:45:58Z</time>
</trkpt>
<trkpt lat="47.70039" lon="10.947185">
<ele>829.801</ele>
<time>2020-09-11T13:45:59Z</time>
</trkpt>
<trkpt lat="47.700344" lon="10.947216">
<ele>829.801</ele>
<time>2020-09-11T13:46:00Z</time>
</trkpt>
<trkpt lat="47.700298" lon="10.947248">
<ele>829.801</ele>
<time>2020-09-11T13:46:01Z</time>
</trkpt>
<trkpt lat="47.700253" lon="10.94728">
<ele>829.801</ele>
<time>2020-09-11T13:46:02Z</time>
</trkpt>
<trkpt lat="47.700207" lon="10.947309">
<ele>830.023</ele>
<time>2020-09-11T13:46:03Z</time>
</trkpt>
<trkpt lat="47.700161" lon="10.947335">
<ele>830.181</ele>
<time>2020-09-11T13:46:04Z</time>
</trkpt>
<trkpt lat="47.700115" lon="10.947361">
<ele>830.34</ele>
<time>2020-09-11T13:46:05Z</time>
</trkpt>
<trkpt lat="47.700069" lon="10.947388">
<ele>830.466</ele>
<time>2020-09-11T13:46:06Z</time>
</trkpt>
<trkpt lat="47.700027" lon="10.947412">
<ele>830.564</ele>
<time>2020-09-11T13:46:07Z</time>
</trkpt>
<trkpt lat="47.699982" lon="10.947434">
<ele>830.633</ele>
<time>2020-09-11T13:46:08Z</time>
</trkpt>
<trkpt lat="47.699936" lon="10.947461">
<ele>830.679</ele>
<time>2020-09-11T13:46:09Z</time>
</trkpt>
<trkpt lat="47.699894" lon="10.947491">
<ele>830.701</ele>
<time>2020-09-11T13:46:10Z</time>
</trkpt>
<trkpt lat="47.699848" lon="10.947516">
<ele>830.701</ele>
<time>2020-09-11T13:46:11Z</time>
</trkpt>
<trkpt lat="47.699802" lon="10.947543">
<ele>830.701</ele>
<time>2020-09-11T13:46:12Z</time>
</trkpt>
<trkpt lat="47.69976" lon="10.947575">
<ele>830.701</ele>
<time>2020-09-11T13:46:13Z</time>
</trkpt>
<trkpt lat="47.699715" lon="10.947606">
<ele>830.702</ele>
<time>2020-09-11T13:46:14Z</time>
</trkpt>
<trkpt lat="47.699673" lon="10.947639">
<ele>830.701</ele>
<time>2020-09-11T13:46:15Z</time>
</trkpt>
<trkpt lat="47.699627" lon="10.947675">
<ele>830.702</ele>
<time>2020-09-11T13:46:16Z</time>
</trkpt>
<trkpt lat="47.699577" lon="10.94771">
<ele>830.993</ele>
<time>2020-09-11T13:46:17Z</time>
</trkpt>
<trkpt lat="47.699535" lon="10.947746">
<ele>831.215</ele>
<time>2020-09-11T13:46:18Z</time>
</trkpt>
<trkpt lat="47.699486" lon="10.947785">
<ele>831.383</ele>
<time>2020-09-11T13:46:19Z</time>
</trkpt>
<trkpt lat="47.699444" lon="10.947825">
<ele>831.505</ele>
<time>2020-09-11T13:46:20Z</time>
</trkpt>
<trkpt lat="47.699406" lon="10.947866">
<ele>831.589</ele>
<time>2020-09-11T13:46:21Z</time>
</trkpt>
<trkpt lat="47.699364" lon="10.947908">
<ele>831.64</ele>
<time>2020-09-11T13:46:22Z</time>
</trkpt>
<trkpt lat="47.699322" lon="10.947953">
<ele>831.669</ele>
<time>2020-09-11T13:46:23Z</time>
</trkpt>
<trkpt lat="47.699284" lon="10.948">
<ele>831.692</ele>
<time>2020-09-11T13:46:24Z</time>
</trkpt>
<trkpt lat="47.699245" lon="10.948047">
<ele>831.692</ele>
<time>2020-09-11T13:46:25Z</time>
</trkpt>
<trkpt lat="47.699203" lon="10.948096">
<ele>831.692</ele>
<time>2020-09-11T13:46:26Z</time>
</trkpt>
<trkpt lat="47.699162" lon="10.948147">
<ele>831.955</ele>
<time>2020-09-11T13:46:27Z</time>
</trkpt>
<trkpt lat="47.699123" lon="10.948198">
<ele>832.16</ele>
<time>2020-09-11T13:46:28Z</time>
</trkpt>
<trkpt lat="47.699085" lon="10.948254">
<ele>832.31</ele>
<time>2020-09-11T13:46:29Z</time>
</trkpt>
<trkpt lat="47.699051" lon="10.948308">
<ele>832.426</ele>
<time>2020-09-11T13:46:30Z</time>
</trkpt>
<trkpt lat="47.699009" lon="10.948363">
<ele>832.502</ele>
<time>2020-09-11T13:46:31Z</time>
</trkpt>
<trkpt lat="47.698971" lon="10.948419">
<ele>832.55</ele>
<time>2020-09-11T13:46:32Z</time>
</trkpt>
<trkpt lat="47.698933" lon="10.948477">
<ele>832.572</ele>
<time>2020-09-11T13:46:33Z</time>
</trkpt>
<trkpt lat="47.698895" lon="10.948534">
<ele>832.593</ele>
<time>2020-09-11T13:46:34Z</time>
</trkpt>
<trkpt lat="47.69886" lon="10.948592">
<ele>832.593</ele>
<time>2020-09-11T13:46:35Z</time>
</trkpt>
<trkpt lat="47.698826" lon="10.948651">
<ele>832.593</ele>
<time>2020-09-11T13:46:36Z</time>
</trkpt>
<trkpt lat="47.698792" lon="10.948714">
<ele>832.593</ele>
<time>2020-09-11T13:46:37Z</time>
</trkpt>
<trkpt lat="47.698761" lon="10.948779">
<ele>832.593</ele>
<time>2020-09-11T13:46:38Z</time>
</trkpt>
<trkpt lat="47.698727" lon="10.948847">
<ele>832.593</ele>
<time>2020-09-11T13:46:39Z</time>
</trkpt>
<trkpt lat="47.698696" lon="10.948912">
<ele>832.593</ele>
<time>2020-09-11T13:46:40Z</time>
</trkpt>
<trkpt lat="47.698666" lon="10.94898">
<ele>832.593</ele>
<time>2020-09-11T13:46:41Z</time>
</trkpt>
<trkpt lat="47.698639" lon="10.949048">
<ele>832.593</ele>
<time>2020-09-11T13:46:42Z</time>
</trkpt>
<trkpt lat="47.698608" lon="10.949119">
<ele>832.593</ele>
<time>2020-09-11T13:46:43Z</time>
</trkpt>
<trkpt lat="47.698582" lon="10.94919">
<ele>832.593</ele>
<time>2020-09-11T13:46:44Z</time>
</trkpt>
<trkpt lat="47.698555" lon="10.949262">
<ele>832.593</ele>
<time>2020-09-11T13:46:45Z</time>
</trkpt>
<trkpt lat="47.698528" lon="10.949335">
<ele>832.593</ele>
<time>2020-09-11T13:46:46Z</time>
</trkpt>
<trkpt lat="47.698502" lon="10.949408">
<ele>832.593</ele>
<time>2020-09-11T13:46:47Z</time>
</trkpt>
<trkpt lat="47.698479" lon="10.949481">
<ele>832.873</ele>
<time>2020-09-11T13:46:48Z</time>
</trkpt>
<trkpt lat="47.698456" lon="10.949556">
<ele>833.087</ele>
<time>2020-09-11T13:46:49Z</time>
</trkpt>
<trkpt lat="47.698433" lon="10.949632">
<ele>833.252</ele>
<time>2020-09-11T13:46:50Z</time>
</trkpt>
<trkpt lat="47.69841" lon="10.94971">
<ele>833.372</ele>
<time>2020-09-11T13:46:51Z</time>
</trkpt>
<trkpt lat="47.698395" lon="10.949789">
<ele>833.456</ele>
<time>2020-09-11T13:46:52Z</time>
</trkpt>
<trkpt lat="47.698372" lon="10.949868">
<ele>833.513</ele>
<time>2020-09-11T13:46:53Z</time>
</trkpt>
<trkpt lat="47.69836" lon="10.94995">
<ele>833.556</ele>
<time>2020-09-11T13:46:54Z</time>
</trkpt>
<trkpt lat="47.698341" lon="10.950032">
<ele>833.584</ele>
<time>2020-09-11T13:46:55Z</time>
</trkpt>
<trkpt lat="47.698322" lon="10.950111">
<ele>833.583</ele>
<time>2020-09-11T13:46:56Z</time>
</trkpt>
<trkpt lat="47.698303" lon="10.950191">
<ele>833.584</ele>
<time>2020-09-11T13:46:57Z</time>
</trkpt>
<trkpt lat="47.698288" lon="10.950272">
<ele>833.583</ele>
<time>2020-09-11T13:46:58Z</time>
</trkpt>
<trkpt lat="47.698273" lon="10.950353">
<ele>833.583</ele>
<time>2020-09-11T13:46:59Z</time>
</trkpt>
<trkpt lat="47.698254" lon="10.950434">
<ele>833.583</ele>
<time>2020-09-11T13:47:00Z</time>
</trkpt>
<trkpt lat="47.698238" lon="10.950514">
<ele>833.583</ele>
<time>2020-09-11T13:47:01Z</time>
</trkpt>
<trkpt lat="47.698219" lon="10.950591">
<ele>833.583</ele>
<time>2020-09-11T13:47:02Z</time>
</trkpt>
<trkpt lat="47.698204" lon="10.950668">
<ele>833.584</ele>
<time>2020-09-11T13:47:03Z</time>
</trkpt>
<trkpt lat="47.698185" lon="10.950747">
<ele>833.584</ele>
<time>2020-09-11T13:47:04Z</time>
</trkpt>
<trkpt lat="47.698166" lon="10.950824">
<ele>833.584</ele>
<time>2020-09-11T13:47:05Z</time>
</trkpt>
<trkpt lat="47.698151" lon="10.950902">
<ele>833.878</ele>
<time>2020-09-11T13:47:06Z</time>
</trkpt>
<trkpt lat="47.698135" lon="10.950978">
<ele>834.104</ele>
<time>2020-09-11T13:47:07Z</time>
</trkpt>
<trkpt lat="47.698116" lon="10.951055">
<ele>834.277</ele>
<time>2020-09-11T13:47:08Z</time>
</trkpt>
<trkpt lat="47.698101" lon="10.951134">
<ele>834.404</ele>
<time>2020-09-11T13:47:09Z</time>
</trkpt>
<trkpt lat="47.698086" lon="10.951214">
<ele>834.492</ele>
<time>2020-09-11T13:47:10Z</time>
</trkpt>
<trkpt lat="47.698071" lon="10.951291">
<ele>834.546</ele>
<time>2020-09-11T13:47:11Z</time>
</trkpt>
<trkpt lat="47.698048" lon="10.951368">
<ele>834.57</ele>
<time>2020-09-11T13:47:12Z</time>
</trkpt>
<trkpt lat="47.698032" lon="10.951445">
<ele>834.574</ele>
<time>2020-09-11T13:47:13Z</time>
</trkpt>
<trkpt lat="47.698013" lon="10.95152">
<ele>834.574</ele>
<time>2020-09-11T13:47:14Z</time>
</trkpt>
<trkpt lat="47.697998" lon="10.951597">
<ele>834.574</ele>
<time>2020-09-11T13:47:15Z</time>
</trkpt>
<trkpt lat="47.697979" lon="10.951673">
<ele>834.574</ele>
<time>2020-09-11T13:47:16Z</time>
</trkpt>
<trkpt lat="47.697964" lon="10.95175">
<ele>834.859</ele>
<time>2020-09-11T13:47:17Z</time>
</trkpt>
<trkpt lat="47.697945" lon="10.951827">
<ele>835.079</ele>
<time>2020-09-11T13:47:18Z</time>
</trkpt>
<trkpt lat="47.697922" lon="10.9519">
<ele>835.249</ele>
<time>2020-09-11T13:47:19Z</time>
</trkpt>
<trkpt lat="47.697899" lon="10.951972">
<ele>835.374</ele>
<time>2020-09-11T13:47:20Z</time>
</trkpt>
<trkpt lat="47.697876" lon="10.952045">
<ele>835.46</ele>
<time>2020-09-11T13:47:21Z</time>
</trkpt>
<trkpt lat="47.697849" lon="10.952119">
<ele>835.513</ele>
<time>2020-09-11T13:47:22Z</time>
</trkpt>
<trkpt lat="47.697819" lon="10.95219">
<ele>835.542</ele>
<time>2020-09-11T13:47:23Z</time>
</trkpt>
<trkpt lat="47.697792" lon="10.952265">
<ele>835.565</ele>
<time>2020-09-11T13:47:24Z</time>
</trkpt>
<trkpt lat="47.697758" lon="10.95234">
<ele>835.565</ele>
<time>2020-09-11T13:47:25Z</time>
</trkpt>
<trkpt lat="47.697723" lon="10.952414">
<ele>835.565</ele>
<time>2020-09-11T13:47:26Z</time>
</trkpt>
<trkpt lat="47.697685" lon="10.952483">
<ele>835.565</ele>
<time>2020-09-11T13:47:27Z</time>
</trkpt>
<trkpt lat="47.697651" lon="10.95255">
<ele>835.565</ele>
<time>2020-09-11T13:47:28Z</time>
</trkpt>
<trkpt lat="47.697609" lon="10.952613">
<ele>835.565</ele>
<time>2020-09-11T13:47:29Z</time>
</trkpt>
<trkpt lat="47.697567" lon="10.952676">
<ele>835.565</ele>
<time>2020-09-11T13:47:30Z</time>
</trkpt>
<trkpt lat="47.697525" lon="10.952735">
<ele>835.565</ele>
<time>2020-09-11T13:47:31Z</time>
</trkpt>
<trkpt lat="47.697483" lon="10.952793">
<ele>835.565</ele>
<time>2020-09-11T13:47:32Z</time>
</trkpt>
<trkpt lat="47.697437" lon="10.952848">
<ele>835.565</ele>
<time>2020-09-11T13:47:33Z</time>
</trkpt>
<trkpt lat="47.697392" lon="10.952905">
<ele>835.565</ele>
<time>2020-09-11T13:47:34Z</time>
</trkpt>
<trkpt lat="47.697342" lon="10.952958">
<ele>835.565</ele>
<time>2020-09-11T13:47:35Z</time>
</trkpt>
<trkpt lat="47.697292" lon="10.953012">
<ele>835.565</ele>
<time>2020-09-11T13:47:36Z</time>
</trkpt>
<trkpt lat="47.697247" lon="10.953063">
<ele>835.565</ele>
<time>2020-09-11T13:47:37Z</time>
</trkpt>
<trkpt lat="47.697197" lon="10.953114">
<ele>835.565</ele>
<time>2020-09-11T13:47:38Z</time>
</trkpt>
<trkpt lat="47.697147" lon="10.953164">
<ele>835.565</ele>
<time>2020-09-11T13:47:39Z</time>
</trkpt>
<trkpt lat="47.697102" lon="10.953214">
<ele>835.565</ele>
<time>2020-09-11T13:47:40Z</time>
</trkpt>
<trkpt lat="47.697056" lon="10.953267">
<ele>835.565</ele>
<time>2020-09-11T13:47:41Z</time>
</trkpt>
<trkpt lat="47.697002" lon="10.953319">
<ele>835.565</ele>
<time>2020-09-11T13:47:42Z</time>
</trkpt>
<trkpt lat="47.696957" lon="10.95337">
<ele>835.565</ele>
<time>2020-09-11T13:47:43Z</time>
</trkpt>
<trkpt lat="47.696907" lon="10.953422">
<ele>835.565</ele>
<time>2020-09-11T13:47:44Z</time>
</trkpt>
<trkpt lat="47.696861" lon="10.953474">
<ele>835.565</ele>
<time>2020-09-11T13:47:45Z</time>
</trkpt>
<trkpt lat="47.696815" lon="10.953523">
<ele>835.565</ele>
<time>2020-09-11T13:47:46Z</time>
</trkpt>
<trkpt lat="47.696774" lon="10.953577">
<ele>835.825</ele>
<time>2020-09-11T13:47:47Z</time>
</trkpt>
<trkpt lat="47.696732" lon="10.953629">
<ele>836.025</ele>
<time>2020-09-11T13:47:48Z</time>
</trkpt>
<trkpt lat="47.696686" lon="10.953686">
<ele>836.179</ele>
<time>2020-09-11T13:47:49Z</time>
</trkpt>
<trkpt lat="47.696644" lon="10.95374">
<ele>836.291</ele>
<time>2020-09-11T13:47:50Z</time>
</trkpt>
<trkpt lat="47.696606" lon="10.9538">
<ele>836.372</ele>
<time>2020-09-11T13:47:51Z</time>
</trkpt>
<trkpt lat="47.696564" lon="10.953861">
<ele>836.421</ele>
<time>2020-09-11T13:47:52Z</time>
</trkpt>
<trkpt lat="47.696526" lon="10.953923">
<ele>836.445</ele>
<time>2020-09-11T13:47:53Z</time>
</trkpt>
<trkpt lat="47.696491" lon="10.953985">
<ele>836.466</ele>
<time>2020-09-11T13:47:54Z</time>
</trkpt>
<trkpt lat="47.696457" lon="10.954048">
<ele>836.467</ele>
<time>2020-09-11T13:47:55Z</time>
</trkpt>
<trkpt lat="47.696423" lon="10.954115">
<ele>836.466</ele>
<time>2020-09-11T13:47:56Z</time>
</trkpt>
<trkpt lat="47.696392" lon="10.954184">
<ele>836.752</ele>
<time>2020-09-11T13:47:57Z</time>
</trkpt>
<trkpt lat="47.696362" lon="10.954253">
<ele>836.975</ele>
<time>2020-09-11T13:47:58Z</time>
</trkpt>
<trkpt lat="47.696335" lon="10.954322">
<ele>837.143</ele>
<time>2020-09-11T13:47:59Z</time>
</trkpt>
<trkpt lat="47.696304" lon="10.954393">
<ele>837.268</ele>
<time>2020-09-11T13:48:00Z</time>
</trkpt>
<trkpt lat="47.696278" lon="10.954463">
<ele>837.352</ele>
<time>2020-09-11T13:48:01Z</time>
</trkpt>
<trkpt lat="47.696251" lon="10.954538">
<ele>837.41</ele>
<time>2020-09-11T13:48:02Z</time>
</trkpt>
<trkpt lat="47.69622" lon="10.954612">
<ele>837.435</ele>
<time>2020-09-11T13:48:03Z</time>
</trkpt>
<trkpt lat="47.696198" lon="10.954683">
<ele>837.458</ele>
<time>2020-09-11T13:48:04Z</time>
</trkpt>
<trkpt lat="47.696178" lon="10.954754">
<ele>837.458</ele>
<time>2020-09-11T13:48:05Z</time>
</trkpt>
<trkpt lat="47.696152" lon="10.95482">
<ele>837.458</ele>
<time>2020-09-11T13:48:06Z</time>
</trkpt>
<trkpt lat="47.696133" lon="10.954885">
<ele>837.737</ele>
<time>2020-09-11T13:48:07Z</time>
</trkpt>
<trkpt lat="47.696114" lon="10.954951">
<ele>837.955</ele>
<time>2020-09-11T13:48:08Z</time>
</trkpt>
<trkpt lat="47.696091" lon="10.955014">
<ele>838.099</ele>
<time>2020-09-11T13:48:09Z</time>
</trkpt>
<trkpt lat="47.696075" lon="10.95508">
<ele>838.461</ele>
<time>2020-09-11T13:48:10Z</time>
</trkpt>
<trkpt lat="47.696056" lon="10.955144">
<ele>838.742</ele>
<time>2020-09-11T13:48:11Z</time>
</trkpt>
<trkpt lat="47.696033" lon="10.955209">
<ele>838.955</ele>
<time>2020-09-11T13:48:12Z</time>
</trkpt>
<trkpt lat="47.696014" lon="10.955268">
<ele>839.092</ele>
<time>2020-09-11T13:48:13Z</time>
</trkpt>
<trkpt lat="47.695995" lon="10.955328">
<ele>839.196</ele>
<time>2020-09-11T13:48:14Z</time>
</trkpt>
<trkpt lat="47.695976" lon="10.955389">
<ele>839.512</ele>
<time>2020-09-11T13:48:15Z</time>
</trkpt>
<trkpt lat="47.695957" lon="10.955448">
<ele>839.762</ele>
<time>2020-09-11T13:48:16Z</time>
</trkpt>
<trkpt lat="47.695942" lon="10.955504">
<ele>839.954</ele>
<time>2020-09-11T13:48:17Z</time>
</trkpt>
<trkpt lat="47.695923" lon="10.955562">
<ele>840.087</ele>
<time>2020-09-11T13:48:18Z</time>
</trkpt>
<trkpt lat="47.695908" lon="10.95562">
<ele>840.191</ele>
<time>2020-09-11T13:48:19Z</time>
</trkpt>
<trkpt lat="47.695892" lon="10.95568">
<ele>840.267</ele>
<time>2020-09-11T13:48:20Z</time>
</trkpt>
<trkpt lat="47.695873" lon="10.95574">
<ele>840.318</ele>
<time>2020-09-11T13:48:21Z</time>
</trkpt>
<trkpt lat="47.695858" lon="10.955798">
<ele>840.341</ele>
<time>2020-09-11T13:48:22Z</time>
</trkpt>
<trkpt lat="47.695839" lon="10.955858">
<ele>840.341</ele>
<time>2020-09-11T13:48:23Z</time>
</trkpt>
<trkpt lat="47.69582" lon="10.955916">
<ele>840.562</ele>
<time>2020-09-11T13:48:24Z</time>
</trkpt>
<trkpt lat="47.695801" lon="10.955978">
<ele>840.774</ele>
<time>2020-09-11T13:48:25Z</time>
</trkpt>
<trkpt lat="47.695786" lon="10.95604">
<ele>840.945</ele>
<time>2020-09-11T13:48:26Z</time>
</trkpt>
<trkpt lat="47.695763" lon="10.956101">
<ele>841.082</ele>
<time>2020-09-11T13:48:27Z</time>
</trkpt>
<trkpt lat="47.695744" lon="10.956163">
<ele>841.186</ele>
<time>2020-09-11T13:48:28Z</time>
</trkpt>
<trkpt lat="47.695728" lon="10.956229">
<ele>841.262</ele>
<time>2020-09-11T13:48:29Z</time>
</trkpt>
<trkpt lat="47.695705" lon="10.956297">
<ele>841.311</ele>
<time>2020-09-11T13:48:30Z</time>
</trkpt>
<trkpt lat="47.695686" lon="10.956367">
<ele>841.333</ele>
<time>2020-09-11T13:48:31Z</time>
</trkpt>
<trkpt lat="47.695663" lon="10.956438">
<ele>841.333</ele>
<time>2020-09-11T13:48:32Z</time>
</trkpt>
<trkpt lat="47.695641" lon="10.956514">
<ele>841.333</ele>
<time>2020-09-11T13:48:33Z</time>
</trkpt>
<trkpt lat="47.695621" lon="10.956595">
<ele>841.104</ele>
<time>2020-09-11T13:48:34Z</time>
</trkpt>
<trkpt lat="47.695599" lon="10.956678">
<ele>840.906</ele>
<time>2020-09-11T13:48:35Z</time>
</trkpt>
<trkpt lat="47.69558" lon="10.956765">
<ele>840.492</ele>
<time>2020-09-11T13:48:36Z</time>
</trkpt>
<trkpt lat="47.69556" lon="10.956854">
<ele>840.166</ele>
<time>2020-09-11T13:48:37Z</time>
</trkpt>
<trkpt lat="47.695538" lon="10.956945">
<ele>839.955</ele>
<time>2020-09-11T13:48:38Z</time>
</trkpt>
<trkpt lat="47.695518" lon="10.957035">
<ele>839.47</ele>
<time>2020-09-11T13:48:39Z</time>
</trkpt>
<trkpt lat="47.695499" lon="10.957129">
<ele>839.097</ele>
<time>2020-09-11T13:48:40Z</time>
</trkpt>
<trkpt lat="47.695477" lon="10.957223">
<ele>838.869</ele>
<time>2020-09-11T13:48:41Z</time>
</trkpt>
<trkpt lat="47.695457" lon="10.95732">
<ele>838.374</ele>
<time>2020-09-11T13:48:42Z</time>
</trkpt>
<trkpt lat="47.695442" lon="10.957413">
<ele>838.072</ele>
<time>2020-09-11T13:48:43Z</time>
</trkpt>
<trkpt lat="47.695427" lon="10.957505">
<ele>837.862</ele>
<time>2020-09-11T13:48:44Z</time>
</trkpt>
<trkpt lat="47.695412" lon="10.957595">
<ele>837.397</ele>
<time>2020-09-11T13:48:45Z</time>
</trkpt>
<trkpt lat="47.6954" lon="10.957688">
<ele>837.041</ele>
<time>2020-09-11T13:48:46Z</time>
</trkpt>
<trkpt lat="47.695385" lon="10.957784">
<ele>836.82</ele>
<time>2020-09-11T13:48:47Z</time>
</trkpt>
<trkpt lat="47.69537" lon="10.957885">
<ele>836.368</ele>
<time>2020-09-11T13:48:48Z</time>
</trkpt>
<trkpt lat="47.695358" lon="10.957992">
<ele>836.059</ele>
<time>2020-09-11T13:48:49Z</time>
</trkpt>
<trkpt lat="47.695347" lon="10.958102">
<ele>835.559</ele>
<time>2020-09-11T13:48:50Z</time>
</trkpt>
<trkpt lat="47.695335" lon="10.958213">
<ele>835.211</ele>
<time>2020-09-11T13:48:51Z</time>
</trkpt>
<trkpt lat="47.69532" lon="10.95833">
<ele>834.645</ele>
<time>2020-09-11T13:48:52Z</time>
</trkpt>
<trkpt lat="47.695309" lon="10.958448">
<ele>834.281</ele>
<time>2020-09-11T13:48:53Z</time>
</trkpt>
<trkpt lat="47.695301" lon="10.958568">
<ele>833.737</ele>
<time>2020-09-11T13:48:54Z</time>
</trkpt>
<trkpt lat="47.695293" lon="10.958687">
<ele>833.311</ele>
<time>2020-09-11T13:48:55Z</time>
</trkpt>
<trkpt lat="47.695286" lon="10.958808">
<ele>832.77</ele>
<time>2020-09-11T13:48:56Z</time>
</trkpt>
<trkpt lat="47.695282" lon="10.958928">
<ele>832.135</ele>
<time>2020-09-11T13:48:57Z</time>
</trkpt>
<trkpt lat="47.695282" lon="10.959048">
<ele>831.361</ele>
<time>2020-09-11T13:48:58Z</time>
</trkpt>
<trkpt lat="47.695278" lon="10.959165">
<ele>830.829</ele>
<time>2020-09-11T13:48:59Z</time>
</trkpt>
<trkpt lat="47.695278" lon="10.959284">
<ele>830.164</ele>
<time>2020-09-11T13:49:00Z</time>
</trkpt>
<trkpt lat="47.695282" lon="10.959398">
<ele>829.408</ele>
<time>2020-09-11T13:49:01Z</time>
</trkpt>
<trkpt lat="47.695286" lon="10.959515">
<ele>828.424</ele>
<time>2020-09-11T13:49:02Z</time>
</trkpt>
<trkpt lat="47.695286" lon="10.95963">
<ele>827.484</ele>
<time>2020-09-11T13:49:03Z</time>
</trkpt>
<trkpt lat="47.695286" lon="10.959744">
<ele>826.773</ele>
<time>2020-09-11T13:49:04Z</time>
</trkpt>
<trkpt lat="47.69529" lon="10.959862">
<ele>825.945</ele>
<time>2020-09-11T13:49:05Z</time>
</trkpt>
<trkpt lat="47.695297" lon="10.959982">
<ele>825.097</ele>
<time>2020-09-11T13:49:06Z</time>
</trkpt>
<trkpt lat="47.695305" lon="10.960103">
<ele>824.162</ele>
<time>2020-09-11T13:49:07Z</time>
</trkpt>
<trkpt lat="47.695309" lon="10.960217">
<ele>823.2</ele>
<time>2020-09-11T13:49:08Z</time>
</trkpt>
<trkpt lat="47.695316" lon="10.960327">
<ele>822.228</ele>
<time>2020-09-11T13:49:09Z</time>
</trkpt>
<trkpt lat="47.695328" lon="10.960425">
<ele>821.261</ele>
<time>2020-09-11T13:49:10Z</time>
</trkpt>
<trkpt lat="47.695335" lon="10.960511">
<ele>820.285</ele>
<time>2020-09-11T13:49:11Z</time>
</trkpt>
<trkpt lat="47.695347" lon="10.960585">
<ele>819.282</ele>
<time>2020-09-11T13:49:12Z</time>
</trkpt>
<trkpt lat="47.695374" lon="10.960649">
<ele>818.584</ele>
<time>2020-09-11T13:49:13Z</time>
</trkpt>
<trkpt lat="47.695408" lon="10.960709">
<ele>817.823</ele>
<time>2020-09-11T13:49:14Z</time>
</trkpt>
<trkpt lat="47.69545" lon="10.960752">
<ele>816.99</ele>
<time>2020-09-11T13:49:15Z</time>
</trkpt>
<trkpt lat="47.695492" lon="10.96079">
<ele>816.391</ele>
<time>2020-09-11T13:49:17Z</time>
</trkpt>
<trkpt lat="47.695568" lon="10.960876">
<ele>815.189</ele>
<time>2020-09-11T13:49:18Z</time>
</trkpt>
<trkpt lat="47.695606" lon="10.960928">
<ele>814.539</ele>
<time>2020-09-11T13:49:19Z</time>
</trkpt>
<trkpt lat="47.695644" lon="10.960994">
<ele>814.047</ele>
<time>2020-09-11T13:49:20Z</time>
</trkpt>
<trkpt lat="47.695683" lon="10.961062">
<ele>813.749</ele>
<time>2020-09-11T13:49:21Z</time>
</trkpt>
<trkpt lat="47.695721" lon="10.961134">
<ele>813.246</ele>
<time>2020-09-11T13:49:22Z</time>
</trkpt>
<trkpt lat="47.695759" lon="10.961205">
<ele>812.913</ele>
<time>2020-09-11T13:49:23Z</time>
</trkpt>
<trkpt lat="47.695793" lon="10.961267">
<ele>812.386</ele>
<time>2020-09-11T13:49:24Z</time>
</trkpt>
<trkpt lat="47.695827" lon="10.961327">
<ele>811.959</ele>
<time>2020-09-11T13:49:25Z</time>
</trkpt>
<trkpt lat="47.695866" lon="10.961381">
<ele>811.682</ele>
<time>2020-09-11T13:49:26Z</time>
</trkpt>
<trkpt lat="47.695904" lon="10.96144">
<ele>811.234</ele>
<time>2020-09-11T13:49:27Z</time>
</trkpt>
<trkpt lat="47.695934" lon="10.961503">
<ele>810.932</ele>
<time>2020-09-11T13:49:28Z</time>
</trkpt>
<trkpt lat="47.695972" lon="10.961568">
<ele>810.453</ele>
<time>2020-09-11T13:49:29Z</time>
</trkpt>
<trkpt lat="47.696003" lon="10.961633">
<ele>809.818</ele>
<time>2020-09-11T13:49:30Z</time>
</trkpt>
<trkpt lat="47.69603" lon="10.961698">
<ele>809.309</ele>
<time>2020-09-11T13:49:31Z</time>
</trkpt>
<trkpt lat="47.696056" lon="10.961768">
<ele>808.914</ele>
<time>2020-09-11T13:49:32Z</time>
</trkpt>
<trkpt lat="47.696087" lon="10.961844">
<ele>808.397</ele>
<time>2020-09-11T13:49:33Z</time>
</trkpt>
<trkpt lat="47.69611" lon="10.961922">
<ele>808.007</ele>
<time>2020-09-11T13:49:34Z</time>
</trkpt>
<trkpt lat="47.696125" lon="10.961988">
<ele>807.678</ele>
<time>2020-09-11T13:49:35Z</time>
</trkpt>
<trkpt lat="47.69614" lon="10.962045">
<ele>807.461</ele>
<time>2020-09-11T13:49:36Z</time>
</trkpt>
<trkpt lat="47.696148" lon="10.962098">
<ele>807.086</ele>
<time>2020-09-11T13:49:37Z</time>
</trkpt>
<trkpt lat="47.696148" lon="10.962148">
<ele>806.804</ele>
<time>2020-09-11T13:49:38Z</time>
</trkpt>
<trkpt lat="47.696152" lon="10.962192">
<ele>806.59</ele>
<time>2020-09-11T13:49:39Z</time>
</trkpt>
<trkpt lat="47.696144" lon="10.962214">
<ele>806.434</ele>
<time>2020-09-11T13:49:40Z</time>
</trkpt>
<trkpt lat="47.696129" lon="10.962223">
<ele>806.277</ele>
<time>2020-09-11T13:49:41Z</time>
</trkpt>
<trkpt lat="47.69611" lon="10.96223">
<ele>806.218</ele>
<time>2020-09-11T13:49:42Z</time>
</trkpt>
<trkpt lat="47.696087" lon="10.962236">
<ele>806.18</ele>
<time>2020-09-11T13:49:43Z</time>
</trkpt>
<trkpt lat="47.696056" lon="10.962253">
<ele>806.147</ele>
<time>2020-09-11T13:49:44Z</time>
</trkpt>
<trkpt lat="47.69603" lon="10.962272">
<ele>806.147</ele>
<time>2020-09-11T13:49:45Z</time>
</trkpt>
<trkpt lat="47.696003" lon="10.962292">
<ele>806.147</ele>
<time>2020-09-11T13:49:46Z</time>
</trkpt>
<trkpt lat="47.695969" lon="10.962316">
<ele>806.147</ele>
<time>2020-09-11T13:49:47Z</time>
</trkpt>
<trkpt lat="47.69593" lon="10.962338">
<ele>806.147</ele>
<time>2020-09-11T13:49:48Z</time>
</trkpt>
<trkpt lat="47.695892" lon="10.962359">
<ele>806.147</ele>
<time>2020-09-11T13:49:49Z</time>
</trkpt>
<trkpt lat="47.695858" lon="10.962383">
<ele>806.147</ele>
<time>2020-09-11T13:49:50Z</time>
</trkpt>
<trkpt lat="47.69582" lon="10.962412">
<ele>806.147</ele>
<time>2020-09-11T13:49:51Z</time>
</trkpt>
<trkpt lat="47.695786" lon="10.962448">
<ele>806.147</ele>
<time>2020-09-11T13:49:52Z</time>
</trkpt>
<trkpt lat="47.695755" lon="10.962483">
<ele>806.147</ele>
<time>2020-09-11T13:49:53Z</time>
</trkpt>
<trkpt lat="47.695717" lon="10.962519">
<ele>806.147</ele>
<time>2020-09-11T13:49:54Z</time>
</trkpt>
<trkpt lat="47.695679" lon="10.962548">
<ele>806.147</ele>
<time>2020-09-11T13:49:55Z</time>
</trkpt>
<trkpt lat="47.695641" lon="10.962577">
<ele>806.444</ele>
<time>2020-09-11T13:49:56Z</time>
</trkpt>
<trkpt lat="47.695599" lon="10.9626">
<ele>806.675</ele>
<time>2020-09-11T13:49:57Z</time>
</trkpt>
<trkpt lat="47.695553" lon="10.962619">
<ele>806.845</ele>
<time>2020-09-11T13:49:58Z</time>
</trkpt>
<trkpt lat="47.695507" lon="10.962633">
<ele>806.971</ele>
<time>2020-09-11T13:49:59Z</time>
</trkpt>
<trkpt lat="47.695457" lon="10.962642">
<ele>807.062</ele>
<time>2020-09-11T13:50:00Z</time>
</trkpt>
<trkpt lat="47.695408" lon="10.962646">
<ele>807.108</ele>
<time>2020-09-11T13:50:01Z</time>
</trkpt>
<trkpt lat="47.695362" lon="10.962648">
<ele>807.131</ele>
<time>2020-09-11T13:50:02Z</time>
</trkpt>
<trkpt lat="47.695309" lon="10.962644">
<ele>807.135</ele>
<time>2020-09-11T13:50:03Z</time>
</trkpt>
<trkpt lat="47.695263" lon="10.962628">
<ele>807.135</ele>
<time>2020-09-11T13:50:04Z</time>
</trkpt>
<trkpt lat="47.695213" lon="10.962611">
<ele>807.135</ele>
<time>2020-09-11T13:50:05Z</time>
</trkpt>
<trkpt lat="47.695168" lon="10.962595">
<ele>807.135</ele>
<time>2020-09-11T13:50:06Z</time>
</trkpt>
<trkpt lat="47.695118" lon="10.962577">
<ele>807.135</ele>
<time>2020-09-11T13:50:07Z</time>
</trkpt>
<trkpt lat="47.695072" lon="10.962559">
<ele>807.135</ele>
<time>2020-09-11T13:50:08Z</time>
</trkpt>
<trkpt lat="47.695023" lon="10.962535">
<ele>807.135</ele>
<time>2020-09-11T13:50:09Z</time>
</trkpt>
<trkpt lat="47.694977" lon="10.962508">
<ele>807.135</ele>
<time>2020-09-11T13:50:10Z</time>
</trkpt>
<trkpt lat="47.694931" lon="10.962481">
<ele>807.135</ele>
<time>2020-09-11T13:50:11Z</time>
</trkpt>
<trkpt lat="47.694885" lon="10.962448">
<ele>807.135</ele>
<time>2020-09-11T13:50:12Z</time>
</trkpt>
<trkpt lat="47.694839" lon="10.962415">
<ele>807.135</ele>
<time>2020-09-11T13:50:13Z</time>
</trkpt>
<trkpt lat="47.694794" lon="10.962377">
<ele>807.135</ele>
<time>2020-09-11T13:50:14Z</time>
</trkpt>
<trkpt lat="47.694752" lon="10.962335">
<ele>807.135</ele>
<time>2020-09-11T13:50:15Z</time>
</trkpt>
<trkpt lat="47.694702" lon="10.962292">
<ele>807.135</ele>
<time>2020-09-11T13:50:16Z</time>
</trkpt>
<trkpt lat="47.69466" lon="10.962245">
<ele>807.452</ele>
<time>2020-09-11T13:50:17Z</time>
</trkpt>
<trkpt lat="47.694622" lon="10.962198">
<ele>807.697</ele>
<time>2020-09-11T13:50:18Z</time>
</trkpt>
<trkpt lat="47.69458" lon="10.962148">
<ele>807.876</ele>
<time>2020-09-11T13:50:19Z</time>
</trkpt>
<trkpt lat="47.694538" lon="10.962097">
<ele>808.013</ele>
<time>2020-09-11T13:50:20Z</time>
</trkpt>
<trkpt lat="47.694496" lon="10.962047">
<ele>808.1</ele>
<time>2020-09-11T13:50:21Z</time>
</trkpt>
<trkpt lat="47.694458" lon="10.961995">
<ele>808.156</ele>
<time>2020-09-11T13:50:22Z</time>
</trkpt>
<trkpt lat="47.69442" lon="10.961943">
<ele>808.188</ele>
<time>2020-09-11T13:50:23Z</time>
</trkpt>
<trkpt lat="47.694382" lon="10.96189">
<ele>808.213</ele>
<time>2020-09-11T13:50:24Z</time>
</trkpt>
<trkpt lat="47.69434" lon="10.961837">
<ele>808.213</ele>
<time>2020-09-11T13:50:25Z</time>
</trkpt>
<trkpt lat="47.694302" lon="10.961782">
<ele>808.213</ele>
<time>2020-09-11T13:50:26Z</time>
</trkpt>
<trkpt lat="47.694263" lon="10.961728">
<ele>808.213</ele>
<time>2020-09-11T13:50:27Z</time>
</trkpt>
<trkpt lat="47.694229" lon="10.961674">
<ele>808.213</ele>
<time>2020-09-11T13:50:28Z</time>
</trkpt>
<trkpt lat="47.694191" lon="10.961618">
<ele>808.213</ele>
<time>2020-09-11T13:50:29Z</time>
</trkpt>
<trkpt lat="47.694149" lon="10.961567">
<ele>808.213</ele>
<time>2020-09-11T13:50:30Z</time>
</trkpt>
<trkpt lat="47.694107" lon="10.961515">
<ele>808.213</ele>
<time>2020-09-11T13:50:31Z</time>
</trkpt>
<trkpt lat="47.694065" lon="10.961465">
<ele>808.213</ele>
<time>2020-09-11T13:50:32Z</time>
</trkpt>
<trkpt lat="47.694027" lon="10.961416">
<ele>808.213</ele>
<time>2020-09-11T13:50:33Z</time>
</trkpt>
<trkpt lat="47.693981" lon="10.96137">
<ele>808.213</ele>
<time>2020-09-11T13:50:34Z</time>
</trkpt>
<trkpt lat="47.693935" lon="10.961325">
<ele>808.213</ele>
<time>2020-09-11T13:50:35Z</time>
</trkpt>
<trkpt lat="47.69389" lon="10.961283">
<ele>808.511</ele>
<time>2020-09-11T13:50:36Z</time>
</trkpt>
<trkpt lat="47.69384" lon="10.961245">
<ele>808.741</ele>
<time>2020-09-11T13:50:37Z</time>
</trkpt>
<trkpt lat="47.693794" lon="10.961209">
<ele>808.914</ele>
<time>2020-09-11T13:50:38Z</time>
</trkpt>
<trkpt lat="47.693745" lon="10.961176">
<ele>809.039</ele>
<time>2020-09-11T13:50:39Z</time>
</trkpt>
<trkpt lat="47.693695" lon="10.961146">
<ele>809.121</ele>
<time>2020-09-11T13:50:40Z</time>
</trkpt>
<trkpt lat="47.693642" lon="10.961122">
<ele>809.173</ele>
<time>2020-09-11T13:50:41Z</time>
</trkpt>
<trkpt lat="47.693592" lon="10.961102">
<ele>809.198</ele>
<time>2020-09-11T13:50:42Z</time>
</trkpt>
<trkpt lat="47.693542" lon="10.961083">
<ele>809.202</ele>
<time>2020-09-11T13:50:43Z</time>
</trkpt>
<trkpt lat="47.693489" lon="10.961067">
<ele>809.202</ele>
<time>2020-09-11T13:50:44Z</time>
</trkpt>
<trkpt lat="47.693436" lon="10.96105">
<ele>809.202</ele>
<time>2020-09-11T13:50:45Z</time>
</trkpt>
<trkpt lat="47.693382" lon="10.961033">
<ele>809.202</ele>
<time>2020-09-11T13:50:46Z</time>
</trkpt>
<trkpt lat="47.693325" lon="10.96102">
<ele>809.202</ele>
<time>2020-09-11T13:50:47Z</time>
</trkpt>
<trkpt lat="47.693272" lon="10.961012">
<ele>809.202</ele>
<time>2020-09-11T13:50:48Z</time>
</trkpt>
<trkpt lat="47.693218" lon="10.961006">
<ele>809.202</ele>
<time>2020-09-11T13:50:49Z</time>
</trkpt>
<trkpt lat="47.693161" lon="10.961005">
<ele>809.202</ele>
<time>2020-09-11T13:50:50Z</time>
</trkpt>
<trkpt lat="47.693104" lon="10.961008">
<ele>809.458</ele>
<time>2020-09-11T13:50:51Z</time>
</trkpt>
<trkpt lat="47.69305" lon="10.961013">
<ele>809.655</ele>
<time>2020-09-11T13:50:52Z</time>
</trkpt>
<trkpt lat="47.692993" lon="10.961025">
<ele>809.811</ele>
<time>2020-09-11T13:50:53Z</time>
</trkpt>
<trkpt lat="47.692944" lon="10.961038">
<ele>809.916</ele>
<time>2020-09-11T13:50:54Z</time>
</trkpt>
<trkpt lat="47.69289" lon="10.961055">
<ele>810.031</ele>
<time>2020-09-11T13:50:55Z</time>
</trkpt>
<trkpt lat="47.692833" lon="10.961071">
<ele>810.112</ele>
<time>2020-09-11T13:50:56Z</time>
</trkpt>
<trkpt lat="47.692783" lon="10.961088">
<ele>810.165</ele>
<time>2020-09-11T13:50:57Z</time>
</trkpt>
<trkpt lat="47.69273" lon="10.96111">
<ele>810.19</ele>
<time>2020-09-11T13:50:58Z</time>
</trkpt>
<trkpt lat="47.692673" lon="10.961132">
<ele>810.19</ele>
<time>2020-09-11T13:50:59Z</time>
</trkpt>
<trkpt lat="47.692619" lon="10.961155">
<ele>810.19</ele>
<time>2020-09-11T13:51:00Z</time>
</trkpt>
<trkpt lat="47.692566" lon="10.961178">
<ele>810.423</ele>
<time>2020-09-11T13:51:01Z</time>
</trkpt>
<trkpt lat="47.692513" lon="10.961201">
<ele>810.606</ele>
<time>2020-09-11T13:51:02Z</time>
</trkpt>
<trkpt lat="47.692459" lon="10.961222">
<ele>810.746</ele>
<time>2020-09-11T13:51:03Z</time>
</trkpt>
<trkpt lat="47.692402" lon="10.961239">
<ele>810.841</ele>
<time>2020-09-11T13:51:04Z</time>
</trkpt>
<trkpt lat="47.692352" lon="10.961257">
<ele>810.944</ele>
<time>2020-09-11T13:51:05Z</time>
</trkpt>
<trkpt lat="47.692303" lon="10.961274">
<ele>811.014</ele>
<time>2020-09-11T13:51:06Z</time>
</trkpt>
<trkpt lat="47.692245" lon="10.961291">
<ele>811.303</ele>
<time>2020-09-11T13:51:07Z</time>
</trkpt>
<trkpt lat="47.692196" lon="10.96131">
<ele>811.527</ele>
<time>2020-09-11T13:51:08Z</time>
</trkpt>
<trkpt lat="47.692142" lon="10.961327">
<ele>811.764</ele>
<time>2020-09-11T13:51:09Z</time>
</trkpt>
<trkpt lat="47.692089" lon="10.961344">
<ele>811.889</ele>
<time>2020-09-11T13:51:10Z</time>
</trkpt>
<trkpt lat="47.692039" lon="10.961358">
<ele>811.976</ele>
<time>2020-09-11T13:51:11Z</time>
</trkpt>
<trkpt lat="47.691982" lon="10.96137">
<ele>812.03</ele>
<time>2020-09-11T13:51:12Z</time>
</trkpt>
<trkpt lat="47.691933" lon="10.961379">
<ele>812.055</ele>
<time>2020-09-11T13:51:13Z</time>
</trkpt>
<trkpt lat="47.691883" lon="10.96138">
<ele>812.078</ele>
<time>2020-09-11T13:51:14Z</time>
</trkpt>
<trkpt lat="47.691826" lon="10.961381">
<ele>812.078</ele>
<time>2020-09-11T13:51:15Z</time>
</trkpt>
<trkpt lat="47.691776" lon="10.961379">
<ele>812.078</ele>
<time>2020-09-11T13:51:16Z</time>
</trkpt>
<trkpt lat="47.691723" lon="10.961375">
<ele>812.387</ele>
<time>2020-09-11T13:51:17Z</time>
</trkpt>
<trkpt lat="47.691673" lon="10.96137">
<ele>812.626</ele>
<time>2020-09-11T13:51:18Z</time>
</trkpt>
<trkpt lat="47.69162" lon="10.961364">
<ele>812.811</ele>
<time>2020-09-11T13:51:19Z</time>
</trkpt>
<trkpt lat="47.69157" lon="10.961356">
<ele>812.951</ele>
<time>2020-09-11T13:51:20Z</time>
</trkpt>
<trkpt lat="47.691517" lon="10.961348">
<ele>813.04</ele>
<time>2020-09-11T13:51:21Z</time>
</trkpt>
<trkpt lat="47.691463" lon="10.961335">
<ele>813.103</ele>
<time>2020-09-11T13:51:22Z</time>
</trkpt>
<trkpt lat="47.691414" lon="10.96132">
<ele>813.131</ele>
<time>2020-09-11T13:51:23Z</time>
</trkpt>
<trkpt lat="47.691364" lon="10.961304">
<ele>813.156</ele>
<time>2020-09-11T13:51:24Z</time>
</trkpt>
<trkpt lat="47.691315" lon="10.961282">
<ele>813.156</ele>
<time>2020-09-11T13:51:25Z</time>
</trkpt>
<trkpt lat="47.691261" lon="10.96126">
<ele>813.452</ele>
<time>2020-09-11T13:51:26Z</time>
</trkpt>
<trkpt lat="47.691212" lon="10.961237">
<ele>813.68</ele>
<time>2020-09-11T13:51:27Z</time>
</trkpt>
<trkpt lat="47.691166" lon="10.961211">
<ele>813.856</ele>
<time>2020-09-11T13:51:28Z</time>
</trkpt>
<trkpt lat="47.691116" lon="10.961184">
<ele>813.979</ele>
<time>2020-09-11T13:51:29Z</time>
</trkpt>
<trkpt lat="47.691067" lon="10.961152">
<ele>814.068</ele>
<time>2020-09-11T13:51:30Z</time>
</trkpt>
<trkpt lat="47.691017" lon="10.96112">
<ele>814.117</ele>
<time>2020-09-11T13:51:31Z</time>
</trkpt>
<trkpt lat="47.690968" lon="10.961088">
<ele>814.141</ele>
<time>2020-09-11T13:51:32Z</time>
</trkpt>
<trkpt lat="47.690922" lon="10.961057">
<ele>814.145</ele>
<time>2020-09-11T13:51:33Z</time>
</trkpt>
<trkpt lat="47.690872" lon="10.961025">
<ele>814.145</ele>
<time>2020-09-11T13:51:34Z</time>
</trkpt>
<trkpt lat="47.690819" lon="10.960996">
<ele>814.145</ele>
<time>2020-09-11T13:51:35Z</time>
</trkpt>
<trkpt lat="47.690773" lon="10.960964">
<ele>814.145</ele>
<time>2020-09-11T13:51:36Z</time>
</trkpt>
<trkpt lat="47.690723" lon="10.960933">
<ele>814.145</ele>
<time>2020-09-11T13:51:37Z</time>
</trkpt>
<trkpt lat="47.690674" lon="10.960905">
<ele>814.421</ele>
<time>2020-09-11T13:51:38Z</time>
</trkpt>
<trkpt lat="47.690628" lon="10.96088">
<ele>814.636</ele>
<time>2020-09-11T13:51:39Z</time>
</trkpt>
<trkpt lat="47.690586" lon="10.960867">
<ele>814.797</ele>
<time>2020-09-11T13:51:40Z</time>
</trkpt>
<trkpt lat="47.690548" lon="10.960855">
<ele>814.919</ele>
<time>2020-09-11T13:51:41Z</time>
</trkpt>
<trkpt lat="47.69051" lon="10.960835">
<ele>815</ele>
<time>2020-09-11T13:51:42Z</time>
</trkpt>
<trkpt lat="47.69046" lon="10.96082">
<ele>815.059</ele>
<time>2020-09-11T13:51:43Z</time>
</trkpt>
<trkpt lat="47.690411" lon="10.960805">
<ele>815.105</ele>
<time>2020-09-11T13:51:44Z</time>
</trkpt>
<trkpt lat="47.69035" lon="10.960794">
<ele>815.135</ele>
<time>2020-09-11T13:51:45Z</time>
</trkpt>
<trkpt lat="47.690296" lon="10.960787">
<ele>815.135</ele>
<time>2020-09-11T13:51:46Z</time>
</trkpt>
<trkpt lat="47.690243" lon="10.960784">
<ele>815.436</ele>
<time>2020-09-11T13:51:47Z</time>
</trkpt>
<trkpt lat="47.690186" lon="10.960784">
<ele>815.675</ele>
<time>2020-09-11T13:51:48Z</time>
</trkpt>
<trkpt lat="47.690128" lon="10.960778">
<ele>815.839</ele>
<time>2020-09-11T13:51:49Z</time>
</trkpt>
<trkpt lat="47.690075" lon="10.960773">
<ele>815.95</ele>
<time>2020-09-11T13:51:50Z</time>
</trkpt>
<trkpt lat="47.690022" lon="10.96077">
<ele>816.025</ele>
<time>2020-09-11T13:51:51Z</time>
</trkpt>
<trkpt lat="47.689968" lon="10.960773">
<ele>816.072</ele>
<time>2020-09-11T13:51:52Z</time>
</trkpt>
<trkpt lat="47.689915" lon="10.960778">
<ele>816.1</ele>
<time>2020-09-11T13:51:53Z</time>
</trkpt>
<trkpt lat="47.689865" lon="10.960785">
<ele>816.124</ele>
<time>2020-09-11T13:51:54Z</time>
</trkpt>
<trkpt lat="47.689816" lon="10.960789">
<ele>816.359</ele>
<time>2020-09-11T13:51:55Z</time>
</trkpt>
<trkpt lat="47.689766" lon="10.960793">
<ele>816.556</ele>
<time>2020-09-11T13:51:56Z</time>
</trkpt>
<trkpt lat="47.68972" lon="10.960798">
<ele>816.72</ele>
<time>2020-09-11T13:51:57Z</time>
</trkpt>
<trkpt lat="47.689674" lon="10.9608">
<ele>816.855</ele>
<time>2020-09-11T13:51:58Z</time>
</trkpt>
<trkpt lat="47.689632" lon="10.9608">
<ele>816.94</ele>
<time>2020-09-11T13:51:59Z</time>
</trkpt>
<trkpt lat="47.689594" lon="10.960801">
<ele>817.261</ele>
<time>2020-09-11T13:52:00Z</time>
</trkpt>
<trkpt lat="47.689548" lon="10.960801">
<ele>817.51</ele>
<time>2020-09-11T13:52:01Z</time>
</trkpt>
<trkpt lat="47.68951" lon="10.960803">
<ele>817.706</ele>
<time>2020-09-11T13:52:02Z</time>
</trkpt>
<trkpt lat="47.689468" lon="10.9608">
<ele>817.841</ele>
<time>2020-09-11T13:52:03Z</time>
</trkpt>
<trkpt lat="47.689434" lon="10.960793">
<ele>817.926</ele>
<time>2020-09-11T13:52:04Z</time>
</trkpt>
<trkpt lat="47.6894" lon="10.960785">
<ele>818.014</ele>
<time>2020-09-11T13:52:05Z</time>
</trkpt>
<trkpt lat="47.689365" lon="10.960778">
<ele>818.072</ele>
<time>2020-09-11T13:52:06Z</time>
</trkpt>
<trkpt lat="47.689335" lon="10.960769">
<ele>818.31</ele>
<time>2020-09-11T13:52:07Z</time>
</trkpt>
<trkpt lat="47.689304" lon="10.960761">
<ele>818.544</ele>
<time>2020-09-11T13:52:08Z</time>
</trkpt>
<trkpt lat="47.689274" lon="10.960753">
<ele>818.678</ele>
<time>2020-09-11T13:52:09Z</time>
</trkpt>
<trkpt lat="47.689243" lon="10.960745">
<ele>819.043</ele>
<time>2020-09-11T13:52:10Z</time>
</trkpt>
<trkpt lat="47.689217" lon="10.960736">
<ele>819.33</ele>
<time>2020-09-11T13:52:11Z</time>
</trkpt>
<trkpt lat="47.68919" lon="10.960728">
<ele>819.513</ele>
<time>2020-09-11T13:52:12Z</time>
</trkpt>
<trkpt lat="47.689163" lon="10.960719">
<ele>819.91</ele>
<time>2020-09-11T13:52:13Z</time>
</trkpt>
<trkpt lat="47.689137" lon="10.960709">
<ele>820.216</ele>
<time>2020-09-11T13:52:14Z</time>
</trkpt>
<trkpt lat="47.68911" lon="10.960698">
<ele>820.482</ele>
<time>2020-09-11T13:52:15Z</time>
</trkpt>
<trkpt lat="47.689079" lon="10.960688">
<ele>820.668</ele>
<time>2020-09-11T13:52:16Z</time>
</trkpt>
<trkpt lat="47.689049" lon="10.960673">
<ele>821.061</ele>
<time>2020-09-11T13:52:17Z</time>
</trkpt>
<trkpt lat="47.689018" lon="10.96066">
<ele>821.311</ele>
<time>2020-09-11T13:52:18Z</time>
</trkpt>
<trkpt lat="47.688992" lon="10.960649">
<ele>821.792</ele>
<time>2020-09-11T13:52:19Z</time>
</trkpt>
<trkpt lat="47.688965" lon="10.960635">
<ele>822.167</ele>
<time>2020-09-11T13:52:20Z</time>
</trkpt>
<trkpt lat="47.688934" lon="10.960623">
<ele>822.474</ele>
<time>2020-09-11T13:52:21Z</time>
</trkpt>
<trkpt lat="47.688908" lon="10.96061">
<ele>822.908</ele>
<time>2020-09-11T13:52:22Z</time>
</trkpt>
<trkpt lat="47.688881" lon="10.960598">
<ele>823.22</ele>
<time>2020-09-11T13:52:23Z</time>
</trkpt>
<trkpt lat="47.688854" lon="10.960587">
<ele>823.453</ele>
<time>2020-09-11T13:52:24Z</time>
</trkpt>
<trkpt lat="47.688828" lon="10.960577">
<ele>823.642</ele>
<time>2020-09-11T13:52:25Z</time>
</trkpt>
<trkpt lat="47.688801" lon="10.960567">
<ele>824.021</ele>
<time>2020-09-11T13:52:26Z</time>
</trkpt>
<trkpt lat="47.688774" lon="10.960553">
<ele>824.309</ele>
<time>2020-09-11T13:52:27Z</time>
</trkpt>
<trkpt lat="47.688747" lon="10.960545">
<ele>824.495</ele>
<time>2020-09-11T13:52:28Z</time>
</trkpt>
<trkpt lat="47.688721" lon="10.960539">
<ele>824.91</ele>
<time>2020-09-11T13:52:29Z</time>
</trkpt>
<trkpt lat="47.68869" lon="10.960532">
<ele>825.335</ele>
<time>2020-09-11T13:52:30Z</time>
</trkpt>
<trkpt lat="47.688663" lon="10.960526">
<ele>825.554</ele>
<time>2020-09-11T13:52:31Z</time>
</trkpt>
<trkpt lat="47.688637" lon="10.96052">
<ele>825.674</ele>
<time>2020-09-11T13:52:32Z</time>
</trkpt>
<trkpt lat="47.688614" lon="10.960515">
<ele>825.981</ele>
<time>2020-09-11T13:52:33Z</time>
</trkpt>
<trkpt lat="47.688587" lon="10.960511">
<ele>826.218</ele>
<time>2020-09-11T13:52:34Z</time>
</trkpt>
<trkpt lat="47.688557" lon="10.960508">
<ele>826.672</ele>
<time>2020-09-11T13:52:35Z</time>
</trkpt>
<trkpt lat="47.688526" lon="10.960505">
<ele>827.032</ele>
<time>2020-09-11T13:52:36Z</time>
</trkpt>
<trkpt lat="47.688499" lon="10.960504">
<ele>827.304</ele>
<time>2020-09-11T13:52:37Z</time>
</trkpt>
<trkpt lat="47.688477" lon="10.960502">
<ele>827.472</ele>
<time>2020-09-11T13:52:38Z</time>
</trkpt>
<trkpt lat="47.688446" lon="10.9605">
<ele>827.881</ele>
<time>2020-09-11T13:52:39Z</time>
</trkpt>
<trkpt lat="47.688419" lon="10.960497">
<ele>828.19</ele>
<time>2020-09-11T13:52:40Z</time>
</trkpt>
<trkpt lat="47.688393" lon="10.960497">
<ele>828.376</ele>
<time>2020-09-11T13:52:41Z</time>
</trkpt>
<trkpt lat="47.688366" lon="10.960497">
<ele>828.779</ele>
<time>2020-09-11T13:52:42Z</time>
</trkpt>
<trkpt lat="47.688339" lon="10.960497">
<ele>829.086</ele>
<time>2020-09-11T13:52:43Z</time>
</trkpt>
<trkpt lat="47.688313" lon="10.960499">
<ele>829.296</ele>
<time>2020-09-11T13:52:44Z</time>
</trkpt>
<trkpt lat="47.688286" lon="10.960504">
<ele>829.506</ele>
<time>2020-09-11T13:52:45Z</time>
</trkpt>
<trkpt lat="47.688259" lon="10.960508">
<ele>829.634</ele>
<time>2020-09-11T13:52:46Z</time>
</trkpt>
<trkpt lat="47.688232" lon="10.960513">
<ele>829.938</ele>
<time>2020-09-11T13:52:47Z</time>
</trkpt>
<trkpt lat="47.688202" lon="10.960515">
<ele>830.182</ele>
<time>2020-09-11T13:52:48Z</time>
</trkpt>
<trkpt lat="47.688171" lon="10.96052">
<ele>830.33</ele>
<time>2020-09-11T13:52:49Z</time>
</trkpt>
<trkpt lat="47.688145" lon="10.960525">
<ele>830.799</ele>
<time>2020-09-11T13:52:50Z</time>
</trkpt>
<trkpt lat="47.688118" lon="10.96053">
<ele>831.106</ele>
<time>2020-09-11T13:52:51Z</time>
</trkpt>
<trkpt lat="47.688091" lon="10.960537">
<ele>831.34</ele>
<time>2020-09-11T13:52:52Z</time>
</trkpt>
<trkpt lat="47.688065" lon="10.960544">
<ele>831.49</ele>
<time>2020-09-11T13:52:53Z</time>
</trkpt>
<trkpt lat="47.688034" lon="10.960548">
<ele>831.604</ele>
<time>2020-09-11T13:52:54Z</time>
</trkpt>
<trkpt lat="47.688007" lon="10.960553">
<ele>831.931</ele>
<time>2020-09-11T13:52:55Z</time>
</trkpt>
<trkpt lat="47.687984" lon="10.960558">
<ele>832.191</ele>
<time>2020-09-11T13:52:56Z</time>
</trkpt>
<trkpt lat="47.687958" lon="10.960565">
<ele>832.355</ele>
<time>2020-09-11T13:52:57Z</time>
</trkpt>
<trkpt lat="47.687931" lon="10.960572">
<ele>832.716</ele>
<time>2020-09-11T13:52:58Z</time>
</trkpt>
<trkpt lat="47.687904" lon="10.96058">
<ele>833.012</ele>
<time>2020-09-11T13:52:59Z</time>
</trkpt>
<trkpt lat="47.687878" lon="10.960588">
<ele>833.249</ele>
<time>2020-09-11T13:53:00Z</time>
</trkpt>
<trkpt lat="47.687855" lon="10.960595">
<ele>833.422</ele>
<time>2020-09-11T13:53:01Z</time>
</trkpt>
<trkpt lat="47.687828" lon="10.9606">
<ele>833.541</ele>
<time>2020-09-11T13:53:02Z</time>
</trkpt>
<trkpt lat="47.687805" lon="10.960607">
<ele>833.598</ele>
<time>2020-09-11T13:53:03Z</time>
</trkpt>
<trkpt lat="47.687778" lon="10.960614">
<ele>833.865</ele>
<time>2020-09-11T13:53:04Z</time>
</trkpt>
<trkpt lat="47.687756" lon="10.960622">
<ele>834.096</ele>
<time>2020-09-11T13:53:05Z</time>
</trkpt>
<trkpt lat="47.687729" lon="10.960629">
<ele>834.268</ele>
<time>2020-09-11T13:53:06Z</time>
</trkpt>
<trkpt lat="47.687706" lon="10.960635">
<ele>834.382</ele>
<time>2020-09-11T13:53:07Z</time>
</trkpt>
<trkpt lat="47.687675" lon="10.960642">
<ele>834.763</ele>
<time>2020-09-11T13:53:08Z</time>
</trkpt>
<trkpt lat="47.687653" lon="10.960646">
<ele>835.074</ele>
<time>2020-09-11T13:53:09Z</time>
</trkpt>
<trkpt lat="47.687626" lon="10.960649">
<ele>835.311</ele>
<time>2020-09-11T13:53:10Z</time>
</trkpt>
<trkpt lat="47.687599" lon="10.960653">
<ele>835.483</ele>
<time>2020-09-11T13:53:11Z</time>
</trkpt>
<trkpt lat="47.687572" lon="10.960656">
<ele>835.605</ele>
<time>2020-09-11T13:53:12Z</time>
</trkpt>
<trkpt lat="47.687546" lon="10.960658">
<ele>835.67</ele>
<time>2020-09-11T13:53:13Z</time>
</trkpt>
<trkpt lat="47.687515" lon="10.96066">
<ele>835.717</ele>
<time>2020-09-11T13:53:14Z</time>
</trkpt>
<trkpt lat="47.687489" lon="10.960662">
<ele>835.746</ele>
<time>2020-09-11T13:53:15Z</time>
</trkpt>
<trkpt lat="47.687462" lon="10.960663">
<ele>835.745</ele>
<time>2020-09-11T13:53:16Z</time>
</trkpt>
<trkpt lat="47.687439" lon="10.960665">
<ele>835.746</ele>
<time>2020-09-11T13:53:17Z</time>
</trkpt>
<trkpt lat="47.687412" lon="10.960667">
<ele>836.049</ele>
<time>2020-09-11T13:53:18Z</time>
</trkpt>
<trkpt lat="47.687382" lon="10.960665">
<ele>836.284</ele>
<time>2020-09-11T13:53:19Z</time>
</trkpt>
<trkpt lat="47.687359" lon="10.960663">
<ele>836.463</ele>
<time>2020-09-11T13:53:20Z</time>
</trkpt>
<trkpt lat="47.687332" lon="10.960662">
<ele>836.595</ele>
<time>2020-09-11T13:53:21Z</time>
</trkpt>
<trkpt lat="47.687309" lon="10.960654">
<ele>836.69</ele>
<time>2020-09-11T13:53:22Z</time>
</trkpt>
<trkpt lat="47.687286" lon="10.960649">
<ele>836.748</ele>
<time>2020-09-11T13:53:23Z</time>
</trkpt>
<trkpt lat="47.68726" lon="10.960647">
<ele>836.796</ele>
<time>2020-09-11T13:53:24Z</time>
</trkpt>
<trkpt lat="47.687233" lon="10.96064">
<ele>836.827</ele>
<time>2020-09-11T13:53:25Z</time>
</trkpt>
<trkpt lat="47.687206" lon="10.960637">
<ele>836.827</ele>
<time>2020-09-11T13:53:26Z</time>
</trkpt>
<trkpt lat="47.687183" lon="10.960631">
<ele>836.827</ele>
<time>2020-09-11T13:53:27Z</time>
</trkpt>
<trkpt lat="47.687157" lon="10.960625">
<ele>836.827</ele>
<time>2020-09-11T13:53:28Z</time>
</trkpt>
<trkpt lat="47.687134" lon="10.960618">
<ele>836.827</ele>
<time>2020-09-11T13:53:29Z</time>
</trkpt>
<trkpt lat="47.687111" lon="10.960614">
<ele>836.827</ele>
<time>2020-09-11T13:53:30Z</time>
</trkpt>
<trkpt lat="47.687088" lon="10.960608">
<ele>836.827</ele>
<time>2020-09-11T13:53:31Z</time>
</trkpt>
<trkpt lat="47.687061" lon="10.960602">
<ele>836.827</ele>
<time>2020-09-11T13:53:32Z</time>
</trkpt>
<trkpt lat="47.687038" lon="10.960591">
<ele>836.827</ele>
<time>2020-09-11T13:53:33Z</time>
</trkpt>
<trkpt lat="47.687016" lon="10.96058">
<ele>836.827</ele>
<time>2020-09-11T13:53:34Z</time>
</trkpt>
<trkpt lat="47.686989" lon="10.96057">
<ele>836.827</ele>
<time>2020-09-11T13:53:35Z</time>
</trkpt>
<trkpt lat="47.686958" lon="10.960562">
<ele>836.827</ele>
<time>2020-09-11T13:53:36Z</time>
</trkpt>
<trkpt lat="47.686928" lon="10.960553">
<ele>836.827</ele>
<time>2020-09-11T13:53:37Z</time>
</trkpt>
<trkpt lat="47.686893" lon="10.960542">
<ele>836.827</ele>
<time>2020-09-11T13:53:38Z</time>
</trkpt>
<trkpt lat="47.686859" lon="10.960532">
<ele>836.827</ele>
<time>2020-09-11T13:53:39Z</time>
</trkpt>
<trkpt lat="47.686821" lon="10.96052">
<ele>836.827</ele>
<time>2020-09-11T13:53:40Z</time>
</trkpt>
<trkpt lat="47.686783" lon="10.960507">
<ele>836.827</ele>
<time>2020-09-11T13:53:41Z</time>
</trkpt>
<trkpt lat="47.686741" lon="10.960493">
<ele>836.827</ele>
<time>2020-09-11T13:53:42Z</time>
</trkpt>
<trkpt lat="47.686699" lon="10.960476">
<ele>836.827</ele>
<time>2020-09-11T13:53:43Z</time>
</trkpt>
<trkpt lat="47.686657" lon="10.96046">
<ele>836.827</ele>
<time>2020-09-11T13:53:44Z</time>
</trkpt>
<trkpt lat="47.686607" lon="10.960446">
<ele>836.827</ele>
<time>2020-09-11T13:53:45Z</time>
</trkpt>
<trkpt lat="47.686562" lon="10.960435">
<ele>836.827</ele>
<time>2020-09-11T13:53:46Z</time>
</trkpt>
<trkpt lat="47.686504" lon="10.960428">
<ele>836.518</ele>
<time>2020-09-11T13:53:47Z</time>
</trkpt>
<trkpt lat="47.686451" lon="10.960425">
<ele>836.33</ele>
<time>2020-09-11T13:53:48Z</time>
</trkpt>
<trkpt lat="47.686394" lon="10.960423">
<ele>835.887</ele>
<time>2020-09-11T13:53:49Z</time>
</trkpt>
<trkpt lat="47.686333" lon="10.960426">
<ele>835.565</ele>
<time>2020-09-11T13:53:50Z</time>
</trkpt>
<trkpt lat="47.686272" lon="10.960432">
<ele>835.333</ele>
<time>2020-09-11T13:53:51Z</time>
</trkpt>
<trkpt lat="47.686207" lon="10.960444">
<ele>835.202</ele>
<time>2020-09-11T13:53:52Z</time>
</trkpt>
<trkpt lat="47.686142" lon="10.96046">
<ele>834.835</ele>
<time>2020-09-11T13:53:53Z</time>
</trkpt>
<trkpt lat="47.686077" lon="10.96048">
<ele>834.574</ele>
<time>2020-09-11T13:53:54Z</time>
</trkpt>
<trkpt lat="47.686008" lon="10.960504">
<ele>834.35</ele>
<time>2020-09-11T13:53:55Z</time>
</trkpt>
<trkpt lat="47.68594" lon="10.960526">
<ele>834.189</ele>
<time>2020-09-11T13:53:56Z</time>
</trkpt>
<trkpt lat="47.685871" lon="10.960553">
<ele>834.086</ele>
<time>2020-09-11T13:53:57Z</time>
</trkpt>
<trkpt lat="47.685802" lon="10.960581">
<ele>834.013</ele>
<time>2020-09-11T13:53:58Z</time>
</trkpt>
<trkpt lat="47.685738" lon="10.960614">
<ele>833.966</ele>
<time>2020-09-11T13:53:59Z</time>
</trkpt>
<trkpt lat="47.685673" lon="10.960656">
<ele>833.944</ele>
<time>2020-09-11T13:54:00Z</time>
</trkpt>
<trkpt lat="47.685608" lon="10.960702">
<ele>833.944</ele>
<time>2020-09-11T13:54:01Z</time>
</trkpt>
<trkpt lat="47.685543" lon="10.960745">
<ele>833.944</ele>
<time>2020-09-11T13:54:02Z</time>
</trkpt>
<trkpt lat="47.685478" lon="10.960787">
<ele>833.702</ele>
<time>2020-09-11T13:54:03Z</time>
</trkpt>
<trkpt lat="47.685417" lon="10.960826">
<ele>833.529</ele>
<time>2020-09-11T13:54:04Z</time>
</trkpt>
<trkpt lat="47.685352" lon="10.960867">
<ele>833.353</ele>
<time>2020-09-11T13:54:05Z</time>
</trkpt>
<trkpt lat="47.685287" lon="10.960908">
<ele>833.213</ele>
<time>2020-09-11T13:54:06Z</time>
</trkpt>
<trkpt lat="47.685226" lon="10.960952">
<ele>833.105</ele>
<time>2020-09-11T13:54:07Z</time>
</trkpt>
<trkpt lat="47.685165" lon="10.96099">
<ele>833.028</ele>
<time>2020-09-11T13:54:08Z</time>
</trkpt>
<trkpt lat="47.685104" lon="10.96103">
<ele>832.978</ele>
<time>2020-09-11T13:54:09Z</time>
</trkpt>
<trkpt lat="47.685043" lon="10.961067">
<ele>832.953</ele>
<time>2020-09-11T13:54:10Z</time>
</trkpt>
<trkpt lat="47.684986" lon="10.961108">
<ele>832.953</ele>
<time>2020-09-11T13:54:11Z</time>
</trkpt>
<trkpt lat="47.684929" lon="10.961148">
<ele>832.953</ele>
<time>2020-09-11T13:54:12Z</time>
</trkpt>
<trkpt lat="47.684872" lon="10.96119">
<ele>832.953</ele>
<time>2020-09-11T13:54:13Z</time>
</trkpt>
<trkpt lat="47.684811" lon="10.961232">
<ele>832.953</ele>
<time>2020-09-11T13:54:14Z</time>
</trkpt>
<trkpt lat="47.684757" lon="10.961274">
<ele>832.953</ele>
<time>2020-09-11T13:54:15Z</time>
</trkpt>
<trkpt lat="47.6847" lon="10.961313">
<ele>832.953</ele>
<time>2020-09-11T13:54:16Z</time>
</trkpt>
<trkpt lat="47.684643" lon="10.961351">
<ele>832.953</ele>
<time>2020-09-11T13:54:17Z</time>
</trkpt>
<trkpt lat="47.684589" lon="10.96139">
<ele>832.953</ele>
<time>2020-09-11T13:54:18Z</time>
</trkpt>
<trkpt lat="47.68454" lon="10.96143">
<ele>832.953</ele>
<time>2020-09-11T13:54:19Z</time>
</trkpt>
<trkpt lat="47.684483" lon="10.96147">
<ele>832.953</ele>
<time>2020-09-11T13:54:20Z</time>
</trkpt>
<trkpt lat="47.684433" lon="10.961511">
<ele>832.953</ele>
<time>2020-09-11T13:54:21Z</time>
</trkpt>
<trkpt lat="47.68438" lon="10.961549">
<ele>832.953</ele>
<time>2020-09-11T13:54:22Z</time>
</trkpt>
<trkpt lat="47.684326" lon="10.961587">
<ele>832.953</ele>
<time>2020-09-11T13:54:23Z</time>
</trkpt>
<trkpt lat="47.68428" lon="10.961624">
<ele>832.953</ele>
<time>2020-09-11T13:54:24Z</time>
</trkpt>
<trkpt lat="47.684227" lon="10.961665">
<ele>832.953</ele>
<time>2020-09-11T13:54:25Z</time>
</trkpt>
<trkpt lat="47.684177" lon="10.961703">
<ele>832.953</ele>
<time>2020-09-11T13:54:26Z</time>
</trkpt>
<trkpt lat="47.684128" lon="10.961743">
<ele>832.953</ele>
<time>2020-09-11T13:54:27Z</time>
</trkpt>
<trkpt lat="47.684082" lon="10.961783">
<ele>833.228</ele>
<time>2020-09-11T13:54:28Z</time>
</trkpt>
<trkpt lat="47.684032" lon="10.961823">
<ele>833.442</ele>
<time>2020-09-11T13:54:29Z</time>
</trkpt>
<trkpt lat="47.683983" lon="10.961867">
<ele>833.607</ele>
<time>2020-09-11T13:54:30Z</time>
</trkpt>
<trkpt lat="47.683933" lon="10.961909">
<ele>833.73</ele>
<time>2020-09-11T13:54:31Z</time>
</trkpt>
<trkpt lat="47.683887" lon="10.961953">
<ele>833.816</ele>
<time>2020-09-11T13:54:32Z</time>
</trkpt>
<trkpt lat="47.683838" lon="10.961997">
<ele>833.872</ele>
<time>2020-09-11T13:54:33Z</time>
</trkpt>
<trkpt lat="47.683792" lon="10.962039">
<ele>833.916</ele>
<time>2020-09-11T13:54:34Z</time>
</trkpt>
<trkpt lat="47.683746" lon="10.96208">
<ele>833.944</ele>
<time>2020-09-11T13:54:35Z</time>
</trkpt>
<trkpt lat="47.683697" lon="10.962122">
<ele>834.213</ele>
<time>2020-09-11T13:54:36Z</time>
</trkpt>
<trkpt lat="47.683647" lon="10.962163">
<ele>834.421</ele>
<time>2020-09-11T13:54:37Z</time>
</trkpt>
<trkpt lat="47.683601" lon="10.962209">
<ele>834.575</ele>
<time>2020-09-11T13:54:38Z</time>
</trkpt>
<trkpt lat="47.683556" lon="10.962252">
<ele>834.69</ele>
<time>2020-09-11T13:54:39Z</time>
</trkpt>
<trkpt lat="47.68351" lon="10.962295">
<ele>834.769</ele>
<time>2020-09-11T13:54:40Z</time>
</trkpt>
<trkpt lat="47.683468" lon="10.962337">
<ele>834.818</ele>
<time>2020-09-11T13:54:41Z</time>
</trkpt>
<trkpt lat="47.683418" lon="10.96238">
<ele>834.845</ele>
<time>2020-09-11T13:54:42Z</time>
</trkpt>
<trkpt lat="47.683376" lon="10.962423">
<ele>834.845</ele>
<time>2020-09-11T13:54:43Z</time>
</trkpt>
<trkpt lat="47.683334" lon="10.962466">
<ele>835.063</ele>
<time>2020-09-11T13:54:44Z</time>
</trkpt>
<trkpt lat="47.683289" lon="10.962508">
<ele>835.269</ele>
<time>2020-09-11T13:54:45Z</time>
</trkpt>
<trkpt lat="47.683243" lon="10.96255">
<ele>835.44</ele>
<time>2020-09-11T13:54:46Z</time>
</trkpt>
<trkpt lat="47.683197" lon="10.962588">
<ele>835.579</ele>
<time>2020-09-11T13:54:47Z</time>
</trkpt>
<trkpt lat="47.683151" lon="10.962626">
<ele>835.686</ele>
<time>2020-09-11T13:54:48Z</time>
</trkpt>
<trkpt lat="47.683109" lon="10.962666">
<ele>835.763</ele>
<time>2020-09-11T13:54:49Z</time>
</trkpt>
<trkpt lat="47.68306" lon="10.962707">
<ele>835.812</ele>
<time>2020-09-11T13:54:50Z</time>
</trkpt>
<trkpt lat="47.683014" lon="10.962747">
<ele>835.836</ele>
<time>2020-09-11T13:54:51Z</time>
</trkpt>
<trkpt lat="47.682968" lon="10.962785">
<ele>835.836</ele>
<time>2020-09-11T13:54:52Z</time>
</trkpt>
<trkpt lat="47.682915" lon="10.962822">
<ele>835.836</ele>
<time>2020-09-11T13:54:53Z</time>
</trkpt>
<trkpt lat="47.682869" lon="10.962858">
<ele>835.836</ele>
<time>2020-09-11T13:54:54Z</time>
</trkpt>
<trkpt lat="47.682819" lon="10.962893">
<ele>835.836</ele>
<time>2020-09-11T13:54:55Z</time>
</trkpt>
<trkpt lat="47.682762" lon="10.962927">
<ele>835.836</ele>
<time>2020-09-11T13:54:56Z</time>
</trkpt>
<trkpt lat="47.682709" lon="10.962958">
<ele>835.836</ele>
<time>2020-09-11T13:54:57Z</time>
</trkpt>
<trkpt lat="47.682652" lon="10.962988">
<ele>835.835</ele>
<time>2020-09-11T13:54:58Z</time>
</trkpt>
<trkpt lat="47.68259" lon="10.963012">
<ele>835.836</ele>
<time>2020-09-11T13:54:59Z</time>
</trkpt>
<trkpt lat="47.682526" lon="10.963028">
<ele>835.836</ele>
<time>2020-09-11T13:55:00Z</time>
</trkpt>
<trkpt lat="47.682461" lon="10.96304">
<ele>835.574</ele>
<time>2020-09-11T13:55:01Z</time>
</trkpt>
<trkpt lat="47.682396" lon="10.963045">
<ele>835.371</ele>
<time>2020-09-11T13:55:02Z</time>
</trkpt>
<trkpt lat="47.682331" lon="10.963049">
<ele>835.248</ele>
<time>2020-09-11T13:55:03Z</time>
</trkpt>
<trkpt lat="47.682266" lon="10.963051">
<ele>834.867</ele>
<time>2020-09-11T13:55:04Z</time>
</trkpt>
<trkpt lat="47.68219" lon="10.963049">
<ele>834.229</ele>
<time>2020-09-11T13:55:05Z</time>
</trkpt>
<trkpt lat="47.682117" lon="10.963045">
<ele>833.792</ele>
<time>2020-09-11T13:55:06Z</time>
</trkpt>
<trkpt lat="47.682037" lon="10.963038">
<ele>833.093</ele>
<time>2020-09-11T13:55:07Z</time>
</trkpt>
<trkpt lat="47.681957" lon="10.963038">
<ele>832.618</ele>
<time>2020-09-11T13:55:08Z</time>
</trkpt>
<trkpt lat="47.681873" lon="10.963053">
<ele>831.943</ele>
<time>2020-09-11T13:55:09Z</time>
</trkpt>
<trkpt lat="47.681778" lon="10.963085">
<ele>831.173</ele>
<time>2020-09-11T13:55:10Z</time>
</trkpt>
<trkpt lat="47.681683" lon="10.963137">
<ele>830.296</ele>
<time>2020-09-11T13:55:11Z</time>
</trkpt>
<trkpt lat="47.681587" lon="10.963205">
<ele>829.249</ele>
<time>2020-09-11T13:55:12Z</time>
</trkpt>
<trkpt lat="47.681492" lon="10.963287">
<ele>828.583</ele>
<time>2020-09-11T13:55:13Z</time>
</trkpt>
<trkpt lat="47.6814" lon="10.963382">
<ele>827.693</ele>
<time>2020-09-11T13:55:14Z</time>
</trkpt>
<trkpt lat="47.681316" lon="10.963491">
<ele>826.674</ele>
<time>2020-09-11T13:55:15Z</time>
</trkpt>
<trkpt lat="47.681244" lon="10.963614">
<ele>825.933</ele>
<time>2020-09-11T13:55:16Z</time>
</trkpt>
<trkpt lat="47.681183" lon="10.963745">
<ele>825.417</ele>
<time>2020-09-11T13:55:17Z</time>
</trkpt>
<trkpt lat="47.681133" lon="10.963877">
<ele>825.063</ele>
<time>2020-09-11T13:55:18Z</time>
</trkpt>
<trkpt lat="47.681095" lon="10.964006">
<ele>824.835</ele>
<time>2020-09-11T13:55:19Z</time>
</trkpt>
<trkpt lat="47.681068" lon="10.964128">
<ele>824.898</ele>
<time>2020-09-11T13:55:20Z</time>
</trkpt>
<trkpt lat="47.681049" lon="10.964241">
<ele>824.985</ele>
<time>2020-09-11T13:55:21Z</time>
</trkpt>
<trkpt lat="47.681038" lon="10.964345">
<ele>824.99</ele>
<time>2020-09-11T13:55:22Z</time>
</trkpt>
<trkpt lat="47.68103" lon="10.964438">
<ele>825.399</ele>
<time>2020-09-11T13:55:23Z</time>
</trkpt>
<trkpt lat="47.681026" lon="10.964521">
<ele>825.726</ele>
<time>2020-09-11T13:55:24Z</time>
</trkpt>
<trkpt lat="47.681026" lon="10.964593">
<ele>826.244</ele>
<time>2020-09-11T13:55:25Z</time>
</trkpt>
<trkpt lat="47.681023" lon="10.964653">
<ele>826.912</ele>
<time>2020-09-11T13:55:26Z</time>
</trkpt>
<trkpt lat="47.681015" lon="10.964706">
<ele>827.434</ele>
<time>2020-09-11T13:55:27Z</time>
</trkpt>
<trkpt lat="47.681011" lon="10.964762">
<ele>828.089</ele>
<time>2020-09-11T13:55:28Z</time>
</trkpt>
<trkpt lat="47.681007" lon="10.964815">
<ele>828.609</ele>
<time>2020-09-11T13:55:29Z</time>
</trkpt>
<trkpt lat="47.681011" lon="10.964871">
<ele>828.983</ele>
<time>2020-09-11T13:55:30Z</time>
</trkpt>
<trkpt lat="47.681011" lon="10.964929">
<ele>829.529</ele>
<time>2020-09-11T13:55:31Z</time>
</trkpt>
<trkpt lat="47.681007" lon="10.964992">
<ele>829.97</ele>
<time>2020-09-11T13:55:32Z</time>
</trkpt>
<trkpt lat="47.681004" lon="10.965047">
<ele>830.243</ele>
<time>2020-09-11T13:55:33Z</time>
</trkpt>
<trkpt lat="47.681" lon="10.965104">
<ele>830.706</ele>
<time>2020-09-11T13:55:34Z</time>
</trkpt>
<trkpt lat="47.680992" lon="10.965158">
<ele>831.094</ele>
<time>2020-09-11T13:55:35Z</time>
</trkpt>
<trkpt lat="47.680988" lon="10.965211">
<ele>831.339</ele>
<time>2020-09-11T13:55:36Z</time>
</trkpt>
<trkpt lat="47.680984" lon="10.965261">
<ele>831.814</ele>
<time>2020-09-11T13:55:37Z</time>
</trkpt>
<trkpt lat="47.680977" lon="10.965312">
<ele>832.135</ele>
<time>2020-09-11T13:55:38Z</time>
</trkpt>
<trkpt lat="47.680962" lon="10.965358">
<ele>832.648</ele>
<time>2020-09-11T13:55:39Z</time>
</trkpt>
<trkpt lat="47.680943" lon="10.9654">
<ele>833.009</ele>
<time>2020-09-11T13:55:40Z</time>
</trkpt>
<trkpt lat="47.680927" lon="10.965444">
<ele>833.566</ele>
<time>2020-09-11T13:55:41Z</time>
</trkpt>
<trkpt lat="47.680912" lon="10.965482">
<ele>834.035</ele>
<time>2020-09-11T13:55:42Z</time>
</trkpt>
<trkpt lat="47.680897" lon="10.965528">
<ele>834.299</ele>
<time>2020-09-11T13:55:43Z</time>
</trkpt>
<trkpt lat="47.680885" lon="10.965569">
<ele>834.504</ele>
<time>2020-09-11T13:55:44Z</time>
</trkpt>
<trkpt lat="47.680866" lon="10.965609">
<ele>834.664</ele>
<time>2020-09-11T13:55:45Z</time>
</trkpt>
<trkpt lat="47.680851" lon="10.965647">
<ele>835.004</ele>
<time>2020-09-11T13:55:46Z</time>
</trkpt>
<trkpt lat="47.680832" lon="10.965689">
<ele>835.256</ele>
<time>2020-09-11T13:55:47Z</time>
</trkpt>
<trkpt lat="47.680813" lon="10.965725">
<ele>835.421</ele>
<time>2020-09-11T13:55:48Z</time>
</trkpt>
<trkpt lat="47.680794" lon="10.96576">
<ele>835.923</ele>
<time>2020-09-11T13:55:49Z</time>
</trkpt>
<trkpt lat="47.680767" lon="10.965792">
<ele>836.223</ele>
<time>2020-09-11T13:55:50Z</time>
</trkpt>
<trkpt lat="47.680748" lon="10.965823">
<ele>836.434</ele>
<time>2020-09-11T13:55:51Z</time>
</trkpt>
<trkpt lat="47.680725" lon="10.965857">
<ele>836.559</ele>
<time>2020-09-11T13:55:52Z</time>
</trkpt>
<trkpt lat="47.680698" lon="10.965888">
<ele>836.908</ele>
<time>2020-09-11T13:55:53Z</time>
</trkpt>
<trkpt lat="47.680672" lon="10.965919">
<ele>837.158</ele>
<time>2020-09-11T13:55:54Z</time>
</trkpt>
<trkpt lat="47.680649" lon="10.965946">
<ele>837.386</ele>
<time>2020-09-11T13:55:55Z</time>
</trkpt>
<trkpt lat="47.680626" lon="10.965974">
<ele>837.545</ele>
<time>2020-09-11T13:55:56Z</time>
</trkpt>
<trkpt lat="47.680603" lon="10.966001">
<ele>837.942</ele>
<time>2020-09-11T13:55:57Z</time>
</trkpt>
<trkpt lat="47.68058" lon="10.966025">
<ele>838.221</ele>
<time>2020-09-11T13:55:58Z</time>
</trkpt>
<trkpt lat="47.680553" lon="10.966048">
<ele>838.693</ele>
<time>2020-09-11T13:55:59Z</time>
</trkpt>
<trkpt lat="47.680531" lon="10.966072">
<ele>839.022</ele>
<time>2020-09-11T13:56:00Z</time>
</trkpt>
<trkpt lat="47.680504" lon="10.966093">
<ele>839.661</ele>
<time>2020-09-11T13:56:01Z</time>
</trkpt>
<trkpt lat="47.680477" lon="10.966115">
<ele>840.055</ele>
<time>2020-09-11T13:56:02Z</time>
</trkpt>
<trkpt lat="47.68045" lon="10.966139">
<ele>840.284</ele>
<time>2020-09-11T13:56:03Z</time>
</trkpt>
<trkpt lat="47.680424" lon="10.966156">
<ele>840.756</ele>
<time>2020-09-11T13:56:04Z</time>
</trkpt>
<trkpt lat="47.680401" lon="10.966177">
<ele>841.131</ele>
<time>2020-09-11T13:56:05Z</time>
</trkpt>
<trkpt lat="47.680374" lon="10.966197">
<ele>841.383</ele>
<time>2020-09-11T13:56:06Z</time>
</trkpt>
<trkpt lat="47.680347" lon="10.966213">
<ele>841.817</ele>
<time>2020-09-11T13:56:07Z</time>
</trkpt>
<trkpt lat="47.680328" lon="10.966229">
<ele>842.152</ele>
<time>2020-09-11T13:56:08Z</time>
</trkpt>
<trkpt lat="47.680302" lon="10.966249">
<ele>842.395</ele>
<time>2020-09-11T13:56:09Z</time>
</trkpt>
<trkpt lat="47.680275" lon="10.966267">
<ele>842.583</ele>
<time>2020-09-11T13:56:10Z</time>
</trkpt>
<trkpt lat="47.680252" lon="10.966286">
<ele>842.69</ele>
<time>2020-09-11T13:56:11Z</time>
</trkpt>
<trkpt lat="47.680225" lon="10.9663">
<ele>843.033</ele>
<time>2020-09-11T13:56:12Z</time>
</trkpt>
<trkpt lat="47.680202" lon="10.966313">
<ele>843.241</ele>
<time>2020-09-11T13:56:13Z</time>
</trkpt>
<trkpt lat="47.68018" lon="10.966327">
<ele>843.393</ele>
<time>2020-09-11T13:56:14Z</time>
</trkpt>
<trkpt lat="47.680153" lon="10.966342">
<ele>843.767</ele>
<time>2020-09-11T13:56:15Z</time>
</trkpt>
<trkpt lat="47.68013" lon="10.966358">
<ele>844.066</ele>
<time>2020-09-11T13:56:16Z</time>
</trkpt>
<trkpt lat="47.680107" lon="10.966375">
<ele>844.299</ele>
<time>2020-09-11T13:56:17Z</time>
</trkpt>
<trkpt lat="47.68008" lon="10.966393">
<ele>844.481</ele>
<time>2020-09-11T13:56:18Z</time>
</trkpt>
<trkpt lat="47.680054" lon="10.96641">
<ele>844.589</ele>
<time>2020-09-11T13:56:19Z</time>
</trkpt>
<trkpt lat="47.680027" lon="10.966428">
<ele>844.945</ele>
<time>2020-09-11T13:56:20Z</time>
</trkpt>
<trkpt lat="47.68" lon="10.966447">
<ele>845.232</ele>
<time>2020-09-11T13:56:21Z</time>
</trkpt>
<trkpt lat="47.679977" lon="10.966466">
<ele>845.438</ele>
<time>2020-09-11T13:56:23Z</time>
</trkpt>
<trkpt lat="47.679924" lon="10.966505">
<ele>845.67</ele>
<time>2020-09-11T13:56:24Z</time>
</trkpt>
<trkpt lat="47.679901" lon="10.966523">
<ele>846</ele>
<time>2020-09-11T13:56:25Z</time>
</trkpt>
<trkpt lat="47.679874" lon="10.966543">
<ele>846.253</ele>
<time>2020-09-11T13:56:26Z</time>
</trkpt>
<trkpt lat="47.679852" lon="10.966562">
<ele>846.447</ele>
<time>2020-09-11T13:56:27Z</time>
</trkpt>
<trkpt lat="47.679821" lon="10.966578">
<ele>846.582</ele>
<time>2020-09-11T13:56:28Z</time>
</trkpt>
<trkpt lat="47.67979" lon="10.966599">
<ele>846.687</ele>
<time>2020-09-11T13:56:29Z</time>
</trkpt>
<trkpt lat="47.679764" lon="10.966617">
<ele>846.763</ele>
<time>2020-09-11T13:56:30Z</time>
</trkpt>
<trkpt lat="47.679733" lon="10.966636">
<ele>846.811</ele>
<time>2020-09-11T13:56:31Z</time>
</trkpt>
<trkpt lat="47.679707" lon="10.966653">
<ele>846.833</ele>
<time>2020-09-11T13:56:32Z</time>
</trkpt>
<trkpt lat="47.679676" lon="10.966673">
<ele>847.06</ele>
<time>2020-09-11T13:56:33Z</time>
</trkpt>
<trkpt lat="47.679646" lon="10.966694">
<ele>847.217</ele>
<time>2020-09-11T13:56:34Z</time>
</trkpt>
<trkpt lat="47.679619" lon="10.96671">
<ele>847.377</ele>
<time>2020-09-11T13:56:35Z</time>
</trkpt>
<trkpt lat="47.679592" lon="10.966726">
<ele>847.501</ele>
<time>2020-09-11T13:56:36Z</time>
</trkpt>
<trkpt lat="47.679565" lon="10.966743">
<ele>847.597</ele>
<time>2020-09-11T13:56:37Z</time>
</trkpt>
<trkpt lat="47.679539" lon="10.96676">
<ele>847.661</ele>
<time>2020-09-11T13:56:38Z</time>
</trkpt>
<trkpt lat="47.679512" lon="10.966776">
<ele>847.965</ele>
<time>2020-09-11T13:56:39Z</time>
</trkpt>
<trkpt lat="47.679489" lon="10.966795">
<ele>848.207</ele>
<time>2020-09-11T13:56:40Z</time>
</trkpt>
<trkpt lat="47.679459" lon="10.966813">
<ele>848.428</ele>
<time>2020-09-11T13:56:41Z</time>
</trkpt>
<trkpt lat="47.679432" lon="10.96683">
<ele>848.56</ele>
<time>2020-09-11T13:56:42Z</time>
</trkpt>
<trkpt lat="47.679401" lon="10.966849">
<ele>848.656</ele>
<time>2020-09-11T13:56:43Z</time>
</trkpt>
<trkpt lat="47.679375" lon="10.96687">
<ele>848.726</ele>
<time>2020-09-11T13:56:44Z</time>
</trkpt>
<trkpt lat="47.679348" lon="10.966891">
<ele>848.79</ele>
<time>2020-09-11T13:56:45Z</time>
</trkpt>
<trkpt lat="47.679321" lon="10.966912">
<ele>848.818</ele>
<time>2020-09-11T13:56:46Z</time>
</trkpt>
<trkpt lat="47.679295" lon="10.966931">
<ele>848.818</ele>
<time>2020-09-11T13:56:47Z</time>
</trkpt>
<trkpt lat="47.679264" lon="10.966953">
<ele>848.818</ele>
<time>2020-09-11T13:56:48Z</time>
</trkpt>
<trkpt lat="47.679234" lon="10.966971">
<ele>848.818</ele>
<time>2020-09-11T13:56:49Z</time>
</trkpt>
<trkpt lat="47.679203" lon="10.966991">
<ele>849.084</ele>
<time>2020-09-11T13:56:50Z</time>
</trkpt>
<trkpt lat="47.679176" lon="10.967011">
<ele>849.288</ele>
<time>2020-09-11T13:56:51Z</time>
</trkpt>
<trkpt lat="47.67915" lon="10.967031">
<ele>849.446</ele>
<time>2020-09-11T13:56:52Z</time>
</trkpt>
<trkpt lat="47.679119" lon="10.967052">
<ele>849.562</ele>
<time>2020-09-11T13:56:53Z</time>
</trkpt>
<trkpt lat="47.679089" lon="10.967073">
<ele>849.645</ele>
<time>2020-09-11T13:56:54Z</time>
</trkpt>
<trkpt lat="47.679062" lon="10.967094">
<ele>849.73</ele>
<time>2020-09-11T13:56:55Z</time>
</trkpt>
<trkpt lat="47.679031" lon="10.967118">
<ele>849.784</ele>
<time>2020-09-11T13:56:56Z</time>
</trkpt>
<trkpt lat="47.679005" lon="10.96714">
<ele>849.81</ele>
<time>2020-09-11T13:56:57Z</time>
</trkpt>
<trkpt lat="47.678974" lon="10.967159">
<ele>849.81</ele>
<time>2020-09-11T13:56:58Z</time>
</trkpt>
<trkpt lat="47.678947" lon="10.967178">
<ele>849.81</ele>
<time>2020-09-11T13:56:59Z</time>
</trkpt>
<trkpt lat="47.678921" lon="10.967195">
<ele>849.81</ele>
<time>2020-09-11T13:57:00Z</time>
</trkpt>
<trkpt lat="47.678898" lon="10.967212">
<ele>849.81</ele>
<time>2020-09-11T13:57:01Z</time>
</trkpt>
<trkpt lat="47.678875" lon="10.96723">
<ele>849.81</ele>
<time>2020-09-11T13:57:02Z</time>
</trkpt>
<trkpt lat="47.678848" lon="10.96725">
<ele>849.81</ele>
<time>2020-09-11T13:57:03Z</time>
</trkpt>
<trkpt lat="47.678825" lon="10.967268">
<ele>849.81</ele>
<time>2020-09-11T13:57:04Z</time>
</trkpt>
<trkpt lat="47.678806" lon="10.967285">
<ele>849.81</ele>
<time>2020-09-11T13:57:05Z</time>
</trkpt>
<trkpt lat="47.678783" lon="10.967298">
<ele>849.81</ele>
<time>2020-09-11T13:57:06Z</time>
</trkpt>
<trkpt lat="47.678764" lon="10.96731">
<ele>849.81</ele>
<time>2020-09-11T13:57:07Z</time>
</trkpt>
<trkpt lat="47.678745" lon="10.967325">
<ele>849.81</ele>
<time>2020-09-11T13:57:08Z</time>
</trkpt>
<trkpt lat="47.678734" lon="10.96734">
<ele>849.81</ele>
<time>2020-09-11T13:57:09Z</time>
</trkpt>
<trkpt lat="47.678711" lon="10.967355">
<ele>849.81</ele>
<time>2020-09-11T13:57:10Z</time>
</trkpt>
<trkpt lat="47.678696" lon="10.967368">
<ele>849.81</ele>
<time>2020-09-11T13:57:11Z</time>
</trkpt>
<trkpt lat="47.678677" lon="10.96738">
<ele>849.81</ele>
<time>2020-09-11T13:57:12Z</time>
</trkpt>
<trkpt lat="47.678654" lon="10.967394">
<ele>849.81</ele>
<time>2020-09-11T13:57:13Z</time>
</trkpt>
<trkpt lat="47.678635" lon="10.96741">
<ele>849.81</ele>
<time>2020-09-11T13:57:14Z</time>
</trkpt>
<trkpt lat="47.678612" lon="10.96743">
<ele>849.81</ele>
<time>2020-09-11T13:57:15Z</time>
</trkpt>
<trkpt lat="47.678585" lon="10.967452">
<ele>849.81</ele>
<time>2020-09-11T13:57:16Z</time>
</trkpt>
<trkpt lat="47.678562" lon="10.96747">
<ele>849.81</ele>
<time>2020-09-11T13:57:17Z</time>
</trkpt>
<trkpt lat="47.678539" lon="10.967492">
<ele>849.81</ele>
<time>2020-09-11T13:57:18Z</time>
</trkpt>
<trkpt lat="47.678516" lon="10.967515">
<ele>849.81</ele>
<time>2020-09-11T13:57:19Z</time>
</trkpt>
<trkpt lat="47.678486" lon="10.967542">
<ele>849.81</ele>
<time>2020-09-11T13:57:20Z</time>
</trkpt>
<trkpt lat="47.678463" lon="10.967572">
<ele>849.81</ele>
<time>2020-09-11T13:57:21Z</time>
</trkpt>
<trkpt lat="47.67844" lon="10.967604">
<ele>849.81</ele>
<time>2020-09-11T13:57:22Z</time>
</trkpt>
<trkpt lat="47.678413" lon="10.967631">
<ele>849.558</ele>
<time>2020-09-11T13:57:23Z</time>
</trkpt>
<trkpt lat="47.678387" lon="10.967662">
<ele>849.384</ele>
<time>2020-09-11T13:57:24Z</time>
</trkpt>
<trkpt lat="47.678364" lon="10.967693">
<ele>849.206</ele>
<time>2020-09-11T13:57:25Z</time>
</trkpt>
<trkpt lat="47.678337" lon="10.967723">
<ele>849.07</ele>
<time>2020-09-11T13:57:26Z</time>
</trkpt>
<trkpt lat="47.678314" lon="10.967756">
<ele>848.965</ele>
<time>2020-09-11T13:57:27Z</time>
</trkpt>
<trkpt lat="47.678291" lon="10.967792">
<ele>848.89</ele>
<time>2020-09-11T13:57:28Z</time>
</trkpt>
<trkpt lat="47.678268" lon="10.967828">
<ele>848.845</ele>
<time>2020-09-11T13:57:29Z</time>
</trkpt>
<trkpt lat="47.678246" lon="10.967867">
<ele>848.596</ele>
<time>2020-09-11T13:57:30Z</time>
</trkpt>
<trkpt lat="47.678223" lon="10.967903">
<ele>848.387</ele>
<time>2020-09-11T13:57:31Z</time>
</trkpt>
<trkpt lat="47.678196" lon="10.967941">
<ele>848.243</ele>
<time>2020-09-11T13:57:32Z</time>
</trkpt>
<trkpt lat="47.678177" lon="10.967983">
<ele>848.137</ele>
<time>2020-09-11T13:57:33Z</time>
</trkpt>
<trkpt lat="47.678154" lon="10.968023">
<ele>848.063</ele>
<time>2020-09-11T13:57:34Z</time>
</trkpt>
<trkpt lat="47.678127" lon="10.96806">
<ele>847.986</ele>
<time>2020-09-11T13:57:35Z</time>
</trkpt>
<trkpt lat="47.678108" lon="10.968094">
<ele>847.939</ele>
<time>2020-09-11T13:57:36Z</time>
</trkpt>
<trkpt lat="47.678085" lon="10.96813">
<ele>847.676</ele>
<time>2020-09-11T13:57:37Z</time>
</trkpt>
<trkpt lat="47.678062" lon="10.968165">
<ele>847.412</ele>
<time>2020-09-11T13:57:38Z</time>
</trkpt>
<trkpt lat="47.678047" lon="10.968202">
<ele>847.248</ele>
<time>2020-09-11T13:57:39Z</time>
</trkpt>
<trkpt lat="47.678028" lon="10.96824">
<ele>847.124</ele>
<time>2020-09-11T13:57:40Z</time>
</trkpt>
<trkpt lat="47.678009" lon="10.968282">
<ele>847.036</ele>
<time>2020-09-11T13:57:41Z</time>
</trkpt>
<trkpt lat="47.677986" lon="10.96833">
<ele>846.983</ele>
<time>2020-09-11T13:57:42Z</time>
</trkpt>
<trkpt lat="47.677963" lon="10.968383">
<ele>846.7</ele>
<time>2020-09-11T13:57:43Z</time>
</trkpt>
<trkpt lat="47.67794" lon="10.968446">
<ele>846.496</ele>
<time>2020-09-11T13:57:44Z</time>
</trkpt>
<trkpt lat="47.677914" lon="10.968511">
<ele>846.306</ele>
<time>2020-09-11T13:57:45Z</time>
</trkpt>
<trkpt lat="47.677887" lon="10.968585">
<ele>846.178</ele>
<time>2020-09-11T13:57:46Z</time>
</trkpt>
<trkpt lat="47.67786" lon="10.968663">
<ele>845.784</ele>
<time>2020-09-11T13:57:47Z</time>
</trkpt>
<trkpt lat="47.677834" lon="10.968745">
<ele>845.499</ele>
<time>2020-09-11T13:57:48Z</time>
</trkpt>
<trkpt lat="47.677807" lon="10.968833">
<ele>845.294</ele>
<time>2020-09-11T13:57:49Z</time>
</trkpt>
<trkpt lat="47.67778" lon="10.968924">
<ele>845.154</ele>
<time>2020-09-11T13:57:50Z</time>
</trkpt>
<trkpt lat="47.677761" lon="10.969017">
<ele>845.046</ele>
<time>2020-09-11T13:57:51Z</time>
</trkpt>
<trkpt lat="47.677734" lon="10.969113">
<ele>844.753</ele>
<time>2020-09-11T13:57:52Z</time>
</trkpt>
<trkpt lat="47.677711" lon="10.969213">
<ele>844.541</ele>
<time>2020-09-11T13:57:53Z</time>
</trkpt>
<trkpt lat="47.677696" lon="10.969314">
<ele>844.401</ele>
<time>2020-09-11T13:57:54Z</time>
</trkpt>
<trkpt lat="47.677681" lon="10.969417">
<ele>844.271</ele>
<time>2020-09-11T13:57:55Z</time>
</trkpt>
<trkpt lat="47.67767" lon="10.969525">
<ele>844.181</ele>
<time>2020-09-11T13:57:56Z</time>
</trkpt>
<trkpt lat="47.677662" lon="10.969635">
<ele>843.86</ele>
<time>2020-09-11T13:57:57Z</time>
</trkpt>
<trkpt lat="47.677654" lon="10.969748">
<ele>843.608</ele>
<time>2020-09-11T13:57:58Z</time>
</trkpt>
<trkpt lat="47.67765" lon="10.969864">
<ele>843.452</ele>
<time>2020-09-11T13:57:59Z</time>
</trkpt>
<trkpt lat="47.67765" lon="10.969974">
<ele>842.957</ele>
<time>2020-09-11T13:58:00Z</time>
</trkpt>
<trkpt lat="47.67765" lon="10.970088">
<ele>842.639</ele>
<time>2020-09-11T13:58:01Z</time>
</trkpt>
<trkpt lat="47.677654" lon="10.970206">
<ele>842.411</ele>
<time>2020-09-11T13:58:02Z</time>
</trkpt>
<trkpt lat="47.677662" lon="10.970326">
<ele>842.285</ele>
<time>2020-09-11T13:58:03Z</time>
</trkpt>
<trkpt lat="47.67767" lon="10.970445">
<ele>841.898</ele>
<time>2020-09-11T13:58:04Z</time>
</trkpt>
<trkpt lat="47.677685" lon="10.970567">
<ele>841.576</ele>
<time>2020-09-11T13:58:05Z</time>
</trkpt>
<trkpt lat="47.6777" lon="10.970687">
<ele>841.331</ele>
<time>2020-09-11T13:58:06Z</time>
</trkpt>
<trkpt lat="47.677723" lon="10.97081">
<ele>841.177</ele>
<time>2020-09-11T13:58:07Z</time>
</trkpt>
<trkpt lat="47.677746" lon="10.970928">
<ele>840.827</ele>
<time>2020-09-11T13:58:08Z</time>
</trkpt>
<trkpt lat="47.677773" lon="10.971048">
<ele>840.59</ele>
<time>2020-09-11T13:58:09Z</time>
</trkpt>
<trkpt lat="47.677807" lon="10.971167">
<ele>840.103</ele>
<time>2020-09-11T13:58:10Z</time>
</trkpt>
<trkpt lat="47.677841" lon="10.971287">
<ele>839.725</ele>
<time>2020-09-11T13:58:11Z</time>
</trkpt>
<trkpt lat="47.677879" lon="10.971402">
<ele>839.454</ele>
<time>2020-09-11T13:58:12Z</time>
</trkpt>
<trkpt lat="47.677921" lon="10.971519">
<ele>839.016</ele>
<time>2020-09-11T13:58:13Z</time>
</trkpt>
<trkpt lat="47.677967" lon="10.971633">
<ele>838.685</ele>
<time>2020-09-11T13:58:14Z</time>
</trkpt>
<trkpt lat="47.678017" lon="10.971744">
<ele>838.126</ele>
<time>2020-09-11T13:58:15Z</time>
</trkpt>
<trkpt lat="47.678066" lon="10.97185">
<ele>837.704</ele>
<time>2020-09-11T13:58:16Z</time>
</trkpt>
<trkpt lat="47.678123" lon="10.971953">
<ele>837.389</ele>
<time>2020-09-11T13:58:17Z</time>
</trkpt>
<trkpt lat="47.678181" lon="10.972056">
<ele>837.205</ele>
<time>2020-09-11T13:58:18Z</time>
</trkpt>
<trkpt lat="47.67823" lon="10.97216">
<ele>836.786</ele>
<time>2020-09-11T13:58:19Z</time>
</trkpt>
<trkpt lat="47.678284" lon="10.97226">
<ele>836.468</ele>
<time>2020-09-11T13:58:20Z</time>
</trkpt>
<trkpt lat="47.678337" lon="10.972359">
<ele>836.248</ele>
<time>2020-09-11T13:58:21Z</time>
</trkpt>
<trkpt lat="47.678387" lon="10.972456">
<ele>836.086</ele>
<time>2020-09-11T13:58:22Z</time>
</trkpt>
<trkpt lat="47.678432" lon="10.972556">
<ele>835.983</ele>
<time>2020-09-11T13:58:23Z</time>
</trkpt>
<trkpt lat="47.678478" lon="10.972655">
<ele>835.92</ele>
<time>2020-09-11T13:58:24Z</time>
</trkpt>
<trkpt lat="47.67852" lon="10.97275">
<ele>835.864</ele>
<time>2020-09-11T13:58:25Z</time>
</trkpt>
<trkpt lat="47.678558" lon="10.972847">
<ele>835.622</ele>
<time>2020-09-11T13:58:26Z</time>
</trkpt>
<trkpt lat="47.6786" lon="10.972943">
<ele>835.369</ele>
<time>2020-09-11T13:58:27Z</time>
</trkpt>
<trkpt lat="47.678635" lon="10.973043">
<ele>835.208</ele>
<time>2020-09-11T13:58:28Z</time>
</trkpt>
<trkpt lat="47.678673" lon="10.973142">
<ele>835.091</ele>
<time>2020-09-11T13:58:29Z</time>
</trkpt>
<trkpt lat="47.678703" lon="10.973239">
<ele>835.011</ele>
<time>2020-09-11T13:58:30Z</time>
</trkpt>
<trkpt lat="47.678734" lon="10.973342">
<ele>834.958</ele>
<time>2020-09-11T13:58:31Z</time>
</trkpt>
<trkpt lat="47.678761" lon="10.973447">
<ele>834.934</ele>
<time>2020-09-11T13:58:32Z</time>
</trkpt>
<trkpt lat="47.678787" lon="10.97355">
<ele>834.934</ele>
<time>2020-09-11T13:58:33Z</time>
</trkpt>
<trkpt lat="47.67881" lon="10.973657">
<ele>834.934</ele>
<time>2020-09-11T13:58:34Z</time>
</trkpt>
<trkpt lat="47.678837" lon="10.973762">
<ele>834.934</ele>
<time>2020-09-11T13:58:35Z</time>
</trkpt>
<trkpt lat="47.678856" lon="10.973868">
<ele>834.934</ele>
<time>2020-09-11T13:58:36Z</time>
</trkpt>
<trkpt lat="47.678875" lon="10.973973">
<ele>834.934</ele>
<time>2020-09-11T13:58:37Z</time>
</trkpt>
<trkpt lat="47.67889" lon="10.974078">
<ele>834.934</ele>
<time>2020-09-11T13:58:38Z</time>
</trkpt>
<trkpt lat="47.678905" lon="10.974184">
<ele>834.934</ele>
<time>2020-09-11T13:58:39Z</time>
</trkpt>
<trkpt lat="47.678917" lon="10.974289">
<ele>834.934</ele>
<time>2020-09-11T13:58:40Z</time>
</trkpt>
<trkpt lat="47.678925" lon="10.974396">
<ele>834.935</ele>
<time>2020-09-11T13:58:41Z</time>
</trkpt>
<trkpt lat="47.678932" lon="10.974503">
<ele>834.934</ele>
<time>2020-09-11T13:58:42Z</time>
</trkpt>
<trkpt lat="47.67894" lon="10.974609">
<ele>834.695</ele>
<time>2020-09-11T13:58:43Z</time>
</trkpt>
<trkpt lat="47.67894" lon="10.974718">
<ele>834.523</ele>
<time>2020-09-11T13:58:44Z</time>
</trkpt>
<trkpt lat="47.678944" lon="10.974825">
<ele>834.345</ele>
<time>2020-09-11T13:58:45Z</time>
</trkpt>
<trkpt lat="47.678944" lon="10.974932">
<ele>834.204</ele>
<time>2020-09-11T13:58:46Z</time>
</trkpt>
<trkpt lat="47.67894" lon="10.975039">
<ele>834.096</ele>
<time>2020-09-11T13:58:47Z</time>
</trkpt>
<trkpt lat="47.678936" lon="10.975145">
<ele>834.018</ele>
<time>2020-09-11T13:58:48Z</time>
</trkpt>
<trkpt lat="47.678928" lon="10.975252">
<ele>833.971</ele>
<time>2020-09-11T13:58:49Z</time>
</trkpt>
<trkpt lat="47.678921" lon="10.975357">
<ele>833.704</ele>
<time>2020-09-11T13:58:50Z</time>
</trkpt>
<trkpt lat="47.678913" lon="10.975464">
<ele>833.476</ele>
<time>2020-09-11T13:58:51Z</time>
</trkpt>
<trkpt lat="47.678902" lon="10.97557">
<ele>833.321</ele>
<time>2020-09-11T13:58:52Z</time>
</trkpt>
<trkpt lat="47.678886" lon="10.975676">
<ele>833.201</ele>
<time>2020-09-11T13:58:53Z</time>
</trkpt>
<trkpt lat="47.678871" lon="10.975779">
<ele>833.118</ele>
<time>2020-09-11T13:58:54Z</time>
</trkpt>
<trkpt lat="47.678852" lon="10.975882">
<ele>833.033</ele>
<time>2020-09-11T13:58:55Z</time>
</trkpt>
<trkpt lat="47.678837" lon="10.975984">
<ele>832.979</ele>
<time>2020-09-11T13:58:56Z</time>
</trkpt>
<trkpt lat="47.678814" lon="10.976082">
<ele>832.953</ele>
<time>2020-09-11T13:58:57Z</time>
</trkpt>
<trkpt lat="47.678795" lon="10.976178">
<ele>832.953</ele>
<time>2020-09-11T13:58:58Z</time>
</trkpt>
<trkpt lat="47.678772" lon="10.976272">
<ele>832.953</ele>
<time>2020-09-11T13:58:59Z</time>
</trkpt>
<trkpt lat="47.678745" lon="10.976361">
<ele>832.953</ele>
<time>2020-09-11T13:59:00Z</time>
</trkpt>
<trkpt lat="47.678719" lon="10.97645">
<ele>832.953</ele>
<time>2020-09-11T13:59:01Z</time>
</trkpt>
<trkpt lat="47.678692" lon="10.976533">
<ele>832.953</ele>
<time>2020-09-11T13:59:02Z</time>
</trkpt>
<trkpt lat="47.678669" lon="10.976617">
<ele>832.953</ele>
<time>2020-09-11T13:59:03Z</time>
</trkpt>
<trkpt lat="47.678642" lon="10.976698">
<ele>833.168</ele>
<time>2020-09-11T13:59:04Z</time>
</trkpt>
<trkpt lat="47.678612" lon="10.976776">
<ele>833.373</ele>
<time>2020-09-11T13:59:05Z</time>
</trkpt>
<trkpt lat="47.678585" lon="10.976853">
<ele>833.543</ele>
<time>2020-09-11T13:59:06Z</time>
</trkpt>
<trkpt lat="47.678555" lon="10.976929">
<ele>833.681</ele>
<time>2020-09-11T13:59:07Z</time>
</trkpt>
<trkpt lat="47.678528" lon="10.977004">
<ele>833.789</ele>
<time>2020-09-11T13:59:08Z</time>
</trkpt>
<trkpt lat="47.678497" lon="10.977076">
<ele>833.868</ele>
<time>2020-09-11T13:59:09Z</time>
</trkpt>
<trkpt lat="47.678463" lon="10.977145">
<ele>833.919</ele>
<time>2020-09-11T13:59:10Z</time>
</trkpt>
<trkpt lat="47.678432" lon="10.977216">
<ele>833.944</ele>
<time>2020-09-11T13:59:11Z</time>
</trkpt>
<trkpt lat="47.678394" lon="10.977282">
<ele>833.944</ele>
<time>2020-09-11T13:59:12Z</time>
</trkpt>
<trkpt lat="47.678356" lon="10.977346">
<ele>833.944</ele>
<time>2020-09-11T13:59:13Z</time>
</trkpt>
<trkpt lat="47.678318" lon="10.97741">
<ele>834.143</ele>
<time>2020-09-11T13:59:14Z</time>
</trkpt>
<trkpt lat="47.678284" lon="10.977475">
<ele>834.333</ele>
<time>2020-09-11T13:59:15Z</time>
</trkpt>
<trkpt lat="47.678242" lon="10.977538">
<ele>834.489</ele>
<time>2020-09-11T13:59:16Z</time>
</trkpt>
<trkpt lat="47.6782" lon="10.977603">
<ele>834.545</ele>
<time>2020-09-11T13:59:17Z</time>
</trkpt>
<trkpt lat="47.678158" lon="10.977669">
<ele>834.421</ele>
<time>2020-09-11T13:59:18Z</time>
</trkpt>
<trkpt lat="47.678112" lon="10.97773">
<ele>834.311</ele>
<time>2020-09-11T13:59:19Z</time>
</trkpt>
<trkpt lat="47.678059" lon="10.977792">
<ele>834.213</ele>
<time>2020-09-11T13:59:20Z</time>
</trkpt>
<trkpt lat="47.678009" lon="10.977852">
<ele>834.152</ele>
<time>2020-09-11T13:59:21Z</time>
</trkpt>
<trkpt lat="47.677952" lon="10.977909">
<ele>833.813</ele>
<time>2020-09-11T13:59:22Z</time>
</trkpt>
<trkpt lat="47.677891" lon="10.977962">
<ele>833.594</ele>
<time>2020-09-11T13:59:23Z</time>
</trkpt>
<trkpt lat="47.67783" lon="10.978006">
<ele>833.172</ele>
<time>2020-09-11T13:59:24Z</time>
</trkpt>
<trkpt lat="47.677765" lon="10.978048">
<ele>832.812</ele>
<time>2020-09-11T13:59:25Z</time>
</trkpt>
<trkpt lat="47.6777" lon="10.978084">
<ele>832.577</ele>
<time>2020-09-11T13:59:26Z</time>
</trkpt>
<trkpt lat="47.677635" lon="10.97811">
<ele>832.073</ele>
<time>2020-09-11T13:59:27Z</time>
</trkpt>
<trkpt lat="47.677567" lon="10.978129">
<ele>831.732</ele>
<time>2020-09-11T13:59:28Z</time>
</trkpt>
<trkpt lat="47.677494" lon="10.978144">
<ele>831.204</ele>
<time>2020-09-11T13:59:29Z</time>
</trkpt>
<trkpt lat="47.677418" lon="10.978148">
<ele>830.855</ele>
<time>2020-09-11T13:59:30Z</time>
</trkpt>
<trkpt lat="47.677341" lon="10.978142">
<ele>830.328</ele>
<time>2020-09-11T13:59:31Z</time>
</trkpt>
<trkpt lat="47.677265" lon="10.978125">
<ele>829.57</ele>
<time>2020-09-11T13:59:32Z</time>
</trkpt>
<trkpt lat="47.677181" lon="10.978096">
<ele>829.15</ele>
<time>2020-09-11T13:59:33Z</time>
</trkpt>
<trkpt lat="47.677101" lon="10.978058">
<ele>828.472</ele>
<time>2020-09-11T13:59:34Z</time>
</trkpt>
<trkpt lat="47.677017" lon="10.978015">
<ele>827.714</ele>
<time>2020-09-11T13:59:35Z</time>
</trkpt>
<trkpt lat="47.676941" lon="10.97796">
<ele>826.882</ele>
<time>2020-09-11T13:59:36Z</time>
</trkpt>
<trkpt lat="47.676865" lon="10.977899">
<ele>826.005</ele>
<time>2020-09-11T13:59:37Z</time>
</trkpt>
<trkpt lat="47.676788" lon="10.977832">
<ele>825.076</ele>
<time>2020-09-11T13:59:38Z</time>
</trkpt>
<trkpt lat="47.676712" lon="10.977763">
<ele>824.157</ele>
<time>2020-09-11T13:59:39Z</time>
</trkpt>
<trkpt lat="47.676632" lon="10.977692">
<ele>823.165</ele>
<time>2020-09-11T13:59:40Z</time>
</trkpt>
<trkpt lat="47.676559" lon="10.977616">
<ele>822.161</ele>
<time>2020-09-11T13:59:41Z</time>
</trkpt>
<trkpt lat="47.676487" lon="10.97754">
<ele>821.164</ele>
<time>2020-09-11T13:59:42Z</time>
</trkpt>
<trkpt lat="47.676422" lon="10.977457">
<ele>820.161</ele>
<time>2020-09-11T13:59:43Z</time>
</trkpt>
<trkpt lat="47.67635" lon="10.977373">
<ele>819.163</ele>
<time>2020-09-11T13:59:44Z</time>
</trkpt>
<trkpt lat="47.676289" lon="10.977279">
<ele>818.171</ele>
<time>2020-09-11T13:59:45Z</time>
</trkpt>
<trkpt lat="47.676228" lon="10.977176">
<ele>817.096</ele>
<time>2020-09-11T13:59:46Z</time>
</trkpt>
<trkpt lat="47.676163" lon="10.977067">
<ele>816.367</ele>
<time>2020-09-11T13:59:47Z</time>
</trkpt>
<trkpt lat="47.676105" lon="10.976948">
<ele>815.53</ele>
<time>2020-09-11T13:59:48Z</time>
</trkpt>
<trkpt lat="47.676056" lon="10.976815">
<ele>814.644</ele>
<time>2020-09-11T13:59:49Z</time>
</trkpt>
<trkpt lat="47.67601" lon="10.976666">
<ele>813.676</ele>
<time>2020-09-11T13:59:50Z</time>
</trkpt>
<trkpt lat="47.675972" lon="10.976508">
<ele>812.688</ele>
<time>2020-09-11T13:59:51Z</time>
</trkpt>
<trkpt lat="47.675945" lon="10.976348">
<ele>811.677</ele>
<time>2020-09-11T13:59:52Z</time>
</trkpt>
<trkpt lat="47.675922" lon="10.976183">
<ele>810.585</ele>
<time>2020-09-11T13:59:53Z</time>
</trkpt>
<trkpt lat="47.6759" lon="10.976009">
<ele>809.87</ele>
<time>2020-09-11T13:59:54Z</time>
</trkpt>
<trkpt lat="47.675873" lon="10.975839">
<ele>808.986</ele>
<time>2020-09-11T13:59:55Z</time>
</trkpt>
<trkpt lat="47.675842" lon="10.975665">
<ele>808.42</ele>
<time>2020-09-11T13:59:56Z</time>
</trkpt>
<trkpt lat="47.675804" lon="10.975496">
<ele>807.765</ele>
<time>2020-09-11T13:59:57Z</time>
</trkpt>
<trkpt lat="47.675751" lon="10.975337">
<ele>806.981</ele>
<time>2020-09-11T13:59:58Z</time>
</trkpt>
<trkpt lat="47.675682" lon="10.9752">
<ele>806.401</ele>
<time>2020-09-11T13:59:59Z</time>
</trkpt>
<trkpt lat="47.675598" lon="10.975092">
<ele>805.981</ele>
<time>2020-09-11T14:00:00Z</time>
</trkpt>
<trkpt lat="47.675491" lon="10.97501">
<ele>805.735</ele>
<time>2020-09-11T14:00:01Z</time>
</trkpt>
<trkpt lat="47.675385" lon="10.974952">
<ele>805.266</ele>
<time>2020-09-11T14:00:02Z</time>
</trkpt>
<trkpt lat="47.675278" lon="10.974917">
<ele>804.923</ele>
<time>2020-09-11T14:00:03Z</time>
</trkpt>
<trkpt lat="47.675175" lon="10.974917">
<ele>804.706</ele>
<time>2020-09-11T14:00:04Z</time>
</trkpt>
<trkpt lat="47.675076" lon="10.97495">
<ele>804.532</ele>
<time>2020-09-11T14:00:05Z</time>
</trkpt>
<trkpt lat="47.674992" lon="10.975003">
<ele>804.421</ele>
<time>2020-09-11T14:00:06Z</time>
</trkpt>
<trkpt lat="47.674919" lon="10.975075">
<ele>804.362</ele>
<time>2020-09-11T14:00:07Z</time>
</trkpt>
<trkpt lat="47.674858" lon="10.975163">
<ele>804.602</ele>
<time>2020-09-11T14:00:08Z</time>
</trkpt>
<trkpt lat="47.674812" lon="10.975253">
<ele>804.786</ele>
<time>2020-09-11T14:00:09Z</time>
</trkpt>
<trkpt lat="47.67477" lon="10.975337">
<ele>805.231</ele>
<time>2020-09-11T14:00:10Z</time>
</trkpt>
<trkpt lat="47.674732" lon="10.975411">
<ele>805.583</ele>
<time>2020-09-11T14:00:11Z</time>
</trkpt>
<trkpt lat="47.674698" lon="10.975478">
<ele>805.814</ele>
<time>2020-09-11T14:00:12Z</time>
</trkpt>
<trkpt lat="47.674652" lon="10.97554">
<ele>806.232</ele>
<time>2020-09-11T14:00:13Z</time>
</trkpt>
<trkpt lat="47.67461" lon="10.975595">
<ele>806.58</ele>
<time>2020-09-11T14:00:14Z</time>
</trkpt>
<trkpt lat="47.674572" lon="10.975643">
<ele>807.115</ele>
<time>2020-09-11T14:00:15Z</time>
</trkpt>
<trkpt lat="47.674553" lon="10.975693">
<ele>807.523</ele>
<time>2020-09-11T14:00:16Z</time>
</trkpt>
<trkpt lat="47.674519" lon="10.975733">
<ele>807.856</ele>
<time>2020-09-11T14:00:17Z</time>
</trkpt>
<trkpt lat="47.67448" lon="10.97577">
<ele>808.098</ele>
<time>2020-09-11T14:00:18Z</time>
</trkpt>
<trkpt lat="47.674435" lon="10.975814">
<ele>808.278</ele>
<time>2020-09-11T14:00:19Z</time>
</trkpt>
<trkpt lat="47.674381" lon="10.97585">
<ele>808.396</ele>
<time>2020-09-11T14:00:20Z</time>
</trkpt>
<trkpt lat="47.674328" lon="10.975879">
<ele>808.454</ele>
<time>2020-09-11T14:00:21Z</time>
</trkpt>
<trkpt lat="47.674274" lon="10.975904">
<ele>808.483</ele>
<time>2020-09-11T14:00:22Z</time>
</trkpt>
<trkpt lat="47.674213" lon="10.975925">
<ele>808.483</ele>
<time>2020-09-11T14:00:23Z</time>
</trkpt>
<trkpt lat="47.67416" lon="10.975938">
<ele>808.483</ele>
<time>2020-09-11T14:00:24Z</time>
</trkpt>
<trkpt lat="47.67411" lon="10.975946">
<ele>808.483</ele>
<time>2020-09-11T14:00:25Z</time>
</trkpt>
<trkpt lat="47.674049" lon="10.975952">
<ele>808.483</ele>
<time>2020-09-11T14:00:26Z</time>
</trkpt>
<trkpt lat="47.673996" lon="10.975953">
<ele>808.483</ele>
<time>2020-09-11T14:00:27Z</time>
</trkpt>
<trkpt lat="47.673943" lon="10.97595">
<ele>808.483</ele>
<time>2020-09-11T14:00:28Z</time>
</trkpt>
<trkpt lat="47.673885" lon="10.97594">
<ele>808.483</ele>
<time>2020-09-11T14:00:29Z</time>
</trkpt>
<trkpt lat="47.673832" lon="10.975925">
<ele>808.483</ele>
<time>2020-09-11T14:00:30Z</time>
</trkpt>
<trkpt lat="47.673779" lon="10.975904">
<ele>808.483</ele>
<time>2020-09-11T14:00:31Z</time>
</trkpt>
<trkpt lat="47.673721" lon="10.975877">
<ele>808.483</ele>
<time>2020-09-11T14:00:32Z</time>
</trkpt>
<trkpt lat="47.673664" lon="10.97585">
<ele>808.483</ele>
<time>2020-09-11T14:00:33Z</time>
</trkpt>
<trkpt lat="47.673611" lon="10.975819">
<ele>808.483</ele>
<time>2020-09-11T14:00:34Z</time>
</trkpt>
<trkpt lat="47.673557" lon="10.975781">
<ele>808.483</ele>
<time>2020-09-11T14:00:35Z</time>
</trkpt>
<trkpt lat="47.673504" lon="10.975745">
<ele>808.483</ele>
<time>2020-09-11T14:00:36Z</time>
</trkpt>
<trkpt lat="47.673454" lon="10.975708">
<ele>808.483</ele>
<time>2020-09-11T14:00:37Z</time>
</trkpt>
<trkpt lat="47.673401" lon="10.97567">
<ele>808.736</ele>
<time>2020-09-11T14:00:38Z</time>
</trkpt>
<trkpt lat="47.673351" lon="10.975635">
<ele>808.929</ele>
<time>2020-09-11T14:00:39Z</time>
</trkpt>
<trkpt lat="47.673298" lon="10.975598">
<ele>809.077</ele>
<time>2020-09-11T14:00:40Z</time>
</trkpt>
<trkpt lat="47.673248" lon="10.97556">
<ele>809.186</ele>
<time>2020-09-11T14:00:41Z</time>
</trkpt>
<trkpt lat="47.673203" lon="10.975521">
<ele>809.267</ele>
<time>2020-09-11T14:00:42Z</time>
</trkpt>
<trkpt lat="47.673149" lon="10.975483">
<ele>809.305</ele>
<time>2020-09-11T14:00:43Z</time>
</trkpt>
<trkpt lat="47.673103" lon="10.975447">
<ele>809.575</ele>
<time>2020-09-11T14:00:44Z</time>
</trkpt>
<trkpt lat="47.67305" lon="10.97541">
<ele>809.808</ele>
<time>2020-09-11T14:00:45Z</time>
</trkpt>
<trkpt lat="47.673004" lon="10.975373">
<ele>809.978</ele>
<time>2020-09-11T14:00:46Z</time>
</trkpt>
<trkpt lat="47.672951" lon="10.975337">
<ele>810.115</ele>
<time>2020-09-11T14:00:47Z</time>
</trkpt>
<trkpt lat="47.672901" lon="10.975303">
<ele>810.204</ele>
<time>2020-09-11T14:00:48Z</time>
</trkpt>
<trkpt lat="47.672844" lon="10.975273">
<ele>810.53</ele>
<time>2020-09-11T14:00:49Z</time>
</trkpt>
<trkpt lat="47.672794" lon="10.975245">
<ele>810.787</ele>
<time>2020-09-11T14:00:50Z</time>
</trkpt>
<trkpt lat="47.672741" lon="10.975217">
<ele>810.98</ele>
<time>2020-09-11T14:00:51Z</time>
</trkpt>
<trkpt lat="47.672684" lon="10.97519">
<ele>811.13</ele>
<time>2020-09-11T14:00:52Z</time>
</trkpt>
<trkpt lat="47.672634" lon="10.975164">
<ele>811.215</ele>
<time>2020-09-11T14:00:53Z</time>
</trkpt>
<trkpt lat="47.672581" lon="10.975142">
<ele>811.277</ele>
<time>2020-09-11T14:00:54Z</time>
</trkpt>
<trkpt lat="47.672527" lon="10.975121">
<ele>811.331</ele>
<time>2020-09-11T14:00:55Z</time>
</trkpt>
<trkpt lat="47.672474" lon="10.975103">
<ele>811.576</ele>
<time>2020-09-11T14:00:56Z</time>
</trkpt>
<trkpt lat="47.672421" lon="10.975089">
<ele>811.833</ele>
<time>2020-09-11T14:00:57Z</time>
</trkpt>
<trkpt lat="47.672363" lon="10.975073">
<ele>811.991</ele>
<time>2020-09-11T14:00:58Z</time>
</trkpt>
<trkpt lat="47.67231" lon="10.975059">
<ele>812.106</ele>
<time>2020-09-11T14:00:59Z</time>
</trkpt>
<trkpt lat="47.672256" lon="10.975043">
<ele>812.182</ele>
<time>2020-09-11T14:01:00Z</time>
</trkpt>
<trkpt lat="47.672195" lon="10.975026">
<ele>812.232</ele>
<time>2020-09-11T14:01:01Z</time>
</trkpt>
<trkpt lat="47.672134" lon="10.975014">
<ele>812.254</ele>
<time>2020-09-11T14:01:02Z</time>
</trkpt>
<trkpt lat="47.672077" lon="10.975001">
<ele>812.258</ele>
<time>2020-09-11T14:01:03Z</time>
</trkpt>
<trkpt lat="47.672016" lon="10.974989">
<ele>812.258</ele>
<time>2020-09-11T14:01:04Z</time>
</trkpt>
<trkpt lat="47.671955" lon="10.974977">
<ele>812.258</ele>
<time>2020-09-11T14:01:05Z</time>
</trkpt>
<trkpt lat="47.671898" lon="10.974968">
<ele>812.258</ele>
<time>2020-09-11T14:01:06Z</time>
</trkpt>
<trkpt lat="47.671833" lon="10.974959">
<ele>812.258</ele>
<time>2020-09-11T14:01:07Z</time>
</trkpt>
<trkpt lat="47.671768" lon="10.974954">
<ele>812.002</ele>
<time>2020-09-11T14:01:08Z</time>
</trkpt>
<trkpt lat="47.671703" lon="10.974945">
<ele>811.804</ele>
<time>2020-09-11T14:01:09Z</time>
</trkpt>
<trkpt lat="47.671638" lon="10.974938">
<ele>811.656</ele>
<time>2020-09-11T14:01:10Z</time>
</trkpt>
<trkpt lat="47.67157" lon="10.974934">
<ele>811.547</ele>
<time>2020-09-11T14:01:11Z</time>
</trkpt>
<trkpt lat="47.671501" lon="10.974932">
<ele>811.468</ele>
<time>2020-09-11T14:01:12Z</time>
</trkpt>
<trkpt lat="47.671432" lon="10.97493">
<ele>811.421</ele>
<time>2020-09-11T14:01:13Z</time>
</trkpt>
<trkpt lat="47.671364" lon="10.974935">
<ele>811.382</ele>
<time>2020-09-11T14:01:14Z</time>
</trkpt>
<trkpt lat="47.671291" lon="10.97494">
<ele>811.113</ele>
<time>2020-09-11T14:01:15Z</time>
</trkpt>
<trkpt lat="47.671223" lon="10.974943">
<ele>810.908</ele>
<time>2020-09-11T14:01:16Z</time>
</trkpt>
<trkpt lat="47.67115" lon="10.974952">
<ele>810.743</ele>
<time>2020-09-11T14:01:17Z</time>
</trkpt>
<trkpt lat="47.671078" lon="10.974961">
<ele>810.612</ele>
<time>2020-09-11T14:01:18Z</time>
</trkpt>
<trkpt lat="47.670998" lon="10.974977">
<ele>810.511</ele>
<time>2020-09-11T14:01:19Z</time>
</trkpt>
<trkpt lat="47.670921" lon="10.974993">
<ele>810.451</ele>
<time>2020-09-11T14:01:20Z</time>
</trkpt>
<trkpt lat="47.670849" lon="10.975014">
<ele>810.149</ele>
<time>2020-09-11T14:01:21Z</time>
</trkpt>
<trkpt lat="47.670769" lon="10.975037">
<ele>809.919</ele>
<time>2020-09-11T14:01:22Z</time>
</trkpt>
<trkpt lat="47.670692" lon="10.975066">
<ele>809.753</ele>
<time>2020-09-11T14:01:23Z</time>
</trkpt>
<trkpt lat="47.67062" lon="10.975105">
<ele>809.65</ele>
<time>2020-09-11T14:01:24Z</time>
</trkpt>
<trkpt lat="47.670544" lon="10.975148">
<ele>809.538</ele>
<time>2020-09-11T14:01:25Z</time>
</trkpt>
<trkpt lat="47.670471" lon="10.975199">
<ele>809.458</ele>
<time>2020-09-11T14:01:26Z</time>
</trkpt>
<trkpt lat="47.670399" lon="10.975253">
<ele>809.409</ele>
<time>2020-09-11T14:01:27Z</time>
</trkpt>
<trkpt lat="47.670326" lon="10.975315">
<ele>809.137</ele>
<time>2020-09-11T14:01:28Z</time>
</trkpt>
<trkpt lat="47.670258" lon="10.975382">
<ele>808.885</ele>
<time>2020-09-11T14:01:29Z</time>
</trkpt>
<trkpt lat="47.670193" lon="10.975451">
<ele>808.719</ele>
<time>2020-09-11T14:01:30Z</time>
</trkpt>
<trkpt lat="47.670124" lon="10.975525">
<ele>808.598</ele>
<time>2020-09-11T14:01:31Z</time>
</trkpt>
<trkpt lat="47.670063" lon="10.975603">
<ele>808.515</ele>
<time>2020-09-11T14:01:32Z</time>
</trkpt>
<trkpt lat="47.670002" lon="10.975685">
<ele>808.475</ele>
<time>2020-09-11T14:01:33Z</time>
</trkpt>
<trkpt lat="47.669941" lon="10.975768">
<ele>808.22</ele>
<time>2020-09-11T14:01:34Z</time>
</trkpt>
<trkpt lat="47.669876" lon="10.97585">
<ele>808.004</ele>
<time>2020-09-11T14:01:35Z</time>
</trkpt>
<trkpt lat="47.669815" lon="10.975929">
<ele>807.849</ele>
<time>2020-09-11T14:01:36Z</time>
</trkpt>
<trkpt lat="47.669754" lon="10.976008">
<ele>807.724</ele>
<time>2020-09-11T14:01:37Z</time>
</trkpt>
<trkpt lat="47.669693" lon="10.976087">
<ele>807.629</ele>
<time>2020-09-11T14:01:38Z</time>
</trkpt>
<trkpt lat="47.669636" lon="10.976164">
<ele>807.561</ele>
<time>2020-09-11T14:01:39Z</time>
</trkpt>
<trkpt lat="47.669575" lon="10.976238">
<ele>807.516</ele>
<time>2020-09-11T14:01:40Z</time>
</trkpt>
<trkpt lat="47.669514" lon="10.976311">
<ele>807.494</ele>
<time>2020-09-11T14:01:41Z</time>
</trkpt>
<trkpt lat="47.669453" lon="10.97638">
<ele>807.495</ele>
<time>2020-09-11T14:01:42Z</time>
</trkpt>
<trkpt lat="47.669388" lon="10.976447">
<ele>807.494</ele>
<time>2020-09-11T14:01:43Z</time>
</trkpt>
<trkpt lat="47.669327" lon="10.976512">
<ele>807.494</ele>
<time>2020-09-11T14:01:44Z</time>
</trkpt>
<trkpt lat="47.669262" lon="10.976572">
<ele>807.495</ele>
<time>2020-09-11T14:01:45Z</time>
</trkpt>
<trkpt lat="47.669197" lon="10.976626">
<ele>807.495</ele>
<time>2020-09-11T14:01:46Z</time>
</trkpt>
<trkpt lat="47.669132" lon="10.976678">
<ele>807.494</ele>
<time>2020-09-11T14:01:47Z</time>
</trkpt>
<trkpt lat="47.669067" lon="10.97673">
<ele>807.494</ele>
<time>2020-09-11T14:01:48Z</time>
</trkpt>
<trkpt lat="47.669003" lon="10.976778">
<ele>807.494</ele>
<time>2020-09-11T14:01:49Z</time>
</trkpt>
<trkpt lat="47.668941" lon="10.97682">
<ele>807.494</ele>
<time>2020-09-11T14:01:50Z</time>
</trkpt>
<trkpt lat="47.668877" lon="10.976857">
<ele>807.494</ele>
<time>2020-09-11T14:01:51Z</time>
</trkpt>
<trkpt lat="47.668812" lon="10.976893">
<ele>807.494</ele>
<time>2020-09-11T14:01:52Z</time>
</trkpt>
<trkpt lat="47.668751" lon="10.976929">
<ele>807.494</ele>
<time>2020-09-11T14:01:53Z</time>
</trkpt>
<trkpt lat="47.66869" lon="10.976962">
<ele>807.494</ele>
<time>2020-09-11T14:01:54Z</time>
</trkpt>
<trkpt lat="47.668629" lon="10.976994">
<ele>807.494</ele>
<time>2020-09-11T14:01:55Z</time>
</trkpt>
<trkpt lat="47.668564" lon="10.977023">
<ele>807.495</ele>
<time>2020-09-11T14:01:56Z</time>
</trkpt>
<trkpt lat="47.668503" lon="10.97705">
<ele>807.495</ele>
<time>2020-09-11T14:01:57Z</time>
</trkpt>
<trkpt lat="47.668438" lon="10.977074">
<ele>807.495</ele>
<time>2020-09-11T14:01:58Z</time>
</trkpt>
<trkpt lat="47.668377" lon="10.977094">
<ele>807.494</ele>
<time>2020-09-11T14:01:59Z</time>
</trkpt>
<trkpt lat="47.668312" lon="10.977112">
<ele>807.494</ele>
<time>2020-09-11T14:02:00Z</time>
</trkpt>
<trkpt lat="47.668251" lon="10.977125">
<ele>807.495</ele>
<time>2020-09-11T14:02:01Z</time>
</trkpt>
<trkpt lat="47.66819" lon="10.977139">
<ele>807.495</ele>
<time>2020-09-11T14:02:02Z</time>
</trkpt>
<trkpt lat="47.668125" lon="10.977148">
<ele>807.494</ele>
<time>2020-09-11T14:02:03Z</time>
</trkpt>
<trkpt lat="47.668064" lon="10.977159">
<ele>807.495</ele>
<time>2020-09-11T14:02:04Z</time>
</trkpt>
<trkpt lat="47.668003" lon="10.977167">
<ele>807.495</ele>
<time>2020-09-11T14:02:05Z</time>
</trkpt>
<trkpt lat="47.667942" lon="10.977174">
<ele>807.495</ele>
<time>2020-09-11T14:02:06Z</time>
</trkpt>
<trkpt lat="47.667881" lon="10.97718">
<ele>807.494</ele>
<time>2020-09-11T14:02:07Z</time>
</trkpt>
<trkpt lat="47.667816" lon="10.977184">
<ele>807.494</ele>
<time>2020-09-11T14:02:08Z</time>
</trkpt>
<trkpt lat="47.667755" lon="10.977188">
<ele>807.495</ele>
<time>2020-09-11T14:02:09Z</time>
</trkpt>
<trkpt lat="47.66769" lon="10.977188">
<ele>807.495</ele>
<time>2020-09-11T14:02:10Z</time>
</trkpt>
<trkpt lat="47.667629" lon="10.977184">
<ele>807.494</ele>
<time>2020-09-11T14:02:11Z</time>
</trkpt>
<trkpt lat="47.667568" lon="10.977182">
<ele>807.494</ele>
<time>2020-09-11T14:02:12Z</time>
</trkpt>
<trkpt lat="47.667507" lon="10.977179">
<ele>807.495</ele>
<time>2020-09-11T14:02:13Z</time>
</trkpt>
<trkpt lat="47.667446" lon="10.977172">
<ele>807.494</ele>
<time>2020-09-11T14:02:14Z</time>
</trkpt>
<trkpt lat="47.667385" lon="10.977165">
<ele>807.494</ele>
<time>2020-09-11T14:02:15Z</time>
</trkpt>
<trkpt lat="47.667324" lon="10.977153">
<ele>807.494</ele>
<time>2020-09-11T14:02:16Z</time>
</trkpt>
<trkpt lat="47.667267" lon="10.97714">
<ele>807.494</ele>
<time>2020-09-11T14:02:17Z</time>
</trkpt>
<trkpt lat="47.667206" lon="10.977121">
<ele>807.494</ele>
<time>2020-09-11T14:02:18Z</time>
</trkpt>
<trkpt lat="47.667149" lon="10.977103">
<ele>807.495</ele>
<time>2020-09-11T14:02:19Z</time>
</trkpt>
<trkpt lat="47.667091" lon="10.977083">
<ele>807.495</ele>
<time>2020-09-11T14:02:20Z</time>
</trkpt>
<trkpt lat="47.667034" lon="10.977061">
<ele>807.495</ele>
<time>2020-09-11T14:02:21Z</time>
</trkpt>
<trkpt lat="47.666973" lon="10.977042">
<ele>807.494</ele>
<time>2020-09-11T14:02:22Z</time>
</trkpt>
<trkpt lat="47.666916" lon="10.97702">
<ele>807.494</ele>
<time>2020-09-11T14:02:23Z</time>
</trkpt>
<trkpt lat="47.666859" lon="10.976998">
<ele>807.494</ele>
<time>2020-09-11T14:02:24Z</time>
</trkpt>
<trkpt lat="47.666801" lon="10.976976">
<ele>807.494</ele>
<time>2020-09-11T14:02:25Z</time>
</trkpt>
<trkpt lat="47.666744" lon="10.976954">
<ele>807.494</ele>
<time>2020-09-11T14:02:26Z</time>
</trkpt>
<trkpt lat="47.666683" lon="10.976931">
<ele>807.495</ele>
<time>2020-09-11T14:02:27Z</time>
</trkpt>
<trkpt lat="47.666622" lon="10.976908">
<ele>807.495</ele>
<time>2020-09-11T14:02:28Z</time>
</trkpt>
<trkpt lat="47.666565" lon="10.976887">
<ele>807.494</ele>
<time>2020-09-11T14:02:29Z</time>
</trkpt>
<trkpt lat="47.666508" lon="10.976867">
<ele>807.495</ele>
<time>2020-09-11T14:02:30Z</time>
</trkpt>
<trkpt lat="47.666451" lon="10.976847">
<ele>807.495</ele>
<time>2020-09-11T14:02:31Z</time>
</trkpt>
<trkpt lat="47.666389" lon="10.976827">
<ele>807.495</ele>
<time>2020-09-11T14:02:32Z</time>
</trkpt>
<trkpt lat="47.666328" lon="10.976807">
<ele>807.494</ele>
<time>2020-09-11T14:02:33Z</time>
</trkpt>
<trkpt lat="47.666271" lon="10.97679">
<ele>807.495</ele>
<time>2020-09-11T14:02:34Z</time>
</trkpt>
<trkpt lat="47.66621" lon="10.976775">
<ele>807.494</ele>
<time>2020-09-11T14:02:35Z</time>
</trkpt>
<trkpt lat="47.666153" lon="10.976762">
<ele>807.494</ele>
<time>2020-09-11T14:02:36Z</time>
</trkpt>
<trkpt lat="47.666092" lon="10.97675">
<ele>807.781</ele>
<time>2020-09-11T14:02:37Z</time>
</trkpt>
<trkpt lat="47.666031" lon="10.976742">
<ele>808.003</ele>
<time>2020-09-11T14:02:38Z</time>
</trkpt>
<trkpt lat="47.665966" lon="10.976733">
<ele>808.171</ele>
<time>2020-09-11T14:02:39Z</time>
</trkpt>
<trkpt lat="47.665909" lon="10.976726">
<ele>808.293</ele>
<time>2020-09-11T14:02:40Z</time>
</trkpt>
<trkpt lat="47.665848" lon="10.97672">
<ele>808.378</ele>
<time>2020-09-11T14:02:41Z</time>
</trkpt>
<trkpt lat="47.665787" lon="10.976717">
<ele>808.432</ele>
<time>2020-09-11T14:02:42Z</time>
</trkpt>
<trkpt lat="47.665726" lon="10.976713">
<ele>808.46</ele>
<time>2020-09-11T14:02:43Z</time>
</trkpt>
<trkpt lat="47.665668" lon="10.97671">
<ele>808.483</ele>
<time>2020-09-11T14:02:44Z</time>
</trkpt>
<trkpt lat="47.665604" lon="10.976708">
<ele>808.483</ele>
<time>2020-09-11T14:02:45Z</time>
</trkpt>
<trkpt lat="47.665546" lon="10.976708">
<ele>808.483</ele>
<time>2020-09-11T14:02:46Z</time>
</trkpt>
<trkpt lat="47.665485" lon="10.976711">
<ele>808.483</ele>
<time>2020-09-11T14:02:47Z</time>
</trkpt>
<trkpt lat="47.665424" lon="10.976715">
<ele>808.483</ele>
<time>2020-09-11T14:02:48Z</time>
</trkpt>
<trkpt lat="47.665363" lon="10.97672">
<ele>808.483</ele>
<time>2020-09-11T14:02:49Z</time>
</trkpt>
<trkpt lat="47.665306" lon="10.976726">
<ele>808.483</ele>
<time>2020-09-11T14:02:50Z</time>
</trkpt>
<trkpt lat="47.665241" lon="10.976728">
<ele>808.483</ele>
<time>2020-09-11T14:02:51Z</time>
</trkpt>
<trkpt lat="47.66518" lon="10.97673">
<ele>808.483</ele>
<time>2020-09-11T14:02:52Z</time>
</trkpt>
<trkpt lat="47.665119" lon="10.97673">
<ele>808.483</ele>
<time>2020-09-11T14:02:53Z</time>
</trkpt>
<trkpt lat="47.665058" lon="10.97673">
<ele>808.483</ele>
<time>2020-09-11T14:02:54Z</time>
</trkpt>
<trkpt lat="47.664997" lon="10.97673">
<ele>808.483</ele>
<time>2020-09-11T14:02:55Z</time>
</trkpt>
<trkpt lat="47.664936" lon="10.97673">
<ele>808.805</ele>
<time>2020-09-11T14:02:56Z</time>
</trkpt>
<trkpt lat="47.664875" lon="10.976726">
<ele>809.053</ele>
<time>2020-09-11T14:02:57Z</time>
</trkpt>
<trkpt lat="47.664814" lon="10.976719">
<ele>809.242</ele>
<time>2020-09-11T14:02:58Z</time>
</trkpt>
<trkpt lat="47.664753" lon="10.97671">
<ele>809.378</ele>
<time>2020-09-11T14:02:59Z</time>
</trkpt>
<trkpt lat="47.664692" lon="10.9767">
<ele>809.473</ele>
<time>2020-09-11T14:03:00Z</time>
</trkpt>
<trkpt lat="47.664631" lon="10.976686">
<ele>809.534</ele>
<time>2020-09-11T14:03:01Z</time>
</trkpt>
<trkpt lat="47.664574" lon="10.97667">
<ele>809.561</ele>
<time>2020-09-11T14:03:02Z</time>
</trkpt>
<trkpt lat="47.664516" lon="10.976648">
<ele>809.561</ele>
<time>2020-09-11T14:03:03Z</time>
</trkpt>
<trkpt lat="47.664459" lon="10.976625">
<ele>809.561</ele>
<time>2020-09-11T14:03:04Z</time>
</trkpt>
<trkpt lat="47.664398" lon="10.976597">
<ele>809.561</ele>
<time>2020-09-11T14:03:05Z</time>
</trkpt>
<trkpt lat="47.664341" lon="10.976564">
<ele>809.561</ele>
<time>2020-09-11T14:03:06Z</time>
</trkpt>
<trkpt lat="47.664288" lon="10.976528">
<ele>809.561</ele>
<time>2020-09-11T14:03:07Z</time>
</trkpt>
<trkpt lat="47.664234" lon="10.976488">
<ele>809.561</ele>
<time>2020-09-11T14:03:08Z</time>
</trkpt>
<trkpt lat="47.664177" lon="10.976445">
<ele>809.561</ele>
<time>2020-09-11T14:03:09Z</time>
</trkpt>
<trkpt lat="47.664127" lon="10.9764">
<ele>809.561</ele>
<time>2020-09-11T14:03:10Z</time>
</trkpt>
<trkpt lat="47.664074" lon="10.97635">
<ele>809.561</ele>
<time>2020-09-11T14:03:11Z</time>
</trkpt>
<trkpt lat="47.664032" lon="10.976298">
<ele>809.561</ele>
<time>2020-09-11T14:03:12Z</time>
</trkpt>
<trkpt lat="47.66399" lon="10.976245">
<ele>809.561</ele>
<time>2020-09-11T14:03:13Z</time>
</trkpt>
<trkpt lat="47.663944" lon="10.976183">
<ele>809.561</ele>
<time>2020-09-11T14:03:14Z</time>
</trkpt>
<trkpt lat="47.663906" lon="10.976122">
<ele>809.561</ele>
<time>2020-09-11T14:03:15Z</time>
</trkpt>
<trkpt lat="47.663864" lon="10.976057">
<ele>809.561</ele>
<time>2020-09-11T14:03:16Z</time>
</trkpt>
<trkpt lat="47.663822" lon="10.975992">
<ele>809.561</ele>
<time>2020-09-11T14:03:17Z</time>
</trkpt>
<trkpt lat="47.66378" lon="10.975927">
<ele>809.561</ele>
<time>2020-09-11T14:03:18Z</time>
</trkpt>
<trkpt lat="47.663746" lon="10.975862">
<ele>809.561</ele>
<time>2020-09-11T14:03:19Z</time>
</trkpt>
<trkpt lat="47.663704" lon="10.975793">
<ele>809.801</ele>
<time>2020-09-11T14:03:20Z</time>
</trkpt>
<trkpt lat="47.66367" lon="10.975724">
<ele>809.987</ele>
<time>2020-09-11T14:03:21Z</time>
</trkpt>
<trkpt lat="47.663631" lon="10.975655">
<ele>810.128</ele>
<time>2020-09-11T14:03:22Z</time>
</trkpt>
<trkpt lat="47.663593" lon="10.975586">
<ele>810.235</ele>
<time>2020-09-11T14:03:23Z</time>
</trkpt>
<trkpt lat="47.663555" lon="10.975514">
<ele>810.31</ele>
<time>2020-09-11T14:03:24Z</time>
</trkpt>
<trkpt lat="47.663517" lon="10.975447">
<ele>810.386</ele>
<time>2020-09-11T14:03:25Z</time>
</trkpt>
<trkpt lat="47.663475" lon="10.97538">
<ele>810.436</ele>
<time>2020-09-11T14:03:26Z</time>
</trkpt>
<trkpt lat="47.663433" lon="10.975322">
<ele>810.46</ele>
<time>2020-09-11T14:03:27Z</time>
</trkpt>
<trkpt lat="47.663399" lon="10.975275">
<ele>810.46</ele>
<time>2020-09-11T14:03:28Z</time>
</trkpt>
<trkpt lat="47.663368" lon="10.975236">
<ele>810.46</ele>
<time>2020-09-11T14:03:29Z</time>
</trkpt>
<trkpt lat="47.663349" lon="10.975217">
<ele>810.46</ele>
<time>2020-09-11T14:03:30Z</time>
</trkpt>
<trkpt lat="47.663338" lon="10.975215">
<ele>810.46</ele>
<time>2020-09-11T14:03:31Z</time>
</trkpt>
<trkpt lat="47.663334" lon="10.975217">
<ele>810.46</ele>
<time>2020-09-11T14:03:32Z</time>
</trkpt>
<trkpt lat="47.663334" lon="10.975215">
<ele>810.46</ele>
<time>2020-09-11T14:03:33Z</time>
</trkpt>
<trkpt lat="47.663322" lon="10.975213">
<ele>810.62</ele>
<time>2020-09-11T14:06:48Z</time>
</trkpt>
<trkpt lat="47.663322" lon="10.975211">
<ele>810.906</ele>
<time>2020-09-11T14:06:51Z</time>
</trkpt>
<trkpt lat="47.663315" lon="10.975213">
<ele>811.039</ele>
<time>2020-09-11T14:07:10Z</time>
</trkpt>
<trkpt lat="47.6633" lon="10.975204">
<ele>811.188</ele>
<time>2020-09-11T14:07:11Z</time>
</trkpt>
<trkpt lat="47.663292" lon="10.975195">
<ele>811.356</ele>
<time>2020-09-11T14:07:12Z</time>
</trkpt>
<trkpt lat="47.663277" lon="10.975182">
<ele>811.44</ele>
<time>2020-09-11T14:07:13Z</time>
</trkpt>
<trkpt lat="47.663258" lon="10.975161">
<ele>811.448</ele>
<time>2020-09-11T14:07:14Z</time>
</trkpt>
<trkpt lat="47.663235" lon="10.975135">
<ele>811.448</ele>
<time>2020-09-11T14:07:15Z</time>
</trkpt>
<trkpt lat="47.663212" lon="10.975115">
<ele>811.448</ele>
<time>2020-09-11T14:07:16Z</time>
</trkpt>
<trkpt lat="47.663185" lon="10.975095">
<ele>811.449</ele>
<time>2020-09-11T14:07:17Z</time>
</trkpt>
<trkpt lat="47.663155" lon="10.975073">
<ele>811.449</ele>
<time>2020-09-11T14:07:18Z</time>
</trkpt>
<trkpt lat="47.663128" lon="10.97505">
<ele>811.449</ele>
<time>2020-09-11T14:07:19Z</time>
</trkpt>
<trkpt lat="47.663094" lon="10.975024">
<ele>811.449</ele>
<time>2020-09-11T14:07:20Z</time>
</trkpt>
<trkpt lat="47.663071" lon="10.975001">
<ele>811.448</ele>
<time>2020-09-11T14:07:21Z</time>
</trkpt>
<trkpt lat="47.663036" lon="10.974983">
<ele>811.449</ele>
<time>2020-09-11T14:07:22Z</time>
</trkpt>
<trkpt lat="47.663006" lon="10.974966">
<ele>811.448</ele>
<time>2020-09-11T14:07:23Z</time>
</trkpt>
<trkpt lat="47.662971" lon="10.97495">
<ele>811.449</ele>
<time>2020-09-11T14:07:24Z</time>
</trkpt>
<trkpt lat="47.662937" lon="10.97493">
<ele>811.449</ele>
<time>2020-09-11T14:07:25Z</time>
</trkpt>
<trkpt lat="47.662899" lon="10.974912">
<ele>811.449</ele>
<time>2020-09-11T14:07:26Z</time>
</trkpt>
<trkpt lat="47.662868" lon="10.974895">
<ele>811.448</ele>
<time>2020-09-11T14:07:27Z</time>
</trkpt>
<trkpt lat="47.662827" lon="10.974882">
<ele>811.448</ele>
<time>2020-09-11T14:07:28Z</time>
</trkpt>
<trkpt lat="47.662788" lon="10.974867">
<ele>811.449</ele>
<time>2020-09-11T14:07:29Z</time>
</trkpt>
<trkpt lat="47.662746" lon="10.974856">
<ele>811.448</ele>
<time>2020-09-11T14:07:30Z</time>
</trkpt>
<trkpt lat="47.662708" lon="10.974849">
<ele>811.449</ele>
<time>2020-09-11T14:07:31Z</time>
</trkpt>
<trkpt lat="47.662666" lon="10.974842">
<ele>811.449</ele>
<time>2020-09-11T14:07:32Z</time>
</trkpt>
<trkpt lat="47.662624" lon="10.974836">
<ele>811.449</ele>
<time>2020-09-11T14:07:33Z</time>
</trkpt>
<trkpt lat="47.662582" lon="10.974835">
<ele>811.448</ele>
<time>2020-09-11T14:07:34Z</time>
</trkpt>
<trkpt lat="47.66254" lon="10.974835">
<ele>811.448</ele>
<time>2020-09-11T14:07:35Z</time>
</trkpt>
<trkpt lat="47.662498" lon="10.974832">
<ele>811.449</ele>
<time>2020-09-11T14:07:36Z</time>
</trkpt>
<trkpt lat="47.662453" lon="10.97483">
<ele>811.449</ele>
<time>2020-09-11T14:07:37Z</time>
</trkpt>
<trkpt lat="47.662411" lon="10.974832">
<ele>811.448</ele>
<time>2020-09-11T14:07:38Z</time>
</trkpt>
<trkpt lat="47.662365" lon="10.974833">
<ele>811.449</ele>
<time>2020-09-11T14:07:39Z</time>
</trkpt>
<trkpt lat="47.662315" lon="10.974836">
<ele>811.448</ele>
<time>2020-09-11T14:07:40Z</time>
</trkpt>
<trkpt lat="47.66227" lon="10.97484">
<ele>811.449</ele>
<time>2020-09-11T14:07:41Z</time>
</trkpt>
<trkpt lat="47.662216" lon="10.974844">
<ele>811.449</ele>
<time>2020-09-11T14:07:42Z</time>
</trkpt>
<trkpt lat="47.662167" lon="10.974847">
<ele>811.449</ele>
<time>2020-09-11T14:07:43Z</time>
</trkpt>
<trkpt lat="47.662113" lon="10.974852">
<ele>811.449</ele>
<time>2020-09-11T14:07:44Z</time>
</trkpt>
<trkpt lat="47.662056" lon="10.974854">
<ele>811.449</ele>
<time>2020-09-11T14:07:45Z</time>
</trkpt>
<trkpt lat="47.661999" lon="10.974858">
<ele>811.449</ele>
<time>2020-09-11T14:07:46Z</time>
</trkpt>
<trkpt lat="47.661942" lon="10.974863">
<ele>811.449</ele>
<time>2020-09-11T14:07:47Z</time>
</trkpt>
<trkpt lat="47.66188" lon="10.974867">
<ele>811.195</ele>
<time>2020-09-11T14:07:48Z</time>
</trkpt>
<trkpt lat="47.661816" lon="10.974867">
<ele>810.99</ele>
<time>2020-09-11T14:07:49Z</time>
</trkpt>
<trkpt lat="47.661751" lon="10.974861">
<ele>810.823</ele>
<time>2020-09-11T14:07:50Z</time>
</trkpt>
<trkpt lat="47.661682" lon="10.974853">
<ele>810.691</ele>
<time>2020-09-11T14:07:51Z</time>
</trkpt>
<trkpt lat="47.66161" lon="10.974838">
<ele>810.616</ele>
<time>2020-09-11T14:07:52Z</time>
</trkpt>
<trkpt lat="47.661537" lon="10.974821">
<ele>810.303</ele>
<time>2020-09-11T14:07:53Z</time>
</trkpt>
<trkpt lat="47.661469" lon="10.974802">
<ele>810.065</ele>
<time>2020-09-11T14:07:54Z</time>
</trkpt>
<trkpt lat="47.6614" lon="10.974779">
<ele>809.893</ele>
<time>2020-09-11T14:07:55Z</time>
</trkpt>
<trkpt lat="47.661331" lon="10.974754">
<ele>809.775</ele>
<time>2020-09-11T14:07:56Z</time>
</trkpt>
<trkpt lat="47.661263" lon="10.974735">
<ele>809.704</ele>
<time>2020-09-11T14:07:57Z</time>
</trkpt>
<trkpt lat="47.661194" lon="10.974718">
<ele>809.631</ele>
<time>2020-09-11T14:07:58Z</time>
</trkpt>
<trkpt lat="47.661125" lon="10.974707">
<ele>809.584</ele>
<time>2020-09-11T14:07:59Z</time>
</trkpt>
<trkpt lat="47.66106" lon="10.9747">
<ele>809.561</ele>
<time>2020-09-11T14:08:00Z</time>
</trkpt>
<trkpt lat="47.660992" lon="10.9747">
<ele>809.561</ele>
<time>2020-09-11T14:08:01Z</time>
</trkpt>
<trkpt lat="47.660927" lon="10.974706">
<ele>809.561</ele>
<time>2020-09-11T14:08:02Z</time>
</trkpt>
<trkpt lat="47.660862" lon="10.974716">
<ele>809.561</ele>
<time>2020-09-11T14:08:03Z</time>
</trkpt>
<trkpt lat="47.660801" lon="10.974731">
<ele>809.561</ele>
<time>2020-09-11T14:08:04Z</time>
</trkpt>
<trkpt lat="47.660744" lon="10.974748">
<ele>809.561</ele>
<time>2020-09-11T14:08:05Z</time>
</trkpt>
<trkpt lat="47.660683" lon="10.974767">
<ele>809.561</ele>
<time>2020-09-11T14:08:06Z</time>
</trkpt>
<trkpt lat="47.660622" lon="10.974779">
<ele>809.561</ele>
<time>2020-09-11T14:08:07Z</time>
</trkpt>
<trkpt lat="47.660564" lon="10.974793">
<ele>809.561</ele>
<time>2020-09-11T14:08:08Z</time>
</trkpt>
<trkpt lat="47.660503" lon="10.974811">
<ele>809.561</ele>
<time>2020-09-11T14:08:09Z</time>
</trkpt>
<trkpt lat="47.660446" lon="10.974827">
<ele>809.561</ele>
<time>2020-09-11T14:08:10Z</time>
</trkpt>
<trkpt lat="47.660389" lon="10.97484">
<ele>809.561</ele>
<time>2020-09-11T14:08:11Z</time>
</trkpt>
<trkpt lat="47.660336" lon="10.974849">
<ele>809.561</ele>
<time>2020-09-11T14:08:12Z</time>
</trkpt>
<trkpt lat="47.660282" lon="10.974851">
<ele>809.561</ele>
<time>2020-09-11T14:08:13Z</time>
</trkpt>
<trkpt lat="47.660225" lon="10.974849">
<ele>809.787</ele>
<time>2020-09-11T14:08:14Z</time>
</trkpt>
<trkpt lat="47.660172" lon="10.974845">
<ele>809.966</ele>
<time>2020-09-11T14:08:15Z</time>
</trkpt>
<trkpt lat="47.660118" lon="10.97484">
<ele>810.106</ele>
<time>2020-09-11T14:08:16Z</time>
</trkpt>
<trkpt lat="47.660065" lon="10.974835">
<ele>810.204</ele>
<time>2020-09-11T14:08:17Z</time>
</trkpt>
<trkpt lat="47.660015" lon="10.974832">
<ele>810.306</ele>
<time>2020-09-11T14:08:18Z</time>
</trkpt>
<trkpt lat="47.659966" lon="10.974828">
<ele>810.621</ele>
<time>2020-09-11T14:08:19Z</time>
</trkpt>
<trkpt lat="47.659916" lon="10.97482">
<ele>810.868</ele>
<time>2020-09-11T14:08:20Z</time>
</trkpt>
<trkpt lat="47.65987" lon="10.974815">
<ele>811.059</ele>
<time>2020-09-11T14:08:21Z</time>
</trkpt>
<trkpt lat="47.659824" lon="10.974804">
<ele>811.257</ele>
<time>2020-09-11T14:08:22Z</time>
</trkpt>
<trkpt lat="47.659782" lon="10.974792">
<ele>811.585</ele>
<time>2020-09-11T14:08:23Z</time>
</trkpt>
<trkpt lat="47.659737" lon="10.974779">
<ele>811.831</ele>
<time>2020-09-11T14:08:24Z</time>
</trkpt>
<trkpt lat="47.659702" lon="10.97476">
<ele>812.005</ele>
<time>2020-09-11T14:08:25Z</time>
</trkpt>
<trkpt lat="47.659664" lon="10.974742">
<ele>812.112</ele>
<time>2020-09-11T14:08:26Z</time>
</trkpt>
<trkpt lat="47.65963" lon="10.974727">
<ele>812.19</ele>
<time>2020-09-11T14:08:27Z</time>
</trkpt>
<trkpt lat="47.659599" lon="10.97471">
<ele>812.495</ele>
<time>2020-09-11T14:08:28Z</time>
</trkpt>
<trkpt lat="47.659557" lon="10.974689">
<ele>812.746</ele>
<time>2020-09-11T14:08:29Z</time>
</trkpt>
<trkpt lat="47.659519" lon="10.974665">
<ele>812.939</ele>
<time>2020-09-11T14:08:30Z</time>
</trkpt>
<trkpt lat="47.659481" lon="10.974647">
<ele>813.049</ele>
<time>2020-09-11T14:08:31Z</time>
</trkpt>
<trkpt lat="47.659447" lon="10.974625">
<ele>813.405</ele>
<time>2020-09-11T14:08:32Z</time>
</trkpt>
<trkpt lat="47.659412" lon="10.9746">
<ele>813.696</ele>
<time>2020-09-11T14:08:33Z</time>
</trkpt>
<trkpt lat="47.659378" lon="10.97458">
<ele>813.889</ele>
<time>2020-09-11T14:08:34Z</time>
</trkpt>
<trkpt lat="47.65934" lon="10.974557">
<ele>814.308</ele>
<time>2020-09-11T14:08:35Z</time>
</trkpt>
<trkpt lat="47.659306" lon="10.97453">
<ele>814.619</ele>
<time>2020-09-11T14:08:36Z</time>
</trkpt>
<trkpt lat="47.659271" lon="10.974506">
<ele>814.812</ele>
<time>2020-09-11T14:08:37Z</time>
</trkpt>
<trkpt lat="47.659245" lon="10.974469">
<ele>815.237</ele>
<time>2020-09-11T14:08:38Z</time>
</trkpt>
<trkpt lat="47.65921" lon="10.974445">
<ele>815.56</ele>
<time>2020-09-11T14:08:39Z</time>
</trkpt>
<trkpt lat="47.65918" lon="10.974421">
<ele>815.756</ele>
<time>2020-09-11T14:08:40Z</time>
</trkpt>
<trkpt lat="47.659149" lon="10.97439">
<ele>816.175</ele>
<time>2020-09-11T14:08:41Z</time>
</trkpt>
<trkpt lat="47.659119" lon="10.974359">
<ele>816.502</ele>
<time>2020-09-11T14:08:42Z</time>
</trkpt>
<trkpt lat="47.659092" lon="10.974325">
<ele>816.736</ele>
<time>2020-09-11T14:08:43Z</time>
</trkpt>
<trkpt lat="47.659065" lon="10.974295">
<ele>816.893</ele>
<time>2020-09-11T14:08:44Z</time>
</trkpt>
<trkpt lat="47.659035" lon="10.97427">
<ele>817.3</ele>
<time>2020-09-11T14:08:45Z</time>
</trkpt>
<trkpt lat="47.659" lon="10.974245">
<ele>817.599</ele>
<time>2020-09-11T14:08:46Z</time>
</trkpt>
<trkpt lat="47.65897" lon="10.974218">
<ele>817.802</ele>
<time>2020-09-11T14:08:47Z</time>
</trkpt>
<trkpt lat="47.658939" lon="10.974192">
<ele>817.989</ele>
<time>2020-09-11T14:08:48Z</time>
</trkpt>
<trkpt lat="47.658909" lon="10.974165">
<ele>818.102</ele>
<time>2020-09-11T14:08:49Z</time>
</trkpt>
<trkpt lat="47.658878" lon="10.974138">
<ele>818.435</ele>
<time>2020-09-11T14:08:50Z</time>
</trkpt>
<trkpt lat="47.658848" lon="10.974111">
<ele>818.7</ele>
<time>2020-09-11T14:08:51Z</time>
</trkpt>
<trkpt lat="47.658821" lon="10.974082">
<ele>818.893</ele>
<time>2020-09-11T14:08:52Z</time>
</trkpt>
<trkpt lat="47.658791" lon="10.974056">
<ele>819.077</ele>
<time>2020-09-11T14:08:53Z</time>
</trkpt>
<trkpt lat="47.658768" lon="10.97403">
<ele>819.167</ele>
<time>2020-09-11T14:08:54Z</time>
</trkpt>
<trkpt lat="47.658733" lon="10.974004">
<ele>819.216</ele>
<time>2020-09-11T14:08:55Z</time>
</trkpt>
<trkpt lat="47.658699" lon="10.973981">
<ele>819.249</ele>
<time>2020-09-11T14:08:56Z</time>
</trkpt>
<trkpt lat="47.658665" lon="10.973953">
<ele>819.271</ele>
<time>2020-09-11T14:08:57Z</time>
</trkpt>
<trkpt lat="47.658627" lon="10.973925">
<ele>819.271</ele>
<time>2020-09-11T14:08:58Z</time>
</trkpt>
<trkpt lat="47.658588" lon="10.973897">
<ele>819.559</ele>
<time>2020-09-11T14:08:59Z</time>
</trkpt>
<trkpt lat="47.65855" lon="10.973872">
<ele>819.777</ele>
<time>2020-09-11T14:09:00Z</time>
</trkpt>
<trkpt lat="47.658512" lon="10.973848">
<ele>819.935</ele>
<time>2020-09-11T14:09:01Z</time>
</trkpt>
<trkpt lat="47.658474" lon="10.973808">
<ele>820.039</ele>
<time>2020-09-11T14:09:02Z</time>
</trkpt>
<trkpt lat="47.658436" lon="10.973773">
<ele>820.101</ele>
<time>2020-09-11T14:09:03Z</time>
</trkpt>
<trkpt lat="47.658401" lon="10.973742">
<ele>820.151</ele>
<time>2020-09-11T14:09:04Z</time>
</trkpt>
<trkpt lat="47.658367" lon="10.973708">
<ele>820.171</ele>
<time>2020-09-11T14:09:05Z</time>
</trkpt>
<trkpt lat="47.658337" lon="10.97367">
<ele>820.171</ele>
<time>2020-09-11T14:09:06Z</time>
</trkpt>
<trkpt lat="47.658298" lon="10.973635">
<ele>820.171</ele>
<time>2020-09-11T14:09:07Z</time>
</trkpt>
<trkpt lat="47.65826" lon="10.973598">
<ele>820.171</ele>
<time>2020-09-11T14:09:08Z</time>
</trkpt>
<trkpt lat="47.658226" lon="10.97356">
<ele>820.171</ele>
<time>2020-09-11T14:09:09Z</time>
</trkpt>
<trkpt lat="47.658195" lon="10.973522">
<ele>820.481</ele>
<time>2020-09-11T14:09:10Z</time>
</trkpt>
<trkpt lat="47.658169" lon="10.973485">
<ele>820.726</ele>
<time>2020-09-11T14:09:11Z</time>
</trkpt>
<trkpt lat="47.658138" lon="10.973449">
<ele>820.908</ele>
<time>2020-09-11T14:09:12Z</time>
</trkpt>
<trkpt lat="47.658108" lon="10.973412">
<ele>821.04</ele>
<time>2020-09-11T14:09:13Z</time>
</trkpt>
<trkpt lat="47.658073" lon="10.973375">
<ele>821.13</ele>
<time>2020-09-11T14:09:14Z</time>
</trkpt>
<trkpt lat="47.658043" lon="10.973336">
<ele>821.184</ele>
<time>2020-09-11T14:09:15Z</time>
</trkpt>
<trkpt lat="47.658012" lon="10.973298">
<ele>821.452</ele>
<time>2020-09-11T14:09:16Z</time>
</trkpt>
<trkpt lat="47.657986" lon="10.973258">
<ele>821.662</ele>
<time>2020-09-11T14:09:17Z</time>
</trkpt>
<trkpt lat="47.657955" lon="10.973218">
<ele>821.841</ele>
<time>2020-09-11T14:09:18Z</time>
</trkpt>
<trkpt lat="47.657925" lon="10.973177">
<ele>821.983</ele>
<time>2020-09-11T14:09:19Z</time>
</trkpt>
<trkpt lat="47.657898" lon="10.973137">
<ele>822.089</ele>
<time>2020-09-11T14:09:20Z</time>
</trkpt>
<trkpt lat="47.657867" lon="10.973093">
<ele>822.158</ele>
<time>2020-09-11T14:09:21Z</time>
</trkpt>
<trkpt lat="47.657841" lon="10.973053">
<ele>822.454</ele>
<time>2020-09-11T14:09:22Z</time>
</trkpt>
<trkpt lat="47.65781" lon="10.973013">
<ele>822.687</ele>
<time>2020-09-11T14:09:23Z</time>
</trkpt>
<trkpt lat="47.65778" lon="10.972975">
<ele>822.88</ele>
<time>2020-09-11T14:09:24Z</time>
</trkpt>
<trkpt lat="47.657749" lon="10.972936">
<ele>822.972</ele>
<time>2020-09-11T14:09:25Z</time>
</trkpt>
<trkpt lat="47.657719" lon="10.972894">
<ele>823.287</ele>
<time>2020-09-11T14:09:26Z</time>
</trkpt>
<trkpt lat="47.657692" lon="10.972854">
<ele>823.521</ele>
<time>2020-09-11T14:09:27Z</time>
</trkpt>
<trkpt lat="47.657665" lon="10.972815">
<ele>823.737</ele>
<time>2020-09-11T14:09:28Z</time>
</trkpt>
<trkpt lat="47.657635" lon="10.972774">
<ele>823.89</ele>
<time>2020-09-11T14:09:29Z</time>
</trkpt>
<trkpt lat="47.657608" lon="10.972734">
<ele>823.979</ele>
<time>2020-09-11T14:09:30Z</time>
</trkpt>
<trkpt lat="47.657581" lon="10.972694">
<ele>824.295</ele>
<time>2020-09-11T14:09:31Z</time>
</trkpt>
<trkpt lat="47.657555" lon="10.972653">
<ele>824.547</ele>
<time>2020-09-11T14:09:32Z</time>
</trkpt>
<trkpt lat="47.65752" lon="10.972613">
<ele>824.706</ele>
<time>2020-09-11T14:09:33Z</time>
</trkpt>
<trkpt lat="47.657497" lon="10.972573">
<ele>825.141</ele>
<time>2020-09-11T14:09:34Z</time>
</trkpt>
<trkpt lat="47.657467" lon="10.972537">
<ele>825.439</ele>
<time>2020-09-11T14:09:35Z</time>
</trkpt>
<trkpt lat="47.65744" lon="10.9725">
<ele>825.65</ele>
<time>2020-09-11T14:09:36Z</time>
</trkpt>
<trkpt lat="47.657417" lon="10.972462">
<ele>825.803</ele>
<time>2020-09-11T14:09:37Z</time>
</trkpt>
<trkpt lat="47.657391" lon="10.972424">
<ele>825.949</ele>
<time>2020-09-11T14:09:38Z</time>
</trkpt>
<trkpt lat="47.65736" lon="10.972382">
<ele>826.03</ele>
<time>2020-09-11T14:09:39Z</time>
</trkpt>
<trkpt lat="47.657333" lon="10.972339">
<ele>826.083</ele>
<time>2020-09-11T14:09:40Z</time>
</trkpt>
<trkpt lat="47.657307" lon="10.972293">
<ele>826.11</ele>
<time>2020-09-11T14:09:41Z</time>
</trkpt>
<trkpt lat="47.65728" lon="10.972248">
<ele>826.11</ele>
<time>2020-09-11T14:09:42Z</time>
</trkpt>
<trkpt lat="47.657253" lon="10.972205">
<ele>826.11</ele>
<time>2020-09-11T14:09:43Z</time>
</trkpt>
<trkpt lat="47.657227" lon="10.972163">
<ele>826.11</ele>
<time>2020-09-11T14:09:44Z</time>
</trkpt>
<trkpt lat="47.657196" lon="10.972122">
<ele>826.11</ele>
<time>2020-09-11T14:09:45Z</time>
</trkpt>
<trkpt lat="47.657169" lon="10.972081">
<ele>826.11</ele>
<time>2020-09-11T14:09:46Z</time>
</trkpt>
<trkpt lat="47.657143" lon="10.972038">
<ele>826.11</ele>
<time>2020-09-11T14:09:47Z</time>
</trkpt>
<trkpt lat="47.65712" lon="10.971998">
<ele>826.11</ele>
<time>2020-09-11T14:09:48Z</time>
</trkpt>
<trkpt lat="47.657093" lon="10.97196">
<ele>826.11</ele>
<time>2020-09-11T14:09:49Z</time>
</trkpt>
<trkpt lat="47.657063" lon="10.971924">
<ele>826.11</ele>
<time>2020-09-11T14:09:50Z</time>
</trkpt>
<trkpt lat="47.657043" lon="10.971892">
<ele>826.11</ele>
<time>2020-09-11T14:09:51Z</time>
</trkpt>
<trkpt lat="47.657024" lon="10.971861">
<ele>826.11</ele>
<time>2020-09-11T14:09:52Z</time>
</trkpt>
<trkpt lat="47.656998" lon="10.971831">
<ele>826.11</ele>
<time>2020-09-11T14:09:53Z</time>
</trkpt>
<trkpt lat="47.656975" lon="10.971789">
<ele>826.11</ele>
<time>2020-09-11T14:09:54Z</time>
</trkpt>
<trkpt lat="47.656952" lon="10.971748">
<ele>826.11</ele>
<time>2020-09-11T14:09:55Z</time>
</trkpt>
<trkpt lat="47.656929" lon="10.971704">
<ele>826.11</ele>
<time>2020-09-11T14:09:56Z</time>
</trkpt>
<trkpt lat="47.656898" lon="10.971651">
<ele>826.11</ele>
<time>2020-09-11T14:09:57Z</time>
</trkpt>
<trkpt lat="47.656868" lon="10.971597">
<ele>826.11</ele>
<time>2020-09-11T14:09:58Z</time>
</trkpt>
<trkpt lat="47.656834" lon="10.971546">
<ele>826.11</ele>
<time>2020-09-11T14:09:59Z</time>
</trkpt>
<trkpt lat="47.656803" lon="10.971495">
<ele>826.11</ele>
<time>2020-09-11T14:10:00Z</time>
</trkpt>
<trkpt lat="47.656769" lon="10.971445">
<ele>826.11</ele>
<time>2020-09-11T14:10:01Z</time>
</trkpt>
<trkpt lat="47.656742" lon="10.971389">
<ele>826.11</ele>
<time>2020-09-11T14:10:02Z</time>
</trkpt>
<trkpt lat="47.656708" lon="10.971334">
<ele>826.11</ele>
<time>2020-09-11T14:10:03Z</time>
</trkpt>
<trkpt lat="47.656677" lon="10.971278">
<ele>826.11</ele>
<time>2020-09-11T14:10:04Z</time>
</trkpt>
<trkpt lat="47.656647" lon="10.971218">
<ele>826.11</ele>
<time>2020-09-11T14:10:05Z</time>
</trkpt>
<trkpt lat="47.656612" lon="10.971159">
<ele>826.11</ele>
<time>2020-09-11T14:10:06Z</time>
</trkpt>
<trkpt lat="47.65659" lon="10.971096">
<ele>826.11</ele>
<time>2020-09-11T14:10:07Z</time>
</trkpt>
<trkpt lat="47.656559" lon="10.971028">
<ele>826.11</ele>
<time>2020-09-11T14:10:08Z</time>
</trkpt>
<trkpt lat="47.656528" lon="10.970962">
<ele>826.11</ele>
<time>2020-09-11T14:10:09Z</time>
</trkpt>
<trkpt lat="47.656494" lon="10.97089">
<ele>826.11</ele>
<time>2020-09-11T14:10:10Z</time>
</trkpt>
<trkpt lat="47.656464" lon="10.970817">
<ele>826.11</ele>
<time>2020-09-11T14:10:11Z</time>
</trkpt>
<trkpt lat="47.656437" lon="10.970742">
<ele>826.11</ele>
<time>2020-09-11T14:10:12Z</time>
</trkpt>
<trkpt lat="47.656406" lon="10.97066">
<ele>826.11</ele>
<time>2020-09-11T14:10:13Z</time>
</trkpt>
<trkpt lat="47.656372" lon="10.970587">
<ele>826.11</ele>
<time>2020-09-11T14:10:14Z</time>
</trkpt>
<trkpt lat="47.656338" lon="10.970515">
<ele>826.11</ele>
<time>2020-09-11T14:10:15Z</time>
</trkpt>
<trkpt lat="47.656303" lon="10.97044">
<ele>826.11</ele>
<time>2020-09-11T14:10:16Z</time>
</trkpt>
<trkpt lat="47.656265" lon="10.970363">
<ele>826.11</ele>
<time>2020-09-11T14:10:17Z</time>
</trkpt>
<trkpt lat="47.656235" lon="10.970285">
<ele>826.11</ele>
<time>2020-09-11T14:10:18Z</time>
</trkpt>
<trkpt lat="47.656197" lon="10.97021">
<ele>826.11</ele>
<time>2020-09-11T14:10:19Z</time>
</trkpt>
<trkpt lat="47.65617" lon="10.970134">
<ele>826.11</ele>
<time>2020-09-11T14:10:20Z</time>
</trkpt>
<trkpt lat="47.656139" lon="10.97006">
<ele>826.11</ele>
<time>2020-09-11T14:10:21Z</time>
</trkpt>
<trkpt lat="47.656116" lon="10.969983">
<ele>826.11</ele>
<time>2020-09-11T14:10:22Z</time>
</trkpt>
<trkpt lat="47.656094" lon="10.969904">
<ele>826.11</ele>
<time>2020-09-11T14:10:23Z</time>
</trkpt>
<trkpt lat="47.656071" lon="10.969822">
<ele>826.11</ele>
<time>2020-09-11T14:10:24Z</time>
</trkpt>
<trkpt lat="47.656052" lon="10.969743">
<ele>826.11</ele>
<time>2020-09-11T14:10:25Z</time>
</trkpt>
<trkpt lat="47.656033" lon="10.969666">
<ele>826.11</ele>
<time>2020-09-11T14:10:26Z</time>
</trkpt>
<trkpt lat="47.656013" lon="10.969592">
<ele>826.11</ele>
<time>2020-09-11T14:10:27Z</time>
</trkpt>
<trkpt lat="47.655994" lon="10.969515">
<ele>826.11</ele>
<time>2020-09-11T14:10:28Z</time>
</trkpt>
<trkpt lat="47.655983" lon="10.969435">
<ele>826.11</ele>
<time>2020-09-11T14:10:29Z</time>
</trkpt>
<trkpt lat="47.655968" lon="10.969351">
<ele>825.827</ele>
<time>2020-09-11T14:10:30Z</time>
</trkpt>
<trkpt lat="47.655956" lon="10.969272">
<ele>825.606</ele>
<time>2020-09-11T14:10:31Z</time>
</trkpt>
<trkpt lat="47.655941" lon="10.969196">
<ele>825.437</ele>
<time>2020-09-11T14:10:32Z</time>
</trkpt>
<trkpt lat="47.655926" lon="10.969123">
<ele>825.307</ele>
<time>2020-09-11T14:10:33Z</time>
</trkpt>
<trkpt lat="47.655903" lon="10.969049">
<ele>825.221</ele>
<time>2020-09-11T14:10:34Z</time>
</trkpt>
<trkpt lat="47.65588" lon="10.968967">
<ele>825.18</ele>
<time>2020-09-11T14:10:35Z</time>
</trkpt>
<trkpt lat="47.655853" lon="10.96889">
<ele>824.903</ele>
<time>2020-09-11T14:10:36Z</time>
</trkpt>
<trkpt lat="47.655819" lon="10.96881">
<ele>824.706</ele>
<time>2020-09-11T14:10:37Z</time>
</trkpt>
<trkpt lat="47.655773" lon="10.968722">
<ele>824.524</ele>
<time>2020-09-11T14:10:38Z</time>
</trkpt>
<trkpt lat="47.655731" lon="10.968637">
<ele>824.377</ele>
<time>2020-09-11T14:10:39Z</time>
</trkpt>
<trkpt lat="47.655693" lon="10.968561">
<ele>824.268</ele>
<time>2020-09-11T14:10:40Z</time>
</trkpt>
<trkpt lat="47.655643" lon="10.968492">
<ele>824.195</ele>
<time>2020-09-11T14:10:41Z</time>
</trkpt>
<trkpt lat="47.655598" lon="10.968418">
<ele>824.151</ele>
<time>2020-09-11T14:10:42Z</time>
</trkpt>
<trkpt lat="47.655544" lon="10.968353">
<ele>824.13</ele>
<time>2020-09-11T14:10:43Z</time>
</trkpt>
<trkpt lat="47.655499" lon="10.968304">
<ele>824.13</ele>
<time>2020-09-11T14:10:44Z</time>
</trkpt>
<trkpt lat="47.655453" lon="10.968251">
<ele>824.13</ele>
<time>2020-09-11T14:10:45Z</time>
</trkpt>
<trkpt lat="47.655399" lon="10.968201">
<ele>824.13</ele>
<time>2020-09-11T14:10:46Z</time>
</trkpt>
<trkpt lat="47.655338" lon="10.96815">
<ele>824.13</ele>
<time>2020-09-11T14:10:47Z</time>
</trkpt>
<trkpt lat="47.655285" lon="10.968104">
<ele>824.13</ele>
<time>2020-09-11T14:10:48Z</time>
</trkpt>
<trkpt lat="47.655231" lon="10.968063">
<ele>824.13</ele>
<time>2020-09-11T14:10:49Z</time>
</trkpt>
<trkpt lat="47.65517" lon="10.968023">
<ele>824.13</ele>
<time>2020-09-11T14:10:50Z</time>
</trkpt>
<trkpt lat="47.655109" lon="10.967987">
<ele>824.13</ele>
<time>2020-09-11T14:10:51Z</time>
</trkpt>
<trkpt lat="47.655045" lon="10.96795">
<ele>824.13</ele>
<time>2020-09-11T14:10:52Z</time>
</trkpt>
<trkpt lat="47.654976" lon="10.967924">
<ele>824.13</ele>
<time>2020-09-11T14:10:53Z</time>
</trkpt>
<trkpt lat="47.654911" lon="10.967905">
<ele>824.13</ele>
<time>2020-09-11T14:10:54Z</time>
</trkpt>
<trkpt lat="47.654846" lon="10.9679">
<ele>823.881</ele>
<time>2020-09-11T14:10:55Z</time>
</trkpt>
<trkpt lat="47.654781" lon="10.967901">
<ele>823.682</ele>
<time>2020-09-11T14:10:56Z</time>
</trkpt>
<trkpt lat="47.654709" lon="10.96791">
<ele>823.549</ele>
<time>2020-09-11T14:10:57Z</time>
</trkpt>
<trkpt lat="47.654636" lon="10.96792">
<ele>823.415</ele>
<time>2020-09-11T14:10:58Z</time>
</trkpt>
<trkpt lat="47.654568" lon="10.967933">
<ele>823.056</ele>
<time>2020-09-11T14:10:59Z</time>
</trkpt>
<trkpt lat="47.654499" lon="10.967952">
<ele>822.774</ele>
<time>2020-09-11T14:11:00Z</time>
</trkpt>
<trkpt lat="47.654427" lon="10.967965">
<ele>822.552</ele>
<time>2020-09-11T14:11:01Z</time>
</trkpt>
<trkpt lat="47.654358" lon="10.967987">
<ele>822.39</ele>
<time>2020-09-11T14:11:02Z</time>
</trkpt>
<trkpt lat="47.654285" lon="10.968015">
<ele>822.234</ele>
<time>2020-09-11T14:11:03Z</time>
</trkpt>
<trkpt lat="47.654209" lon="10.968033">
<ele>821.848</ele>
<time>2020-09-11T14:11:04Z</time>
</trkpt>
<trkpt lat="47.654129" lon="10.968048">
<ele>821.571</ele>
<time>2020-09-11T14:11:05Z</time>
</trkpt>
<trkpt lat="47.65406" lon="10.968054">
<ele>821.367</ele>
<time>2020-09-11T14:11:06Z</time>
</trkpt>
<trkpt lat="47.653996" lon="10.968052">
<ele>821.233</ele>
<time>2020-09-11T14:11:07Z</time>
</trkpt>
<trkpt lat="47.653931" lon="10.968054">
<ele>821.307</ele>
<time>2020-09-11T14:11:08Z</time>
</trkpt>
<trkpt lat="47.65387" lon="10.96805">
<ele>821.384</ele>
<time>2020-09-11T14:11:09Z</time>
</trkpt>
<trkpt lat="47.653805" lon="10.968039">
<ele>821.466</ele>
<time>2020-09-11T14:11:10Z</time>
</trkpt>
<trkpt lat="47.653736" lon="10.968031">
<ele>821.553</ele>
<time>2020-09-11T14:11:11Z</time>
</trkpt>
<trkpt lat="47.653671" lon="10.96802">
<ele>821.625</ele>
<time>2020-09-11T14:11:12Z</time>
</trkpt>
<trkpt lat="47.653606" lon="10.96801">
<ele>821.711</ele>
<time>2020-09-11T14:11:13Z</time>
</trkpt>
<trkpt lat="47.653549" lon="10.967997">
<ele>821.765</ele>
<time>2020-09-11T14:11:14Z</time>
</trkpt>
<trkpt lat="47.653496" lon="10.967989">
<ele>821.787</ele>
<time>2020-09-11T14:11:15Z</time>
</trkpt>
<trkpt lat="47.653446" lon="10.96798">
<ele>821.79</ele>
<time>2020-09-11T14:11:16Z</time>
</trkpt>
<trkpt lat="47.653393" lon="10.967974">
<ele>821.79</ele>
<time>2020-09-11T14:11:17Z</time>
</trkpt>
<trkpt lat="47.653339" lon="10.967963">
<ele>821.79</ele>
<time>2020-09-11T14:11:18Z</time>
</trkpt>
<trkpt lat="47.653282" lon="10.967954">
<ele>821.79</ele>
<time>2020-09-11T14:11:19Z</time>
</trkpt>
<trkpt lat="47.653233" lon="10.967945">
<ele>821.79</ele>
<time>2020-09-11T14:11:20Z</time>
</trkpt>
<trkpt lat="47.653179" lon="10.967938">
<ele>821.79</ele>
<time>2020-09-11T14:11:21Z</time>
</trkpt>
<trkpt lat="47.653126" lon="10.967928">
<ele>821.79</ele>
<time>2020-09-11T14:11:22Z</time>
</trkpt>
<trkpt lat="47.65308" lon="10.96792">
<ele>821.79</ele>
<time>2020-09-11T14:11:23Z</time>
</trkpt>
<trkpt lat="47.653034" lon="10.967908">
<ele>821.79</ele>
<time>2020-09-11T14:11:24Z</time>
</trkpt>
<trkpt lat="47.652981" lon="10.96789">
<ele>822.079</ele>
<time>2020-09-11T14:11:25Z</time>
</trkpt>
<trkpt lat="47.652927" lon="10.967882">
<ele>822.307</ele>
<time>2020-09-11T14:11:26Z</time>
</trkpt>
<trkpt lat="47.652878" lon="10.967875">
<ele>822.464</ele>
<time>2020-09-11T14:11:27Z</time>
</trkpt>
<trkpt lat="47.652824" lon="10.967872">
<ele>822.639</ele>
<time>2020-09-11T14:11:28Z</time>
</trkpt>
<trkpt lat="47.652771" lon="10.967868">
<ele>822.774</ele>
<time>2020-09-11T14:11:29Z</time>
</trkpt>
<trkpt lat="47.65271" lon="10.967868">
<ele>822.872</ele>
<time>2020-09-11T14:11:30Z</time>
</trkpt>
<trkpt lat="47.652657" lon="10.967851">
<ele>822.933</ele>
<time>2020-09-11T14:11:31Z</time>
</trkpt>
<trkpt lat="47.652596" lon="10.967838">
<ele>822.96</ele>
<time>2020-09-11T14:11:32Z</time>
</trkpt>
<trkpt lat="47.652538" lon="10.967832">
<ele>822.96</ele>
<time>2020-09-11T14:11:33Z</time>
</trkpt>
<trkpt lat="47.652485" lon="10.96783">
<ele>822.96</ele>
<time>2020-09-11T14:11:34Z</time>
</trkpt>
<trkpt lat="47.652428" lon="10.967825">
<ele>822.96</ele>
<time>2020-09-11T14:11:35Z</time>
</trkpt>
<trkpt lat="47.652363" lon="10.967821">
<ele>822.96</ele>
<time>2020-09-11T14:11:36Z</time>
</trkpt>
<trkpt lat="47.652294" lon="10.967802">
<ele>822.96</ele>
<time>2020-09-11T14:11:37Z</time>
</trkpt>
<trkpt lat="47.652229" lon="10.967794">
<ele>822.96</ele>
<time>2020-09-11T14:11:38Z</time>
</trkpt>
<trkpt lat="47.652168" lon="10.967793">
<ele>822.96</ele>
<time>2020-09-11T14:11:39Z</time>
</trkpt>
<trkpt lat="47.652107" lon="10.967785">
<ele>822.96</ele>
<time>2020-09-11T14:11:40Z</time>
</trkpt>
<trkpt lat="47.652042" lon="10.967778">
<ele>822.96</ele>
<time>2020-09-11T14:11:41Z</time>
</trkpt>
<trkpt lat="47.651978" lon="10.967769">
<ele>822.96</ele>
<time>2020-09-11T14:11:42Z</time>
</trkpt>
<trkpt lat="47.651901" lon="10.967765">
<ele>822.96</ele>
<time>2020-09-11T14:11:43Z</time>
</trkpt>
<trkpt lat="47.651833" lon="10.967756">
<ele>822.96</ele>
<time>2020-09-11T14:11:44Z</time>
</trkpt>
<trkpt lat="47.651772" lon="10.967744">
<ele>822.96</ele>
<time>2020-09-11T14:11:45Z</time>
</trkpt>
<trkpt lat="47.651711" lon="10.967731">
<ele>822.96</ele>
<time>2020-09-11T14:11:46Z</time>
</trkpt>
<trkpt lat="47.651649" lon="10.967727">
<ele>822.96</ele>
<time>2020-09-11T14:11:47Z</time>
</trkpt>
<trkpt lat="47.651585" lon="10.967721">
<ele>822.96</ele>
<time>2020-09-11T14:11:48Z</time>
</trkpt>
<trkpt lat="47.65152" lon="10.96772">
<ele>822.96</ele>
<time>2020-09-11T14:11:49Z</time>
</trkpt>
<trkpt lat="47.651459" lon="10.96772">
<ele>823.239</ele>
<time>2020-09-11T14:11:50Z</time>
</trkpt>
<trkpt lat="47.651398" lon="10.967715">
<ele>823.458</ele>
<time>2020-09-11T14:11:51Z</time>
</trkpt>
<trkpt lat="47.65134" lon="10.96771">
<ele>823.632</ele>
<time>2020-09-11T14:11:52Z</time>
</trkpt>
<trkpt lat="47.651279" lon="10.96771">
<ele>823.758</ele>
<time>2020-09-11T14:11:53Z</time>
</trkpt>
<trkpt lat="47.651215" lon="10.96771">
<ele>823.847</ele>
<time>2020-09-11T14:11:54Z</time>
</trkpt>
<trkpt lat="47.651146" lon="10.967707">
<ele>823.897</ele>
<time>2020-09-11T14:11:55Z</time>
</trkpt>
<trkpt lat="47.651085" lon="10.967704">
<ele>823.926</ele>
<time>2020-09-11T14:11:56Z</time>
</trkpt>
<trkpt lat="47.651024" lon="10.967704">
<ele>823.95</ele>
<time>2020-09-11T14:11:57Z</time>
</trkpt>
<trkpt lat="47.650955" lon="10.967713">
<ele>823.95</ele>
<time>2020-09-11T14:11:58Z</time>
</trkpt>
<trkpt lat="47.650894" lon="10.967729">
<ele>823.95</ele>
<time>2020-09-11T14:11:59Z</time>
</trkpt>
<trkpt lat="47.650837" lon="10.967742">
<ele>823.95</ele>
<time>2020-09-11T14:12:00Z</time>
</trkpt>
<trkpt lat="47.650784" lon="10.967756">
<ele>823.95</ele>
<time>2020-09-11T14:12:01Z</time>
</trkpt>
<trkpt lat="47.65073" lon="10.967773">
<ele>823.95</ele>
<time>2020-09-11T14:12:02Z</time>
</trkpt>
<trkpt lat="47.650673" lon="10.96779">
<ele>823.95</ele>
<time>2020-09-11T14:12:03Z</time>
</trkpt>
<trkpt lat="47.650623" lon="10.967812">
<ele>823.95</ele>
<time>2020-09-11T14:12:04Z</time>
</trkpt>
<trkpt lat="47.650574" lon="10.967825">
<ele>823.95</ele>
<time>2020-09-11T14:12:05Z</time>
</trkpt>
<trkpt lat="47.65052" lon="10.967842">
<ele>824.18</ele>
<time>2020-09-11T14:12:06Z</time>
</trkpt>
<trkpt lat="47.650475" lon="10.967858">
<ele>824.354</ele>
<time>2020-09-11T14:12:07Z</time>
</trkpt>
<trkpt lat="47.650429" lon="10.967872">
<ele>824.532</ele>
<time>2020-09-11T14:12:08Z</time>
</trkpt>
<trkpt lat="47.650379" lon="10.967885">
<ele>824.672</ele>
<time>2020-09-11T14:12:09Z</time>
</trkpt>
<trkpt lat="47.65033" lon="10.967895">
<ele>824.781</ele>
<time>2020-09-11T14:12:10Z</time>
</trkpt>
<trkpt lat="47.650284" lon="10.967918">
<ele>824.86</ele>
<time>2020-09-11T14:12:11Z</time>
</trkpt>
<trkpt lat="47.650238" lon="10.967933">
<ele>824.914</ele>
<time>2020-09-11T14:12:12Z</time>
</trkpt>
<trkpt lat="47.650192" lon="10.967965">
<ele>824.94</ele>
<time>2020-09-11T14:12:13Z</time>
</trkpt>
<trkpt lat="47.650146" lon="10.967994">
<ele>824.94</ele>
<time>2020-09-11T14:12:14Z</time>
</trkpt>
<trkpt lat="47.650093" lon="10.968029">
<ele>824.94</ele>
<time>2020-09-11T14:12:15Z</time>
</trkpt>
<trkpt lat="47.650024" lon="10.968048">
<ele>824.94</ele>
<time>2020-09-11T14:12:16Z</time>
</trkpt>
<trkpt lat="47.649956" lon="10.968066">
<ele>824.94</ele>
<time>2020-09-11T14:12:17Z</time>
</trkpt>
<trkpt lat="47.649902" lon="10.968094">
<ele>824.94</ele>
<time>2020-09-11T14:12:18Z</time>
</trkpt>
<trkpt lat="47.649845" lon="10.968122">
<ele>824.94</ele>
<time>2020-09-11T14:12:19Z</time>
</trkpt>
<trkpt lat="47.649788" lon="10.968146">
<ele>824.94</ele>
<time>2020-09-11T14:12:20Z</time>
</trkpt>
<trkpt lat="47.649727" lon="10.968177">
<ele>824.628</ele>
<time>2020-09-11T14:12:21Z</time>
</trkpt>
<trkpt lat="47.649673" lon="10.968203">
<ele>824.396</ele>
<time>2020-09-11T14:12:22Z</time>
</trkpt>
<trkpt lat="47.649616" lon="10.968243">
<ele>824.225</ele>
<time>2020-09-11T14:12:23Z</time>
</trkpt>
<trkpt lat="47.649555" lon="10.968282">
<ele>824.095</ele>
<time>2020-09-11T14:12:24Z</time>
</trkpt>
<trkpt lat="47.649487" lon="10.96833">
<ele>823.999</ele>
<time>2020-09-11T14:12:25Z</time>
</trkpt>
<trkpt lat="47.649418" lon="10.968383">
<ele>823.948</ele>
<time>2020-09-11T14:12:26Z</time>
</trkpt>
<trkpt lat="47.649349" lon="10.96845">
<ele>823.658</ele>
<time>2020-09-11T14:12:27Z</time>
</trkpt>
<trkpt lat="47.649281" lon="10.96853">
<ele>823.428</ele>
<time>2020-09-11T14:12:28Z</time>
</trkpt>
<trkpt lat="47.64922" lon="10.96862">
<ele>822.981</ele>
<time>2020-09-11T14:12:29Z</time>
</trkpt>
<trkpt lat="47.649158" lon="10.968724">
<ele>822.684</ele>
<time>2020-09-11T14:12:30Z</time>
</trkpt>
<trkpt lat="47.649097" lon="10.968838">
<ele>822.207</ele>
<time>2020-09-11T14:12:31Z</time>
</trkpt>
<trkpt lat="47.649029" lon="10.968948">
<ele>821.582</ele>
<time>2020-09-11T14:12:32Z</time>
</trkpt>
<trkpt lat="47.648956" lon="10.969057">
<ele>820.854</ele>
<time>2020-09-11T14:12:33Z</time>
</trkpt>
<trkpt lat="47.64888" lon="10.969151">
<ele>820.058</ele>
<time>2020-09-11T14:12:34Z</time>
</trkpt>
<trkpt lat="47.648788" lon="10.969234">
<ele>818.991</ele>
<time>2020-09-11T14:12:35Z</time>
</trkpt>
<trkpt lat="47.648693" lon="10.969316">
<ele>818.414</ele>
<time>2020-09-11T14:12:36Z</time>
</trkpt>
<trkpt lat="47.648598" lon="10.969401">
<ele>817.615</ele>
<time>2020-09-11T14:12:37Z</time>
</trkpt>
<trkpt lat="47.648502" lon="10.969485">
<ele>816.971</ele>
<time>2020-09-11T14:12:38Z</time>
</trkpt>
<trkpt lat="47.648403" lon="10.969559">
<ele>816.557</ele>
<time>2020-09-11T14:12:39Z</time>
</trkpt>
<trkpt lat="47.6483" lon="10.96961">
<ele>816.023</ele>
<time>2020-09-11T14:12:40Z</time>
</trkpt>
<trkpt lat="47.648197" lon="10.969652">
<ele>815.364</ele>
<time>2020-09-11T14:12:41Z</time>
</trkpt>
<trkpt lat="47.648094" lon="10.96968">
<ele>814.936</ele>
<time>2020-09-11T14:12:42Z</time>
</trkpt>
<trkpt lat="47.647995" lon="10.969692">
<ele>814.353</ele>
<time>2020-09-11T14:12:43Z</time>
</trkpt>
<trkpt lat="47.647903" lon="10.96969">
<ele>813.951</ele>
<time>2020-09-11T14:12:44Z</time>
</trkpt>
<trkpt lat="47.647816" lon="10.969668">
<ele>813.295</ele>
<time>2020-09-11T14:12:45Z</time>
</trkpt>
<trkpt lat="47.647739" lon="10.969625">
<ele>812.947</ele>
<time>2020-09-11T14:12:46Z</time>
</trkpt>
<trkpt lat="47.647671" lon="10.969579">
<ele>812.393</ele>
<time>2020-09-11T14:12:47Z</time>
</trkpt>
<trkpt lat="47.647602" lon="10.969528">
<ele>811.949</ele>
<time>2020-09-11T14:12:48Z</time>
</trkpt>
<trkpt lat="47.647522" lon="10.969483">
<ele>811.642</ele>
<time>2020-09-11T14:12:49Z</time>
</trkpt>
<trkpt lat="47.647446" lon="10.969452">
<ele>811.128</ele>
<time>2020-09-11T14:12:50Z</time>
</trkpt>
<trkpt lat="47.647373" lon="10.969441">
<ele>810.732</ele>
<time>2020-09-11T14:12:51Z</time>
</trkpt>
<trkpt lat="47.647316" lon="10.969457">
<ele>810.435</ele>
<time>2020-09-11T14:12:52Z</time>
</trkpt>
<trkpt lat="47.647251" lon="10.9695">
<ele>810.227</ele>
<time>2020-09-11T14:12:53Z</time>
</trkpt>
<trkpt lat="47.647186" lon="10.969555">
<ele>810.084</ele>
<time>2020-09-11T14:12:54Z</time>
</trkpt>
<trkpt lat="47.647121" lon="10.969612">
<ele>809.975</ele>
<time>2020-09-11T14:12:55Z</time>
</trkpt>
<trkpt lat="47.64706" lon="10.969665">
<ele>809.952</ele>
<time>2020-09-11T14:12:56Z</time>
</trkpt>
<trkpt lat="47.647003" lon="10.969715">
<ele>809.725</ele>
<time>2020-09-11T14:12:57Z</time>
</trkpt>
<trkpt lat="47.64695" lon="10.969766">
<ele>809.536</ele>
<time>2020-09-11T14:12:58Z</time>
</trkpt>
<trkpt lat="47.646896" lon="10.969822">
<ele>809.376</ele>
<time>2020-09-11T14:12:59Z</time>
</trkpt>
<trkpt lat="47.646847" lon="10.969889">
<ele>809.249</ele>
<time>2020-09-11T14:13:00Z</time>
</trkpt>
<trkpt lat="47.646793" lon="10.969967">
<ele>809.177</ele>
<time>2020-09-11T14:13:01Z</time>
</trkpt>
<trkpt lat="47.646759" lon="10.970053">
<ele>808.861</ele>
<time>2020-09-11T14:13:02Z</time>
</trkpt>
<trkpt lat="47.646729" lon="10.97015">
<ele>808.605</ele>
<time>2020-09-11T14:13:03Z</time>
</trkpt>
<trkpt lat="47.646709" lon="10.970247">
<ele>808.443</ele>
<time>2020-09-11T14:13:04Z</time>
</trkpt>
<trkpt lat="47.646709" lon="10.970346">
<ele>808.029</ele>
<time>2020-09-11T14:13:05Z</time>
</trkpt>
<trkpt lat="47.646717" lon="10.970438">
<ele>807.739</ele>
<time>2020-09-11T14:13:06Z</time>
</trkpt>
<trkpt lat="47.646729" lon="10.970518">
<ele>807.534</ele>
<time>2020-09-11T14:13:07Z</time>
</trkpt>
<trkpt lat="47.64674" lon="10.970613">
<ele>807.343</ele>
<time>2020-09-11T14:13:08Z</time>
</trkpt>
<trkpt lat="47.646759" lon="10.970713">
<ele>807.208</ele>
<time>2020-09-11T14:13:09Z</time>
</trkpt>
<trkpt lat="47.646774" lon="10.970817">
<ele>807.132</ele>
<time>2020-09-11T14:13:10Z</time>
</trkpt>
<trkpt lat="47.646793" lon="10.970926">
<ele>806.831</ele>
<time>2020-09-11T14:13:11Z</time>
</trkpt>
<trkpt lat="47.646809" lon="10.971031">
<ele>806.594</ele>
<time>2020-09-11T14:13:12Z</time>
</trkpt>
<trkpt lat="47.646828" lon="10.971129">
<ele>806.378</ele>
<time>2020-09-11T14:13:13Z</time>
</trkpt>
<trkpt lat="47.646843" lon="10.971226">
<ele>806.255</ele>
<time>2020-09-11T14:13:14Z</time>
</trkpt>
<trkpt lat="47.646851" lon="10.971307">
<ele>806.172</ele>
<time>2020-09-11T14:13:15Z</time>
</trkpt>
<trkpt lat="47.646858" lon="10.97138">
<ele>806.126</ele>
<time>2020-09-11T14:13:16Z</time>
</trkpt>
<trkpt lat="47.64687" lon="10.971458">
<ele>806.085</ele>
<time>2020-09-11T14:13:17Z</time>
</trkpt>
<trkpt lat="47.646885" lon="10.971548">
<ele>806.057</ele>
<time>2020-09-11T14:13:18Z</time>
</trkpt>
<trkpt lat="47.646893" lon="10.971643">
<ele>806.057</ele>
<time>2020-09-11T14:13:19Z</time>
</trkpt>
<trkpt lat="47.646893" lon="10.971735">
<ele>806.057</ele>
<time>2020-09-11T14:13:20Z</time>
</trkpt>
<trkpt lat="47.646893" lon="10.971819">
<ele>806.057</ele>
<time>2020-09-11T14:13:21Z</time>
</trkpt>
<trkpt lat="47.646896" lon="10.971903">
<ele>805.789</ele>
<time>2020-09-11T14:13:22Z</time>
</trkpt>
<trkpt lat="47.646904" lon="10.971993">
<ele>805.573</ele>
<time>2020-09-11T14:13:23Z</time>
</trkpt>
<trkpt lat="47.646915" lon="10.972085">
<ele>805.413</ele>
<time>2020-09-11T14:13:24Z</time>
</trkpt>
<trkpt lat="47.646927" lon="10.972179">
<ele>805.3</ele>
<time>2020-09-11T14:13:25Z</time>
</trkpt>
<trkpt lat="47.646942" lon="10.97228">
<ele>805.217</ele>
<time>2020-09-11T14:13:26Z</time>
</trkpt>
<trkpt lat="47.646954" lon="10.97238">
<ele>805.154</ele>
<time>2020-09-11T14:13:27Z</time>
</trkpt>
<trkpt lat="47.646957" lon="10.972484">
<ele>805.096</ele>
<time>2020-09-11T14:13:28Z</time>
</trkpt>
<trkpt lat="47.646969" lon="10.972575">
<ele>805.069</ele>
<time>2020-09-11T14:13:29Z</time>
</trkpt>
<trkpt lat="47.64698" lon="10.972663">
<ele>805.069</ele>
<time>2020-09-11T14:13:30Z</time>
</trkpt>
<trkpt lat="47.646992" lon="10.972765">
<ele>805.069</ele>
<time>2020-09-11T14:13:31Z</time>
</trkpt>
<trkpt lat="47.646999" lon="10.972868">
<ele>805.069</ele>
<time>2020-09-11T14:13:32Z</time>
</trkpt>
<trkpt lat="47.647015" lon="10.97297">
<ele>805.069</ele>
<time>2020-09-11T14:13:33Z</time>
</trkpt>
<trkpt lat="47.647022" lon="10.973059">
<ele>805.069</ele>
<time>2020-09-11T14:13:34Z</time>
</trkpt>
<trkpt lat="47.647022" lon="10.973144">
<ele>805.069</ele>
<time>2020-09-11T14:13:35Z</time>
</trkpt>
<trkpt lat="47.647022" lon="10.973223">
<ele>805.069</ele>
<time>2020-09-11T14:13:36Z</time>
</trkpt>
<trkpt lat="47.647022" lon="10.973309">
<ele>805.069</ele>
<time>2020-09-11T14:13:37Z</time>
</trkpt>
<trkpt lat="47.64703" lon="10.973393">
<ele>805.069</ele>
<time>2020-09-11T14:13:38Z</time>
</trkpt>
<trkpt lat="47.647045" lon="10.973485">
<ele>805.069</ele>
<time>2020-09-11T14:13:39Z</time>
</trkpt>
<trkpt lat="47.64706" lon="10.973572">
<ele>805.069</ele>
<time>2020-09-11T14:13:40Z</time>
</trkpt>
<trkpt lat="47.647083" lon="10.973654">
<ele>805.069</ele>
<time>2020-09-11T14:13:41Z</time>
</trkpt>
<trkpt lat="47.647106" lon="10.97374">
<ele>805.069</ele>
<time>2020-09-11T14:13:42Z</time>
</trkpt>
<trkpt lat="47.647129" lon="10.973837">
<ele>805.069</ele>
<time>2020-09-11T14:13:43Z</time>
</trkpt>
<trkpt lat="47.647152" lon="10.973937">
<ele>805.069</ele>
<time>2020-09-11T14:13:44Z</time>
</trkpt>
<trkpt lat="47.647182" lon="10.97404">
<ele>805.069</ele>
<time>2020-09-11T14:13:45Z</time>
</trkpt>
<trkpt lat="47.647205" lon="10.974133">
<ele>805.069</ele>
<time>2020-09-11T14:13:46Z</time>
</trkpt>
<trkpt lat="47.647236" lon="10.97422">
<ele>805.069</ele>
<time>2020-09-11T14:13:47Z</time>
</trkpt>
<trkpt lat="47.647263" lon="10.974305">
<ele>804.801</ele>
<time>2020-09-11T14:13:48Z</time>
</trkpt>
<trkpt lat="47.647282" lon="10.974388">
<ele>804.583</ele>
<time>2020-09-11T14:13:49Z</time>
</trkpt>
<trkpt lat="47.647305" lon="10.974475">
<ele>804.41</ele>
<time>2020-09-11T14:13:50Z</time>
</trkpt>
<trkpt lat="47.647327" lon="10.974566">
<ele>804.271</ele>
<time>2020-09-11T14:13:51Z</time>
</trkpt>
<trkpt lat="47.647369" lon="10.974642">
<ele>804.159</ele>
<time>2020-09-11T14:13:52Z</time>
</trkpt>
<trkpt lat="47.647396" lon="10.97474">
<ele>804.088</ele>
<time>2020-09-11T14:13:53Z</time>
</trkpt>
<trkpt lat="47.647415" lon="10.974821">
<ele>803.782</ele>
<time>2020-09-11T14:13:54Z</time>
</trkpt>
<trkpt lat="47.647446" lon="10.97491">
<ele>803.546</ele>
<time>2020-09-11T14:13:55Z</time>
</trkpt>
<trkpt lat="47.64748" lon="10.975007">
<ele>803.376</ele>
<time>2020-09-11T14:13:56Z</time>
</trkpt>
<trkpt lat="47.647511" lon="10.975094">
<ele>803.27</ele>
<time>2020-09-11T14:13:57Z</time>
</trkpt>
<trkpt lat="47.647545" lon="10.975197">
<ele>803.159</ele>
<time>2020-09-11T14:13:58Z</time>
</trkpt>
<trkpt lat="47.647583" lon="10.975286">
<ele>803.08</ele>
<time>2020-09-11T14:13:59Z</time>
</trkpt>
<trkpt lat="47.647621" lon="10.975373">
<ele>803.03</ele>
<time>2020-09-11T14:14:00Z</time>
</trkpt>
<trkpt lat="47.647663" lon="10.975465">
<ele>802.735</ele>
<time>2020-09-11T14:14:01Z</time>
</trkpt>
<trkpt lat="47.647697" lon="10.975552">
<ele>802.454</ele>
<time>2020-09-11T14:14:02Z</time>
</trkpt>
<trkpt lat="47.647736" lon="10.97564">
<ele>802.282</ele>
<time>2020-09-11T14:14:03Z</time>
</trkpt>
<trkpt lat="47.647766" lon="10.975735">
<ele>802.154</ele>
<time>2020-09-11T14:14:04Z</time>
</trkpt>
<trkpt lat="47.647797" lon="10.975833">
<ele>802.061</ele>
<time>2020-09-11T14:14:05Z</time>
</trkpt>
<trkpt lat="47.647816" lon="10.975935">
<ele>802.019</ele>
<time>2020-09-11T14:14:06Z</time>
</trkpt>
<trkpt lat="47.647831" lon="10.976036">
<ele>801.737</ele>
<time>2020-09-11T14:14:07Z</time>
</trkpt>
<trkpt lat="47.647839" lon="10.97614">
<ele>801.498</ele>
<time>2020-09-11T14:14:08Z</time>
</trkpt>
<trkpt lat="47.64785" lon="10.976243">
<ele>801.328</ele>
<time>2020-09-11T14:14:09Z</time>
</trkpt>
<trkpt lat="47.647861" lon="10.976348">
<ele>801.21</ele>
<time>2020-09-11T14:14:10Z</time>
</trkpt>
<trkpt lat="47.647869" lon="10.976455">
<ele>800.88</ele>
<time>2020-09-11T14:14:11Z</time>
</trkpt>
<trkpt lat="47.647873" lon="10.976566">
<ele>800.614</ele>
<time>2020-09-11T14:14:12Z</time>
</trkpt>
<trkpt lat="47.647881" lon="10.976677">
<ele>800.409</ele>
<time>2020-09-11T14:14:13Z</time>
</trkpt>
<trkpt lat="47.647881" lon="10.976787">
<ele>800.262</ele>
<time>2020-09-11T14:14:14Z</time>
</trkpt>
<trkpt lat="47.647881" lon="10.976897">
<ele>800.169</ele>
<time>2020-09-11T14:14:15Z</time>
</trkpt>
<trkpt lat="47.647877" lon="10.977004">
<ele>799.846</ele>
<time>2020-09-11T14:14:16Z</time>
</trkpt>
<trkpt lat="47.647873" lon="10.977107">
<ele>799.612</ele>
<time>2020-09-11T14:14:17Z</time>
</trkpt>
<trkpt lat="47.647865" lon="10.977212">
<ele>799.399</ele>
<time>2020-09-11T14:14:18Z</time>
</trkpt>
<trkpt lat="47.647861" lon="10.977314">
<ele>799.248</ele>
<time>2020-09-11T14:14:19Z</time>
</trkpt>
<trkpt lat="47.647854" lon="10.977417">
<ele>799.132</ele>
<time>2020-09-11T14:14:20Z</time>
</trkpt>
<trkpt lat="47.647846" lon="10.977518">
<ele>799.045</ele>
<time>2020-09-11T14:14:21Z</time>
</trkpt>
<trkpt lat="47.647839" lon="10.977616">
<ele>798.99</ele>
<time>2020-09-11T14:14:22Z</time>
</trkpt>
<trkpt lat="47.647835" lon="10.977715">
<ele>798.962</ele>
<time>2020-09-11T14:14:23Z</time>
</trkpt>
<trkpt lat="47.647831" lon="10.97781">
<ele>798.962</ele>
<time>2020-09-11T14:14:24Z</time>
</trkpt>
<trkpt lat="47.647823" lon="10.977907">
<ele>798.72</ele>
<time>2020-09-11T14:14:25Z</time>
</trkpt>
<trkpt lat="47.647812" lon="10.977997">
<ele>798.528</ele>
<time>2020-09-11T14:14:26Z</time>
</trkpt>
<trkpt lat="47.647804" lon="10.978091">
<ele>798.392</ele>
<time>2020-09-11T14:14:27Z</time>
</trkpt>
<trkpt lat="47.647797" lon="10.978187">
<ele>798.248</ele>
<time>2020-09-11T14:14:28Z</time>
</trkpt>
<trkpt lat="47.647793" lon="10.978284">
<ele>798.135</ele>
<time>2020-09-11T14:14:29Z</time>
</trkpt>
<trkpt lat="47.647789" lon="10.978378">
<ele>798.053</ele>
<time>2020-09-11T14:14:30Z</time>
</trkpt>
<trkpt lat="47.647781" lon="10.978485">
<ele>798</ele>
<time>2020-09-11T14:14:31Z</time>
</trkpt>
<trkpt lat="47.647774" lon="10.978588">
<ele>797.975</ele>
<time>2020-09-11T14:14:32Z</time>
</trkpt>
<trkpt lat="47.647774" lon="10.978691">
<ele>797.975</ele>
<time>2020-09-11T14:14:33Z</time>
</trkpt>
<trkpt lat="47.647774" lon="10.978795">
<ele>797.715</ele>
<time>2020-09-11T14:14:34Z</time>
</trkpt>
<trkpt lat="47.64777" lon="10.9789">
<ele>797.516</ele>
<time>2020-09-11T14:14:35Z</time>
</trkpt>
<trkpt lat="47.647766" lon="10.979007">
<ele>797.36</ele>
<time>2020-09-11T14:14:36Z</time>
</trkpt>
<trkpt lat="47.647766" lon="10.979114">
<ele>797.257</ele>
<time>2020-09-11T14:14:37Z</time>
</trkpt>
<trkpt lat="47.647766" lon="10.979223">
<ele>797.144</ele>
<time>2020-09-11T14:14:38Z</time>
</trkpt>
<trkpt lat="47.647762" lon="10.979332">
<ele>797.071</ele>
<time>2020-09-11T14:14:39Z</time>
</trkpt>
<trkpt lat="47.647762" lon="10.979441">
<ele>796.793</ele>
<time>2020-09-11T14:14:40Z</time>
</trkpt>
<trkpt lat="47.647762" lon="10.979553">
<ele>796.582</ele>
<time>2020-09-11T14:14:41Z</time>
</trkpt>
<trkpt lat="47.647762" lon="10.979667">
<ele>796.37</ele>
<time>2020-09-11T14:14:42Z</time>
</trkpt>
<trkpt lat="47.647762" lon="10.979778">
<ele>796.257</ele>
<time>2020-09-11T14:14:43Z</time>
</trkpt>
<trkpt lat="47.647766" lon="10.979896">
<ele>796.195</ele>
<time>2020-09-11T14:14:44Z</time>
</trkpt>
<trkpt lat="47.64777" lon="10.980008">
<ele>795.889</ele>
<time>2020-09-11T14:14:45Z</time>
</trkpt>
<trkpt lat="47.647778" lon="10.980117">
<ele>795.669</ele>
<time>2020-09-11T14:14:46Z</time>
</trkpt>
<trkpt lat="47.647785" lon="10.980225">
<ele>795.511</ele>
<time>2020-09-11T14:14:47Z</time>
</trkpt>
<trkpt lat="47.647793" lon="10.980331">
<ele>795.368</ele>
<time>2020-09-11T14:14:48Z</time>
</trkpt>
<trkpt lat="47.647804" lon="10.980438">
<ele>795.26</ele>
<time>2020-09-11T14:14:49Z</time>
</trkpt>
<trkpt lat="47.647816" lon="10.980547">
<ele>795.18</ele>
<time>2020-09-11T14:14:50Z</time>
</trkpt>
<trkpt lat="47.647827" lon="10.98065">
<ele>795.128</ele>
<time>2020-09-11T14:14:51Z</time>
</trkpt>
<trkpt lat="47.647831" lon="10.980753">
<ele>795.103</ele>
<time>2020-09-11T14:14:52Z</time>
</trkpt>
<trkpt lat="47.647835" lon="10.98085">
<ele>795.103</ele>
<time>2020-09-11T14:14:53Z</time>
</trkpt>
<trkpt lat="47.647839" lon="10.980943">
<ele>795.103</ele>
<time>2020-09-11T14:14:54Z</time>
</trkpt>
<trkpt lat="47.64785" lon="10.981038">
<ele>795.103</ele>
<time>2020-09-11T14:14:55Z</time>
</trkpt>
<trkpt lat="47.647858" lon="10.981132">
<ele>795.103</ele>
<time>2020-09-11T14:14:56Z</time>
</trkpt>
<trkpt lat="47.647865" lon="10.981221">
<ele>795.103</ele>
<time>2020-09-11T14:14:57Z</time>
</trkpt>
<trkpt lat="47.647877" lon="10.981305">
<ele>795.103</ele>
<time>2020-09-11T14:14:58Z</time>
</trkpt>
<trkpt lat="47.647892" lon="10.981392">
<ele>795.465</ele>
<time>2020-09-11T14:14:59Z</time>
</trkpt>
<trkpt lat="47.647907" lon="10.981473">
<ele>795.752</ele>
<time>2020-09-11T14:15:00Z</time>
</trkpt>
<trkpt lat="47.647923" lon="10.981555">
<ele>795.975</ele>
<time>2020-09-11T14:15:01Z</time>
</trkpt>
<trkpt lat="47.647938" lon="10.981633">
<ele>796.137</ele>
<time>2020-09-11T14:15:02Z</time>
</trkpt>
<trkpt lat="47.647957" lon="10.981715">
<ele>796.254</ele>
<time>2020-09-11T14:15:03Z</time>
</trkpt>
<trkpt lat="47.647976" lon="10.981791">
<ele>796.326</ele>
<time>2020-09-11T14:15:04Z</time>
</trkpt>
<trkpt lat="47.647999" lon="10.981863">
<ele>796.36</ele>
<time>2020-09-11T14:15:05Z</time>
</trkpt>
<trkpt lat="47.648022" lon="10.98194">
<ele>796.359</ele>
<time>2020-09-11T14:15:06Z</time>
</trkpt>
<trkpt lat="47.648033" lon="10.982023">
<ele>796.36</ele>
<time>2020-09-11T14:15:07Z</time>
</trkpt>
<trkpt lat="47.648056" lon="10.98209">
<ele>796.36</ele>
<time>2020-09-11T14:15:08Z</time>
</trkpt>
<trkpt lat="47.648083" lon="10.982163">
<ele>796.653</ele>
<time>2020-09-11T14:15:09Z</time>
</trkpt>
<trkpt lat="47.648102" lon="10.98224">
<ele>796.879</ele>
<time>2020-09-11T14:15:10Z</time>
</trkpt>
<trkpt lat="47.648125" lon="10.982306">
<ele>797.049</ele>
<time>2020-09-11T14:15:11Z</time>
</trkpt>
<trkpt lat="47.648148" lon="10.982368">
<ele>797.181</ele>
<time>2020-09-11T14:15:12Z</time>
</trkpt>
<trkpt lat="47.648178" lon="10.982424">
<ele>797.269</ele>
<time>2020-09-11T14:15:13Z</time>
</trkpt>
<trkpt lat="47.648197" lon="10.982485">
<ele>797.317</ele>
<time>2020-09-11T14:15:14Z</time>
</trkpt>
<trkpt lat="47.648228" lon="10.982546">
<ele>797.343</ele>
<time>2020-09-11T14:15:15Z</time>
</trkpt>
<trkpt lat="47.648258" lon="10.982616">
<ele>797.347</ele>
<time>2020-09-11T14:15:16Z</time>
</trkpt>
<trkpt lat="47.648254" lon="10.982726">
<ele>797.347</ele>
<time>2020-09-11T14:15:17Z</time>
</trkpt>
<trkpt lat="47.648281" lon="10.982797">
<ele>797.575</ele>
<time>2020-09-11T14:15:18Z</time>
</trkpt>
<trkpt lat="47.648312" lon="10.982863">
<ele>797.769</ele>
<time>2020-09-11T14:15:19Z</time>
</trkpt>
<trkpt lat="47.648342" lon="10.982926">
<ele>797.923</ele>
<time>2020-09-11T14:15:20Z</time>
</trkpt>
<trkpt lat="47.648346" lon="10.983036">
<ele>798.042</ele>
<time>2020-09-11T14:15:21Z</time>
</trkpt>
<trkpt lat="47.648365" lon="10.983138">
<ele>798.129</ele>
<time>2020-09-11T14:15:22Z</time>
</trkpt>
<trkpt lat="47.648384" lon="10.983232">
<ele>798.188</ele>
<time>2020-09-11T14:15:23Z</time>
</trkpt>
<trkpt lat="47.648411" lon="10.983315">
<ele>798.226</ele>
<time>2020-09-11T14:15:24Z</time>
</trkpt>
<trkpt lat="47.648441" lon="10.98339">
<ele>798.245</ele>
<time>2020-09-11T14:15:25Z</time>
</trkpt>
<trkpt lat="47.648468" lon="10.983463">
<ele>798.245</ele>
<time>2020-09-11T14:15:26Z</time>
</trkpt>
<trkpt lat="47.648491" lon="10.983535">
<ele>798.464</ele>
<time>2020-09-11T14:15:27Z</time>
</trkpt>
<trkpt lat="47.648521" lon="10.983603">
<ele>798.662</ele>
<time>2020-09-11T14:15:28Z</time>
</trkpt>
<trkpt lat="47.64854" lon="10.983671">
<ele>798.817</ele>
<time>2020-09-11T14:15:29Z</time>
</trkpt>
<trkpt lat="47.648579" lon="10.983733">
<ele>798.958</ele>
<time>2020-09-11T14:15:30Z</time>
</trkpt>
<trkpt lat="47.648602" lon="10.9838">
<ele>799.071</ele>
<time>2020-09-11T14:15:31Z</time>
</trkpt>
<trkpt lat="47.648628" lon="10.98387">
<ele>799.153</ele>
<time>2020-09-11T14:15:32Z</time>
</trkpt>
<trkpt lat="47.648655" lon="10.98394">
<ele>799.207</ele>
<time>2020-09-11T14:15:33Z</time>
</trkpt>
<trkpt lat="47.648678" lon="10.984012">
<ele>799.232</ele>
<time>2020-09-11T14:15:34Z</time>
</trkpt>
<trkpt lat="47.648701" lon="10.984083">
<ele>799.232</ele>
<time>2020-09-11T14:15:35Z</time>
</trkpt>
<trkpt lat="47.648724" lon="10.984153">
<ele>799.473</ele>
<time>2020-09-11T14:15:36Z</time>
</trkpt>
<trkpt lat="47.64875" lon="10.98422">
<ele>799.645</ele>
<time>2020-09-11T14:15:37Z</time>
</trkpt>
<trkpt lat="47.648777" lon="10.984286">
<ele>799.818</ele>
<time>2020-09-11T14:15:38Z</time>
</trkpt>
<trkpt lat="47.6488" lon="10.984352">
<ele>799.959</ele>
<time>2020-09-11T14:15:39Z</time>
</trkpt>
<trkpt lat="47.648815" lon="10.984415">
<ele>800.065</ele>
<time>2020-09-11T14:15:40Z</time>
</trkpt>
<trkpt lat="47.648834" lon="10.984478">
<ele>800.144</ele>
<time>2020-09-11T14:15:41Z</time>
</trkpt>
<trkpt lat="47.648853" lon="10.98454">
<ele>800.194</ele>
<time>2020-09-11T14:15:42Z</time>
</trkpt>
<trkpt lat="47.648876" lon="10.984603">
<ele>800.22</ele>
<time>2020-09-11T14:15:43Z</time>
</trkpt>
<trkpt lat="47.648891" lon="10.984668">
<ele>800.444</ele>
<time>2020-09-11T14:15:44Z</time>
</trkpt>
<trkpt lat="47.648911" lon="10.984734">
<ele>800.624</ele>
<time>2020-09-11T14:15:45Z</time>
</trkpt>
<trkpt lat="47.648926" lon="10.984798">
<ele>800.767</ele>
<time>2020-09-11T14:15:46Z</time>
</trkpt>
<trkpt lat="47.648945" lon="10.984861">
<ele>800.866</ele>
<time>2020-09-11T14:15:47Z</time>
</trkpt>
<trkpt lat="47.648956" lon="10.984928">
<ele>800.973</ele>
<time>2020-09-11T14:15:48Z</time>
</trkpt>
<trkpt lat="47.648975" lon="10.984995">
<ele>801.048</ele>
<time>2020-09-11T14:15:49Z</time>
</trkpt>
<trkpt lat="47.648987" lon="10.985065">
<ele>801.095</ele>
<time>2020-09-11T14:15:50Z</time>
</trkpt>
<trkpt lat="47.649006" lon="10.985135">
<ele>801.118</ele>
<time>2020-09-11T14:15:51Z</time>
</trkpt>
<trkpt lat="47.649017" lon="10.985209">
<ele>801.118</ele>
<time>2020-09-11T14:15:52Z</time>
</trkpt>
<trkpt lat="47.649033" lon="10.985285">
<ele>801.118</ele>
<time>2020-09-11T14:15:53Z</time>
</trkpt>
<trkpt lat="47.649044" lon="10.98536">
<ele>801.118</ele>
<time>2020-09-11T14:15:54Z</time>
</trkpt>
<trkpt lat="47.649059" lon="10.985435">
<ele>801.118</ele>
<time>2020-09-11T14:15:55Z</time>
</trkpt>
<trkpt lat="47.649075" lon="10.985512">
<ele>801.118</ele>
<time>2020-09-11T14:15:56Z</time>
</trkpt>
<trkpt lat="47.649086" lon="10.98559">
<ele>801.118</ele>
<time>2020-09-11T14:15:57Z</time>
</trkpt>
<trkpt lat="47.649101" lon="10.98567">
<ele>801.118</ele>
<time>2020-09-11T14:15:58Z</time>
</trkpt>
<trkpt lat="47.649113" lon="10.985751">
<ele>801.118</ele>
<time>2020-09-11T14:15:59Z</time>
</trkpt>
<trkpt lat="47.649132" lon="10.985833">
<ele>801.118</ele>
<time>2020-09-11T14:16:00Z</time>
</trkpt>
<trkpt lat="47.649143" lon="10.985917">
<ele>801.118</ele>
<time>2020-09-11T14:16:01Z</time>
</trkpt>
<trkpt lat="47.649155" lon="10.985998">
<ele>801.118</ele>
<time>2020-09-11T14:16:02Z</time>
</trkpt>
<trkpt lat="47.649174" lon="10.986082">
<ele>800.877</ele>
<time>2020-09-11T14:16:03Z</time>
</trkpt>
<trkpt lat="47.649185" lon="10.986166">
<ele>800.691</ele>
<time>2020-09-11T14:16:04Z</time>
</trkpt>
<trkpt lat="47.6492" lon="10.98625">
<ele>800.549</ele>
<time>2020-09-11T14:16:05Z</time>
</trkpt>
<trkpt lat="47.649216" lon="10.986336">
<ele>800.442</ele>
<time>2020-09-11T14:16:06Z</time>
</trkpt>
<trkpt lat="47.649231" lon="10.98642">
<ele>800.368</ele>
<time>2020-09-11T14:16:07Z</time>
</trkpt>
<trkpt lat="47.649246" lon="10.986504">
<ele>800.292</ele>
<time>2020-09-11T14:16:08Z</time>
</trkpt>
<trkpt lat="47.649261" lon="10.986587">
<ele>800.244</ele>
<time>2020-09-11T14:16:09Z</time>
</trkpt>
<trkpt lat="47.649277" lon="10.98667">
<ele>799.957</ele>
<time>2020-09-11T14:16:10Z</time>
</trkpt>
<trkpt lat="47.649292" lon="10.986754">
<ele>799.667</ele>
<time>2020-09-11T14:16:11Z</time>
</trkpt>
<trkpt lat="47.649303" lon="10.986841">
<ele>799.484</ele>
<time>2020-09-11T14:16:12Z</time>
</trkpt>
<trkpt lat="47.649323" lon="10.98693">
<ele>799.349</ele>
<time>2020-09-11T14:16:13Z</time>
</trkpt>
<trkpt lat="47.649338" lon="10.987019">
<ele>799.253</ele>
<time>2020-09-11T14:16:14Z</time>
</trkpt>
<trkpt lat="47.649353" lon="10.98711">
<ele>799.198</ele>
<time>2020-09-11T14:16:15Z</time>
</trkpt>
<trkpt lat="47.649368" lon="10.987202">
<ele>799.172</ele>
<time>2020-09-11T14:16:16Z</time>
</trkpt>
<trkpt lat="47.649387" lon="10.987295">
<ele>798.919</ele>
<time>2020-09-11T14:16:17Z</time>
</trkpt>
<trkpt lat="47.649403" lon="10.98739">
<ele>798.708</ele>
<time>2020-09-11T14:16:18Z</time>
</trkpt>
<trkpt lat="47.649422" lon="10.987485">
<ele>798.537</ele>
<time>2020-09-11T14:16:19Z</time>
</trkpt>
<trkpt lat="47.649437" lon="10.98758">
<ele>798.402</ele>
<time>2020-09-11T14:16:20Z</time>
</trkpt>
<trkpt lat="47.649456" lon="10.987675">
<ele>798.299</ele>
<time>2020-09-11T14:16:21Z</time>
</trkpt>
<trkpt lat="47.649471" lon="10.987771">
<ele>798.225</ele>
<time>2020-09-11T14:16:22Z</time>
</trkpt>
<trkpt lat="47.649494" lon="10.987867">
<ele>798.178</ele>
<time>2020-09-11T14:16:23Z</time>
</trkpt>
<trkpt lat="47.649506" lon="10.987964">
<ele>798.155</ele>
<time>2020-09-11T14:16:24Z</time>
</trkpt>
<trkpt lat="47.649525" lon="10.988064">
<ele>798.155</ele>
<time>2020-09-11T14:16:25Z</time>
</trkpt>
<trkpt lat="47.64954" lon="10.988162">
<ele>797.935</ele>
<time>2020-09-11T14:16:26Z</time>
</trkpt>
<trkpt lat="47.649563" lon="10.988259">
<ele>797.779</ele>
<time>2020-09-11T14:16:27Z</time>
</trkpt>
<trkpt lat="47.649574" lon="10.988357">
<ele>797.618</ele>
<time>2020-09-11T14:16:28Z</time>
</trkpt>
<trkpt lat="47.649597" lon="10.988455">
<ele>797.491</ele>
<time>2020-09-11T14:16:29Z</time>
</trkpt>
<trkpt lat="47.649612" lon="10.988555">
<ele>797.394</ele>
<time>2020-09-11T14:16:30Z</time>
</trkpt>
<trkpt lat="47.649632" lon="10.988653">
<ele>797.323</ele>
<time>2020-09-11T14:16:31Z</time>
</trkpt>
<trkpt lat="47.649647" lon="10.988751">
<ele>797.279</ele>
<time>2020-09-11T14:16:32Z</time>
</trkpt>
<trkpt lat="47.649662" lon="10.988852">
<ele>797.257</ele>
<time>2020-09-11T14:16:33Z</time>
</trkpt>
<trkpt lat="47.649681" lon="10.988952">
<ele>797.257</ele>
<time>2020-09-11T14:16:34Z</time>
</trkpt>
<trkpt lat="47.6497" lon="10.989052">
<ele>797.257</ele>
<time>2020-09-11T14:16:35Z</time>
</trkpt>
<trkpt lat="47.649719" lon="10.989152">
<ele>797.257</ele>
<time>2020-09-11T14:16:36Z</time>
</trkpt>
<trkpt lat="47.649734" lon="10.989254">
<ele>797.257</ele>
<time>2020-09-11T14:16:37Z</time>
</trkpt>
<trkpt lat="47.649757" lon="10.989357">
<ele>797.257</ele>
<time>2020-09-11T14:16:38Z</time>
</trkpt>
<trkpt lat="47.649773" lon="10.989458">
<ele>797.257</ele>
<time>2020-09-11T14:16:39Z</time>
</trkpt>
<trkpt lat="47.649792" lon="10.989558">
<ele>797.257</ele>
<time>2020-09-11T14:16:40Z</time>
</trkpt>
<trkpt lat="47.649811" lon="10.98966">
<ele>796.954</ele>
<time>2020-09-11T14:16:41Z</time>
</trkpt>
<trkpt lat="47.649826" lon="10.989761">
<ele>796.719</ele>
<time>2020-09-11T14:16:42Z</time>
</trkpt>
<trkpt lat="47.649845" lon="10.989863">
<ele>796.541</ele>
<time>2020-09-11T14:16:43Z</time>
</trkpt>
<trkpt lat="47.64986" lon="10.989964">
<ele>796.41</ele>
<time>2020-09-11T14:16:44Z</time>
</trkpt>
<trkpt lat="47.649879" lon="10.990065">
<ele>796.318</ele>
<time>2020-09-11T14:16:45Z</time>
</trkpt>
<trkpt lat="47.649891" lon="10.990167">
<ele>796.258</ele>
<time>2020-09-11T14:16:46Z</time>
</trkpt>
<trkpt lat="47.64991" lon="10.990269">
<ele>796.21</ele>
<time>2020-09-11T14:16:47Z</time>
</trkpt>
<trkpt lat="47.649925" lon="10.990372">
<ele>796.18</ele>
<time>2020-09-11T14:16:48Z</time>
</trkpt>
<trkpt lat="47.649944" lon="10.990477">
<ele>795.831</ele>
<time>2020-09-11T14:16:49Z</time>
</trkpt>
<trkpt lat="47.649956" lon="10.990582">
<ele>795.558</ele>
<time>2020-09-11T14:16:50Z</time>
</trkpt>
<trkpt lat="47.649971" lon="10.990687">
<ele>795.354</ele>
<time>2020-09-11T14:16:51Z</time>
</trkpt>
<trkpt lat="47.64999" lon="10.990793">
<ele>795.205</ele>
<time>2020-09-11T14:16:52Z</time>
</trkpt>
<trkpt lat="47.649998" lon="10.990901">
<ele>795.107</ele>
<time>2020-09-11T14:16:53Z</time>
</trkpt>
<trkpt lat="47.650013" lon="10.991006">
<ele>795.045</ele>
<time>2020-09-11T14:16:54Z</time>
</trkpt>
<trkpt lat="47.650021" lon="10.99111">
<ele>795.017</ele>
<time>2020-09-11T14:16:55Z</time>
</trkpt>
<trkpt lat="47.650036" lon="10.991213">
<ele>795.013</ele>
<time>2020-09-11T14:16:56Z</time>
</trkpt>
<trkpt lat="47.650047" lon="10.991316">
<ele>794.795</ele>
<time>2020-09-11T14:16:57Z</time>
</trkpt>
<trkpt lat="47.650055" lon="10.99142">
<ele>794.589</ele>
<time>2020-09-11T14:16:58Z</time>
</trkpt>
<trkpt lat="47.650059" lon="10.991522">
<ele>794.419</ele>
<time>2020-09-11T14:16:59Z</time>
</trkpt>
<trkpt lat="47.650063" lon="10.991626">
<ele>794.284</ele>
<time>2020-09-11T14:17:00Z</time>
</trkpt>
<trkpt lat="47.650074" lon="10.991731">
<ele>794.177</ele>
<time>2020-09-11T14:17:01Z</time>
</trkpt>
<trkpt lat="47.650082" lon="10.991838">
<ele>794.099</ele>
<time>2020-09-11T14:17:02Z</time>
</trkpt>
<trkpt lat="47.650085" lon="10.99194">
<ele>794.054</ele>
<time>2020-09-11T14:17:03Z</time>
</trkpt>
<trkpt lat="47.650093" lon="10.992045">
<ele>793.764</ele>
<time>2020-09-11T14:17:04Z</time>
</trkpt>
<trkpt lat="47.650097" lon="10.99215">
<ele>793.532</ele>
<time>2020-09-11T14:17:05Z</time>
</trkpt>
<trkpt lat="47.650101" lon="10.992254">
<ele>793.362</ele>
<time>2020-09-11T14:17:06Z</time>
</trkpt>
<trkpt lat="47.650105" lon="10.992359">
<ele>793.247</ele>
<time>2020-09-11T14:17:07Z</time>
</trkpt>
<trkpt lat="47.650108" lon="10.992463">
<ele>793.124</ele>
<time>2020-09-11T14:17:08Z</time>
</trkpt>
<trkpt lat="47.650112" lon="10.992568">
<ele>793.035</ele>
<time>2020-09-11T14:17:09Z</time>
</trkpt>
<trkpt lat="47.650116" lon="10.992675">
<ele>792.978</ele>
<time>2020-09-11T14:17:10Z</time>
</trkpt>
<trkpt lat="47.65012" lon="10.99278">
<ele>792.95</ele>
<time>2020-09-11T14:17:11Z</time>
</trkpt>
<trkpt lat="47.65012" lon="10.992887">
<ele>792.95</ele>
<time>2020-09-11T14:17:12Z</time>
</trkpt>
<trkpt lat="47.65012" lon="10.992995">
<ele>792.95</ele>
<time>2020-09-11T14:17:13Z</time>
</trkpt>
<trkpt lat="47.650124" lon="10.993103">
<ele>792.95</ele>
<time>2020-09-11T14:17:14Z</time>
</trkpt>
<trkpt lat="47.650124" lon="10.993214">
<ele>792.701</ele>
<time>2020-09-11T14:17:15Z</time>
</trkpt>
<trkpt lat="47.650127" lon="10.993325">
<ele>792.504</ele>
<time>2020-09-11T14:17:16Z</time>
</trkpt>
<trkpt lat="47.650124" lon="10.993437">
<ele>792.371</ele>
<time>2020-09-11T14:17:17Z</time>
</trkpt>
<trkpt lat="47.650124" lon="10.993548">
<ele>792.227</ele>
<time>2020-09-11T14:17:18Z</time>
</trkpt>
<trkpt lat="47.650124" lon="10.99366">
<ele>792.116</ele>
<time>2020-09-11T14:17:19Z</time>
</trkpt>
<trkpt lat="47.650127" lon="10.993772">
<ele>792.037</ele>
<time>2020-09-11T14:17:20Z</time>
</trkpt>
<trkpt lat="47.650127" lon="10.993883">
<ele>791.987</ele>
<time>2020-09-11T14:17:21Z</time>
</trkpt>
<trkpt lat="47.650127" lon="10.993994">
<ele>791.963</ele>
<time>2020-09-11T14:17:22Z</time>
</trkpt>
<trkpt lat="47.650127" lon="10.994103">
<ele>791.963</ele>
<time>2020-09-11T14:17:23Z</time>
</trkpt>
<trkpt lat="47.650135" lon="10.994211">
<ele>791.963</ele>
<time>2020-09-11T14:17:24Z</time>
</trkpt>
<trkpt lat="47.650139" lon="10.994322">
<ele>791.963</ele>
<time>2020-09-11T14:17:25Z</time>
</trkpt>
<trkpt lat="47.650146" lon="10.99443">
<ele>791.681</ele>
<time>2020-09-11T14:17:26Z</time>
</trkpt>
<trkpt lat="47.650154" lon="10.994538">
<ele>791.479</ele>
<time>2020-09-11T14:17:27Z</time>
</trkpt>
<trkpt lat="47.650166" lon="10.994645">
<ele>791.272</ele>
<time>2020-09-11T14:17:28Z</time>
</trkpt>
<trkpt lat="47.650177" lon="10.994752">
<ele>791.105</ele>
<time>2020-09-11T14:17:29Z</time>
</trkpt>
<trkpt lat="47.650192" lon="10.994855">
<ele>790.977</ele>
<time>2020-09-11T14:17:30Z</time>
</trkpt>
<trkpt lat="47.650204" lon="10.994957">
<ele>790.885</ele>
<time>2020-09-11T14:17:31Z</time>
</trkpt>
<trkpt lat="47.650219" lon="10.995057">
<ele>790.825</ele>
<time>2020-09-11T14:17:32Z</time>
</trkpt>
<trkpt lat="47.650234" lon="10.995154">
<ele>790.797</ele>
<time>2020-09-11T14:17:33Z</time>
</trkpt>
<trkpt lat="47.650249" lon="10.995252">
<ele>790.797</ele>
<time>2020-09-11T14:17:34Z</time>
</trkpt>
<trkpt lat="47.650261" lon="10.995345">
<ele>790.797</ele>
<time>2020-09-11T14:17:35Z</time>
</trkpt>
<trkpt lat="47.65028" lon="10.995439">
<ele>790.541</ele>
<time>2020-09-11T14:17:36Z</time>
</trkpt>
<trkpt lat="47.650291" lon="10.995528">
<ele>790.356</ele>
<time>2020-09-11T14:17:37Z</time>
</trkpt>
<trkpt lat="47.650311" lon="10.995619">
<ele>790.165</ele>
<time>2020-09-11T14:17:38Z</time>
</trkpt>
<trkpt lat="47.650322" lon="10.995708">
<ele>790.011</ele>
<time>2020-09-11T14:17:39Z</time>
</trkpt>
<trkpt lat="47.650337" lon="10.9958">
<ele>789.891</ele>
<time>2020-09-11T14:17:40Z</time>
</trkpt>
<trkpt lat="47.650352" lon="10.99589">
<ele>789.804</ele>
<time>2020-09-11T14:17:41Z</time>
</trkpt>
<trkpt lat="47.650368" lon="10.995981">
<ele>789.751</ele>
<time>2020-09-11T14:17:42Z</time>
</trkpt>
<trkpt lat="47.650379" lon="10.996076">
<ele>789.503</ele>
<time>2020-09-11T14:17:43Z</time>
</trkpt>
<trkpt lat="47.650379" lon="10.996168">
<ele>789.327</ele>
<time>2020-09-11T14:17:44Z</time>
</trkpt>
<trkpt lat="47.650383" lon="10.996264">
<ele>788.926</ele>
<time>2020-09-11T14:17:45Z</time>
</trkpt>
<trkpt lat="47.650383" lon="10.996367">
<ele>788.659</ele>
<time>2020-09-11T14:17:46Z</time>
</trkpt>
<trkpt lat="47.650379" lon="10.996469">
<ele>788.172</ele>
<time>2020-09-11T14:17:47Z</time>
</trkpt>
<trkpt lat="47.650368" lon="10.996573">
<ele>787.766</ele>
<time>2020-09-11T14:17:48Z</time>
</trkpt>
<trkpt lat="47.650352" lon="10.996676">
<ele>787.175</ele>
<time>2020-09-11T14:17:49Z</time>
</trkpt>
<trkpt lat="47.650337" lon="10.996785">
<ele>786.778</ele>
<time>2020-09-11T14:17:50Z</time>
</trkpt>
<trkpt lat="47.650326" lon="10.996902">
<ele>786.204</ele>
<time>2020-09-11T14:17:51Z</time>
</trkpt>
<trkpt lat="47.650314" lon="10.997023">
<ele>785.823</ele>
<time>2020-09-11T14:17:52Z</time>
</trkpt>
<trkpt lat="47.650299" lon="10.99715">
<ele>785.286</ele>
<time>2020-09-11T14:17:53Z</time>
</trkpt>
<trkpt lat="47.650291" lon="10.997276">
<ele>784.581</ele>
<time>2020-09-11T14:17:54Z</time>
</trkpt>
<trkpt lat="47.650284" lon="10.997406">
<ele>783.979</ele>
<time>2020-09-11T14:17:55Z</time>
</trkpt>
<trkpt lat="47.650272" lon="10.997537">
<ele>783.717</ele>
<time>2020-09-11T14:17:56Z</time>
</trkpt>
<trkpt lat="47.650261" lon="10.997668">
<ele>783.224</ele>
<time>2020-09-11T14:17:57Z</time>
</trkpt>
<trkpt lat="47.650257" lon="10.997791">
<ele>782.825</ele>
<time>2020-09-11T14:17:58Z</time>
</trkpt>
<trkpt lat="47.650249" lon="10.997917">
<ele>782.547</ele>
<time>2020-09-11T14:17:59Z</time>
</trkpt>
<trkpt lat="47.650249" lon="10.998038">
<ele>782.372</ele>
<time>2020-09-11T14:18:00Z</time>
</trkpt>
<trkpt lat="47.650246" lon="10.998158">
<ele>781.986</ele>
<time>2020-09-11T14:18:01Z</time>
</trkpt>
<trkpt lat="47.650249" lon="10.998276">
<ele>781.696</ele>
<time>2020-09-11T14:18:02Z</time>
</trkpt>
<trkpt lat="47.650249" lon="10.998395">
<ele>781.47</ele>
<time>2020-09-11T14:18:03Z</time>
</trkpt>
<trkpt lat="47.650246" lon="10.998512">
<ele>781.301</ele>
<time>2020-09-11T14:18:04Z</time>
</trkpt>
<trkpt lat="47.650249" lon="10.998625">
<ele>781.163</ele>
<time>2020-09-11T14:18:05Z</time>
</trkpt>
<trkpt lat="47.650261" lon="10.998732">
<ele>781.103</ele>
<time>2020-09-11T14:18:06Z</time>
</trkpt>
<trkpt lat="47.650269" lon="10.998837">
<ele>781.055</ele>
<time>2020-09-11T14:18:07Z</time>
</trkpt>
<trkpt lat="47.650284" lon="10.998941">
<ele>781.024</ele>
<time>2020-09-11T14:18:08Z</time>
</trkpt>
<trkpt lat="47.650303" lon="10.999043">
<ele>781.024</ele>
<time>2020-09-11T14:18:09Z</time>
</trkpt>
<trkpt lat="47.650318" lon="10.999142">
<ele>781.024</ele>
<time>2020-09-11T14:18:10Z</time>
</trkpt>
<trkpt lat="47.650337" lon="10.999237">
<ele>781.024</ele>
<time>2020-09-11T14:18:11Z</time>
</trkpt>
<trkpt lat="47.65036" lon="10.999325">
<ele>781.024</ele>
<time>2020-09-11T14:18:12Z</time>
</trkpt>
<trkpt lat="47.650387" lon="10.999412">
<ele>781.024</ele>
<time>2020-09-11T14:18:13Z</time>
</trkpt>
<trkpt lat="47.650414" lon="10.999492">
<ele>781.024</ele>
<time>2020-09-11T14:18:14Z</time>
</trkpt>
<trkpt lat="47.650444" lon="10.999568">
<ele>781.024</ele>
<time>2020-09-11T14:18:15Z</time>
</trkpt>
<trkpt lat="47.650478" lon="10.999638">
<ele>781.024</ele>
<time>2020-09-11T14:18:16Z</time>
</trkpt>
<trkpt lat="47.650505" lon="10.99971">
<ele>781.024</ele>
<time>2020-09-11T14:18:17Z</time>
</trkpt>
<trkpt lat="47.650532" lon="10.999782">
<ele>781.024</ele>
<time>2020-09-11T14:18:18Z</time>
</trkpt>
<trkpt lat="47.650551" lon="10.999858">
<ele>781.024</ele>
<time>2020-09-11T14:18:19Z</time>
</trkpt>
<trkpt lat="47.65057" lon="10.99994">
<ele>781.024</ele>
<time>2020-09-11T14:18:20Z</time>
</trkpt>
<trkpt lat="47.650585" lon="11.000027">
<ele>781.024</ele>
<time>2020-09-11T14:18:21Z</time>
</trkpt>
<trkpt lat="47.650593" lon="11.000123">
<ele>781.024</ele>
<time>2020-09-11T14:18:22Z</time>
</trkpt>
<trkpt lat="47.650589" lon="11.000224">
<ele>780.731</ele>
<time>2020-09-11T14:18:23Z</time>
</trkpt>
<trkpt lat="47.650578" lon="11.000325">
<ele>780.499</ele>
<time>2020-09-11T14:18:24Z</time>
</trkpt>
<trkpt lat="47.650558" lon="11.000425">
<ele>780.362</ele>
<time>2020-09-11T14:18:25Z</time>
</trkpt>
<trkpt lat="47.650536" lon="11.00052">
<ele>779.968</ele>
<time>2020-09-11T14:18:26Z</time>
</trkpt>
<trkpt lat="47.650509" lon="11.000611">
<ele>779.688</ele>
<time>2020-09-11T14:18:27Z</time>
</trkpt>
<trkpt lat="47.650482" lon="11.0007">
<ele>779.43</ele>
<time>2020-09-11T14:18:28Z</time>
</trkpt>
<trkpt lat="47.650467" lon="11.000787">
<ele>779.242</ele>
<time>2020-09-11T14:18:29Z</time>
</trkpt>
<trkpt lat="47.650444" lon="11.000872">
<ele>779.114</ele>
<time>2020-09-11T14:18:30Z</time>
</trkpt>
<trkpt lat="47.650433" lon="11.000957">
<ele>779.038</ele>
<time>2020-09-11T14:18:31Z</time>
</trkpt>
<trkpt lat="47.650414" lon="11.001043">
<ele>778.988</ele>
<time>2020-09-11T14:18:32Z</time>
</trkpt>
<trkpt lat="47.650406" lon="11.001129">
<ele>778.963</ele>
<time>2020-09-11T14:18:33Z</time>
</trkpt>
<trkpt lat="47.650394" lon="11.001211">
<ele>778.963</ele>
<time>2020-09-11T14:18:34Z</time>
</trkpt>
<trkpt lat="47.650379" lon="11.001293">
<ele>778.963</ele>
<time>2020-09-11T14:18:35Z</time>
</trkpt>
<trkpt lat="47.650372" lon="11.001376">
<ele>778.963</ele>
<time>2020-09-11T14:18:36Z</time>
</trkpt>
<trkpt lat="47.650356" lon="11.00146">
<ele>778.963</ele>
<time>2020-09-11T14:18:37Z</time>
</trkpt>
<trkpt lat="47.650345" lon="11.001544">
<ele>778.963</ele>
<time>2020-09-11T14:18:38Z</time>
</trkpt>
<trkpt lat="47.65033" lon="11.001626">
<ele>778.963</ele>
<time>2020-09-11T14:18:39Z</time>
</trkpt>
<trkpt lat="47.650318" lon="11.001708">
<ele>779.248</ele>
<time>2020-09-11T14:18:40Z</time>
</trkpt>
<trkpt lat="47.650311" lon="11.00179">
<ele>779.467</ele>
<time>2020-09-11T14:18:41Z</time>
</trkpt>
<trkpt lat="47.650299" lon="11.001868">
<ele>779.635</ele>
<time>2020-09-11T14:18:42Z</time>
</trkpt>
<trkpt lat="47.650288" lon="11.001946">
<ele>779.758</ele>
<time>2020-09-11T14:18:43Z</time>
</trkpt>
<trkpt lat="47.650276" lon="11.002024">
<ele>779.842</ele>
<time>2020-09-11T14:18:44Z</time>
</trkpt>
<trkpt lat="47.650261" lon="11.0021">
<ele>779.887</ele>
<time>2020-09-11T14:18:45Z</time>
</trkpt>
<trkpt lat="47.650246" lon="11.002173">
<ele>780.135</ele>
<time>2020-09-11T14:18:46Z</time>
</trkpt>
<trkpt lat="47.65023" lon="11.002244">
<ele>780.317</ele>
<time>2020-09-11T14:18:47Z</time>
</trkpt>
<trkpt lat="47.650211" lon="11.002318">
<ele>780.477</ele>
<time>2020-09-11T14:18:48Z</time>
</trkpt>
<trkpt lat="47.650196" lon="11.002393">
<ele>780.605</ele>
<time>2020-09-11T14:18:49Z</time>
</trkpt>
<trkpt lat="47.650181" lon="11.002463">
<ele>780.705</ele>
<time>2020-09-11T14:18:50Z</time>
</trkpt>
<trkpt lat="47.650158" lon="11.002531">
<ele>780.777</ele>
<time>2020-09-11T14:18:51Z</time>
</trkpt>
<trkpt lat="47.650139" lon="11.002598">
<ele>780.823</ele>
<time>2020-09-11T14:18:52Z</time>
</trkpt>
<trkpt lat="47.65012" lon="11.002665">
<ele>780.845</ele>
<time>2020-09-11T14:18:53Z</time>
</trkpt>
<trkpt lat="47.650097" lon="11.00273">
<ele>780.845</ele>
<time>2020-09-11T14:18:54Z</time>
</trkpt>
<trkpt lat="47.650078" lon="11.002791">
<ele>781.131</ele>
<time>2020-09-11T14:18:55Z</time>
</trkpt>
<trkpt lat="47.650059" lon="11.00285">
<ele>781.354</ele>
<time>2020-09-11T14:18:56Z</time>
</trkpt>
<trkpt lat="47.650036" lon="11.002912">
<ele>781.516</ele>
<time>2020-09-11T14:18:57Z</time>
</trkpt>
<trkpt lat="47.650017" lon="11.002976">
<ele>781.689</ele>
<time>2020-09-11T14:18:58Z</time>
</trkpt>
<trkpt lat="47.64999" lon="11.003044">
<ele>781.822</ele>
<time>2020-09-11T14:18:59Z</time>
</trkpt>
<trkpt lat="47.649971" lon="11.003114">
<ele>781.919</ele>
<time>2020-09-11T14:19:00Z</time>
</trkpt>
<trkpt lat="47.649952" lon="11.003182">
<ele>781.98</ele>
<time>2020-09-11T14:19:01Z</time>
</trkpt>
<trkpt lat="47.649929" lon="11.00325">
<ele>782.01</ele>
<time>2020-09-11T14:19:02Z</time>
</trkpt>
<trkpt lat="47.64991" lon="11.003322">
<ele>782.01</ele>
<time>2020-09-11T14:19:03Z</time>
</trkpt>
<trkpt lat="47.649891" lon="11.003393">
<ele>782.293</ele>
<time>2020-09-11T14:19:04Z</time>
</trkpt>
<trkpt lat="47.649872" lon="11.003467">
<ele>782.511</ele>
<time>2020-09-11T14:19:05Z</time>
</trkpt>
<trkpt lat="47.649853" lon="11.003543">
<ele>782.677</ele>
<time>2020-09-11T14:19:06Z</time>
</trkpt>
<trkpt lat="47.649834" lon="11.003618">
<ele>782.79</ele>
<time>2020-09-11T14:19:07Z</time>
</trkpt>
<trkpt lat="47.649818" lon="11.003695">
<ele>783.178</ele>
<time>2020-09-11T14:19:08Z</time>
</trkpt>
<trkpt lat="47.649807" lon="11.00377">
<ele>783.489</ele>
<time>2020-09-11T14:19:09Z</time>
</trkpt>
<trkpt lat="47.649796" lon="11.003846">
<ele>783.726</ele>
<time>2020-09-11T14:19:10Z</time>
</trkpt>
<trkpt lat="47.649792" lon="11.003928">
<ele>783.895</ele>
<time>2020-09-11T14:19:11Z</time>
</trkpt>
<trkpt lat="47.649788" lon="11.00401">
<ele>784.005</ele>
<time>2020-09-11T14:19:12Z</time>
</trkpt>
<trkpt lat="47.649788" lon="11.004089">
<ele>784.084</ele>
<time>2020-09-11T14:19:13Z</time>
</trkpt>
<trkpt lat="47.649788" lon="11.004169">
<ele>784.136</ele>
<time>2020-09-11T14:19:14Z</time>
</trkpt>
<trkpt lat="47.649788" lon="11.004251">
<ele>784.161</ele>
<time>2020-09-11T14:19:15Z</time>
</trkpt>
<trkpt lat="47.649788" lon="11.004329">
<ele>784.401</ele>
<time>2020-09-11T14:19:16Z</time>
</trkpt>
<trkpt lat="47.649792" lon="11.004406">
<ele>784.573</ele>
<time>2020-09-11T14:19:17Z</time>
</trkpt>
<trkpt lat="47.649792" lon="11.004487">
<ele>784.747</ele>
<time>2020-09-11T14:19:18Z</time>
</trkpt>
<trkpt lat="47.649796" lon="11.004567">
<ele>784.885</ele>
<time>2020-09-11T14:19:19Z</time>
</trkpt>
<trkpt lat="47.649796" lon="11.004646">
<ele>784.994</ele>
<time>2020-09-11T14:19:20Z</time>
</trkpt>
<trkpt lat="47.649803" lon="11.004725">
<ele>785.073</ele>
<time>2020-09-11T14:19:21Z</time>
</trkpt>
<trkpt lat="47.649811" lon="11.004802">
<ele>785.123</ele>
<time>2020-09-11T14:19:22Z</time>
</trkpt>
<trkpt lat="47.649815" lon="11.004878">
<ele>785.147</ele>
<time>2020-09-11T14:19:23Z</time>
</trkpt>
<trkpt lat="47.649822" lon="11.004951">
<ele>785.147</ele>
<time>2020-09-11T14:19:24Z</time>
</trkpt>
<trkpt lat="47.649818" lon="11.00502">
<ele>785.387</ele>
<time>2020-09-11T14:19:25Z</time>
</trkpt>
<trkpt lat="47.649818" lon="11.00509">
<ele>785.579</ele>
<time>2020-09-11T14:19:26Z</time>
</trkpt>
<trkpt lat="47.649822" lon="11.005162">
<ele>785.714</ele>
<time>2020-09-11T14:19:27Z</time>
</trkpt>
<trkpt lat="47.649826" lon="11.005229">
<ele>785.857</ele>
<time>2020-09-11T14:19:28Z</time>
</trkpt>
<trkpt lat="47.64983" lon="11.005297">
<ele>785.97</ele>
<time>2020-09-11T14:19:29Z</time>
</trkpt>
<trkpt lat="47.649834" lon="11.005359">
<ele>786.053</ele>
<time>2020-09-11T14:19:30Z</time>
</trkpt>
<trkpt lat="47.649837" lon="11.005422">
<ele>786.107</ele>
<time>2020-09-11T14:19:31Z</time>
</trkpt>
<trkpt lat="47.649841" lon="11.005485">
<ele>786.133</ele>
<time>2020-09-11T14:19:32Z</time>
</trkpt>
<trkpt lat="47.649853" lon="11.005551">
<ele>786.133</ele>
<time>2020-09-11T14:19:33Z</time>
</trkpt>
<trkpt lat="47.649853" lon="11.005628">
<ele>786.385</ele>
<time>2020-09-11T14:19:34Z</time>
</trkpt>
<trkpt lat="47.649853" lon="11.005709">
<ele>786.59</ele>
<time>2020-09-11T14:19:35Z</time>
</trkpt>
<trkpt lat="47.649853" lon="11.005787">
<ele>786.75</ele>
<time>2020-09-11T14:19:36Z</time>
</trkpt>
<trkpt lat="47.64986" lon="11.005857">
<ele>786.854</ele>
<time>2020-09-11T14:19:37Z</time>
</trkpt>
<trkpt lat="47.64986" lon="11.005935">
<ele>786.972</ele>
<time>2020-09-11T14:19:38Z</time>
</trkpt>
<trkpt lat="47.64986" lon="11.006008">
<ele>787.049</ele>
<time>2020-09-11T14:19:39Z</time>
</trkpt>
<trkpt lat="47.649864" lon="11.00608">
<ele>787.097</ele>
<time>2020-09-11T14:19:40Z</time>
</trkpt>
<trkpt lat="47.649864" lon="11.006149">
<ele>787.119</ele>
<time>2020-09-11T14:19:41Z</time>
</trkpt>
<trkpt lat="47.649868" lon="11.006213">
<ele>787.119</ele>
<time>2020-09-11T14:19:42Z</time>
</trkpt>
<trkpt lat="47.649868" lon="11.006282">
<ele>787.119</ele>
<time>2020-09-11T14:19:43Z</time>
</trkpt>
<trkpt lat="47.649872" lon="11.006344">
<ele>787.119</ele>
<time>2020-09-11T14:19:44Z</time>
</trkpt>
<trkpt lat="47.649872" lon="11.006398">
<ele>787.119</ele>
<time>2020-09-11T14:19:45Z</time>
</trkpt>
<trkpt lat="47.649879" lon="11.006456">
<ele>787.326</ele>
<time>2020-09-11T14:19:46Z</time>
</trkpt>
<trkpt lat="47.649879" lon="11.00652">
<ele>787.48</ele>
<time>2020-09-11T14:19:47Z</time>
</trkpt>
<trkpt lat="47.649872" lon="11.006587">
<ele>787.64</ele>
<time>2020-09-11T14:19:48Z</time>
</trkpt>
<trkpt lat="47.649868" lon="11.006655">
<ele>787.772</ele>
<time>2020-09-11T14:19:49Z</time>
</trkpt>
<trkpt lat="47.649864" lon="11.006719">
<ele>787.875</ele>
<time>2020-09-11T14:19:50Z</time>
</trkpt>
<trkpt lat="47.64986" lon="11.006785">
<ele>787.946</ele>
<time>2020-09-11T14:19:51Z</time>
</trkpt>
<trkpt lat="47.649857" lon="11.006857">
<ele>787.995</ele>
<time>2020-09-11T14:19:52Z</time>
</trkpt>
<trkpt lat="47.649853" lon="11.006927">
<ele>788.017</ele>
<time>2020-09-11T14:19:53Z</time>
</trkpt>
<trkpt lat="47.649845" lon="11.006989">
<ele>788.016</ele>
<time>2020-09-11T14:19:54Z</time>
</trkpt>
<trkpt lat="47.649845" lon="11.007065">
<ele>788.016</ele>
<time>2020-09-11T14:19:55Z</time>
</trkpt>
<trkpt lat="47.649837" lon="11.007136">
<ele>788.282</ele>
<time>2020-09-11T14:19:56Z</time>
</trkpt>
<trkpt lat="47.64983" lon="11.007205">
<ele>788.47</ele>
<time>2020-09-11T14:19:57Z</time>
</trkpt>
<trkpt lat="47.649826" lon="11.007277">
<ele>788.664</ele>
<time>2020-09-11T14:19:58Z</time>
</trkpt>
<trkpt lat="47.649815" lon="11.007333">
<ele>788.812</ele>
<time>2020-09-11T14:19:59Z</time>
</trkpt>
<trkpt lat="47.649807" lon="11.007397">
<ele>788.926</ele>
<time>2020-09-11T14:20:00Z</time>
</trkpt>
<trkpt lat="47.649796" lon="11.007452">
<ele>789.004</ele>
<time>2020-09-11T14:20:01Z</time>
</trkpt>
<trkpt lat="47.649792" lon="11.007504">
<ele>789.316</ele>
<time>2020-09-11T14:20:02Z</time>
</trkpt>
<trkpt lat="47.649784" lon="11.007553">
<ele>789.549</ele>
<time>2020-09-11T14:20:03Z</time>
</trkpt>
<trkpt lat="47.64978" lon="11.007611">
<ele>789.763</ele>
<time>2020-09-11T14:20:04Z</time>
</trkpt>
<trkpt lat="47.649776" lon="11.007683">
<ele>789.902</ele>
<time>2020-09-11T14:20:05Z</time>
</trkpt>
<trkpt lat="47.64978" lon="11.007758">
<ele>789.999</ele>
<time>2020-09-11T14:20:06Z</time>
</trkpt>
<trkpt lat="47.649773" lon="11.007854">
<ele>790.077</ele>
<time>2020-09-11T14:20:07Z</time>
</trkpt>
<trkpt lat="47.649773" lon="11.007934">
<ele>790.138</ele>
<time>2020-09-11T14:20:08Z</time>
</trkpt>
<trkpt lat="47.649761" lon="11.008043">
<ele>790.169</ele>
<time>2020-09-11T14:20:09Z</time>
</trkpt>
<trkpt lat="47.649757" lon="11.008135">
<ele>790.169</ele>
<time>2020-09-11T14:20:10Z</time>
</trkpt>
<trkpt lat="47.649746" lon="11.008231">
<ele>790.51</ele>
<time>2020-09-11T14:20:11Z</time>
</trkpt>
<trkpt lat="47.649757" lon="11.008307">
<ele>790.738</ele>
<time>2020-09-11T14:20:12Z</time>
</trkpt>
<trkpt lat="47.649769" lon="11.008382">
<ele>790.9</ele>
<time>2020-09-11T14:20:13Z</time>
</trkpt>
<trkpt lat="47.649761" lon="11.008492">
<ele>791.023</ele>
<time>2020-09-11T14:20:14Z</time>
</trkpt>
<trkpt lat="47.649757" lon="11.008595">
<ele>791.107</ele>
<time>2020-09-11T14:20:15Z</time>
</trkpt>
<trkpt lat="47.649761" lon="11.0087">
<ele>791.171</ele>
<time>2020-09-11T14:20:16Z</time>
</trkpt>
<trkpt lat="47.649761" lon="11.008799">
<ele>791.21</ele>
<time>2020-09-11T14:20:17Z</time>
</trkpt>
<trkpt lat="47.649765" lon="11.008888">
<ele>791.491</ele>
<time>2020-09-11T14:20:18Z</time>
</trkpt>
<trkpt lat="47.649769" lon="11.008971">
<ele>791.694</ele>
<time>2020-09-11T14:20:19Z</time>
</trkpt>
<trkpt lat="47.649776" lon="11.009051">
<ele>791.863</ele>
<time>2020-09-11T14:20:20Z</time>
</trkpt>
<trkpt lat="47.649792" lon="11.009132">
<ele>791.983</ele>
<time>2020-09-11T14:20:21Z</time>
</trkpt>
<trkpt lat="47.649796" lon="11.009206">
<ele>792.055</ele>
<time>2020-09-11T14:20:22Z</time>
</trkpt>
<trkpt lat="47.649803" lon="11.009278">
<ele>792.367</ele>
<time>2020-09-11T14:20:23Z</time>
</trkpt>
<trkpt lat="47.649815" lon="11.00935">
<ele>792.619</ele>
<time>2020-09-11T14:20:24Z</time>
</trkpt>
<trkpt lat="47.649818" lon="11.009418">
<ele>792.817</ele>
<time>2020-09-11T14:20:25Z</time>
</trkpt>
<trkpt lat="47.649826" lon="11.009486">
<ele>792.957</ele>
<time>2020-09-11T14:20:26Z</time>
</trkpt>
<trkpt lat="47.649834" lon="11.009552">
<ele>793.046</ele>
<time>2020-09-11T14:20:27Z</time>
</trkpt>
<trkpt lat="47.649841" lon="11.009615">
<ele>793.133</ele>
<time>2020-09-11T14:20:28Z</time>
</trkpt>
<trkpt lat="47.649849" lon="11.009675">
<ele>793.19</ele>
<time>2020-09-11T14:20:29Z</time>
</trkpt>
<trkpt lat="47.649857" lon="11.009733">
<ele>793.219</ele>
<time>2020-09-11T14:20:30Z</time>
</trkpt>
<trkpt lat="47.64986" lon="11.009792">
<ele>793.219</ele>
<time>2020-09-11T14:20:31Z</time>
</trkpt>
<trkpt lat="47.64986" lon="11.009851">
<ele>793.219</ele>
<time>2020-09-11T14:20:32Z</time>
</trkpt>
<trkpt lat="47.649868" lon="11.00991">
<ele>793.471</ele>
<time>2020-09-11T14:20:33Z</time>
</trkpt>
<trkpt lat="47.649876" lon="11.009974">
<ele>793.677</ele>
<time>2020-09-11T14:20:34Z</time>
</trkpt>
<trkpt lat="47.649879" lon="11.010041">
<ele>793.838</ele>
<time>2020-09-11T14:20:35Z</time>
</trkpt>
<trkpt lat="47.649887" lon="11.010103">
<ele>793.958</ele>
<time>2020-09-11T14:20:36Z</time>
</trkpt>
<trkpt lat="47.649891" lon="11.010165">
<ele>794.043</ele>
<time>2020-09-11T14:20:37Z</time>
</trkpt>
<trkpt lat="47.649899" lon="11.010235">
<ele>794.126</ele>
<time>2020-09-11T14:20:38Z</time>
</trkpt>
<trkpt lat="47.649902" lon="11.010314">
<ele>794.431</ele>
<time>2020-09-11T14:20:39Z</time>
</trkpt>
<trkpt lat="47.649914" lon="11.010377">
<ele>794.66</ele>
<time>2020-09-11T14:20:40Z</time>
</trkpt>
<trkpt lat="47.649914" lon="11.010448">
<ele>794.913</ele>
<time>2020-09-11T14:20:41Z</time>
</trkpt>
<trkpt lat="47.649918" lon="11.010515">
<ele>795.028</ele>
<time>2020-09-11T14:20:42Z</time>
</trkpt>
<trkpt lat="47.649921" lon="11.010582">
<ele>795.113</ele>
<time>2020-09-11T14:20:43Z</time>
</trkpt>
<trkpt lat="47.649925" lon="11.010647">
<ele>795.166</ele>
<time>2020-09-11T14:20:44Z</time>
</trkpt>
<trkpt lat="47.649925" lon="11.010712">
<ele>795.193</ele>
<time>2020-09-11T14:20:45Z</time>
</trkpt>
<trkpt lat="47.649925" lon="11.010772">
<ele>795.193</ele>
<time>2020-09-11T14:20:46Z</time>
</trkpt>
<trkpt lat="47.649925" lon="11.010842">
<ele>795.193</ele>
<time>2020-09-11T14:20:47Z</time>
</trkpt>
<trkpt lat="47.649925" lon="11.01091">
<ele>795.193</ele>
<time>2020-09-11T14:20:48Z</time>
</trkpt>
<trkpt lat="47.649925" lon="11.010981">
<ele>795.193</ele>
<time>2020-09-11T14:20:49Z</time>
</trkpt>
<trkpt lat="47.649929" lon="11.011045">
<ele>795.505</ele>
<time>2020-09-11T14:20:50Z</time>
</trkpt>
<trkpt lat="47.649933" lon="11.011105">
<ele>795.746</ele>
<time>2020-09-11T14:20:51Z</time>
</trkpt>
<trkpt lat="47.649937" lon="11.011158">
<ele>795.928</ele>
<time>2020-09-11T14:20:52Z</time>
</trkpt>
<trkpt lat="47.649952" lon="11.011219">
<ele>796.061</ele>
<time>2020-09-11T14:20:53Z</time>
</trkpt>
<trkpt lat="47.649979" lon="11.011285">
<ele>796.155</ele>
<time>2020-09-11T14:20:54Z</time>
</trkpt>
<trkpt lat="47.649994" lon="11.01135">
<ele>796.21</ele>
<time>2020-09-11T14:20:55Z</time>
</trkpt>
<trkpt lat="47.650021" lon="11.011414">
<ele>796.244</ele>
<time>2020-09-11T14:20:56Z</time>
</trkpt>
<trkpt lat="47.650036" lon="11.011483">
<ele>796.27</ele>
<time>2020-09-11T14:20:57Z</time>
</trkpt>
<trkpt lat="47.650055" lon="11.011546">
<ele>796.27</ele>
<time>2020-09-11T14:20:58Z</time>
</trkpt>
<trkpt lat="47.65007" lon="11.011603">
<ele>796.27</ele>
<time>2020-09-11T14:20:59Z</time>
</trkpt>
<trkpt lat="47.650085" lon="11.011651">
<ele>796.27</ele>
<time>2020-09-11T14:21:00Z</time>
</trkpt>
<trkpt lat="47.650101" lon="11.011699">
<ele>796.534</ele>
<time>2020-09-11T14:21:02Z</time>
</trkpt>
<trkpt lat="47.650131" lon="11.011806">
<ele>796.905</ele>
<time>2020-09-11T14:21:03Z</time>
</trkpt>
<trkpt lat="47.65015" lon="11.011868">
<ele>797.029</ele>
<time>2020-09-11T14:21:04Z</time>
</trkpt>
<trkpt lat="47.650169" lon="11.011921">
<ele>797.115</ele>
<time>2020-09-11T14:21:05Z</time>
</trkpt>
<trkpt lat="47.650188" lon="11.011969">
<ele>797.179</ele>
<time>2020-09-11T14:21:06Z</time>
</trkpt>
<trkpt lat="47.650219" lon="11.012032">
<ele>797.228</ele>
<time>2020-09-11T14:21:07Z</time>
</trkpt>
<trkpt lat="47.650249" lon="11.012092">
<ele>797.257</ele>
<time>2020-09-11T14:21:08Z</time>
</trkpt>
<trkpt lat="47.650269" lon="11.012145">
<ele>797.257</ele>
<time>2020-09-11T14:21:09Z</time>
</trkpt>
<trkpt lat="47.650291" lon="11.012203">
<ele>797.257</ele>
<time>2020-09-11T14:21:10Z</time>
</trkpt>
<trkpt lat="47.650314" lon="11.012263">
<ele>797.257</ele>
<time>2020-09-11T14:21:11Z</time>
</trkpt>
<trkpt lat="47.650337" lon="11.012334">
<ele>797.257</ele>
<time>2020-09-11T14:21:12Z</time>
</trkpt>
<trkpt lat="47.65036" lon="11.012401">
<ele>797.503</ele>
<time>2020-09-11T14:21:13Z</time>
</trkpt>
<trkpt lat="47.650379" lon="11.012465">
<ele>797.69</ele>
<time>2020-09-11T14:21:14Z</time>
</trkpt>
<trkpt lat="47.650398" lon="11.012523">
<ele>797.825</ele>
<time>2020-09-11T14:21:15Z</time>
</trkpt>
<trkpt lat="47.65041" lon="11.012587">
<ele>797.91</ele>
<time>2020-09-11T14:21:16Z</time>
</trkpt>
<trkpt lat="47.650417" lon="11.012652">
<ele>798.234</ele>
<time>2020-09-11T14:21:17Z</time>
</trkpt>
<trkpt lat="47.650429" lon="11.012713">
<ele>798.507</ele>
<time>2020-09-11T14:21:18Z</time>
</trkpt>
<trkpt lat="47.65044" lon="11.012776">
<ele>798.721</ele>
<time>2020-09-11T14:21:19Z</time>
</trkpt>
<trkpt lat="47.650448" lon="11.012838">
<ele>798.874</ele>
<time>2020-09-11T14:21:20Z</time>
</trkpt>
<trkpt lat="47.650452" lon="11.012897">
<ele>798.969</ele>
<time>2020-09-11T14:21:21Z</time>
</trkpt>
<trkpt lat="47.650455" lon="11.012959">
<ele>799.293</ele>
<time>2020-09-11T14:21:22Z</time>
</trkpt>
<trkpt lat="47.650455" lon="11.013019">
<ele>799.553</ele>
<time>2020-09-11T14:21:23Z</time>
</trkpt>
<trkpt lat="47.650455" lon="11.01308">
<ele>799.742</ele>
<time>2020-09-11T14:21:24Z</time>
</trkpt>
<trkpt lat="47.650459" lon="11.013146">
<ele>799.892</ele>
<time>2020-09-11T14:21:25Z</time>
</trkpt>
<trkpt lat="47.650455" lon="11.013209">
<ele>799.961</ele>
<time>2020-09-11T14:21:26Z</time>
</trkpt>
<trkpt lat="47.650452" lon="11.013267">
<ele>800.245</ele>
<time>2020-09-11T14:21:27Z</time>
</trkpt>
<trkpt lat="47.650448" lon="11.013318">
<ele>800.49</ele>
<time>2020-09-11T14:21:28Z</time>
</trkpt>
<trkpt lat="47.650444" lon="11.013365">
<ele>800.671</ele>
<time>2020-09-11T14:21:29Z</time>
</trkpt>
<trkpt lat="47.650444" lon="11.013411">
<ele>800.791</ele>
<time>2020-09-11T14:21:30Z</time>
</trkpt>
<trkpt lat="47.650433" lon="11.013461">
<ele>800.886</ele>
<time>2020-09-11T14:21:31Z</time>
</trkpt>
<trkpt lat="47.650414" lon="11.013496">
<ele>800.955</ele>
<time>2020-09-11T14:21:32Z</time>
</trkpt>
<trkpt lat="47.650383" lon="11.013522">
<ele>801.002</ele>
<time>2020-09-11T14:21:33Z</time>
</trkpt>
<trkpt lat="47.650349" lon="11.013536">
<ele>801.028</ele>
<time>2020-09-11T14:21:34Z</time>
</trkpt>
<trkpt lat="47.650314" lon="11.013547">
<ele>801.028</ele>
<time>2020-09-11T14:21:35Z</time>
</trkpt>
<trkpt lat="47.650284" lon="11.013556">
<ele>801.028</ele>
<time>2020-09-11T14:21:36Z</time>
</trkpt>
<trkpt lat="47.650249" lon="11.013566">
<ele>801.028</ele>
<time>2020-09-11T14:21:37Z</time>
</trkpt>
<trkpt lat="47.650219" lon="11.013574">
<ele>801.028</ele>
<time>2020-09-11T14:21:38Z</time>
</trkpt>
<trkpt lat="47.650185" lon="11.013578">
<ele>801.028</ele>
<time>2020-09-11T14:21:39Z</time>
</trkpt>
<trkpt lat="47.65015" lon="11.013578">
<ele>801.028</ele>
<time>2020-09-11T14:21:40Z</time>
</trkpt>
<trkpt lat="47.650112" lon="11.013574">
<ele>801.332</ele>
<time>2020-09-11T14:21:41Z</time>
</trkpt>
<trkpt lat="47.650074" lon="11.013565">
<ele>801.568</ele>
<time>2020-09-11T14:21:42Z</time>
</trkpt>
<trkpt lat="47.650036" lon="11.013557">
<ele>801.749</ele>
<time>2020-09-11T14:21:43Z</time>
</trkpt>
<trkpt lat="47.650002" lon="11.01355">
<ele>801.881</ele>
<time>2020-09-11T14:21:44Z</time>
</trkpt>
<trkpt lat="47.649963" lon="11.013547">
<ele>801.971</ele>
<time>2020-09-11T14:21:45Z</time>
</trkpt>
<trkpt lat="47.649925" lon="11.013547">
<ele>802.023</ele>
<time>2020-09-11T14:21:46Z</time>
</trkpt>
<trkpt lat="47.649891" lon="11.013552">
<ele>802.317</ele>
<time>2020-09-11T14:21:47Z</time>
</trkpt>
<trkpt lat="47.649853" lon="11.01355">
<ele>802.572</ele>
<time>2020-09-11T14:21:48Z</time>
</trkpt>
<trkpt lat="47.649815" lon="11.013561">
<ele>802.757</ele>
<time>2020-09-11T14:21:49Z</time>
</trkpt>
<trkpt lat="47.649776" lon="11.013582">
<ele>802.908</ele>
<time>2020-09-11T14:21:50Z</time>
</trkpt>
<trkpt lat="47.649734" lon="11.013593">
<ele>803.024</ele>
<time>2020-09-11T14:21:51Z</time>
</trkpt>
<trkpt lat="47.649696" lon="11.013607">
<ele>803.107</ele>
<time>2020-09-11T14:21:52Z</time>
</trkpt>
<trkpt lat="47.649658" lon="11.01362">
<ele>803.157</ele>
<time>2020-09-11T14:21:53Z</time>
</trkpt>
<trkpt lat="47.649616" lon="11.013638">
<ele>803.183</ele>
<time>2020-09-11T14:21:54Z</time>
</trkpt>
<trkpt lat="47.649574" lon="11.013659">
<ele>803.183</ele>
<time>2020-09-11T14:21:55Z</time>
</trkpt>
<trkpt lat="47.649536" lon="11.013681">
<ele>803.183</ele>
<time>2020-09-11T14:21:56Z</time>
</trkpt>
<trkpt lat="47.649502" lon="11.013705">
<ele>803.183</ele>
<time>2020-09-11T14:21:57Z</time>
</trkpt>
<trkpt lat="47.649467" lon="11.013735">
<ele>803.183</ele>
<time>2020-09-11T14:21:58Z</time>
</trkpt>
<trkpt lat="47.649437" lon="11.013771">
<ele>803.183</ele>
<time>2020-09-11T14:21:59Z</time>
</trkpt>
<trkpt lat="47.64941" lon="11.013803">
<ele>803.183</ele>
<time>2020-09-11T14:22:00Z</time>
</trkpt>
<trkpt lat="47.649384" lon="11.013834">
<ele>803.183</ele>
<time>2020-09-11T14:22:01Z</time>
</trkpt>
<trkpt lat="47.649353" lon="11.013859">
<ele>803.183</ele>
<time>2020-09-11T14:22:02Z</time>
</trkpt>
<trkpt lat="47.649323" lon="11.013884">
<ele>803.183</ele>
<time>2020-09-11T14:22:03Z</time>
</trkpt>
<trkpt lat="47.649292" lon="11.013913">
<ele>803.183</ele>
<time>2020-09-11T14:22:04Z</time>
</trkpt>
<trkpt lat="47.649269" lon="11.013939">
<ele>803.183</ele>
<time>2020-09-11T14:22:05Z</time>
</trkpt>
<trkpt lat="47.649246" lon="11.013964">
<ele>803.183</ele>
<time>2020-09-11T14:22:06Z</time>
</trkpt>
<trkpt lat="47.649231" lon="11.01398">
<ele>803.183</ele>
<time>2020-09-11T14:22:07Z</time>
</trkpt>
<trkpt lat="47.649208" lon="11.013997">
<ele>803.183</ele>
<time>2020-09-11T14:22:08Z</time>
</trkpt>
<trkpt lat="47.649181" lon="11.014011">
<ele>803.183</ele>
<time>2020-09-11T14:22:09Z</time>
</trkpt>
<trkpt lat="47.649155" lon="11.014027">
<ele>803.183</ele>
<time>2020-09-11T14:22:10Z</time>
</trkpt>
<trkpt lat="47.649132" lon="11.014039">
<ele>803.183</ele>
<time>2020-09-11T14:22:11Z</time>
</trkpt>
<trkpt lat="47.649109" lon="11.014044">
<ele>803.183</ele>
<time>2020-09-11T14:22:12Z</time>
</trkpt>
<trkpt lat="47.649086" lon="11.014053">
<ele>803.183</ele>
<time>2020-09-11T14:22:13Z</time>
</trkpt>
<trkpt lat="47.649082" lon="11.014062">
<ele>803.183</ele>
<time>2020-09-11T14:22:14Z</time>
</trkpt>
<trkpt lat="47.649075" lon="11.01408">
<ele>803.183</ele>
<time>2020-09-11T14:22:15Z</time>
</trkpt>
<trkpt lat="47.649082" lon="11.01409">
<ele>803.183</ele>
<time>2020-09-11T14:22:16Z</time>
</trkpt>
<trkpt lat="47.649086" lon="11.014098">
<ele>803.183</ele>
<time>2020-09-11T14:22:17Z</time>
</trkpt>
<trkpt lat="47.649094" lon="11.0141">
<ele>803.183</ele>
<time>2020-09-11T14:22:18Z</time>
</trkpt>
<trkpt lat="47.649109" lon="11.014105">
<ele>803.183</ele>
<time>2020-09-11T14:22:19Z</time>
</trkpt>
<trkpt lat="47.649117" lon="11.014098">
<ele>803.183</ele>
<time>2020-09-11T14:22:20Z</time>
</trkpt>
<trkpt lat="47.649136" lon="11.014093">
<ele>803.183</ele>
<time>2020-09-11T14:22:21Z</time>
</trkpt>
<trkpt lat="47.649155" lon="11.01408">
<ele>803.183</ele>
<time>2020-09-11T14:22:22Z</time>
</trkpt>
<trkpt lat="47.649181" lon="11.014071">
<ele>803.183</ele>
<time>2020-09-11T14:22:23Z</time>
</trkpt>
<trkpt lat="47.649208" lon="11.014079">
<ele>803.183</ele>
<time>2020-09-11T14:22:24Z</time>
</trkpt>
<trkpt lat="47.649231" lon="11.014107">
<ele>803.183</ele>
<time>2020-09-11T14:22:25Z</time>
</trkpt>
<trkpt lat="47.649242" lon="11.014147">
<ele>803.183</ele>
<time>2020-09-11T14:22:26Z</time>
</trkpt>
<trkpt lat="47.649258" lon="11.014194">
<ele>803.183</ele>
<time>2020-09-11T14:22:27Z</time>
</trkpt>
<trkpt lat="47.649269" lon="11.014238">
<ele>803.183</ele>
<time>2020-09-11T14:22:28Z</time>
</trkpt>
<trkpt lat="47.649277" lon="11.014285">
<ele>803.183</ele>
<time>2020-09-11T14:22:29Z</time>
</trkpt>
<trkpt lat="47.649288" lon="11.014326">
<ele>803.183</ele>
<time>2020-09-11T14:22:30Z</time>
</trkpt>
<trkpt lat="47.649292" lon="11.014368">
<ele>803.183</ele>
<time>2020-09-11T14:22:31Z</time>
</trkpt>
<trkpt lat="47.649296" lon="11.014417">
<ele>803.183</ele>
<time>2020-09-11T14:22:32Z</time>
</trkpt>
<trkpt lat="47.649303" lon="11.014464">
<ele>803.183</ele>
<time>2020-09-11T14:22:33Z</time>
</trkpt>
<trkpt lat="47.649303" lon="11.01451">
<ele>803.183</ele>
<time>2020-09-11T14:22:34Z</time>
</trkpt>
<trkpt lat="47.649315" lon="11.01455">
<ele>803.426</ele>
<time>2020-09-11T14:22:35Z</time>
</trkpt>
<trkpt lat="47.649323" lon="11.01459">
<ele>803.62</ele>
<time>2020-09-11T14:22:36Z</time>
</trkpt>
<trkpt lat="47.64933" lon="11.014627">
<ele>803.756</ele>
<time>2020-09-11T14:22:37Z</time>
</trkpt>
<trkpt lat="47.649326" lon="11.014676">
<ele>803.904</ele>
<time>2020-09-11T14:22:38Z</time>
</trkpt>
<trkpt lat="47.64933" lon="11.014725">
<ele>804.014</ele>
<time>2020-09-11T14:22:39Z</time>
</trkpt>
<trkpt lat="47.649349" lon="11.014778">
<ele>804.091</ele>
<time>2020-09-11T14:22:40Z</time>
</trkpt>
<trkpt lat="47.649364" lon="11.01483">
<ele>804.145</ele>
<time>2020-09-11T14:22:41Z</time>
</trkpt>
<trkpt lat="47.64938" lon="11.014878">
<ele>804.171</ele>
<time>2020-09-11T14:22:42Z</time>
</trkpt>
<trkpt lat="47.649399" lon="11.01493">
<ele>804.171</ele>
<time>2020-09-11T14:22:43Z</time>
</trkpt>
<trkpt lat="47.64941" lon="11.014984">
<ele>804.171</ele>
<time>2020-09-11T14:22:44Z</time>
</trkpt>
<trkpt lat="47.649429" lon="11.01504">
<ele>804.171</ele>
<time>2020-09-11T14:22:45Z</time>
</trkpt>
<trkpt lat="47.649441" lon="11.015097">
<ele>804.171</ele>
<time>2020-09-11T14:22:46Z</time>
</trkpt>
<trkpt lat="47.64946" lon="11.015154">
<ele>804.171</ele>
<time>2020-09-11T14:22:47Z</time>
</trkpt>
<trkpt lat="47.649479" lon="11.015206">
<ele>804.171</ele>
<time>2020-09-11T14:22:48Z</time>
</trkpt>
<trkpt lat="47.649502" lon="11.015265">
<ele>804.171</ele>
<time>2020-09-11T14:22:49Z</time>
</trkpt>
<trkpt lat="47.649513" lon="11.015322">
<ele>804.171</ele>
<time>2020-09-11T14:22:50Z</time>
</trkpt>
<trkpt lat="47.649532" lon="11.01538">
<ele>804.476</ele>
<time>2020-09-11T14:22:51Z</time>
</trkpt>
<trkpt lat="47.649544" lon="11.015435">
<ele>804.713</ele>
<time>2020-09-11T14:22:52Z</time>
</trkpt>
<trkpt lat="47.649555" lon="11.015491">
<ele>804.89</ele>
<time>2020-09-11T14:22:53Z</time>
</trkpt>
<trkpt lat="47.649567" lon="11.015548">
<ele>805.016</ele>
<time>2020-09-11T14:22:54Z</time>
</trkpt>
<trkpt lat="47.64957" lon="11.015605">
<ele>805.107</ele>
<time>2020-09-11T14:22:55Z</time>
</trkpt>
<trkpt lat="47.649582" lon="11.01566">
<ele>805.17</ele>
<time>2020-09-11T14:22:56Z</time>
</trkpt>
<trkpt lat="47.649593" lon="11.015717">
<ele>805.217</ele>
<time>2020-09-11T14:22:57Z</time>
</trkpt>
<trkpt lat="47.649605" lon="11.015775">
<ele>805.249</ele>
<time>2020-09-11T14:22:58Z</time>
</trkpt>
<trkpt lat="47.64962" lon="11.015841">
<ele>805.249</ele>
<time>2020-09-11T14:22:59Z</time>
</trkpt>
<trkpt lat="47.649635" lon="11.015903">
<ele>805.249</ele>
<time>2020-09-11T14:23:00Z</time>
</trkpt>
<trkpt lat="47.649647" lon="11.015966">
<ele>805.249</ele>
<time>2020-09-11T14:23:01Z</time>
</trkpt>
<trkpt lat="47.649662" lon="11.016026">
<ele>805.249</ele>
<time>2020-09-11T14:23:02Z</time>
</trkpt>
<trkpt lat="47.649673" lon="11.016085">
<ele>805.249</ele>
<time>2020-09-11T14:23:03Z</time>
</trkpt>
<trkpt lat="47.649677" lon="11.01615">
<ele>804.968</ele>
<time>2020-09-11T14:23:04Z</time>
</trkpt>
<trkpt lat="47.649673" lon="11.01622">
<ele>804.751</ele>
<time>2020-09-11T14:23:05Z</time>
</trkpt>
<trkpt lat="47.649662" lon="11.016287">
<ele>804.585</ele>
<time>2020-09-11T14:23:06Z</time>
</trkpt>
<trkpt lat="47.649647" lon="11.016348">
<ele>804.475</ele>
<time>2020-09-11T14:23:07Z</time>
</trkpt>
<trkpt lat="47.649624" lon="11.016402">
<ele>804.588</ele>
<time>2020-09-11T14:23:08Z</time>
</trkpt>
<trkpt lat="47.649605" lon="11.016457">
<ele>804.7</ele>
<time>2020-09-11T14:23:09Z</time>
</trkpt>
<trkpt lat="47.649586" lon="11.016507">
<ele>804.808</ele>
<time>2020-09-11T14:23:10Z</time>
</trkpt>
<trkpt lat="47.649567" lon="11.016555">
<ele>804.91</ele>
<time>2020-09-11T14:23:11Z</time>
</trkpt>
<trkpt lat="47.64954" lon="11.016597">
<ele>804.983</ele>
<time>2020-09-11T14:23:12Z</time>
</trkpt>
<trkpt lat="47.649506" lon="11.016631">
<ele>805.074</ele>
<time>2020-09-11T14:23:13Z</time>
</trkpt>
<trkpt lat="47.649467" lon="11.016664">
<ele>805.127</ele>
<time>2020-09-11T14:23:14Z</time>
</trkpt>
<trkpt lat="47.649429" lon="11.016695">
<ele>805.159</ele>
<time>2020-09-11T14:23:15Z</time>
</trkpt>
<trkpt lat="47.649387" lon="11.016726">
<ele>805.159</ele>
<time>2020-09-11T14:23:16Z</time>
</trkpt>
<trkpt lat="47.649349" lon="11.016757">
<ele>805.159</ele>
<time>2020-09-11T14:23:17Z</time>
</trkpt>
<trkpt lat="47.649311" lon="11.01679">
<ele>805.159</ele>
<time>2020-09-11T14:23:18Z</time>
</trkpt>
<trkpt lat="47.649277" lon="11.016824">
<ele>805.159</ele>
<time>2020-09-11T14:23:19Z</time>
</trkpt>
<trkpt lat="47.649246" lon="11.016862">
<ele>805.159</ele>
<time>2020-09-11T14:23:20Z</time>
</trkpt>
<trkpt lat="47.649216" lon="11.01691">
<ele>805.159</ele>
<time>2020-09-11T14:23:21Z</time>
</trkpt>
<trkpt lat="47.649189" lon="11.01696">
<ele>805.424</ele>
<time>2020-09-11T14:23:22Z</time>
</trkpt>
<trkpt lat="47.649158" lon="11.017014">
<ele>805.634</ele>
<time>2020-09-11T14:23:23Z</time>
</trkpt>
<trkpt lat="47.649132" lon="11.017065">
<ele>805.796</ele>
<time>2020-09-11T14:23:24Z</time>
</trkpt>
<trkpt lat="47.649105" lon="11.017115">
<ele>805.917</ele>
<time>2020-09-11T14:23:25Z</time>
</trkpt>
<trkpt lat="47.649075" lon="11.01717">
<ele>806.007</ele>
<time>2020-09-11T14:23:26Z</time>
</trkpt>
<trkpt lat="47.649044" lon="11.017218">
<ele>806.07</ele>
<time>2020-09-11T14:23:27Z</time>
</trkpt>
<trkpt lat="47.649014" lon="11.017274">
<ele>806.122</ele>
<time>2020-09-11T14:23:28Z</time>
</trkpt>
<trkpt lat="47.648983" lon="11.017328">
<ele>806.147</ele>
<time>2020-09-11T14:23:29Z</time>
</trkpt>
<trkpt lat="47.648949" lon="11.017381">
<ele>806.147</ele>
<time>2020-09-11T14:23:30Z</time>
</trkpt>
<trkpt lat="47.648918" lon="11.017433">
<ele>806.147</ele>
<time>2020-09-11T14:23:31Z</time>
</trkpt>
<trkpt lat="47.648891" lon="11.017493">
<ele>806.147</ele>
<time>2020-09-11T14:23:32Z</time>
</trkpt>
<trkpt lat="47.648865" lon="11.017559">
<ele>806.147</ele>
<time>2020-09-11T14:23:33Z</time>
</trkpt>
<trkpt lat="47.648834" lon="11.017629">
<ele>806.147</ele>
<time>2020-09-11T14:23:34Z</time>
</trkpt>
<trkpt lat="47.648808" lon="11.017694">
<ele>806.147</ele>
<time>2020-09-11T14:23:35Z</time>
</trkpt>
<trkpt lat="47.648773" lon="11.017767">
<ele>806.147</ele>
<time>2020-09-11T14:23:36Z</time>
</trkpt>
<trkpt lat="47.648743" lon="11.017839">
<ele>806.147</ele>
<time>2020-09-11T14:23:37Z</time>
</trkpt>
<trkpt lat="47.648716" lon="11.017913">
<ele>806.147</ele>
<time>2020-09-11T14:23:38Z</time>
</trkpt>
<trkpt lat="47.648685" lon="11.01799">
<ele>806.147</ele>
<time>2020-09-11T14:23:39Z</time>
</trkpt>
<trkpt lat="47.648655" lon="11.018064">
<ele>806.147</ele>
<time>2020-09-11T14:23:40Z</time>
</trkpt>
<trkpt lat="47.648624" lon="11.018135">
<ele>806.147</ele>
<time>2020-09-11T14:23:41Z</time>
</trkpt>
<trkpt lat="47.64859" lon="11.018209">
<ele>806.147</ele>
<time>2020-09-11T14:23:42Z</time>
</trkpt>
<trkpt lat="47.648556" lon="11.018284">
<ele>806.147</ele>
<time>2020-09-11T14:23:43Z</time>
</trkpt>
<trkpt lat="47.648525" lon="11.018363">
<ele>806.147</ele>
<time>2020-09-11T14:23:44Z</time>
</trkpt>
<trkpt lat="47.648491" lon="11.01844">
<ele>806.147</ele>
<time>2020-09-11T14:23:45Z</time>
</trkpt>
<trkpt lat="47.64846" lon="11.018517">
<ele>806.147</ele>
<time>2020-09-11T14:23:46Z</time>
</trkpt>
<trkpt lat="47.648426" lon="11.01859">
<ele>806.369</ele>
<time>2020-09-11T14:23:47Z</time>
</trkpt>
<trkpt lat="47.648392" lon="11.018661">
<ele>806.577</ele>
<time>2020-09-11T14:23:48Z</time>
</trkpt>
<trkpt lat="47.648361" lon="11.018732">
<ele>806.747</ele>
<time>2020-09-11T14:23:49Z</time>
</trkpt>
<trkpt lat="47.648331" lon="11.0188">
<ele>806.88</ele>
<time>2020-09-11T14:23:50Z</time>
</trkpt>
<trkpt lat="47.648296" lon="11.01887">
<ele>806.984</ele>
<time>2020-09-11T14:23:51Z</time>
</trkpt>
<trkpt lat="47.648266" lon="11.018942">
<ele>807.06</ele>
<time>2020-09-11T14:23:52Z</time>
</trkpt>
<trkpt lat="47.648239" lon="11.019015">
<ele>807.111</ele>
<time>2020-09-11T14:23:53Z</time>
</trkpt>
<trkpt lat="47.648212" lon="11.019091">
<ele>807.135</ele>
<time>2020-09-11T14:23:54Z</time>
</trkpt>
<trkpt lat="47.648182" lon="11.01916">
<ele>807.135</ele>
<time>2020-09-11T14:23:55Z</time>
</trkpt>
<trkpt lat="47.648155" lon="11.019233">
<ele>807.135</ele>
<time>2020-09-11T14:23:56Z</time>
</trkpt>
<trkpt lat="47.648129" lon="11.019312">
<ele>807.135</ele>
<time>2020-09-11T14:23:57Z</time>
</trkpt>
<trkpt lat="47.648102" lon="11.019392">
<ele>807.135</ele>
<time>2020-09-11T14:23:58Z</time>
</trkpt>
<trkpt lat="47.648079" lon="11.019464">
<ele>807.135</ele>
<time>2020-09-11T14:23:59Z</time>
</trkpt>
<trkpt lat="47.64806" lon="11.019528">
<ele>807.135</ele>
<time>2020-09-11T14:24:00Z</time>
</trkpt>
<trkpt lat="47.648033" lon="11.019608">
<ele>807.135</ele>
<time>2020-09-11T14:24:01Z</time>
</trkpt>
<trkpt lat="47.64801" lon="11.019688">
<ele>807.403</ele>
<time>2020-09-11T14:24:02Z</time>
</trkpt>
<trkpt lat="47.647984" lon="11.019763">
<ele>807.615</ele>
<time>2020-09-11T14:24:03Z</time>
</trkpt>
<trkpt lat="47.647957" lon="11.019835">
<ele>807.775</ele>
<time>2020-09-11T14:24:04Z</time>
</trkpt>
<trkpt lat="47.647926" lon="11.019912">
<ele>807.895</ele>
<time>2020-09-11T14:24:05Z</time>
</trkpt>
<trkpt lat="47.647903" lon="11.01999">
<ele>807.96</ele>
<time>2020-09-11T14:24:06Z</time>
</trkpt>
<trkpt lat="47.647869" lon="11.020065">
<ele>808.311</ele>
<time>2020-09-11T14:24:07Z</time>
</trkpt>
<trkpt lat="47.647839" lon="11.020142">
<ele>808.613</ele>
<time>2020-09-11T14:24:08Z</time>
</trkpt>
<trkpt lat="47.647812" lon="11.020215">
<ele>808.831</ele>
<time>2020-09-11T14:24:09Z</time>
</trkpt>
<trkpt lat="47.647778" lon="11.020285">
<ele>808.993</ele>
<time>2020-09-11T14:24:10Z</time>
</trkpt>
<trkpt lat="47.647743" lon="11.020353">
<ele>809.119</ele>
<time>2020-09-11T14:24:11Z</time>
</trkpt>
<trkpt lat="47.647709" lon="11.020418">
<ele>809.208</ele>
<time>2020-09-11T14:24:12Z</time>
</trkpt>
<trkpt lat="47.647671" lon="11.020484">
<ele>809.264</ele>
<time>2020-09-11T14:24:13Z</time>
</trkpt>
<trkpt lat="47.64764" lon="11.020551">
<ele>809.292</ele>
<time>2020-09-11T14:24:14Z</time>
</trkpt>
<trkpt lat="47.647606" lon="11.020618">
<ele>809.292</ele>
<time>2020-09-11T14:24:15Z</time>
</trkpt>
<trkpt lat="47.647568" lon="11.02069">
<ele>809.292</ele>
<time>2020-09-11T14:24:16Z</time>
</trkpt>
<trkpt lat="47.647537" lon="11.020763">
<ele>809.292</ele>
<time>2020-09-11T14:24:17Z</time>
</trkpt>
<trkpt lat="47.647503" lon="11.020835">
<ele>809.292</ele>
<time>2020-09-11T14:24:18Z</time>
</trkpt>
<trkpt lat="47.647476" lon="11.020906">
<ele>809.292</ele>
<time>2020-09-11T14:24:19Z</time>
</trkpt>
<trkpt lat="47.647446" lon="11.020976">
<ele>809.292</ele>
<time>2020-09-11T14:24:20Z</time>
</trkpt>
<trkpt lat="47.647415" lon="11.021049">
<ele>809.292</ele>
<time>2020-09-11T14:24:21Z</time>
</trkpt>
<trkpt lat="47.647381" lon="11.021123">
<ele>809.292</ele>
<time>2020-09-11T14:24:22Z</time>
</trkpt>
<trkpt lat="47.64735" lon="11.021195">
<ele>809.292</ele>
<time>2020-09-11T14:24:23Z</time>
</trkpt>
<trkpt lat="47.647324" lon="11.021269">
<ele>809.566</ele>
<time>2020-09-11T14:24:24Z</time>
</trkpt>
<trkpt lat="47.647293" lon="11.021347">
<ele>809.784</ele>
<time>2020-09-11T14:24:25Z</time>
</trkpt>
<trkpt lat="47.64727" lon="11.021422">
<ele>809.957</ele>
<time>2020-09-11T14:24:26Z</time>
</trkpt>
<trkpt lat="47.647243" lon="11.021492">
<ele>809.88</ele>
<time>2020-09-11T14:24:27Z</time>
</trkpt>
<trkpt lat="47.647213" lon="11.021568">
<ele>809.804</ele>
<time>2020-09-11T14:24:28Z</time>
</trkpt>
<trkpt lat="47.647186" lon="11.021644">
<ele>809.729</ele>
<time>2020-09-11T14:24:29Z</time>
</trkpt>
<trkpt lat="47.647152" lon="11.021715">
<ele>809.656</ele>
<time>2020-09-11T14:24:30Z</time>
</trkpt>
<trkpt lat="47.647114" lon="11.021787">
<ele>809.584</ele>
<time>2020-09-11T14:24:31Z</time>
</trkpt>
<trkpt lat="47.647076" lon="11.021855">
<ele>809.526</ele>
<time>2020-09-11T14:24:32Z</time>
</trkpt>
<trkpt lat="47.647034" lon="11.021925">
<ele>809.453</ele>
<time>2020-09-11T14:24:33Z</time>
</trkpt>
<trkpt lat="47.646992" lon="11.02199">
<ele>809.404</ele>
<time>2020-09-11T14:24:34Z</time>
</trkpt>
<trkpt lat="47.64695" lon="11.022045">
<ele>809.382</ele>
<time>2020-09-11T14:24:35Z</time>
</trkpt>
<trkpt lat="47.6469" lon="11.022099">
<ele>809.382</ele>
<time>2020-09-11T14:24:36Z</time>
</trkpt>
<trkpt lat="47.646858" lon="11.022152">
<ele>809.382</ele>
<time>2020-09-11T14:24:37Z</time>
</trkpt>
<trkpt lat="47.646809" lon="11.022203">
<ele>809.382</ele>
<time>2020-09-11T14:24:38Z</time>
</trkpt>
<trkpt lat="47.646759" lon="11.022255">
<ele>809.382</ele>
<time>2020-09-11T14:24:39Z</time>
</trkpt>
<trkpt lat="47.646709" lon="11.022305">
<ele>809.382</ele>
<time>2020-09-11T14:24:40Z</time>
</trkpt>
<trkpt lat="47.646656" lon="11.022355">
<ele>809.382</ele>
<time>2020-09-11T14:24:41Z</time>
</trkpt>
<trkpt lat="47.646603" lon="11.022407">
<ele>809.382</ele>
<time>2020-09-11T14:24:42Z</time>
</trkpt>
<trkpt lat="47.646553" lon="11.022451">
<ele>809.382</ele>
<time>2020-09-11T14:24:43Z</time>
</trkpt>
<trkpt lat="47.6465" lon="11.022493">
<ele>809.382</ele>
<time>2020-09-11T14:24:44Z</time>
</trkpt>
<trkpt lat="47.646439" lon="11.022535">
<ele>809.382</ele>
<time>2020-09-11T14:24:45Z</time>
</trkpt>
<trkpt lat="47.646385" lon="11.022574">
<ele>809.382</ele>
<time>2020-09-11T14:24:46Z</time>
</trkpt>
<trkpt lat="47.646332" lon="11.022612">
<ele>809.382</ele>
<time>2020-09-11T14:24:47Z</time>
</trkpt>
<trkpt lat="47.646275" lon="11.022646">
<ele>809.382</ele>
<time>2020-09-11T14:24:48Z</time>
</trkpt>
<trkpt lat="47.646221" lon="11.022676">
<ele>809.382</ele>
<time>2020-09-11T14:24:49Z</time>
</trkpt>
<trkpt lat="47.64616" lon="11.022705">
<ele>809.382</ele>
<time>2020-09-11T14:24:50Z</time>
</trkpt>
<trkpt lat="47.646107" lon="11.022734">
<ele>809.382</ele>
<time>2020-09-11T14:24:51Z</time>
</trkpt>
<trkpt lat="47.646049" lon="11.02276">
<ele>809.382</ele>
<time>2020-09-11T14:24:52Z</time>
</trkpt>
<trkpt lat="47.646" lon="11.022788">
<ele>809.382</ele>
<time>2020-09-11T14:24:53Z</time>
</trkpt>
<trkpt lat="47.645947" lon="11.022817">
<ele>809.632</ele>
<time>2020-09-11T14:24:54Z</time>
</trkpt>
<trkpt lat="47.645889" lon="11.022849">
<ele>809.831</ele>
<time>2020-09-11T14:24:55Z</time>
</trkpt>
<trkpt lat="47.64584" lon="11.022881">
<ele>809.984</ele>
<time>2020-09-11T14:24:56Z</time>
</trkpt>
<trkpt lat="47.645786" lon="11.022908">
<ele>810.09</ele>
<time>2020-09-11T14:24:57Z</time>
</trkpt>
<trkpt lat="47.645737" lon="11.022939">
<ele>810.201</ele>
<time>2020-09-11T14:24:58Z</time>
</trkpt>
<trkpt lat="47.645687" lon="11.022968">
<ele>810.548</ele>
<time>2020-09-11T14:24:59Z</time>
</trkpt>
<trkpt lat="47.645634" lon="11.022996">
<ele>810.823</ele>
<time>2020-09-11T14:25:00Z</time>
</trkpt>
<trkpt lat="47.645584" lon="11.023028">
<ele>811.031</ele>
<time>2020-09-11T14:25:01Z</time>
</trkpt>
<trkpt lat="47.645535" lon="11.023059">
<ele>811.266</ele>
<time>2020-09-11T14:25:02Z</time>
</trkpt>
<trkpt lat="47.645489" lon="11.02309">
<ele>811.357</ele>
<time>2020-09-11T14:25:03Z</time>
</trkpt>
<trkpt lat="47.645439" lon="11.023122">
<ele>811.411</ele>
<time>2020-09-11T14:25:04Z</time>
</trkpt>
<trkpt lat="47.645393" lon="11.023155">
<ele>811.665</ele>
<time>2020-09-11T14:25:05Z</time>
</trkpt>
<trkpt lat="47.64534" lon="11.023191">
<ele>811.848</ele>
<time>2020-09-11T14:25:06Z</time>
</trkpt>
<trkpt lat="47.645294" lon="11.023229">
<ele>811.971</ele>
<time>2020-09-11T14:25:07Z</time>
</trkpt>
<trkpt lat="47.645245" lon="11.023265">
<ele>812.104</ele>
<time>2020-09-11T14:25:08Z</time>
</trkpt>
<trkpt lat="47.645195" lon="11.023305">
<ele>812.207</ele>
<time>2020-09-11T14:25:09Z</time>
</trkpt>
<trkpt lat="47.645153" lon="11.023347">
<ele>812.275</ele>
<time>2020-09-11T14:25:10Z</time>
</trkpt>
<trkpt lat="47.645107" lon="11.023392">
<ele>812.565</ele>
<time>2020-09-11T14:25:11Z</time>
</trkpt>
<trkpt lat="47.645061" lon="11.023437">
<ele>812.79</ele>
<time>2020-09-11T14:25:12Z</time>
</trkpt>
<trkpt lat="47.645012" lon="11.023479">
<ele>813.005</ele>
<time>2020-09-11T14:25:13Z</time>
</trkpt>
<trkpt lat="47.644966" lon="11.023525">
<ele>813.125</ele>
<time>2020-09-11T14:25:14Z</time>
</trkpt>
<trkpt lat="47.64492" lon="11.023574">
<ele>813.211</ele>
<time>2020-09-11T14:25:15Z</time>
</trkpt>
<trkpt lat="47.644878" lon="11.023623">
<ele>813.267</ele>
<time>2020-09-11T14:25:16Z</time>
</trkpt>
<trkpt lat="47.644836" lon="11.023675">
<ele>813.309</ele>
<time>2020-09-11T14:25:17Z</time>
</trkpt>
<trkpt lat="47.644791" lon="11.023726">
<ele>813.336</ele>
<time>2020-09-11T14:25:18Z</time>
</trkpt>
<trkpt lat="47.644749" lon="11.023779">
<ele>813.336</ele>
<time>2020-09-11T14:25:19Z</time>
</trkpt>
<trkpt lat="47.644703" lon="11.023831">
<ele>813.336</ele>
<time>2020-09-11T14:25:20Z</time>
</trkpt>
<trkpt lat="47.644661" lon="11.023884">
<ele>813.336</ele>
<time>2020-09-11T14:25:21Z</time>
</trkpt>
<trkpt lat="47.644619" lon="11.023932">
<ele>813.336</ele>
<time>2020-09-11T14:25:22Z</time>
</trkpt>
<trkpt lat="47.644577" lon="11.023983">
<ele>813.336</ele>
<time>2020-09-11T14:25:23Z</time>
</trkpt>
<trkpt lat="47.644539" lon="11.024034">
<ele>813.336</ele>
<time>2020-09-11T14:25:24Z</time>
</trkpt>
<trkpt lat="47.644497" lon="11.024085">
<ele>813.58</ele>
<time>2020-09-11T14:25:25Z</time>
</trkpt>
<trkpt lat="47.644455" lon="11.024139">
<ele>813.775</ele>
<time>2020-09-11T14:25:26Z</time>
</trkpt>
<trkpt lat="47.644417" lon="11.024195">
<ele>813.909</ele>
<time>2020-09-11T14:25:27Z</time>
</trkpt>
<trkpt lat="47.644379" lon="11.024252">
<ele>814.054</ele>
<time>2020-09-11T14:25:28Z</time>
</trkpt>
<trkpt lat="47.644337" lon="11.024308">
<ele>814.169</ele>
<time>2020-09-11T14:25:29Z</time>
</trkpt>
<trkpt lat="47.644295" lon="11.024368">
<ele>814.25</ele>
<time>2020-09-11T14:25:30Z</time>
</trkpt>
<trkpt lat="47.644257" lon="11.024426">
<ele>814.301</ele>
<time>2020-09-11T14:25:31Z</time>
</trkpt>
<trkpt lat="47.644218" lon="11.024487">
<ele>814.325</ele>
<time>2020-09-11T14:25:32Z</time>
</trkpt>
<trkpt lat="47.644184" lon="11.024547">
<ele>814.325</ele>
<time>2020-09-11T14:25:33Z</time>
</trkpt>
<trkpt lat="47.644146" lon="11.024611">
<ele>814.325</ele>
<time>2020-09-11T14:25:34Z</time>
</trkpt>
<trkpt lat="47.644112" lon="11.024672">
<ele>814.325</ele>
<time>2020-09-11T14:25:35Z</time>
</trkpt>
<trkpt lat="47.644073" lon="11.024733">
<ele>814.325</ele>
<time>2020-09-11T14:25:36Z</time>
</trkpt>
<trkpt lat="47.644039" lon="11.024798">
<ele>814.325</ele>
<time>2020-09-11T14:25:37Z</time>
</trkpt>
<trkpt lat="47.644001" lon="11.02486">
<ele>814.325</ele>
<time>2020-09-11T14:25:38Z</time>
</trkpt>
<trkpt lat="47.643967" lon="11.024925">
<ele>814.649</ele>
<time>2020-09-11T14:25:39Z</time>
</trkpt>
<trkpt lat="47.643932" lon="11.024997">
<ele>814.896</ele>
<time>2020-09-11T14:25:40Z</time>
</trkpt>
<trkpt lat="47.643906" lon="11.025066">
<ele>815.086</ele>
<time>2020-09-11T14:25:41Z</time>
</trkpt>
<trkpt lat="47.643871" lon="11.025132">
<ele>815.226</ele>
<time>2020-09-11T14:25:42Z</time>
</trkpt>
<trkpt lat="47.643841" lon="11.025198">
<ele>815.321</ele>
<time>2020-09-11T14:25:43Z</time>
</trkpt>
<trkpt lat="47.643806" lon="11.025262">
<ele>815.378</ele>
<time>2020-09-11T14:25:44Z</time>
</trkpt>
<trkpt lat="47.643772" lon="11.025323">
<ele>815.404</ele>
<time>2020-09-11T14:25:45Z</time>
</trkpt>
<trkpt lat="47.643734" lon="11.025385">
<ele>815.404</ele>
<time>2020-09-11T14:25:46Z</time>
</trkpt>
<trkpt lat="47.643696" lon="11.025443">
<ele>815.404</ele>
<time>2020-09-11T14:25:47Z</time>
</trkpt>
<trkpt lat="47.643658" lon="11.025501">
<ele>815.643</ele>
<time>2020-09-11T14:25:48Z</time>
</trkpt>
<trkpt lat="47.64362" lon="11.025557">
<ele>815.846</ele>
<time>2020-09-11T14:25:49Z</time>
</trkpt>
<trkpt lat="47.643578" lon="11.025612">
<ele>816.013</ele>
<time>2020-09-11T14:25:50Z</time>
</trkpt>
<trkpt lat="47.643536" lon="11.025667">
<ele>816.118</ele>
<time>2020-09-11T14:25:51Z</time>
</trkpt>
<trkpt lat="47.643494" lon="11.025719">
<ele>816.453</ele>
<time>2020-09-11T14:25:52Z</time>
</trkpt>
<trkpt lat="47.643448" lon="11.02577">
<ele>816.719</ele>
<time>2020-09-11T14:25:53Z</time>
</trkpt>
<trkpt lat="47.643402" lon="11.025818">
<ele>816.922</ele>
<time>2020-09-11T14:25:54Z</time>
</trkpt>
<trkpt lat="47.643356" lon="11.025864">
<ele>817.069</ele>
<time>2020-09-11T14:25:55Z</time>
</trkpt>
<trkpt lat="47.643311" lon="11.025907">
<ele>817.161</ele>
<time>2020-09-11T14:25:56Z</time>
</trkpt>
<trkpt lat="47.643269" lon="11.025949">
<ele>817.218</ele>
<time>2020-09-11T14:25:57Z</time>
</trkpt>
<trkpt lat="47.643219" lon="11.025991">
<ele>817.268</ele>
<time>2020-09-11T14:25:58Z</time>
</trkpt>
<trkpt lat="47.643177" lon="11.026031">
<ele>817.293</ele>
<time>2020-09-11T14:25:59Z</time>
</trkpt>
<trkpt lat="47.643127" lon="11.026069">
<ele>817.293</ele>
<time>2020-09-11T14:26:00Z</time>
</trkpt>
<trkpt lat="47.643078" lon="11.026107">
<ele>817.293</ele>
<time>2020-09-11T14:26:01Z</time>
</trkpt>
<trkpt lat="47.643032" lon="11.026147">
<ele>817.559</ele>
<time>2020-09-11T14:26:02Z</time>
</trkpt>
<trkpt lat="47.642986" lon="11.026187">
<ele>817.769</ele>
<time>2020-09-11T14:26:03Z</time>
</trkpt>
<trkpt lat="47.642944" lon="11.026226">
<ele>817.931</ele>
<time>2020-09-11T14:26:04Z</time>
</trkpt>
<trkpt lat="47.642899" lon="11.026266">
<ele>818.027</ele>
<time>2020-09-11T14:26:05Z</time>
</trkpt>
<trkpt lat="47.642853" lon="11.026305">
<ele>818.381</ele>
<time>2020-09-11T14:26:06Z</time>
</trkpt>
<trkpt lat="47.642811" lon="11.026343">
<ele>818.648</ele>
<time>2020-09-11T14:26:07Z</time>
</trkpt>
<trkpt lat="47.642765" lon="11.026379">
<ele>818.893</ele>
<time>2020-09-11T14:26:08Z</time>
</trkpt>
<trkpt lat="47.642719" lon="11.026411">
<ele>819.074</ele>
<time>2020-09-11T14:26:09Z</time>
</trkpt>
<trkpt lat="47.642681" lon="11.026448">
<ele>819.192</ele>
<time>2020-09-11T14:26:10Z</time>
</trkpt>
<trkpt lat="47.642643" lon="11.026486">
<ele>819.27</ele>
<time>2020-09-11T14:26:11Z</time>
</trkpt>
<trkpt lat="47.642601" lon="11.026525">
<ele>819.609</ele>
<time>2020-09-11T14:26:12Z</time>
</trkpt>
<trkpt lat="47.642563" lon="11.026562">
<ele>819.874</ele>
<time>2020-09-11T14:26:13Z</time>
</trkpt>
<trkpt lat="47.642525" lon="11.026599">
<ele>820.11</ele>
<time>2020-09-11T14:26:14Z</time>
</trkpt>
<trkpt lat="47.642487" lon="11.026635">
<ele>820.249</ele>
<time>2020-09-11T14:26:15Z</time>
</trkpt>
<trkpt lat="47.642445" lon="11.026669">
<ele>820.331</ele>
<time>2020-09-11T14:26:16Z</time>
</trkpt>
<trkpt lat="47.642403" lon="11.026696">
<ele>820.688</ele>
<time>2020-09-11T14:26:17Z</time>
</trkpt>
<trkpt lat="47.642357" lon="11.026712">
<ele>821.001</ele>
<time>2020-09-11T14:26:18Z</time>
</trkpt>
<trkpt lat="47.642311" lon="11.026712">
<ele>821.238</ele>
<time>2020-09-11T14:26:19Z</time>
</trkpt>
<trkpt lat="47.642262" lon="11.0267">
<ele>821.399</ele>
<time>2020-09-11T14:26:20Z</time>
</trkpt>
<trkpt lat="47.642216" lon="11.02668">
<ele>821.526</ele>
<time>2020-09-11T14:26:21Z</time>
</trkpt>
<trkpt lat="47.642166" lon="11.02666">
<ele>821.615</ele>
<time>2020-09-11T14:26:22Z</time>
</trkpt>
<trkpt lat="47.642117" lon="11.026642">
<ele>821.476</ele>
<time>2020-09-11T14:26:23Z</time>
</trkpt>
<trkpt lat="47.642059" lon="11.026625">
<ele>821.337</ele>
<time>2020-09-11T14:26:24Z</time>
</trkpt>
<trkpt lat="47.641998" lon="11.026611">
<ele>821.275</ele>
<time>2020-09-11T14:26:25Z</time>
</trkpt>
<trkpt lat="47.641933" lon="11.026606">
<ele>821.162</ele>
<time>2020-09-11T14:26:26Z</time>
</trkpt>
<trkpt lat="47.641861" lon="11.026611">
<ele>820.781</ele>
<time>2020-09-11T14:26:27Z</time>
</trkpt>
<trkpt lat="47.641785" lon="11.026623">
<ele>820.436</ele>
<time>2020-09-11T14:26:28Z</time>
</trkpt>
<trkpt lat="47.641708" lon="11.026633">
<ele>820.21</ele>
<time>2020-09-11T14:26:29Z</time>
</trkpt>
<trkpt lat="47.641632" lon="11.026647">
<ele>819.693</ele>
<time>2020-09-11T14:26:30Z</time>
</trkpt>
<trkpt lat="47.641552" lon="11.02666">
<ele>819.308</ele>
<time>2020-09-11T14:26:31Z</time>
</trkpt>
<trkpt lat="47.641468" lon="11.02668">
<ele>819.091</ele>
<time>2020-09-11T14:26:32Z</time>
</trkpt>
<trkpt lat="47.641384" lon="11.026696">
<ele>818.617</ele>
<time>2020-09-11T14:26:33Z</time>
</trkpt>
<trkpt lat="47.641293" lon="11.026712">
<ele>818.258</ele>
<time>2020-09-11T14:26:34Z</time>
</trkpt>
<trkpt lat="47.641201" lon="11.026725">
<ele>818.013</ele>
<time>2020-09-11T14:26:35Z</time>
</trkpt>
<trkpt lat="47.641109" lon="11.026738">
<ele>817.629</ele>
<time>2020-09-11T14:26:36Z</time>
</trkpt>
<trkpt lat="47.64101" lon="11.02675">
<ele>817.066</ele>
<time>2020-09-11T14:26:37Z</time>
</trkpt>
<trkpt lat="47.640915" lon="11.02676">
<ele>816.628</ele>
<time>2020-09-11T14:26:38Z</time>
</trkpt>
<trkpt lat="47.64082" lon="11.026765">
<ele>816.003</ele>
<time>2020-09-11T14:26:39Z</time>
</trkpt>
<trkpt lat="47.640724" lon="11.026765">
<ele>815.587</ele>
<time>2020-09-11T14:26:40Z</time>
</trkpt>
<trkpt lat="47.640633" lon="11.02676">
<ele>814.976</ele>
<time>2020-09-11T14:26:41Z</time>
</trkpt>
<trkpt lat="47.640537" lon="11.02675">
<ele>814.505</ele>
<time>2020-09-11T14:26:42Z</time>
</trkpt>
<trkpt lat="47.64045" lon="11.026737">
<ele>814.162</ele>
<time>2020-09-11T14:26:43Z</time>
</trkpt>
<trkpt lat="47.640362" lon="11.026725">
<ele>813.93</ele>
<time>2020-09-11T14:26:44Z</time>
</trkpt>
<trkpt lat="47.640274" lon="11.026716">
<ele>813.737</ele>
<time>2020-09-11T14:26:45Z</time>
</trkpt>
<trkpt lat="47.640194" lon="11.026704">
<ele>813.679</ele>
<time>2020-09-11T14:26:46Z</time>
</trkpt>
<trkpt lat="47.64011" lon="11.026687">
<ele>813.634</ele>
<time>2020-09-11T14:26:47Z</time>
</trkpt>
<trkpt lat="47.640026" lon="11.026669">
<ele>813.606</ele>
<time>2020-09-11T14:26:48Z</time>
</trkpt>
<trkpt lat="47.639942" lon="11.026649">
<ele>813.606</ele>
<time>2020-09-11T14:26:49Z</time>
</trkpt>
<trkpt lat="47.639854" lon="11.026627">
<ele>813.606</ele>
<time>2020-09-11T14:26:50Z</time>
</trkpt>
<trkpt lat="47.639763" lon="11.026599">
<ele>813.353</ele>
<time>2020-09-11T14:26:51Z</time>
</trkpt>
<trkpt lat="47.639679" lon="11.02657">
<ele>812.83</ele>
<time>2020-09-11T14:26:52Z</time>
</trkpt>
<trkpt lat="47.639591" lon="11.02654">
<ele>812.481</ele>
<time>2020-09-11T14:26:53Z</time>
</trkpt>
<trkpt lat="47.639503" lon="11.026506">
<ele>811.92</ele>
<time>2020-09-11T14:26:54Z</time>
</trkpt>
<trkpt lat="47.639416" lon="11.026473">
<ele>811.229</ele>
<time>2020-09-11T14:26:55Z</time>
</trkpt>
<trkpt lat="47.639328" lon="11.026443">
<ele>810.714</ele>
<time>2020-09-11T14:26:56Z</time>
</trkpt>
<trkpt lat="47.639233" lon="11.02642">
<ele>810.344</ele>
<time>2020-09-11T14:26:57Z</time>
</trkpt>
<trkpt lat="47.639133" lon="11.026399">
<ele>810.018</ele>
<time>2020-09-11T14:26:58Z</time>
</trkpt>
<trkpt lat="47.639034" lon="11.02639">
<ele>809.548</ele>
<time>2020-09-11T14:26:59Z</time>
</trkpt>
<trkpt lat="47.638924" lon="11.026397">
<ele>809.246</ele>
<time>2020-09-11T14:27:00Z</time>
</trkpt>
<trkpt lat="47.638809" lon="11.026413">
<ele>808.709</ele>
<time>2020-09-11T14:27:01Z</time>
</trkpt>
<trkpt lat="47.638695" lon="11.026434">
<ele>807.814</ele>
<time>2020-09-11T14:27:02Z</time>
</trkpt>
<trkpt lat="47.63858" lon="11.026457">
<ele>806.518</ele>
<time>2020-09-11T14:27:03Z</time>
</trkpt>
<trkpt lat="47.638466" lon="11.026478">
<ele>805.724</ele>
<time>2020-09-11T14:27:04Z</time>
</trkpt>
<trkpt lat="47.638351" lon="11.026517">
<ele>805.171</ele>
<time>2020-09-11T14:27:05Z</time>
</trkpt>
<trkpt lat="47.638241" lon="11.026574">
<ele>804.805</ele>
<time>2020-09-11T14:27:06Z</time>
</trkpt>
<trkpt lat="47.63813" lon="11.026648">
<ele>804.539</ele>
<time>2020-09-11T14:27:07Z</time>
</trkpt>
<trkpt lat="47.638016" lon="11.026737">
<ele>804.088</ele>
<time>2020-09-11T14:27:08Z</time>
</trkpt>
<trkpt lat="47.637909" lon="11.026819">
<ele>803.524</ele>
<time>2020-09-11T14:27:09Z</time>
</trkpt>
<trkpt lat="47.637806" lon="11.026916">
<ele>803.12</ele>
<time>2020-09-11T14:27:10Z</time>
</trkpt>
<trkpt lat="47.637699" lon="11.027001">
<ele>802.87</ele>
<time>2020-09-11T14:27:11Z</time>
</trkpt>
<trkpt lat="47.637596" lon="11.02708">
<ele>802.371</ele>
<time>2020-09-11T14:27:12Z</time>
</trkpt>
<trkpt lat="47.637493" lon="11.027155">
<ele>801.982</ele>
<time>2020-09-11T14:27:13Z</time>
</trkpt>
<trkpt lat="47.637394" lon="11.027224">
<ele>801.69</ele>
<time>2020-09-11T14:27:14Z</time>
</trkpt>
<trkpt lat="47.637306" lon="11.027288">
<ele>801.485</ele>
<time>2020-09-11T14:27:15Z</time>
</trkpt>
<trkpt lat="47.637211" lon="11.027355">
<ele>801.359</ele>
<time>2020-09-11T14:27:16Z</time>
</trkpt>
<trkpt lat="47.637123" lon="11.027425">
<ele>801.292</ele>
<time>2020-09-11T14:27:17Z</time>
</trkpt>
<trkpt lat="47.637039" lon="11.027493">
<ele>801.236</ele>
<time>2020-09-11T14:27:18Z</time>
</trkpt>
<trkpt lat="47.636948" lon="11.027558">
<ele>801.207</ele>
<time>2020-09-11T14:27:19Z</time>
</trkpt>
<trkpt lat="47.636856" lon="11.027621">
<ele>801.207</ele>
<time>2020-09-11T14:27:20Z</time>
</trkpt>
<trkpt lat="47.636768" lon="11.02769">
<ele>801.207</ele>
<time>2020-09-11T14:27:21Z</time>
</trkpt>
<trkpt lat="47.636684" lon="11.027757">
<ele>801.207</ele>
<time>2020-09-11T14:27:22Z</time>
</trkpt>
<trkpt lat="47.636593" lon="11.027822">
<ele>801.207</ele>
<time>2020-09-11T14:27:23Z</time>
</trkpt>
<trkpt lat="47.636505" lon="11.027888">
<ele>801.207</ele>
<time>2020-09-11T14:27:24Z</time>
</trkpt>
<trkpt lat="47.636421" lon="11.027957">
<ele>800.939</ele>
<time>2020-09-11T14:27:25Z</time>
</trkpt>
<trkpt lat="47.636333" lon="11.028024">
<ele>800.727</ele>
<time>2020-09-11T14:27:26Z</time>
</trkpt>
<trkpt lat="47.63625" lon="11.028082">
<ele>800.581</ele>
<time>2020-09-11T14:27:27Z</time>
</trkpt>
<trkpt lat="47.636166" lon="11.028137">
<ele>800.424</ele>
<time>2020-09-11T14:27:28Z</time>
</trkpt>
<trkpt lat="47.636086" lon="11.028195">
<ele>800.302</ele>
<time>2020-09-11T14:27:29Z</time>
</trkpt>
<trkpt lat="47.636002" lon="11.028256">
<ele>800.213</ele>
<time>2020-09-11T14:27:30Z</time>
</trkpt>
<trkpt lat="47.635929" lon="11.028318">
<ele>800.157</ele>
<time>2020-09-11T14:27:31Z</time>
</trkpt>
<trkpt lat="47.63586" lon="11.028382">
<ele>800.13</ele>
<time>2020-09-11T14:27:32Z</time>
</trkpt>
<trkpt lat="47.635796" lon="11.028445">
<ele>800.13</ele>
<time>2020-09-11T14:27:33Z</time>
</trkpt>
<trkpt lat="47.635735" lon="11.028505">
<ele>800.13</ele>
<time>2020-09-11T14:27:34Z</time>
</trkpt>
<trkpt lat="47.635674" lon="11.028562">
<ele>800.13</ele>
<time>2020-09-11T14:27:35Z</time>
</trkpt>
<trkpt lat="47.635612" lon="11.028619">
<ele>800.336</ele>
<time>2020-09-11T14:27:36Z</time>
</trkpt>
<trkpt lat="47.635559" lon="11.028671">
<ele>800.489</ele>
<time>2020-09-11T14:27:37Z</time>
</trkpt>
<trkpt lat="47.635506" lon="11.028724">
<ele>800.645</ele>
<time>2020-09-11T14:27:38Z</time>
</trkpt>
<trkpt lat="47.635448" lon="11.028773">
<ele>800.776</ele>
<time>2020-09-11T14:27:39Z</time>
</trkpt>
<trkpt lat="47.635395" lon="11.02882">
<ele>800.88</ele>
<time>2020-09-11T14:27:40Z</time>
</trkpt>
<trkpt lat="47.635345" lon="11.028869">
<ele>800.955</ele>
<time>2020-09-11T14:27:41Z</time>
</trkpt>
<trkpt lat="47.635284" lon="11.028916">
<ele>801.004</ele>
<time>2020-09-11T14:27:42Z</time>
</trkpt>
<trkpt lat="47.635235" lon="11.028962">
<ele>801.028</ele>
<time>2020-09-11T14:27:43Z</time>
</trkpt>
<trkpt lat="47.635181" lon="11.029002">
<ele>801.028</ele>
<time>2020-09-11T14:27:44Z</time>
</trkpt>
<trkpt lat="47.635128" lon="11.029034">
<ele>801.028</ele>
<time>2020-09-11T14:27:45Z</time>
</trkpt>
<trkpt lat="47.635075" lon="11.029061">
<ele>801.028</ele>
<time>2020-09-11T14:27:46Z</time>
</trkpt>
<trkpt lat="47.635017" lon="11.029093">
<ele>801.028</ele>
<time>2020-09-11T14:27:47Z</time>
</trkpt>
<trkpt lat="47.63496" lon="11.02913">
<ele>801.028</ele>
<time>2020-09-11T14:27:48Z</time>
</trkpt>
<trkpt lat="47.634899" lon="11.029161">
<ele>801.028</ele>
<time>2020-09-11T14:27:49Z</time>
</trkpt>
<trkpt lat="47.634834" lon="11.02919">
<ele>801.028</ele>
<time>2020-09-11T14:27:50Z</time>
</trkpt>
<trkpt lat="47.634769" lon="11.029207">
<ele>801.028</ele>
<time>2020-09-11T14:27:51Z</time>
</trkpt>
<trkpt lat="47.634705" lon="11.029224">
<ele>801.028</ele>
<time>2020-09-11T14:27:52Z</time>
</trkpt>
<trkpt lat="47.634636" lon="11.029239">
<ele>801.028</ele>
<time>2020-09-11T14:27:53Z</time>
</trkpt>
<trkpt lat="47.634567" lon="11.02925">
<ele>800.791</ele>
<time>2020-09-11T14:27:54Z</time>
</trkpt>
<trkpt lat="47.634502" lon="11.029263">
<ele>800.609</ele>
<time>2020-09-11T14:27:55Z</time>
</trkpt>
<trkpt lat="47.634438" lon="11.029272">
<ele>800.47</ele>
<time>2020-09-11T14:27:56Z</time>
</trkpt>
<trkpt lat="47.634377" lon="11.029281">
<ele>800.376</ele>
<time>2020-09-11T14:27:57Z</time>
</trkpt>
<trkpt lat="47.634315" lon="11.029291">
<ele>800.276</ele>
<time>2020-09-11T14:27:58Z</time>
</trkpt>
<trkpt lat="47.634258" lon="11.029298">
<ele>800.2</ele>
<time>2020-09-11T14:27:59Z</time>
</trkpt>
<trkpt lat="47.634197" lon="11.029302">
<ele>800.153</ele>
<time>2020-09-11T14:28:00Z</time>
</trkpt>
<trkpt lat="47.634136" lon="11.029306">
<ele>800.13</ele>
<time>2020-09-11T14:28:01Z</time>
</trkpt>
<trkpt lat="47.634075" lon="11.029308">
<ele>800.13</ele>
<time>2020-09-11T14:28:02Z</time>
</trkpt>
<trkpt lat="47.634014" lon="11.02931">
<ele>800.13</ele>
<time>2020-09-11T14:28:03Z</time>
</trkpt>
<trkpt lat="47.633949" lon="11.029313">
<ele>800.13</ele>
<time>2020-09-11T14:28:04Z</time>
</trkpt>
<trkpt lat="47.633888" lon="11.029319">
<ele>800.13</ele>
<time>2020-09-11T14:28:05Z</time>
</trkpt>
<trkpt lat="47.633831" lon="11.029322">
<ele>800.349</ele>
<time>2020-09-11T14:28:06Z</time>
</trkpt>
<trkpt lat="47.633766" lon="11.029325">
<ele>800.505</ele>
<time>2020-09-11T14:28:07Z</time>
</trkpt>
<trkpt lat="47.633698" lon="11.029326">
<ele>800.666</ele>
<time>2020-09-11T14:28:08Z</time>
</trkpt>
<trkpt lat="47.633633" lon="11.029333">
<ele>800.792</ele>
<time>2020-09-11T14:28:09Z</time>
</trkpt>
<trkpt lat="47.633572" lon="11.02934">
<ele>800.89</ele>
<time>2020-09-11T14:28:10Z</time>
</trkpt>
<trkpt lat="47.633511" lon="11.029344">
<ele>800.96</ele>
<time>2020-09-11T14:28:11Z</time>
</trkpt>
<trkpt lat="47.633442" lon="11.029346">
<ele>801.005</ele>
<time>2020-09-11T14:28:12Z</time>
</trkpt>
<trkpt lat="47.633366" lon="11.02935">
<ele>801.028</ele>
<time>2020-09-11T14:28:13Z</time>
</trkpt>
<trkpt lat="47.633293" lon="11.029353">
<ele>801.028</ele>
<time>2020-09-11T14:28:14Z</time>
</trkpt>
<trkpt lat="47.633213" lon="11.029357">
<ele>800.795</ele>
<time>2020-09-11T14:28:15Z</time>
</trkpt>
<trkpt lat="47.633133" lon="11.029359">
<ele>800.642</ele>
<time>2020-09-11T14:28:16Z</time>
</trkpt>
<trkpt lat="47.633057" lon="11.029359">
<ele>800.215</ele>
<time>2020-09-11T14:28:17Z</time>
</trkpt>
<trkpt lat="47.632977" lon="11.029359">
<ele>799.829</ele>
<time>2020-09-11T14:28:18Z</time>
</trkpt>
<trkpt lat="47.6329" lon="11.029362">
<ele>799.535</ele>
<time>2020-09-11T14:28:19Z</time>
</trkpt>
<trkpt lat="47.63282" lon="11.029365">
<ele>799.315</ele>
<time>2020-09-11T14:28:20Z</time>
</trkpt>
<trkpt lat="47.632744" lon="11.029368">
<ele>799.155</ele>
<time>2020-09-11T14:28:21Z</time>
</trkpt>
<trkpt lat="47.632675" lon="11.029371">
<ele>799.048</ele>
<time>2020-09-11T14:28:22Z</time>
</trkpt>
<trkpt lat="47.632603" lon="11.029371">
<ele>798.991</ele>
<time>2020-09-11T14:28:23Z</time>
</trkpt>
<trkpt lat="47.63253" lon="11.029368">
<ele>798.962</ele>
<time>2020-09-11T14:28:24Z</time>
</trkpt>
<trkpt lat="47.632458" lon="11.029363">
<ele>798.962</ele>
<time>2020-09-11T14:28:25Z</time>
</trkpt>
<trkpt lat="47.632385" lon="11.029359">
<ele>798.963</ele>
<time>2020-09-11T14:28:26Z</time>
</trkpt>
<trkpt lat="47.632317" lon="11.029352">
<ele>798.962</ele>
<time>2020-09-11T14:28:27Z</time>
</trkpt>
<trkpt lat="47.632248" lon="11.029344">
<ele>798.963</ele>
<time>2020-09-11T14:28:28Z</time>
</trkpt>
<trkpt lat="47.632175" lon="11.029333">
<ele>798.962</ele>
<time>2020-09-11T14:28:29Z</time>
</trkpt>
<trkpt lat="47.632107" lon="11.029324">
<ele>798.962</ele>
<time>2020-09-11T14:28:30Z</time>
</trkpt>
<trkpt lat="47.632034" lon="11.029312">
<ele>798.962</ele>
<time>2020-09-11T14:28:31Z</time>
</trkpt>
<trkpt lat="47.631966" lon="11.029302">
<ele>798.962</ele>
<time>2020-09-11T14:28:32Z</time>
</trkpt>
<trkpt lat="47.631901" lon="11.029293">
<ele>798.963</ele>
<time>2020-09-11T14:28:33Z</time>
</trkpt>
<trkpt lat="47.631836" lon="11.029287">
<ele>798.962</ele>
<time>2020-09-11T14:28:34Z</time>
</trkpt>
<trkpt lat="47.631775" lon="11.029282">
<ele>799.183</ele>
<time>2020-09-11T14:28:35Z</time>
</trkpt>
<trkpt lat="47.631714" lon="11.029279">
<ele>799.357</ele>
<time>2020-09-11T14:28:36Z</time>
</trkpt>
<trkpt lat="47.631653" lon="11.029279">
<ele>799.479</ele>
<time>2020-09-11T14:28:37Z</time>
</trkpt>
<trkpt lat="47.631592" lon="11.029284">
<ele>799.609</ele>
<time>2020-09-11T14:28:38Z</time>
</trkpt>
<trkpt lat="47.631535" lon="11.029289">
<ele>799.704</ele>
<time>2020-09-11T14:28:39Z</time>
</trkpt>
<trkpt lat="47.631474" lon="11.029298">
<ele>800.018</ele>
<time>2020-09-11T14:28:40Z</time>
</trkpt>
<trkpt lat="47.631409" lon="11.029308">
<ele>800.271</ele>
<time>2020-09-11T14:28:41Z</time>
</trkpt>
<trkpt lat="47.631351" lon="11.029317">
<ele>800.463</ele>
<time>2020-09-11T14:28:42Z</time>
</trkpt>
<trkpt lat="47.631294" lon="11.029328">
<ele>800.656</ele>
<time>2020-09-11T14:28:43Z</time>
</trkpt>
<trkpt lat="47.631241" lon="11.029338">
<ele>800.742</ele>
<time>2020-09-11T14:28:44Z</time>
</trkpt>
<trkpt lat="47.63118" lon="11.029352">
<ele>800.796</ele>
<time>2020-09-11T14:28:45Z</time>
</trkpt>
<trkpt lat="47.631119" lon="11.029368">
<ele>800.824</ele>
<time>2020-09-11T14:28:46Z</time>
</trkpt>
<trkpt lat="47.631062" lon="11.029386">
<ele>800.848</ele>
<time>2020-09-11T14:28:47Z</time>
</trkpt>
<trkpt lat="47.631004" lon="11.0294">
<ele>800.848</ele>
<time>2020-09-11T14:28:48Z</time>
</trkpt>
<trkpt lat="47.630947" lon="11.029413">
<ele>800.848</ele>
<time>2020-09-11T14:28:49Z</time>
</trkpt>
<trkpt lat="47.630886" lon="11.029424">
<ele>800.848</ele>
<time>2020-09-11T14:28:50Z</time>
</trkpt>
<trkpt lat="47.630829" lon="11.029435">
<ele>800.848</ele>
<time>2020-09-11T14:28:51Z</time>
</trkpt>
<trkpt lat="47.630772" lon="11.029447">
<ele>800.848</ele>
<time>2020-09-11T14:28:52Z</time>
</trkpt>
<trkpt lat="47.630714" lon="11.02946">
<ele>800.848</ele>
<time>2020-09-11T14:28:53Z</time>
</trkpt>
<trkpt lat="47.630657" lon="11.029475">
<ele>800.848</ele>
<time>2020-09-11T14:28:54Z</time>
</trkpt>
<trkpt lat="47.630596" lon="11.029489">
<ele>800.848</ele>
<time>2020-09-11T14:28:55Z</time>
</trkpt>
<trkpt lat="47.630543" lon="11.029503">
<ele>800.848</ele>
<time>2020-09-11T14:28:56Z</time>
</trkpt>
<trkpt lat="47.630486" lon="11.02952">
<ele>800.848</ele>
<time>2020-09-11T14:28:57Z</time>
</trkpt>
<trkpt lat="47.630428" lon="11.029538">
<ele>801.087</ele>
<time>2020-09-11T14:28:58Z</time>
</trkpt>
<trkpt lat="47.630375" lon="11.029553">
<ele>801.288</ele>
<time>2020-09-11T14:28:59Z</time>
</trkpt>
<trkpt lat="47.630318" lon="11.02957">
<ele>801.453</ele>
<time>2020-09-11T14:29:00Z</time>
</trkpt>
<trkpt lat="47.630264" lon="11.029587">
<ele>801.586</ele>
<time>2020-09-11T14:29:01Z</time>
</trkpt>
<trkpt lat="47.630211" lon="11.029606">
<ele>801.69</ele>
<time>2020-09-11T14:29:02Z</time>
</trkpt>
<trkpt lat="47.630157" lon="11.029631">
<ele>801.763</ele>
<time>2020-09-11T14:29:03Z</time>
</trkpt>
<trkpt lat="47.630104" lon="11.029655">
<ele>801.808</ele>
<time>2020-09-11T14:29:04Z</time>
</trkpt>
<trkpt lat="47.630058" lon="11.029679">
<ele>802.051</ele>
<time>2020-09-11T14:29:05Z</time>
</trkpt>
<trkpt lat="47.630005" lon="11.029705">
<ele>802.234</ele>
<time>2020-09-11T14:29:06Z</time>
</trkpt>
<trkpt lat="47.629955" lon="11.02973">
<ele>802.356</ele>
<time>2020-09-11T14:29:07Z</time>
</trkpt>
<trkpt lat="47.629906" lon="11.02976">
<ele>802.487</ele>
<time>2020-09-11T14:29:08Z</time>
</trkpt>
<trkpt lat="47.629856" lon="11.02979">
<ele>802.59</ele>
<time>2020-09-11T14:29:09Z</time>
</trkpt>
<trkpt lat="47.629807" lon="11.029819">
<ele>802.663</ele>
<time>2020-09-11T14:29:10Z</time>
</trkpt>
<trkpt lat="47.629753" lon="11.029846">
<ele>802.711</ele>
<time>2020-09-11T14:29:11Z</time>
</trkpt>
<trkpt lat="47.629704" lon="11.029874">
<ele>802.734</ele>
<time>2020-09-11T14:29:12Z</time>
</trkpt>
<trkpt lat="47.62965" lon="11.029899">
<ele>802.997</ele>
<time>2020-09-11T14:29:13Z</time>
</trkpt>
<trkpt lat="47.629601" lon="11.029926">
<ele>803.202</ele>
<time>2020-09-11T14:29:14Z</time>
</trkpt>
<trkpt lat="47.629551" lon="11.029953">
<ele>803.36</ele>
<time>2020-09-11T14:29:15Z</time>
</trkpt>
<trkpt lat="47.629501" lon="11.029982">
<ele>803.476</ele>
<time>2020-09-11T14:29:16Z</time>
</trkpt>
<trkpt lat="47.629452" lon="11.030008">
<ele>803.559</ele>
<time>2020-09-11T14:29:17Z</time>
</trkpt>
<trkpt lat="47.629402" lon="11.030033">
<ele>803.64</ele>
<time>2020-09-11T14:29:18Z</time>
</trkpt>
<trkpt lat="47.629353" lon="11.030058">
<ele>803.932</ele>
<time>2020-09-11T14:29:19Z</time>
</trkpt>
<trkpt lat="47.629303" lon="11.030088">
<ele>804.161</ele>
<time>2020-09-11T14:29:20Z</time>
</trkpt>
<trkpt lat="47.629253" lon="11.030117">
<ele>804.413</ele>
<time>2020-09-11T14:29:21Z</time>
</trkpt>
<trkpt lat="47.629208" lon="11.030145">
<ele>804.544</ele>
<time>2020-09-11T14:29:22Z</time>
</trkpt>
<trkpt lat="47.629158" lon="11.030171">
<ele>804.631</ele>
<time>2020-09-11T14:29:23Z</time>
</trkpt>
<trkpt lat="47.629105" lon="11.030196">
<ele>804.685</ele>
<time>2020-09-11T14:29:24Z</time>
</trkpt>
<trkpt lat="47.629055" lon="11.030226">
<ele>804.71</ele>
<time>2020-09-11T14:29:25Z</time>
</trkpt>
<trkpt lat="47.629005" lon="11.030252">
<ele>804.952</ele>
<time>2020-09-11T14:29:26Z</time>
</trkpt>
<trkpt lat="47.628956" lon="11.030276">
<ele>805.124</ele>
<time>2020-09-11T14:29:27Z</time>
</trkpt>
<trkpt lat="47.628906" lon="11.030303">
<ele>805.298</ele>
<time>2020-09-11T14:29:28Z</time>
</trkpt>
<trkpt lat="47.628857" lon="11.030329">
<ele>805.44</ele>
<time>2020-09-11T14:29:29Z</time>
</trkpt>
<trkpt lat="47.628803" lon="11.030355">
<ele>805.545</ele>
<time>2020-09-11T14:29:30Z</time>
</trkpt>
<trkpt lat="47.628754" lon="11.030381">
<ele>805.623</ele>
<time>2020-09-11T14:29:31Z</time>
</trkpt>
<trkpt lat="47.6287" lon="11.03041">
<ele>805.673</ele>
<time>2020-09-11T14:29:32Z</time>
</trkpt>
<trkpt lat="47.628651" lon="11.030438">
<ele>805.698</ele>
<time>2020-09-11T14:29:33Z</time>
</trkpt>
<trkpt lat="47.628601" lon="11.030469">
<ele>805.698</ele>
<time>2020-09-11T14:29:34Z</time>
</trkpt>
<trkpt lat="47.628548" lon="11.030499">
<ele>805.947</ele>
<time>2020-09-11T14:29:35Z</time>
</trkpt>
<trkpt lat="47.628502" lon="11.030528">
<ele>806.143</ele>
<time>2020-09-11T14:29:36Z</time>
</trkpt>
<trkpt lat="47.628448" lon="11.030557">
<ele>806.276</ele>
<time>2020-09-11T14:29:37Z</time>
</trkpt>
<trkpt lat="47.628399" lon="11.030584">
<ele>806.418</ele>
<time>2020-09-11T14:29:38Z</time>
</trkpt>
<trkpt lat="47.628345" lon="11.030617">
<ele>806.53</ele>
<time>2020-09-11T14:29:39Z</time>
</trkpt>
<trkpt lat="47.6283" lon="11.030645">
<ele>806.61</ele>
<time>2020-09-11T14:29:40Z</time>
</trkpt>
<trkpt lat="47.628254" lon="11.030668">
<ele>806.662</ele>
<time>2020-09-11T14:29:41Z</time>
</trkpt>
<trkpt lat="47.628212" lon="11.030695">
<ele>806.686</ele>
<time>2020-09-11T14:29:42Z</time>
</trkpt>
<trkpt lat="47.628174" lon="11.030722">
<ele>806.96</ele>
<time>2020-09-11T14:29:43Z</time>
</trkpt>
<trkpt lat="47.628136" lon="11.030748">
<ele>807.175</ele>
<time>2020-09-11T14:29:44Z</time>
</trkpt>
<trkpt lat="47.628098" lon="11.030771">
<ele>807.346</ele>
<time>2020-09-11T14:29:45Z</time>
</trkpt>
<trkpt lat="47.628059" lon="11.030789">
<ele>807.447</ele>
<time>2020-09-11T14:29:46Z</time>
</trkpt>
<trkpt lat="47.628017" lon="11.030813">
<ele>807.776</ele>
<time>2020-09-11T14:29:47Z</time>
</trkpt>
<trkpt lat="47.627979" lon="11.03084">
<ele>808.082</ele>
<time>2020-09-11T14:29:48Z</time>
</trkpt>
<trkpt lat="47.627926" lon="11.030869">
<ele>808.047</ele>
<time>2020-09-11T14:29:49Z</time>
</trkpt>
<trkpt lat="47.627869" lon="11.030903">
<ele>807.977</ele>
<time>2020-09-11T14:29:50Z</time>
</trkpt>
<trkpt lat="47.627804" lon="11.030933">
<ele>807.945</ele>
<time>2020-09-11T14:29:51Z</time>
</trkpt>
<trkpt lat="47.627731" lon="11.03096">
<ele>807.868</ele>
<time>2020-09-11T14:29:52Z</time>
</trkpt>
<trkpt lat="47.627659" lon="11.030985">
<ele>807.464</ele>
<time>2020-09-11T14:29:53Z</time>
</trkpt>
<trkpt lat="47.627586" lon="11.03101">
<ele>807.173</ele>
<time>2020-09-11T14:29:54Z</time>
</trkpt>
<trkpt lat="47.627514" lon="11.031036">
<ele>806.972</ele>
<time>2020-09-11T14:29:55Z</time>
</trkpt>
<trkpt lat="47.627438" lon="11.031066">
<ele>806.864</ele>
<time>2020-09-11T14:29:56Z</time>
</trkpt>
<trkpt lat="47.627365" lon="11.031097">
<ele>806.512</ele>
<time>2020-09-11T14:29:57Z</time>
</trkpt>
<trkpt lat="47.627296" lon="11.03112">
<ele>806.231</ele>
<time>2020-09-11T14:29:58Z</time>
</trkpt>
<trkpt lat="47.62722" lon="11.031139">
<ele>806.016</ele>
<time>2020-09-11T14:29:59Z</time>
</trkpt>
<trkpt lat="47.62714" lon="11.031165">
<ele>805.881</ele>
<time>2020-09-11T14:30:00Z</time>
</trkpt>
<trkpt lat="47.627068" lon="11.031192">
<ele>805.549</ele>
<time>2020-09-11T14:30:01Z</time>
</trkpt>
<trkpt lat="47.626984" lon="11.031217">
<ele>805.279</ele>
<time>2020-09-11T14:30:02Z</time>
</trkpt>
<trkpt lat="47.626907" lon="11.031239">
<ele>805.075</ele>
<time>2020-09-11T14:30:03Z</time>
</trkpt>
<trkpt lat="47.626823" lon="11.031243">
<ele>804.956</ele>
<time>2020-09-11T14:30:04Z</time>
</trkpt>
<trkpt lat="47.626743" lon="11.031239">
<ele>804.58</ele>
<time>2020-09-11T14:30:05Z</time>
</trkpt>
<trkpt lat="47.626659" lon="11.031228">
<ele>804.33</ele>
<time>2020-09-11T14:30:06Z</time>
</trkpt>
<trkpt lat="47.626583" lon="11.031219">
<ele>804.153</ele>
<time>2020-09-11T14:30:07Z</time>
</trkpt>
<trkpt lat="47.626507" lon="11.031208">
<ele>803.986</ele>
<time>2020-09-11T14:30:08Z</time>
</trkpt>
<trkpt lat="47.626431" lon="11.031197">
<ele>803.877</ele>
<time>2020-09-11T14:30:09Z</time>
</trkpt>
<trkpt lat="47.626362" lon="11.031179">
<ele>803.799</ele>
<time>2020-09-11T14:30:10Z</time>
</trkpt>
<trkpt lat="47.626289" lon="11.031162">
<ele>803.747</ele>
<time>2020-09-11T14:30:11Z</time>
</trkpt>
<trkpt lat="47.626225" lon="11.031138">
<ele>803.722</ele>
<time>2020-09-11T14:30:12Z</time>
</trkpt>
<trkpt lat="47.626156" lon="11.031114">
<ele>803.722</ele>
<time>2020-09-11T14:30:13Z</time>
</trkpt>
<trkpt lat="47.626087" lon="11.03109">
<ele>803.722</ele>
<time>2020-09-11T14:30:14Z</time>
</trkpt>
<trkpt lat="47.626019" lon="11.031065">
<ele>803.722</ele>
<time>2020-09-11T14:30:15Z</time>
</trkpt>
<trkpt lat="47.62595" lon="11.031041">
<ele>803.722</ele>
<time>2020-09-11T14:30:16Z</time>
</trkpt>
<trkpt lat="47.625885" lon="11.031018">
<ele>803.722</ele>
<time>2020-09-11T14:30:17Z</time>
</trkpt>
<trkpt lat="47.625813" lon="11.030998">
<ele>803.722</ele>
<time>2020-09-11T14:30:18Z</time>
</trkpt>
<trkpt lat="47.625744" lon="11.030978">
<ele>803.722</ele>
<time>2020-09-11T14:30:19Z</time>
</trkpt>
<trkpt lat="47.625675" lon="11.030959">
<ele>803.722</ele>
<time>2020-09-11T14:30:20Z</time>
</trkpt>
<trkpt lat="47.625607" lon="11.030942">
<ele>803.722</ele>
<time>2020-09-11T14:30:21Z</time>
</trkpt>
<trkpt lat="47.625542" lon="11.030928">
<ele>803.722</ele>
<time>2020-09-11T14:30:22Z</time>
</trkpt>
<trkpt lat="47.625481" lon="11.030915">
<ele>803.722</ele>
<time>2020-09-11T14:30:23Z</time>
</trkpt>
<trkpt lat="47.62542" lon="11.030898">
<ele>803.722</ele>
<time>2020-09-11T14:30:24Z</time>
</trkpt>
<trkpt lat="47.625362" lon="11.030878">
<ele>803.961</ele>
<time>2020-09-11T14:30:25Z</time>
</trkpt>
<trkpt lat="47.625305" lon="11.030858">
<ele>804.15</ele>
<time>2020-09-11T14:30:26Z</time>
</trkpt>
<trkpt lat="47.625244" lon="11.030835">
<ele>804.285</ele>
<time>2020-09-11T14:30:27Z</time>
</trkpt>
<trkpt lat="47.625183" lon="11.03081">
<ele>804.432</ele>
<time>2020-09-11T14:30:28Z</time>
</trkpt>
<trkpt lat="47.625118" lon="11.030789">
<ele>804.492</ele>
<time>2020-09-11T14:30:29Z</time>
</trkpt>
<trkpt lat="47.625053" lon="11.030773">
<ele>804.323</ele>
<time>2020-09-11T14:30:30Z</time>
</trkpt>
<trkpt lat="47.624996" lon="11.030751">
<ele>804.167</ele>
<time>2020-09-11T14:30:31Z</time>
</trkpt>
<trkpt lat="47.624943" lon="11.030735">
<ele>804.029</ele>
<time>2020-09-11T14:30:32Z</time>
</trkpt>
<trkpt lat="47.624886" lon="11.030723">
<ele>803.906</ele>
<time>2020-09-11T14:30:33Z</time>
</trkpt>
<trkpt lat="47.624828" lon="11.03071">
<ele>804.047</ele>
<time>2020-09-11T14:30:34Z</time>
</trkpt>
<trkpt lat="47.624775" lon="11.030699">
<ele>804.173</ele>
<time>2020-09-11T14:30:35Z</time>
</trkpt>
<trkpt lat="47.624722" lon="11.030686">
<ele>804.287</ele>
<time>2020-09-11T14:30:36Z</time>
</trkpt>
<trkpt lat="47.62466" lon="11.030677">
<ele>804.306</ele>
<time>2020-09-11T14:30:37Z</time>
</trkpt>
<trkpt lat="47.624603" lon="11.03066">
<ele>804.435</ele>
<time>2020-09-11T14:30:38Z</time>
</trkpt>
<trkpt lat="47.62455" lon="11.030642">
<ele>804.552</ele>
<time>2020-09-11T14:30:39Z</time>
</trkpt>
<trkpt lat="47.624493" lon="11.030623">
<ele>804.633</ele>
<time>2020-09-11T14:30:40Z</time>
</trkpt>
<trkpt lat="47.624432" lon="11.030602">
<ele>804.685</ele>
<time>2020-09-11T14:30:41Z</time>
</trkpt>
<trkpt lat="47.624371" lon="11.030581">
<ele>804.71</ele>
<time>2020-09-11T14:30:42Z</time>
</trkpt>
<trkpt lat="47.62431" lon="11.03056">
<ele>804.71</ele>
<time>2020-09-11T14:30:43Z</time>
</trkpt>
<trkpt lat="47.624252" lon="11.030539">
<ele>804.71</ele>
<time>2020-09-11T14:30:44Z</time>
</trkpt>
<trkpt lat="47.624191" lon="11.030519">
<ele>804.71</ele>
<time>2020-09-11T14:30:45Z</time>
</trkpt>
<trkpt lat="47.624134" lon="11.030508">
<ele>804.71</ele>
<time>2020-09-11T14:30:46Z</time>
</trkpt>
<trkpt lat="47.624073" lon="11.030497">
<ele>804.71</ele>
<time>2020-09-11T14:30:47Z</time>
</trkpt>
<trkpt lat="47.624012" lon="11.030485">
<ele>804.709</ele>
<time>2020-09-11T14:30:48Z</time>
</trkpt>
<trkpt lat="47.623955" lon="11.030473">
<ele>804.71</ele>
<time>2020-09-11T14:30:49Z</time>
</trkpt>
<trkpt lat="47.623894" lon="11.030462">
<ele>804.71</ele>
<time>2020-09-11T14:30:50Z</time>
</trkpt>
<trkpt lat="47.623837" lon="11.03045">
<ele>804.71</ele>
<time>2020-09-11T14:30:51Z</time>
</trkpt>
<trkpt lat="47.623775" lon="11.030441">
<ele>804.71</ele>
<time>2020-09-11T14:30:52Z</time>
</trkpt>
<trkpt lat="47.623714" lon="11.030432">
<ele>804.71</ele>
<time>2020-09-11T14:30:53Z</time>
</trkpt>
<trkpt lat="47.623653" lon="11.030421">
<ele>804.71</ele>
<time>2020-09-11T14:30:54Z</time>
</trkpt>
<trkpt lat="47.623596" lon="11.03041">
<ele>804.71</ele>
<time>2020-09-11T14:30:55Z</time>
</trkpt>
<trkpt lat="47.623535" lon="11.030402">
<ele>804.71</ele>
<time>2020-09-11T14:30:56Z</time>
</trkpt>
<trkpt lat="47.623474" lon="11.030394">
<ele>804.71</ele>
<time>2020-09-11T14:30:57Z</time>
</trkpt>
<trkpt lat="47.623413" lon="11.030387">
<ele>804.71</ele>
<time>2020-09-11T14:30:58Z</time>
</trkpt>
<trkpt lat="47.623352" lon="11.030383">
<ele>804.71</ele>
<time>2020-09-11T14:30:59Z</time>
</trkpt>
<trkpt lat="47.623287" lon="11.030378">
<ele>804.71</ele>
<time>2020-09-11T14:31:00Z</time>
</trkpt>
<trkpt lat="47.623226" lon="11.030372">
<ele>804.71</ele>
<time>2020-09-11T14:31:01Z</time>
</trkpt>
<trkpt lat="47.623165" lon="11.030364">
<ele>804.71</ele>
<time>2020-09-11T14:31:02Z</time>
</trkpt>
<trkpt lat="47.623108" lon="11.030355">
<ele>804.71</ele>
<time>2020-09-11T14:31:03Z</time>
</trkpt>
<trkpt lat="47.623051" lon="11.030348">
<ele>804.71</ele>
<time>2020-09-11T14:31:04Z</time>
</trkpt>
<trkpt lat="47.622993" lon="11.030347">
<ele>804.932</ele>
<time>2020-09-11T14:31:05Z</time>
</trkpt>
<trkpt lat="47.622932" lon="11.030347">
<ele>805.106</ele>
<time>2020-09-11T14:31:06Z</time>
</trkpt>
<trkpt lat="47.622879" lon="11.030348">
<ele>805.229</ele>
<time>2020-09-11T14:31:07Z</time>
</trkpt>
<trkpt lat="47.622826" lon="11.030348">
<ele>805.36</ele>
<time>2020-09-11T14:31:08Z</time>
</trkpt>
<trkpt lat="47.622772" lon="11.030348">
<ele>805.461</ele>
<time>2020-09-11T14:31:09Z</time>
</trkpt>
<trkpt lat="47.622723" lon="11.030348">
<ele>805.536</ele>
<time>2020-09-11T14:31:10Z</time>
</trkpt>
<trkpt lat="47.622673" lon="11.030348">
<ele>805.585</ele>
<time>2020-09-11T14:31:11Z</time>
</trkpt>
<trkpt lat="47.62262" lon="11.030345">
<ele>805.608</ele>
<time>2020-09-11T14:31:12Z</time>
</trkpt>
<trkpt lat="47.62257" lon="11.030336">
<ele>805.608</ele>
<time>2020-09-11T14:31:13Z</time>
</trkpt>
<trkpt lat="47.622513" lon="11.030331">
<ele>805.608</ele>
<time>2020-09-11T14:31:14Z</time>
</trkpt>
<trkpt lat="47.622463" lon="11.030327">
<ele>805.608</ele>
<time>2020-09-11T14:31:15Z</time>
</trkpt>
<trkpt lat="47.62241" lon="11.030327">
<ele>805.608</ele>
<time>2020-09-11T14:31:16Z</time>
</trkpt>
<trkpt lat="47.622353" lon="11.030322">
<ele>805.608</ele>
<time>2020-09-11T14:31:17Z</time>
</trkpt>
<trkpt lat="47.622299" lon="11.030315">
<ele>805.608</ele>
<time>2020-09-11T14:31:18Z</time>
</trkpt>
<trkpt lat="47.622242" lon="11.03031">
<ele>805.608</ele>
<time>2020-09-11T14:31:19Z</time>
</trkpt>
<trkpt lat="47.622185" lon="11.030307">
<ele>805.608</ele>
<time>2020-09-11T14:31:20Z</time>
</trkpt>
<trkpt lat="47.622131" lon="11.030303">
<ele>805.608</ele>
<time>2020-09-11T14:31:21Z</time>
</trkpt>
<trkpt lat="47.622082" lon="11.030299">
<ele>805.608</ele>
<time>2020-09-11T14:31:22Z</time>
</trkpt>
<trkpt lat="47.622028" lon="11.030292">
<ele>805.608</ele>
<time>2020-09-11T14:31:23Z</time>
</trkpt>
<trkpt lat="47.621983" lon="11.030289">
<ele>805.608</ele>
<time>2020-09-11T14:31:24Z</time>
</trkpt>
<trkpt lat="47.621929" lon="11.030287">
<ele>805.608</ele>
<time>2020-09-11T14:31:25Z</time>
</trkpt>
<trkpt lat="47.621872" lon="11.030283">
<ele>805.608</ele>
<time>2020-09-11T14:31:26Z</time>
</trkpt>
<trkpt lat="47.621819" lon="11.030282">
<ele>805.864</ele>
<time>2020-09-11T14:31:27Z</time>
</trkpt>
<trkpt lat="47.621758" lon="11.030278">
<ele>806.114</ele>
<time>2020-09-11T14:31:28Z</time>
</trkpt>
<trkpt lat="47.6217" lon="11.030273">
<ele>806.323</ele>
<time>2020-09-11T14:31:29Z</time>
</trkpt>
<trkpt lat="47.621643" lon="11.030272">
<ele>806.488</ele>
<time>2020-09-11T14:31:30Z</time>
</trkpt>
<trkpt lat="47.621586" lon="11.030267">
<ele>806.611</ele>
<time>2020-09-11T14:31:31Z</time>
</trkpt>
<trkpt lat="47.621529" lon="11.030264">
<ele>806.697</ele>
<time>2020-09-11T14:31:32Z</time>
</trkpt>
<trkpt lat="47.621464" lon="11.030258">
<ele>806.75</ele>
<time>2020-09-11T14:31:33Z</time>
</trkpt>
<trkpt lat="47.621407" lon="11.030252">
<ele>806.776</ele>
<time>2020-09-11T14:31:34Z</time>
</trkpt>
<trkpt lat="47.621346" lon="11.030245">
<ele>806.776</ele>
<time>2020-09-11T14:31:35Z</time>
</trkpt>
<trkpt lat="47.621284" lon="11.030238">
<ele>806.533</ele>
<time>2020-09-11T14:31:36Z</time>
</trkpt>
<trkpt lat="47.621227" lon="11.03023">
<ele>806.361</ele>
<time>2020-09-11T14:31:37Z</time>
</trkpt>
<trkpt lat="47.621166" lon="11.03022">
<ele>806.183</ele>
<time>2020-09-11T14:31:38Z</time>
</trkpt>
<trkpt lat="47.621105" lon="11.03021">
<ele>806.043</ele>
<time>2020-09-11T14:31:39Z</time>
</trkpt>
<trkpt lat="47.62104" lon="11.0302">
<ele>805.937</ele>
<time>2020-09-11T14:31:40Z</time>
</trkpt>
<trkpt lat="47.620975" lon="11.03019">
<ele>805.861</ele>
<time>2020-09-11T14:31:41Z</time>
</trkpt>
<trkpt lat="47.620914" lon="11.030182">
<ele>805.811</ele>
<time>2020-09-11T14:31:42Z</time>
</trkpt>
<trkpt lat="47.620853" lon="11.030171">
<ele>805.788</ele>
<time>2020-09-11T14:31:43Z</time>
</trkpt>
<trkpt lat="47.620796" lon="11.030159">
<ele>805.788</ele>
<time>2020-09-11T14:31:44Z</time>
</trkpt>
<trkpt lat="47.620735" lon="11.030144">
<ele>805.788</ele>
<time>2020-09-11T14:31:45Z</time>
</trkpt>
<trkpt lat="47.620678" lon="11.030129">
<ele>805.548</ele>
<time>2020-09-11T14:31:46Z</time>
</trkpt>
<trkpt lat="47.620613" lon="11.030117">
<ele>805.377</ele>
<time>2020-09-11T14:31:47Z</time>
</trkpt>
<trkpt lat="47.620552" lon="11.030105">
<ele>805.203</ele>
<time>2020-09-11T14:31:48Z</time>
</trkpt>
<trkpt lat="47.620491" lon="11.030091">
<ele>805.062</ele>
<time>2020-09-11T14:31:49Z</time>
</trkpt>
<trkpt lat="47.62043" lon="11.030079">
<ele>804.951</ele>
<time>2020-09-11T14:31:50Z</time>
</trkpt>
<trkpt lat="47.620373" lon="11.030063">
<ele>804.874</ele>
<time>2020-09-11T14:31:51Z</time>
</trkpt>
<trkpt lat="47.620319" lon="11.030046">
<ele>804.824</ele>
<time>2020-09-11T14:31:52Z</time>
</trkpt>
<trkpt lat="47.620258" lon="11.03003">
<ele>804.799</ele>
<time>2020-09-11T14:31:53Z</time>
</trkpt>
<trkpt lat="47.620205" lon="11.030015">
<ele>804.799</ele>
<time>2020-09-11T14:31:54Z</time>
</trkpt>
<trkpt lat="47.620152" lon="11.030002">
<ele>804.8</ele>
<time>2020-09-11T14:31:55Z</time>
</trkpt>
<trkpt lat="47.620098" lon="11.029989">
<ele>804.545</ele>
<time>2020-09-11T14:31:56Z</time>
</trkpt>
<trkpt lat="47.620056" lon="11.029982">
<ele>804.36</ele>
<time>2020-09-11T14:31:57Z</time>
</trkpt>
<trkpt lat="47.62001" lon="11.029975">
<ele>804.174</ele>
<time>2020-09-11T14:31:58Z</time>
</trkpt>
<trkpt lat="47.619968" lon="11.029973">
<ele>804.021</ele>
<time>2020-09-11T14:31:59Z</time>
</trkpt>
<trkpt lat="47.61993" lon="11.029975">
<ele>803.902</ele>
<time>2020-09-11T14:32:00Z</time>
</trkpt>
<trkpt lat="47.619896" lon="11.029973">
<ele>803.814</ele>
<time>2020-09-11T14:32:01Z</time>
</trkpt>
<trkpt lat="47.619854" lon="11.029963">
<ele>803.752</ele>
<time>2020-09-11T14:32:02Z</time>
</trkpt>
<trkpt lat="47.619808" lon="11.02995">
<ele>803.722</ele>
<time>2020-09-11T14:32:03Z</time>
</trkpt>
<trkpt lat="47.619766" lon="11.029935">
<ele>803.495</ele>
<time>2020-09-11T14:32:04Z</time>
</trkpt>
<trkpt lat="47.619717" lon="11.029918">
<ele>803.308</ele>
<time>2020-09-11T14:32:05Z</time>
</trkpt>
<trkpt lat="47.619675" lon="11.029902">
<ele>803.16</ele>
<time>2020-09-11T14:32:06Z</time>
</trkpt>
<trkpt lat="47.619637" lon="11.02989">
<ele>803.06</ele>
<time>2020-09-11T14:32:07Z</time>
</trkpt>
<trkpt lat="47.619595" lon="11.029877">
<ele>802.957</ele>
<time>2020-09-11T14:32:08Z</time>
</trkpt>
<trkpt lat="47.619553" lon="11.02986">
<ele>802.892</ele>
<time>2020-09-11T14:32:09Z</time>
</trkpt>
<trkpt lat="47.619507" lon="11.029842">
<ele>802.584</ele>
<time>2020-09-11T14:32:10Z</time>
</trkpt>
<trkpt lat="47.619465" lon="11.029823">
<ele>802.343</ele>
<time>2020-09-11T14:32:11Z</time>
</trkpt>
<trkpt lat="47.619423" lon="11.029805">
<ele>802.089</ele>
<time>2020-09-11T14:32:12Z</time>
</trkpt>
<trkpt lat="47.619389" lon="11.029792">
<ele>801.951</ele>
<time>2020-09-11T14:32:13Z</time>
</trkpt>
<trkpt lat="47.619358" lon="11.029785">
<ele>801.855</ele>
<time>2020-09-11T14:32:14Z</time>
</trkpt>
<trkpt lat="47.619316" lon="11.029785">
<ele>801.797</ele>
<time>2020-09-11T14:32:15Z</time>
</trkpt>
<trkpt lat="47.619274" lon="11.029776">
<ele>801.771</ele>
<time>2020-09-11T14:32:16Z</time>
</trkpt>
<trkpt lat="47.619232" lon="11.029761">
<ele>801.746</ele>
<time>2020-09-11T14:32:17Z</time>
</trkpt>
<trkpt lat="47.619194" lon="11.029748">
<ele>801.746</ele>
<time>2020-09-11T14:32:18Z</time>
</trkpt>
<trkpt lat="47.619152" lon="11.029736">
<ele>801.746</ele>
<time>2020-09-11T14:32:19Z</time>
</trkpt>
<trkpt lat="47.619118" lon="11.029723">
<ele>801.746</ele>
<time>2020-09-11T14:32:20Z</time>
</trkpt>
<trkpt lat="47.619083" lon="11.029712">
<ele>801.746</ele>
<time>2020-09-11T14:32:21Z</time>
</trkpt>
<trkpt lat="47.619045" lon="11.029705">
<ele>801.746</ele>
<time>2020-09-11T14:32:22Z</time>
</trkpt>
<trkpt lat="47.619007" lon="11.029698">
<ele>801.746</ele>
<time>2020-09-11T14:32:23Z</time>
</trkpt>
<trkpt lat="47.618965" lon="11.029692">
<ele>801.746</ele>
<time>2020-09-11T14:32:24Z</time>
</trkpt>
<trkpt lat="47.618919" lon="11.029688">
<ele>801.746</ele>
<time>2020-09-11T14:32:25Z</time>
</trkpt>
<trkpt lat="47.61887" lon="11.02969">
<ele>801.497</ele>
<time>2020-09-11T14:32:26Z</time>
</trkpt>
<trkpt lat="47.61882" lon="11.029688">
<ele>801.323</ele>
<time>2020-09-11T14:32:27Z</time>
</trkpt>
<trkpt lat="47.618778" lon="11.029679">
<ele>801.139</ele>
<time>2020-09-11T14:32:28Z</time>
</trkpt>
<trkpt lat="47.618732" lon="11.029671">
<ele>800.998</ele>
<time>2020-09-11T14:32:29Z</time>
</trkpt>
<trkpt lat="47.618683" lon="11.029656">
<ele>800.895</ele>
<time>2020-09-11T14:32:30Z</time>
</trkpt>
<trkpt lat="47.618629" lon="11.029643">
<ele>800.824</ele>
<time>2020-09-11T14:32:31Z</time>
</trkpt>
<trkpt lat="47.618584" lon="11.029632">
<ele>800.78</ele>
<time>2020-09-11T14:32:32Z</time>
</trkpt>
<trkpt lat="47.618534" lon="11.029623">
<ele>800.758</ele>
<time>2020-09-11T14:32:33Z</time>
</trkpt>
<trkpt lat="47.618488" lon="11.02961">
<ele>800.758</ele>
<time>2020-09-11T14:32:34Z</time>
</trkpt>
<trkpt lat="47.618443" lon="11.0296">
<ele>800.758</ele>
<time>2020-09-11T14:32:35Z</time>
</trkpt>
<trkpt lat="47.618401" lon="11.02959">
<ele>800.758</ele>
<time>2020-09-11T14:32:36Z</time>
</trkpt>
<trkpt lat="47.618359" lon="11.029583">
<ele>800.758</ele>
<time>2020-09-11T14:32:37Z</time>
</trkpt>
<trkpt lat="47.61832" lon="11.029576">
<ele>800.758</ele>
<time>2020-09-11T14:32:38Z</time>
</trkpt>
<trkpt lat="47.618286" lon="11.029573">
<ele>800.758</ele>
<time>2020-09-11T14:32:39Z</time>
</trkpt>
<trkpt lat="47.618259" lon="11.029568">
<ele>800.758</ele>
<time>2020-09-11T14:32:40Z</time>
</trkpt>
<trkpt lat="47.618237" lon="11.029567">
<ele>800.758</ele>
<time>2020-09-11T14:32:41Z</time>
</trkpt>
<trkpt lat="47.618221" lon="11.029566">
<ele>800.758</ele>
<time>2020-09-11T14:32:42Z</time>
</trkpt>
<trkpt lat="47.61821" lon="11.029566">
<ele>800.758</ele>
<time>2020-09-11T14:32:43Z</time>
</trkpt>
<trkpt lat="47.618214" lon="11.029567">
<ele>800.758</ele>
<time>2020-09-11T14:32:44Z</time>
</trkpt>
<trkpt lat="47.61821" lon="11.029566">
<ele>800.758</ele>
<time>2020-09-11T14:32:45Z</time>
</trkpt>
<trkpt lat="47.618179" lon="11.029557">
<ele>800.758</ele>
<time>2020-09-11T14:34:26Z</time>
</trkpt>
<trkpt lat="47.618172" lon="11.029557">
<ele>800.57</ele>
<time>2020-09-11T14:34:27Z</time>
</trkpt>
<trkpt lat="47.618149" lon="11.029557">
<ele>800.361</ele>
<time>2020-09-11T14:34:28Z</time>
</trkpt>
<trkpt lat="47.618118" lon="11.029558">
<ele>800.15</ele>
<time>2020-09-11T14:34:29Z</time>
</trkpt>
<trkpt lat="47.618088" lon="11.029558">
<ele>799.954</ele>
<time>2020-09-11T14:34:30Z</time>
</trkpt>
<trkpt lat="47.618046" lon="11.029557">
<ele>799.824</ele>
<time>2020-09-11T14:34:31Z</time>
</trkpt>
<trkpt lat="47.618004" lon="11.029555">
<ele>799.779</ele>
<time>2020-09-11T14:34:32Z</time>
</trkpt>
<trkpt lat="47.617947" lon="11.029555">
<ele>799.773</ele>
<time>2020-09-11T14:34:33Z</time>
</trkpt>
<trkpt lat="47.617889" lon="11.029555">
<ele>799.771</ele>
<time>2020-09-11T14:34:34Z</time>
</trkpt>
<trkpt lat="47.617832" lon="11.029553">
<ele>799.771</ele>
<time>2020-09-11T14:34:35Z</time>
</trkpt>
<trkpt lat="47.617775" lon="11.029553">
<ele>799.771</ele>
<time>2020-09-11T14:34:36Z</time>
</trkpt>
<trkpt lat="47.617718" lon="11.029553">
<ele>799.771</ele>
<time>2020-09-11T14:34:37Z</time>
</trkpt>
<trkpt lat="47.617661" lon="11.029557">
<ele>799.771</ele>
<time>2020-09-11T14:34:38Z</time>
</trkpt>
<trkpt lat="47.617611" lon="11.02956">
<ele>800.137</ele>
<time>2020-09-11T14:34:39Z</time>
</trkpt>
<trkpt lat="47.617554" lon="11.029567">
<ele>800.397</ele>
<time>2020-09-11T14:34:40Z</time>
</trkpt>
<trkpt lat="47.6175" lon="11.029574">
<ele>800.587</ele>
<time>2020-09-11T14:34:41Z</time>
</trkpt>
<trkpt lat="47.617447" lon="11.029583">
<ele>800.734</ele>
<time>2020-09-11T14:34:42Z</time>
</trkpt>
<trkpt lat="47.617393" lon="11.029592">
<ele>800.838</ele>
<time>2020-09-11T14:34:43Z</time>
</trkpt>
<trkpt lat="47.61734" lon="11.029597">
<ele>800.903</ele>
<time>2020-09-11T14:34:44Z</time>
</trkpt>
<trkpt lat="47.617287" lon="11.029602">
<ele>800.938</ele>
<time>2020-09-11T14:34:45Z</time>
</trkpt>
<trkpt lat="47.617237" lon="11.02961">
<ele>800.938</ele>
<time>2020-09-11T14:34:46Z</time>
</trkpt>
<trkpt lat="47.617184" lon="11.029618">
<ele>800.938</ele>
<time>2020-09-11T14:34:47Z</time>
</trkpt>
<trkpt lat="47.617126" lon="11.029632">
<ele>800.938</ele>
<time>2020-09-11T14:34:48Z</time>
</trkpt>
<trkpt lat="47.617073" lon="11.029645">
<ele>800.938</ele>
<time>2020-09-11T14:34:49Z</time>
</trkpt>
<trkpt lat="47.61702" lon="11.029658">
<ele>800.938</ele>
<time>2020-09-11T14:34:50Z</time>
</trkpt>
<trkpt lat="47.616962" lon="11.029672">
<ele>800.938</ele>
<time>2020-09-11T14:34:51Z</time>
</trkpt>
<trkpt lat="47.616909" lon="11.029683">
<ele>800.938</ele>
<time>2020-09-11T14:34:52Z</time>
</trkpt>
<trkpt lat="47.616859" lon="11.029688">
<ele>800.938</ele>
<time>2020-09-11T14:34:53Z</time>
</trkpt>
<trkpt lat="47.616802" lon="11.029704">
<ele>800.938</ele>
<time>2020-09-11T14:34:54Z</time>
</trkpt>
<trkpt lat="47.616753" lon="11.029715">
<ele>800.938</ele>
<time>2020-09-11T14:34:55Z</time>
</trkpt>
<trkpt lat="47.616703" lon="11.029729">
<ele>800.938</ele>
<time>2020-09-11T14:34:56Z</time>
</trkpt>
<trkpt lat="47.616646" lon="11.029743">
<ele>800.938</ele>
<time>2020-09-11T14:34:57Z</time>
</trkpt>
<trkpt lat="47.616592" lon="11.029758">
<ele>800.938</ele>
<time>2020-09-11T14:34:58Z</time>
</trkpt>
<trkpt lat="47.616539" lon="11.029772">
<ele>800.938</ele>
<time>2020-09-11T14:34:59Z</time>
</trkpt>
<trkpt lat="47.616486" lon="11.02979">
<ele>800.938</ele>
<time>2020-09-11T14:35:00Z</time>
</trkpt>
<trkpt lat="47.616432" lon="11.029801">
<ele>800.938</ele>
<time>2020-09-11T14:35:01Z</time>
</trkpt>
<trkpt lat="47.616379" lon="11.029819">
<ele>800.938</ele>
<time>2020-09-11T14:35:02Z</time>
</trkpt>
<trkpt lat="47.616325" lon="11.02984">
<ele>800.938</ele>
<time>2020-09-11T14:35:03Z</time>
</trkpt>
<trkpt lat="47.616272" lon="11.029859">
<ele>800.938</ele>
<time>2020-09-11T14:35:04Z</time>
</trkpt>
<trkpt lat="47.616219" lon="11.029875">
<ele>800.938</ele>
<time>2020-09-11T14:35:05Z</time>
</trkpt>
<trkpt lat="47.616165" lon="11.029893">
<ele>800.938</ele>
<time>2020-09-11T14:35:06Z</time>
</trkpt>
<trkpt lat="47.616108" lon="11.029905">
<ele>800.938</ele>
<time>2020-09-11T14:35:07Z</time>
</trkpt>
<trkpt lat="47.616051" lon="11.029923">
<ele>800.938</ele>
<time>2020-09-11T14:35:08Z</time>
</trkpt>
<trkpt lat="47.61599" lon="11.029943">
<ele>800.938</ele>
<time>2020-09-11T14:35:09Z</time>
</trkpt>
<trkpt lat="47.615936" lon="11.029962">
<ele>800.938</ele>
<time>2020-09-11T14:35:10Z</time>
</trkpt>
<trkpt lat="47.615879" lon="11.029981">
<ele>800.938</ele>
<time>2020-09-11T14:35:11Z</time>
</trkpt>
<trkpt lat="47.615822" lon="11.029993">
<ele>800.938</ele>
<time>2020-09-11T14:35:12Z</time>
</trkpt>
<trkpt lat="47.615772" lon="11.030006">
<ele>800.938</ele>
<time>2020-09-11T14:35:13Z</time>
</trkpt>
<trkpt lat="47.615715" lon="11.030028">
<ele>800.938</ele>
<time>2020-09-11T14:35:14Z</time>
</trkpt>
<trkpt lat="47.615662" lon="11.030055">
<ele>800.938</ele>
<time>2020-09-11T14:35:15Z</time>
</trkpt>
<trkpt lat="47.615601" lon="11.030086">
<ele>800.938</ele>
<time>2020-09-11T14:35:16Z</time>
</trkpt>
<trkpt lat="47.615536" lon="11.030107">
<ele>800.938</ele>
<time>2020-09-11T14:35:17Z</time>
</trkpt>
<trkpt lat="47.615479" lon="11.030131">
<ele>800.938</ele>
<time>2020-09-11T14:35:18Z</time>
</trkpt>
<trkpt lat="47.615421" lon="11.030155">
<ele>800.938</ele>
<time>2020-09-11T14:35:19Z</time>
</trkpt>
<trkpt lat="47.615364" lon="11.030178">
<ele>800.938</ele>
<time>2020-09-11T14:35:20Z</time>
</trkpt>
<trkpt lat="47.615303" lon="11.0302">
<ele>800.938</ele>
<time>2020-09-11T14:35:21Z</time>
</trkpt>
<trkpt lat="47.615242" lon="11.03022">
<ele>800.938</ele>
<time>2020-09-11T14:35:22Z</time>
</trkpt>
<trkpt lat="47.615181" lon="11.030242">
<ele>800.938</ele>
<time>2020-09-11T14:35:23Z</time>
</trkpt>
<trkpt lat="47.615124" lon="11.030262">
<ele>800.938</ele>
<time>2020-09-11T14:35:24Z</time>
</trkpt>
<trkpt lat="47.615067" lon="11.030283">
<ele>800.938</ele>
<time>2020-09-11T14:35:25Z</time>
</trkpt>
<trkpt lat="47.615009" lon="11.030297">
<ele>800.938</ele>
<time>2020-09-11T14:35:26Z</time>
</trkpt>
<trkpt lat="47.614948" lon="11.030316">
<ele>800.938</ele>
<time>2020-09-11T14:35:27Z</time>
</trkpt>
<trkpt lat="47.614891" lon="11.030338">
<ele>800.938</ele>
<time>2020-09-11T14:35:28Z</time>
</trkpt>
<trkpt lat="47.61483" lon="11.03036">
<ele>800.938</ele>
<time>2020-09-11T14:35:29Z</time>
</trkpt>
<trkpt lat="47.614773" lon="11.030381">
<ele>800.938</ele>
<time>2020-09-11T14:35:30Z</time>
</trkpt>
<trkpt lat="47.614716" lon="11.0304">
<ele>800.938</ele>
<time>2020-09-11T14:35:31Z</time>
</trkpt>
<trkpt lat="47.614655" lon="11.030421">
<ele>800.938</ele>
<time>2020-09-11T14:35:32Z</time>
</trkpt>
<trkpt lat="47.614597" lon="11.030441">
<ele>800.938</ele>
<time>2020-09-11T14:35:33Z</time>
</trkpt>
<trkpt lat="47.61454" lon="11.030465">
<ele>800.938</ele>
<time>2020-09-11T14:35:34Z</time>
</trkpt>
<trkpt lat="47.614479" lon="11.030488">
<ele>800.938</ele>
<time>2020-09-11T14:35:35Z</time>
</trkpt>
<trkpt lat="47.614418" lon="11.03051">
<ele>800.938</ele>
<time>2020-09-11T14:35:36Z</time>
</trkpt>
<trkpt lat="47.614357" lon="11.030532">
<ele>800.938</ele>
<time>2020-09-11T14:35:37Z</time>
</trkpt>
<trkpt lat="47.614292" lon="11.030553">
<ele>800.938</ele>
<time>2020-09-11T14:35:38Z</time>
</trkpt>
<trkpt lat="47.614227" lon="11.030572">
<ele>800.938</ele>
<time>2020-09-11T14:35:39Z</time>
</trkpt>
<trkpt lat="47.614166" lon="11.030592">
<ele>800.938</ele>
<time>2020-09-11T14:35:40Z</time>
</trkpt>
<trkpt lat="47.614109" lon="11.030612">
<ele>800.938</ele>
<time>2020-09-11T14:35:41Z</time>
</trkpt>
<trkpt lat="47.614048" lon="11.030633">
<ele>800.938</ele>
<time>2020-09-11T14:35:42Z</time>
</trkpt>
<trkpt lat="47.613987" lon="11.030651">
<ele>800.938</ele>
<time>2020-09-11T14:35:43Z</time>
</trkpt>
<trkpt lat="47.61393" lon="11.03067">
<ele>800.938</ele>
<time>2020-09-11T14:35:44Z</time>
</trkpt>
<trkpt lat="47.613865" lon="11.030686">
<ele>800.938</ele>
<time>2020-09-11T14:35:45Z</time>
</trkpt>
<trkpt lat="47.613804" lon="11.030704">
<ele>800.938</ele>
<time>2020-09-11T14:35:46Z</time>
</trkpt>
<trkpt lat="47.613743" lon="11.030717">
<ele>800.938</ele>
<time>2020-09-11T14:35:47Z</time>
</trkpt>
<trkpt lat="47.613682" lon="11.03073">
<ele>800.938</ele>
<time>2020-09-11T14:35:48Z</time>
</trkpt>
<trkpt lat="47.613621" lon="11.030744">
<ele>800.938</ele>
<time>2020-09-11T14:35:49Z</time>
</trkpt>
<trkpt lat="47.61356" lon="11.030755">
<ele>800.938</ele>
<time>2020-09-11T14:35:50Z</time>
</trkpt>
<trkpt lat="47.613503" lon="11.030765">
<ele>800.938</ele>
<time>2020-09-11T14:35:51Z</time>
</trkpt>
<trkpt lat="47.613441" lon="11.030775">
<ele>800.938</ele>
<time>2020-09-11T14:35:52Z</time>
</trkpt>
<trkpt lat="47.613377" lon="11.030786">
<ele>800.938</ele>
<time>2020-09-11T14:35:53Z</time>
</trkpt>
<trkpt lat="47.613312" lon="11.030793">
<ele>800.938</ele>
<time>2020-09-11T14:35:54Z</time>
</trkpt>
<trkpt lat="47.613251" lon="11.030804">
<ele>800.938</ele>
<time>2020-09-11T14:35:55Z</time>
</trkpt>
<trkpt lat="47.61319" lon="11.030813">
<ele>800.938</ele>
<time>2020-09-11T14:35:56Z</time>
</trkpt>
<trkpt lat="47.613129" lon="11.030821">
<ele>800.938</ele>
<time>2020-09-11T14:35:57Z</time>
</trkpt>
<trkpt lat="47.613068" lon="11.030831">
<ele>800.938</ele>
<time>2020-09-11T14:35:58Z</time>
</trkpt>
<trkpt lat="47.613007" lon="11.030838">
<ele>800.938</ele>
<time>2020-09-11T14:35:59Z</time>
</trkpt>
<trkpt lat="47.612946" lon="11.030845">
<ele>800.938</ele>
<time>2020-09-11T14:36:00Z</time>
</trkpt>
<trkpt lat="47.612885" lon="11.030853">
<ele>800.938</ele>
<time>2020-09-11T14:36:01Z</time>
</trkpt>
<trkpt lat="47.612823" lon="11.03086">
<ele>800.938</ele>
<time>2020-09-11T14:36:02Z</time>
</trkpt>
<trkpt lat="47.612759" lon="11.030865">
<ele>800.938</ele>
<time>2020-09-11T14:36:03Z</time>
</trkpt>
<trkpt lat="47.612698" lon="11.030869">
<ele>800.938</ele>
<time>2020-09-11T14:36:04Z</time>
</trkpt>
<trkpt lat="47.612637" lon="11.030875">
<ele>800.938</ele>
<time>2020-09-11T14:36:05Z</time>
</trkpt>
<trkpt lat="47.612576" lon="11.03088">
<ele>800.938</ele>
<time>2020-09-11T14:36:06Z</time>
</trkpt>
<trkpt lat="47.612514" lon="11.030887">
<ele>800.938</ele>
<time>2020-09-11T14:36:07Z</time>
</trkpt>
<trkpt lat="47.612453" lon="11.03089">
<ele>800.938</ele>
<time>2020-09-11T14:36:08Z</time>
</trkpt>
<trkpt lat="47.612389" lon="11.030894">
<ele>800.938</ele>
<time>2020-09-11T14:36:09Z</time>
</trkpt>
<trkpt lat="47.612328" lon="11.0309">
<ele>800.938</ele>
<time>2020-09-11T14:36:10Z</time>
</trkpt>
<trkpt lat="47.612267" lon="11.030907">
<ele>800.938</ele>
<time>2020-09-11T14:36:11Z</time>
</trkpt>
<trkpt lat="47.612206" lon="11.030913">
<ele>800.938</ele>
<time>2020-09-11T14:36:12Z</time>
</trkpt>
<trkpt lat="47.612144" lon="11.03092">
<ele>800.938</ele>
<time>2020-09-11T14:36:13Z</time>
</trkpt>
<trkpt lat="47.612083" lon="11.030926">
<ele>800.938</ele>
<time>2020-09-11T14:36:14Z</time>
</trkpt>
<trkpt lat="47.612019" lon="11.030928">
<ele>800.938</ele>
<time>2020-09-11T14:36:15Z</time>
</trkpt>
<trkpt lat="47.611958" lon="11.03093">
<ele>800.938</ele>
<time>2020-09-11T14:36:16Z</time>
</trkpt>
<trkpt lat="47.611893" lon="11.030934">
<ele>800.938</ele>
<time>2020-09-11T14:36:17Z</time>
</trkpt>
<trkpt lat="47.611832" lon="11.030942">
<ele>800.938</ele>
<time>2020-09-11T14:36:18Z</time>
</trkpt>
<trkpt lat="47.611771" lon="11.030951">
<ele>800.938</ele>
<time>2020-09-11T14:36:19Z</time>
</trkpt>
<trkpt lat="47.61171" lon="11.030957">
<ele>800.938</ele>
<time>2020-09-11T14:36:20Z</time>
</trkpt>
<trkpt lat="47.611649" lon="11.030965">
<ele>800.938</ele>
<time>2020-09-11T14:36:21Z</time>
</trkpt>
<trkpt lat="47.611584" lon="11.030973">
<ele>800.938</ele>
<time>2020-09-11T14:36:22Z</time>
</trkpt>
<trkpt lat="47.611523" lon="11.030978">
<ele>800.938</ele>
<time>2020-09-11T14:36:23Z</time>
</trkpt>
<trkpt lat="47.611462" lon="11.030984">
<ele>800.938</ele>
<time>2020-09-11T14:36:24Z</time>
</trkpt>
<trkpt lat="47.611401" lon="11.030989">
<ele>800.938</ele>
<time>2020-09-11T14:36:25Z</time>
</trkpt>
<trkpt lat="47.61134" lon="11.030992">
<ele>800.938</ele>
<time>2020-09-11T14:36:26Z</time>
</trkpt>
<trkpt lat="47.611279" lon="11.030998">
<ele>800.938</ele>
<time>2020-09-11T14:36:27Z</time>
</trkpt>
<trkpt lat="47.611214" lon="11.031001">
<ele>800.938</ele>
<time>2020-09-11T14:36:28Z</time>
</trkpt>
<trkpt lat="47.611153" lon="11.031005">
<ele>800.938</ele>
<time>2020-09-11T14:36:29Z</time>
</trkpt>
<trkpt lat="47.611088" lon="11.031008">
<ele>800.938</ele>
<time>2020-09-11T14:36:30Z</time>
</trkpt>
<trkpt lat="47.611027" lon="11.031013">
<ele>800.938</ele>
<time>2020-09-11T14:36:31Z</time>
</trkpt>
<trkpt lat="47.610966" lon="11.031015">
<ele>800.938</ele>
<time>2020-09-11T14:36:32Z</time>
</trkpt>
<trkpt lat="47.610901" lon="11.031013">
<ele>800.938</ele>
<time>2020-09-11T14:36:33Z</time>
</trkpt>
<trkpt lat="47.610844" lon="11.031012">
<ele>800.938</ele>
<time>2020-09-11T14:36:34Z</time>
</trkpt>
<trkpt lat="47.610783" lon="11.031007">
<ele>800.938</ele>
<time>2020-09-11T14:36:35Z</time>
</trkpt>
<trkpt lat="47.610722" lon="11.031001">
<ele>800.938</ele>
<time>2020-09-11T14:36:36Z</time>
</trkpt>
<trkpt lat="47.610661" lon="11.030996">
<ele>800.938</ele>
<time>2020-09-11T14:36:37Z</time>
</trkpt>
<trkpt lat="47.6106" lon="11.030992">
<ele>800.938</ele>
<time>2020-09-11T14:36:38Z</time>
</trkpt>
<trkpt lat="47.610538" lon="11.030982">
<ele>800.938</ele>
<time>2020-09-11T14:36:39Z</time>
</trkpt>
<trkpt lat="47.610477" lon="11.03097">
<ele>800.938</ele>
<time>2020-09-11T14:36:40Z</time>
</trkpt>
<trkpt lat="47.610413" lon="11.030959">
<ele>800.938</ele>
<time>2020-09-11T14:36:41Z</time>
</trkpt>
<trkpt lat="47.610352" lon="11.030947">
<ele>800.938</ele>
<time>2020-09-11T14:36:42Z</time>
</trkpt>
<trkpt lat="47.610291" lon="11.030934">
<ele>800.938</ele>
<time>2020-09-11T14:36:43Z</time>
</trkpt>
<trkpt lat="47.610229" lon="11.030924">
<ele>800.938</ele>
<time>2020-09-11T14:36:44Z</time>
</trkpt>
<trkpt lat="47.610168" lon="11.03091">
<ele>800.938</ele>
<time>2020-09-11T14:36:45Z</time>
</trkpt>
<trkpt lat="47.610107" lon="11.030894">
<ele>800.938</ele>
<time>2020-09-11T14:36:46Z</time>
</trkpt>
<trkpt lat="47.610046" lon="11.03088">
<ele>800.938</ele>
<time>2020-09-11T14:36:47Z</time>
</trkpt>
<trkpt lat="47.609989" lon="11.030865">
<ele>801.177</ele>
<time>2020-09-11T14:36:48Z</time>
</trkpt>
<trkpt lat="47.609928" lon="11.03085">
<ele>801.377</ele>
<time>2020-09-11T14:36:49Z</time>
</trkpt>
<trkpt lat="47.609871" lon="11.030837">
<ele>801.543</ele>
<time>2020-09-11T14:36:50Z</time>
</trkpt>
<trkpt lat="47.60981" lon="11.030823">
<ele>801.676</ele>
<time>2020-09-11T14:36:51Z</time>
</trkpt>
<trkpt lat="47.609753" lon="11.030807">
<ele>801.779</ele>
<time>2020-09-11T14:36:52Z</time>
</trkpt>
<trkpt lat="47.609692" lon="11.030789">
<ele>801.854</ele>
<time>2020-09-11T14:36:53Z</time>
</trkpt>
<trkpt lat="47.609631" lon="11.030773">
<ele>801.902</ele>
<time>2020-09-11T14:36:54Z</time>
</trkpt>
<trkpt lat="47.609566" lon="11.030758">
<ele>801.926</ele>
<time>2020-09-11T14:36:55Z</time>
</trkpt>
<trkpt lat="47.609509" lon="11.030742">
<ele>801.926</ele>
<time>2020-09-11T14:36:56Z</time>
</trkpt>
<trkpt lat="47.609451" lon="11.030725">
<ele>801.926</ele>
<time>2020-09-11T14:36:57Z</time>
</trkpt>
<trkpt lat="47.609394" lon="11.030712">
<ele>801.926</ele>
<time>2020-09-11T14:36:58Z</time>
</trkpt>
<trkpt lat="47.609337" lon="11.0307">
<ele>801.926</ele>
<time>2020-09-11T14:36:59Z</time>
</trkpt>
<trkpt lat="47.609272" lon="11.03069">
<ele>801.925</ele>
<time>2020-09-11T14:37:00Z</time>
</trkpt>
<trkpt lat="47.609215" lon="11.030681">
<ele>801.926</ele>
<time>2020-09-11T14:37:01Z</time>
</trkpt>
<trkpt lat="47.609154" lon="11.030674">
<ele>801.926</ele>
<time>2020-09-11T14:37:02Z</time>
</trkpt>
<trkpt lat="47.609097" lon="11.030666">
<ele>801.925</ele>
<time>2020-09-11T14:37:03Z</time>
</trkpt>
<trkpt lat="47.609035" lon="11.030662">
<ele>801.925</ele>
<time>2020-09-11T14:37:04Z</time>
</trkpt>
<trkpt lat="47.608974" lon="11.030658">
<ele>801.926</ele>
<time>2020-09-11T14:37:05Z</time>
</trkpt>
<trkpt lat="47.608913" lon="11.030658">
<ele>801.926</ele>
<time>2020-09-11T14:37:06Z</time>
</trkpt>
<trkpt lat="47.608849" lon="11.030662">
<ele>801.926</ele>
<time>2020-09-11T14:37:07Z</time>
</trkpt>
<trkpt lat="47.608788" lon="11.030665">
<ele>802.189</ele>
<time>2020-09-11T14:37:08Z</time>
</trkpt>
<trkpt lat="47.60873" lon="11.030674">
<ele>802.409</ele>
<time>2020-09-11T14:37:09Z</time>
</trkpt>
<trkpt lat="47.608669" lon="11.030683">
<ele>802.59</ele>
<time>2020-09-11T14:37:10Z</time>
</trkpt>
<trkpt lat="47.608612" lon="11.030695">
<ele>802.734</ele>
<time>2020-09-11T14:37:11Z</time>
</trkpt>
<trkpt lat="47.608551" lon="11.03071">
<ele>802.845</ele>
<time>2020-09-11T14:37:12Z</time>
</trkpt>
<trkpt lat="47.608486" lon="11.030725">
<ele>802.926</ele>
<time>2020-09-11T14:37:13Z</time>
</trkpt>
<trkpt lat="47.608425" lon="11.030744">
<ele>802.978</ele>
<time>2020-09-11T14:37:14Z</time>
</trkpt>
<trkpt lat="47.608364" lon="11.030764">
<ele>803.003</ele>
<time>2020-09-11T14:37:15Z</time>
</trkpt>
<trkpt lat="47.608303" lon="11.030788">
<ele>803.003</ele>
<time>2020-09-11T14:37:16Z</time>
</trkpt>
<trkpt lat="47.608242" lon="11.030815">
<ele>803.003</ele>
<time>2020-09-11T14:37:17Z</time>
</trkpt>
<trkpt lat="47.608185" lon="11.030842">
<ele>803.003</ele>
<time>2020-09-11T14:37:18Z</time>
</trkpt>
<trkpt lat="47.608128" lon="11.030869">
<ele>803.003</ele>
<time>2020-09-11T14:37:19Z</time>
</trkpt>
<trkpt lat="47.608063" lon="11.0309">
<ele>803.003</ele>
<time>2020-09-11T14:37:20Z</time>
</trkpt>
<trkpt lat="47.608006" lon="11.030934">
<ele>803.003</ele>
<time>2020-09-11T14:37:21Z</time>
</trkpt>
<trkpt lat="47.607944" lon="11.030972">
<ele>803.003</ele>
<time>2020-09-11T14:37:22Z</time>
</trkpt>
<trkpt lat="47.607887" lon="11.031008">
<ele>803.003</ele>
<time>2020-09-11T14:37:23Z</time>
</trkpt>
<trkpt lat="47.60783" lon="11.031049">
<ele>803.003</ele>
<time>2020-09-11T14:37:24Z</time>
</trkpt>
<trkpt lat="47.607773" lon="11.031089">
<ele>803.003</ele>
<time>2020-09-11T14:37:25Z</time>
</trkpt>
<trkpt lat="47.607719" lon="11.031134">
<ele>803.003</ele>
<time>2020-09-11T14:37:26Z</time>
</trkpt>
<trkpt lat="47.607666" lon="11.031178">
<ele>803.003</ele>
<time>2020-09-11T14:37:27Z</time>
</trkpt>
<trkpt lat="47.607609" lon="11.031227">
<ele>803.003</ele>
<time>2020-09-11T14:37:28Z</time>
</trkpt>
<trkpt lat="47.607555" lon="11.031277">
<ele>803.003</ele>
<time>2020-09-11T14:37:29Z</time>
</trkpt>
<trkpt lat="47.607506" lon="11.031326">
<ele>803.003</ele>
<time>2020-09-11T14:37:30Z</time>
</trkpt>
<trkpt lat="47.607452" lon="11.031378">
<ele>803.003</ele>
<time>2020-09-11T14:37:31Z</time>
</trkpt>
<trkpt lat="47.607399" lon="11.031435">
<ele>803.248</ele>
<time>2020-09-11T14:37:32Z</time>
</trkpt>
<trkpt lat="47.607346" lon="11.031493">
<ele>803.439</ele>
<time>2020-09-11T14:37:33Z</time>
</trkpt>
<trkpt lat="47.607296" lon="11.031553">
<ele>803.586</ele>
<time>2020-09-11T14:37:34Z</time>
</trkpt>
<trkpt lat="47.607246" lon="11.031613">
<ele>803.694</ele>
<time>2020-09-11T14:37:35Z</time>
</trkpt>
<trkpt lat="47.607197" lon="11.031676">
<ele>803.771</ele>
<time>2020-09-11T14:37:36Z</time>
</trkpt>
<trkpt lat="47.607147" lon="11.031741">
<ele>803.827</ele>
<time>2020-09-11T14:37:37Z</time>
</trkpt>
<trkpt lat="47.607101" lon="11.031808">
<ele>803.878</ele>
<time>2020-09-11T14:37:38Z</time>
</trkpt>
<trkpt lat="47.607052" lon="11.031877">
<ele>803.902</ele>
<time>2020-09-11T14:37:39Z</time>
</trkpt>
<trkpt lat="47.607006" lon="11.031946">
<ele>803.902</ele>
<time>2020-09-11T14:37:40Z</time>
</trkpt>
<trkpt lat="47.606964" lon="11.032019">
<ele>803.902</ele>
<time>2020-09-11T14:37:41Z</time>
</trkpt>
<trkpt lat="47.606922" lon="11.032092">
<ele>803.902</ele>
<time>2020-09-11T14:37:42Z</time>
</trkpt>
<trkpt lat="47.606884" lon="11.032166">
<ele>803.902</ele>
<time>2020-09-11T14:37:43Z</time>
</trkpt>
<trkpt lat="47.606842" lon="11.03224">
<ele>803.902</ele>
<time>2020-09-11T14:37:44Z</time>
</trkpt>
<trkpt lat="47.606808" lon="11.032317">
<ele>803.902</ele>
<time>2020-09-11T14:37:45Z</time>
</trkpt>
<trkpt lat="47.606766" lon="11.032392">
<ele>803.902</ele>
<time>2020-09-11T14:37:46Z</time>
</trkpt>
<trkpt lat="47.606731" lon="11.032472">
<ele>803.902</ele>
<time>2020-09-11T14:37:47Z</time>
</trkpt>
<trkpt lat="47.606693" lon="11.03255">
<ele>803.902</ele>
<time>2020-09-11T14:37:48Z</time>
</trkpt>
<trkpt lat="47.606659" lon="11.03263">
<ele>803.902</ele>
<time>2020-09-11T14:37:49Z</time>
</trkpt>
<trkpt lat="47.606625" lon="11.032711">
<ele>803.902</ele>
<time>2020-09-11T14:37:50Z</time>
</trkpt>
<trkpt lat="47.606586" lon="11.032793">
<ele>803.902</ele>
<time>2020-09-11T14:37:51Z</time>
</trkpt>
<trkpt lat="47.606552" lon="11.032876">
<ele>803.655</ele>
<time>2020-09-11T14:37:52Z</time>
</trkpt>
<trkpt lat="47.606514" lon="11.03296">
<ele>803.464</ele>
<time>2020-09-11T14:37:53Z</time>
</trkpt>
<trkpt lat="47.60648" lon="11.033047">
<ele>803.315</ele>
<time>2020-09-11T14:37:54Z</time>
</trkpt>
<trkpt lat="47.606438" lon="11.033132">
<ele>803.21</ele>
<time>2020-09-11T14:37:55Z</time>
</trkpt>
<trkpt lat="47.606403" lon="11.033216">
<ele>803.132</ele>
<time>2020-09-11T14:37:56Z</time>
</trkpt>
<trkpt lat="47.606365" lon="11.033305">
<ele>803.077</ele>
<time>2020-09-11T14:37:57Z</time>
</trkpt>
<trkpt lat="47.606327" lon="11.033392">
<ele>803.027</ele>
<time>2020-09-11T14:37:58Z</time>
</trkpt>
<trkpt lat="47.606285" lon="11.033478">
<ele>803.003</ele>
<time>2020-09-11T14:37:59Z</time>
</trkpt>
<trkpt lat="47.606247" lon="11.033566">
<ele>803.003</ele>
<time>2020-09-11T14:38:00Z</time>
</trkpt>
<trkpt lat="47.606209" lon="11.033653">
<ele>803.003</ele>
<time>2020-09-11T14:38:01Z</time>
</trkpt>
<trkpt lat="47.606174" lon="11.033742">
<ele>803.003</ele>
<time>2020-09-11T14:38:02Z</time>
</trkpt>
<trkpt lat="47.606133" lon="11.033832">
<ele>803.003</ele>
<time>2020-09-11T14:38:03Z</time>
</trkpt>
<trkpt lat="47.606094" lon="11.033923">
<ele>803.003</ele>
<time>2020-09-11T14:38:04Z</time>
</trkpt>
<trkpt lat="47.60606" lon="11.034012">
<ele>803.003</ele>
<time>2020-09-11T14:38:05Z</time>
</trkpt>
<trkpt lat="47.606026" lon="11.034101">
<ele>803.003</ele>
<time>2020-09-11T14:38:06Z</time>
</trkpt>
<trkpt lat="47.605991" lon="11.034192">
<ele>803.003</ele>
<time>2020-09-11T14:38:07Z</time>
</trkpt>
<trkpt lat="47.605957" lon="11.034282">
<ele>803.003</ele>
<time>2020-09-11T14:38:08Z</time>
</trkpt>
<trkpt lat="47.605923" lon="11.034371">
<ele>803.003</ele>
<time>2020-09-11T14:38:09Z</time>
</trkpt>
<trkpt lat="47.605888" lon="11.034464">
<ele>803.003</ele>
<time>2020-09-11T14:38:10Z</time>
</trkpt>
<trkpt lat="47.605854" lon="11.034554">
<ele>803.003</ele>
<time>2020-09-11T14:38:11Z</time>
</trkpt>
<trkpt lat="47.605816" lon="11.034642">
<ele>803.003</ele>
<time>2020-09-11T14:38:12Z</time>
</trkpt>
<trkpt lat="47.605782" lon="11.034728">
<ele>803.003</ele>
<time>2020-09-11T14:38:13Z</time>
</trkpt>
<trkpt lat="47.605751" lon="11.034817">
<ele>803.003</ele>
<time>2020-09-11T14:38:14Z</time>
</trkpt>
<trkpt lat="47.605717" lon="11.034904">
<ele>803.003</ele>
<time>2020-09-11T14:38:15Z</time>
</trkpt>
<trkpt lat="47.605682" lon="11.034993">
<ele>803.003</ele>
<time>2020-09-11T14:38:16Z</time>
</trkpt>
<trkpt lat="47.605648" lon="11.03508">
<ele>803.003</ele>
<time>2020-09-11T14:38:17Z</time>
</trkpt>
<trkpt lat="47.605614" lon="11.035165">
<ele>803.003</ele>
<time>2020-09-11T14:38:18Z</time>
</trkpt>
<trkpt lat="47.605579" lon="11.035252">
<ele>803.003</ele>
<time>2020-09-11T14:38:19Z</time>
</trkpt>
<trkpt lat="47.605549" lon="11.035338">
<ele>803.003</ele>
<time>2020-09-11T14:38:20Z</time>
</trkpt>
<trkpt lat="47.605515" lon="11.035423">
<ele>803.003</ele>
<time>2020-09-11T14:38:21Z</time>
</trkpt>
<trkpt lat="47.60548" lon="11.035507">
<ele>803.003</ele>
<time>2020-09-11T14:38:22Z</time>
</trkpt>
<trkpt lat="47.605446" lon="11.035588">
<ele>803.003</ele>
<time>2020-09-11T14:38:23Z</time>
</trkpt>
<trkpt lat="47.605415" lon="11.03567">
<ele>803.003</ele>
<time>2020-09-11T14:38:24Z</time>
</trkpt>
<trkpt lat="47.605377" lon="11.03575">
<ele>803.003</ele>
<time>2020-09-11T14:38:25Z</time>
</trkpt>
<trkpt lat="47.605339" lon="11.035832">
<ele>803.003</ele>
<time>2020-09-11T14:38:26Z</time>
</trkpt>
<trkpt lat="47.605301" lon="11.03591">
<ele>803.003</ele>
<time>2020-09-11T14:38:27Z</time>
</trkpt>
<trkpt lat="47.605263" lon="11.035992">
<ele>803.222</ele>
<time>2020-09-11T14:38:28Z</time>
</trkpt>
<trkpt lat="47.605225" lon="11.036069">
<ele>803.405</ele>
<time>2020-09-11T14:38:29Z</time>
</trkpt>
<trkpt lat="47.605183" lon="11.036147">
<ele>803.557</ele>
<time>2020-09-11T14:38:30Z</time>
</trkpt>
<trkpt lat="47.605137" lon="11.036223">
<ele>803.679</ele>
<time>2020-09-11T14:38:31Z</time>
</trkpt>
<trkpt lat="47.605095" lon="11.036298">
<ele>803.772</ele>
<time>2020-09-11T14:38:32Z</time>
</trkpt>
<trkpt lat="47.605049" lon="11.036375">
<ele>803.838</ele>
<time>2020-09-11T14:38:33Z</time>
</trkpt>
<trkpt lat="47.605" lon="11.03645">
<ele>803.881</ele>
<time>2020-09-11T14:38:34Z</time>
</trkpt>
<trkpt lat="47.60495" lon="11.036524">
<ele>803.901</ele>
<time>2020-09-11T14:38:35Z</time>
</trkpt>
<trkpt lat="47.6049" lon="11.036595">
<ele>803.902</ele>
<time>2020-09-11T14:38:36Z</time>
</trkpt>
<trkpt lat="47.604855" lon="11.036665">
<ele>803.902</ele>
<time>2020-09-11T14:38:37Z</time>
</trkpt>
<trkpt lat="47.604801" lon="11.036736">
<ele>803.901</ele>
<time>2020-09-11T14:38:38Z</time>
</trkpt>
<trkpt lat="47.604744" lon="11.036805">
<ele>803.902</ele>
<time>2020-09-11T14:38:39Z</time>
</trkpt>
<trkpt lat="47.604691" lon="11.036874">
<ele>803.902</ele>
<time>2020-09-11T14:38:40Z</time>
</trkpt>
<trkpt lat="47.604637" lon="11.036942">
<ele>803.901</ele>
<time>2020-09-11T14:38:41Z</time>
</trkpt>
<trkpt lat="47.60458" lon="11.037008">
<ele>803.902</ele>
<time>2020-09-11T14:38:42Z</time>
</trkpt>
<trkpt lat="47.604523" lon="11.037075">
<ele>803.901</ele>
<time>2020-09-11T14:38:43Z</time>
</trkpt>
<trkpt lat="47.604465" lon="11.03714">
<ele>803.902</ele>
<time>2020-09-11T14:38:44Z</time>
</trkpt>
<trkpt lat="47.604408" lon="11.037207">
<ele>803.902</ele>
<time>2020-09-11T14:38:45Z</time>
</trkpt>
<trkpt lat="47.604355" lon="11.037273">
<ele>803.902</ele>
<time>2020-09-11T14:38:46Z</time>
</trkpt>
<trkpt lat="47.604298" lon="11.03734">
<ele>803.902</ele>
<time>2020-09-11T14:38:47Z</time>
</trkpt>
<trkpt lat="47.604244" lon="11.037406">
<ele>803.901</ele>
<time>2020-09-11T14:38:48Z</time>
</trkpt>
<trkpt lat="47.604187" lon="11.03747">
<ele>803.902</ele>
<time>2020-09-11T14:38:49Z</time>
</trkpt>
<trkpt lat="47.604137" lon="11.037534">
<ele>803.902</ele>
<time>2020-09-11T14:38:50Z</time>
</trkpt>
<trkpt lat="47.604084" lon="11.037601">
<ele>803.902</ele>
<time>2020-09-11T14:38:51Z</time>
</trkpt>
<trkpt lat="47.604031" lon="11.037668">
<ele>803.902</ele>
<time>2020-09-11T14:38:52Z</time>
</trkpt>
<trkpt lat="47.603981" lon="11.037739">
<ele>803.902</ele>
<time>2020-09-11T14:38:53Z</time>
</trkpt>
<trkpt lat="47.603924" lon="11.03781">
<ele>803.902</ele>
<time>2020-09-11T14:38:54Z</time>
</trkpt>
<trkpt lat="47.603878" lon="11.03788">
<ele>803.902</ele>
<time>2020-09-11T14:38:55Z</time>
</trkpt>
<trkpt lat="47.603828" lon="11.037949">
<ele>803.902</ele>
<time>2020-09-11T14:38:56Z</time>
</trkpt>
<trkpt lat="47.603783" lon="11.038017">
<ele>803.902</ele>
<time>2020-09-11T14:38:57Z</time>
</trkpt>
<trkpt lat="47.603741" lon="11.038091">
<ele>803.902</ele>
<time>2020-09-11T14:38:58Z</time>
</trkpt>
<trkpt lat="47.603695" lon="11.038164">
<ele>803.902</ele>
<time>2020-09-11T14:38:59Z</time>
</trkpt>
<trkpt lat="47.603657" lon="11.038237">
<ele>803.902</ele>
<time>2020-09-11T14:39:00Z</time>
</trkpt>
<trkpt lat="47.603619" lon="11.038311">
<ele>803.902</ele>
<time>2020-09-11T14:39:01Z</time>
</trkpt>
<trkpt lat="47.60358" lon="11.038384">
<ele>803.902</ele>
<time>2020-09-11T14:39:02Z</time>
</trkpt>
<trkpt lat="47.603546" lon="11.03846">
<ele>803.902</ele>
<time>2020-09-11T14:39:03Z</time>
</trkpt>
<trkpt lat="47.603508" lon="11.03854">
<ele>803.902</ele>
<time>2020-09-11T14:39:04Z</time>
</trkpt>
<trkpt lat="47.603477" lon="11.038618">
<ele>803.902</ele>
<time>2020-09-11T14:39:05Z</time>
</trkpt>
<trkpt lat="47.603443" lon="11.038698">
<ele>803.902</ele>
<time>2020-09-11T14:39:06Z</time>
</trkpt>
<trkpt lat="47.603416" lon="11.038778">
<ele>804.179</ele>
<time>2020-09-11T14:39:07Z</time>
</trkpt>
<trkpt lat="47.60339" lon="11.038858">
<ele>804.443</ele>
<time>2020-09-11T14:39:08Z</time>
</trkpt>
<trkpt lat="47.603363" lon="11.038937">
<ele>804.66</ele>
<time>2020-09-11T14:39:09Z</time>
</trkpt>
<trkpt lat="47.603336" lon="11.039015">
<ele>804.834</ele>
<time>2020-09-11T14:39:10Z</time>
</trkpt>
<trkpt lat="47.603313" lon="11.039099">
<ele>804.968</ele>
<time>2020-09-11T14:39:11Z</time>
</trkpt>
<trkpt lat="47.603294" lon="11.039175">
<ele>805.063</ele>
<time>2020-09-11T14:39:12Z</time>
</trkpt>
<trkpt lat="47.603271" lon="11.039253">
<ele>805.128</ele>
<time>2020-09-11T14:39:13Z</time>
</trkpt>
<trkpt lat="47.603256" lon="11.039335">
<ele>805.159</ele>
<time>2020-09-11T14:39:14Z</time>
</trkpt>
<trkpt lat="47.603241" lon="11.039417">
<ele>805.159</ele>
<time>2020-09-11T14:39:15Z</time>
</trkpt>
<trkpt lat="47.603222" lon="11.039496">
<ele>805.159</ele>
<time>2020-09-11T14:39:16Z</time>
</trkpt>
<trkpt lat="47.603207" lon="11.039582">
<ele>805.159</ele>
<time>2020-09-11T14:39:17Z</time>
</trkpt>
<trkpt lat="47.603195" lon="11.039664">
<ele>805.159</ele>
<time>2020-09-11T14:39:18Z</time>
</trkpt>
<trkpt lat="47.603184" lon="11.039748">
<ele>805.159</ele>
<time>2020-09-11T14:39:19Z</time>
</trkpt>
<trkpt lat="47.603172" lon="11.039834">
<ele>805.446</ele>
<time>2020-09-11T14:39:20Z</time>
</trkpt>
<trkpt lat="47.603165" lon="11.03992">
<ele>805.67</ele>
<time>2020-09-11T14:39:21Z</time>
</trkpt>
<trkpt lat="47.603157" lon="11.04001">
<ele>805.838</ele>
<time>2020-09-11T14:39:22Z</time>
</trkpt>
<trkpt lat="47.603149" lon="11.040098">
<ele>805.962</ele>
<time>2020-09-11T14:39:23Z</time>
</trkpt>
<trkpt lat="47.603146" lon="11.040188">
<ele>806.047</ele>
<time>2020-09-11T14:39:24Z</time>
</trkpt>
<trkpt lat="47.603142" lon="11.040278">
<ele>806.099</ele>
<time>2020-09-11T14:39:25Z</time>
</trkpt>
<trkpt lat="47.603142" lon="11.04037">
<ele>806.125</ele>
<time>2020-09-11T14:39:26Z</time>
</trkpt>
<trkpt lat="47.603138" lon="11.040462">
<ele>806.147</ele>
<time>2020-09-11T14:39:27Z</time>
</trkpt>
<trkpt lat="47.603138" lon="11.040553">
<ele>806.147</ele>
<time>2020-09-11T14:39:28Z</time>
</trkpt>
<trkpt lat="47.603138" lon="11.040647">
<ele>806.147</ele>
<time>2020-09-11T14:39:29Z</time>
</trkpt>
<trkpt lat="47.603142" lon="11.040741">
<ele>806.147</ele>
<time>2020-09-11T14:39:30Z</time>
</trkpt>
<trkpt lat="47.603142" lon="11.040838">
<ele>806.147</ele>
<time>2020-09-11T14:39:31Z</time>
</trkpt>
<trkpt lat="47.603146" lon="11.040936">
<ele>805.9</ele>
<time>2020-09-11T14:39:32Z</time>
</trkpt>
<trkpt lat="47.603153" lon="11.041032">
<ele>805.706</ele>
<time>2020-09-11T14:39:33Z</time>
</trkpt>
<trkpt lat="47.603161" lon="11.04113">
<ele>805.56</ele>
<time>2020-09-11T14:39:34Z</time>
</trkpt>
<trkpt lat="47.603172" lon="11.041235">
<ele>805.454</ele>
<time>2020-09-11T14:39:35Z</time>
</trkpt>
<trkpt lat="47.603176" lon="11.041342">
<ele>805.376</ele>
<time>2020-09-11T14:39:36Z</time>
</trkpt>
<trkpt lat="47.603188" lon="11.041449">
<ele>805.321</ele>
<time>2020-09-11T14:39:37Z</time>
</trkpt>
<trkpt lat="47.603191" lon="11.04156">
<ele>805.024</ele>
<time>2020-09-11T14:39:38Z</time>
</trkpt>
<trkpt lat="47.603195" lon="11.041674">
<ele>804.795</ele>
<time>2020-09-11T14:39:39Z</time>
</trkpt>
<trkpt lat="47.603203" lon="11.041786">
<ele>804.628</ele>
<time>2020-09-11T14:39:40Z</time>
</trkpt>
<trkpt lat="47.603199" lon="11.041902">
<ele>804.497</ele>
<time>2020-09-11T14:39:41Z</time>
</trkpt>
<trkpt lat="47.603195" lon="11.042013">
<ele>804.399</ele>
<time>2020-09-11T14:39:42Z</time>
</trkpt>
<trkpt lat="47.603191" lon="11.042124">
<ele>804.329</ele>
<time>2020-09-11T14:39:43Z</time>
</trkpt>
<trkpt lat="47.60318" lon="11.042232">
<ele>804.287</ele>
<time>2020-09-11T14:39:44Z</time>
</trkpt>
<trkpt lat="47.603172" lon="11.042336">
<ele>804.022</ele>
<time>2020-09-11T14:39:45Z</time>
</trkpt>
<trkpt lat="47.603142" lon="11.042434">
<ele>803.823</ele>
<time>2020-09-11T14:39:46Z</time>
</trkpt>
<trkpt lat="47.603104" lon="11.042518">
<ele>803.689</ele>
<time>2020-09-11T14:39:47Z</time>
</trkpt>
<trkpt lat="47.603062" lon="11.0426">
<ele>803.545</ele>
<time>2020-09-11T14:39:48Z</time>
</trkpt>
<trkpt lat="47.603035" lon="11.042693">
<ele>803.434</ele>
<time>2020-09-11T14:39:49Z</time>
</trkpt>
<trkpt lat="47.603016" lon="11.042786">
<ele>803.352</ele>
<time>2020-09-11T14:39:50Z</time>
</trkpt>
<trkpt lat="47.603001" lon="11.042876">
<ele>803.301</ele>
<time>2020-09-11T14:39:51Z</time>
</trkpt>
<trkpt lat="47.602982" lon="11.04297">
<ele>803.06</ele>
<time>2020-09-11T14:39:52Z</time>
</trkpt>
<trkpt lat="47.602962" lon="11.043062">
<ele>802.843</ele>
<time>2020-09-11T14:39:53Z</time>
</trkpt>
<trkpt lat="47.602943" lon="11.04315">
<ele>802.697</ele>
<time>2020-09-11T14:39:54Z</time>
</trkpt>
<trkpt lat="47.602921" lon="11.043237">
<ele>802.59</ele>
<time>2020-09-11T14:39:55Z</time>
</trkpt>
<trkpt lat="47.602905" lon="11.043324">
<ele>802.51</ele>
<time>2020-09-11T14:39:56Z</time>
</trkpt>
<trkpt lat="47.602879" lon="11.043412">
<ele>802.462</ele>
<time>2020-09-11T14:39:57Z</time>
</trkpt>
<trkpt lat="47.602859" lon="11.0435">
<ele>802.63</ele>
<time>2020-09-11T14:39:58Z</time>
</trkpt>
<trkpt lat="47.60284" lon="11.043591">
<ele>802.787</ele>
<time>2020-09-11T14:39:59Z</time>
</trkpt>
<trkpt lat="47.602814" lon="11.043682">
<ele>802.925</ele>
<time>2020-09-11T14:40:00Z</time>
</trkpt>
<trkpt lat="47.602791" lon="11.043769">
<ele>803.023</ele>
<time>2020-09-11T14:40:01Z</time>
</trkpt>
<trkpt lat="47.602764" lon="11.043853">
<ele>803.37</ele>
<time>2020-09-11T14:40:02Z</time>
</trkpt>
<trkpt lat="47.602737" lon="11.043935">
<ele>803.646</ele>
<time>2020-09-11T14:40:03Z</time>
</trkpt>
<trkpt lat="47.602715" lon="11.044012">
<ele>803.858</ele>
<time>2020-09-11T14:40:04Z</time>
</trkpt>
<trkpt lat="47.602688" lon="11.044086">
<ele>804.012</ele>
<time>2020-09-11T14:40:05Z</time>
</trkpt>
<trkpt lat="47.602669" lon="11.044163">
<ele>804.113</ele>
<time>2020-09-11T14:40:06Z</time>
</trkpt>
<trkpt lat="47.602646" lon="11.044242">
<ele>804.176</ele>
<time>2020-09-11T14:40:07Z</time>
</trkpt>
<trkpt lat="47.602619" lon="11.044318">
<ele>804.232</ele>
<time>2020-09-11T14:40:08Z</time>
</trkpt>
<trkpt lat="47.602592" lon="11.044399">
<ele>804.261</ele>
<time>2020-09-11T14:40:09Z</time>
</trkpt>
<trkpt lat="47.60257" lon="11.04448">
<ele>804.261</ele>
<time>2020-09-11T14:40:10Z</time>
</trkpt>
<trkpt lat="47.602539" lon="11.044565">
<ele>804.261</ele>
<time>2020-09-11T14:40:11Z</time>
</trkpt>
<trkpt lat="47.602509" lon="11.04465">
<ele>804.261</ele>
<time>2020-09-11T14:40:12Z</time>
</trkpt>
<trkpt lat="47.602478" lon="11.044732">
<ele>804.261</ele>
<time>2020-09-11T14:40:13Z</time>
</trkpt>
<trkpt lat="47.602448" lon="11.044818">
<ele>804.261</ele>
<time>2020-09-11T14:40:14Z</time>
</trkpt>
<trkpt lat="47.602417" lon="11.044904">
<ele>804.261</ele>
<time>2020-09-11T14:40:15Z</time>
</trkpt>
<trkpt lat="47.602386" lon="11.044987">
<ele>804.261</ele>
<time>2020-09-11T14:40:16Z</time>
</trkpt>
<trkpt lat="47.602356" lon="11.045068">
<ele>804.039</ele>
<time>2020-09-11T14:40:17Z</time>
</trkpt>
<trkpt lat="47.602322" lon="11.045149">
<ele>803.831</ele>
<time>2020-09-11T14:40:18Z</time>
</trkpt>
<trkpt lat="47.602287" lon="11.045227">
<ele>803.663</ele>
<time>2020-09-11T14:40:19Z</time>
</trkpt>
<trkpt lat="47.602257" lon="11.045301">
<ele>803.527</ele>
<time>2020-09-11T14:40:20Z</time>
</trkpt>
<trkpt lat="47.602222" lon="11.045375">
<ele>803.422</ele>
<time>2020-09-11T14:40:21Z</time>
</trkpt>
<trkpt lat="47.602188" lon="11.045448">
<ele>803.347</ele>
<time>2020-09-11T14:40:22Z</time>
</trkpt>
<trkpt lat="47.602154" lon="11.045524">
<ele>803.297</ele>
<time>2020-09-11T14:40:23Z</time>
</trkpt>
<trkpt lat="47.602119" lon="11.0456">
<ele>803.273</ele>
<time>2020-09-11T14:40:24Z</time>
</trkpt>
<trkpt lat="47.602085" lon="11.045675">
<ele>803.273</ele>
<time>2020-09-11T14:40:25Z</time>
</trkpt>
<trkpt lat="47.602047" lon="11.045749">
<ele>803.273</ele>
<time>2020-09-11T14:40:26Z</time>
</trkpt>
<trkpt lat="47.602013" lon="11.045818">
<ele>803.273</ele>
<time>2020-09-11T14:40:27Z</time>
</trkpt>
<trkpt lat="47.601974" lon="11.045889">
<ele>803.273</ele>
<time>2020-09-11T14:40:28Z</time>
</trkpt>
<trkpt lat="47.601936" lon="11.045959">
<ele>803.273</ele>
<time>2020-09-11T14:40:29Z</time>
</trkpt>
<trkpt lat="47.601902" lon="11.046029">
<ele>803.273</ele>
<time>2020-09-11T14:40:30Z</time>
</trkpt>
<trkpt lat="47.601868" lon="11.046097">
<ele>803.273</ele>
<time>2020-09-11T14:40:31Z</time>
</trkpt>
<trkpt lat="47.601833" lon="11.046167">
<ele>803.611</ele>
<time>2020-09-11T14:40:32Z</time>
</trkpt>
<trkpt lat="47.601795" lon="11.046237">
<ele>803.878</ele>
<time>2020-09-11T14:40:33Z</time>
</trkpt>
<trkpt lat="47.601753" lon="11.046306">
<ele>804.082</ele>
<time>2020-09-11T14:40:34Z</time>
</trkpt>
<trkpt lat="47.601715" lon="11.046373">
<ele>804.235</ele>
<time>2020-09-11T14:40:35Z</time>
</trkpt>
<trkpt lat="47.601673" lon="11.046444">
<ele>804.346</ele>
<time>2020-09-11T14:40:36Z</time>
</trkpt>
<trkpt lat="47.601635" lon="11.04651">
<ele>804.425</ele>
<time>2020-09-11T14:40:37Z</time>
</trkpt>
<trkpt lat="47.601593" lon="11.046576">
<ele>804.496</ele>
<time>2020-09-11T14:40:38Z</time>
</trkpt>
<trkpt lat="47.601547" lon="11.046637">
<ele>804.53</ele>
<time>2020-09-11T14:40:39Z</time>
</trkpt>
<trkpt lat="47.601505" lon="11.0467">
<ele>804.53</ele>
<time>2020-09-11T14:40:40Z</time>
</trkpt>
<trkpt lat="47.601463" lon="11.046762">
<ele>804.53</ele>
<time>2020-09-11T14:40:41Z</time>
</trkpt>
<trkpt lat="47.601414" lon="11.046825">
<ele>804.53</ele>
<time>2020-09-11T14:40:42Z</time>
</trkpt>
<trkpt lat="47.601376" lon="11.046885">
<ele>804.53</ele>
<time>2020-09-11T14:40:43Z</time>
</trkpt>
<trkpt lat="47.60133" lon="11.046943">
<ele>804.53</ele>
<time>2020-09-11T14:40:44Z</time>
</trkpt>
<trkpt lat="47.601284" lon="11.047">
<ele>804.53</ele>
<time>2020-09-11T14:40:45Z</time>
</trkpt>
<trkpt lat="47.601238" lon="11.047056">
<ele>804.53</ele>
<time>2020-09-11T14:40:46Z</time>
</trkpt>
<trkpt lat="47.601192" lon="11.047111">
<ele>804.729</ele>
<time>2020-09-11T14:40:47Z</time>
</trkpt>
<trkpt lat="47.601154" lon="11.047163">
<ele>804.915</ele>
<time>2020-09-11T14:40:48Z</time>
</trkpt>
<trkpt lat="47.601112" lon="11.047215">
<ele>805.069</ele>
<time>2020-09-11T14:40:49Z</time>
</trkpt>
<trkpt lat="47.60107" lon="11.047267">
<ele>805.192</ele>
<time>2020-09-11T14:40:50Z</time>
</trkpt>
<trkpt lat="47.601032" lon="11.04732">
<ele>805.275</ele>
<time>2020-09-11T14:40:51Z</time>
</trkpt>
<trkpt lat="47.60099" lon="11.047372">
<ele>805.586</ele>
<time>2020-09-11T14:40:52Z</time>
</trkpt>
<trkpt lat="47.600956" lon="11.047422">
<ele>805.836</ele>
<time>2020-09-11T14:40:53Z</time>
</trkpt>
<trkpt lat="47.600914" lon="11.04747">
<ele>806.027</ele>
<time>2020-09-11T14:40:54Z</time>
</trkpt>
<trkpt lat="47.600876" lon="11.047517">
<ele>806.183</ele>
<time>2020-09-11T14:40:55Z</time>
</trkpt>
<trkpt lat="47.600834" lon="11.047561">
<ele>806.268</ele>
<time>2020-09-11T14:40:56Z</time>
</trkpt>
<trkpt lat="47.600796" lon="11.047605">
<ele>806.332</ele>
<time>2020-09-11T14:40:57Z</time>
</trkpt>
<trkpt lat="47.600761" lon="11.04765">
<ele>806.625</ele>
<time>2020-09-11T14:40:58Z</time>
</trkpt>
<trkpt lat="47.600723" lon="11.047693">
<ele>806.853</ele>
<time>2020-09-11T14:40:59Z</time>
</trkpt>
<trkpt lat="47.600681" lon="11.047737">
<ele>807.019</ele>
<time>2020-09-11T14:41:00Z</time>
</trkpt>
<trkpt lat="47.600639" lon="11.047774">
<ele>807.153</ele>
<time>2020-09-11T14:41:01Z</time>
</trkpt>
<trkpt lat="47.600597" lon="11.047812">
<ele>807.256</ele>
<time>2020-09-11T14:41:02Z</time>
</trkpt>
<trkpt lat="47.600563" lon="11.047852">
<ele>807.333</ele>
<time>2020-09-11T14:41:03Z</time>
</trkpt>
<trkpt lat="47.600517" lon="11.04789">
<ele>807.381</ele>
<time>2020-09-11T14:41:04Z</time>
</trkpt>
<trkpt lat="47.600479" lon="11.047927">
<ele>807.404</ele>
<time>2020-09-11T14:41:05Z</time>
</trkpt>
<trkpt lat="47.600437" lon="11.047961">
<ele>807.622</ele>
<time>2020-09-11T14:41:06Z</time>
</trkpt>
<trkpt lat="47.600407" lon="11.047997">
<ele>807.778</ele>
<time>2020-09-11T14:41:07Z</time>
</trkpt>
<trkpt lat="47.600368" lon="11.048028">
<ele>807.934</ele>
<time>2020-09-11T14:41:08Z</time>
</trkpt>
<trkpt lat="47.600334" lon="11.048055">
<ele>808.061</ele>
<time>2020-09-11T14:41:09Z</time>
</trkpt>
<trkpt lat="47.600296" lon="11.048072">
<ele>808.159</ele>
<time>2020-09-11T14:41:10Z</time>
</trkpt>
<trkpt lat="47.600254" lon="11.04809">
<ele>808.224</ele>
<time>2020-09-11T14:41:11Z</time>
</trkpt>
<trkpt lat="47.600216" lon="11.0481">
<ele>808.509</ele>
<time>2020-09-11T14:41:13Z</time>
</trkpt>
<trkpt lat="47.60014" lon="11.048114">
<ele>808.938</ele>
<time>2020-09-11T14:41:14Z</time>
</trkpt>
<trkpt lat="47.600101" lon="11.048119">
<ele>809.056</ele>
<time>2020-09-11T14:41:15Z</time>
</trkpt>
<trkpt lat="47.600067" lon="11.048124">
<ele>809.143</ele>
<time>2020-09-11T14:41:16Z</time>
</trkpt>
<trkpt lat="47.600033" lon="11.04814">
<ele>809.208</ele>
<time>2020-09-11T14:41:17Z</time>
</trkpt>
<trkpt lat="47.600006" lon="11.048162">
<ele>809.265</ele>
<time>2020-09-11T14:41:18Z</time>
</trkpt>
<trkpt lat="47.599983" lon="11.048193">
<ele>809.292</ele>
<time>2020-09-11T14:41:19Z</time>
</trkpt>
<trkpt lat="47.599972" lon="11.048231">
<ele>809.292</ele>
<time>2020-09-11T14:41:20Z</time>
</trkpt>
<trkpt lat="47.599968" lon="11.048275">
<ele>809.292</ele>
<time>2020-09-11T14:41:21Z</time>
</trkpt>
<trkpt lat="47.599972" lon="11.048326">
<ele>809.292</ele>
<time>2020-09-11T14:41:22Z</time>
</trkpt>
<trkpt lat="47.599983" lon="11.04838">
<ele>809.292</ele>
<time>2020-09-11T14:41:23Z</time>
</trkpt>
<trkpt lat="47.599998" lon="11.048436">
<ele>809.292</ele>
<time>2020-09-11T14:41:24Z</time>
</trkpt>
<trkpt lat="47.600014" lon="11.0485">
<ele>809.292</ele>
<time>2020-09-11T14:41:25Z</time>
</trkpt>
<trkpt lat="47.600037" lon="11.048555">
<ele>809.292</ele>
<time>2020-09-11T14:41:26Z</time>
</trkpt>
<trkpt lat="47.60006" lon="11.048616">
<ele>809.292</ele>
<time>2020-09-11T14:41:27Z</time>
</trkpt>
<trkpt lat="47.600079" lon="11.048685">
<ele>809.292</ele>
<time>2020-09-11T14:41:28Z</time>
</trkpt>
<trkpt lat="47.600109" lon="11.04875">
<ele>809.292</ele>
<time>2020-09-11T14:41:29Z</time>
</trkpt>
<trkpt lat="47.600136" lon="11.048808">
<ele>809.292</ele>
<time>2020-09-11T14:41:30Z</time>
</trkpt>
<trkpt lat="47.60017" lon="11.04886">
<ele>809.292</ele>
<time>2020-09-11T14:41:31Z</time>
</trkpt>
<trkpt lat="47.600201" lon="11.048902">
<ele>809.292</ele>
<time>2020-09-11T14:41:32Z</time>
</trkpt>
<trkpt lat="47.600235" lon="11.048942">
<ele>809.292</ele>
<time>2020-09-11T14:41:33Z</time>
</trkpt>
<trkpt lat="47.600269" lon="11.048979">
<ele>809.292</ele>
<time>2020-09-11T14:41:34Z</time>
</trkpt>
<trkpt lat="47.600296" lon="11.049006">
<ele>809.292</ele>
<time>2020-09-11T14:41:35Z</time>
</trkpt>
<trkpt lat="47.600327" lon="11.049028">
<ele>809.292</ele>
<time>2020-09-11T14:41:36Z</time>
</trkpt>
<trkpt lat="47.600357" lon="11.049047">
<ele>809.292</ele>
<time>2020-09-11T14:41:37Z</time>
</trkpt>
<trkpt lat="47.600384" lon="11.049071">
<ele>809.292</ele>
<time>2020-09-11T14:41:38Z</time>
</trkpt>
<trkpt lat="47.600403" lon="11.049103">
<ele>809.292</ele>
<time>2020-09-11T14:41:39Z</time>
</trkpt>
<trkpt lat="47.600422" lon="11.04914">
<ele>809.292</ele>
<time>2020-09-11T14:41:40Z</time>
</trkpt>
<trkpt lat="47.600426" lon="11.049182">
<ele>809.292</ele>
<time>2020-09-11T14:41:41Z</time>
</trkpt>
<trkpt lat="47.600426" lon="11.049231">
<ele>809.292</ele>
<time>2020-09-11T14:41:42Z</time>
</trkpt>
<trkpt lat="47.600418" lon="11.049278">
<ele>809.292</ele>
<time>2020-09-11T14:41:43Z</time>
</trkpt>
<trkpt lat="47.600403" lon="11.049327">
<ele>809.292</ele>
<time>2020-09-11T14:41:44Z</time>
</trkpt>
<trkpt lat="47.600388" lon="11.049376">
<ele>809.292</ele>
<time>2020-09-11T14:41:45Z</time>
</trkpt>
<trkpt lat="47.600368" lon="11.049432">
<ele>809.292</ele>
<time>2020-09-11T14:41:46Z</time>
</trkpt>
<trkpt lat="47.600349" lon="11.049488">
<ele>809.292</ele>
<time>2020-09-11T14:41:47Z</time>
</trkpt>
<trkpt lat="47.60033" lon="11.049547">
<ele>809.292</ele>
<time>2020-09-11T14:41:48Z</time>
</trkpt>
<trkpt lat="47.600304" lon="11.049605">
<ele>808.968</ele>
<time>2020-09-11T14:41:49Z</time>
</trkpt>
<trkpt lat="47.600285" lon="11.049666">
<ele>808.734</ele>
<time>2020-09-11T14:41:50Z</time>
</trkpt>
<trkpt lat="47.600262" lon="11.049728">
<ele>808.567</ele>
<time>2020-09-11T14:41:51Z</time>
</trkpt>
<trkpt lat="47.600239" lon="11.049787">
<ele>808.456</ele>
<time>2020-09-11T14:41:52Z</time>
</trkpt>
<trkpt lat="47.60022" lon="11.049847">
<ele>808.379</ele>
<time>2020-09-11T14:41:53Z</time>
</trkpt>
<trkpt lat="47.600204" lon="11.04991">
<ele>808.331</ele>
<time>2020-09-11T14:41:54Z</time>
</trkpt>
<trkpt lat="47.600182" lon="11.049972">
<ele>808.308</ele>
<time>2020-09-11T14:41:55Z</time>
</trkpt>
<trkpt lat="47.600166" lon="11.050036">
<ele>808.303</ele>
<time>2020-09-11T14:41:56Z</time>
</trkpt>
<trkpt lat="47.600143" lon="11.050102">
<ele>808.303</ele>
<time>2020-09-11T14:41:57Z</time>
</trkpt>
<trkpt lat="47.600128" lon="11.050165">
<ele>808.303</ele>
<time>2020-09-11T14:41:58Z</time>
</trkpt>
<trkpt lat="47.600109" lon="11.050225">
<ele>808.303</ele>
<time>2020-09-11T14:41:59Z</time>
</trkpt>
<trkpt lat="47.600086" lon="11.050282">
<ele>808.589</ele>
<time>2020-09-11T14:42:00Z</time>
</trkpt>
<trkpt lat="47.600075" lon="11.050341">
<ele>808.807</ele>
<time>2020-09-11T14:42:01Z</time>
</trkpt>
<trkpt lat="47.600052" lon="11.0504">
<ele>808.972</ele>
<time>2020-09-11T14:42:02Z</time>
</trkpt>
<trkpt lat="47.600037" lon="11.050462">
<ele>809.097</ele>
<time>2020-09-11T14:42:03Z</time>
</trkpt>
<trkpt lat="47.600018" lon="11.050523">
<ele>809.182</ele>
<time>2020-09-11T14:42:04Z</time>
</trkpt>
<trkpt lat="47.600002" lon="11.050587">
<ele>809.241</ele>
<time>2020-09-11T14:42:05Z</time>
</trkpt>
<trkpt lat="47.599979" lon="11.050652">
<ele>809.267</ele>
<time>2020-09-11T14:42:06Z</time>
</trkpt>
<trkpt lat="47.599964" lon="11.050716">
<ele>809.292</ele>
<time>2020-09-11T14:42:07Z</time>
</trkpt>
<trkpt lat="47.599945" lon="11.05078">
<ele>809.537</ele>
<time>2020-09-11T14:42:08Z</time>
</trkpt>
<trkpt lat="47.59993" lon="11.050846">
<ele>809.74</ele>
<time>2020-09-11T14:42:09Z</time>
</trkpt>
<trkpt lat="47.599915" lon="11.050919">
<ele>809.906</ele>
<time>2020-09-11T14:42:10Z</time>
</trkpt>
<trkpt lat="47.599895" lon="11.050988">
<ele>810.038</ele>
<time>2020-09-11T14:42:11Z</time>
</trkpt>
<trkpt lat="47.599884" lon="11.051051">
<ele>810.139</ele>
<time>2020-09-11T14:42:12Z</time>
</trkpt>
<trkpt lat="47.599873" lon="11.051102">
<ele>810.21</ele>
<time>2020-09-11T14:42:13Z</time>
</trkpt>
<trkpt lat="47.599865" lon="11.051142">
<ele>810.257</ele>
<time>2020-09-11T14:42:14Z</time>
</trkpt>
<trkpt lat="47.599854" lon="11.051173">
<ele>810.28</ele>
<time>2020-09-11T14:42:15Z</time>
</trkpt>
<trkpt lat="47.59985" lon="11.051205">
<ele>810.28</ele>
<time>2020-09-11T14:42:16Z</time>
</trkpt>
<trkpt lat="47.599842" lon="11.051237">
<ele>810.28</ele>
<time>2020-09-11T14:42:17Z</time>
</trkpt>
<trkpt lat="47.599834" lon="11.051282">
<ele>810.28</ele>
<time>2020-09-11T14:42:18Z</time>
</trkpt>
<trkpt lat="47.599827" lon="11.05133">
<ele>810.28</ele>
<time>2020-09-11T14:42:19Z</time>
</trkpt>
<trkpt lat="47.599815" lon="11.05138">
<ele>810.28</ele>
<time>2020-09-11T14:42:20Z</time>
</trkpt>
<trkpt lat="47.599812" lon="11.051432">
<ele>810.28</ele>
<time>2020-09-11T14:42:21Z</time>
</trkpt>
<trkpt lat="47.5998" lon="11.051487">
<ele>810.28</ele>
<time>2020-09-11T14:42:22Z</time>
</trkpt>
<trkpt lat="47.599796" lon="11.051547">
<ele>810.28</ele>
<time>2020-09-11T14:42:23Z</time>
</trkpt>
<trkpt lat="47.599785" lon="11.05161">
<ele>810.28</ele>
<time>2020-09-11T14:42:24Z</time>
</trkpt>
<trkpt lat="47.599777" lon="11.051677">
<ele>810.28</ele>
<time>2020-09-11T14:42:25Z</time>
</trkpt>
<trkpt lat="47.599766" lon="11.051748">
<ele>810.28</ele>
<time>2020-09-11T14:42:26Z</time>
</trkpt>
<trkpt lat="47.599758" lon="11.05182">
<ele>810.28</ele>
<time>2020-09-11T14:42:27Z</time>
</trkpt>
<trkpt lat="47.599751" lon="11.051891">
<ele>810.28</ele>
<time>2020-09-11T14:42:28Z</time>
</trkpt>
<trkpt lat="47.599747" lon="11.051965">
<ele>810.28</ele>
<time>2020-09-11T14:42:29Z</time>
</trkpt>
<trkpt lat="47.599731" lon="11.052044">
<ele>810.28</ele>
<time>2020-09-11T14:42:30Z</time>
</trkpt>
<trkpt lat="47.599724" lon="11.052122">
<ele>810.28</ele>
<time>2020-09-11T14:42:31Z</time>
</trkpt>
<trkpt lat="47.599716" lon="11.052201">
<ele>810.28</ele>
<time>2020-09-11T14:42:32Z</time>
</trkpt>
<trkpt lat="47.599701" lon="11.052283">
<ele>810.011</ele>
<time>2020-09-11T14:42:33Z</time>
</trkpt>
<trkpt lat="47.599686" lon="11.052368">
<ele>809.804</ele>
<time>2020-09-11T14:42:34Z</time>
</trkpt>
<trkpt lat="47.599674" lon="11.052453">
<ele>809.645</ele>
<time>2020-09-11T14:42:35Z</time>
</trkpt>
<trkpt lat="47.599663" lon="11.052541">
<ele>809.527</ele>
<time>2020-09-11T14:42:36Z</time>
</trkpt>
<trkpt lat="47.599651" lon="11.05263">
<ele>809.449</ele>
<time>2020-09-11T14:42:37Z</time>
</trkpt>
<trkpt lat="47.599636" lon="11.052715">
<ele>809.369</ele>
<time>2020-09-11T14:42:38Z</time>
</trkpt>
<trkpt lat="47.599621" lon="11.052803">
<ele>809.316</ele>
<time>2020-09-11T14:42:39Z</time>
</trkpt>
<trkpt lat="47.599613" lon="11.052887">
<ele>809.292</ele>
<time>2020-09-11T14:42:40Z</time>
</trkpt>
<trkpt lat="47.599598" lon="11.052972">
<ele>809.292</ele>
<time>2020-09-11T14:42:41Z</time>
</trkpt>
<trkpt lat="47.599586" lon="11.053059">
<ele>809.292</ele>
<time>2020-09-11T14:42:42Z</time>
</trkpt>
<trkpt lat="47.599583" lon="11.053144">
<ele>809.292</ele>
<time>2020-09-11T14:42:43Z</time>
</trkpt>
<trkpt lat="47.599567" lon="11.05323">
<ele>809.292</ele>
<time>2020-09-11T14:42:44Z</time>
</trkpt>
<trkpt lat="47.599556" lon="11.05332">
<ele>809.292</ele>
<time>2020-09-11T14:42:45Z</time>
</trkpt>
<trkpt lat="47.599548" lon="11.053413">
<ele>809.292</ele>
<time>2020-09-11T14:42:46Z</time>
</trkpt>
<trkpt lat="47.599537" lon="11.053505">
<ele>809.292</ele>
<time>2020-09-11T14:42:47Z</time>
</trkpt>
<trkpt lat="47.599525" lon="11.053595">
<ele>809.292</ele>
<time>2020-09-11T14:42:48Z</time>
</trkpt>
<trkpt lat="47.599522" lon="11.053689">
<ele>808.937</ele>
<time>2020-09-11T14:42:49Z</time>
</trkpt>
<trkpt lat="47.59951" lon="11.053779">
<ele>808.666</ele>
<time>2020-09-11T14:42:50Z</time>
</trkpt>
<trkpt lat="47.599503" lon="11.053869">
<ele>808.464</ele>
<time>2020-09-11T14:42:51Z</time>
</trkpt>
<trkpt lat="47.599495" lon="11.05396">
<ele>808.32</ele>
<time>2020-09-11T14:42:52Z</time>
</trkpt>
<trkpt lat="47.599483" lon="11.054053">
<ele>808.22</ele>
<time>2020-09-11T14:42:53Z</time>
</trkpt>
<trkpt lat="47.599468" lon="11.054145">
<ele>808.153</ele>
<time>2020-09-11T14:42:54Z</time>
</trkpt>
<trkpt lat="47.599457" lon="11.054238">
<ele>808.124</ele>
<time>2020-09-11T14:42:55Z</time>
</trkpt>
<trkpt lat="47.599449" lon="11.054332">
<ele>808.124</ele>
<time>2020-09-11T14:42:56Z</time>
</trkpt>
<trkpt lat="47.599438" lon="11.054426">
<ele>808.124</ele>
<time>2020-09-11T14:42:57Z</time>
</trkpt>
<trkpt lat="47.599426" lon="11.054521">
<ele>807.881</ele>
<time>2020-09-11T14:42:58Z</time>
</trkpt>
<trkpt lat="47.599415" lon="11.054617">
<ele>807.678</ele>
<time>2020-09-11T14:42:59Z</time>
</trkpt>
<trkpt lat="47.5994" lon="11.054711">
<ele>807.512</ele>
<time>2020-09-11T14:43:00Z</time>
</trkpt>
<trkpt lat="47.599392" lon="11.054807">
<ele>807.381</ele>
<time>2020-09-11T14:43:01Z</time>
</trkpt>
<trkpt lat="47.599384" lon="11.054905">
<ele>807.278</ele>
<time>2020-09-11T14:43:02Z</time>
</trkpt>
<trkpt lat="47.599369" lon="11.055003">
<ele>807.217</ele>
<time>2020-09-11T14:43:03Z</time>
</trkpt>
<trkpt lat="47.599354" lon="11.055101">
<ele>806.918</ele>
<time>2020-09-11T14:43:04Z</time>
</trkpt>
<trkpt lat="47.599335" lon="11.0552">
<ele>806.689</ele>
<time>2020-09-11T14:43:05Z</time>
</trkpt>
<trkpt lat="47.599323" lon="11.055302">
<ele>806.522</ele>
<time>2020-09-11T14:43:06Z</time>
</trkpt>
<trkpt lat="47.599308" lon="11.055403">
<ele>806.419</ele>
<time>2020-09-11T14:43:07Z</time>
</trkpt>
<trkpt lat="47.599293" lon="11.055503">
<ele>806.308</ele>
<time>2020-09-11T14:43:08Z</time>
</trkpt>
<trkpt lat="47.599277" lon="11.055604">
<ele>805.981</ele>
<time>2020-09-11T14:43:09Z</time>
</trkpt>
<trkpt lat="47.599266" lon="11.055707">
<ele>805.728</ele>
<time>2020-09-11T14:43:10Z</time>
</trkpt>
<trkpt lat="47.599255" lon="11.05581">
<ele>805.537</ele>
<time>2020-09-11T14:43:11Z</time>
</trkpt>
<trkpt lat="47.599239" lon="11.055912">
<ele>805.325</ele>
<time>2020-09-11T14:43:12Z</time>
</trkpt>
<trkpt lat="47.599228" lon="11.056013">
<ele>805.239</ele>
<time>2020-09-11T14:43:13Z</time>
</trkpt>
<trkpt lat="47.599213" lon="11.056117">
<ele>805.191</ele>
<time>2020-09-11T14:43:14Z</time>
</trkpt>
<trkpt lat="47.599197" lon="11.05622">
<ele>804.915</ele>
<time>2020-09-11T14:43:15Z</time>
</trkpt>
<trkpt lat="47.599186" lon="11.056323">
<ele>804.715</ele>
<time>2020-09-11T14:43:16Z</time>
</trkpt>
<trkpt lat="47.599171" lon="11.056429">
<ele>804.581</ele>
<time>2020-09-11T14:43:17Z</time>
</trkpt>
<trkpt lat="47.599159" lon="11.056534">
<ele>804.437</ele>
<time>2020-09-11T14:43:18Z</time>
</trkpt>
<trkpt lat="47.59914" lon="11.056639">
<ele>804.326</ele>
<time>2020-09-11T14:43:19Z</time>
</trkpt>
<trkpt lat="47.599125" lon="11.056744">
<ele>804.246</ele>
<time>2020-09-11T14:43:20Z</time>
</trkpt>
<trkpt lat="47.59911" lon="11.056847">
<ele>804.195</ele>
<time>2020-09-11T14:43:21Z</time>
</trkpt>
<trkpt lat="47.599098" lon="11.056953">
<ele>804.171</ele>
<time>2020-09-11T14:43:22Z</time>
</trkpt>
<trkpt lat="47.599075" lon="11.057058">
<ele>804.171</ele>
<time>2020-09-11T14:43:23Z</time>
</trkpt>
<trkpt lat="47.59906" lon="11.057163">
<ele>804.171</ele>
<time>2020-09-11T14:43:24Z</time>
</trkpt>
<trkpt lat="47.599041" lon="11.057267">
<ele>804.171</ele>
<time>2020-09-11T14:43:25Z</time>
</trkpt>
<trkpt lat="47.599033" lon="11.057372">
<ele>804.171</ele>
<time>2020-09-11T14:43:26Z</time>
</trkpt>
<trkpt lat="47.599018" lon="11.057475">
<ele>804.171</ele>
<time>2020-09-11T14:43:27Z</time>
</trkpt>
<trkpt lat="47.599003" lon="11.057573">
<ele>804.171</ele>
<time>2020-09-11T14:43:28Z</time>
</trkpt>
<trkpt lat="47.598991" lon="11.057668">
<ele>804.171</ele>
<time>2020-09-11T14:43:29Z</time>
</trkpt>
<trkpt lat="47.598972" lon="11.057762">
<ele>804.171</ele>
<time>2020-09-11T14:43:30Z</time>
</trkpt>
<trkpt lat="47.598961" lon="11.057852">
<ele>804.171</ele>
<time>2020-09-11T14:43:31Z</time>
</trkpt>
<trkpt lat="47.598949" lon="11.057941">
<ele>804.171</ele>
<time>2020-09-11T14:43:32Z</time>
</trkpt>
<trkpt lat="47.598938" lon="11.058028">
<ele>804.171</ele>
<time>2020-09-11T14:43:33Z</time>
</trkpt>
<trkpt lat="47.59893" lon="11.058113">
<ele>804.171</ele>
<time>2020-09-11T14:43:34Z</time>
</trkpt>
<trkpt lat="47.598915" lon="11.0582">
<ele>804.171</ele>
<time>2020-09-11T14:43:35Z</time>
</trkpt>
<trkpt lat="47.598904" lon="11.058285">
<ele>804.171</ele>
<time>2020-09-11T14:43:36Z</time>
</trkpt>
<trkpt lat="47.598892" lon="11.058365">
<ele>804.171</ele>
<time>2020-09-11T14:43:37Z</time>
</trkpt>
<trkpt lat="47.598881" lon="11.058445">
<ele>804.171</ele>
<time>2020-09-11T14:43:38Z</time>
</trkpt>
<trkpt lat="47.598869" lon="11.058523">
<ele>804.457</ele>
<time>2020-09-11T14:43:39Z</time>
</trkpt>
<trkpt lat="47.598858" lon="11.058603">
<ele>804.683</ele>
<time>2020-09-11T14:43:40Z</time>
</trkpt>
<trkpt lat="47.59885" lon="11.058685">
<ele>804.861</ele>
<time>2020-09-11T14:43:41Z</time>
</trkpt>
<trkpt lat="47.598839" lon="11.058773">
<ele>804.989</ele>
<time>2020-09-11T14:43:42Z</time>
</trkpt>
<trkpt lat="47.598827" lon="11.058862">
<ele>805.077</ele>
<time>2020-09-11T14:43:43Z</time>
</trkpt>
<trkpt lat="47.598816" lon="11.058951">
<ele>805.133</ele>
<time>2020-09-11T14:43:44Z</time>
</trkpt>
<trkpt lat="47.598804" lon="11.059042">
<ele>805.159</ele>
<time>2020-09-11T14:43:45Z</time>
</trkpt>
<trkpt lat="47.598793" lon="11.059132">
<ele>805.159</ele>
<time>2020-09-11T14:43:46Z</time>
</trkpt>
<trkpt lat="47.598782" lon="11.05922">
<ele>805.159</ele>
<time>2020-09-11T14:43:47Z</time>
</trkpt>
<trkpt lat="47.59877" lon="11.059308">
<ele>805.158</ele>
<time>2020-09-11T14:43:48Z</time>
</trkpt>
<trkpt lat="47.598759" lon="11.0594">
<ele>805.159</ele>
<time>2020-09-11T14:43:49Z</time>
</trkpt>
<trkpt lat="47.598743" lon="11.059492">
<ele>805.159</ele>
<time>2020-09-11T14:43:50Z</time>
</trkpt>
<trkpt lat="47.598736" lon="11.059585">
<ele>805.159</ele>
<time>2020-09-11T14:43:51Z</time>
</trkpt>
<trkpt lat="47.598721" lon="11.05968">
<ele>805.159</ele>
<time>2020-09-11T14:43:52Z</time>
</trkpt>
<trkpt lat="47.598709" lon="11.059777">
<ele>804.869</ele>
<time>2020-09-11T14:43:53Z</time>
</trkpt>
<trkpt lat="47.598694" lon="11.059872">
<ele>804.643</ele>
<time>2020-09-11T14:43:54Z</time>
</trkpt>
<trkpt lat="47.598679" lon="11.059966">
<ele>804.471</ele>
<time>2020-09-11T14:43:55Z</time>
</trkpt>
<trkpt lat="47.598667" lon="11.060061">
<ele>804.344</ele>
<time>2020-09-11T14:43:56Z</time>
</trkpt>
<trkpt lat="47.598652" lon="11.060157">
<ele>804.257</ele>
<time>2020-09-11T14:43:57Z</time>
</trkpt>
<trkpt lat="47.59864" lon="11.060251">
<ele>803.925</ele>
<time>2020-09-11T14:43:58Z</time>
</trkpt>
<trkpt lat="47.598621" lon="11.060343">
<ele>803.666</ele>
<time>2020-09-11T14:43:59Z</time>
</trkpt>
<trkpt lat="47.59861" lon="11.060433">
<ele>803.474</ele>
<time>2020-09-11T14:44:00Z</time>
</trkpt>
<trkpt lat="47.598595" lon="11.06052">
<ele>803.342</ele>
<time>2020-09-11T14:44:01Z</time>
</trkpt>
<trkpt lat="47.598579" lon="11.060605">
<ele>803.239</ele>
<time>2020-09-11T14:44:02Z</time>
</trkpt>
<trkpt lat="47.598576" lon="11.060688">
<ele>803.165</ele>
<time>2020-09-11T14:44:03Z</time>
</trkpt>
<trkpt lat="47.59856" lon="11.06077">
<ele>803.117</ele>
<time>2020-09-11T14:44:04Z</time>
</trkpt>
<trkpt lat="47.598545" lon="11.060848">
<ele>803.093</ele>
<time>2020-09-11T14:44:05Z</time>
</trkpt>
<trkpt lat="47.598541" lon="11.060922">
<ele>803.093</ele>
<time>2020-09-11T14:44:06Z</time>
</trkpt>
<trkpt lat="47.598526" lon="11.060992">
<ele>803.093</ele>
<time>2020-09-11T14:44:07Z</time>
</trkpt>
<trkpt lat="47.598515" lon="11.061057">
<ele>803.093</ele>
<time>2020-09-11T14:44:08Z</time>
</trkpt>
<trkpt lat="47.598503" lon="11.061124">
<ele>803.371</ele>
<time>2020-09-11T14:44:09Z</time>
</trkpt>
<trkpt lat="47.598492" lon="11.06119">
<ele>803.593</ele>
<time>2020-09-11T14:44:10Z</time>
</trkpt>
<trkpt lat="47.59848" lon="11.061252">
<ele>803.767</ele>
<time>2020-09-11T14:44:11Z</time>
</trkpt>
<trkpt lat="47.598476" lon="11.061312">
<ele>803.897</ele>
<time>2020-09-11T14:44:12Z</time>
</trkpt>
<trkpt lat="47.598461" lon="11.061365">
<ele>803.99</ele>
<time>2020-09-11T14:44:13Z</time>
</trkpt>
<trkpt lat="47.598454" lon="11.061414">
<ele>804.049</ele>
<time>2020-09-11T14:44:14Z</time>
</trkpt>
<trkpt lat="47.598446" lon="11.061455">
<ele>804.076</ele>
<time>2020-09-11T14:44:15Z</time>
</trkpt>
<trkpt lat="47.598442" lon="11.061488">
<ele>804.081</ele>
<time>2020-09-11T14:44:16Z</time>
</trkpt>
<trkpt lat="47.598431" lon="11.061512">
<ele>804.081</ele>
<time>2020-09-11T14:44:17Z</time>
</trkpt>
<trkpt lat="47.598423" lon="11.061526">
<ele>804.081</ele>
<time>2020-09-11T14:44:18Z</time>
</trkpt>
<trkpt lat="47.598419" lon="11.061542">
<ele>804.081</ele>
<time>2020-09-11T14:44:19Z</time>
</trkpt>
<trkpt lat="47.598415" lon="11.061556">
<ele>804.081</ele>
<time>2020-09-11T14:44:20Z</time>
</trkpt>
<trkpt lat="47.598408" lon="11.06157">
<ele>804.279</ele>
<time>2020-09-11T14:44:21Z</time>
</trkpt>
<trkpt lat="47.598404" lon="11.061585">
<ele>804.46</ele>
<time>2020-09-11T14:44:22Z</time>
</trkpt>
<trkpt lat="47.598404" lon="11.061604">
<ele>804.618</ele>
<time>2020-09-11T14:44:23Z</time>
</trkpt>
<trkpt lat="47.598408" lon="11.061625">
<ele>804.744</ele>
<time>2020-09-11T14:44:24Z</time>
</trkpt>
<trkpt lat="47.598412" lon="11.061652">
<ele>804.638</ele>
<time>2020-09-11T14:44:25Z</time>
</trkpt>
<trkpt lat="47.598415" lon="11.061684">
<ele>804.525</ele>
<time>2020-09-11T14:44:26Z</time>
</trkpt>
<trkpt lat="47.598415" lon="11.061724">
<ele>804.524</ele>
<time>2020-09-11T14:44:27Z</time>
</trkpt>
<trkpt lat="47.598415" lon="11.061762">
<ele>804.375</ele>
<time>2020-09-11T14:44:28Z</time>
</trkpt>
<trkpt lat="47.598419" lon="11.061799">
<ele>804.262</ele>
<time>2020-09-11T14:44:29Z</time>
</trkpt>
<trkpt lat="47.598434" lon="11.061832">
<ele>804.178</ele>
<time>2020-09-11T14:44:30Z</time>
</trkpt>
<trkpt lat="47.598446" lon="11.061869">
<ele>804.126</ele>
<time>2020-09-11T14:44:31Z</time>
</trkpt>
<trkpt lat="47.598454" lon="11.061904">
<ele>804.096</ele>
<time>2020-09-11T14:44:32Z</time>
</trkpt>
<trkpt lat="47.598457" lon="11.061937">
<ele>804.081</ele>
<time>2020-09-11T14:44:33Z</time>
</trkpt>
<trkpt lat="47.598461" lon="11.061971">
<ele>804.081</ele>
<time>2020-09-11T14:44:34Z</time>
</trkpt>
<trkpt lat="47.598469" lon="11.062004">
<ele>804.081</ele>
<time>2020-09-11T14:44:35Z</time>
</trkpt>
<trkpt lat="47.598473" lon="11.062034">
<ele>804.081</ele>
<time>2020-09-11T14:44:36Z</time>
</trkpt>
<trkpt lat="47.598465" lon="11.062053">
<ele>804.081</ele>
<time>2020-09-11T14:44:37Z</time>
</trkpt>
<trkpt lat="47.59845" lon="11.062067">
<ele>804.081</ele>
<time>2020-09-11T14:44:38Z</time>
</trkpt>
<trkpt lat="47.598442" lon="11.062072">
<ele>804.081</ele>
<time>2020-09-11T14:44:39Z</time>
</trkpt>
<trkpt lat="47.598434" lon="11.06207">
<ele>804.081</ele>
<time>2020-09-11T14:44:40Z</time>
</trkpt>
<trkpt lat="47.598423" lon="11.062074">
<ele>804.081</ele>
<time>2020-09-11T14:44:41Z</time>
</trkpt>
<trkpt lat="47.598412" lon="11.062078">
<ele>804.081</ele>
<time>2020-09-11T14:44:42Z</time>
</trkpt>
<trkpt lat="47.598404" lon="11.062081">
<ele>804.081</ele>
<time>2020-09-11T14:44:43Z</time>
</trkpt>
<trkpt lat="47.598396" lon="11.062085">
<ele>804.081</ele>
<time>2020-09-11T14:44:44Z</time>
</trkpt>
<trkpt lat="47.598392" lon="11.062088">
<ele>804.081</ele>
<time>2020-09-11T14:44:45Z</time>
</trkpt>
<trkpt lat="47.598385" lon="11.06209">
<ele>804.081</ele>
<time>2020-09-11T14:44:46Z</time>
</trkpt>
<trkpt lat="47.598396" lon="11.062095">
<ele>804.081</ele>
<time>2020-09-11T14:44:49Z</time>
</trkpt>
<trkpt lat="47.598392" lon="11.062095">
<ele>804.081</ele>
<time>2020-09-11T14:44:51Z</time>
</trkpt>
<trkpt lat="47.598392" lon="11.062099">
<ele>804.081</ele>
<time>2020-09-11T14:44:52Z</time>
</trkpt>
<trkpt lat="47.598358" lon="11.062079">
<ele>804.081</ele>
<time>2020-09-11T14:47:41Z</time>
</trkpt>
<trkpt lat="47.598362" lon="11.062078">
<ele>804.284</ele>
<time>2020-09-11T14:47:42Z</time>
</trkpt>
<trkpt lat="47.598362" lon="11.062079">
<ele>804.449</ele>
<time>2020-09-11T14:47:43Z</time>
</trkpt>
<trkpt lat="47.598366" lon="11.062088">
<ele>804.552</ele>
<time>2020-09-11T14:47:44Z</time>
</trkpt>
<trkpt lat="47.598408" lon="11.062065">
<ele>804.549</ele>
<time>2020-09-11T14:48:21Z</time>
</trkpt>
<trkpt lat="47.598408" lon="11.062069">
<ele>804.589</ele>
<time>2020-09-11T14:48:22Z</time>
</trkpt>
<trkpt lat="47.598412" lon="11.062078">
<ele>804.483</ele>
<time>2020-09-11T14:48:23Z</time>
</trkpt>
<trkpt lat="47.598412" lon="11.062079">
<ele>804.485</ele>
<time>2020-09-11T14:48:24Z</time>
</trkpt>
<trkpt lat="47.598389" lon="11.062085">
<ele>804.355</ele>
<time>2020-09-11T14:48:31Z</time>
</trkpt>
<trkpt lat="47.598385" lon="11.06209">
<ele>804.139</ele>
<time>2020-09-11T14:48:32Z</time>
</trkpt>
<trkpt lat="47.598381" lon="11.062103">
<ele>804.092</ele>
<time>2020-09-11T14:48:33Z</time>
</trkpt>
<trkpt lat="47.598373" lon="11.06211">
<ele>804.076</ele>
<time>2020-09-11T14:48:34Z</time>
</trkpt>
<trkpt lat="47.598373" lon="11.062109">
<ele>804.053</ele>
<time>2020-09-11T14:48:35Z</time>
</trkpt>
<trkpt lat="47.598366" lon="11.062112">
<ele>804.009</ele>
<time>2020-09-11T14:48:36Z</time>
</trkpt>
<trkpt lat="47.598419" lon="11.062074">
<ele>803.902</ele>
<time>2020-09-11T14:48:37Z</time>
</trkpt>
<trkpt lat="47.598415" lon="11.062044">
<ele>803.902</ele>
<time>2020-09-11T14:49:41Z</time>
</trkpt>
<trkpt lat="47.598415" lon="11.062042">
<ele>803.902</ele>
<time>2020-09-11T14:49:42Z</time>
</trkpt>
<trkpt lat="47.598423" lon="11.062015">
<ele>803.902</ele>
<time>2020-09-11T14:49:50Z</time>
</trkpt>
<trkpt lat="47.598431" lon="11.062005">
<ele>803.902</ele>
<time>2020-09-11T14:49:51Z</time>
</trkpt>
<trkpt lat="47.598442" lon="11.061992">
<ele>803.902</ele>
<time>2020-09-11T14:49:52Z</time>
</trkpt>
<trkpt lat="47.59845" lon="11.061976">
<ele>803.902</ele>
<time>2020-09-11T14:49:53Z</time>
</trkpt>
<trkpt lat="47.598465" lon="11.061958">
<ele>803.902</ele>
<time>2020-09-11T14:49:54Z</time>
</trkpt>
<trkpt lat="47.598473" lon="11.061935">
<ele>803.902</ele>
<time>2020-09-11T14:49:55Z</time>
</trkpt>
<trkpt lat="47.598476" lon="11.061914">
<ele>803.902</ele>
<time>2020-09-11T14:49:56Z</time>
</trkpt>
<trkpt lat="47.598476" lon="11.061895">
<ele>803.902</ele>
<time>2020-09-11T14:49:57Z</time>
</trkpt>
<trkpt lat="47.598469" lon="11.061874">
<ele>803.902</ele>
<time>2020-09-11T14:49:58Z</time>
</trkpt>
<trkpt lat="47.598461" lon="11.061852">
<ele>803.901</ele>
<time>2020-09-11T14:49:59Z</time>
</trkpt>
<trkpt lat="47.598457" lon="11.061829">
<ele>803.902</ele>
<time>2020-09-11T14:50:00Z</time>
</trkpt>
<trkpt lat="47.598454" lon="11.0618">
<ele>803.902</ele>
<time>2020-09-11T14:50:01Z</time>
</trkpt>
<trkpt lat="47.59845" lon="11.061769">
<ele>803.902</ele>
<time>2020-09-11T14:50:02Z</time>
</trkpt>
<trkpt lat="47.598446" lon="11.061735">
<ele>803.902</ele>
<time>2020-09-11T14:50:03Z</time>
</trkpt>
<trkpt lat="47.598446" lon="11.06171">
<ele>803.902</ele>
<time>2020-09-11T14:50:04Z</time>
</trkpt>
<trkpt lat="47.598431" lon="11.061686">
<ele>803.902</ele>
<time>2020-09-11T14:50:05Z</time>
</trkpt>
<trkpt lat="47.598412" lon="11.06165">
<ele>803.902</ele>
<time>2020-09-11T14:50:06Z</time>
</trkpt>
<trkpt lat="47.598389" lon="11.061625">
<ele>803.902</ele>
<time>2020-09-11T14:50:07Z</time>
</trkpt>
<trkpt lat="47.598358" lon="11.061608">
<ele>803.902</ele>
<time>2020-09-11T14:50:08Z</time>
</trkpt>
<trkpt lat="47.598324" lon="11.061596">
<ele>803.902</ele>
<time>2020-09-11T14:50:09Z</time>
</trkpt>
<trkpt lat="47.598289" lon="11.0616">
<ele>803.902</ele>
<time>2020-09-11T14:50:10Z</time>
</trkpt>
<trkpt lat="47.598267" lon="11.061608">
<ele>803.902</ele>
<time>2020-09-11T14:50:11Z</time>
</trkpt>
<trkpt lat="47.59824" lon="11.061612">
<ele>803.902</ele>
<time>2020-09-11T14:50:12Z</time>
</trkpt>
<trkpt lat="47.598217" lon="11.061615">
<ele>803.902</ele>
<time>2020-09-11T14:50:13Z</time>
</trkpt>
<trkpt lat="47.598194" lon="11.061621">
<ele>803.902</ele>
<time>2020-09-11T14:50:14Z</time>
</trkpt>
<trkpt lat="47.598164" lon="11.061617">
<ele>803.902</ele>
<time>2020-09-11T14:50:15Z</time>
</trkpt>
<trkpt lat="47.598133" lon="11.061625">
<ele>803.902</ele>
<time>2020-09-11T14:50:16Z</time>
</trkpt>
<trkpt lat="47.598106" lon="11.061638">
<ele>803.902</ele>
<time>2020-09-11T14:50:17Z</time>
</trkpt>
<trkpt lat="47.598076" lon="11.061638">
<ele>803.901</ele>
<time>2020-09-11T14:50:18Z</time>
</trkpt>
<trkpt lat="47.598042" lon="11.061646">
<ele>803.902</ele>
<time>2020-09-11T14:50:19Z</time>
</trkpt>
<trkpt lat="47.598003" lon="11.061668">
<ele>803.901</ele>
<time>2020-09-11T14:50:20Z</time>
</trkpt>
<trkpt lat="47.597965" lon="11.061694">
<ele>803.902</ele>
<time>2020-09-11T14:50:21Z</time>
</trkpt>
<trkpt lat="47.597927" lon="11.061711">
<ele>803.902</ele>
<time>2020-09-11T14:50:22Z</time>
</trkpt>
<trkpt lat="47.597889" lon="11.06173">
<ele>803.902</ele>
<time>2020-09-11T14:50:23Z</time>
</trkpt>
<trkpt lat="47.597851" lon="11.061745">
<ele>803.902</ele>
<time>2020-09-11T14:50:24Z</time>
</trkpt>
<trkpt lat="47.597813" lon="11.061767">
<ele>803.902</ele>
<time>2020-09-11T14:50:25Z</time>
</trkpt>
<trkpt lat="47.597778" lon="11.061795">
<ele>803.902</ele>
<time>2020-09-11T14:50:26Z</time>
</trkpt>
<trkpt lat="47.597744" lon="11.061816">
<ele>803.902</ele>
<time>2020-09-11T14:50:27Z</time>
</trkpt>
<trkpt lat="47.59771" lon="11.061834">
<ele>803.902</ele>
<time>2020-09-11T14:50:28Z</time>
</trkpt>
<trkpt lat="47.597683" lon="11.061847">
<ele>803.902</ele>
<time>2020-09-11T14:50:29Z</time>
</trkpt>
<trkpt lat="47.59766" lon="11.061853">
<ele>803.902</ele>
<time>2020-09-11T14:50:30Z</time>
</trkpt>
<trkpt lat="47.597641" lon="11.06186">
<ele>803.902</ele>
<time>2020-09-11T14:50:31Z</time>
</trkpt>
<trkpt lat="47.597633" lon="11.061872">
<ele>803.902</ele>
<time>2020-09-11T14:50:32Z</time>
</trkpt>
<trkpt lat="47.597633" lon="11.061881">
<ele>803.902</ele>
<time>2020-09-11T14:50:33Z</time>
</trkpt>
<trkpt lat="47.597633" lon="11.061893">
<ele>803.902</ele>
<time>2020-09-11T14:50:34Z</time>
</trkpt>
<trkpt lat="47.597614" lon="11.061905">
<ele>803.902</ele>
<time>2020-09-11T14:50:37Z</time>
</trkpt>
<trkpt lat="47.597603" lon="11.061914">
<ele>803.902</ele>
<time>2020-09-11T14:50:38Z</time>
</trkpt>
<trkpt lat="47.597591" lon="11.061923">
<ele>803.902</ele>
<time>2020-09-11T14:50:39Z</time>
</trkpt>
<trkpt lat="47.597576" lon="11.061937">
<ele>803.902</ele>
<time>2020-09-11T14:50:40Z</time>
</trkpt>
<trkpt lat="47.597565" lon="11.06195">
<ele>803.902</ele>
<time>2020-09-11T14:50:41Z</time>
</trkpt>
<trkpt lat="47.597538" lon="11.061965">
<ele>803.902</ele>
<time>2020-09-11T14:50:42Z</time>
</trkpt>
<trkpt lat="47.597515" lon="11.061978">
<ele>803.902</ele>
<time>2020-09-11T14:50:43Z</time>
</trkpt>
<trkpt lat="47.597496" lon="11.061987">
<ele>803.902</ele>
<time>2020-09-11T14:50:44Z</time>
</trkpt>
<trkpt lat="47.597469" lon="11.061998">
<ele>803.902</ele>
<time>2020-09-11T14:50:45Z</time>
</trkpt>
<trkpt lat="47.597446" lon="11.06201">
<ele>803.902</ele>
<time>2020-09-11T14:50:46Z</time>
</trkpt>
<trkpt lat="47.59742" lon="11.06203">
<ele>803.902</ele>
<time>2020-09-11T14:50:47Z</time>
</trkpt>
<trkpt lat="47.597393" lon="11.06205">
<ele>803.902</ele>
<time>2020-09-11T14:50:48Z</time>
</trkpt>
<trkpt lat="47.597363" lon="11.062078">
<ele>803.902</ele>
<time>2020-09-11T14:50:49Z</time>
</trkpt>
<trkpt lat="47.597336" lon="11.062105">
<ele>803.902</ele>
<time>2020-09-11T14:50:50Z</time>
</trkpt>
<trkpt lat="47.597305" lon="11.062126">
<ele>803.902</ele>
<time>2020-09-11T14:50:51Z</time>
</trkpt>
<trkpt lat="47.597275" lon="11.062153">
<ele>803.902</ele>
<time>2020-09-11T14:50:52Z</time>
</trkpt>
<trkpt lat="47.597244" lon="11.062181">
<ele>803.902</ele>
<time>2020-09-11T14:50:53Z</time>
</trkpt>
<trkpt lat="47.597218" lon="11.062214">
<ele>803.902</ele>
<time>2020-09-11T14:50:54Z</time>
</trkpt>
<trkpt lat="47.597183" lon="11.062245">
<ele>803.902</ele>
<time>2020-09-11T14:50:55Z</time>
</trkpt>
<trkpt lat="47.597149" lon="11.06227">
<ele>803.902</ele>
<time>2020-09-11T14:50:56Z</time>
</trkpt>
<trkpt lat="47.597111" lon="11.062288">
<ele>803.902</ele>
<time>2020-09-11T14:50:57Z</time>
</trkpt>
<trkpt lat="47.597076" lon="11.062317">
<ele>803.902</ele>
<time>2020-09-11T14:50:58Z</time>
</trkpt>
<trkpt lat="47.597038" lon="11.062348">
<ele>803.902</ele>
<time>2020-09-11T14:50:59Z</time>
</trkpt>
<trkpt lat="47.597" lon="11.062384">
<ele>803.902</ele>
<time>2020-09-11T14:51:00Z</time>
</trkpt>
<trkpt lat="47.596958" lon="11.062419">
<ele>803.902</ele>
<time>2020-09-11T14:51:01Z</time>
</trkpt>
<trkpt lat="47.596924" lon="11.062449">
<ele>803.671</ele>
<time>2020-09-11T14:51:02Z</time>
</trkpt>
<trkpt lat="47.596886" lon="11.062473">
<ele>803.492</ele>
<time>2020-09-11T14:51:03Z</time>
</trkpt>
<trkpt lat="47.596851" lon="11.062495">
<ele>803.369</ele>
<time>2020-09-11T14:51:04Z</time>
</trkpt>
<trkpt lat="47.596821" lon="11.06251">
<ele>803.243</ele>
<time>2020-09-11T14:51:05Z</time>
</trkpt>
<trkpt lat="47.596802" lon="11.062513">
<ele>803.149</ele>
<time>2020-09-11T14:51:06Z</time>
</trkpt>
<trkpt lat="47.596794" lon="11.062518">
<ele>803.079</ele>
<time>2020-09-11T14:51:07Z</time>
</trkpt>
<trkpt lat="47.596794" lon="11.06252">
<ele>803.031</ele>
<time>2020-09-11T14:51:08Z</time>
</trkpt>
<trkpt lat="47.59679" lon="11.06252">
<ele>803.003</ele>
<time>2020-09-11T14:51:09Z</time>
</trkpt>
<trkpt lat="47.596779" lon="11.062543">
<ele>803.003</ele>
<time>2020-09-11T14:51:59Z</time>
</trkpt>
<trkpt lat="47.596764" lon="11.062558">
<ele>803.003</ele>
<time>2020-09-11T14:52:00Z</time>
</trkpt>
<trkpt lat="47.596752" lon="11.062578">
<ele>803.003</ele>
<time>2020-09-11T14:52:01Z</time>
</trkpt>
<trkpt lat="47.596729" lon="11.062605">
<ele>803.003</ele>
<time>2020-09-11T14:52:02Z</time>
</trkpt>
<trkpt lat="47.596703" lon="11.062631">
<ele>803.003</ele>
<time>2020-09-11T14:52:03Z</time>
</trkpt>
<trkpt lat="47.596668" lon="11.062656">
<ele>803.003</ele>
<time>2020-09-11T14:52:04Z</time>
</trkpt>
<trkpt lat="47.596634" lon="11.062681">
<ele>803.003</ele>
<time>2020-09-11T14:52:05Z</time>
</trkpt>
<trkpt lat="47.596596" lon="11.062708">
<ele>803.003</ele>
<time>2020-09-11T14:52:06Z</time>
</trkpt>
<trkpt lat="47.596561" lon="11.062737">
<ele>803.003</ele>
<time>2020-09-11T14:52:07Z</time>
</trkpt>
<trkpt lat="47.596523" lon="11.062765">
<ele>803.003</ele>
<time>2020-09-11T14:52:08Z</time>
</trkpt>
<trkpt lat="47.596489" lon="11.062797">
<ele>803.003</ele>
<time>2020-09-11T14:52:09Z</time>
</trkpt>
<trkpt lat="47.596451" lon="11.062832">
<ele>803.003</ele>
<time>2020-09-11T14:52:10Z</time>
</trkpt>
<trkpt lat="47.596409" lon="11.062872">
<ele>803.003</ele>
<time>2020-09-11T14:52:11Z</time>
</trkpt>
<trkpt lat="47.596367" lon="11.062912">
<ele>803.003</ele>
<time>2020-09-11T14:52:12Z</time>
</trkpt>
<trkpt lat="47.596329" lon="11.062955">
<ele>803.003</ele>
<time>2020-09-11T14:52:13Z</time>
</trkpt>
<trkpt lat="47.596291" lon="11.063">
<ele>803.003</ele>
<time>2020-09-11T14:52:14Z</time>
</trkpt>
<trkpt lat="47.596256" lon="11.063046">
<ele>803.003</ele>
<time>2020-09-11T14:52:15Z</time>
</trkpt>
<trkpt lat="47.596222" lon="11.063093">
<ele>803.003</ele>
<time>2020-09-11T14:52:16Z</time>
</trkpt>
<trkpt lat="47.596188" lon="11.063145">
<ele>803.003</ele>
<time>2020-09-11T14:52:17Z</time>
</trkpt>
<trkpt lat="47.596153" lon="11.063198">
<ele>803.003</ele>
<time>2020-09-11T14:52:18Z</time>
</trkpt>
<trkpt lat="47.596119" lon="11.063251">
<ele>803.003</ele>
<time>2020-09-11T14:52:19Z</time>
</trkpt>
<trkpt lat="47.596085" lon="11.063303">
<ele>803.003</ele>
<time>2020-09-11T14:52:20Z</time>
</trkpt>
<trkpt lat="47.59605" lon="11.063356">
<ele>803.003</ele>
<time>2020-09-11T14:52:21Z</time>
</trkpt>
<trkpt lat="47.596024" lon="11.06341">
<ele>803.003</ele>
<time>2020-09-11T14:52:22Z</time>
</trkpt>
<trkpt lat="47.595993" lon="11.063463">
<ele>803.003</ele>
<time>2020-09-11T14:52:23Z</time>
</trkpt>
<trkpt lat="47.595963" lon="11.063517">
<ele>803.003</ele>
<time>2020-09-11T14:52:24Z</time>
</trkpt>
<trkpt lat="47.595924" lon="11.06357">
<ele>803.003</ele>
<time>2020-09-11T14:52:25Z</time>
</trkpt>
<trkpt lat="47.595894" lon="11.063625">
<ele>803.003</ele>
<time>2020-09-11T14:52:26Z</time>
</trkpt>
<trkpt lat="47.595856" lon="11.06368">
<ele>803.003</ele>
<time>2020-09-11T14:52:27Z</time>
</trkpt>
<trkpt lat="47.595825" lon="11.063737">
<ele>803.274</ele>
<time>2020-09-11T14:52:28Z</time>
</trkpt>
<trkpt lat="47.595791" lon="11.063788">
<ele>803.487</ele>
<time>2020-09-11T14:52:29Z</time>
</trkpt>
<trkpt lat="47.59576" lon="11.063837">
<ele>803.645</ele>
<time>2020-09-11T14:52:30Z</time>
</trkpt>
<trkpt lat="47.59573" lon="11.063882">
<ele>803.761</ele>
<time>2020-09-11T14:52:31Z</time>
</trkpt>
<trkpt lat="47.595695" lon="11.063925">
<ele>803.846</ele>
<time>2020-09-11T14:52:32Z</time>
</trkpt>
<trkpt lat="47.595665" lon="11.063967">
<ele>803.907</ele>
<time>2020-09-11T14:52:33Z</time>
</trkpt>
<trkpt lat="47.595627" lon="11.064009">
<ele>803.963</ele>
<time>2020-09-11T14:52:34Z</time>
</trkpt>
<trkpt lat="47.595589" lon="11.06405">
<ele>803.991</ele>
<time>2020-09-11T14:52:35Z</time>
</trkpt>
<trkpt lat="47.595554" lon="11.06409">
<ele>803.991</ele>
<time>2020-09-11T14:52:36Z</time>
</trkpt>
<trkpt lat="47.595516" lon="11.064132">
<ele>803.991</ele>
<time>2020-09-11T14:52:37Z</time>
</trkpt>
<trkpt lat="47.595482" lon="11.06417">
<ele>803.991</ele>
<time>2020-09-11T14:52:38Z</time>
</trkpt>
<trkpt lat="47.59544" lon="11.064204">
<ele>803.991</ele>
<time>2020-09-11T14:52:39Z</time>
</trkpt>
<trkpt lat="47.595398" lon="11.064238">
<ele>803.991</ele>
<time>2020-09-11T14:52:40Z</time>
</trkpt>
<trkpt lat="47.595352" lon="11.064269">
<ele>803.991</ele>
<time>2020-09-11T14:52:41Z</time>
</trkpt>
<trkpt lat="47.595314" lon="11.064301">
<ele>803.991</ele>
<time>2020-09-11T14:52:42Z</time>
</trkpt>
<trkpt lat="47.595268" lon="11.064328">
<ele>803.991</ele>
<time>2020-09-11T14:52:43Z</time>
</trkpt>
<trkpt lat="47.595226" lon="11.064348">
<ele>803.991</ele>
<time>2020-09-11T14:52:44Z</time>
</trkpt>
<trkpt lat="47.595188" lon="11.06437">
<ele>803.991</ele>
<time>2020-09-11T14:52:45Z</time>
</trkpt>
<trkpt lat="47.595142" lon="11.064392">
<ele>803.991</ele>
<time>2020-09-11T14:52:46Z</time>
</trkpt>
<trkpt lat="47.5951" lon="11.064415">
<ele>803.991</ele>
<time>2020-09-11T14:52:47Z</time>
</trkpt>
<trkpt lat="47.595058" lon="11.064441">
<ele>803.991</ele>
<time>2020-09-11T14:52:48Z</time>
</trkpt>
<trkpt lat="47.59502" lon="11.064468">
<ele>803.991</ele>
<time>2020-09-11T14:52:49Z</time>
</trkpt>
<trkpt lat="47.594978" lon="11.064497">
<ele>803.991</ele>
<time>2020-09-11T14:52:50Z</time>
</trkpt>
<trkpt lat="47.594933" lon="11.064522">
<ele>803.991</ele>
<time>2020-09-11T14:52:51Z</time>
</trkpt>
<trkpt lat="47.594891" lon="11.064542">
<ele>803.991</ele>
<time>2020-09-11T14:52:52Z</time>
</trkpt>
<trkpt lat="47.594845" lon="11.064563">
<ele>803.991</ele>
<time>2020-09-11T14:52:53Z</time>
</trkpt>
<trkpt lat="47.594795" lon="11.064582">
<ele>803.991</ele>
<time>2020-09-11T14:52:54Z</time>
</trkpt>
<trkpt lat="47.594749" lon="11.064595">
<ele>803.991</ele>
<time>2020-09-11T14:52:55Z</time>
</trkpt>
<trkpt lat="47.5947" lon="11.064607">
<ele>803.991</ele>
<time>2020-09-11T14:52:56Z</time>
</trkpt>
<trkpt lat="47.594654" lon="11.064617">
<ele>803.991</ele>
<time>2020-09-11T14:52:57Z</time>
</trkpt>
<trkpt lat="47.594604" lon="11.064625">
<ele>803.991</ele>
<time>2020-09-11T14:52:58Z</time>
</trkpt>
<trkpt lat="47.594559" lon="11.064633">
<ele>803.991</ele>
<time>2020-09-11T14:52:59Z</time>
</trkpt>
<trkpt lat="47.594509" lon="11.064636">
<ele>804.246</ele>
<time>2020-09-11T14:53:00Z</time>
</trkpt>
<trkpt lat="47.594463" lon="11.064642">
<ele>804.442</ele>
<time>2020-09-11T14:53:01Z</time>
</trkpt>
<trkpt lat="47.594421" lon="11.064647">
<ele>804.597</ele>
<time>2020-09-11T14:53:02Z</time>
</trkpt>
<trkpt lat="47.594379" lon="11.064649">
<ele>804.701</ele>
<time>2020-09-11T14:53:03Z</time>
</trkpt>
<trkpt lat="47.594337" lon="11.064652">
<ele>804.817</ele>
<time>2020-09-11T14:53:04Z</time>
</trkpt>
<trkpt lat="47.594299" lon="11.06466">
<ele>804.899</ele>
<time>2020-09-11T14:53:05Z</time>
</trkpt>
<trkpt lat="47.594257" lon="11.064672">
<ele>804.953</ele>
<time>2020-09-11T14:53:06Z</time>
</trkpt>
<trkpt lat="47.594223" lon="11.064689">
<ele>804.98</ele>
<time>2020-09-11T14:53:07Z</time>
</trkpt>
<trkpt lat="47.594193" lon="11.064709">
<ele>804.979</ele>
<time>2020-09-11T14:53:08Z</time>
</trkpt>
<trkpt lat="47.594166" lon="11.064736">
<ele>804.979</ele>
<time>2020-09-11T14:53:09Z</time>
</trkpt>
<trkpt lat="47.594147" lon="11.064772">
<ele>804.98</ele>
<time>2020-09-11T14:53:10Z</time>
</trkpt>
<trkpt lat="47.594143" lon="11.064812">
<ele>804.979</ele>
<time>2020-09-11T14:53:11Z</time>
</trkpt>
<trkpt lat="47.594151" lon="11.064856">
<ele>804.979</ele>
<time>2020-09-11T14:53:12Z</time>
</trkpt>
<trkpt lat="47.59417" lon="11.064898">
<ele>804.979</ele>
<time>2020-09-11T14:53:13Z</time>
</trkpt>
<trkpt lat="47.594193" lon="11.064945">
<ele>804.979</ele>
<time>2020-09-11T14:53:14Z</time>
</trkpt>
<trkpt lat="47.594215" lon="11.06499">
<ele>804.98</ele>
<time>2020-09-11T14:53:15Z</time>
</trkpt>
<trkpt lat="47.594242" lon="11.065038">
<ele>804.979</ele>
<time>2020-09-11T14:53:16Z</time>
</trkpt>
<trkpt lat="47.594273" lon="11.065088">
<ele>804.98</ele>
<time>2020-09-11T14:53:17Z</time>
</trkpt>
<trkpt lat="47.594303" lon="11.065142">
<ele>804.98</ele>
<time>2020-09-11T14:53:18Z</time>
</trkpt>
<trkpt lat="47.594337" lon="11.065193">
<ele>804.979</ele>
<time>2020-09-11T14:53:19Z</time>
</trkpt>
<trkpt lat="47.594368" lon="11.065244">
<ele>804.979</ele>
<time>2020-09-11T14:53:20Z</time>
</trkpt>
<trkpt lat="47.594398" lon="11.065295">
<ele>804.979</ele>
<time>2020-09-11T14:53:21Z</time>
</trkpt>
<trkpt lat="47.594425" lon="11.065351">
<ele>804.979</ele>
<time>2020-09-11T14:53:22Z</time>
</trkpt>
<trkpt lat="47.594448" lon="11.065407">
<ele>804.979</ele>
<time>2020-09-11T14:53:23Z</time>
</trkpt>
<trkpt lat="47.594471" lon="11.065461">
<ele>804.979</ele>
<time>2020-09-11T14:53:24Z</time>
</trkpt>
<trkpt lat="47.594498" lon="11.065516">
<ele>804.979</ele>
<time>2020-09-11T14:53:25Z</time>
</trkpt>
<trkpt lat="47.594521" lon="11.065568">
<ele>804.979</ele>
<time>2020-09-11T14:53:26Z</time>
</trkpt>
<trkpt lat="47.594536" lon="11.065623">
<ele>804.98</ele>
<time>2020-09-11T14:53:27Z</time>
</trkpt>
<trkpt lat="47.594559" lon="11.065679">
<ele>804.979</ele>
<time>2020-09-11T14:53:28Z</time>
</trkpt>
<trkpt lat="47.594574" lon="11.065738">
<ele>804.98</ele>
<time>2020-09-11T14:53:29Z</time>
</trkpt>
<trkpt lat="47.594593" lon="11.065801">
<ele>804.979</ele>
<time>2020-09-11T14:53:30Z</time>
</trkpt>
<trkpt lat="47.594612" lon="11.06586">
<ele>805.227</ele>
<time>2020-09-11T14:53:31Z</time>
</trkpt>
<trkpt lat="47.594631" lon="11.065922">
<ele>805.425</ele>
<time>2020-09-11T14:53:32Z</time>
</trkpt>
<trkpt lat="47.594643" lon="11.065983">
<ele>805.56</ele>
<time>2020-09-11T14:53:33Z</time>
</trkpt>
<trkpt lat="47.594654" lon="11.066046">
<ele>805.706</ele>
<time>2020-09-11T14:53:34Z</time>
</trkpt>
<trkpt lat="47.594666" lon="11.066109">
<ele>805.817</ele>
<time>2020-09-11T14:53:35Z</time>
</trkpt>
<trkpt lat="47.594681" lon="11.066169">
<ele>805.894</ele>
<time>2020-09-11T14:53:36Z</time>
</trkpt>
<trkpt lat="47.594692" lon="11.06623">
<ele>805.943</ele>
<time>2020-09-11T14:53:37Z</time>
</trkpt>
<trkpt lat="47.5947" lon="11.066293">
<ele>805.967</ele>
<time>2020-09-11T14:53:38Z</time>
</trkpt>
<trkpt lat="47.594707" lon="11.066359">
<ele>805.967</ele>
<time>2020-09-11T14:53:39Z</time>
</trkpt>
<trkpt lat="47.594715" lon="11.066422">
<ele>805.968</ele>
<time>2020-09-11T14:53:40Z</time>
</trkpt>
<trkpt lat="47.594727" lon="11.066488">
<ele>805.967</ele>
<time>2020-09-11T14:53:41Z</time>
</trkpt>
<trkpt lat="47.594734" lon="11.066553">
<ele>805.968</ele>
<time>2020-09-11T14:53:42Z</time>
</trkpt>
<trkpt lat="47.594749" lon="11.06662">
<ele>805.967</ele>
<time>2020-09-11T14:53:43Z</time>
</trkpt>
<trkpt lat="47.594757" lon="11.066683">
<ele>805.968</ele>
<time>2020-09-11T14:53:44Z</time>
</trkpt>
<trkpt lat="47.594765" lon="11.066745">
<ele>806.291</ele>
<time>2020-09-11T14:53:45Z</time>
</trkpt>
<trkpt lat="47.594776" lon="11.066804">
<ele>806.536</ele>
<time>2020-09-11T14:53:46Z</time>
</trkpt>
<trkpt lat="47.594784" lon="11.066858">
<ele>806.721</ele>
<time>2020-09-11T14:53:47Z</time>
</trkpt>
<trkpt lat="47.594788" lon="11.06691">
<ele>806.856</ele>
<time>2020-09-11T14:53:48Z</time>
</trkpt>
<trkpt lat="47.594776" lon="11.066953">
<ele>806.95</ele>
<time>2020-09-11T14:53:49Z</time>
</trkpt>
<trkpt lat="47.594753" lon="11.066986">
<ele>807.011</ele>
<time>2020-09-11T14:53:50Z</time>
</trkpt>
<trkpt lat="47.594719" lon="11.067007">
<ele>807.046</ele>
<time>2020-09-11T14:53:51Z</time>
</trkpt>
<trkpt lat="47.594688" lon="11.067028">
<ele>807.046</ele>
<time>2020-09-11T14:53:52Z</time>
</trkpt>
<trkpt lat="47.59465" lon="11.067054">
<ele>807.046</ele>
<time>2020-09-11T14:53:53Z</time>
</trkpt>
<trkpt lat="47.594616" lon="11.067079">
<ele>807.046</ele>
<time>2020-09-11T14:53:54Z</time>
</trkpt>
<trkpt lat="47.594582" lon="11.067105">
<ele>807.046</ele>
<time>2020-09-11T14:53:55Z</time>
</trkpt>
<trkpt lat="47.594547" lon="11.06714">
<ele>807.046</ele>
<time>2020-09-11T14:53:56Z</time>
</trkpt>
<trkpt lat="47.594505" lon="11.067171">
<ele>807.046</ele>
<time>2020-09-11T14:53:57Z</time>
</trkpt>
<trkpt lat="47.594463" lon="11.0672">
<ele>807.046</ele>
<time>2020-09-11T14:53:58Z</time>
</trkpt>
<trkpt lat="47.594421" lon="11.067229">
<ele>807.046</ele>
<time>2020-09-11T14:53:59Z</time>
</trkpt>
<trkpt lat="47.594376" lon="11.067253">
<ele>807.046</ele>
<time>2020-09-11T14:54:00Z</time>
</trkpt>
<trkpt lat="47.594334" lon="11.067278">
<ele>807.046</ele>
<time>2020-09-11T14:54:01Z</time>
</trkpt>
<trkpt lat="47.594292" lon="11.067297">
<ele>807.046</ele>
<time>2020-09-11T14:54:02Z</time>
</trkpt>
<trkpt lat="47.59425" lon="11.067324">
<ele>807.046</ele>
<time>2020-09-11T14:54:03Z</time>
</trkpt>
<trkpt lat="47.594212" lon="11.067347">
<ele>807.046</ele>
<time>2020-09-11T14:54:04Z</time>
</trkpt>
<trkpt lat="47.59417" lon="11.067378">
<ele>807.046</ele>
<time>2020-09-11T14:54:05Z</time>
</trkpt>
<trkpt lat="47.594128" lon="11.067404">
<ele>807.045</ele>
<time>2020-09-11T14:54:06Z</time>
</trkpt>
<trkpt lat="47.594086" lon="11.067433">
<ele>807.322</ele>
<time>2020-09-11T14:54:07Z</time>
</trkpt>
<trkpt lat="47.594044" lon="11.067464">
<ele>807.537</ele>
<time>2020-09-11T14:54:08Z</time>
</trkpt>
<trkpt lat="47.593998" lon="11.067492">
<ele>807.704</ele>
<time>2020-09-11T14:54:09Z</time>
</trkpt>
<trkpt lat="47.593948" lon="11.067514">
<ele>807.828</ele>
<time>2020-09-11T14:54:10Z</time>
</trkpt>
<trkpt lat="47.593903" lon="11.067543">
<ele>807.911</ele>
<time>2020-09-11T14:54:11Z</time>
</trkpt>
<trkpt lat="47.593853" lon="11.067577">
<ele>807.967</ele>
<time>2020-09-11T14:54:12Z</time>
</trkpt>
<trkpt lat="47.593811" lon="11.067613">
<ele>808.007</ele>
<time>2020-09-11T14:54:13Z</time>
</trkpt>
<trkpt lat="47.593761" lon="11.067652">
<ele>808.034</ele>
<time>2020-09-11T14:54:14Z</time>
</trkpt>
<trkpt lat="47.593716" lon="11.067688">
<ele>808.034</ele>
<time>2020-09-11T14:54:15Z</time>
</trkpt>
<trkpt lat="47.593662" lon="11.067719">
<ele>808.034</ele>
<time>2020-09-11T14:54:16Z</time>
</trkpt>
<trkpt lat="47.593609" lon="11.067757">
<ele>808.034</ele>
<time>2020-09-11T14:54:17Z</time>
</trkpt>
<trkpt lat="47.593555" lon="11.067788">
<ele>808.034</ele>
<time>2020-09-11T14:54:18Z</time>
</trkpt>
<trkpt lat="47.59351" lon="11.067821">
<ele>808.034</ele>
<time>2020-09-11T14:54:19Z</time>
</trkpt>
<trkpt lat="47.59346" lon="11.067854">
<ele>808.034</ele>
<time>2020-09-11T14:54:20Z</time>
</trkpt>
<trkpt lat="47.593403" lon="11.067895">
<ele>808.034</ele>
<time>2020-09-11T14:54:21Z</time>
</trkpt>
<trkpt lat="47.593353" lon="11.067929">
<ele>808.034</ele>
<time>2020-09-11T14:54:22Z</time>
</trkpt>
<trkpt lat="47.593304" lon="11.067965">
<ele>808.034</ele>
<time>2020-09-11T14:54:23Z</time>
</trkpt>
<trkpt lat="47.593254" lon="11.068">
<ele>808.034</ele>
<time>2020-09-11T14:54:24Z</time>
</trkpt>
<trkpt lat="47.593204" lon="11.068033">
<ele>808.034</ele>
<time>2020-09-11T14:54:25Z</time>
</trkpt>
<trkpt lat="47.593155" lon="11.068067">
<ele>808.034</ele>
<time>2020-09-11T14:54:26Z</time>
</trkpt>
<trkpt lat="47.593105" lon="11.068097">
<ele>808.034</ele>
<time>2020-09-11T14:54:27Z</time>
</trkpt>
<trkpt lat="47.593056" lon="11.068127">
<ele>808.034</ele>
<time>2020-09-11T14:54:28Z</time>
</trkpt>
<trkpt lat="47.593002" lon="11.068158">
<ele>808.034</ele>
<time>2020-09-11T14:54:29Z</time>
</trkpt>
<trkpt lat="47.592953" lon="11.068192">
<ele>808.034</ele>
<time>2020-09-11T14:54:30Z</time>
</trkpt>
<trkpt lat="47.592903" lon="11.068229">
<ele>808.034</ele>
<time>2020-09-11T14:54:31Z</time>
</trkpt>
<trkpt lat="47.592854" lon="11.068263">
<ele>808.034</ele>
<time>2020-09-11T14:54:32Z</time>
</trkpt>
<trkpt lat="47.592804" lon="11.0683">
<ele>808.034</ele>
<time>2020-09-11T14:54:33Z</time>
</trkpt>
<trkpt lat="47.592751" lon="11.06834">
<ele>808.034</ele>
<time>2020-09-11T14:54:34Z</time>
</trkpt>
<trkpt lat="47.592697" lon="11.068377">
<ele>808.034</ele>
<time>2020-09-11T14:54:35Z</time>
</trkpt>
<trkpt lat="47.592648" lon="11.068414">
<ele>808.034</ele>
<time>2020-09-11T14:54:36Z</time>
</trkpt>
<trkpt lat="47.592602" lon="11.068451">
<ele>808.034</ele>
<time>2020-09-11T14:54:37Z</time>
</trkpt>
<trkpt lat="47.592552" lon="11.068491">
<ele>808.034</ele>
<time>2020-09-11T14:54:38Z</time>
</trkpt>
<trkpt lat="47.592506" lon="11.06853">
<ele>808.034</ele>
<time>2020-09-11T14:54:39Z</time>
</trkpt>
<trkpt lat="47.592453" lon="11.068566">
<ele>808.034</ele>
<time>2020-09-11T14:54:40Z</time>
</trkpt>
<trkpt lat="47.592407" lon="11.068597">
<ele>808.034</ele>
<time>2020-09-11T14:54:41Z</time>
</trkpt>
<trkpt lat="47.592358" lon="11.068623">
<ele>808.034</ele>
<time>2020-09-11T14:54:42Z</time>
</trkpt>
<trkpt lat="47.592308" lon="11.068657">
<ele>808.034</ele>
<time>2020-09-11T14:54:43Z</time>
</trkpt>
<trkpt lat="47.592251" lon="11.06869">
<ele>808.034</ele>
<time>2020-09-11T14:54:44Z</time>
</trkpt>
<trkpt lat="47.592205" lon="11.068724">
<ele>808.034</ele>
<time>2020-09-11T14:54:45Z</time>
</trkpt>
<trkpt lat="47.592155" lon="11.068753">
<ele>807.721</ele>
<time>2020-09-11T14:54:46Z</time>
</trkpt>
<trkpt lat="47.592106" lon="11.068778">
<ele>807.48</ele>
<time>2020-09-11T14:54:47Z</time>
</trkpt>
<trkpt lat="47.592056" lon="11.068809">
<ele>807.295</ele>
<time>2020-09-11T14:54:48Z</time>
</trkpt>
<trkpt lat="47.591999" lon="11.068827">
<ele>807.158</ele>
<time>2020-09-11T14:54:49Z</time>
</trkpt>
<trkpt lat="47.591949" lon="11.06885">
<ele>807.07</ele>
<time>2020-09-11T14:54:50Z</time>
</trkpt>
<trkpt lat="47.591896" lon="11.068878">
<ele>807.015</ele>
<time>2020-09-11T14:54:51Z</time>
</trkpt>
<trkpt lat="47.591839" lon="11.068913">
<ele>806.982</ele>
<time>2020-09-11T14:54:52Z</time>
</trkpt>
<trkpt lat="47.591782" lon="11.068947">
<ele>806.956</ele>
<time>2020-09-11T14:54:53Z</time>
</trkpt>
<trkpt lat="47.591724" lon="11.068983">
<ele>806.956</ele>
<time>2020-09-11T14:54:54Z</time>
</trkpt>
<trkpt lat="47.591667" lon="11.069021">
<ele>806.956</ele>
<time>2020-09-11T14:54:55Z</time>
</trkpt>
<trkpt lat="47.591614" lon="11.06906">
<ele>806.956</ele>
<time>2020-09-11T14:54:56Z</time>
</trkpt>
<trkpt lat="47.59156" lon="11.069095">
<ele>806.955</ele>
<time>2020-09-11T14:54:57Z</time>
</trkpt>
<trkpt lat="47.591503" lon="11.069127">
<ele>806.956</ele>
<time>2020-09-11T14:54:58Z</time>
</trkpt>
<trkpt lat="47.59145" lon="11.069161">
<ele>806.956</ele>
<time>2020-09-11T14:54:59Z</time>
</trkpt>
<trkpt lat="47.5914" lon="11.069201">
<ele>806.956</ele>
<time>2020-09-11T14:55:00Z</time>
</trkpt>
<trkpt lat="47.591347" lon="11.069239">
<ele>806.956</ele>
<time>2020-09-11T14:55:01Z</time>
</trkpt>
<trkpt lat="47.591301" lon="11.069283">
<ele>806.956</ele>
<time>2020-09-11T14:55:02Z</time>
</trkpt>
<trkpt lat="47.591248" lon="11.06933">
<ele>806.956</ele>
<time>2020-09-11T14:55:03Z</time>
</trkpt>
<trkpt lat="47.591202" lon="11.069379">
<ele>806.956</ele>
<time>2020-09-11T14:55:04Z</time>
</trkpt>
<trkpt lat="47.591152" lon="11.069428">
<ele>806.956</ele>
<time>2020-09-11T14:55:05Z</time>
</trkpt>
<trkpt lat="47.59111" lon="11.06948">
<ele>806.956</ele>
<time>2020-09-11T14:55:06Z</time>
</trkpt>
<trkpt lat="47.591064" lon="11.069536">
<ele>806.956</ele>
<time>2020-09-11T14:55:07Z</time>
</trkpt>
<trkpt lat="47.591026" lon="11.069595">
<ele>806.956</ele>
<time>2020-09-11T14:55:08Z</time>
</trkpt>
<trkpt lat="47.590988" lon="11.069657">
<ele>806.956</ele>
<time>2020-09-11T14:55:09Z</time>
</trkpt>
<trkpt lat="47.59095" lon="11.069718">
<ele>806.956</ele>
<time>2020-09-11T14:55:10Z</time>
</trkpt>
<trkpt lat="47.590916" lon="11.069779">
<ele>806.956</ele>
<time>2020-09-11T14:55:11Z</time>
</trkpt>
<trkpt lat="47.590885" lon="11.069843">
<ele>806.956</ele>
<time>2020-09-11T14:55:12Z</time>
</trkpt>
<trkpt lat="47.590851" lon="11.069909">
<ele>806.956</ele>
<time>2020-09-11T14:55:13Z</time>
</trkpt>
<trkpt lat="47.590816" lon="11.069977">
<ele>806.956</ele>
<time>2020-09-11T14:55:14Z</time>
</trkpt>
<trkpt lat="47.590786" lon="11.070048">
<ele>806.956</ele>
<time>2020-09-11T14:55:15Z</time>
</trkpt>
<trkpt lat="47.590752" lon="11.07012">
<ele>806.956</ele>
<time>2020-09-11T14:55:16Z</time>
</trkpt>
<trkpt lat="47.590725" lon="11.070186">
<ele>806.956</ele>
<time>2020-09-11T14:55:17Z</time>
</trkpt>
<trkpt lat="47.590698" lon="11.070253">
<ele>806.956</ele>
<time>2020-09-11T14:55:18Z</time>
</trkpt>
<trkpt lat="47.590675" lon="11.070327">
<ele>806.956</ele>
<time>2020-09-11T14:55:19Z</time>
</trkpt>
<trkpt lat="47.590652" lon="11.070407">
<ele>806.956</ele>
<time>2020-09-11T14:55:20Z</time>
</trkpt>
<trkpt lat="47.59063" lon="11.070492">
<ele>806.956</ele>
<time>2020-09-11T14:55:21Z</time>
</trkpt>
<trkpt lat="47.590614" lon="11.07058">
<ele>806.956</ele>
<time>2020-09-11T14:55:22Z</time>
</trkpt>
<trkpt lat="47.590591" lon="11.07067">
<ele>806.956</ele>
<time>2020-09-11T14:55:23Z</time>
</trkpt>
<trkpt lat="47.590572" lon="11.070764">
<ele>806.956</ele>
<time>2020-09-11T14:55:24Z</time>
</trkpt>
<trkpt lat="47.590553" lon="11.070855">
<ele>806.956</ele>
<time>2020-09-11T14:55:25Z</time>
</trkpt>
<trkpt lat="47.590534" lon="11.070945">
<ele>806.956</ele>
<time>2020-09-11T14:55:26Z</time>
</trkpt>
<trkpt lat="47.590519" lon="11.071036">
<ele>806.956</ele>
<time>2020-09-11T14:55:27Z</time>
</trkpt>
<trkpt lat="47.5905" lon="11.071129">
<ele>806.956</ele>
<time>2020-09-11T14:55:28Z</time>
</trkpt>
<trkpt lat="47.590488" lon="11.071221">
<ele>806.956</ele>
<time>2020-09-11T14:55:29Z</time>
</trkpt>
<trkpt lat="47.590473" lon="11.071308">
<ele>806.956</ele>
<time>2020-09-11T14:55:30Z</time>
</trkpt>
<trkpt lat="47.590458" lon="11.071392">
<ele>806.956</ele>
<time>2020-09-11T14:55:31Z</time>
</trkpt>
<trkpt lat="47.590446" lon="11.07148">
<ele>806.956</ele>
<time>2020-09-11T14:55:32Z</time>
</trkpt>
<trkpt lat="47.590435" lon="11.071567">
<ele>806.956</ele>
<time>2020-09-11T14:55:33Z</time>
</trkpt>
<trkpt lat="47.590424" lon="11.071653">
<ele>806.956</ele>
<time>2020-09-11T14:55:34Z</time>
</trkpt>
<trkpt lat="47.590405" lon="11.07174">
<ele>806.956</ele>
<time>2020-09-11T14:55:35Z</time>
</trkpt>
<trkpt lat="47.590393" lon="11.071826">
<ele>806.956</ele>
<time>2020-09-11T14:55:36Z</time>
</trkpt>
<trkpt lat="47.590374" lon="11.071912">
<ele>806.956</ele>
<time>2020-09-11T14:55:37Z</time>
</trkpt>
<trkpt lat="47.590363" lon="11.071997">
<ele>806.956</ele>
<time>2020-09-11T14:55:38Z</time>
</trkpt>
<trkpt lat="47.590355" lon="11.072078">
<ele>806.956</ele>
<time>2020-09-11T14:55:39Z</time>
</trkpt>
<trkpt lat="47.590343" lon="11.072159">
<ele>806.955</ele>
<time>2020-09-11T14:55:40Z</time>
</trkpt>
<trkpt lat="47.590332" lon="11.072239">
<ele>806.956</ele>
<time>2020-09-11T14:55:41Z</time>
</trkpt>
<trkpt lat="47.590324" lon="11.072318">
<ele>806.956</ele>
<time>2020-09-11T14:55:42Z</time>
</trkpt>
<trkpt lat="47.590313" lon="11.072396">
<ele>806.956</ele>
<time>2020-09-11T14:55:43Z</time>
</trkpt>
<trkpt lat="47.590298" lon="11.072477">
<ele>806.956</ele>
<time>2020-09-11T14:55:44Z</time>
</trkpt>
<trkpt lat="47.590279" lon="11.072558">
<ele>806.955</ele>
<time>2020-09-11T14:55:45Z</time>
</trkpt>
<trkpt lat="47.590263" lon="11.072641">
<ele>806.956</ele>
<time>2020-09-11T14:55:46Z</time>
</trkpt>
<trkpt lat="47.590252" lon="11.072721">
<ele>806.956</ele>
<time>2020-09-11T14:55:47Z</time>
</trkpt>
<trkpt lat="47.590221" lon="11.072792">
<ele>806.956</ele>
<time>2020-09-11T14:55:48Z</time>
</trkpt>
<trkpt lat="47.590199" lon="11.072865">
<ele>806.956</ele>
<time>2020-09-11T14:55:49Z</time>
</trkpt>
<trkpt lat="47.590168" lon="11.072939">
<ele>806.956</ele>
<time>2020-09-11T14:55:50Z</time>
</trkpt>
<trkpt lat="47.590137" lon="11.073013">
<ele>806.956</ele>
<time>2020-09-11T14:55:51Z</time>
</trkpt>
<trkpt lat="47.590111" lon="11.073088">
<ele>806.956</ele>
<time>2020-09-11T14:55:52Z</time>
</trkpt>
<trkpt lat="47.59008" lon="11.073161">
<ele>806.956</ele>
<time>2020-09-11T14:55:53Z</time>
</trkpt>
<trkpt lat="47.59005" lon="11.073235">
<ele>806.955</ele>
<time>2020-09-11T14:55:54Z</time>
</trkpt>
<trkpt lat="47.590015" lon="11.073305">
<ele>806.956</ele>
<time>2020-09-11T14:55:55Z</time>
</trkpt>
<trkpt lat="47.589981" lon="11.073375">
<ele>806.956</ele>
<time>2020-09-11T14:55:56Z</time>
</trkpt>
<trkpt lat="47.589947" lon="11.073443">
<ele>806.955</ele>
<time>2020-09-11T14:55:57Z</time>
</trkpt>
<trkpt lat="47.589912" lon="11.073513">
<ele>806.956</ele>
<time>2020-09-11T14:55:58Z</time>
</trkpt>
<trkpt lat="47.589878" lon="11.07358">
<ele>806.956</ele>
<time>2020-09-11T14:55:59Z</time>
</trkpt>
<trkpt lat="47.58984" lon="11.07365">
<ele>806.956</ele>
<time>2020-09-11T14:56:00Z</time>
</trkpt>
<trkpt lat="47.589802" lon="11.07372">
<ele>806.955</ele>
<time>2020-09-11T14:56:01Z</time>
</trkpt>
<trkpt lat="47.58976" lon="11.073793">
<ele>806.956</ele>
<time>2020-09-11T14:56:02Z</time>
</trkpt>
<trkpt lat="47.589718" lon="11.073869">
<ele>806.956</ele>
<time>2020-09-11T14:56:03Z</time>
</trkpt>
<trkpt lat="47.589676" lon="11.073942">
<ele>806.956</ele>
<time>2020-09-11T14:56:04Z</time>
</trkpt>
<trkpt lat="47.589638" lon="11.074014">
<ele>806.956</ele>
<time>2020-09-11T14:56:05Z</time>
</trkpt>
<trkpt lat="47.589596" lon="11.074083">
<ele>806.956</ele>
<time>2020-09-11T14:56:06Z</time>
</trkpt>
<trkpt lat="47.589558" lon="11.074152">
<ele>806.956</ele>
<time>2020-09-11T14:56:07Z</time>
</trkpt>
<trkpt lat="47.58952" lon="11.074217">
<ele>806.956</ele>
<time>2020-09-11T14:56:08Z</time>
</trkpt>
<trkpt lat="47.589481" lon="11.074284">
<ele>806.956</ele>
<time>2020-09-11T14:56:09Z</time>
</trkpt>
<trkpt lat="47.589439" lon="11.074347">
<ele>806.956</ele>
<time>2020-09-11T14:56:10Z</time>
</trkpt>
<trkpt lat="47.589401" lon="11.074409">
<ele>806.956</ele>
<time>2020-09-11T14:56:11Z</time>
</trkpt>
<trkpt lat="47.589363" lon="11.074473">
<ele>806.956</ele>
<time>2020-09-11T14:56:12Z</time>
</trkpt>
<trkpt lat="47.589321" lon="11.074537">
<ele>806.956</ele>
<time>2020-09-11T14:56:13Z</time>
</trkpt>
<trkpt lat="47.589283" lon="11.074596">
<ele>806.956</ele>
<time>2020-09-11T14:56:14Z</time>
</trkpt>
<trkpt lat="47.589241" lon="11.074655">
<ele>806.956</ele>
<time>2020-09-11T14:56:15Z</time>
</trkpt>
<trkpt lat="47.589199" lon="11.07471">
<ele>806.956</ele>
<time>2020-09-11T14:56:16Z</time>
</trkpt>
<trkpt lat="47.589157" lon="11.074765">
<ele>806.956</ele>
<time>2020-09-11T14:56:17Z</time>
</trkpt>
<trkpt lat="47.589111" lon="11.074817">
<ele>807.199</ele>
<time>2020-09-11T14:56:18Z</time>
</trkpt>
<trkpt lat="47.589066" lon="11.074865">
<ele>807.39</ele>
<time>2020-09-11T14:56:19Z</time>
</trkpt>
<trkpt lat="47.589024" lon="11.074908">
<ele>807.536</ele>
<time>2020-09-11T14:56:20Z</time>
</trkpt>
<trkpt lat="47.588982" lon="11.074952">
<ele>807.643</ele>
<time>2020-09-11T14:56:21Z</time>
</trkpt>
<trkpt lat="47.588936" lon="11.07499">
<ele>807.72</ele>
<time>2020-09-11T14:56:22Z</time>
</trkpt>
<trkpt lat="47.588894" lon="11.075027">
<ele>807.778</ele>
<time>2020-09-11T14:56:23Z</time>
</trkpt>
<trkpt lat="47.58886" lon="11.075045">
<ele>807.83</ele>
<time>2020-09-11T14:56:24Z</time>
</trkpt>
<trkpt lat="47.588814" lon="11.075063">
<ele>807.854</ele>
<time>2020-09-11T14:56:25Z</time>
</trkpt>
<trkpt lat="47.588772" lon="11.07508">
<ele>807.854</ele>
<time>2020-09-11T14:56:26Z</time>
</trkpt>
<trkpt lat="47.588726" lon="11.075109">
<ele>807.854</ele>
<time>2020-09-11T14:56:27Z</time>
</trkpt>
<trkpt lat="47.588669" lon="11.075143">
<ele>807.854</ele>
<time>2020-09-11T14:56:28Z</time>
</trkpt>
<trkpt lat="47.588619" lon="11.075183">
<ele>807.854</ele>
<time>2020-09-11T14:56:29Z</time>
</trkpt>
<trkpt lat="47.588566" lon="11.075222">
<ele>807.854</ele>
<time>2020-09-11T14:56:30Z</time>
</trkpt>
<trkpt lat="47.588509" lon="11.075256">
<ele>808.121</ele>
<time>2020-09-11T14:56:31Z</time>
</trkpt>
<trkpt lat="47.588451" lon="11.075294">
<ele>808.33</ele>
<time>2020-09-11T14:56:32Z</time>
</trkpt>
<trkpt lat="47.588398" lon="11.075325">
<ele>808.456</ele>
<time>2020-09-11T14:56:33Z</time>
</trkpt>
<trkpt lat="47.588341" lon="11.075356">
<ele>808.596</ele>
<time>2020-09-11T14:56:34Z</time>
</trkpt>
<trkpt lat="47.588284" lon="11.075385">
<ele>808.695</ele>
<time>2020-09-11T14:56:35Z</time>
</trkpt>
<trkpt lat="47.588226" lon="11.07541">
<ele>808.769</ele>
<time>2020-09-11T14:56:36Z</time>
</trkpt>
<trkpt lat="47.588169" lon="11.075432">
<ele>808.818</ele>
<time>2020-09-11T14:56:37Z</time>
</trkpt>
<trkpt lat="47.588112" lon="11.075453">
<ele>808.843</ele>
<time>2020-09-11T14:56:38Z</time>
</trkpt>
<trkpt lat="47.588051" lon="11.075472">
<ele>808.843</ele>
<time>2020-09-11T14:56:39Z</time>
</trkpt>
<trkpt lat="47.587994" lon="11.075488">
<ele>808.843</ele>
<time>2020-09-11T14:56:40Z</time>
</trkpt>
<trkpt lat="47.587936" lon="11.075505">
<ele>808.843</ele>
<time>2020-09-11T14:56:41Z</time>
</trkpt>
<trkpt lat="47.587879" lon="11.075517">
<ele>808.843</ele>
<time>2020-09-11T14:56:42Z</time>
</trkpt>
<trkpt lat="47.587818" lon="11.075528">
<ele>808.843</ele>
<time>2020-09-11T14:56:43Z</time>
</trkpt>
<trkpt lat="47.587761" lon="11.075539">
<ele>808.843</ele>
<time>2020-09-11T14:56:44Z</time>
</trkpt>
<trkpt lat="47.587708" lon="11.075547">
<ele>808.576</ele>
<time>2020-09-11T14:56:45Z</time>
</trkpt>
<trkpt lat="47.587654" lon="11.075555">
<ele>808.369</ele>
<time>2020-09-11T14:56:46Z</time>
</trkpt>
<trkpt lat="47.587601" lon="11.075562">
<ele>808.215</ele>
<time>2020-09-11T14:56:47Z</time>
</trkpt>
<trkpt lat="47.587547" lon="11.075565">
<ele>808.101</ele>
<time>2020-09-11T14:56:48Z</time>
</trkpt>
<trkpt lat="47.58749" lon="11.075566">
<ele>808.021</ele>
<time>2020-09-11T14:56:49Z</time>
</trkpt>
<trkpt lat="47.587433" lon="11.075568">
<ele>807.967</ele>
<time>2020-09-11T14:56:50Z</time>
</trkpt>
<trkpt lat="47.587379" lon="11.075566">
<ele>807.944</ele>
<time>2020-09-11T14:56:51Z</time>
</trkpt>
<trkpt lat="47.587326" lon="11.075563">
<ele>807.944</ele>
<time>2020-09-11T14:56:52Z</time>
</trkpt>
<trkpt lat="47.587265" lon="11.075557">
<ele>807.944</ele>
<time>2020-09-11T14:56:53Z</time>
</trkpt>
<trkpt lat="47.587212" lon="11.075549">
<ele>807.944</ele>
<time>2020-09-11T14:56:54Z</time>
</trkpt>
<trkpt lat="47.587162" lon="11.075528">
<ele>807.944</ele>
<time>2020-09-11T14:56:55Z</time>
</trkpt>
<trkpt lat="47.587112" lon="11.075501">
<ele>807.944</ele>
<time>2020-09-11T14:56:56Z</time>
</trkpt>
<trkpt lat="47.587063" lon="11.075467">
<ele>807.944</ele>
<time>2020-09-11T14:56:57Z</time>
</trkpt>
<trkpt lat="47.587013" lon="11.075421">
<ele>807.944</ele>
<time>2020-09-11T14:56:58Z</time>
</trkpt>
<trkpt lat="47.586971" lon="11.075372">
<ele>807.944</ele>
<time>2020-09-11T14:56:59Z</time>
</trkpt>
<trkpt lat="47.586933" lon="11.075314">
<ele>807.944</ele>
<time>2020-09-11T14:57:00Z</time>
</trkpt>
<trkpt lat="47.586903" lon="11.075252">
<ele>807.944</ele>
<time>2020-09-11T14:57:01Z</time>
</trkpt>
<trkpt lat="47.586868" lon="11.075189">
<ele>807.944</ele>
<time>2020-09-11T14:57:02Z</time>
</trkpt>
<trkpt lat="47.586842" lon="11.075122">
<ele>807.944</ele>
<time>2020-09-11T14:57:03Z</time>
</trkpt>
<trkpt lat="47.586819" lon="11.075059">
<ele>807.944</ele>
<time>2020-09-11T14:57:04Z</time>
</trkpt>
<trkpt lat="47.586807" lon="11.075002">
<ele>807.944</ele>
<time>2020-09-11T14:57:05Z</time>
</trkpt>
<trkpt lat="47.586796" lon="11.074955">
<ele>807.944</ele>
<time>2020-09-11T14:57:06Z</time>
</trkpt>
<trkpt lat="47.586788" lon="11.074917">
<ele>807.944</ele>
<time>2020-09-11T14:57:07Z</time>
</trkpt>
<trkpt lat="47.586781" lon="11.074885">
<ele>807.944</ele>
<time>2020-09-11T14:57:08Z</time>
</trkpt>
<trkpt lat="47.586777" lon="11.074862">
<ele>807.944</ele>
<time>2020-09-11T14:57:09Z</time>
</trkpt>
<trkpt lat="47.586773" lon="11.07485">
<ele>807.944</ele>
<time>2020-09-11T14:57:10Z</time>
</trkpt>
<trkpt lat="47.586769" lon="11.074845">
<ele>807.944</ele>
<time>2020-09-11T14:57:11Z</time>
</trkpt>
<trkpt lat="47.586769" lon="11.074843">
<ele>807.944</ele>
<time>2020-09-11T14:57:13Z</time>
</trkpt>
<trkpt lat="47.586761" lon="11.074803">
<ele>807.774</ele>
<time>2020-09-11T14:57:45Z</time>
</trkpt>
<trkpt lat="47.586746" lon="11.074784">
<ele>807.604</ele>
<time>2020-09-11T14:57:46Z</time>
</trkpt>
<trkpt lat="47.586731" lon="11.074768">
<ele>807.437</ele>
<time>2020-09-11T14:57:47Z</time>
</trkpt>
<trkpt lat="47.586712" lon="11.074759">
<ele>807.286</ele>
<time>2020-09-11T14:57:48Z</time>
</trkpt>
<trkpt lat="47.586681" lon="11.074757">
<ele>807.16</ele>
<time>2020-09-11T14:57:49Z</time>
</trkpt>
<trkpt lat="47.586647" lon="11.074763">
<ele>807.079</ele>
<time>2020-09-11T14:57:50Z</time>
</trkpt>
<trkpt lat="47.586613" lon="11.07478">
<ele>807.05</ele>
<time>2020-09-11T14:57:51Z</time>
</trkpt>
<trkpt lat="47.586575" lon="11.074801">
<ele>807.045</ele>
<time>2020-09-11T14:57:52Z</time>
</trkpt>
<trkpt lat="47.586533" lon="11.074824">
<ele>807.046</ele>
<time>2020-09-11T14:57:53Z</time>
</trkpt>
<trkpt lat="47.586487" lon="11.074848">
<ele>807.046</ele>
<time>2020-09-11T14:57:54Z</time>
</trkpt>
<trkpt lat="47.586441" lon="11.074872">
<ele>807.046</ele>
<time>2020-09-11T14:57:55Z</time>
</trkpt>
<trkpt lat="47.586388" lon="11.074898">
<ele>807.046</ele>
<time>2020-09-11T14:57:56Z</time>
</trkpt>
<trkpt lat="47.586342" lon="11.074923">
<ele>807.046</ele>
<time>2020-09-11T14:57:57Z</time>
</trkpt>
<trkpt lat="47.586288" lon="11.074948">
<ele>807.046</ele>
<time>2020-09-11T14:57:58Z</time>
</trkpt>
<trkpt lat="47.586235" lon="11.074971">
<ele>807.046</ele>
<time>2020-09-11T14:57:59Z</time>
</trkpt>
<trkpt lat="47.586185" lon="11.074995">
<ele>807.046</ele>
<time>2020-09-11T14:58:00Z</time>
</trkpt>
<trkpt lat="47.586128" lon="11.075017">
<ele>807.046</ele>
<time>2020-09-11T14:58:01Z</time>
</trkpt>
<trkpt lat="47.586075" lon="11.075035">
<ele>807.046</ele>
<time>2020-09-11T14:58:02Z</time>
</trkpt>
<trkpt lat="47.586021" lon="11.075053">
<ele>807.046</ele>
<time>2020-09-11T14:58:03Z</time>
</trkpt>
<trkpt lat="47.585964" lon="11.075068">
<ele>807.046</ele>
<time>2020-09-11T14:58:04Z</time>
</trkpt>
<trkpt lat="47.585907" lon="11.075082">
<ele>807.046</ele>
<time>2020-09-11T14:58:05Z</time>
</trkpt>
<trkpt lat="47.58585" lon="11.075093">
<ele>807.046</ele>
<time>2020-09-11T14:58:06Z</time>
</trkpt>
<trkpt lat="47.585796" lon="11.075105">
<ele>807.046</ele>
<time>2020-09-11T14:58:07Z</time>
</trkpt>
<trkpt lat="47.585735" lon="11.075115">
<ele>807.046</ele>
<time>2020-09-11T14:58:08Z</time>
</trkpt>
<trkpt lat="47.585678" lon="11.075124">
<ele>807.045</ele>
<time>2020-09-11T14:58:09Z</time>
</trkpt>
<trkpt lat="47.585617" lon="11.07513">
<ele>807.046</ele>
<time>2020-09-11T14:58:10Z</time>
</trkpt>
<trkpt lat="47.58556" lon="11.075134">
<ele>807.046</ele>
<time>2020-09-11T14:58:11Z</time>
</trkpt>
<trkpt lat="47.585503" lon="11.07514">
<ele>807.046</ele>
<time>2020-09-11T14:58:12Z</time>
</trkpt>
<trkpt lat="47.585438" lon="11.075143">
<ele>807.046</ele>
<time>2020-09-11T14:58:13Z</time>
</trkpt>
<trkpt lat="47.585377" lon="11.075147">
<ele>807.046</ele>
<time>2020-09-11T14:58:14Z</time>
</trkpt>
<trkpt lat="47.585316" lon="11.075149">
<ele>807.045</ele>
<time>2020-09-11T14:58:15Z</time>
</trkpt>
<trkpt lat="47.585255" lon="11.075149">
<ele>807.046</ele>
<time>2020-09-11T14:58:16Z</time>
</trkpt>
<trkpt lat="47.585194" lon="11.075145">
<ele>807.046</ele>
<time>2020-09-11T14:58:17Z</time>
</trkpt>
<trkpt lat="47.585133" lon="11.07514">
<ele>807.046</ele>
<time>2020-09-11T14:58:18Z</time>
</trkpt>
<trkpt lat="47.585075" lon="11.075136">
<ele>807.045</ele>
<time>2020-09-11T14:58:19Z</time>
</trkpt>
<trkpt lat="47.585014" lon="11.075131">
<ele>807.046</ele>
<time>2020-09-11T14:58:20Z</time>
</trkpt>
<trkpt lat="47.584953" lon="11.075126">
<ele>807.046</ele>
<time>2020-09-11T14:58:21Z</time>
</trkpt>
<trkpt lat="47.584896" lon="11.075115">
<ele>807.045</ele>
<time>2020-09-11T14:58:22Z</time>
</trkpt>
<trkpt lat="47.584835" lon="11.075107">
<ele>807.046</ele>
<time>2020-09-11T14:58:23Z</time>
</trkpt>
<trkpt lat="47.584778" lon="11.075096">
<ele>807.046</ele>
<time>2020-09-11T14:58:24Z</time>
</trkpt>
<trkpt lat="47.584721" lon="11.075087">
<ele>807.046</ele>
<time>2020-09-11T14:58:25Z</time>
</trkpt>
<trkpt lat="47.58466" lon="11.075075">
<ele>807.046</ele>
<time>2020-09-11T14:58:26Z</time>
</trkpt>
<trkpt lat="47.584602" lon="11.075063">
<ele>807.046</ele>
<time>2020-09-11T14:58:27Z</time>
</trkpt>
<trkpt lat="47.584545" lon="11.075048">
<ele>807.045</ele>
<time>2020-09-11T14:58:28Z</time>
</trkpt>
<trkpt lat="47.584484" lon="11.075033">
<ele>807.045</ele>
<time>2020-09-11T14:58:29Z</time>
</trkpt>
<trkpt lat="47.584427" lon="11.075019">
<ele>807.045</ele>
<time>2020-09-11T14:58:30Z</time>
</trkpt>
<trkpt lat="47.584366" lon="11.075002">
<ele>807.046</ele>
<time>2020-09-11T14:58:31Z</time>
</trkpt>
<trkpt lat="47.584309" lon="11.074986">
<ele>807.046</ele>
<time>2020-09-11T14:58:32Z</time>
</trkpt>
<trkpt lat="47.584251" lon="11.074968">
<ele>807.046</ele>
<time>2020-09-11T14:58:33Z</time>
</trkpt>
<trkpt lat="47.584194" lon="11.07495">
<ele>807.045</ele>
<time>2020-09-11T14:58:34Z</time>
</trkpt>
<trkpt lat="47.584133" lon="11.07493">
<ele>807.046</ele>
<time>2020-09-11T14:58:35Z</time>
</trkpt>
<trkpt lat="47.584072" lon="11.074908">
<ele>807.046</ele>
<time>2020-09-11T14:58:36Z</time>
</trkpt>
<trkpt lat="47.584015" lon="11.074887">
<ele>807.045</ele>
<time>2020-09-11T14:58:37Z</time>
</trkpt>
<trkpt lat="47.583958" lon="11.074865">
<ele>807.046</ele>
<time>2020-09-11T14:58:38Z</time>
</trkpt>
<trkpt lat="47.5839" lon="11.074843">
<ele>807.046</ele>
<time>2020-09-11T14:58:39Z</time>
</trkpt>
<trkpt lat="47.583843" lon="11.07482">
<ele>807.046</ele>
<time>2020-09-11T14:58:40Z</time>
</trkpt>
<trkpt lat="47.58379" lon="11.074795">
<ele>807.046</ele>
<time>2020-09-11T14:58:41Z</time>
</trkpt>
<trkpt lat="47.583736" lon="11.074772">
<ele>807.114</ele>
<time>2020-09-11T14:58:42Z</time>
</trkpt>
<trkpt lat="47.583679" lon="11.074749">
<ele>807.168</ele>
<time>2020-09-11T14:58:43Z</time>
</trkpt>
<trkpt lat="47.583618" lon="11.074725">
<ele>807.21</ele>
<time>2020-09-11T14:58:44Z</time>
</trkpt>
<trkpt lat="47.583561" lon="11.0747">
<ele>807.247</ele>
<time>2020-09-11T14:58:45Z</time>
</trkpt>
<trkpt lat="47.583504" lon="11.074674">
<ele>807.275</ele>
<time>2020-09-11T14:58:46Z</time>
</trkpt>
<trkpt lat="47.583443" lon="11.074645">
<ele>807.295</ele>
<time>2020-09-11T14:58:47Z</time>
</trkpt>
<trkpt lat="47.583385" lon="11.074616">
<ele>807.309</ele>
<time>2020-09-11T14:58:48Z</time>
</trkpt>
<trkpt lat="47.583321" lon="11.074587">
<ele>807.315</ele>
<time>2020-09-11T14:58:49Z</time>
</trkpt>
<trkpt lat="47.583263" lon="11.074556">
<ele>807.315</ele>
<time>2020-09-11T14:58:50Z</time>
</trkpt>
<trkpt lat="47.583206" lon="11.074529">
<ele>807.315</ele>
<time>2020-09-11T14:58:51Z</time>
</trkpt>
<trkpt lat="47.583149" lon="11.074502">
<ele>807.315</ele>
<time>2020-09-11T14:58:52Z</time>
</trkpt>
<trkpt lat="47.583092" lon="11.074474">
<ele>807.315</ele>
<time>2020-09-11T14:58:53Z</time>
</trkpt>
<trkpt lat="47.583031" lon="11.074447">
<ele>807.315</ele>
<time>2020-09-11T14:58:54Z</time>
</trkpt>
<trkpt lat="47.582973" lon="11.074418">
<ele>807.315</ele>
<time>2020-09-11T14:58:55Z</time>
</trkpt>
<trkpt lat="47.58292" lon="11.07439">
<ele>807.315</ele>
<time>2020-09-11T14:58:56Z</time>
</trkpt>
<trkpt lat="47.582863" lon="11.07436">
<ele>807.315</ele>
<time>2020-09-11T14:58:57Z</time>
</trkpt>
<trkpt lat="47.582806" lon="11.074331">
<ele>807.315</ele>
<time>2020-09-11T14:58:58Z</time>
</trkpt>
<trkpt lat="47.582748" lon="11.074302">
<ele>807.315</ele>
<time>2020-09-11T14:58:59Z</time>
</trkpt>
<trkpt lat="47.582695" lon="11.074277">
<ele>807.315</ele>
<time>2020-09-11T14:59:00Z</time>
</trkpt>
<trkpt lat="47.582638" lon="11.07425">
<ele>807.574</ele>
<time>2020-09-11T14:59:01Z</time>
</trkpt>
<trkpt lat="47.582584" lon="11.074226">
<ele>807.777</ele>
<time>2020-09-11T14:59:02Z</time>
</trkpt>
<trkpt lat="47.582535" lon="11.074203">
<ele>807.936</ele>
<time>2020-09-11T14:59:03Z</time>
</trkpt>
<trkpt lat="47.582481" lon="11.074181">
<ele>808.052</ele>
<time>2020-09-11T14:59:04Z</time>
</trkpt>
<trkpt lat="47.582428" lon="11.074156">
<ele>808.135</ele>
<time>2020-09-11T14:59:05Z</time>
</trkpt>
<trkpt lat="47.582375" lon="11.07413">
<ele>808.221</ele>
<time>2020-09-11T14:59:06Z</time>
</trkpt>
<trkpt lat="47.582321" lon="11.07411">
<ele>808.277</ele>
<time>2020-09-11T14:59:07Z</time>
</trkpt>
<trkpt lat="47.582268" lon="11.07409">
<ele>808.304</ele>
<time>2020-09-11T14:59:08Z</time>
</trkpt>
<trkpt lat="47.582207" lon="11.074068">
<ele>808.304</ele>
<time>2020-09-11T14:59:09Z</time>
</trkpt>
<trkpt lat="47.582142" lon="11.074045">
<ele>808.304</ele>
<time>2020-09-11T14:59:10Z</time>
</trkpt>
<trkpt lat="47.582081" lon="11.074023">
<ele>808.304</ele>
<time>2020-09-11T14:59:11Z</time>
</trkpt>
<trkpt lat="47.582016" lon="11.074007">
<ele>808.304</ele>
<time>2020-09-11T14:59:12Z</time>
</trkpt>
<trkpt lat="47.581955" lon="11.07399">
<ele>808.605</ele>
<time>2020-09-11T14:59:13Z</time>
</trkpt>
<trkpt lat="47.58189" lon="11.073978">
<ele>808.84</ele>
<time>2020-09-11T14:59:14Z</time>
</trkpt>
<trkpt lat="47.581825" lon="11.07397">
<ele>808.803</ele>
<time>2020-09-11T14:59:15Z</time>
</trkpt>
<trkpt lat="47.58176" lon="11.073965">
<ele>808.762</ele>
<time>2020-09-11T14:59:16Z</time>
</trkpt>
<trkpt lat="47.581696" lon="11.07396">
<ele>808.721</ele>
<time>2020-09-11T14:59:17Z</time>
</trkpt>
<trkpt lat="47.581627" lon="11.07396">
<ele>808.681</ele>
<time>2020-09-11T14:59:18Z</time>
</trkpt>
<trkpt lat="47.581558" lon="11.073961">
<ele>808.638</ele>
<time>2020-09-11T14:59:19Z</time>
</trkpt>
<trkpt lat="47.581493" lon="11.073968">
<ele>808.593</ele>
<time>2020-09-11T14:59:20Z</time>
</trkpt>
<trkpt lat="47.581429" lon="11.073983">
<ele>808.551</ele>
<time>2020-09-11T14:59:21Z</time>
</trkpt>
<trkpt lat="47.581364" lon="11.073995">
<ele>808.505</ele>
<time>2020-09-11T14:59:22Z</time>
</trkpt>
<trkpt lat="47.581295" lon="11.07401">
<ele>808.483</ele>
<time>2020-09-11T14:59:23Z</time>
</trkpt>
<trkpt lat="47.58123" lon="11.07403">
<ele>808.483</ele>
<time>2020-09-11T14:59:24Z</time>
</trkpt>
<trkpt lat="47.581165" lon="11.074055">
<ele>808.483</ele>
<time>2020-09-11T14:59:25Z</time>
</trkpt>
<trkpt lat="47.5811" lon="11.074082">
<ele>808.483</ele>
<time>2020-09-11T14:59:26Z</time>
</trkpt>
<trkpt lat="47.581036" lon="11.074101">
<ele>808.483</ele>
<time>2020-09-11T14:59:27Z</time>
</trkpt>
<trkpt lat="47.580971" lon="11.074124">
<ele>808.483</ele>
<time>2020-09-11T14:59:28Z</time>
</trkpt>
<trkpt lat="47.580914" lon="11.074154">
<ele>808.483</ele>
<time>2020-09-11T14:59:29Z</time>
</trkpt>
<trkpt lat="47.580853" lon="11.074187">
<ele>808.483</ele>
<time>2020-09-11T14:59:30Z</time>
</trkpt>
<trkpt lat="47.580795" lon="11.074222">
<ele>808.483</ele>
<time>2020-09-11T14:59:31Z</time>
</trkpt>
<trkpt lat="47.580734" lon="11.074265">
<ele>808.483</ele>
<time>2020-09-11T14:59:32Z</time>
</trkpt>
<trkpt lat="47.580677" lon="11.074315">
<ele>808.483</ele>
<time>2020-09-11T14:59:33Z</time>
</trkpt>
<trkpt lat="47.580612" lon="11.074369">
<ele>808.704</ele>
<time>2020-09-11T14:59:34Z</time>
</trkpt>
<trkpt lat="47.580547" lon="11.074422">
<ele>808.861</ele>
<time>2020-09-11T14:59:35Z</time>
</trkpt>
<trkpt lat="47.580486" lon="11.074476">
<ele>809.027</ele>
<time>2020-09-11T14:59:36Z</time>
</trkpt>
<trkpt lat="47.580425" lon="11.074533">
<ele>809.156</ele>
<time>2020-09-11T14:59:37Z</time>
</trkpt>
<trkpt lat="47.580364" lon="11.074594">
<ele>809.251</ele>
<time>2020-09-11T14:59:38Z</time>
</trkpt>
<trkpt lat="47.580311" lon="11.074656">
<ele>809.319</ele>
<time>2020-09-11T14:59:39Z</time>
</trkpt>
<trkpt lat="47.580257" lon="11.074718">
<ele>809.361</ele>
<time>2020-09-11T14:59:40Z</time>
</trkpt>
<trkpt lat="47.580208" lon="11.074777">
<ele>809.382</ele>
<time>2020-09-11T14:59:41Z</time>
</trkpt>
<trkpt lat="47.580154" lon="11.074828">
<ele>809.382</ele>
<time>2020-09-11T14:59:42Z</time>
</trkpt>
<trkpt lat="47.580093" lon="11.074881">
<ele>809.382</ele>
<time>2020-09-11T14:59:43Z</time>
</trkpt>
<trkpt lat="47.58004" lon="11.074933">
<ele>809.382</ele>
<time>2020-09-11T14:59:44Z</time>
</trkpt>
<trkpt lat="47.579987" lon="11.074982">
<ele>809.382</ele>
<time>2020-09-11T14:59:45Z</time>
</trkpt>
<trkpt lat="47.579933" lon="11.075031">
<ele>809.382</ele>
<time>2020-09-11T14:59:46Z</time>
</trkpt>
<trkpt lat="47.579884" lon="11.07509">
<ele>809.382</ele>
<time>2020-09-11T14:59:47Z</time>
</trkpt>
<trkpt lat="47.57983" lon="11.07514">
<ele>809.382</ele>
<time>2020-09-11T14:59:48Z</time>
</trkpt>
<trkpt lat="47.579777" lon="11.075187">
<ele>809.382</ele>
<time>2020-09-11T14:59:49Z</time>
</trkpt>
<trkpt lat="47.579727" lon="11.07524">
<ele>809.382</ele>
<time>2020-09-11T14:59:50Z</time>
</trkpt>
<trkpt lat="47.579678" lon="11.075292">
<ele>809.382</ele>
<time>2020-09-11T14:59:51Z</time>
</trkpt>
<trkpt lat="47.579632" lon="11.075337">
<ele>809.382</ele>
<time>2020-09-11T14:59:52Z</time>
</trkpt>
<trkpt lat="47.579586" lon="11.075381">
<ele>809.382</ele>
<time>2020-09-11T14:59:53Z</time>
</trkpt>
<trkpt lat="47.579536" lon="11.07543">
<ele>809.382</ele>
<time>2020-09-11T14:59:54Z</time>
</trkpt>
<trkpt lat="47.579475" lon="11.07548">
<ele>809.382</ele>
<time>2020-09-11T14:59:55Z</time>
</trkpt>
<trkpt lat="47.579426" lon="11.07553">
<ele>809.382</ele>
<time>2020-09-11T14:59:56Z</time>
</trkpt>
<trkpt lat="47.579376" lon="11.075584">
<ele>809.382</ele>
<time>2020-09-11T14:59:57Z</time>
</trkpt>
<trkpt lat="47.579323" lon="11.075645">
<ele>809.382</ele>
<time>2020-09-11T14:59:58Z</time>
</trkpt>
<trkpt lat="47.579269" lon="11.075702">
<ele>809.382</ele>
<time>2020-09-11T14:59:59Z</time>
</trkpt>
<trkpt lat="47.579212" lon="11.075755">
<ele>809.382</ele>
<time>2020-09-11T15:00:00Z</time>
</trkpt>
<trkpt lat="47.579163" lon="11.075811">
<ele>809.382</ele>
<time>2020-09-11T15:00:01Z</time>
</trkpt>
<trkpt lat="47.579113" lon="11.075867">
<ele>809.382</ele>
<time>2020-09-11T15:00:02Z</time>
</trkpt>
<trkpt lat="47.579056" lon="11.075922">
<ele>809.382</ele>
<time>2020-09-11T15:00:03Z</time>
</trkpt>
<trkpt lat="47.579002" lon="11.075978">
<ele>809.382</ele>
<time>2020-09-11T15:00:04Z</time>
</trkpt>
<trkpt lat="47.578945" lon="11.076038">
<ele>809.382</ele>
<time>2020-09-11T15:00:05Z</time>
</trkpt>
<trkpt lat="47.578888" lon="11.076102">
<ele>809.382</ele>
<time>2020-09-11T15:00:06Z</time>
</trkpt>
<trkpt lat="47.578831" lon="11.076167">
<ele>809.382</ele>
<time>2020-09-11T15:00:07Z</time>
</trkpt>
<trkpt lat="47.578773" lon="11.076225">
<ele>809.382</ele>
<time>2020-09-11T15:00:08Z</time>
</trkpt>
<trkpt lat="47.578716" lon="11.076286">
<ele>809.382</ele>
<time>2020-09-11T15:00:09Z</time>
</trkpt>
<trkpt lat="47.578659" lon="11.076342">
<ele>809.382</ele>
<time>2020-09-11T15:00:10Z</time>
</trkpt>
<trkpt lat="47.578594" lon="11.076393">
<ele>809.382</ele>
<time>2020-09-11T15:00:11Z</time>
</trkpt>
<trkpt lat="47.578526" lon="11.07644">
<ele>809.382</ele>
<time>2020-09-11T15:00:12Z</time>
</trkpt>
<trkpt lat="47.578442" lon="11.076493">
<ele>809.382</ele>
<time>2020-09-11T15:00:13Z</time>
</trkpt>
<trkpt lat="47.578362" lon="11.07654">
<ele>809.382</ele>
<time>2020-09-11T15:00:14Z</time>
</trkpt>
<trkpt lat="47.578289" lon="11.076578">
<ele>809.382</ele>
<time>2020-09-11T15:00:15Z</time>
</trkpt>
<trkpt lat="47.578217" lon="11.076622">
<ele>809.382</ele>
<time>2020-09-11T15:00:16Z</time>
</trkpt>
<trkpt lat="47.578136" lon="11.076647">
<ele>809.382</ele>
<time>2020-09-11T15:00:17Z</time>
</trkpt>
<trkpt lat="47.578064" lon="11.076676">
<ele>809.382</ele>
<time>2020-09-11T15:00:18Z</time>
</trkpt>
<trkpt lat="47.577999" lon="11.076708">
<ele>809.382</ele>
<time>2020-09-11T15:00:19Z</time>
</trkpt>
<trkpt lat="47.57793" lon="11.076735">
<ele>809.382</ele>
<time>2020-09-11T15:00:20Z</time>
</trkpt>
<trkpt lat="47.577862" lon="11.076758">
<ele>809.484</ele>
<time>2020-09-11T15:00:21Z</time>
</trkpt>
<trkpt lat="47.577793" lon="11.076783">
<ele>809.567</ele>
<time>2020-09-11T15:00:22Z</time>
</trkpt>
<trkpt lat="47.577728" lon="11.076806">
<ele>809.631</ele>
<time>2020-09-11T15:00:23Z</time>
</trkpt>
<trkpt lat="47.577663" lon="11.076832">
<ele>809.677</ele>
<time>2020-09-11T15:00:24Z</time>
</trkpt>
<trkpt lat="47.577599" lon="11.076854">
<ele>809.706</ele>
<time>2020-09-11T15:00:25Z</time>
</trkpt>
<trkpt lat="47.577534" lon="11.076873">
<ele>809.729</ele>
<time>2020-09-11T15:00:26Z</time>
</trkpt>
<trkpt lat="47.577469" lon="11.076894">
<ele>809.74</ele>
<time>2020-09-11T15:00:27Z</time>
</trkpt>
<trkpt lat="47.577404" lon="11.076913">
<ele>809.741</ele>
<time>2020-09-11T15:00:28Z</time>
</trkpt>
<trkpt lat="47.577339" lon="11.076934">
<ele>809.741</ele>
<time>2020-09-11T15:00:29Z</time>
</trkpt>
<trkpt lat="47.577271" lon="11.076955">
<ele>809.741</ele>
<time>2020-09-11T15:00:30Z</time>
</trkpt>
<trkpt lat="47.577202" lon="11.07698">
<ele>809.741</ele>
<time>2020-09-11T15:00:31Z</time>
</trkpt>
<trkpt lat="47.577133" lon="11.077003">
<ele>809.741</ele>
<time>2020-09-11T15:00:32Z</time>
</trkpt>
<trkpt lat="47.577068" lon="11.077024">
<ele>809.741</ele>
<time>2020-09-11T15:00:33Z</time>
</trkpt>
<trkpt lat="47.577003" lon="11.077049">
<ele>809.741</ele>
<time>2020-09-11T15:00:34Z</time>
</trkpt>
<trkpt lat="47.576942" lon="11.077075">
<ele>809.741</ele>
<time>2020-09-11T15:00:35Z</time>
</trkpt>
<trkpt lat="47.576878" lon="11.0771">
<ele>809.741</ele>
<time>2020-09-11T15:00:36Z</time>
</trkpt>
<trkpt lat="47.57682" lon="11.077123">
<ele>809.741</ele>
<time>2020-09-11T15:00:37Z</time>
</trkpt>
<trkpt lat="47.576759" lon="11.077151">
<ele>809.741</ele>
<time>2020-09-11T15:00:38Z</time>
</trkpt>
<trkpt lat="47.576702" lon="11.077187">
<ele>809.741</ele>
<time>2020-09-11T15:00:39Z</time>
</trkpt>
<trkpt lat="47.576641" lon="11.077223">
<ele>809.741</ele>
<time>2020-09-11T15:00:40Z</time>
</trkpt>
<trkpt lat="47.576584" lon="11.077265">
<ele>809.741</ele>
<time>2020-09-11T15:00:41Z</time>
</trkpt>
<trkpt lat="47.57653" lon="11.077305">
<ele>809.741</ele>
<time>2020-09-11T15:00:42Z</time>
</trkpt>
<trkpt lat="47.576473" lon="11.077345">
<ele>809.741</ele>
<time>2020-09-11T15:00:43Z</time>
</trkpt>
<trkpt lat="47.57642" lon="11.077389">
<ele>809.958</ele>
<time>2020-09-11T15:00:44Z</time>
</trkpt>
<trkpt lat="47.576366" lon="11.077433">
<ele>810.115</ele>
<time>2020-09-11T15:00:45Z</time>
</trkpt>
<trkpt lat="47.576313" lon="11.077481">
<ele>810.274</ele>
<time>2020-09-11T15:00:46Z</time>
</trkpt>
<trkpt lat="47.57626" lon="11.07753">
<ele>810.402</ele>
<time>2020-09-11T15:00:47Z</time>
</trkpt>
<trkpt lat="47.576206" lon="11.077579">
<ele>810.501</ele>
<time>2020-09-11T15:00:48Z</time>
</trkpt>
<trkpt lat="47.576157" lon="11.077636">
<ele>810.572</ele>
<time>2020-09-11T15:00:49Z</time>
</trkpt>
<trkpt lat="47.576107" lon="11.07769">
<ele>810.619</ele>
<time>2020-09-11T15:00:50Z</time>
</trkpt>
<trkpt lat="47.576057" lon="11.077743">
<ele>810.64</ele>
<time>2020-09-11T15:00:51Z</time>
</trkpt>
<trkpt lat="47.576008" lon="11.077793">
<ele>810.64</ele>
<time>2020-09-11T15:00:52Z</time>
</trkpt>
<trkpt lat="47.575958" lon="11.077847">
<ele>810.64</ele>
<time>2020-09-11T15:00:53Z</time>
</trkpt>
<trkpt lat="47.575916" lon="11.077902">
<ele>810.64</ele>
<time>2020-09-11T15:00:54Z</time>
</trkpt>
<trkpt lat="47.575867" lon="11.077962">
<ele>810.64</ele>
<time>2020-09-11T15:00:55Z</time>
</trkpt>
<trkpt lat="47.575825" lon="11.078023">
<ele>810.64</ele>
<time>2020-09-11T15:00:56Z</time>
</trkpt>
<trkpt lat="47.575783" lon="11.07809">
<ele>810.64</ele>
<time>2020-09-11T15:00:57Z</time>
</trkpt>
<trkpt lat="47.575737" lon="11.078157">
<ele>810.64</ele>
<time>2020-09-11T15:00:58Z</time>
</trkpt>
<trkpt lat="47.575695" lon="11.078225">
<ele>810.64</ele>
<time>2020-09-11T15:00:59Z</time>
</trkpt>
<trkpt lat="47.575653" lon="11.078292">
<ele>810.64</ele>
<time>2020-09-11T15:01:00Z</time>
</trkpt>
<trkpt lat="47.575611" lon="11.078361">
<ele>810.64</ele>
<time>2020-09-11T15:01:01Z</time>
</trkpt>
<trkpt lat="47.575565" lon="11.078428">
<ele>810.64</ele>
<time>2020-09-11T15:01:02Z</time>
</trkpt>
<trkpt lat="47.575523" lon="11.078495">
<ele>810.64</ele>
<time>2020-09-11T15:01:03Z</time>
</trkpt>
<trkpt lat="47.575478" lon="11.078562">
<ele>810.64</ele>
<time>2020-09-11T15:01:04Z</time>
</trkpt>
<trkpt lat="47.575432" lon="11.07863">
<ele>810.64</ele>
<time>2020-09-11T15:01:05Z</time>
</trkpt>
<trkpt lat="47.57539" lon="11.078693">
<ele>810.64</ele>
<time>2020-09-11T15:01:06Z</time>
</trkpt>
<trkpt lat="47.575344" lon="11.078756">
<ele>810.64</ele>
<time>2020-09-11T15:01:07Z</time>
</trkpt>
<trkpt lat="47.575298" lon="11.078821">
<ele>810.64</ele>
<time>2020-09-11T15:01:08Z</time>
</trkpt>
<trkpt lat="47.575249" lon="11.078885">
<ele>810.64</ele>
<time>2020-09-11T15:01:09Z</time>
</trkpt>
<trkpt lat="47.575203" lon="11.078948">
<ele>810.64</ele>
<time>2020-09-11T15:01:10Z</time>
</trkpt>
<trkpt lat="47.575153" lon="11.079014">
<ele>810.64</ele>
<time>2020-09-11T15:01:11Z</time>
</trkpt>
<trkpt lat="47.575104" lon="11.079073">
<ele>810.64</ele>
<time>2020-09-11T15:01:12Z</time>
</trkpt>
<trkpt lat="47.575058" lon="11.079128">
<ele>810.64</ele>
<time>2020-09-11T15:01:13Z</time>
</trkpt>
<trkpt lat="47.575008" lon="11.079184">
<ele>810.64</ele>
<time>2020-09-11T15:01:14Z</time>
</trkpt>
<trkpt lat="47.574955" lon="11.079237">
<ele>810.64</ele>
<time>2020-09-11T15:01:15Z</time>
</trkpt>
<trkpt lat="47.574905" lon="11.079287">
<ele>810.64</ele>
<time>2020-09-11T15:01:16Z</time>
</trkpt>
<trkpt lat="47.574848" lon="11.079335">
<ele>810.64</ele>
<time>2020-09-11T15:01:17Z</time>
</trkpt>
<trkpt lat="47.574795" lon="11.079383">
<ele>810.64</ele>
<time>2020-09-11T15:01:18Z</time>
</trkpt>
<trkpt lat="47.574738" lon="11.079432">
<ele>810.943</ele>
<time>2020-09-11T15:01:19Z</time>
</trkpt>
<trkpt lat="47.57468" lon="11.079478">
<ele>811.18</ele>
<time>2020-09-11T15:01:20Z</time>
</trkpt>
<trkpt lat="47.574627" lon="11.079521">
<ele>811.36</ele>
<time>2020-09-11T15:01:21Z</time>
</trkpt>
<trkpt lat="47.574574" lon="11.079561">
<ele>811.49</ele>
<time>2020-09-11T15:01:22Z</time>
</trkpt>
<trkpt lat="47.574516" lon="11.079601">
<ele>811.581</ele>
<time>2020-09-11T15:01:23Z</time>
</trkpt>
<trkpt lat="47.574459" lon="11.079638">
<ele>811.642</ele>
<time>2020-09-11T15:01:24Z</time>
</trkpt>
<trkpt lat="47.574406" lon="11.079675">
<ele>811.689</ele>
<time>2020-09-11T15:01:25Z</time>
</trkpt>
<trkpt lat="47.574348" lon="11.079714">
<ele>811.719</ele>
<time>2020-09-11T15:01:26Z</time>
</trkpt>
<trkpt lat="47.574287" lon="11.07975">
<ele>811.719</ele>
<time>2020-09-11T15:01:27Z</time>
</trkpt>
<trkpt lat="47.57423" lon="11.079783">
<ele>811.719</ele>
<time>2020-09-11T15:01:28Z</time>
</trkpt>
<trkpt lat="47.574169" lon="11.079817">
<ele>811.719</ele>
<time>2020-09-11T15:01:29Z</time>
</trkpt>
<trkpt lat="47.574108" lon="11.07985">
<ele>811.719</ele>
<time>2020-09-11T15:01:30Z</time>
</trkpt>
<trkpt lat="47.574047" lon="11.07988">
<ele>811.719</ele>
<time>2020-09-11T15:01:31Z</time>
</trkpt>
<trkpt lat="47.573986" lon="11.07991">
<ele>811.719</ele>
<time>2020-09-11T15:01:32Z</time>
</trkpt>
<trkpt lat="47.573925" lon="11.079942">
<ele>811.719</ele>
<time>2020-09-11T15:01:33Z</time>
</trkpt>
<trkpt lat="47.57386" lon="11.079971">
<ele>811.719</ele>
<time>2020-09-11T15:01:34Z</time>
</trkpt>
<trkpt lat="47.573799" lon="11.08">
<ele>811.719</ele>
<time>2020-09-11T15:01:35Z</time>
</trkpt>
<trkpt lat="47.57373" lon="11.080027">
<ele>811.475</ele>
<time>2020-09-11T15:01:36Z</time>
</trkpt>
<trkpt lat="47.573666" lon="11.080057">
<ele>811.271</ele>
<time>2020-09-11T15:01:37Z</time>
</trkpt>
<trkpt lat="47.573597" lon="11.080085">
<ele>811.104</ele>
<time>2020-09-11T15:01:38Z</time>
</trkpt>
<trkpt lat="47.573528" lon="11.080112">
<ele>810.972</ele>
<time>2020-09-11T15:01:39Z</time>
</trkpt>
<trkpt lat="47.57346" lon="11.080137">
<ele>810.871</ele>
<time>2020-09-11T15:01:40Z</time>
</trkpt>
<trkpt lat="47.573391" lon="11.080162">
<ele>810.798</ele>
<time>2020-09-11T15:01:41Z</time>
</trkpt>
<trkpt lat="47.573322" lon="11.080187">
<ele>810.752</ele>
<time>2020-09-11T15:01:42Z</time>
</trkpt>
<trkpt lat="47.57325" lon="11.080211">
<ele>810.73</ele>
<time>2020-09-11T15:01:43Z</time>
</trkpt>
<trkpt lat="47.573181" lon="11.080232">
<ele>810.73</ele>
<time>2020-09-11T15:01:44Z</time>
</trkpt>
<trkpt lat="47.573112" lon="11.080252">
<ele>810.73</ele>
<time>2020-09-11T15:01:45Z</time>
</trkpt>
<trkpt lat="47.57304" lon="11.080272">
<ele>810.73</ele>
<time>2020-09-11T15:01:46Z</time>
</trkpt>
<trkpt lat="47.572968" lon="11.080292">
<ele>810.73</ele>
<time>2020-09-11T15:01:47Z</time>
</trkpt>
<trkpt lat="47.572895" lon="11.08031">
<ele>810.73</ele>
<time>2020-09-11T15:01:48Z</time>
</trkpt>
<trkpt lat="47.572826" lon="11.080328">
<ele>810.73</ele>
<time>2020-09-11T15:01:49Z</time>
</trkpt>
<trkpt lat="47.572758" lon="11.080345">
<ele>810.438</ele>
<time>2020-09-11T15:01:50Z</time>
</trkpt>
<trkpt lat="47.572693" lon="11.080359">
<ele>810.208</ele>
<time>2020-09-11T15:01:51Z</time>
</trkpt>
<trkpt lat="47.572624" lon="11.080374">
<ele>810.034</ele>
<time>2020-09-11T15:01:52Z</time>
</trkpt>
<trkpt lat="47.572556" lon="11.080385">
<ele>809.907</ele>
<time>2020-09-11T15:01:53Z</time>
</trkpt>
<trkpt lat="47.572491" lon="11.080397">
<ele>809.813</ele>
<time>2020-09-11T15:01:54Z</time>
</trkpt>
<trkpt lat="47.572422" lon="11.080407">
<ele>809.743</ele>
<time>2020-09-11T15:01:55Z</time>
</trkpt>
<trkpt lat="47.572357" lon="11.080416">
<ele>809.681</ele>
<time>2020-09-11T15:01:56Z</time>
</trkpt>
<trkpt lat="47.572296" lon="11.080423">
<ele>809.651</ele>
<time>2020-09-11T15:01:57Z</time>
</trkpt>
<trkpt lat="47.572231" lon="11.08043">
<ele>809.651</ele>
<time>2020-09-11T15:01:58Z</time>
</trkpt>
<trkpt lat="47.572166" lon="11.080439">
<ele>809.651</ele>
<time>2020-09-11T15:01:59Z</time>
</trkpt>
<trkpt lat="47.572105" lon="11.080445">
<ele>809.651</ele>
<time>2020-09-11T15:02:00Z</time>
</trkpt>
<trkpt lat="47.572044" lon="11.080452">
<ele>809.651</ele>
<time>2020-09-11T15:02:01Z</time>
</trkpt>
<trkpt lat="47.571987" lon="11.080457">
<ele>809.651</ele>
<time>2020-09-11T15:02:02Z</time>
</trkpt>
<trkpt lat="47.57193" lon="11.080462">
<ele>809.651</ele>
<time>2020-09-11T15:02:03Z</time>
</trkpt>
<trkpt lat="47.571877" lon="11.080452">
<ele>809.651</ele>
<time>2020-09-11T15:02:04Z</time>
</trkpt>
<trkpt lat="47.571823" lon="11.08043">
<ele>809.651</ele>
<time>2020-09-11T15:02:05Z</time>
</trkpt>
<trkpt lat="47.57177" lon="11.080412">
<ele>809.651</ele>
<time>2020-09-11T15:02:06Z</time>
</trkpt>
<trkpt lat="47.571712" lon="11.08041">
<ele>809.651</ele>
<time>2020-09-11T15:02:07Z</time>
</trkpt>
<trkpt lat="47.571655" lon="11.080414">
<ele>809.651</ele>
<time>2020-09-11T15:02:08Z</time>
</trkpt>
<trkpt lat="47.571602" lon="11.08042">
<ele>809.651</ele>
<time>2020-09-11T15:02:09Z</time>
</trkpt>
<trkpt lat="47.571548" lon="11.080432">
<ele>809.651</ele>
<time>2020-09-11T15:02:10Z</time>
</trkpt>
<trkpt lat="47.571491" lon="11.080441">
<ele>809.651</ele>
<time>2020-09-11T15:02:11Z</time>
</trkpt>
<trkpt lat="47.571434" lon="11.080452">
<ele>809.651</ele>
<time>2020-09-11T15:02:12Z</time>
</trkpt>
<trkpt lat="47.571381" lon="11.080463">
<ele>809.651</ele>
<time>2020-09-11T15:02:13Z</time>
</trkpt>
<trkpt lat="47.571323" lon="11.080477">
<ele>809.651</ele>
<time>2020-09-11T15:02:14Z</time>
</trkpt>
<trkpt lat="47.571274" lon="11.08049">
<ele>809.871</ele>
<time>2020-09-11T15:02:15Z</time>
</trkpt>
<trkpt lat="47.571224" lon="11.080505">
<ele>810.077</ele>
<time>2020-09-11T15:02:16Z</time>
</trkpt>
<trkpt lat="47.571175" lon="11.080519">
<ele>810.247</ele>
<time>2020-09-11T15:02:17Z</time>
</trkpt>
<trkpt lat="47.571125" lon="11.080528">
<ele>810.382</ele>
<time>2020-09-11T15:02:18Z</time>
</trkpt>
<trkpt lat="47.571087" lon="11.08054">
<ele>810.486</ele>
<time>2020-09-11T15:02:19Z</time>
</trkpt>
<trkpt lat="47.571045" lon="11.080554">
<ele>810.563</ele>
<time>2020-09-11T15:02:20Z</time>
</trkpt>
<trkpt lat="47.571003" lon="11.080568">
<ele>810.615</ele>
<time>2020-09-11T15:02:21Z</time>
</trkpt>
<trkpt lat="47.570969" lon="11.080582">
<ele>810.64</ele>
<time>2020-09-11T15:02:22Z</time>
</trkpt>
<trkpt lat="47.570934" lon="11.080596">
<ele>810.912</ele>
<time>2020-09-11T15:02:23Z</time>
</trkpt>
<trkpt lat="47.570908" lon="11.080611">
<ele>811.13</ele>
<time>2020-09-11T15:02:24Z</time>
</trkpt>
<trkpt lat="47.570881" lon="11.080619">
<ele>811.294</ele>
<time>2020-09-11T15:02:25Z</time>
</trkpt>
<trkpt lat="47.570866" lon="11.080619">
<ele>811.463</ele>
<time>2020-09-11T15:02:26Z</time>
</trkpt>
<trkpt lat="47.570843" lon="11.080624">
<ele>811.595</ele>
<time>2020-09-11T15:02:27Z</time>
</trkpt>
<trkpt lat="47.570831" lon="11.08063">
<ele>811.697</ele>
<time>2020-09-11T15:02:28Z</time>
</trkpt>
<trkpt lat="47.570812" lon="11.080633">
<ele>811.769</ele>
<time>2020-09-11T15:02:29Z</time>
</trkpt>
<trkpt lat="47.570797" lon="11.080638">
<ele>811.809</ele>
<time>2020-09-11T15:02:30Z</time>
</trkpt>
<trkpt lat="47.570778" lon="11.08064">
<ele>811.809</ele>
<time>2020-09-11T15:02:31Z</time>
</trkpt>
<trkpt lat="47.570763" lon="11.080644">
<ele>811.809</ele>
<time>2020-09-11T15:02:32Z</time>
</trkpt>
<trkpt lat="47.57074" lon="11.080657">
<ele>811.809</ele>
<time>2020-09-11T15:02:33Z</time>
</trkpt>
<trkpt lat="47.570713" lon="11.080675">
<ele>811.809</ele>
<time>2020-09-11T15:02:34Z</time>
</trkpt>
<trkpt lat="47.570683" lon="11.080695">
<ele>811.809</ele>
<time>2020-09-11T15:02:35Z</time>
</trkpt>
<trkpt lat="47.570644" lon="11.080725">
<ele>811.809</ele>
<time>2020-09-11T15:02:36Z</time>
</trkpt>
<trkpt lat="47.57061" lon="11.080751">
<ele>811.809</ele>
<time>2020-09-11T15:02:37Z</time>
</trkpt>
<trkpt lat="47.570576" lon="11.080774">
<ele>811.809</ele>
<time>2020-09-11T15:02:38Z</time>
</trkpt>
<trkpt lat="47.570541" lon="11.080807">
<ele>811.809</ele>
<time>2020-09-11T15:02:39Z</time>
</trkpt>
<trkpt lat="47.570503" lon="11.080839">
<ele>811.809</ele>
<time>2020-09-11T15:02:40Z</time>
</trkpt>
<trkpt lat="47.570465" lon="11.080876">
<ele>811.809</ele>
<time>2020-09-11T15:02:41Z</time>
</trkpt>
<trkpt lat="47.570423" lon="11.08092">
<ele>811.809</ele>
<time>2020-09-11T15:02:42Z</time>
</trkpt>
<trkpt lat="47.570377" lon="11.080963">
<ele>811.809</ele>
<time>2020-09-11T15:02:43Z</time>
</trkpt>
<trkpt lat="47.570343" lon="11.080998">
<ele>811.809</ele>
<time>2020-09-11T15:02:44Z</time>
</trkpt>
<trkpt lat="47.570309" lon="11.081028">
<ele>812.039</ele>
<time>2020-09-11T15:02:45Z</time>
</trkpt>
<trkpt lat="47.570278" lon="11.081053">
<ele>812.243</ele>
<time>2020-09-11T15:02:46Z</time>
</trkpt>
<trkpt lat="47.570248" lon="11.08108">
<ele>812.403</ele>
<time>2020-09-11T15:02:47Z</time>
</trkpt>
<trkpt lat="47.570213" lon="11.08111">
<ele>812.533</ele>
<time>2020-09-11T15:02:48Z</time>
</trkpt>
<trkpt lat="47.570175" lon="11.081145">
<ele>812.636</ele>
<time>2020-09-11T15:02:49Z</time>
</trkpt>
<trkpt lat="47.570137" lon="11.081189">
<ele>812.715</ele>
<time>2020-09-11T15:02:50Z</time>
</trkpt>
<trkpt lat="47.570099" lon="11.08124">
<ele>812.769</ele>
<time>2020-09-11T15:02:51Z</time>
</trkpt>
<trkpt lat="47.570057" lon="11.081292">
<ele>812.798</ele>
<time>2020-09-11T15:02:52Z</time>
</trkpt>
<trkpt lat="47.570019" lon="11.08134">
<ele>812.798</ele>
<time>2020-09-11T15:02:53Z</time>
</trkpt>
<trkpt lat="47.569984" lon="11.081395">
<ele>812.798</ele>
<time>2020-09-11T15:02:54Z</time>
</trkpt>
<trkpt lat="47.56995" lon="11.08145">
<ele>812.798</ele>
<time>2020-09-11T15:02:55Z</time>
</trkpt>
<trkpt lat="47.56992" lon="11.081503">
<ele>812.798</ele>
<time>2020-09-11T15:02:56Z</time>
</trkpt>
<trkpt lat="47.569885" lon="11.081565">
<ele>812.798</ele>
<time>2020-09-11T15:02:57Z</time>
</trkpt>
<trkpt lat="47.569851" lon="11.081629">
<ele>813.112</ele>
<time>2020-09-11T15:02:58Z</time>
</trkpt>
<trkpt lat="47.569817" lon="11.081692">
<ele>813.355</ele>
<time>2020-09-11T15:02:59Z</time>
</trkpt>
<trkpt lat="47.56979" lon="11.081755">
<ele>813.537</ele>
<time>2020-09-11T15:03:00Z</time>
</trkpt>
<trkpt lat="47.569759" lon="11.081818">
<ele>813.675</ele>
<time>2020-09-11T15:03:01Z</time>
</trkpt>
<trkpt lat="47.569729" lon="11.081882">
<ele>813.769</ele>
<time>2020-09-11T15:03:02Z</time>
</trkpt>
<trkpt lat="47.569706" lon="11.081952">
<ele>813.827</ele>
<time>2020-09-11T15:03:03Z</time>
</trkpt>
<trkpt lat="47.569679" lon="11.082025">
<ele>813.853</ele>
<time>2020-09-11T15:03:04Z</time>
</trkpt>
<trkpt lat="47.569653" lon="11.0821">
<ele>813.876</ele>
<time>2020-09-11T15:03:05Z</time>
</trkpt>
<trkpt lat="47.569626" lon="11.082176">
<ele>813.876</ele>
<time>2020-09-11T15:03:06Z</time>
</trkpt>
<trkpt lat="47.569595" lon="11.082257">
<ele>813.876</ele>
<time>2020-09-11T15:03:07Z</time>
</trkpt>
<trkpt lat="47.569569" lon="11.082335">
<ele>813.876</ele>
<time>2020-09-11T15:03:08Z</time>
</trkpt>
<trkpt lat="47.569538" lon="11.082413">
<ele>813.876</ele>
<time>2020-09-11T15:03:09Z</time>
</trkpt>
<trkpt lat="47.569515" lon="11.082494">
<ele>813.876</ele>
<time>2020-09-11T15:03:10Z</time>
</trkpt>
<trkpt lat="47.569489" lon="11.082563">
<ele>813.876</ele>
<time>2020-09-11T15:03:11Z</time>
</trkpt>
<trkpt lat="47.569462" lon="11.082635">
<ele>813.876</ele>
<time>2020-09-11T15:03:12Z</time>
</trkpt>
<trkpt lat="47.569431" lon="11.082705">
<ele>813.876</ele>
<time>2020-09-11T15:03:13Z</time>
</trkpt>
<trkpt lat="47.569405" lon="11.082779">
<ele>813.876</ele>
<time>2020-09-11T15:03:14Z</time>
</trkpt>
<trkpt lat="47.569382" lon="11.082857">
<ele>813.876</ele>
<time>2020-09-11T15:03:15Z</time>
</trkpt>
<trkpt lat="47.569359" lon="11.082934">
<ele>813.876</ele>
<time>2020-09-11T15:03:16Z</time>
</trkpt>
<trkpt lat="47.569332" lon="11.083015">
<ele>813.876</ele>
<time>2020-09-11T15:03:17Z</time>
</trkpt>
<trkpt lat="47.569309" lon="11.083097">
<ele>814.164</ele>
<time>2020-09-11T15:03:18Z</time>
</trkpt>
<trkpt lat="47.56929" lon="11.083181">
<ele>814.391</ele>
<time>2020-09-11T15:03:19Z</time>
</trkpt>
<trkpt lat="47.569267" lon="11.083261">
<ele>814.558</ele>
<time>2020-09-11T15:03:20Z</time>
</trkpt>
<trkpt lat="47.569244" lon="11.083344">
<ele>814.679</ele>
<time>2020-09-11T15:03:21Z</time>
</trkpt>
<trkpt lat="47.569225" lon="11.083423">
<ele>814.763</ele>
<time>2020-09-11T15:03:22Z</time>
</trkpt>
<trkpt lat="47.569202" lon="11.083502">
<ele>814.815</ele>
<time>2020-09-11T15:03:23Z</time>
</trkpt>
<trkpt lat="47.56918" lon="11.083582">
<ele>814.843</ele>
<time>2020-09-11T15:03:24Z</time>
</trkpt>
<trkpt lat="47.569164" lon="11.083659">
<ele>814.865</ele>
<time>2020-09-11T15:03:25Z</time>
</trkpt>
<trkpt lat="47.569141" lon="11.08374">
<ele>814.865</ele>
<time>2020-09-11T15:03:26Z</time>
</trkpt>
<trkpt lat="47.569126" lon="11.083817">
<ele>814.865</ele>
<time>2020-09-11T15:03:27Z</time>
</trkpt>
<trkpt lat="47.569103" lon="11.083894">
<ele>814.865</ele>
<time>2020-09-11T15:03:28Z</time>
</trkpt>
<trkpt lat="47.569084" lon="11.083969">
<ele>814.865</ele>
<time>2020-09-11T15:03:29Z</time>
</trkpt>
<trkpt lat="47.569065" lon="11.084044">
<ele>815.131</ele>
<time>2020-09-11T15:03:30Z</time>
</trkpt>
<trkpt lat="47.569042" lon="11.084122">
<ele>815.342</ele>
<time>2020-09-11T15:03:31Z</time>
</trkpt>
<trkpt lat="47.569027" lon="11.084198">
<ele>815.503</ele>
<time>2020-09-11T15:03:32Z</time>
</trkpt>
<trkpt lat="47.569008" lon="11.084278">
<ele>815.624</ele>
<time>2020-09-11T15:03:33Z</time>
</trkpt>
<trkpt lat="47.568985" lon="11.084356">
<ele>815.708</ele>
<time>2020-09-11T15:03:34Z</time>
</trkpt>
<trkpt lat="47.56897" lon="11.084435">
<ele>815.772</ele>
<time>2020-09-11T15:03:35Z</time>
</trkpt>
<trkpt lat="47.568947" lon="11.084514">
<ele>815.827</ele>
<time>2020-09-11T15:03:36Z</time>
</trkpt>
<trkpt lat="47.568932" lon="11.084594">
<ele>815.854</ele>
<time>2020-09-11T15:03:37Z</time>
</trkpt>
<trkpt lat="47.568913" lon="11.084673">
<ele>815.854</ele>
<time>2020-09-11T15:03:38Z</time>
</trkpt>
<trkpt lat="47.568893" lon="11.084751">
<ele>815.854</ele>
<time>2020-09-11T15:03:39Z</time>
</trkpt>
<trkpt lat="47.568878" lon="11.08483">
<ele>815.854</ele>
<time>2020-09-11T15:03:40Z</time>
</trkpt>
<trkpt lat="47.568859" lon="11.084908">
<ele>815.854</ele>
<time>2020-09-11T15:03:41Z</time>
</trkpt>
<trkpt lat="47.568844" lon="11.084983">
<ele>816.084</ele>
<time>2020-09-11T15:03:42Z</time>
</trkpt>
<trkpt lat="47.568825" lon="11.08506">
<ele>816.265</ele>
<time>2020-09-11T15:03:43Z</time>
</trkpt>
<trkpt lat="47.56881" lon="11.085135">
<ele>816.404</ele>
<time>2020-09-11T15:03:44Z</time>
</trkpt>
<trkpt lat="47.568794" lon="11.08521">
<ele>816.501</ele>
<time>2020-09-11T15:03:45Z</time>
</trkpt>
<trkpt lat="47.568779" lon="11.085283">
<ele>816.605</ele>
<time>2020-09-11T15:03:46Z</time>
</trkpt>
<trkpt lat="47.56876" lon="11.085359">
<ele>816.681</ele>
<time>2020-09-11T15:03:47Z</time>
</trkpt>
<trkpt lat="47.568748" lon="11.085434">
<ele>816.728</ele>
<time>2020-09-11T15:03:48Z</time>
</trkpt>
<trkpt lat="47.568733" lon="11.085508">
<ele>816.992</ele>
<time>2020-09-11T15:03:49Z</time>
</trkpt>
<trkpt lat="47.568718" lon="11.085585">
<ele>817.247</ele>
<time>2020-09-11T15:03:50Z</time>
</trkpt>
<trkpt lat="47.568707" lon="11.085662">
<ele>817.409</ele>
<time>2020-09-11T15:03:51Z</time>
</trkpt>
<trkpt lat="47.568691" lon="11.085737">
<ele>817.531</ele>
<time>2020-09-11T15:03:52Z</time>
</trkpt>
<trkpt lat="47.568684" lon="11.085812">
<ele>817.616</ele>
<time>2020-09-11T15:03:53Z</time>
</trkpt>
<trkpt lat="47.568672" lon="11.085884">
<ele>817.673</ele>
<time>2020-09-11T15:03:54Z</time>
</trkpt>
<trkpt lat="47.568665" lon="11.085958">
<ele>817.716</ele>
<time>2020-09-11T15:03:55Z</time>
</trkpt>
<trkpt lat="47.568657" lon="11.086028">
<ele>817.743</ele>
<time>2020-09-11T15:03:56Z</time>
</trkpt>
<trkpt lat="47.568649" lon="11.086096">
<ele>818.033</ele>
<time>2020-09-11T15:03:57Z</time>
</trkpt>
<trkpt lat="47.568645" lon="11.086166">
<ele>818.258</ele>
<time>2020-09-11T15:03:58Z</time>
</trkpt>
<trkpt lat="47.568642" lon="11.086236">
<ele>818.432</ele>
<time>2020-09-11T15:03:59Z</time>
</trkpt>
<trkpt lat="47.568638" lon="11.086304">
<ele>818.537</ele>
<time>2020-09-11T15:04:00Z</time>
</trkpt>
<trkpt lat="47.568638" lon="11.08637">
<ele>818.891</ele>
<time>2020-09-11T15:04:01Z</time>
</trkpt>
<trkpt lat="47.568638" lon="11.086433">
<ele>819.156</ele>
<time>2020-09-11T15:04:02Z</time>
</trkpt>
<trkpt lat="47.568634" lon="11.086502">
<ele>819.341</ele>
<time>2020-09-11T15:04:03Z</time>
</trkpt>
<trkpt lat="47.56863" lon="11.086567">
<ele>819.469</ele>
<time>2020-09-11T15:04:04Z</time>
</trkpt>
<trkpt lat="47.568626" lon="11.086628">
<ele>819.553</ele>
<time>2020-09-11T15:04:05Z</time>
</trkpt>
<trkpt lat="47.568626" lon="11.086688">
<ele>819.851</ele>
<time>2020-09-11T15:04:06Z</time>
</trkpt>
<trkpt lat="47.56863" lon="11.086754">
<ele>820.09</ele>
<time>2020-09-11T15:04:07Z</time>
</trkpt>
<trkpt lat="47.568638" lon="11.086821">
<ele>820.271</ele>
<time>2020-09-11T15:04:08Z</time>
</trkpt>
<trkpt lat="47.568638" lon="11.086888">
<ele>820.393</ele>
<time>2020-09-11T15:04:09Z</time>
</trkpt>
<trkpt lat="47.568638" lon="11.086955">
<ele>820.488</ele>
<time>2020-09-11T15:04:10Z</time>
</trkpt>
<trkpt lat="47.568634" lon="11.087022">
<ele>820.555</ele>
<time>2020-09-11T15:04:11Z</time>
</trkpt>
<trkpt lat="47.568642" lon="11.087089">
<ele>820.6</ele>
<time>2020-09-11T15:04:12Z</time>
</trkpt>
<trkpt lat="47.568645" lon="11.087153">
<ele>820.622</ele>
<time>2020-09-11T15:04:13Z</time>
</trkpt>
<trkpt lat="47.568645" lon="11.08722">
<ele>820.622</ele>
<time>2020-09-11T15:04:14Z</time>
</trkpt>
<trkpt lat="47.568645" lon="11.087286">
<ele>820.622</ele>
<time>2020-09-11T15:04:15Z</time>
</trkpt>
<trkpt lat="47.568645" lon="11.087353">
<ele>820.622</ele>
<time>2020-09-11T15:04:16Z</time>
</trkpt>
<trkpt lat="47.568645" lon="11.08742">
<ele>820.622</ele>
<time>2020-09-11T15:04:17Z</time>
</trkpt>
<trkpt lat="47.568645" lon="11.087487">
<ele>820.622</ele>
<time>2020-09-11T15:04:18Z</time>
</trkpt>
<trkpt lat="47.568649" lon="11.087552">
<ele>820.622</ele>
<time>2020-09-11T15:04:19Z</time>
</trkpt>
<trkpt lat="47.568649" lon="11.08762">
<ele>820.622</ele>
<time>2020-09-11T15:04:20Z</time>
</trkpt>
<trkpt lat="47.568653" lon="11.087687">
<ele>820.885</ele>
<time>2020-09-11T15:04:21Z</time>
</trkpt>
<trkpt lat="47.568653" lon="11.087753">
<ele>821.089</ele>
<time>2020-09-11T15:04:22Z</time>
</trkpt>
<trkpt lat="47.568661" lon="11.087822">
<ele>821.247</ele>
<time>2020-09-11T15:04:23Z</time>
</trkpt>
<trkpt lat="47.568665" lon="11.08789">
<ele>821.365</ele>
<time>2020-09-11T15:04:24Z</time>
</trkpt>
<trkpt lat="47.568672" lon="11.08796">
<ele>821.447</ele>
<time>2020-09-11T15:04:25Z</time>
</trkpt>
<trkpt lat="47.568676" lon="11.088028">
<ele>821.532</ele>
<time>2020-09-11T15:04:26Z</time>
</trkpt>
<trkpt lat="47.56868" lon="11.088095">
<ele>821.586</ele>
<time>2020-09-11T15:04:27Z</time>
</trkpt>
<trkpt lat="47.568684" lon="11.088161">
<ele>821.611</ele>
<time>2020-09-11T15:04:28Z</time>
</trkpt>
<trkpt lat="47.568691" lon="11.088228">
<ele>821.611</ele>
<time>2020-09-11T15:04:29Z</time>
</trkpt>
<trkpt lat="47.568703" lon="11.088295">
<ele>821.611</ele>
<time>2020-09-11T15:04:30Z</time>
</trkpt>
<trkpt lat="47.568714" lon="11.088363">
<ele>821.871</ele>
<time>2020-09-11T15:04:31Z</time>
</trkpt>
<trkpt lat="47.568718" lon="11.088431">
<ele>822.076</ele>
<time>2020-09-11T15:04:32Z</time>
</trkpt>
<trkpt lat="47.568729" lon="11.088498">
<ele>822.233</ele>
<time>2020-09-11T15:04:33Z</time>
</trkpt>
<trkpt lat="47.568737" lon="11.088566">
<ele>822.354</ele>
<time>2020-09-11T15:04:34Z</time>
</trkpt>
<trkpt lat="47.568748" lon="11.088632">
<ele>822.438</ele>
<time>2020-09-11T15:04:35Z</time>
</trkpt>
<trkpt lat="47.568756" lon="11.088698">
<ele>822.519</ele>
<time>2020-09-11T15:04:36Z</time>
</trkpt>
<trkpt lat="47.568768" lon="11.088763">
<ele>822.815</ele>
<time>2020-09-11T15:04:37Z</time>
</trkpt>
<trkpt lat="47.568779" lon="11.088826">
<ele>823.042</ele>
<time>2020-09-11T15:04:38Z</time>
</trkpt>
<trkpt lat="47.568787" lon="11.088893">
<ele>823.293</ele>
<time>2020-09-11T15:04:39Z</time>
</trkpt>
<trkpt lat="47.568798" lon="11.088958">
<ele>823.404</ele>
<time>2020-09-11T15:04:40Z</time>
</trkpt>
<trkpt lat="47.56881" lon="11.089025">
<ele>823.764</ele>
<time>2020-09-11T15:04:41Z</time>
</trkpt>
<trkpt lat="47.568817" lon="11.089089">
<ele>824.03</ele>
<time>2020-09-11T15:04:42Z</time>
</trkpt>
<trkpt lat="47.568825" lon="11.089153">
<ele>824.215</ele>
<time>2020-09-11T15:04:43Z</time>
</trkpt>
<trkpt lat="47.568836" lon="11.089218">
<ele>824.332</ele>
<time>2020-09-11T15:04:44Z</time>
</trkpt>
<trkpt lat="47.568844" lon="11.089285">
<ele>824.417</ele>
<time>2020-09-11T15:04:45Z</time>
</trkpt>
<trkpt lat="47.568855" lon="11.08935">
<ele>824.499</ele>
<time>2020-09-11T15:04:46Z</time>
</trkpt>
<trkpt lat="47.568867" lon="11.089415">
<ele>824.794</ele>
<time>2020-09-11T15:04:47Z</time>
</trkpt>
<trkpt lat="47.568874" lon="11.089478">
<ele>825.023</ele>
<time>2020-09-11T15:04:48Z</time>
</trkpt>
<trkpt lat="47.568882" lon="11.08954">
<ele>825.278</ele>
<time>2020-09-11T15:04:49Z</time>
</trkpt>
<trkpt lat="47.56889" lon="11.089599">
<ele>825.386</ele>
<time>2020-09-11T15:04:50Z</time>
</trkpt>
<trkpt lat="47.568901" lon="11.089655">
<ele>825.74</ele>
<time>2020-09-11T15:04:51Z</time>
</trkpt>
<trkpt lat="47.568909" lon="11.089712">
<ele>826</ele>
<time>2020-09-11T15:04:52Z</time>
</trkpt>
<trkpt lat="47.568916" lon="11.089768">
<ele>826.184</ele>
<time>2020-09-11T15:04:53Z</time>
</trkpt>
<trkpt lat="47.568924" lon="11.089825">
<ele>826.277</ele>
<time>2020-09-11T15:04:54Z</time>
</trkpt>
<trkpt lat="47.568932" lon="11.08988">
<ele>826.603</ele>
<time>2020-09-11T15:04:55Z</time>
</trkpt>
<trkpt lat="47.568943" lon="11.089933">
<ele>826.896</ele>
<time>2020-09-11T15:04:56Z</time>
</trkpt>
<trkpt lat="47.568947" lon="11.089984">
<ele>827.125</ele>
<time>2020-09-11T15:04:57Z</time>
</trkpt>
<trkpt lat="47.568958" lon="11.090033">
<ele>827.292</ele>
<time>2020-09-11T15:04:58Z</time>
</trkpt>
<trkpt lat="47.568962" lon="11.090083">
<ele>827.398</ele>
<time>2020-09-11T15:04:59Z</time>
</trkpt>
<trkpt lat="47.568974" lon="11.090134">
<ele>827.466</ele>
<time>2020-09-11T15:05:00Z</time>
</trkpt>
<trkpt lat="47.568981" lon="11.090185">
<ele>827.759</ele>
<time>2020-09-11T15:05:01Z</time>
</trkpt>
<trkpt lat="47.568993" lon="11.090237">
<ele>827.988</ele>
<time>2020-09-11T15:05:02Z</time>
</trkpt>
<trkpt lat="47.569" lon="11.09029">
<ele>828.174</ele>
<time>2020-09-11T15:05:03Z</time>
</trkpt>
<trkpt lat="47.569008" lon="11.090343">
<ele>828.294</ele>
<time>2020-09-11T15:05:04Z</time>
</trkpt>
<trkpt lat="47.569019" lon="11.090397">
<ele>828.379</ele>
<time>2020-09-11T15:05:05Z</time>
</trkpt>
<trkpt lat="47.569027" lon="11.090448">
<ele>828.463</ele>
<time>2020-09-11T15:05:06Z</time>
</trkpt>
<trkpt lat="47.569031" lon="11.090502">
<ele>828.515</ele>
<time>2020-09-11T15:05:07Z</time>
</trkpt>
<trkpt lat="47.569038" lon="11.090553">
<ele>828.783</ele>
<time>2020-09-11T15:05:08Z</time>
</trkpt>
<trkpt lat="47.569046" lon="11.090605">
<ele>829.048</ele>
<time>2020-09-11T15:05:09Z</time>
</trkpt>
<trkpt lat="47.569054" lon="11.090655">
<ele>829.22</ele>
<time>2020-09-11T15:05:10Z</time>
</trkpt>
<trkpt lat="47.569065" lon="11.090707">
<ele>829.337</ele>
<time>2020-09-11T15:05:11Z</time>
</trkpt>
<trkpt lat="47.569073" lon="11.090758">
<ele>829.424</ele>
<time>2020-09-11T15:05:12Z</time>
</trkpt>
<trkpt lat="47.569077" lon="11.09081">
<ele>829.475</ele>
<time>2020-09-11T15:05:13Z</time>
</trkpt>
<trkpt lat="47.569088" lon="11.090862">
<ele>829.747</ele>
<time>2020-09-11T15:05:14Z</time>
</trkpt>
<trkpt lat="47.569096" lon="11.090912">
<ele>829.944</ele>
<time>2020-09-11T15:05:15Z</time>
</trkpt>
<trkpt lat="47.569103" lon="11.090963">
<ele>830.121</ele>
<time>2020-09-11T15:05:16Z</time>
</trkpt>
<trkpt lat="47.569107" lon="11.091015">
<ele>830.262</ele>
<time>2020-09-11T15:05:17Z</time>
</trkpt>
<trkpt lat="47.569115" lon="11.091067">
<ele>830.371</ele>
<time>2020-09-11T15:05:18Z</time>
</trkpt>
<trkpt lat="47.569122" lon="11.091117">
<ele>830.448</ele>
<time>2020-09-11T15:05:19Z</time>
</trkpt>
<trkpt lat="47.56913" lon="11.091166">
<ele>830.495</ele>
<time>2020-09-11T15:05:20Z</time>
</trkpt>
<trkpt lat="47.569138" lon="11.091216">
<ele>830.741</ele>
<time>2020-09-11T15:05:21Z</time>
</trkpt>
<trkpt lat="47.569145" lon="11.091267">
<ele>830.946</ele>
<time>2020-09-11T15:05:22Z</time>
</trkpt>
<trkpt lat="47.569153" lon="11.091315">
<ele>831.09</ele>
<time>2020-09-11T15:05:23Z</time>
</trkpt>
<trkpt lat="47.569157" lon="11.091365">
<ele>831.196</ele>
<time>2020-09-11T15:05:24Z</time>
</trkpt>
<trkpt lat="47.56916" lon="11.091413">
<ele>831.272</ele>
<time>2020-09-11T15:05:25Z</time>
</trkpt>
<trkpt lat="47.569164" lon="11.091463">
<ele>831.588</ele>
<time>2020-09-11T15:05:26Z</time>
</trkpt>
<trkpt lat="47.569168" lon="11.091512">
<ele>831.839</ele>
<time>2020-09-11T15:05:27Z</time>
</trkpt>
<trkpt lat="47.569168" lon="11.091561">
<ele>832.029</ele>
<time>2020-09-11T15:05:28Z</time>
</trkpt>
<trkpt lat="47.569168" lon="11.09161">
<ele>832.162</ele>
<time>2020-09-11T15:05:29Z</time>
</trkpt>
<trkpt lat="47.569168" lon="11.09166">
<ele>832.267</ele>
<time>2020-09-11T15:05:30Z</time>
</trkpt>
<trkpt lat="47.569168" lon="11.091708">
<ele>832.343</ele>
<time>2020-09-11T15:05:31Z</time>
</trkpt>
<trkpt lat="47.56916" lon="11.091759">
<ele>832.386</ele>
<time>2020-09-11T15:05:32Z</time>
</trkpt>
<trkpt lat="47.56916" lon="11.091808">
<ele>832.678</ele>
<time>2020-09-11T15:05:33Z</time>
</trkpt>
<trkpt lat="47.569153" lon="11.091857">
<ele>832.898</ele>
<time>2020-09-11T15:05:34Z</time>
</trkpt>
<trkpt lat="47.569149" lon="11.091908">
<ele>833.046</ele>
<time>2020-09-11T15:05:35Z</time>
</trkpt>
<trkpt lat="47.569141" lon="11.091955">
<ele>833.203</ele>
<time>2020-09-11T15:05:36Z</time>
</trkpt>
<trkpt lat="47.569138" lon="11.092004">
<ele>833.326</ele>
<time>2020-09-11T15:05:37Z</time>
</trkpt>
<trkpt lat="47.56913" lon="11.092052">
<ele>833.412</ele>
<time>2020-09-11T15:05:38Z</time>
</trkpt>
<trkpt lat="47.569118" lon="11.0921">
<ele>833.466</ele>
<time>2020-09-11T15:05:39Z</time>
</trkpt>
<trkpt lat="47.569115" lon="11.092152">
<ele>833.736</ele>
<time>2020-09-11T15:05:40Z</time>
</trkpt>
<trkpt lat="47.569107" lon="11.092201">
<ele>833.974</ele>
<time>2020-09-11T15:05:41Z</time>
</trkpt>
<trkpt lat="47.569099" lon="11.092249">
<ele>834.135</ele>
<time>2020-09-11T15:05:42Z</time>
</trkpt>
<trkpt lat="47.569088" lon="11.092291">
<ele>834.227</ele>
<time>2020-09-11T15:05:43Z</time>
</trkpt>
<trkpt lat="47.569077" lon="11.09233">
<ele>834.541</ele>
<time>2020-09-11T15:05:44Z</time>
</trkpt>
<trkpt lat="47.569069" lon="11.092368">
<ele>834.775</ele>
<time>2020-09-11T15:05:45Z</time>
</trkpt>
<trkpt lat="47.569057" lon="11.092406">
<ele>834.985</ele>
<time>2020-09-11T15:05:46Z</time>
</trkpt>
<trkpt lat="47.569046" lon="11.092446">
<ele>835.138</ele>
<time>2020-09-11T15:05:47Z</time>
</trkpt>
<trkpt lat="47.569035" lon="11.092486">
<ele>835.237</ele>
<time>2020-09-11T15:05:48Z</time>
</trkpt>
<trkpt lat="47.569023" lon="11.092528">
<ele>835.305</ele>
<time>2020-09-11T15:05:49Z</time>
</trkpt>
<trkpt lat="47.569008" lon="11.092569">
<ele>835.599</ele>
<time>2020-09-11T15:05:50Z</time>
</trkpt>
<trkpt lat="47.568996" lon="11.092611">
<ele>835.834</ele>
<time>2020-09-11T15:05:51Z</time>
</trkpt>
<trkpt lat="47.568977" lon="11.092651">
<ele>836.04</ele>
<time>2020-09-11T15:05:52Z</time>
</trkpt>
<trkpt lat="47.568962" lon="11.092689">
<ele>836.152</ele>
<time>2020-09-11T15:05:53Z</time>
</trkpt>
<trkpt lat="47.568947" lon="11.092727">
<ele>836.239</ele>
<time>2020-09-11T15:05:54Z</time>
</trkpt>
<trkpt lat="47.568932" lon="11.092767">
<ele>836.297</ele>
<time>2020-09-11T15:05:55Z</time>
</trkpt>
<trkpt lat="47.568913" lon="11.092809">
<ele>836.595</ele>
<time>2020-09-11T15:05:56Z</time>
</trkpt>
<trkpt lat="47.568897" lon="11.09285">
<ele>836.824</ele>
<time>2020-09-11T15:05:57Z</time>
</trkpt>
<trkpt lat="47.568882" lon="11.092894">
<ele>836.991</ele>
<time>2020-09-11T15:05:58Z</time>
</trkpt>
<trkpt lat="47.568867" lon="11.092937">
<ele>837.124</ele>
<time>2020-09-11T15:05:59Z</time>
</trkpt>
<trkpt lat="47.568851" lon="11.09298">
<ele>837.228</ele>
<time>2020-09-11T15:06:00Z</time>
</trkpt>
<trkpt lat="47.568836" lon="11.093023">
<ele>837.302</ele>
<time>2020-09-11T15:06:01Z</time>
</trkpt>
<trkpt lat="47.568817" lon="11.093066">
<ele>837.343</ele>
<time>2020-09-11T15:06:02Z</time>
</trkpt>
<trkpt lat="47.568798" lon="11.093103">
<ele>837.613</ele>
<time>2020-09-11T15:06:03Z</time>
</trkpt>
<trkpt lat="47.568779" lon="11.093145">
<ele>837.816</ele>
<time>2020-09-11T15:06:04Z</time>
</trkpt>
<trkpt lat="47.568756" lon="11.093184">
<ele>837.949</ele>
<time>2020-09-11T15:06:05Z</time>
</trkpt>
<trkpt lat="47.568741" lon="11.093225">
<ele>838.093</ele>
<time>2020-09-11T15:06:06Z</time>
</trkpt>
<trkpt lat="47.568726" lon="11.09326">
<ele>838.203</ele>
<time>2020-09-11T15:06:07Z</time>
</trkpt>
<trkpt lat="47.568714" lon="11.093295">
<ele>838.283</ele>
<time>2020-09-11T15:06:08Z</time>
</trkpt>
<trkpt lat="47.568707" lon="11.093324">
<ele>838.332</ele>
<time>2020-09-11T15:06:09Z</time>
</trkpt>
<trkpt lat="47.568695" lon="11.093351">
<ele>838.562</ele>
<time>2020-09-11T15:06:10Z</time>
</trkpt>
<trkpt lat="47.568684" lon="11.093378">
<ele>838.764</ele>
<time>2020-09-11T15:06:11Z</time>
</trkpt>
<trkpt lat="47.568676" lon="11.093404">
<ele>838.906</ele>
<time>2020-09-11T15:06:12Z</time>
</trkpt>
<trkpt lat="47.568665" lon="11.093427">
<ele>839.017</ele>
<time>2020-09-11T15:06:13Z</time>
</trkpt>
<trkpt lat="47.568657" lon="11.09345">
<ele>839.103</ele>
<time>2020-09-11T15:06:14Z</time>
</trkpt>
<trkpt lat="47.568649" lon="11.093472">
<ele>839.175</ele>
<time>2020-09-11T15:06:15Z</time>
</trkpt>
<trkpt lat="47.568638" lon="11.093495">
<ele>839.232</ele>
<time>2020-09-11T15:06:16Z</time>
</trkpt>
<trkpt lat="47.568626" lon="11.093523">
<ele>839.262</ele>
<time>2020-09-11T15:06:17Z</time>
</trkpt>
<trkpt lat="47.568615" lon="11.093554">
<ele>839.262</ele>
<time>2020-09-11T15:06:18Z</time>
</trkpt>
<trkpt lat="47.568604" lon="11.093588">
<ele>839.262</ele>
<time>2020-09-11T15:06:19Z</time>
</trkpt>
<trkpt lat="47.568588" lon="11.093621">
<ele>839.262</ele>
<time>2020-09-11T15:06:20Z</time>
</trkpt>
<trkpt lat="47.568577" lon="11.093658">
<ele>839.262</ele>
<time>2020-09-11T15:06:21Z</time>
</trkpt>
<trkpt lat="47.568558" lon="11.093697">
<ele>839.262</ele>
<time>2020-09-11T15:06:22Z</time>
</trkpt>
<trkpt lat="47.568542" lon="11.093735">
<ele>839.537</ele>
<time>2020-09-11T15:06:23Z</time>
</trkpt>
<trkpt lat="47.568523" lon="11.093777">
<ele>839.743</ele>
<time>2020-09-11T15:06:24Z</time>
</trkpt>
<trkpt lat="47.568508" lon="11.093821">
<ele>839.867</ele>
<time>2020-09-11T15:06:25Z</time>
</trkpt>
<trkpt lat="47.568493" lon="11.093862">
<ele>840.008</ele>
<time>2020-09-11T15:06:26Z</time>
</trkpt>
<trkpt lat="47.568478" lon="11.093908">
<ele>840.11</ele>
<time>2020-09-11T15:06:27Z</time>
</trkpt>
<trkpt lat="47.568459" lon="11.093957">
<ele>840.186</ele>
<time>2020-09-11T15:06:28Z</time>
</trkpt>
<trkpt lat="47.568443" lon="11.094007">
<ele>840.231</ele>
<time>2020-09-11T15:06:29Z</time>
</trkpt>
<trkpt lat="47.56842" lon="11.094057">
<ele>840.253</ele>
<time>2020-09-11T15:06:30Z</time>
</trkpt>
<trkpt lat="47.568405" lon="11.094107">
<ele>840.527</ele>
<time>2020-09-11T15:06:31Z</time>
</trkpt>
<trkpt lat="47.56839" lon="11.094156">
<ele>840.733</ele>
<time>2020-09-11T15:06:32Z</time>
</trkpt>
<trkpt lat="47.568371" lon="11.094206">
<ele>840.893</ele>
<time>2020-09-11T15:06:33Z</time>
</trkpt>
<trkpt lat="47.568356" lon="11.094254">
<ele>841.008</ele>
<time>2020-09-11T15:06:34Z</time>
</trkpt>
<trkpt lat="47.568336" lon="11.0943">
<ele>841.083</ele>
<time>2020-09-11T15:06:35Z</time>
</trkpt>
<trkpt lat="47.568321" lon="11.094345">
<ele>841.163</ele>
<time>2020-09-11T15:06:36Z</time>
</trkpt>
<trkpt lat="47.568302" lon="11.09439">
<ele>841.454</ele>
<time>2020-09-11T15:06:37Z</time>
</trkpt>
<trkpt lat="47.568287" lon="11.094439">
<ele>841.681</ele>
<time>2020-09-11T15:06:38Z</time>
</trkpt>
<trkpt lat="47.568264" lon="11.094486">
<ele>841.938</ele>
<time>2020-09-11T15:06:39Z</time>
</trkpt>
<trkpt lat="47.568249" lon="11.094535">
<ele>842.062</ele>
<time>2020-09-11T15:06:40Z</time>
</trkpt>
<trkpt lat="47.568226" lon="11.094584">
<ele>842.152</ele>
<time>2020-09-11T15:06:41Z</time>
</trkpt>
<trkpt lat="47.568207" lon="11.094631">
<ele>842.211</ele>
<time>2020-09-11T15:06:42Z</time>
</trkpt>
<trkpt lat="47.568188" lon="11.09468">
<ele>842.236</ele>
<time>2020-09-11T15:06:43Z</time>
</trkpt>
<trkpt lat="47.568172" lon="11.094729">
<ele>842.236</ele>
<time>2020-09-11T15:06:44Z</time>
</trkpt>
<trkpt lat="47.568153" lon="11.094778">
<ele>842.236</ele>
<time>2020-09-11T15:06:45Z</time>
</trkpt>
<trkpt lat="47.56813" lon="11.094825">
<ele>842.236</ele>
<time>2020-09-11T15:06:46Z</time>
</trkpt>
<trkpt lat="47.568111" lon="11.094872">
<ele>842.236</ele>
<time>2020-09-11T15:06:47Z</time>
</trkpt>
<trkpt lat="47.568085" lon="11.094918">
<ele>842.236</ele>
<time>2020-09-11T15:06:48Z</time>
</trkpt>
<trkpt lat="47.568062" lon="11.094965">
<ele>842.236</ele>
<time>2020-09-11T15:06:49Z</time>
</trkpt>
<trkpt lat="47.568039" lon="11.095008">
<ele>842.236</ele>
<time>2020-09-11T15:06:50Z</time>
</trkpt>
<trkpt lat="47.568016" lon="11.095054">
<ele>842.236</ele>
<time>2020-09-11T15:06:51Z</time>
</trkpt>
<trkpt lat="47.567993" lon="11.095095">
<ele>842.49</ele>
<time>2020-09-11T15:06:52Z</time>
</trkpt>
<trkpt lat="47.567963" lon="11.095137">
<ele>842.69</ele>
<time>2020-09-11T15:06:53Z</time>
</trkpt>
<trkpt lat="47.567932" lon="11.095181">
<ele>842.847</ele>
<time>2020-09-11T15:06:54Z</time>
</trkpt>
<trkpt lat="47.567905" lon="11.09522">
<ele>842.952</ele>
<time>2020-09-11T15:06:55Z</time>
</trkpt>
<trkpt lat="47.567879" lon="11.09526">
<ele>843.066</ele>
<time>2020-09-11T15:06:56Z</time>
</trkpt>
<trkpt lat="47.567848" lon="11.095297">
<ele>843.151</ele>
<time>2020-09-11T15:06:57Z</time>
</trkpt>
<trkpt lat="47.567822" lon="11.095333">
<ele>843.204</ele>
<time>2020-09-11T15:06:58Z</time>
</trkpt>
<trkpt lat="47.567787" lon="11.095368">
<ele>843.228</ele>
<time>2020-09-11T15:06:59Z</time>
</trkpt>
<trkpt lat="47.567753" lon="11.0954">
<ele>843.229</ele>
<time>2020-09-11T15:07:00Z</time>
</trkpt>
<trkpt lat="47.567715" lon="11.095428">
<ele>843.228</ele>
<time>2020-09-11T15:07:01Z</time>
</trkpt>
<trkpt lat="47.567673" lon="11.095457">
<ele>843.228</ele>
<time>2020-09-11T15:07:02Z</time>
</trkpt>
<trkpt lat="47.567638" lon="11.095484">
<ele>843.228</ele>
<time>2020-09-11T15:07:03Z</time>
</trkpt>
<trkpt lat="47.567604" lon="11.09551">
<ele>843.475</ele>
<time>2020-09-11T15:07:04Z</time>
</trkpt>
<trkpt lat="47.567566" lon="11.095538">
<ele>843.648</ele>
<time>2020-09-11T15:07:05Z</time>
</trkpt>
<trkpt lat="47.567528" lon="11.09557">
<ele>843.824</ele>
<time>2020-09-11T15:07:06Z</time>
</trkpt>
<trkpt lat="47.567493" lon="11.095603">
<ele>843.96</ele>
<time>2020-09-11T15:07:07Z</time>
</trkpt>
<trkpt lat="47.567455" lon="11.095636">
<ele>844.067</ele>
<time>2020-09-11T15:07:08Z</time>
</trkpt>
<trkpt lat="47.567421" lon="11.09567">
<ele>844.145</ele>
<time>2020-09-11T15:07:09Z</time>
</trkpt>
<trkpt lat="47.567387" lon="11.095706">
<ele>844.195</ele>
<time>2020-09-11T15:07:10Z</time>
</trkpt>
<trkpt lat="47.567352" lon="11.095746">
<ele>844.22</ele>
<time>2020-09-11T15:07:11Z</time>
</trkpt>
<trkpt lat="47.567318" lon="11.09579">
<ele>844.22</ele>
<time>2020-09-11T15:07:12Z</time>
</trkpt>
<trkpt lat="47.567287" lon="11.095834">
<ele>844.22</ele>
<time>2020-09-11T15:07:13Z</time>
</trkpt>
<trkpt lat="47.567257" lon="11.09588">
<ele>844.22</ele>
<time>2020-09-11T15:07:14Z</time>
</trkpt>
<trkpt lat="47.567226" lon="11.095928">
<ele>844.22</ele>
<time>2020-09-11T15:07:15Z</time>
</trkpt>
<trkpt lat="47.567196" lon="11.095977">
<ele>844.22</ele>
<time>2020-09-11T15:07:16Z</time>
</trkpt>
<trkpt lat="47.567165" lon="11.09603">
<ele>844.22</ele>
<time>2020-09-11T15:07:17Z</time>
</trkpt>
<trkpt lat="47.567135" lon="11.096086">
<ele>844.22</ele>
<time>2020-09-11T15:07:18Z</time>
</trkpt>
<trkpt lat="47.567104" lon="11.096142">
<ele>844.503</ele>
<time>2020-09-11T15:07:19Z</time>
</trkpt>
<trkpt lat="47.567078" lon="11.096198">
<ele>844.722</ele>
<time>2020-09-11T15:07:20Z</time>
</trkpt>
<trkpt lat="47.567051" lon="11.096251">
<ele>844.887</ele>
<time>2020-09-11T15:07:21Z</time>
</trkpt>
<trkpt lat="47.56702" lon="11.096303">
<ele>845.005</ele>
<time>2020-09-11T15:07:22Z</time>
</trkpt>
<trkpt lat="47.566998" lon="11.096358">
<ele>845.088</ele>
<time>2020-09-11T15:07:23Z</time>
</trkpt>
<trkpt lat="47.566967" lon="11.096418">
<ele>845.143</ele>
<time>2020-09-11T15:07:24Z</time>
</trkpt>
<trkpt lat="47.56694" lon="11.096475">
<ele>845.185</ele>
<time>2020-09-11T15:07:25Z</time>
</trkpt>
<trkpt lat="47.56691" lon="11.096537">
<ele>845.212</ele>
<time>2020-09-11T15:07:26Z</time>
</trkpt>
<trkpt lat="47.566879" lon="11.096601">
<ele>845.212</ele>
<time>2020-09-11T15:07:27Z</time>
</trkpt>
<trkpt lat="47.566849" lon="11.096662">
<ele>845.212</ele>
<time>2020-09-11T15:07:28Z</time>
</trkpt>
<trkpt lat="47.566818" lon="11.096724">
<ele>845.212</ele>
<time>2020-09-11T15:07:29Z</time>
</trkpt>
<trkpt lat="47.566788" lon="11.096783">
<ele>845.212</ele>
<time>2020-09-11T15:07:30Z</time>
</trkpt>
<trkpt lat="47.566757" lon="11.096844">
<ele>845.212</ele>
<time>2020-09-11T15:07:31Z</time>
</trkpt>
<trkpt lat="47.566727" lon="11.096904">
<ele>845.212</ele>
<time>2020-09-11T15:07:32Z</time>
</trkpt>
<trkpt lat="47.566696" lon="11.096963">
<ele>845.212</ele>
<time>2020-09-11T15:07:33Z</time>
</trkpt>
<trkpt lat="47.566666" lon="11.097026">
<ele>845.212</ele>
<time>2020-09-11T15:07:34Z</time>
</trkpt>
<trkpt lat="47.566635" lon="11.097087">
<ele>845.212</ele>
<time>2020-09-11T15:07:35Z</time>
</trkpt>
<trkpt lat="47.566601" lon="11.097154">
<ele>845.212</ele>
<time>2020-09-11T15:07:36Z</time>
</trkpt>
<trkpt lat="47.56657" lon="11.09722">
<ele>845.212</ele>
<time>2020-09-11T15:07:37Z</time>
</trkpt>
<trkpt lat="47.566536" lon="11.097288">
<ele>845.212</ele>
<time>2020-09-11T15:07:38Z</time>
</trkpt>
<trkpt lat="47.566505" lon="11.097355">
<ele>845.212</ele>
<time>2020-09-11T15:07:39Z</time>
</trkpt>
<trkpt lat="47.566471" lon="11.09742">
<ele>845.212</ele>
<time>2020-09-11T15:07:40Z</time>
</trkpt>
<trkpt lat="47.566441" lon="11.097486">
<ele>845.212</ele>
<time>2020-09-11T15:07:41Z</time>
</trkpt>
<trkpt lat="47.566406" lon="11.097551">
<ele>845.212</ele>
<time>2020-09-11T15:07:42Z</time>
</trkpt>
<trkpt lat="47.566376" lon="11.097617">
<ele>845.212</ele>
<time>2020-09-11T15:07:43Z</time>
</trkpt>
<trkpt lat="47.566341" lon="11.09768">
<ele>845.212</ele>
<time>2020-09-11T15:07:44Z</time>
</trkpt>
<trkpt lat="47.566311" lon="11.097743">
<ele>845.212</ele>
<time>2020-09-11T15:07:45Z</time>
</trkpt>
<trkpt lat="47.566277" lon="11.097807">
<ele>845.212</ele>
<time>2020-09-11T15:07:46Z</time>
</trkpt>
<trkpt lat="47.566242" lon="11.097875">
<ele>845.212</ele>
<time>2020-09-11T15:07:47Z</time>
</trkpt>
<trkpt lat="47.566212" lon="11.097945">
<ele>845.212</ele>
<time>2020-09-11T15:07:48Z</time>
</trkpt>
<trkpt lat="47.566177" lon="11.098012">
<ele>845.212</ele>
<time>2020-09-11T15:07:49Z</time>
</trkpt>
<trkpt lat="47.566151" lon="11.098078">
<ele>845.212</ele>
<time>2020-09-11T15:07:50Z</time>
</trkpt>
<trkpt lat="47.56612" lon="11.098145">
<ele>845.212</ele>
<time>2020-09-11T15:07:51Z</time>
</trkpt>
<trkpt lat="47.56609" lon="11.098211">
<ele>845.212</ele>
<time>2020-09-11T15:07:52Z</time>
</trkpt>
<trkpt lat="47.566055" lon="11.09828">
<ele>845.46</ele>
<time>2020-09-11T15:07:53Z</time>
</trkpt>
<trkpt lat="47.566029" lon="11.098348">
<ele>845.656</ele>
<time>2020-09-11T15:07:54Z</time>
</trkpt>
<trkpt lat="47.565994" lon="11.098418">
<ele>845.788</ele>
<time>2020-09-11T15:07:55Z</time>
</trkpt>
<trkpt lat="47.565964" lon="11.098487">
<ele>845.844</ele>
<time>2020-09-11T15:07:56Z</time>
</trkpt>
<trkpt lat="47.565929" lon="11.098557">
<ele>845.704</ele>
<time>2020-09-11T15:07:57Z</time>
</trkpt>
<trkpt lat="47.565895" lon="11.098623">
<ele>845.579</ele>
<time>2020-09-11T15:07:58Z</time>
</trkpt>
<trkpt lat="47.565865" lon="11.098692">
<ele>845.471</ele>
<time>2020-09-11T15:07:59Z</time>
</trkpt>
<trkpt lat="47.56583" lon="11.098762">
<ele>845.375</ele>
<time>2020-09-11T15:08:00Z</time>
</trkpt>
<trkpt lat="47.5658" lon="11.098835">
<ele>845.293</ele>
<time>2020-09-11T15:08:01Z</time>
</trkpt>
<trkpt lat="47.565762" lon="11.098911">
<ele>845.245</ele>
<time>2020-09-11T15:08:02Z</time>
</trkpt>
<trkpt lat="47.565727" lon="11.098991">
<ele>844.918</ele>
<time>2020-09-11T15:08:03Z</time>
</trkpt>
<trkpt lat="47.565689" lon="11.099075">
<ele>844.716</ele>
<time>2020-09-11T15:08:04Z</time>
</trkpt>
<trkpt lat="47.565651" lon="11.099161">
<ele>844.27</ele>
<time>2020-09-11T15:08:05Z</time>
</trkpt>
<trkpt lat="47.565609" lon="11.099252">
<ele>843.853</ele>
<time>2020-09-11T15:08:06Z</time>
</trkpt>
<trkpt lat="47.565563" lon="11.099341">
<ele>843.533</ele>
<time>2020-09-11T15:08:07Z</time>
</trkpt>
<trkpt lat="47.565521" lon="11.099433">
<ele>843.296</ele>
<time>2020-09-11T15:08:08Z</time>
</trkpt>
<trkpt lat="47.565468" lon="11.09952">
<ele>843.155</ele>
<time>2020-09-11T15:08:09Z</time>
</trkpt>
<trkpt lat="47.565422" lon="11.099605">
<ele>842.787</ele>
<time>2020-09-11T15:08:10Z</time>
</trkpt>
<trkpt lat="47.565372" lon="11.099687">
<ele>842.529</ele>
<time>2020-09-11T15:08:11Z</time>
</trkpt>
<trkpt lat="47.565323" lon="11.099771">
<ele>842.34</ele>
<time>2020-09-11T15:08:12Z</time>
</trkpt>
<trkpt lat="47.565273" lon="11.099852">
<ele>842.193</ele>
<time>2020-09-11T15:08:13Z</time>
</trkpt>
<trkpt lat="47.565224" lon="11.09993">
<ele>842.11</ele>
<time>2020-09-11T15:08:14Z</time>
</trkpt>
<trkpt lat="47.565166" lon="11.100001">
<ele>842.049</ele>
<time>2020-09-11T15:08:15Z</time>
</trkpt>
<trkpt lat="47.565109" lon="11.100074">
<ele>841.993</ele>
<time>2020-09-11T15:08:16Z</time>
</trkpt>
<trkpt lat="47.565052" lon="11.100143">
<ele>841.966</ele>
<time>2020-09-11T15:08:17Z</time>
</trkpt>
<trkpt lat="47.564987" lon="11.100208">
<ele>841.677</ele>
<time>2020-09-11T15:08:18Z</time>
</trkpt>
<trkpt lat="47.564922" lon="11.100269">
<ele>841.453</ele>
<time>2020-09-11T15:08:19Z</time>
</trkpt>
<trkpt lat="47.56485" lon="11.100324">
<ele>841.282</ele>
<time>2020-09-11T15:08:20Z</time>
</trkpt>
<trkpt lat="47.564777" lon="11.100373">
<ele>841.182</ele>
<time>2020-09-11T15:08:21Z</time>
</trkpt>
<trkpt lat="47.564705" lon="11.100422">
<ele>840.83</ele>
<time>2020-09-11T15:08:22Z</time>
</trkpt>
<trkpt lat="47.564632" lon="11.100465">
<ele>840.569</ele>
<time>2020-09-11T15:08:23Z</time>
</trkpt>
<trkpt lat="47.564556" lon="11.100506">
<ele>840.384</ele>
<time>2020-09-11T15:08:24Z</time>
</trkpt>
<trkpt lat="47.56448" lon="11.100535">
<ele>840.255</ele>
<time>2020-09-11T15:08:25Z</time>
</trkpt>
<trkpt lat="47.564407" lon="11.100563">
<ele>840.146</ele>
<time>2020-09-11T15:08:26Z</time>
</trkpt>
<trkpt lat="47.564331" lon="11.100587">
<ele>839.758</ele>
<time>2020-09-11T15:08:27Z</time>
</trkpt>
<trkpt lat="47.564251" lon="11.100607">
<ele>839.448</ele>
<time>2020-09-11T15:08:28Z</time>
</trkpt>
<trkpt lat="47.564175" lon="11.10062">
<ele>839.251</ele>
<time>2020-09-11T15:08:29Z</time>
</trkpt>
<trkpt lat="47.564091" lon="11.100628">
<ele>838.707</ele>
<time>2020-09-11T15:08:30Z</time>
</trkpt>
<trkpt lat="47.564014" lon="11.100632">
<ele>838.39</ele>
<time>2020-09-11T15:08:31Z</time>
</trkpt>
<trkpt lat="47.563931" lon="11.100627">
<ele>838.168</ele>
<time>2020-09-11T15:08:32Z</time>
</trkpt>
<trkpt lat="47.563854" lon="11.100618">
<ele>838.024</ele>
<time>2020-09-11T15:08:33Z</time>
</trkpt>
<trkpt lat="47.563778" lon="11.100613">
<ele>837.948</ele>
<time>2020-09-11T15:08:34Z</time>
</trkpt>
<trkpt lat="47.563698" lon="11.100612">
<ele>837.893</ele>
<time>2020-09-11T15:08:35Z</time>
</trkpt>
<trkpt lat="47.563625" lon="11.100612">
<ele>837.844</ele>
<time>2020-09-11T15:08:36Z</time>
</trkpt>
<trkpt lat="47.563553" lon="11.10062">
<ele>837.82</ele>
<time>2020-09-11T15:08:37Z</time>
</trkpt>
<trkpt lat="47.563477" lon="11.100636">
<ele>837.82</ele>
<time>2020-09-11T15:08:38Z</time>
</trkpt>
<trkpt lat="47.563404" lon="11.100661">
<ele>837.82</ele>
<time>2020-09-11T15:08:39Z</time>
</trkpt>
<trkpt lat="47.563335" lon="11.100694">
<ele>837.82</ele>
<time>2020-09-11T15:08:40Z</time>
</trkpt>
<trkpt lat="47.563271" lon="11.100732">
<ele>837.82</ele>
<time>2020-09-11T15:08:41Z</time>
</trkpt>
<trkpt lat="47.563206" lon="11.100775">
<ele>837.522</ele>
<time>2020-09-11T15:08:42Z</time>
</trkpt>
<trkpt lat="47.563141" lon="11.100823">
<ele>837.286</ele>
<time>2020-09-11T15:08:43Z</time>
</trkpt>
<trkpt lat="47.563076" lon="11.100873">
<ele>837.102</ele>
<time>2020-09-11T15:08:44Z</time>
</trkpt>
<trkpt lat="47.563011" lon="11.100924">
<ele>836.976</ele>
<time>2020-09-11T15:08:45Z</time>
</trkpt>
<trkpt lat="47.562946" lon="11.10097">
<ele>836.84</ele>
<time>2020-09-11T15:08:46Z</time>
</trkpt>
<trkpt lat="47.562881" lon="11.10101">
<ele>836.741</ele>
<time>2020-09-11T15:08:47Z</time>
</trkpt>
<trkpt lat="47.562817" lon="11.101042">
<ele>836.678</ele>
<time>2020-09-11T15:08:48Z</time>
</trkpt>
<trkpt lat="47.562748" lon="11.101065">
<ele>836.648</ele>
<time>2020-09-11T15:08:49Z</time>
</trkpt>
<trkpt lat="47.562683" lon="11.101076">
<ele>836.648</ele>
<time>2020-09-11T15:08:50Z</time>
</trkpt>
<trkpt lat="47.562618" lon="11.101073">
<ele>836.648</ele>
<time>2020-09-11T15:08:51Z</time>
</trkpt>
<trkpt lat="47.562553" lon="11.101057">
<ele>836.648</ele>
<time>2020-09-11T15:08:52Z</time>
</trkpt>
<trkpt lat="47.562489" lon="11.101035">
<ele>836.648</ele>
<time>2020-09-11T15:08:53Z</time>
</trkpt>
<trkpt lat="47.562424" lon="11.10101">
<ele>836.648</ele>
<time>2020-09-11T15:08:54Z</time>
</trkpt>
<trkpt lat="47.562359" lon="11.100984">
<ele>836.846</ele>
<time>2020-09-11T15:08:55Z</time>
</trkpt>
<trkpt lat="47.562294" lon="11.100959">
<ele>837.035</ele>
<time>2020-09-11T15:08:56Z</time>
</trkpt>
<trkpt lat="47.562237" lon="11.100944">
<ele>837.19</ele>
<time>2020-09-11T15:08:57Z</time>
</trkpt>
<trkpt lat="47.562172" lon="11.100937">
<ele>837.316</ele>
<time>2020-09-11T15:08:58Z</time>
</trkpt>
<trkpt lat="47.562111" lon="11.100938">
<ele>837.412</ele>
<time>2020-09-11T15:08:59Z</time>
</trkpt>
<trkpt lat="47.562046" lon="11.100946">
<ele>837.482</ele>
<time>2020-09-11T15:09:00Z</time>
</trkpt>
<trkpt lat="47.561985" lon="11.100963">
<ele>837.527</ele>
<time>2020-09-11T15:09:01Z</time>
</trkpt>
<trkpt lat="47.561924" lon="11.100988">
<ele>837.549</ele>
<time>2020-09-11T15:09:02Z</time>
</trkpt>
<trkpt lat="47.561867" lon="11.101027">
<ele>837.796</ele>
<time>2020-09-11T15:09:03Z</time>
</trkpt>
<trkpt lat="47.561813" lon="11.101076">
<ele>837.992</ele>
<time>2020-09-11T15:09:04Z</time>
</trkpt>
<trkpt lat="47.561764" lon="11.101138">
<ele>838.129</ele>
<time>2020-09-11T15:09:05Z</time>
</trkpt>
<trkpt lat="47.561718" lon="11.101205">
<ele>838.272</ele>
<time>2020-09-11T15:09:06Z</time>
</trkpt>
<trkpt lat="47.561672" lon="11.101273">
<ele>838.384</ele>
<time>2020-09-11T15:09:07Z</time>
</trkpt>
<trkpt lat="47.56163" lon="11.101345">
<ele>838.464</ele>
<time>2020-09-11T15:09:08Z</time>
</trkpt>
<trkpt lat="47.561596" lon="11.101417">
<ele>838.516</ele>
<time>2020-09-11T15:09:09Z</time>
</trkpt>
<trkpt lat="47.561558" lon="11.101493">
<ele>838.541</ele>
<time>2020-09-11T15:09:10Z</time>
</trkpt>
<trkpt lat="47.56152" lon="11.101572">
<ele>838.541</ele>
<time>2020-09-11T15:09:11Z</time>
</trkpt>
<trkpt lat="47.561481" lon="11.10165">
<ele>838.541</ele>
<time>2020-09-11T15:09:12Z</time>
</trkpt>
<trkpt lat="47.561443" lon="11.101728">
<ele>838.541</ele>
<time>2020-09-11T15:09:13Z</time>
</trkpt>
<trkpt lat="47.561401" lon="11.101807">
<ele>838.275</ele>
<time>2020-09-11T15:09:14Z</time>
</trkpt>
<trkpt lat="47.561352" lon="11.101876">
<ele>838.086</ele>
<time>2020-09-11T15:09:15Z</time>
</trkpt>
<trkpt lat="47.561295" lon="11.101943">
<ele>837.89</ele>
<time>2020-09-11T15:09:16Z</time>
</trkpt>
<trkpt lat="47.561234" lon="11.101998">
<ele>837.734</ele>
<time>2020-09-11T15:09:17Z</time>
</trkpt>
<trkpt lat="47.561169" lon="11.102043">
<ele>837.634</ele>
<time>2020-09-11T15:09:18Z</time>
</trkpt>
<trkpt lat="47.561104" lon="11.102088">
<ele>837.275</ele>
<time>2020-09-11T15:09:19Z</time>
</trkpt>
<trkpt lat="47.561047" lon="11.102144">
<ele>837.031</ele>
<time>2020-09-11T15:09:20Z</time>
</trkpt>
<trkpt lat="47.561001" lon="11.102217">
<ele>836.591</ele>
<time>2020-09-11T15:09:21Z</time>
</trkpt>
<trkpt lat="47.560963" lon="11.102308">
<ele>836.233</ele>
<time>2020-09-11T15:09:22Z</time>
</trkpt>
<trkpt lat="47.56094" lon="11.102412">
<ele>835.729</ele>
<time>2020-09-11T15:09:23Z</time>
</trkpt>
<trkpt lat="47.560928" lon="11.102528">
<ele>835.358</ele>
<time>2020-09-11T15:09:24Z</time>
</trkpt>
<trkpt lat="47.560936" lon="11.10265">
<ele>835.08</ele>
<time>2020-09-11T15:09:25Z</time>
</trkpt>
<trkpt lat="47.560963" lon="11.102765">
<ele>834.526</ele>
<time>2020-09-11T15:09:26Z</time>
</trkpt>
<trkpt lat="47.561012" lon="11.10287">
<ele>834.116</ele>
<time>2020-09-11T15:09:27Z</time>
</trkpt>
<trkpt lat="47.561066" lon="11.102953">
<ele>833.862</ele>
<time>2020-09-11T15:09:28Z</time>
</trkpt>
<trkpt lat="47.561127" lon="11.103008">
<ele>833.346</ele>
<time>2020-09-11T15:09:29Z</time>
</trkpt>
<trkpt lat="47.561214" lon="11.103033">
<ele>832.958</ele>
<time>2020-09-11T15:09:30Z</time>
</trkpt>
<trkpt lat="47.561314" lon="11.103024">
<ele>832.72</ele>
<time>2020-09-11T15:09:31Z</time>
</trkpt>
<trkpt lat="47.561401" lon="11.102988">
<ele>832.219</ele>
<time>2020-09-11T15:09:32Z</time>
</trkpt>
<trkpt lat="47.561481" lon="11.102941">
<ele>831.881</ele>
<time>2020-09-11T15:09:33Z</time>
</trkpt>
<trkpt lat="47.561573" lon="11.10288">
<ele>831.355</ele>
<time>2020-09-11T15:09:34Z</time>
</trkpt>
<trkpt lat="47.561668" lon="11.102832">
<ele>830.676</ele>
<time>2020-09-11T15:09:35Z</time>
</trkpt>
<trkpt lat="47.561768" lon="11.102794">
<ele>830.114</ele>
<time>2020-09-11T15:09:36Z</time>
</trkpt>
<trkpt lat="47.561867" lon="11.102792">
<ele>829.471</ele>
<time>2020-09-11T15:09:37Z</time>
</trkpt>
<trkpt lat="47.561981" lon="11.102818">
<ele>828.673</ele>
<time>2020-09-11T15:09:38Z</time>
</trkpt>
<trkpt lat="47.562092" lon="11.102878">
<ele>828.118</ele>
<time>2020-09-11T15:09:39Z</time>
</trkpt>
<trkpt lat="47.56218" lon="11.102965">
<ele>827.388</ele>
<time>2020-09-11T15:09:40Z</time>
</trkpt>
<trkpt lat="47.56226" lon="11.103068">
<ele>826.906</ele>
<time>2020-09-11T15:09:41Z</time>
</trkpt>
<trkpt lat="47.562325" lon="11.103184">
<ele>826.266</ele>
<time>2020-09-11T15:09:42Z</time>
</trkpt>
<trkpt lat="47.562389" lon="11.103303">
<ele>825.751</ele>
<time>2020-09-11T15:09:43Z</time>
</trkpt>
<trkpt lat="47.562447" lon="11.103427">
<ele>825.235</ele>
<time>2020-09-11T15:09:44Z</time>
</trkpt>
<trkpt lat="47.562492" lon="11.103567">
<ele>824.568</ele>
<time>2020-09-11T15:09:45Z</time>
</trkpt>
<trkpt lat="47.562519" lon="11.103724">
<ele>824.037</ele>
<time>2020-09-11T15:09:46Z</time>
</trkpt>
<trkpt lat="47.562515" lon="11.103891">
<ele>823.319</ele>
<time>2020-09-11T15:09:47Z</time>
</trkpt>
<trkpt lat="47.562492" lon="11.104047">
<ele>822.813</ele>
<time>2020-09-11T15:09:48Z</time>
</trkpt>
<trkpt lat="47.562466" lon="11.104205">
<ele>822.175</ele>
<time>2020-09-11T15:09:49Z</time>
</trkpt>
<trkpt lat="47.562454" lon="11.104367">
<ele>821.394</ele>
<time>2020-09-11T15:09:50Z</time>
</trkpt>
<trkpt lat="47.562454" lon="11.104537">
<ele>820.867</ele>
<time>2020-09-11T15:09:51Z</time>
</trkpt>
<trkpt lat="47.562447" lon="11.104711">
<ele>820.187</ele>
<time>2020-09-11T15:09:52Z</time>
</trkpt>
<trkpt lat="47.562424" lon="11.104883">
<ele>819.659</ele>
<time>2020-09-11T15:09:53Z</time>
</trkpt>
<trkpt lat="47.562386" lon="11.105055">
<ele>819.141</ele>
<time>2020-09-11T15:09:54Z</time>
</trkpt>
<trkpt lat="47.562332" lon="11.105215">
<ele>818.454</ele>
<time>2020-09-11T15:09:55Z</time>
</trkpt>
<trkpt lat="47.56226" lon="11.105365">
<ele>817.617</ele>
<time>2020-09-11T15:09:56Z</time>
</trkpt>
<trkpt lat="47.562187" lon="11.105509">
<ele>817.078</ele>
<time>2020-09-11T15:09:57Z</time>
</trkpt>
<trkpt lat="47.562107" lon="11.105657">
<ele>816.356</ele>
<time>2020-09-11T15:09:58Z</time>
</trkpt>
<trkpt lat="47.562035" lon="11.105813">
<ele>815.56</ele>
<time>2020-09-11T15:09:59Z</time>
</trkpt>
<trkpt lat="47.561981" lon="11.105976">
<ele>814.65</ele>
<time>2020-09-11T15:10:00Z</time>
</trkpt>
<trkpt lat="47.561939" lon="11.10616">
<ele>814.028</ele>
<time>2020-09-11T15:10:01Z</time>
</trkpt>
<trkpt lat="47.561905" lon="11.106347">
<ele>813.255</ele>
<time>2020-09-11T15:10:02Z</time>
</trkpt>
<trkpt lat="47.561867" lon="11.106537">
<ele>812.411</ele>
<time>2020-09-11T15:10:03Z</time>
</trkpt>
<trkpt lat="47.561832" lon="11.106724">
<ele>811.449</ele>
<time>2020-09-11T15:10:04Z</time>
</trkpt>
<trkpt lat="47.561779" lon="11.106907">
<ele>810.453</ele>
<time>2020-09-11T15:10:05Z</time>
</trkpt>
<trkpt lat="47.561714" lon="11.107079">
<ele>809.68</ele>
<time>2020-09-11T15:10:06Z</time>
</trkpt>
<trkpt lat="47.561649" lon="11.107244">
<ele>808.858</ele>
<time>2020-09-11T15:10:07Z</time>
</trkpt>
<trkpt lat="47.561588" lon="11.107403">
<ele>807.986</ele>
<time>2020-09-11T15:10:08Z</time>
</trkpt>
<trkpt lat="47.561543" lon="11.107569">
<ele>807.097</ele>
<time>2020-09-11T15:10:09Z</time>
</trkpt>
<trkpt lat="47.561501" lon="11.107735">
<ele>806.136</ele>
<time>2020-09-11T15:10:10Z</time>
</trkpt>
<trkpt lat="47.561466" lon="11.107905">
<ele>805.49</ele>
<time>2020-09-11T15:10:11Z</time>
</trkpt>
<trkpt lat="47.56144" lon="11.10809">
<ele>804.725</ele>
<time>2020-09-11T15:10:12Z</time>
</trkpt>
<trkpt lat="47.561409" lon="11.108294">
<ele>803.728</ele>
<time>2020-09-11T15:10:13Z</time>
</trkpt>
<trkpt lat="47.561375" lon="11.108481">
<ele>803.243</ele>
<time>2020-09-11T15:10:14Z</time>
</trkpt>
<trkpt lat="47.561348" lon="11.108679">
<ele>802.482</ele>
<time>2020-09-11T15:10:15Z</time>
</trkpt>
<trkpt lat="47.561317" lon="11.108876">
<ele>801.679</ele>
<time>2020-09-11T15:10:16Z</time>
</trkpt>
<trkpt lat="47.561295" lon="11.109064">
<ele>800.832</ele>
<time>2020-09-11T15:10:17Z</time>
</trkpt>
<trkpt lat="47.561264" lon="11.109246">
<ele>799.97</ele>
<time>2020-09-11T15:10:18Z</time>
</trkpt>
<trkpt lat="47.561222" lon="11.10943">
<ele>798.971</ele>
<time>2020-09-11T15:10:19Z</time>
</trkpt>
<trkpt lat="47.561184" lon="11.109605">
<ele>798.312</ele>
<time>2020-09-11T15:10:20Z</time>
</trkpt>
<trkpt lat="47.561142" lon="11.10977">
<ele>797.536</ele>
<time>2020-09-11T15:10:21Z</time>
</trkpt>
<trkpt lat="47.561108" lon="11.109934">
<ele>796.577</ele>
<time>2020-09-11T15:10:22Z</time>
</trkpt>
<trkpt lat="47.561089" lon="11.110099">
<ele>795.943</ele>
<time>2020-09-11T15:10:23Z</time>
</trkpt>
<trkpt lat="47.561085" lon="11.110265">
<ele>795.166</ele>
<time>2020-09-11T15:10:24Z</time>
</trkpt>
<trkpt lat="47.561092" lon="11.11043">
<ele>794.634</ele>
<time>2020-09-11T15:10:25Z</time>
</trkpt>
<trkpt lat="47.561115" lon="11.110594">
<ele>793.964</ele>
<time>2020-09-11T15:10:26Z</time>
</trkpt>
<trkpt lat="47.561127" lon="11.11075">
<ele>793.511</ele>
<time>2020-09-11T15:10:27Z</time>
</trkpt>
<trkpt lat="47.561138" lon="11.110904">
<ele>792.879</ele>
<time>2020-09-11T15:10:28Z</time>
</trkpt>
<trkpt lat="47.56115" lon="11.111058">
<ele>792.413</ele>
<time>2020-09-11T15:10:29Z</time>
</trkpt>
<trkpt lat="47.56115" lon="11.111201">
<ele>792.126</ele>
<time>2020-09-11T15:10:30Z</time>
</trkpt>
<trkpt lat="47.561131" lon="11.111338">
<ele>791.683</ele>
<time>2020-09-11T15:10:31Z</time>
</trkpt>
<trkpt lat="47.561085" lon="11.111464">
<ele>791.055</ele>
<time>2020-09-11T15:10:32Z</time>
</trkpt>
<trkpt lat="47.56102" lon="11.111568">
<ele>790.613</ele>
<time>2020-09-11T15:10:33Z</time>
</trkpt>
<trkpt lat="47.560955" lon="11.111667">
<ele>789.966</ele>
<time>2020-09-11T15:10:34Z</time>
</trkpt>
<trkpt lat="47.560905" lon="11.111772">
<ele>789.501</ele>
<time>2020-09-11T15:10:35Z</time>
</trkpt>
<trkpt lat="47.560871" lon="11.111905">
<ele>788.861</ele>
<time>2020-09-11T15:10:36Z</time>
</trkpt>
<trkpt lat="47.560852" lon="11.112059">
<ele>788.062</ele>
<time>2020-09-11T15:10:37Z</time>
</trkpt>
<trkpt lat="47.560833" lon="11.112213">
<ele>787.501</ele>
<time>2020-09-11T15:10:38Z</time>
</trkpt>
<trkpt lat="47.560806" lon="11.112351">
<ele>786.755</ele>
<time>2020-09-11T15:10:39Z</time>
</trkpt>
<trkpt lat="47.56076" lon="11.112471">
<ele>786.262</ele>
<time>2020-09-11T15:10:40Z</time>
</trkpt>
<trkpt lat="47.560703" lon="11.112582">
<ele>785.536</ele>
<time>2020-09-11T15:10:41Z</time>
</trkpt>
<trkpt lat="47.560658" lon="11.112691">
<ele>785.054</ele>
<time>2020-09-11T15:10:42Z</time>
</trkpt>
<trkpt lat="47.560612" lon="11.112797">
<ele>784.446</ele>
<time>2020-09-11T15:10:43Z</time>
</trkpt>
<trkpt lat="47.560577" lon="11.11291">
<ele>783.77</ele>
<time>2020-09-11T15:10:44Z</time>
</trkpt>
<trkpt lat="47.560558" lon="11.113047">
<ele>783.299</ele>
<time>2020-09-11T15:10:45Z</time>
</trkpt>
<trkpt lat="47.560543" lon="11.113194">
<ele>782.62</ele>
<time>2020-09-11T15:10:46Z</time>
</trkpt>
<trkpt lat="47.560532" lon="11.113338">
<ele>782.151</ele>
<time>2020-09-11T15:10:47Z</time>
</trkpt>
<trkpt lat="47.560509" lon="11.113493">
<ele>781.495</ele>
<time>2020-09-11T15:10:48Z</time>
</trkpt>
<trkpt lat="47.560486" lon="11.11364">
<ele>780.71</ele>
<time>2020-09-11T15:10:49Z</time>
</trkpt>
<trkpt lat="47.560471" lon="11.113793">
<ele>780.17</ele>
<time>2020-09-11T15:10:50Z</time>
</trkpt>
<trkpt lat="47.560463" lon="11.11395">
<ele>779.412</ele>
<time>2020-09-11T15:10:51Z</time>
</trkpt>
<trkpt lat="47.560455" lon="11.114105">
<ele>778.928</ele>
<time>2020-09-11T15:10:52Z</time>
</trkpt>
<trkpt lat="47.560455" lon="11.114262">
<ele>778.239</ele>
<time>2020-09-11T15:10:53Z</time>
</trkpt>
<trkpt lat="47.560452" lon="11.11442">
<ele>777.776</ele>
<time>2020-09-11T15:10:54Z</time>
</trkpt>
<trkpt lat="47.560429" lon="11.114558">
<ele>776.962</ele>
<time>2020-09-11T15:10:55Z</time>
</trkpt>
<trkpt lat="47.560421" lon="11.11472">
<ele>776.334</ele>
<time>2020-09-11T15:10:56Z</time>
</trkpt>
<trkpt lat="47.560417" lon="11.114875">
<ele>775.543</ele>
<time>2020-09-11T15:10:57Z</time>
</trkpt>
<trkpt lat="47.560402" lon="11.115019">
<ele>775.007</ele>
<time>2020-09-11T15:10:58Z</time>
</trkpt>
<trkpt lat="47.560398" lon="11.115163">
<ele>774.305</ele>
<time>2020-09-11T15:10:59Z</time>
</trkpt>
<trkpt lat="47.560394" lon="11.115305">
<ele>773.817</ele>
<time>2020-09-11T15:11:00Z</time>
</trkpt>
<trkpt lat="47.560402" lon="11.11545">
<ele>773.179</ele>
<time>2020-09-11T15:11:01Z</time>
</trkpt>
<trkpt lat="47.560432" lon="11.115586">
<ele>772.745</ele>
<time>2020-09-11T15:11:02Z</time>
</trkpt>
<trkpt lat="47.560471" lon="11.115722">
<ele>772.117</ele>
<time>2020-09-11T15:11:03Z</time>
</trkpt>
<trkpt lat="47.560493" lon="11.115861">
<ele>771.522</ele>
<time>2020-09-11T15:11:04Z</time>
</trkpt>
<trkpt lat="47.560497" lon="11.115999">
<ele>771.051</ele>
<time>2020-09-11T15:11:05Z</time>
</trkpt>
<trkpt lat="47.560474" lon="11.116138">
<ele>770.388</ele>
<time>2020-09-11T15:11:06Z</time>
</trkpt>
<trkpt lat="47.560432" lon="11.116275">
<ele>769.949</ele>
<time>2020-09-11T15:11:07Z</time>
</trkpt>
<trkpt lat="47.560394" lon="11.116402">
<ele>769.355</ele>
<time>2020-09-11T15:11:08Z</time>
</trkpt>
<trkpt lat="47.560349" lon="11.116527">
<ele>768.658</ele>
<time>2020-09-11T15:11:09Z</time>
</trkpt>
<trkpt lat="47.560318" lon="11.116658">
<ele>768.175</ele>
<time>2020-09-11T15:11:10Z</time>
</trkpt>
<trkpt lat="47.560291" lon="11.116796">
<ele>767.502</ele>
<time>2020-09-11T15:11:11Z</time>
</trkpt>
<trkpt lat="47.56028" lon="11.116937">
<ele>767.044</ele>
<time>2020-09-11T15:11:12Z</time>
</trkpt>
<trkpt lat="47.56028" lon="11.117086">
<ele>766.394</ele>
<time>2020-09-11T15:11:13Z</time>
</trkpt>
<trkpt lat="47.560291" lon="11.11724">
<ele>765.97</ele>
<time>2020-09-11T15:11:14Z</time>
</trkpt>
<trkpt lat="47.560307" lon="11.117401">
<ele>765.35</ele>
<time>2020-09-11T15:11:15Z</time>
</trkpt>
<trkpt lat="47.560326" lon="11.117562">
<ele>764.635</ele>
<time>2020-09-11T15:11:16Z</time>
</trkpt>
<trkpt lat="47.560337" lon="11.117722">
<ele>763.765</ele>
<time>2020-09-11T15:11:17Z</time>
</trkpt>
<trkpt lat="47.560345" lon="11.117878">
<ele>763.176</ele>
<time>2020-09-11T15:11:18Z</time>
</trkpt>
<trkpt lat="47.560364" lon="11.118032">
<ele>762.479</ele>
<time>2020-09-11T15:11:19Z</time>
</trkpt>
<trkpt lat="47.560383" lon="11.11818">
<ele>761.66</ele>
<time>2020-09-11T15:11:20Z</time>
</trkpt>
<trkpt lat="47.560406" lon="11.118325">
<ele>761.124</ele>
<time>2020-09-11T15:11:21Z</time>
</trkpt>
<trkpt lat="47.560432" lon="11.118471">
<ele>760.455</ele>
<time>2020-09-11T15:11:22Z</time>
</trkpt>
<trkpt lat="47.560474" lon="11.118618">
<ele>759.58</ele>
<time>2020-09-11T15:11:23Z</time>
</trkpt>
<trkpt lat="47.560524" lon="11.118758">
<ele>758.979</ele>
<time>2020-09-11T15:11:24Z</time>
</trkpt>
<trkpt lat="47.560581" lon="11.118888">
<ele>758.249</ele>
<time>2020-09-11T15:11:25Z</time>
</trkpt>
<trkpt lat="47.560642" lon="11.119007">
<ele>757.442</ele>
<time>2020-09-11T15:11:26Z</time>
</trkpt>
<trkpt lat="47.560707" lon="11.119119">
<ele>756.519</ele>
<time>2020-09-11T15:11:27Z</time>
</trkpt>
<trkpt lat="47.56076" lon="11.11924">
<ele>755.89</ele>
<time>2020-09-11T15:11:28Z</time>
</trkpt>
<trkpt lat="47.560806" lon="11.119385">
<ele>755.033</ele>
<time>2020-09-11T15:11:29Z</time>
</trkpt>
<trkpt lat="47.560829" lon="11.119536">
<ele>754.471</ele>
<time>2020-09-11T15:11:30Z</time>
</trkpt>
<trkpt lat="47.560833" lon="11.119688">
<ele>753.75</ele>
<time>2020-09-11T15:11:31Z</time>
</trkpt>
<trkpt lat="47.560837" lon="11.119823">
<ele>753.25</ele>
<time>2020-09-11T15:11:32Z</time>
</trkpt>
<trkpt lat="47.560852" lon="11.119961">
<ele>752.6</ele>
<time>2020-09-11T15:11:33Z</time>
</trkpt>
<trkpt lat="47.560883" lon="11.120097">
<ele>751.846</ele>
<time>2020-09-11T15:11:34Z</time>
</trkpt>
<trkpt lat="47.560925" lon="11.120234">
<ele>751.038</ele>
<time>2020-09-11T15:11:35Z</time>
</trkpt>
<trkpt lat="47.560978" lon="11.120365">
<ele>750.383</ele>
<time>2020-09-11T15:11:36Z</time>
</trkpt>
<trkpt lat="47.561047" lon="11.120485">
<ele>749.664</ele>
<time>2020-09-11T15:11:37Z</time>
</trkpt>
<trkpt lat="47.561119" lon="11.120596">
<ele>748.769</ele>
<time>2020-09-11T15:11:38Z</time>
</trkpt>
<trkpt lat="47.561207" lon="11.120696">
<ele>748.16</ele>
<time>2020-09-11T15:11:39Z</time>
</trkpt>
<trkpt lat="47.561295" lon="11.1208">
<ele>747.402</ele>
<time>2020-09-11T15:11:40Z</time>
</trkpt>
<trkpt lat="47.561378" lon="11.120903">
<ele>746.631</ele>
<time>2020-09-11T15:11:41Z</time>
</trkpt>
<trkpt lat="47.561462" lon="11.121018">
<ele>745.759</ele>
<time>2020-09-11T15:11:42Z</time>
</trkpt>
<trkpt lat="47.561539" lon="11.121147">
<ele>745.079</ele>
<time>2020-09-11T15:11:43Z</time>
</trkpt>
<trkpt lat="47.5616" lon="11.121277">
<ele>744.461</ele>
<time>2020-09-11T15:11:44Z</time>
</trkpt>
<trkpt lat="47.561657" lon="11.121413">
<ele>743.692</ele>
<time>2020-09-11T15:11:45Z</time>
</trkpt>
<trkpt lat="47.561707" lon="11.121562">
<ele>743.093</ele>
<time>2020-09-11T15:11:46Z</time>
</trkpt>
<trkpt lat="47.561764" lon="11.121708">
<ele>742.418</ele>
<time>2020-09-11T15:11:47Z</time>
</trkpt>
<trkpt lat="47.561817" lon="11.121853">
<ele>741.592</ele>
<time>2020-09-11T15:11:48Z</time>
</trkpt>
<trkpt lat="47.561874" lon="11.122005">
<ele>741.035</ele>
<time>2020-09-11T15:11:49Z</time>
</trkpt>
<trkpt lat="47.561932" lon="11.122156">
<ele>740.258</ele>
<time>2020-09-11T15:11:50Z</time>
</trkpt>
<trkpt lat="47.561996" lon="11.122313">
<ele>739.724</ele>
<time>2020-09-11T15:11:51Z</time>
</trkpt>
<trkpt lat="47.562065" lon="11.122467">
<ele>739.062</ele>
<time>2020-09-11T15:11:52Z</time>
</trkpt>
<trkpt lat="47.56213" lon="11.122611">
<ele>738.22</ele>
<time>2020-09-11T15:11:53Z</time>
</trkpt>
<trkpt lat="47.562202" lon="11.122748">
<ele>737.488</ele>
<time>2020-09-11T15:11:54Z</time>
</trkpt>
<trkpt lat="47.562271" lon="11.122886">
<ele>736.618</ele>
<time>2020-09-11T15:11:55Z</time>
</trkpt>
<trkpt lat="47.562332" lon="11.123024">
<ele>735.935</ele>
<time>2020-09-11T15:11:56Z</time>
</trkpt>
<trkpt lat="47.562393" lon="11.123158">
<ele>735.189</ele>
<time>2020-09-11T15:11:57Z</time>
</trkpt>
<trkpt lat="47.562462" lon="11.123286">
<ele>734.345</ele>
<time>2020-09-11T15:11:58Z</time>
</trkpt>
<trkpt lat="47.562546" lon="11.123397">
<ele>733.762</ele>
<time>2020-09-11T15:11:59Z</time>
</trkpt>
<trkpt lat="47.562622" lon="11.12351">
<ele>733.054</ele>
<time>2020-09-11T15:12:00Z</time>
</trkpt>
<trkpt lat="47.562695" lon="11.123623">
<ele>732.274</ele>
<time>2020-09-11T15:12:01Z</time>
</trkpt>
<trkpt lat="47.562782" lon="11.12373">
<ele>731.449</ele>
<time>2020-09-11T15:12:02Z</time>
</trkpt>
<trkpt lat="47.56287" lon="11.12384">
<ele>730.47</ele>
<time>2020-09-11T15:12:03Z</time>
</trkpt>
<trkpt lat="47.562954" lon="11.123957">
<ele>729.663</ele>
<time>2020-09-11T15:12:04Z</time>
</trkpt>
<trkpt lat="47.563038" lon="11.124075">
<ele>728.725</ele>
<time>2020-09-11T15:12:05Z</time>
</trkpt>
<trkpt lat="47.563122" lon="11.124191">
<ele>727.991</ele>
<time>2020-09-11T15:12:06Z</time>
</trkpt>
<trkpt lat="47.563206" lon="11.124307">
<ele>727.197</ele>
<time>2020-09-11T15:12:07Z</time>
</trkpt>
<trkpt lat="47.563286" lon="11.124421">
<ele>726.358</ele>
<time>2020-09-11T15:12:08Z</time>
</trkpt>
<trkpt lat="47.563362" lon="11.124545">
<ele>725.805</ele>
<time>2020-09-11T15:12:09Z</time>
</trkpt>
<trkpt lat="47.563435" lon="11.124683">
<ele>725.05</ele>
<time>2020-09-11T15:12:10Z</time>
</trkpt>
<trkpt lat="47.563499" lon="11.124822">
<ele>724.552</ele>
<time>2020-09-11T15:12:11Z</time>
</trkpt>
<trkpt lat="47.563572" lon="11.124964">
<ele>723.896</ele>
<time>2020-09-11T15:12:12Z</time>
</trkpt>
<trkpt lat="47.563641" lon="11.125105">
<ele>723.068</ele>
<time>2020-09-11T15:12:13Z</time>
</trkpt>
<trkpt lat="47.563705" lon="11.125249">
<ele>722.359</ele>
<time>2020-09-11T15:12:14Z</time>
</trkpt>
<trkpt lat="47.563774" lon="11.125397">
<ele>721.499</ele>
<time>2020-09-11T15:12:15Z</time>
</trkpt>
<trkpt lat="47.563839" lon="11.125546">
<ele>720.824</ele>
<time>2020-09-11T15:12:16Z</time>
</trkpt>
<trkpt lat="47.5639" lon="11.125697">
<ele>720.074</ele>
<time>2020-09-11T15:12:17Z</time>
</trkpt>
<trkpt lat="47.563961" lon="11.125846">
<ele>719.29</ele>
<time>2020-09-11T15:12:18Z</time>
</trkpt>
<trkpt lat="47.564018" lon="11.126001">
<ele>718.338</ele>
<time>2020-09-11T15:12:19Z</time>
</trkpt>
<trkpt lat="47.564079" lon="11.126157">
<ele>717.715</ele>
<time>2020-09-11T15:12:20Z</time>
</trkpt>
<trkpt lat="47.564133" lon="11.126318">
<ele>716.93</ele>
<time>2020-09-11T15:12:21Z</time>
</trkpt>
<trkpt lat="47.564182" lon="11.126483">
<ele>716.41</ele>
<time>2020-09-11T15:12:22Z</time>
</trkpt>
<trkpt lat="47.564232" lon="11.126646">
<ele>715.631</ele>
<time>2020-09-11T15:12:23Z</time>
</trkpt>
<trkpt lat="47.564278" lon="11.126812">
<ele>714.968</ele>
<time>2020-09-11T15:12:24Z</time>
</trkpt>
<trkpt lat="47.564312" lon="11.126971">
<ele>714.103</ele>
<time>2020-09-11T15:12:25Z</time>
</trkpt>
<trkpt lat="47.56435" lon="11.127132">
<ele>713.428</ele>
<time>2020-09-11T15:12:26Z</time>
</trkpt>
<trkpt lat="47.564388" lon="11.127287">
<ele>712.689</ele>
<time>2020-09-11T15:12:27Z</time>
</trkpt>
<trkpt lat="47.564434" lon="11.12745">
<ele>711.883</ele>
<time>2020-09-11T15:12:28Z</time>
</trkpt>
<trkpt lat="47.564476" lon="11.127614">
<ele>710.958</ele>
<time>2020-09-11T15:12:29Z</time>
</trkpt>
<trkpt lat="47.564522" lon="11.127778">
<ele>710.317</ele>
<time>2020-09-11T15:12:30Z</time>
</trkpt>
<trkpt lat="47.564568" lon="11.127936">
<ele>709.57</ele>
<time>2020-09-11T15:12:31Z</time>
</trkpt>
<trkpt lat="47.564606" lon="11.1281">
<ele>708.665</ele>
<time>2020-09-11T15:12:32Z</time>
</trkpt>
<trkpt lat="47.564644" lon="11.128263">
<ele>707.952</ele>
<time>2020-09-11T15:12:33Z</time>
</trkpt>
<trkpt lat="47.564678" lon="11.128429">
<ele>707.319</ele>
<time>2020-09-11T15:12:34Z</time>
</trkpt>
<trkpt lat="47.564701" lon="11.1286">
<ele>706.507</ele>
<time>2020-09-11T15:12:35Z</time>
</trkpt>
<trkpt lat="47.564709" lon="11.128777">
<ele>705.685</ele>
<time>2020-09-11T15:12:36Z</time>
</trkpt>
<trkpt lat="47.564728" lon="11.128957">
<ele>704.703</ele>
<time>2020-09-11T15:12:37Z</time>
</trkpt>
<trkpt lat="47.564739" lon="11.129129">
<ele>704.023</ele>
<time>2020-09-11T15:12:38Z</time>
</trkpt>
<trkpt lat="47.564762" lon="11.129291">
<ele>703.178</ele>
<time>2020-09-11T15:12:39Z</time>
</trkpt>
<trkpt lat="47.564781" lon="11.129439">
<ele>702.245</ele>
<time>2020-09-11T15:12:40Z</time>
</trkpt>
<trkpt lat="47.564812" lon="11.129586">
<ele>701.593</ele>
<time>2020-09-11T15:12:41Z</time>
</trkpt>
<trkpt lat="47.564854" lon="11.129726">
<ele>700.858</ele>
<time>2020-09-11T15:12:42Z</time>
</trkpt>
<trkpt lat="47.564907" lon="11.12986">
<ele>700.043</ele>
<time>2020-09-11T15:12:43Z</time>
</trkpt>
<trkpt lat="47.564972" lon="11.129992">
<ele>699.491</ele>
<time>2020-09-11T15:12:44Z</time>
</trkpt>
<trkpt lat="47.565052" lon="11.130114">
<ele>698.796</ele>
<time>2020-09-11T15:12:45Z</time>
</trkpt>
<trkpt lat="47.565132" lon="11.13022">
<ele>697.993</ele>
<time>2020-09-11T15:12:46Z</time>
</trkpt>
<trkpt lat="47.565216" lon="11.13031">
<ele>697.165</ele>
<time>2020-09-11T15:12:47Z</time>
</trkpt>
<trkpt lat="47.565308" lon="11.13038">
<ele>696.279</ele>
<time>2020-09-11T15:12:48Z</time>
</trkpt>
<trkpt lat="47.565395" lon="11.130432">
<ele>695.246</ele>
<time>2020-09-11T15:12:49Z</time>
</trkpt>
<trkpt lat="47.565498" lon="11.130474">
<ele>694.54</ele>
<time>2020-09-11T15:12:50Z</time>
</trkpt>
<trkpt lat="47.565609" lon="11.130506">
<ele>693.706</ele>
<time>2020-09-11T15:12:51Z</time>
</trkpt>
<trkpt lat="47.56572" lon="11.130527">
<ele>693.139</ele>
<time>2020-09-11T15:12:52Z</time>
</trkpt>
<trkpt lat="47.56583" lon="11.130545">
<ele>692.462</ele>
<time>2020-09-11T15:12:53Z</time>
</trkpt>
<trkpt lat="47.565937" lon="11.130562">
<ele>691.655</ele>
<time>2020-09-11T15:12:54Z</time>
</trkpt>
<trkpt lat="47.56604" lon="11.130577">
<ele>691.12</ele>
<time>2020-09-11T15:12:55Z</time>
</trkpt>
<trkpt lat="47.566139" lon="11.130595">
<ele>690.698</ele>
<time>2020-09-11T15:12:56Z</time>
</trkpt>
<trkpt lat="47.566238" lon="11.130633">
<ele>690.16</ele>
<time>2020-09-11T15:12:57Z</time>
</trkpt>
<trkpt lat="47.566315" lon="11.13069">
<ele>689.519</ele>
<time>2020-09-11T15:12:58Z</time>
</trkpt>
<trkpt lat="47.566376" lon="11.130772">
<ele>689.076</ele>
<time>2020-09-11T15:12:59Z</time>
</trkpt>
<trkpt lat="47.566418" lon="11.130878">
<ele>688.437</ele>
<time>2020-09-11T15:13:00Z</time>
</trkpt>
<trkpt lat="47.566433" lon="11.131003">
<ele>687.947</ele>
<time>2020-09-11T15:13:01Z</time>
</trkpt>
<trkpt lat="47.566429" lon="11.131128">
<ele>687.478</ele>
<time>2020-09-11T15:13:02Z</time>
</trkpt>
<trkpt lat="47.566399" lon="11.131241">
<ele>686.991</ele>
<time>2020-09-11T15:13:03Z</time>
</trkpt>
<trkpt lat="47.566345" lon="11.131338">
<ele>686.694</ele>
<time>2020-09-11T15:13:04Z</time>
</trkpt>
<trkpt lat="47.566273" lon="11.131411">
<ele>686.144</ele>
<time>2020-09-11T15:13:05Z</time>
</trkpt>
<trkpt lat="47.566196" lon="11.13145">
<ele>685.69</ele>
<time>2020-09-11T15:13:06Z</time>
</trkpt>
<trkpt lat="47.566105" lon="11.131456">
<ele>685.087</ele>
<time>2020-09-11T15:13:07Z</time>
</trkpt>
<trkpt lat="47.566025" lon="11.131427">
<ele>684.688</ele>
<time>2020-09-11T15:13:08Z</time>
</trkpt>
<trkpt lat="47.565945" lon="11.131371">
<ele>684.084</ele>
<time>2020-09-11T15:13:09Z</time>
</trkpt>
<trkpt lat="47.565865" lon="11.131313">
<ele>683.615</ele>
<time>2020-09-11T15:13:10Z</time>
</trkpt>
<trkpt lat="47.565781" lon="11.131265">
<ele>683.328</ele>
<time>2020-09-11T15:13:11Z</time>
</trkpt>
<trkpt lat="47.565685" lon="11.131228">
<ele>682.854</ele>
<time>2020-09-11T15:13:12Z</time>
</trkpt>
<trkpt lat="47.565594" lon="11.131207">
<ele>682.486</ele>
<time>2020-09-11T15:13:13Z</time>
</trkpt>
<trkpt lat="47.565498" lon="11.131185">
<ele>681.987</ele>
<time>2020-09-11T15:13:14Z</time>
</trkpt>
<trkpt lat="47.565399" lon="11.131162">
<ele>681.626</ele>
<time>2020-09-11T15:13:15Z</time>
</trkpt>
<trkpt lat="47.565304" lon="11.131128">
<ele>681.066</ele>
<time>2020-09-11T15:13:16Z</time>
</trkpt>
<trkpt lat="47.565205" lon="11.131078">
<ele>680.402</ele>
<time>2020-09-11T15:13:17Z</time>
</trkpt>
<trkpt lat="47.565109" lon="11.131003">
<ele>679.617</ele>
<time>2020-09-11T15:13:18Z</time>
</trkpt>
<trkpt lat="47.565025" lon="11.130906">
<ele>678.695</ele>
<time>2020-09-11T15:13:19Z</time>
</trkpt>
<trkpt lat="47.564945" lon="11.130795">
<ele>678.075</ele>
<time>2020-09-11T15:13:20Z</time>
</trkpt>
<trkpt lat="47.564873" lon="11.130669">
<ele>677.334</ele>
<time>2020-09-11T15:13:21Z</time>
</trkpt>
<trkpt lat="47.564816" lon="11.130528">
<ele>676.498</ele>
<time>2020-09-11T15:13:22Z</time>
</trkpt>
<trkpt lat="47.564754" lon="11.13039">
<ele>675.941</ele>
<time>2020-09-11T15:13:23Z</time>
</trkpt>
<trkpt lat="47.564693" lon="11.130243">
<ele>675.253</ele>
<time>2020-09-11T15:13:24Z</time>
</trkpt>
<trkpt lat="47.564632" lon="11.130099">
<ele>674.478</ele>
<time>2020-09-11T15:13:25Z</time>
</trkpt>
<trkpt lat="47.564571" lon="11.129954">
<ele>673.871</ele>
<time>2020-09-11T15:13:26Z</time>
</trkpt>
<trkpt lat="47.564507" lon="11.12981">
<ele>673.071</ele>
<time>2020-09-11T15:13:27Z</time>
</trkpt>
<trkpt lat="47.564438" lon="11.129667">
<ele>672.526</ele>
<time>2020-09-11T15:13:28Z</time>
</trkpt>
<trkpt lat="47.564365" lon="11.129525">
<ele>671.86</ele>
<time>2020-09-11T15:13:29Z</time>
</trkpt>
<trkpt lat="47.564285" lon="11.129385">
<ele>671.007</ele>
<time>2020-09-11T15:13:30Z</time>
</trkpt>
<trkpt lat="47.564217" lon="11.129242">
<ele>670.431</ele>
<time>2020-09-11T15:13:31Z</time>
</trkpt>
<trkpt lat="47.564144" lon="11.129098">
<ele>669.584</ele>
<time>2020-09-11T15:13:32Z</time>
</trkpt>
<trkpt lat="47.564068" lon="11.128953">
<ele>668.913</ele>
<time>2020-09-11T15:13:33Z</time>
</trkpt>
<trkpt lat="47.563988" lon="11.128803">
<ele>668.266</ele>
<time>2020-09-11T15:13:34Z</time>
</trkpt>
<trkpt lat="47.563915" lon="11.12865">
<ele>667.43</ele>
<time>2020-09-11T15:13:35Z</time>
</trkpt>
<trkpt lat="47.563854" lon="11.128491">
<ele>666.762</ele>
<time>2020-09-11T15:13:36Z</time>
</trkpt>
<trkpt lat="47.563793" lon="11.12833">
<ele>666.023</ele>
<time>2020-09-11T15:13:37Z</time>
</trkpt>
<trkpt lat="47.563728" lon="11.12817">
<ele>665.158</ele>
<time>2020-09-11T15:13:38Z</time>
</trkpt>
<trkpt lat="47.56366" lon="11.128015">
<ele>664.565</ele>
<time>2020-09-11T15:13:39Z</time>
</trkpt>
<trkpt lat="47.563595" lon="11.127862">
<ele>663.83</ele>
<time>2020-09-11T15:13:40Z</time>
</trkpt>
<trkpt lat="47.563511" lon="11.127715">
<ele>662.995</ele>
<time>2020-09-11T15:13:41Z</time>
</trkpt>
<trkpt lat="47.563431" lon="11.127566">
<ele>662.129</ele>
<time>2020-09-11T15:13:42Z</time>
</trkpt>
<trkpt lat="47.563347" lon="11.127421">
<ele>661.126</ele>
<time>2020-09-11T15:13:43Z</time>
</trkpt>
<trkpt lat="47.563271" lon="11.127272">
<ele>660.241</ele>
<time>2020-09-11T15:13:44Z</time>
</trkpt>
<trkpt lat="47.563206" lon="11.127122">
<ele>659.576</ele>
<time>2020-09-11T15:13:45Z</time>
</trkpt>
<trkpt lat="47.563145" lon="11.12697">
<ele>658.765</ele>
<time>2020-09-11T15:13:46Z</time>
</trkpt>
<trkpt lat="47.563076" lon="11.126831">
<ele>658.212</ele>
<time>2020-09-11T15:13:47Z</time>
</trkpt>
<trkpt lat="47.562992" lon="11.126705">
<ele>657.574</ele>
<time>2020-09-11T15:13:48Z</time>
</trkpt>
<trkpt lat="47.562901" lon="11.126585">
<ele>656.861</ele>
<time>2020-09-11T15:13:49Z</time>
</trkpt>
<trkpt lat="47.562805" lon="11.126485">
<ele>656.385</ele>
<time>2020-09-11T15:13:50Z</time>
</trkpt>
<trkpt lat="47.562695" lon="11.126402">
<ele>655.733</ele>
<time>2020-09-11T15:13:51Z</time>
</trkpt>
<trkpt lat="47.56258" lon="11.126328">
<ele>655.294</ele>
<time>2020-09-11T15:13:52Z</time>
</trkpt>
<trkpt lat="47.562454" lon="11.126265">
<ele>654.678</ele>
<time>2020-09-11T15:13:53Z</time>
</trkpt>
<trkpt lat="47.562332" lon="11.126215">
<ele>653.887</ele>
<time>2020-09-11T15:13:54Z</time>
</trkpt>
<trkpt lat="47.562206" lon="11.126179">
<ele>653.351</ele>
<time>2020-09-11T15:13:55Z</time>
</trkpt>
<trkpt lat="47.56208" lon="11.126148">
<ele>652.599</ele>
<time>2020-09-11T15:13:56Z</time>
</trkpt>
<trkpt lat="47.561951" lon="11.126124">
<ele>652.096</ele>
<time>2020-09-11T15:13:57Z</time>
</trkpt>
<trkpt lat="47.561825" lon="11.126114">
<ele>651.381</ele>
<time>2020-09-11T15:13:58Z</time>
</trkpt>
<trkpt lat="47.561699" lon="11.126103">
<ele>650.858</ele>
<time>2020-09-11T15:13:59Z</time>
</trkpt>
<trkpt lat="47.561573" lon="11.126105">
<ele>650.47</ele>
<time>2020-09-11T15:14:00Z</time>
</trkpt>
<trkpt lat="47.561451" lon="11.126119">
<ele>650.21</ele>
<time>2020-09-11T15:14:01Z</time>
</trkpt>
<trkpt lat="47.561337" lon="11.126131">
<ele>650.041</ele>
<time>2020-09-11T15:14:02Z</time>
</trkpt>
<trkpt lat="47.561218" lon="11.126146">
<ele>649.932</ele>
<time>2020-09-11T15:14:03Z</time>
</trkpt>
<trkpt lat="47.561108" lon="11.126173">
<ele>649.881</ele>
<time>2020-09-11T15:14:04Z</time>
</trkpt>
<trkpt lat="47.561005" lon="11.126213">
<ele>649.856</ele>
<time>2020-09-11T15:14:05Z</time>
</trkpt>
<trkpt lat="47.560902" lon="11.126266">
<ele>649.856</ele>
<time>2020-09-11T15:14:06Z</time>
</trkpt>
<trkpt lat="47.56081" lon="11.126333">
<ele>649.856</ele>
<time>2020-09-11T15:14:07Z</time>
</trkpt>
<trkpt lat="47.560726" lon="11.126411">
<ele>649.856</ele>
<time>2020-09-11T15:14:08Z</time>
</trkpt>
<trkpt lat="47.56065" lon="11.126498">
<ele>649.594</ele>
<time>2020-09-11T15:14:09Z</time>
</trkpt>
<trkpt lat="47.560577" lon="11.126587">
<ele>649.384</ele>
<time>2020-09-11T15:14:10Z</time>
</trkpt>
<trkpt lat="47.560505" lon="11.12668">
<ele>649.25</ele>
<time>2020-09-11T15:14:11Z</time>
</trkpt>
<trkpt lat="47.56044" lon="11.12677">
<ele>648.898</ele>
<time>2020-09-11T15:14:12Z</time>
</trkpt>
<trkpt lat="47.560375" lon="11.126856">
<ele>648.63</ele>
<time>2020-09-11T15:14:13Z</time>
</trkpt>
<trkpt lat="47.560314" lon="11.12694">
<ele>648.431</ele>
<time>2020-09-11T15:14:14Z</time>
</trkpt>
<trkpt lat="47.560253" lon="11.12702">
<ele>648.28</ele>
<time>2020-09-11T15:14:15Z</time>
</trkpt>
<trkpt lat="47.560192" lon="11.1271">
<ele>648.148</ele>
<time>2020-09-11T15:14:16Z</time>
</trkpt>
<trkpt lat="47.560135" lon="11.127176">
<ele>648.072</ele>
<time>2020-09-11T15:14:17Z</time>
</trkpt>
<trkpt lat="47.560078" lon="11.127248">
<ele>648.022</ele>
<time>2020-09-11T15:14:18Z</time>
</trkpt>
<trkpt lat="47.56002" lon="11.127318">
<ele>647.998</ele>
<time>2020-09-11T15:14:19Z</time>
</trkpt>
<trkpt lat="47.559967" lon="11.127385">
<ele>647.998</ele>
<time>2020-09-11T15:14:20Z</time>
</trkpt>
<trkpt lat="47.559914" lon="11.127453">
<ele>647.998</ele>
<time>2020-09-11T15:14:21Z</time>
</trkpt>
<trkpt lat="47.559864" lon="11.127524">
<ele>647.998</ele>
<time>2020-09-11T15:14:22Z</time>
</trkpt>
<trkpt lat="47.559814" lon="11.127597">
<ele>647.998</ele>
<time>2020-09-11T15:14:23Z</time>
</trkpt>
<trkpt lat="47.559769" lon="11.12767">
<ele>647.998</ele>
<time>2020-09-11T15:14:24Z</time>
</trkpt>
<trkpt lat="47.559727" lon="11.127748">
<ele>647.998</ele>
<time>2020-09-11T15:14:25Z</time>
</trkpt>
<trkpt lat="47.559692" lon="11.127829">
<ele>647.998</ele>
<time>2020-09-11T15:14:26Z</time>
</trkpt>
<trkpt lat="47.559662" lon="11.127915">
<ele>647.998</ele>
<time>2020-09-11T15:14:27Z</time>
</trkpt>
<trkpt lat="47.559635" lon="11.128006">
<ele>647.696</ele>
<time>2020-09-11T15:14:28Z</time>
</trkpt>
<trkpt lat="47.55962" lon="11.128102">
<ele>647.458</ele>
<time>2020-09-11T15:14:29Z</time>
</trkpt>
<trkpt lat="47.559601" lon="11.128199">
<ele>647.276</ele>
<time>2020-09-11T15:14:30Z</time>
</trkpt>
<trkpt lat="47.559586" lon="11.1283">
<ele>647.141</ele>
<time>2020-09-11T15:14:31Z</time>
</trkpt>
<trkpt lat="47.559582" lon="11.128398">
<ele>647.048</ele>
<time>2020-09-11T15:14:32Z</time>
</trkpt>
<trkpt lat="47.559574" lon="11.128502">
<ele>646.991</ele>
<time>2020-09-11T15:14:33Z</time>
</trkpt>
<trkpt lat="47.559574" lon="11.128605">
<ele>646.965</ele>
<time>2020-09-11T15:14:34Z</time>
</trkpt>
<trkpt lat="47.559582" lon="11.128706">
<ele>646.718</ele>
<time>2020-09-11T15:14:35Z</time>
</trkpt>
<trkpt lat="47.559593" lon="11.128806">
<ele>646.513</ele>
<time>2020-09-11T15:14:36Z</time>
</trkpt>
<trkpt lat="47.559616" lon="11.128905">
<ele>646.345</ele>
<time>2020-09-11T15:14:37Z</time>
</trkpt>
<trkpt lat="47.559635" lon="11.129002">
<ele>646.232</ele>
<time>2020-09-11T15:14:38Z</time>
</trkpt>
<trkpt lat="47.559658" lon="11.129102">
<ele>645.862</ele>
<time>2020-09-11T15:14:39Z</time>
</trkpt>
<trkpt lat="47.559685" lon="11.129202">
<ele>645.562</ele>
<time>2020-09-11T15:14:40Z</time>
</trkpt>
<trkpt lat="47.559715" lon="11.129303">
<ele>645.334</ele>
<time>2020-09-11T15:14:41Z</time>
</trkpt>
<trkpt lat="47.559742" lon="11.129405">
<ele>645.165</ele>
<time>2020-09-11T15:14:42Z</time>
</trkpt>
<trkpt lat="47.559769" lon="11.129512">
<ele>645.035</ele>
<time>2020-09-11T15:14:43Z</time>
</trkpt>
<trkpt lat="47.559792" lon="11.129622">
<ele>644.989</ele>
<time>2020-09-11T15:14:44Z</time>
</trkpt>
<trkpt lat="47.559814" lon="11.129733">
<ele>644.69</ele>
<time>2020-09-11T15:14:45Z</time>
</trkpt>
<trkpt lat="47.559837" lon="11.129846">
<ele>644.435</ele>
<time>2020-09-11T15:14:46Z</time>
</trkpt>
<trkpt lat="47.559853" lon="11.12996">
<ele>644.252</ele>
<time>2020-09-11T15:14:47Z</time>
</trkpt>
<trkpt lat="47.559868" lon="11.130076">
<ele>644.106</ele>
<time>2020-09-11T15:14:48Z</time>
</trkpt>
<trkpt lat="47.559879" lon="11.130194">
<ele>643.995</ele>
<time>2020-09-11T15:14:49Z</time>
</trkpt>
<trkpt lat="47.559887" lon="11.130315">
<ele>643.916</ele>
<time>2020-09-11T15:14:50Z</time>
</trkpt>
<trkpt lat="47.559895" lon="11.130435">
<ele>643.866</ele>
<time>2020-09-11T15:14:51Z</time>
</trkpt>
<trkpt lat="47.559902" lon="11.130556">
<ele>643.841</ele>
<time>2020-09-11T15:14:52Z</time>
</trkpt>
<trkpt lat="47.55991" lon="11.13068">
<ele>643.595</ele>
<time>2020-09-11T15:14:53Z</time>
</trkpt>
<trkpt lat="47.559914" lon="11.130801">
<ele>643.402</ele>
<time>2020-09-11T15:14:54Z</time>
</trkpt>
<trkpt lat="47.559914" lon="11.130925">
<ele>643.271</ele>
<time>2020-09-11T15:14:55Z</time>
</trkpt>
<trkpt lat="47.559914" lon="11.131046">
<ele>643.129</ele>
<time>2020-09-11T15:14:56Z</time>
</trkpt>
<trkpt lat="47.559914" lon="11.131166">
<ele>643.029</ele>
<time>2020-09-11T15:14:57Z</time>
</trkpt>
<trkpt lat="47.559914" lon="11.131289">
<ele>642.732</ele>
<time>2020-09-11T15:14:58Z</time>
</trkpt>
<trkpt lat="47.55991" lon="11.131412">
<ele>642.498</ele>
<time>2020-09-11T15:14:59Z</time>
</trkpt>
<trkpt lat="47.559902" lon="11.131535">
<ele>642.325</ele>
<time>2020-09-11T15:15:00Z</time>
</trkpt>
<trkpt lat="47.559895" lon="11.131659">
<ele>642.175</ele>
<time>2020-09-11T15:15:01Z</time>
</trkpt>
<trkpt lat="47.559883" lon="11.131782">
<ele>641.838</ele>
<time>2020-09-11T15:15:02Z</time>
</trkpt>
<trkpt lat="47.559879" lon="11.131901">
<ele>641.584</ele>
<time>2020-09-11T15:15:03Z</time>
</trkpt>
<trkpt lat="47.559868" lon="11.132022">
<ele>641.407</ele>
<time>2020-09-11T15:15:04Z</time>
</trkpt>
<trkpt lat="47.559856" lon="11.132142">
<ele>641.281</ele>
<time>2020-09-11T15:15:05Z</time>
</trkpt>
<trkpt lat="47.559845" lon="11.132259">
<ele>640.893</ele>
<time>2020-09-11T15:15:06Z</time>
</trkpt>
<trkpt lat="47.55983" lon="11.132381">
<ele>640.576</ele>
<time>2020-09-11T15:15:07Z</time>
</trkpt>
<trkpt lat="47.559814" lon="11.132502">
<ele>640.332</ele>
<time>2020-09-11T15:15:08Z</time>
</trkpt>
<trkpt lat="47.559799" lon="11.132622">
<ele>640.151</ele>
<time>2020-09-11T15:15:09Z</time>
</trkpt>
<trkpt lat="47.55978" lon="11.132741">
<ele>640.031</ele>
<time>2020-09-11T15:15:10Z</time>
</trkpt>
<trkpt lat="47.559769" lon="11.132862">
<ele>639.958</ele>
<time>2020-09-11T15:15:11Z</time>
</trkpt>
<trkpt lat="47.55975" lon="11.132981">
<ele>639.657</ele>
<time>2020-09-11T15:15:12Z</time>
</trkpt>
<trkpt lat="47.559731" lon="11.133101">
<ele>639.427</ele>
<time>2020-09-11T15:15:13Z</time>
</trkpt>
<trkpt lat="47.559715" lon="11.133222">
<ele>639.263</ele>
<time>2020-09-11T15:15:14Z</time>
</trkpt>
<trkpt lat="47.559689" lon="11.133338">
<ele>639.161</ele>
<time>2020-09-11T15:15:15Z</time>
</trkpt>
<trkpt lat="47.559662" lon="11.133457">
<ele>639.052</ele>
<time>2020-09-11T15:15:16Z</time>
</trkpt>
<trkpt lat="47.559635" lon="11.133573">
<ele>638.711</ele>
<time>2020-09-11T15:15:17Z</time>
</trkpt>
<trkpt lat="47.559608" lon="11.133692">
<ele>638.44</ele>
<time>2020-09-11T15:15:18Z</time>
</trkpt>
<trkpt lat="47.559578" lon="11.133807">
<ele>638.237</ele>
<time>2020-09-11T15:15:19Z</time>
</trkpt>
<trkpt lat="47.559547" lon="11.133922">
<ele>638.009</ele>
<time>2020-09-11T15:15:20Z</time>
</trkpt>
<trkpt lat="47.559509" lon="11.134029">
<ele>637.916</ele>
<time>2020-09-11T15:15:21Z</time>
</trkpt>
<trkpt lat="47.559475" lon="11.134136">
<ele>637.859</ele>
<time>2020-09-11T15:15:22Z</time>
</trkpt>
<trkpt lat="47.559433" lon="11.134241">
<ele>637.833</ele>
<time>2020-09-11T15:15:23Z</time>
</trkpt>
<trkpt lat="47.559391" lon="11.134341">
<ele>637.596</ele>
<time>2020-09-11T15:15:24Z</time>
</trkpt>
<trkpt lat="47.559345" lon="11.13444">
<ele>637.427</ele>
<time>2020-09-11T15:15:25Z</time>
</trkpt>
<trkpt lat="47.559292" lon="11.134535">
<ele>637.255</ele>
<time>2020-09-11T15:15:26Z</time>
</trkpt>
<trkpt lat="47.559242" lon="11.134628">
<ele>637.116</ele>
<time>2020-09-11T15:15:27Z</time>
</trkpt>
<trkpt lat="47.559189" lon="11.134719">
<ele>637.022</ele>
<time>2020-09-11T15:15:28Z</time>
</trkpt>
<trkpt lat="47.559128" lon="11.134802">
<ele>636.679</ele>
<time>2020-09-11T15:15:29Z</time>
</trkpt>
<trkpt lat="47.559071" lon="11.13488">
<ele>636.409</ele>
<time>2020-09-11T15:15:30Z</time>
</trkpt>
<trkpt lat="47.559006" lon="11.134949">
<ele>636.206</ele>
<time>2020-09-11T15:15:31Z</time>
</trkpt>
<trkpt lat="47.558941" lon="11.13501">
<ele>636.024</ele>
<time>2020-09-11T15:15:32Z</time>
</trkpt>
<trkpt lat="47.558872" lon="11.135072">
<ele>635.934</ele>
<time>2020-09-11T15:15:33Z</time>
</trkpt>
<trkpt lat="47.558807" lon="11.135136">
<ele>635.874</ele>
<time>2020-09-11T15:15:34Z</time>
</trkpt>
<trkpt lat="47.558746" lon="11.135205">
<ele>635.828</ele>
<time>2020-09-11T15:15:35Z</time>
</trkpt>
<trkpt lat="47.558689" lon="11.135283">
<ele>635.798</ele>
<time>2020-09-11T15:15:36Z</time>
</trkpt>
<trkpt lat="47.558632" lon="11.135366">
<ele>635.533</ele>
<time>2020-09-11T15:15:37Z</time>
</trkpt>
<trkpt lat="47.558575" lon="11.135456">
<ele>635.327</ele>
<time>2020-09-11T15:15:38Z</time>
</trkpt>
<trkpt lat="47.558525" lon="11.13555">
<ele>635.173</ele>
<time>2020-09-11T15:15:39Z</time>
</trkpt>
<trkpt lat="47.558475" lon="11.135649">
<ele>635.062</ele>
<time>2020-09-11T15:15:40Z</time>
</trkpt>
<trkpt lat="47.558426" lon="11.135743">
<ele>634.982</ele>
<time>2020-09-11T15:15:41Z</time>
</trkpt>
<trkpt lat="47.55838" lon="11.135839">
<ele>634.939</ele>
<time>2020-09-11T15:15:42Z</time>
</trkpt>
<trkpt lat="47.558334" lon="11.135939">
<ele>634.67</ele>
<time>2020-09-11T15:15:43Z</time>
</trkpt>
<trkpt lat="47.558289" lon="11.136037">
<ele>634.478</ele>
<time>2020-09-11T15:15:44Z</time>
</trkpt>
<trkpt lat="47.558247" lon="11.136137">
<ele>634.347</ele>
<time>2020-09-11T15:15:45Z</time>
</trkpt>
<trkpt lat="47.558197" lon="11.136233">
<ele>634.206</ele>
<time>2020-09-11T15:15:46Z</time>
</trkpt>
<trkpt lat="47.558151" lon="11.136327">
<ele>634.096</ele>
<time>2020-09-11T15:15:47Z</time>
</trkpt>
<trkpt lat="47.558105" lon="11.136422">
<ele>634.024</ele>
<time>2020-09-11T15:15:48Z</time>
</trkpt>
<trkpt lat="47.55806" lon="11.136517">
<ele>633.712</ele>
<time>2020-09-11T15:15:49Z</time>
</trkpt>
<trkpt lat="47.558018" lon="11.13661">
<ele>633.471</ele>
<time>2020-09-11T15:15:50Z</time>
</trkpt>
<trkpt lat="47.557968" lon="11.136703">
<ele>633.238</ele>
<time>2020-09-11T15:15:51Z</time>
</trkpt>
<trkpt lat="47.557922" lon="11.136799">
<ele>633.11</ele>
<time>2020-09-11T15:15:52Z</time>
</trkpt>
<trkpt lat="47.557877" lon="11.136891">
<ele>633.035</ele>
<time>2020-09-11T15:15:53Z</time>
</trkpt>
<trkpt lat="47.557827" lon="11.136982">
<ele>632.754</ele>
<time>2020-09-11T15:15:54Z</time>
</trkpt>
<trkpt lat="47.557774" lon="11.137065">
<ele>632.543</ele>
<time>2020-09-11T15:15:55Z</time>
</trkpt>
<trkpt lat="47.557716" lon="11.137145">
<ele>632.356</ele>
<time>2020-09-11T15:15:56Z</time>
</trkpt>
<trkpt lat="47.557659" lon="11.137222">
<ele>632.23</ele>
<time>2020-09-11T15:15:57Z</time>
</trkpt>
<trkpt lat="47.557598" lon="11.137292">
<ele>632.145</ele>
<time>2020-09-11T15:15:58Z</time>
</trkpt>
<trkpt lat="47.557533" lon="11.137353">
<ele>631.813</ele>
<time>2020-09-11T15:15:59Z</time>
</trkpt>
<trkpt lat="47.557468" lon="11.137406">
<ele>631.549</ele>
<time>2020-09-11T15:16:00Z</time>
</trkpt>
<trkpt lat="47.557396" lon="11.137444">
<ele>631.349</ele>
<time>2020-09-11T15:16:01Z</time>
</trkpt>
<trkpt lat="47.55732" lon="11.137476">
<ele>631.166</ele>
<time>2020-09-11T15:16:02Z</time>
</trkpt>
<trkpt lat="47.557243" lon="11.137495">
<ele>631.075</ele>
<time>2020-09-11T15:16:03Z</time>
</trkpt>
<trkpt lat="47.557171" lon="11.137504">
<ele>631.015</ele>
<time>2020-09-11T15:16:04Z</time>
</trkpt>
<trkpt lat="47.557098" lon="11.137506">
<ele>630.968</ele>
<time>2020-09-11T15:16:05Z</time>
</trkpt>
<trkpt lat="47.557026" lon="11.137502">
<ele>630.938</ele>
<time>2020-09-11T15:16:06Z</time>
</trkpt>
<trkpt lat="47.556953" lon="11.137486">
<ele>630.938</ele>
<time>2020-09-11T15:16:07Z</time>
</trkpt>
<trkpt lat="47.556885" lon="11.137464">
<ele>630.938</ele>
<time>2020-09-11T15:16:08Z</time>
</trkpt>
<trkpt lat="47.556816" lon="11.137437">
<ele>630.938</ele>
<time>2020-09-11T15:16:09Z</time>
</trkpt>
<trkpt lat="47.556751" lon="11.13741">
<ele>630.939</ele>
<time>2020-09-11T15:16:10Z</time>
</trkpt>
<trkpt lat="47.556683" lon="11.137382">
<ele>630.939</ele>
<time>2020-09-11T15:16:11Z</time>
</trkpt>
<trkpt lat="47.556622" lon="11.137352">
<ele>630.939</ele>
<time>2020-09-11T15:16:12Z</time>
</trkpt>
<trkpt lat="47.556557" lon="11.137319">
<ele>630.938</ele>
<time>2020-09-11T15:16:13Z</time>
</trkpt>
<trkpt lat="47.556496" lon="11.137287">
<ele>630.939</ele>
<time>2020-09-11T15:16:14Z</time>
</trkpt>
<trkpt lat="47.556435" lon="11.137257">
<ele>630.938</ele>
<time>2020-09-11T15:16:15Z</time>
</trkpt>
<trkpt lat="47.556374" lon="11.137225">
<ele>630.939</ele>
<time>2020-09-11T15:16:16Z</time>
</trkpt>
<trkpt lat="47.556313" lon="11.137193">
<ele>630.938</ele>
<time>2020-09-11T15:16:17Z</time>
</trkpt>
<trkpt lat="47.556252" lon="11.137163">
<ele>630.938</ele>
<time>2020-09-11T15:16:18Z</time>
</trkpt>
<trkpt lat="47.556194" lon="11.137132">
<ele>630.938</ele>
<time>2020-09-11T15:16:19Z</time>
</trkpt>
<trkpt lat="47.556129" lon="11.137098">
<ele>630.939</ele>
<time>2020-09-11T15:16:20Z</time>
</trkpt>
<trkpt lat="47.556068" lon="11.137068">
<ele>630.938</ele>
<time>2020-09-11T15:16:21Z</time>
</trkpt>
<trkpt lat="47.556007" lon="11.13704">
<ele>630.938</ele>
<time>2020-09-11T15:16:22Z</time>
</trkpt>
<trkpt lat="47.555946" lon="11.137012">
<ele>630.938</ele>
<time>2020-09-11T15:16:23Z</time>
</trkpt>
<trkpt lat="47.555889" lon="11.136982">
<ele>630.938</ele>
<time>2020-09-11T15:16:24Z</time>
</trkpt>
<trkpt lat="47.555832" lon="11.136951">
<ele>630.938</ele>
<time>2020-09-11T15:16:25Z</time>
</trkpt>
<trkpt lat="47.555771" lon="11.136918">
<ele>630.938</ele>
<time>2020-09-11T15:16:26Z</time>
</trkpt>
<trkpt lat="47.555717" lon="11.136883">
<ele>630.938</ele>
<time>2020-09-11T15:16:27Z</time>
</trkpt>
<trkpt lat="47.55566" lon="11.136847">
<ele>630.938</ele>
<time>2020-09-11T15:16:28Z</time>
</trkpt>
<trkpt lat="47.555603" lon="11.13681">
<ele>630.938</ele>
<time>2020-09-11T15:16:29Z</time>
</trkpt>
<trkpt lat="47.555546" lon="11.136774">
<ele>630.939</ele>
<time>2020-09-11T15:16:30Z</time>
</trkpt>
<trkpt lat="47.555492" lon="11.136735">
<ele>630.938</ele>
<time>2020-09-11T15:16:31Z</time>
</trkpt>
<trkpt lat="47.555443" lon="11.13669">
<ele>630.938</ele>
<time>2020-09-11T15:16:32Z</time>
</trkpt>
<trkpt lat="47.555386" lon="11.136646">
<ele>630.939</ele>
<time>2020-09-11T15:16:33Z</time>
</trkpt>
<trkpt lat="47.555336" lon="11.136613">
<ele>630.938</ele>
<time>2020-09-11T15:16:34Z</time>
</trkpt>
<trkpt lat="47.555283" lon="11.136581">
<ele>630.938</ele>
<time>2020-09-11T15:16:35Z</time>
</trkpt>
<trkpt lat="47.555241" lon="11.136545">
<ele>630.938</ele>
<time>2020-09-11T15:16:36Z</time>
</trkpt>
<trkpt lat="47.555187" lon="11.13651">
<ele>630.938</ele>
<time>2020-09-11T15:16:37Z</time>
</trkpt>
<trkpt lat="47.555138" lon="11.136481">
<ele>630.938</ele>
<time>2020-09-11T15:16:38Z</time>
</trkpt>
<trkpt lat="47.555092" lon="11.136443">
<ele>630.938</ele>
<time>2020-09-11T15:16:39Z</time>
</trkpt>
<trkpt lat="47.555038" lon="11.136405">
<ele>631.176</ele>
<time>2020-09-11T15:16:40Z</time>
</trkpt>
<trkpt lat="47.554989" lon="11.136361">
<ele>631.365</ele>
<time>2020-09-11T15:16:41Z</time>
</trkpt>
<trkpt lat="47.554939" lon="11.13632">
<ele>631.51</ele>
<time>2020-09-11T15:16:42Z</time>
</trkpt>
<trkpt lat="47.55489" lon="11.13627">
<ele>631.619</ele>
<time>2020-09-11T15:16:43Z</time>
</trkpt>
<trkpt lat="47.55484" lon="11.136225">
<ele>631.697</ele>
<time>2020-09-11T15:16:44Z</time>
</trkpt>
<trkpt lat="47.554794" lon="11.13618">
<ele>631.75</ele>
<time>2020-09-11T15:16:45Z</time>
</trkpt>
<trkpt lat="47.554745" lon="11.136131">
<ele>631.799</ele>
<time>2020-09-11T15:16:46Z</time>
</trkpt>
<trkpt lat="47.554695" lon="11.13608">
<ele>631.822</ele>
<time>2020-09-11T15:16:47Z</time>
</trkpt>
<trkpt lat="47.554642" lon="11.136032">
<ele>631.822</ele>
<time>2020-09-11T15:16:48Z</time>
</trkpt>
<trkpt lat="47.554592" lon="11.135978">
<ele>631.822</ele>
<time>2020-09-11T15:16:49Z</time>
</trkpt>
<trkpt lat="47.554539" lon="11.135925">
<ele>631.822</ele>
<time>2020-09-11T15:16:50Z</time>
</trkpt>
<trkpt lat="47.554485" lon="11.135869">
<ele>631.822</ele>
<time>2020-09-11T15:16:51Z</time>
</trkpt>
<trkpt lat="47.554436" lon="11.135812">
<ele>631.822</ele>
<time>2020-09-11T15:16:52Z</time>
</trkpt>
<trkpt lat="47.554386" lon="11.135754">
<ele>631.822</ele>
<time>2020-09-11T15:16:53Z</time>
</trkpt>
<trkpt lat="47.554337" lon="11.135698">
<ele>631.822</ele>
<time>2020-09-11T15:16:54Z</time>
</trkpt>
<trkpt lat="47.554283" lon="11.135642">
<ele>631.822</ele>
<time>2020-09-11T15:16:55Z</time>
</trkpt>
<trkpt lat="47.554234" lon="11.135584">
<ele>631.822</ele>
<time>2020-09-11T15:16:56Z</time>
</trkpt>
<trkpt lat="47.55418" lon="11.135525">
<ele>631.822</ele>
<time>2020-09-11T15:16:57Z</time>
</trkpt>
<trkpt lat="47.554131" lon="11.135468">
<ele>631.822</ele>
<time>2020-09-11T15:16:58Z</time>
</trkpt>
<trkpt lat="47.554081" lon="11.135408">
<ele>631.822</ele>
<time>2020-09-11T15:16:59Z</time>
</trkpt>
<trkpt lat="47.554031" lon="11.135347">
<ele>631.822</ele>
<time>2020-09-11T15:17:00Z</time>
</trkpt>
<trkpt lat="47.553982" lon="11.135286">
<ele>631.822</ele>
<time>2020-09-11T15:17:01Z</time>
</trkpt>
<trkpt lat="47.553932" lon="11.135223">
<ele>631.822</ele>
<time>2020-09-11T15:17:02Z</time>
</trkpt>
<trkpt lat="47.553883" lon="11.135161">
<ele>631.822</ele>
<time>2020-09-11T15:17:03Z</time>
</trkpt>
<trkpt lat="47.553837" lon="11.135096">
<ele>631.822</ele>
<time>2020-09-11T15:17:04Z</time>
</trkpt>
<trkpt lat="47.553787" lon="11.135029">
<ele>631.822</ele>
<time>2020-09-11T15:17:05Z</time>
</trkpt>
<trkpt lat="47.553741" lon="11.134964">
<ele>631.822</ele>
<time>2020-09-11T15:17:06Z</time>
</trkpt>
<trkpt lat="47.553692" lon="11.134896">
<ele>631.822</ele>
<time>2020-09-11T15:17:07Z</time>
</trkpt>
<trkpt lat="47.553646" lon="11.134828">
<ele>631.822</ele>
<time>2020-09-11T15:17:08Z</time>
</trkpt>
<trkpt lat="47.553596" lon="11.134758">
<ele>631.822</ele>
<time>2020-09-11T15:17:09Z</time>
</trkpt>
<trkpt lat="47.553551" lon="11.134689">
<ele>631.822</ele>
<time>2020-09-11T15:17:10Z</time>
</trkpt>
<trkpt lat="47.553501" lon="11.134617">
<ele>631.822</ele>
<time>2020-09-11T15:17:11Z</time>
</trkpt>
<trkpt lat="47.553452" lon="11.134545">
<ele>631.822</ele>
<time>2020-09-11T15:17:12Z</time>
</trkpt>
<trkpt lat="47.553406" lon="11.13447">
<ele>631.822</ele>
<time>2020-09-11T15:17:13Z</time>
</trkpt>
<trkpt lat="47.55336" lon="11.134397">
<ele>631.822</ele>
<time>2020-09-11T15:17:14Z</time>
</trkpt>
<trkpt lat="47.55331" lon="11.134325">
<ele>631.822</ele>
<time>2020-09-11T15:17:15Z</time>
</trkpt>
<trkpt lat="47.553265" lon="11.134255">
<ele>631.822</ele>
<time>2020-09-11T15:17:16Z</time>
</trkpt>
<trkpt lat="47.553223" lon="11.13418">
<ele>631.822</ele>
<time>2020-09-11T15:17:17Z</time>
</trkpt>
<trkpt lat="47.553177" lon="11.134105">
<ele>631.822</ele>
<time>2020-09-11T15:17:18Z</time>
</trkpt>
<trkpt lat="47.553131" lon="11.134029">
<ele>631.822</ele>
<time>2020-09-11T15:17:19Z</time>
</trkpt>
<trkpt lat="47.553093" lon="11.133958">
<ele>631.822</ele>
<time>2020-09-11T15:17:20Z</time>
</trkpt>
<trkpt lat="47.553055" lon="11.133888">
<ele>631.822</ele>
<time>2020-09-11T15:17:21Z</time>
</trkpt>
<trkpt lat="47.55302" lon="11.133823">
<ele>631.822</ele>
<time>2020-09-11T15:17:22Z</time>
</trkpt>
<trkpt lat="47.55299" lon="11.133759">
<ele>631.822</ele>
<time>2020-09-11T15:17:23Z</time>
</trkpt>
<trkpt lat="47.552959" lon="11.1337">
<ele>631.822</ele>
<time>2020-09-11T15:17:24Z</time>
</trkpt>
<trkpt lat="47.552933" lon="11.133638">
<ele>631.822</ele>
<time>2020-09-11T15:17:25Z</time>
</trkpt>
<trkpt lat="47.552902" lon="11.133578">
<ele>631.822</ele>
<time>2020-09-11T15:17:26Z</time>
</trkpt>
<trkpt lat="47.552876" lon="11.133522">
<ele>632.118</ele>
<time>2020-09-11T15:17:27Z</time>
</trkpt>
<trkpt lat="47.552849" lon="11.133467">
<ele>632.357</ele>
<time>2020-09-11T15:17:28Z</time>
</trkpt>
<trkpt lat="47.552826" lon="11.133409">
<ele>632.546</ele>
<time>2020-09-11T15:17:29Z</time>
</trkpt>
<trkpt lat="47.552803" lon="11.13335">
<ele>632.69</ele>
<time>2020-09-11T15:17:30Z</time>
</trkpt>
<trkpt lat="47.552776" lon="11.133296">
<ele>632.788</ele>
<time>2020-09-11T15:17:31Z</time>
</trkpt>
<trkpt lat="47.55275" lon="11.133245">
<ele>632.85</ele>
<time>2020-09-11T15:17:32Z</time>
</trkpt>
<trkpt lat="47.552727" lon="11.133195">
<ele>632.877</ele>
<time>2020-09-11T15:17:33Z</time>
</trkpt>
<trkpt lat="47.5527" lon="11.133147">
<ele>632.882</ele>
<time>2020-09-11T15:17:34Z</time>
</trkpt>
<trkpt lat="47.552673" lon="11.133099">
<ele>632.882</ele>
<time>2020-09-11T15:17:35Z</time>
</trkpt>
<trkpt lat="47.552643" lon="11.13305">
<ele>632.882</ele>
<time>2020-09-11T15:17:36Z</time>
</trkpt>
<trkpt lat="47.552612" lon="11.133">
<ele>632.882</ele>
<time>2020-09-11T15:17:37Z</time>
</trkpt>
<trkpt lat="47.552582" lon="11.132948">
<ele>632.882</ele>
<time>2020-09-11T15:17:38Z</time>
</trkpt>
<trkpt lat="47.552544" lon="11.132895">
<ele>632.882</ele>
<time>2020-09-11T15:17:39Z</time>
</trkpt>
<trkpt lat="47.552509" lon="11.13284">
<ele>632.882</ele>
<time>2020-09-11T15:17:40Z</time>
</trkpt>
<trkpt lat="47.552471" lon="11.132783">
<ele>632.882</ele>
<time>2020-09-11T15:17:41Z</time>
</trkpt>
<trkpt lat="47.552437" lon="11.132724">
<ele>632.882</ele>
<time>2020-09-11T15:17:42Z</time>
</trkpt>
<trkpt lat="47.552402" lon="11.132659">
<ele>632.882</ele>
<time>2020-09-11T15:17:43Z</time>
</trkpt>
<trkpt lat="47.552364" lon="11.132588">
<ele>632.882</ele>
<time>2020-09-11T15:17:44Z</time>
</trkpt>
<trkpt lat="47.552326" lon="11.132521">
<ele>632.882</ele>
<time>2020-09-11T15:17:45Z</time>
</trkpt>
<trkpt lat="47.552288" lon="11.132448">
<ele>632.882</ele>
<time>2020-09-11T15:17:46Z</time>
</trkpt>
<trkpt lat="47.55225" lon="11.132379">
<ele>632.882</ele>
<time>2020-09-11T15:17:47Z</time>
</trkpt>
<trkpt lat="47.552208" lon="11.132308">
<ele>632.882</ele>
<time>2020-09-11T15:17:48Z</time>
</trkpt>
<trkpt lat="47.552166" lon="11.132236">
<ele>632.882</ele>
<time>2020-09-11T15:17:49Z</time>
</trkpt>
<trkpt lat="47.552124" lon="11.132167">
<ele>632.882</ele>
<time>2020-09-11T15:17:50Z</time>
</trkpt>
<trkpt lat="47.552086" lon="11.132096">
<ele>632.882</ele>
<time>2020-09-11T15:17:51Z</time>
</trkpt>
<trkpt lat="47.552044" lon="11.132029">
<ele>632.882</ele>
<time>2020-09-11T15:17:52Z</time>
</trkpt>
<trkpt lat="47.551998" lon="11.13196">
<ele>632.882</ele>
<time>2020-09-11T15:17:53Z</time>
</trkpt>
<trkpt lat="47.551956" lon="11.131888">
<ele>632.882</ele>
<time>2020-09-11T15:17:54Z</time>
</trkpt>
<trkpt lat="47.55191" lon="11.13182">
<ele>632.882</ele>
<time>2020-09-11T15:17:55Z</time>
</trkpt>
<trkpt lat="47.551861" lon="11.131746">
<ele>632.882</ele>
<time>2020-09-11T15:17:56Z</time>
</trkpt>
<trkpt lat="47.551815" lon="11.131675">
<ele>632.882</ele>
<time>2020-09-11T15:17:57Z</time>
</trkpt>
<trkpt lat="47.551762" lon="11.131605">
<ele>632.882</ele>
<time>2020-09-11T15:17:58Z</time>
</trkpt>
<trkpt lat="47.551716" lon="11.131535">
<ele>632.882</ele>
<time>2020-09-11T15:17:59Z</time>
</trkpt>
<trkpt lat="47.551666" lon="11.131465">
<ele>632.882</ele>
<time>2020-09-11T15:18:00Z</time>
</trkpt>
<trkpt lat="47.55162" lon="11.131393">
<ele>632.882</ele>
<time>2020-09-11T15:18:01Z</time>
</trkpt>
<trkpt lat="47.551567" lon="11.131322">
<ele>632.882</ele>
<time>2020-09-11T15:18:02Z</time>
</trkpt>
<trkpt lat="47.551521" lon="11.131249">
<ele>632.882</ele>
<time>2020-09-11T15:18:03Z</time>
</trkpt>
<trkpt lat="47.551468" lon="11.131176">
<ele>632.882</ele>
<time>2020-09-11T15:18:04Z</time>
</trkpt>
<trkpt lat="47.551422" lon="11.131104">
<ele>632.882</ele>
<time>2020-09-11T15:18:05Z</time>
</trkpt>
<trkpt lat="47.551373" lon="11.131032">
<ele>632.882</ele>
<time>2020-09-11T15:18:06Z</time>
</trkpt>
<trkpt lat="47.551327" lon="11.130962">
<ele>633.2</ele>
<time>2020-09-11T15:18:07Z</time>
</trkpt>
<trkpt lat="47.551273" lon="11.130889">
<ele>633.444</ele>
<time>2020-09-11T15:18:08Z</time>
</trkpt>
<trkpt lat="47.551228" lon="11.130818">
<ele>633.628</ele>
<time>2020-09-11T15:18:09Z</time>
</trkpt>
<trkpt lat="47.551178" lon="11.130749">
<ele>633.762</ele>
<time>2020-09-11T15:18:10Z</time>
</trkpt>
<trkpt lat="47.551132" lon="11.130675">
<ele>633.854</ele>
<time>2020-09-11T15:18:11Z</time>
</trkpt>
<trkpt lat="47.551079" lon="11.130605">
<ele>633.912</ele>
<time>2020-09-11T15:18:12Z</time>
</trkpt>
<trkpt lat="47.551029" lon="11.130531">
<ele>633.942</ele>
<time>2020-09-11T15:18:13Z</time>
</trkpt>
<trkpt lat="47.55098" lon="11.130458">
<ele>633.942</ele>
<time>2020-09-11T15:18:14Z</time>
</trkpt>
<trkpt lat="47.55093" lon="11.130384">
<ele>633.942</ele>
<time>2020-09-11T15:18:15Z</time>
</trkpt>
<trkpt lat="47.55088" lon="11.130312">
<ele>633.942</ele>
<time>2020-09-11T15:18:16Z</time>
</trkpt>
<trkpt lat="47.550827" lon="11.130237">
<ele>633.942</ele>
<time>2020-09-11T15:18:17Z</time>
</trkpt>
<trkpt lat="47.550781" lon="11.13016">
<ele>633.942</ele>
<time>2020-09-11T15:18:18Z</time>
</trkpt>
<trkpt lat="47.550724" lon="11.130085">
<ele>633.942</ele>
<time>2020-09-11T15:18:19Z</time>
</trkpt>
<trkpt lat="47.550674" lon="11.130009">
<ele>633.942</ele>
<time>2020-09-11T15:18:20Z</time>
</trkpt>
<trkpt lat="47.550621" lon="11.129933">
<ele>633.942</ele>
<time>2020-09-11T15:18:21Z</time>
</trkpt>
<trkpt lat="47.550568" lon="11.129858">
<ele>633.942</ele>
<time>2020-09-11T15:18:22Z</time>
</trkpt>
<trkpt lat="47.550514" lon="11.129785">
<ele>633.942</ele>
<time>2020-09-11T15:18:23Z</time>
</trkpt>
<trkpt lat="47.550461" lon="11.129708">
<ele>633.942</ele>
<time>2020-09-11T15:18:24Z</time>
</trkpt>
<trkpt lat="47.550411" lon="11.129632">
<ele>633.942</ele>
<time>2020-09-11T15:18:25Z</time>
</trkpt>
<trkpt lat="47.550362" lon="11.129552">
<ele>633.942</ele>
<time>2020-09-11T15:18:26Z</time>
</trkpt>
<trkpt lat="47.550304" lon="11.129473">
<ele>633.942</ele>
<time>2020-09-11T15:18:27Z</time>
</trkpt>
<trkpt lat="47.550255" lon="11.129394">
<ele>633.942</ele>
<time>2020-09-11T15:18:28Z</time>
</trkpt>
<trkpt lat="47.550205" lon="11.129315">
<ele>634.214</ele>
<time>2020-09-11T15:18:29Z</time>
</trkpt>
<trkpt lat="47.550159" lon="11.129236">
<ele>634.427</ele>
<time>2020-09-11T15:18:30Z</time>
</trkpt>
<trkpt lat="47.550106" lon="11.129158">
<ele>634.588</ele>
<time>2020-09-11T15:18:31Z</time>
</trkpt>
<trkpt lat="47.550064" lon="11.129081">
<ele>634.708</ele>
<time>2020-09-11T15:18:32Z</time>
</trkpt>
<trkpt lat="47.550018" lon="11.129">
<ele>634.788</ele>
<time>2020-09-11T15:18:33Z</time>
</trkpt>
<trkpt lat="47.549969" lon="11.128922">
<ele>634.843</ele>
<time>2020-09-11T15:18:34Z</time>
</trkpt>
<trkpt lat="47.549931" lon="11.128841">
<ele>634.886</ele>
<time>2020-09-11T15:18:35Z</time>
</trkpt>
<trkpt lat="47.549885" lon="11.128763">
<ele>634.914</ele>
<time>2020-09-11T15:18:36Z</time>
</trkpt>
<trkpt lat="47.549839" lon="11.128685">
<ele>634.914</ele>
<time>2020-09-11T15:18:37Z</time>
</trkpt>
<trkpt lat="47.549801" lon="11.128607">
<ele>634.914</ele>
<time>2020-09-11T15:18:38Z</time>
</trkpt>
<trkpt lat="47.549755" lon="11.128528">
<ele>634.914</ele>
<time>2020-09-11T15:18:39Z</time>
</trkpt>
<trkpt lat="47.549713" lon="11.128452">
<ele>634.914</ele>
<time>2020-09-11T15:18:40Z</time>
</trkpt>
<trkpt lat="47.549675" lon="11.128373">
<ele>634.914</ele>
<time>2020-09-11T15:18:41Z</time>
</trkpt>
<trkpt lat="47.549633" lon="11.128297">
<ele>634.914</ele>
<time>2020-09-11T15:18:42Z</time>
</trkpt>
<trkpt lat="47.549591" lon="11.128222">
<ele>634.914</ele>
<time>2020-09-11T15:18:43Z</time>
</trkpt>
<trkpt lat="47.549545" lon="11.128146">
<ele>635.148</ele>
<time>2020-09-11T15:18:44Z</time>
</trkpt>
<trkpt lat="47.549507" lon="11.128075">
<ele>635.316</ele>
<time>2020-09-11T15:18:45Z</time>
</trkpt>
<trkpt lat="47.549465" lon="11.128005">
<ele>635.488</ele>
<time>2020-09-11T15:18:46Z</time>
</trkpt>
<trkpt lat="47.549419" lon="11.127938">
<ele>635.627</ele>
<time>2020-09-11T15:18:47Z</time>
</trkpt>
<trkpt lat="47.549377" lon="11.127872">
<ele>635.734</ele>
<time>2020-09-11T15:18:48Z</time>
</trkpt>
<trkpt lat="47.549332" lon="11.127805">
<ele>635.811</ele>
<time>2020-09-11T15:18:49Z</time>
</trkpt>
<trkpt lat="47.549286" lon="11.127735">
<ele>635.861</ele>
<time>2020-09-11T15:18:50Z</time>
</trkpt>
<trkpt lat="47.549252" lon="11.127665">
<ele>635.885</ele>
<time>2020-09-11T15:18:51Z</time>
</trkpt>
<trkpt lat="47.549206" lon="11.127593">
<ele>635.885</ele>
<time>2020-09-11T15:18:52Z</time>
</trkpt>
<trkpt lat="47.549168" lon="11.127522">
<ele>635.886</ele>
<time>2020-09-11T15:18:53Z</time>
</trkpt>
<trkpt lat="47.549126" lon="11.127448">
<ele>635.885</ele>
<time>2020-09-11T15:18:54Z</time>
</trkpt>
<trkpt lat="47.549088" lon="11.127374">
<ele>636.082</ele>
<time>2020-09-11T15:18:55Z</time>
</trkpt>
<trkpt lat="47.549049" lon="11.1273">
<ele>636.268</ele>
<time>2020-09-11T15:18:56Z</time>
</trkpt>
<trkpt lat="47.549007" lon="11.127225">
<ele>636.421</ele>
<time>2020-09-11T15:18:57Z</time>
</trkpt>
<trkpt lat="47.548969" lon="11.127151">
<ele>636.543</ele>
<time>2020-09-11T15:18:58Z</time>
</trkpt>
<trkpt lat="47.548927" lon="11.127078">
<ele>636.638</ele>
<time>2020-09-11T15:18:59Z</time>
</trkpt>
<trkpt lat="47.548893" lon="11.127005">
<ele>636.705</ele>
<time>2020-09-11T15:19:00Z</time>
</trkpt>
<trkpt lat="47.548851" lon="11.126929">
<ele>636.749</ele>
<time>2020-09-11T15:19:01Z</time>
</trkpt>
<trkpt lat="47.548813" lon="11.126856">
<ele>636.769</ele>
<time>2020-09-11T15:19:02Z</time>
</trkpt>
<trkpt lat="47.548771" lon="11.126779">
<ele>636.769</ele>
<time>2020-09-11T15:19:03Z</time>
</trkpt>
<trkpt lat="47.548729" lon="11.126701">
<ele>636.769</ele>
<time>2020-09-11T15:19:04Z</time>
</trkpt>
<trkpt lat="47.548695" lon="11.126625">
<ele>636.769</ele>
<time>2020-09-11T15:19:05Z</time>
</trkpt>
<trkpt lat="47.548653" lon="11.126546">
<ele>636.769</ele>
<time>2020-09-11T15:19:06Z</time>
</trkpt>
<trkpt lat="47.548611" lon="11.126471">
<ele>636.769</ele>
<time>2020-09-11T15:19:07Z</time>
</trkpt>
<trkpt lat="47.548565" lon="11.12639">
<ele>636.769</ele>
<time>2020-09-11T15:19:08Z</time>
</trkpt>
<trkpt lat="47.548527" lon="11.126308">
<ele>636.769</ele>
<time>2020-09-11T15:19:09Z</time>
</trkpt>
<trkpt lat="47.548485" lon="11.126228">
<ele>636.769</ele>
<time>2020-09-11T15:19:10Z</time>
</trkpt>
<trkpt lat="47.548435" lon="11.126148">
<ele>636.77</ele>
<time>2020-09-11T15:19:11Z</time>
</trkpt>
<trkpt lat="47.548397" lon="11.126068">
<ele>636.769</ele>
<time>2020-09-11T15:19:12Z</time>
</trkpt>
<trkpt lat="47.548351" lon="11.125986">
<ele>636.769</ele>
<time>2020-09-11T15:19:13Z</time>
</trkpt>
<trkpt lat="47.548306" lon="11.125905">
<ele>636.769</ele>
<time>2020-09-11T15:19:14Z</time>
</trkpt>
<trkpt lat="47.548264" lon="11.125827">
<ele>636.769</ele>
<time>2020-09-11T15:19:15Z</time>
</trkpt>
<trkpt lat="47.548218" lon="11.125745">
<ele>636.769</ele>
<time>2020-09-11T15:19:16Z</time>
</trkpt>
<trkpt lat="47.548176" lon="11.125662">
<ele>636.769</ele>
<time>2020-09-11T15:19:17Z</time>
</trkpt>
<trkpt lat="47.548134" lon="11.125578">
<ele>636.769</ele>
<time>2020-09-11T15:19:18Z</time>
</trkpt>
<trkpt lat="47.548088" lon="11.125497">
<ele>636.769</ele>
<time>2020-09-11T15:19:19Z</time>
</trkpt>
<trkpt lat="47.548046" lon="11.125413">
<ele>636.769</ele>
<time>2020-09-11T15:19:20Z</time>
</trkpt>
<trkpt lat="47.548004" lon="11.125328">
<ele>636.769</ele>
<time>2020-09-11T15:19:21Z</time>
</trkpt>
<trkpt lat="47.547962" lon="11.125243">
<ele>637.042</ele>
<time>2020-09-11T15:19:22Z</time>
</trkpt>
<trkpt lat="47.547916" lon="11.12516">
<ele>637.259</ele>
<time>2020-09-11T15:19:23Z</time>
</trkpt>
<trkpt lat="47.547867" lon="11.125075">
<ele>637.424</ele>
<time>2020-09-11T15:19:24Z</time>
</trkpt>
<trkpt lat="47.547821" lon="11.12499">
<ele>637.537</ele>
<time>2020-09-11T15:19:25Z</time>
</trkpt>
<trkpt lat="47.547779" lon="11.124906">
<ele>637.66</ele>
<time>2020-09-11T15:19:26Z</time>
</trkpt>
<trkpt lat="47.547733" lon="11.124818">
<ele>637.747</ele>
<time>2020-09-11T15:19:27Z</time>
</trkpt>
<trkpt lat="47.547688" lon="11.124732">
<ele>637.803</ele>
<time>2020-09-11T15:19:28Z</time>
</trkpt>
<trkpt lat="47.547646" lon="11.124645">
<ele>637.83</ele>
<time>2020-09-11T15:19:29Z</time>
</trkpt>
<trkpt lat="47.5476" lon="11.124561">
<ele>637.83</ele>
<time>2020-09-11T15:19:30Z</time>
</trkpt>
<trkpt lat="47.547558" lon="11.124478">
<ele>637.83</ele>
<time>2020-09-11T15:19:31Z</time>
</trkpt>
<trkpt lat="47.547516" lon="11.124398">
<ele>637.83</ele>
<time>2020-09-11T15:19:32Z</time>
</trkpt>
<trkpt lat="47.547466" lon="11.124321">
<ele>637.83</ele>
<time>2020-09-11T15:19:33Z</time>
</trkpt>
<trkpt lat="47.547421" lon="11.124249">
<ele>637.83</ele>
<time>2020-09-11T15:19:34Z</time>
</trkpt>
<trkpt lat="47.547371" lon="11.124183">
<ele>637.83</ele>
<time>2020-09-11T15:19:35Z</time>
</trkpt>
<trkpt lat="47.547321" lon="11.124115">
<ele>637.83</ele>
<time>2020-09-11T15:19:36Z</time>
</trkpt>
<trkpt lat="47.547268" lon="11.12405">
<ele>637.83</ele>
<time>2020-09-11T15:19:37Z</time>
</trkpt>
<trkpt lat="47.547222" lon="11.123977">
<ele>637.83</ele>
<time>2020-09-11T15:19:38Z</time>
</trkpt>
<trkpt lat="47.547176" lon="11.123901">
<ele>638.15</ele>
<time>2020-09-11T15:19:39Z</time>
</trkpt>
<trkpt lat="47.547131" lon="11.123828">
<ele>638.399</ele>
<time>2020-09-11T15:19:40Z</time>
</trkpt>
<trkpt lat="47.547089" lon="11.123763">
<ele>638.593</ele>
<time>2020-09-11T15:19:41Z</time>
</trkpt>
<trkpt lat="47.547039" lon="11.123698">
<ele>638.732</ele>
<time>2020-09-11T15:19:42Z</time>
</trkpt>
<trkpt lat="47.547001" lon="11.123635">
<ele>638.83</ele>
<time>2020-09-11T15:19:43Z</time>
</trkpt>
<trkpt lat="47.546955" lon="11.123579">
<ele>638.895</ele>
<time>2020-09-11T15:19:44Z</time>
</trkpt>
<trkpt lat="47.546906" lon="11.123528">
<ele>638.946</ele>
<time>2020-09-11T15:19:45Z</time>
</trkpt>
<trkpt lat="47.546856" lon="11.123483">
<ele>638.979</ele>
<time>2020-09-11T15:19:46Z</time>
</trkpt>
<trkpt lat="47.546806" lon="11.123442">
<ele>638.979</ele>
<time>2020-09-11T15:19:47Z</time>
</trkpt>
<trkpt lat="47.546753" lon="11.123402">
<ele>638.979</ele>
<time>2020-09-11T15:19:48Z</time>
</trkpt>
<trkpt lat="47.546696" lon="11.123363">
<ele>638.979</ele>
<time>2020-09-11T15:19:49Z</time>
</trkpt>
<trkpt lat="47.546638" lon="11.123326">
<ele>638.979</ele>
<time>2020-09-11T15:19:50Z</time>
</trkpt>
<trkpt lat="47.546581" lon="11.123283">
<ele>639.263</ele>
<time>2020-09-11T15:19:51Z</time>
</trkpt>
<trkpt lat="47.546528" lon="11.123236">
<ele>639.487</ele>
<time>2020-09-11T15:19:52Z</time>
</trkpt>
<trkpt lat="47.546474" lon="11.123188">
<ele>639.658</ele>
<time>2020-09-11T15:19:53Z</time>
</trkpt>
<trkpt lat="47.546413" lon="11.123137">
<ele>639.784</ele>
<time>2020-09-11T15:19:54Z</time>
</trkpt>
<trkpt lat="47.54636" lon="11.123089">
<ele>639.869</ele>
<time>2020-09-11T15:19:55Z</time>
</trkpt>
<trkpt lat="47.546307" lon="11.123041">
<ele>639.956</ele>
<time>2020-09-11T15:19:56Z</time>
</trkpt>
<trkpt lat="47.546253" lon="11.122993">
<ele>640.012</ele>
<time>2020-09-11T15:19:57Z</time>
</trkpt>
<trkpt lat="47.546192" lon="11.122942">
<ele>640.039</ele>
<time>2020-09-11T15:19:58Z</time>
</trkpt>
<trkpt lat="47.546139" lon="11.122894">
<ele>640.039</ele>
<time>2020-09-11T15:19:59Z</time>
</trkpt>
<trkpt lat="47.546082" lon="11.122847">
<ele>640.039</ele>
<time>2020-09-11T15:20:00Z</time>
</trkpt>
<trkpt lat="47.546024" lon="11.122798">
<ele>640.039</ele>
<time>2020-09-11T15:20:01Z</time>
</trkpt>
<trkpt lat="47.545963" lon="11.122748">
<ele>640.039</ele>
<time>2020-09-11T15:20:02Z</time>
</trkpt>
<trkpt lat="47.545906" lon="11.122699">
<ele>640.039</ele>
<time>2020-09-11T15:20:03Z</time>
</trkpt>
<trkpt lat="47.545845" lon="11.12265">
<ele>640.039</ele>
<time>2020-09-11T15:20:04Z</time>
</trkpt>
<trkpt lat="47.545788" lon="11.122602">
<ele>640.277</ele>
<time>2020-09-11T15:20:05Z</time>
</trkpt>
<trkpt lat="47.545731" lon="11.122555">
<ele>640.501</ele>
<time>2020-09-11T15:20:06Z</time>
</trkpt>
<trkpt lat="47.545666" lon="11.122506">
<ele>640.556</ele>
<time>2020-09-11T15:20:07Z</time>
</trkpt>
<trkpt lat="47.545612" lon="11.122458">
<ele>640.424</ele>
<time>2020-09-11T15:20:08Z</time>
</trkpt>
<trkpt lat="47.545555" lon="11.122408">
<ele>640.315</ele>
<time>2020-09-11T15:20:09Z</time>
</trkpt>
<trkpt lat="47.545498" lon="11.122358">
<ele>640.221</ele>
<time>2020-09-11T15:20:10Z</time>
</trkpt>
<trkpt lat="47.545437" lon="11.12231">
<ele>640.14</ele>
<time>2020-09-11T15:20:11Z</time>
</trkpt>
<trkpt lat="47.545376" lon="11.122261">
<ele>640.07</ele>
<time>2020-09-11T15:20:12Z</time>
</trkpt>
<trkpt lat="47.545315" lon="11.122211">
<ele>640.007</ele>
<time>2020-09-11T15:20:13Z</time>
</trkpt>
<trkpt lat="47.545258" lon="11.122163">
<ele>639.978</ele>
<time>2020-09-11T15:20:14Z</time>
</trkpt>
<trkpt lat="47.545197" lon="11.122117">
<ele>639.951</ele>
<time>2020-09-11T15:20:15Z</time>
</trkpt>
<trkpt lat="47.545135" lon="11.122068">
<ele>639.951</ele>
<time>2020-09-11T15:20:16Z</time>
</trkpt>
<trkpt lat="47.545074" lon="11.12202">
<ele>639.951</ele>
<time>2020-09-11T15:20:17Z</time>
</trkpt>
<trkpt lat="47.545013" lon="11.12197">
<ele>639.951</ele>
<time>2020-09-11T15:20:18Z</time>
</trkpt>
<trkpt lat="47.544949" lon="11.121922">
<ele>639.951</ele>
<time>2020-09-11T15:20:19Z</time>
</trkpt>
<trkpt lat="47.544884" lon="11.121876">
<ele>639.951</ele>
<time>2020-09-11T15:20:20Z</time>
</trkpt>
<trkpt lat="47.544819" lon="11.12183">
<ele>639.951</ele>
<time>2020-09-11T15:20:21Z</time>
</trkpt>
<trkpt lat="47.544754" lon="11.121786">
<ele>639.951</ele>
<time>2020-09-11T15:20:22Z</time>
</trkpt>
<trkpt lat="47.544685" lon="11.121741">
<ele>639.951</ele>
<time>2020-09-11T15:20:23Z</time>
</trkpt>
<trkpt lat="47.544617" lon="11.121698">
<ele>639.951</ele>
<time>2020-09-11T15:20:24Z</time>
</trkpt>
<trkpt lat="47.544552" lon="11.121654">
<ele>639.951</ele>
<time>2020-09-11T15:20:25Z</time>
</trkpt>
<trkpt lat="47.544483" lon="11.121607">
<ele>639.951</ele>
<time>2020-09-11T15:20:26Z</time>
</trkpt>
<trkpt lat="47.544415" lon="11.121562">
<ele>639.951</ele>
<time>2020-09-11T15:20:27Z</time>
</trkpt>
<trkpt lat="47.544342" lon="11.121517">
<ele>639.951</ele>
<time>2020-09-11T15:20:28Z</time>
</trkpt>
<trkpt lat="47.544273" lon="11.121471">
<ele>639.951</ele>
<time>2020-09-11T15:20:29Z</time>
</trkpt>
<trkpt lat="47.544205" lon="11.121427">
<ele>639.769</ele>
<time>2020-09-11T15:20:30Z</time>
</trkpt>
<trkpt lat="47.544136" lon="11.121382">
<ele>639.527</ele>
<time>2020-09-11T15:20:31Z</time>
</trkpt>
<trkpt lat="47.544071" lon="11.121338">
<ele>639.342</ele>
<time>2020-09-11T15:20:32Z</time>
</trkpt>
<trkpt lat="47.544003" lon="11.121291">
<ele>639.205</ele>
<time>2020-09-11T15:20:33Z</time>
</trkpt>
<trkpt lat="47.543941" lon="11.121247">
<ele>639.108</ele>
<time>2020-09-11T15:20:34Z</time>
</trkpt>
<trkpt lat="47.54388" lon="11.121202">
<ele>639.041</ele>
<time>2020-09-11T15:20:35Z</time>
</trkpt>
<trkpt lat="47.543816" lon="11.121157">
<ele>638.95</ele>
<time>2020-09-11T15:20:36Z</time>
</trkpt>
<trkpt lat="47.543755" lon="11.12111">
<ele>638.919</ele>
<time>2020-09-11T15:20:37Z</time>
</trkpt>
<trkpt lat="47.54369" lon="11.121065">
<ele>638.89</ele>
<time>2020-09-11T15:20:38Z</time>
</trkpt>
<trkpt lat="47.543629" lon="11.121023">
<ele>638.89</ele>
<time>2020-09-11T15:20:39Z</time>
</trkpt>
<trkpt lat="47.543568" lon="11.120983">
<ele>639.152</ele>
<time>2020-09-11T15:20:40Z</time>
</trkpt>
<trkpt lat="47.543503" lon="11.120945">
<ele>639.358</ele>
<time>2020-09-11T15:20:41Z</time>
</trkpt>
<trkpt lat="47.543442" lon="11.120903">
<ele>639.516</ele>
<time>2020-09-11T15:20:42Z</time>
</trkpt>
<trkpt lat="47.543381" lon="11.120862">
<ele>639.634</ele>
<time>2020-09-11T15:20:43Z</time>
</trkpt>
<trkpt lat="47.54332" lon="11.120824">
<ele>639.718</ele>
<time>2020-09-11T15:20:44Z</time>
</trkpt>
<trkpt lat="47.543259" lon="11.120785">
<ele>639.78</ele>
<time>2020-09-11T15:20:45Z</time>
</trkpt>
<trkpt lat="47.543198" lon="11.120745">
<ele>639.835</ele>
<time>2020-09-11T15:20:46Z</time>
</trkpt>
<trkpt lat="47.543137" lon="11.120707">
<ele>639.863</ele>
<time>2020-09-11T15:20:47Z</time>
</trkpt>
<trkpt lat="47.543079" lon="11.120668">
<ele>639.863</ele>
<time>2020-09-11T15:20:48Z</time>
</trkpt>
<trkpt lat="47.543018" lon="11.120629">
<ele>639.863</ele>
<time>2020-09-11T15:20:49Z</time>
</trkpt>
<trkpt lat="47.542961" lon="11.120588">
<ele>639.863</ele>
<time>2020-09-11T15:20:50Z</time>
</trkpt>
<trkpt lat="47.5429" lon="11.12055">
<ele>639.862</ele>
<time>2020-09-11T15:20:51Z</time>
</trkpt>
<trkpt lat="47.542839" lon="11.120512">
<ele>639.863</ele>
<time>2020-09-11T15:20:52Z</time>
</trkpt>
<trkpt lat="47.542782" lon="11.120472">
<ele>639.862</ele>
<time>2020-09-11T15:20:53Z</time>
</trkpt>
<trkpt lat="47.542721" lon="11.120432">
<ele>639.862</ele>
<time>2020-09-11T15:20:54Z</time>
</trkpt>
<trkpt lat="47.542664" lon="11.12039">
<ele>639.862</ele>
<time>2020-09-11T15:20:55Z</time>
</trkpt>
<trkpt lat="47.542603" lon="11.120346">
<ele>639.863</ele>
<time>2020-09-11T15:20:56Z</time>
</trkpt>
<trkpt lat="47.542545" lon="11.120303">
<ele>639.863</ele>
<time>2020-09-11T15:20:57Z</time>
</trkpt>
<trkpt lat="47.542488" lon="11.12026">
<ele>639.862</ele>
<time>2020-09-11T15:20:58Z</time>
</trkpt>
<trkpt lat="47.542435" lon="11.120214">
<ele>639.863</ele>
<time>2020-09-11T15:20:59Z</time>
</trkpt>
<trkpt lat="47.542374" lon="11.120165">
<ele>639.863</ele>
<time>2020-09-11T15:21:00Z</time>
</trkpt>
<trkpt lat="47.54232" lon="11.120116">
<ele>639.863</ele>
<time>2020-09-11T15:21:01Z</time>
</trkpt>
<trkpt lat="47.542267" lon="11.120066">
<ele>639.862</ele>
<time>2020-09-11T15:21:02Z</time>
</trkpt>
<trkpt lat="47.542213" lon="11.120009">
<ele>639.863</ele>
<time>2020-09-11T15:21:03Z</time>
</trkpt>
<trkpt lat="47.542164" lon="11.119952">
<ele>639.863</ele>
<time>2020-09-11T15:21:04Z</time>
</trkpt>
<trkpt lat="47.54211" lon="11.119892">
<ele>639.863</ele>
<time>2020-09-11T15:21:05Z</time>
</trkpt>
<trkpt lat="47.542065" lon="11.119826">
<ele>640.077</ele>
<time>2020-09-11T15:21:06Z</time>
</trkpt>
<trkpt lat="47.542015" lon="11.11976">
<ele>640.258</ele>
<time>2020-09-11T15:21:07Z</time>
</trkpt>
<trkpt lat="47.541969" lon="11.119695">
<ele>640.407</ele>
<time>2020-09-11T15:21:08Z</time>
</trkpt>
<trkpt lat="47.541924" lon="11.119628">
<ele>640.527</ele>
<time>2020-09-11T15:21:09Z</time>
</trkpt>
<trkpt lat="47.541882" lon="11.119558">
<ele>640.618</ele>
<time>2020-09-11T15:21:10Z</time>
</trkpt>
<trkpt lat="47.541836" lon="11.119488">
<ele>640.684</ele>
<time>2020-09-11T15:21:11Z</time>
</trkpt>
<trkpt lat="47.54179" lon="11.119422">
<ele>640.726</ele>
<time>2020-09-11T15:21:12Z</time>
</trkpt>
<trkpt lat="47.541744" lon="11.119358">
<ele>640.747</ele>
<time>2020-09-11T15:21:13Z</time>
</trkpt>
<trkpt lat="47.541695" lon="11.119297">
<ele>640.747</ele>
<time>2020-09-11T15:21:14Z</time>
</trkpt>
<trkpt lat="47.541649" lon="11.11924">
<ele>640.747</ele>
<time>2020-09-11T15:21:15Z</time>
</trkpt>
<trkpt lat="47.541592" lon="11.11919">
<ele>640.747</ele>
<time>2020-09-11T15:21:16Z</time>
</trkpt>
<trkpt lat="47.541538" lon="11.119143">
<ele>640.747</ele>
<time>2020-09-11T15:21:17Z</time>
</trkpt>
<trkpt lat="47.541485" lon="11.119097">
<ele>640.747</ele>
<time>2020-09-11T15:21:18Z</time>
</trkpt>
<trkpt lat="47.541428" lon="11.119056">
<ele>640.747</ele>
<time>2020-09-11T15:21:19Z</time>
</trkpt>
<trkpt lat="47.541374" lon="11.119015">
<ele>640.747</ele>
<time>2020-09-11T15:21:20Z</time>
</trkpt>
<trkpt lat="47.541321" lon="11.118972">
<ele>640.747</ele>
<time>2020-09-11T15:21:21Z</time>
</trkpt>
<trkpt lat="47.541264" lon="11.118925">
<ele>640.747</ele>
<time>2020-09-11T15:21:22Z</time>
</trkpt>
<trkpt lat="47.541214" lon="11.118878">
<ele>640.747</ele>
<time>2020-09-11T15:21:23Z</time>
</trkpt>
<trkpt lat="47.541164" lon="11.118828">
<ele>640.747</ele>
<time>2020-09-11T15:21:24Z</time>
</trkpt>
<trkpt lat="47.541115" lon="11.118772">
<ele>640.747</ele>
<time>2020-09-11T15:21:25Z</time>
</trkpt>
<trkpt lat="47.541073" lon="11.118706">
<ele>640.747</ele>
<time>2020-09-11T15:21:26Z</time>
</trkpt>
<trkpt lat="47.541035" lon="11.118635">
<ele>640.747</ele>
<time>2020-09-11T15:21:27Z</time>
</trkpt>
<trkpt lat="47.541004" lon="11.118557">
<ele>640.747</ele>
<time>2020-09-11T15:21:28Z</time>
</trkpt>
<trkpt lat="47.540974" lon="11.118473">
<ele>640.747</ele>
<time>2020-09-11T15:21:29Z</time>
</trkpt>
<trkpt lat="47.540955" lon="11.11839">
<ele>640.747</ele>
<time>2020-09-11T15:21:30Z</time>
</trkpt>
<trkpt lat="47.540928" lon="11.118312">
<ele>640.747</ele>
<time>2020-09-11T15:21:31Z</time>
</trkpt>
<trkpt lat="47.540897" lon="11.118245">
<ele>640.747</ele>
<time>2020-09-11T15:21:32Z</time>
</trkpt>
<trkpt lat="47.540855" lon="11.11819">
<ele>640.747</ele>
<time>2020-09-11T15:21:33Z</time>
</trkpt>
<trkpt lat="47.540813" lon="11.118151">
<ele>640.747</ele>
<time>2020-09-11T15:21:34Z</time>
</trkpt>
<trkpt lat="47.540764" lon="11.118119">
<ele>640.747</ele>
<time>2020-09-11T15:21:35Z</time>
</trkpt>
<trkpt lat="47.540718" lon="11.118096">
<ele>640.747</ele>
<time>2020-09-11T15:21:36Z</time>
</trkpt>
<trkpt lat="47.540668" lon="11.118078">
<ele>640.747</ele>
<time>2020-09-11T15:21:37Z</time>
</trkpt>
<trkpt lat="47.540619" lon="11.118062">
<ele>640.747</ele>
<time>2020-09-11T15:21:38Z</time>
</trkpt>
<trkpt lat="47.540565" lon="11.118047">
<ele>640.747</ele>
<time>2020-09-11T15:21:39Z</time>
</trkpt>
<trkpt lat="47.540512" lon="11.118033">
<ele>640.747</ele>
<time>2020-09-11T15:21:40Z</time>
</trkpt>
<trkpt lat="47.540455" lon="11.118021">
<ele>641.007</ele>
<time>2020-09-11T15:21:41Z</time>
</trkpt>
<trkpt lat="47.540401" lon="11.118009">
<ele>641.21</ele>
<time>2020-09-11T15:21:42Z</time>
</trkpt>
<trkpt lat="47.540348" lon="11.117993">
<ele>641.368</ele>
<time>2020-09-11T15:21:43Z</time>
</trkpt>
<trkpt lat="47.540287" lon="11.117979">
<ele>641.485</ele>
<time>2020-09-11T15:21:44Z</time>
</trkpt>
<trkpt lat="47.540234" lon="11.117969">
<ele>641.562</ele>
<time>2020-09-11T15:21:45Z</time>
</trkpt>
<trkpt lat="47.540176" lon="11.117955">
<ele>641.643</ele>
<time>2020-09-11T15:21:46Z</time>
</trkpt>
<trkpt lat="47.540119" lon="11.11794">
<ele>641.694</ele>
<time>2020-09-11T15:21:47Z</time>
</trkpt>
<trkpt lat="47.540062" lon="11.117923">
<ele>641.719</ele>
<time>2020-09-11T15:21:48Z</time>
</trkpt>
<trkpt lat="47.540005" lon="11.117908">
<ele>641.719</ele>
<time>2020-09-11T15:21:49Z</time>
</trkpt>
<trkpt lat="47.539951" lon="11.117893">
<ele>641.719</ele>
<time>2020-09-11T15:21:50Z</time>
</trkpt>
<trkpt lat="47.539894" lon="11.117876">
<ele>641.719</ele>
<time>2020-09-11T15:21:51Z</time>
</trkpt>
<trkpt lat="47.539837" lon="11.117858">
<ele>641.719</ele>
<time>2020-09-11T15:21:52Z</time>
</trkpt>
<trkpt lat="47.539783" lon="11.117841">
<ele>641.719</ele>
<time>2020-09-11T15:21:53Z</time>
</trkpt>
<trkpt lat="47.539726" lon="11.117822">
<ele>641.719</ele>
<time>2020-09-11T15:21:54Z</time>
</trkpt>
<trkpt lat="47.539665" lon="11.117802">
<ele>641.719</ele>
<time>2020-09-11T15:21:55Z</time>
</trkpt>
<trkpt lat="47.539608" lon="11.117778">
<ele>641.719</ele>
<time>2020-09-11T15:21:56Z</time>
</trkpt>
<trkpt lat="47.539555" lon="11.117755">
<ele>641.719</ele>
<time>2020-09-11T15:21:57Z</time>
</trkpt>
<trkpt lat="47.539501" lon="11.11773">
<ele>641.719</ele>
<time>2020-09-11T15:21:58Z</time>
</trkpt>
<trkpt lat="47.53944" lon="11.117703">
<ele>641.719</ele>
<time>2020-09-11T15:21:59Z</time>
</trkpt>
<trkpt lat="47.539383" lon="11.117679">
<ele>641.719</ele>
<time>2020-09-11T15:22:00Z</time>
</trkpt>
<trkpt lat="47.53933" lon="11.11765">
<ele>641.719</ele>
<time>2020-09-11T15:22:01Z</time>
</trkpt>
<trkpt lat="47.539268" lon="11.117623">
<ele>641.719</ele>
<time>2020-09-11T15:22:02Z</time>
</trkpt>
<trkpt lat="47.539211" lon="11.117596">
<ele>641.719</ele>
<time>2020-09-11T15:22:03Z</time>
</trkpt>
<trkpt lat="47.539154" lon="11.117564">
<ele>641.719</ele>
<time>2020-09-11T15:22:04Z</time>
</trkpt>
<trkpt lat="47.539101" lon="11.117532">
<ele>641.719</ele>
<time>2020-09-11T15:22:05Z</time>
</trkpt>
<trkpt lat="47.539047" lon="11.117496">
<ele>641.719</ele>
<time>2020-09-11T15:22:06Z</time>
</trkpt>
<trkpt lat="47.53899" lon="11.117459">
<ele>641.719</ele>
<time>2020-09-11T15:22:07Z</time>
</trkpt>
<trkpt lat="47.538933" lon="11.117423">
<ele>642.002</ele>
<time>2020-09-11T15:22:08Z</time>
</trkpt>
<trkpt lat="47.538879" lon="11.117387">
<ele>642.217</ele>
<time>2020-09-11T15:22:09Z</time>
</trkpt>
<trkpt lat="47.538818" lon="11.117349">
<ele>642.385</ele>
<time>2020-09-11T15:22:10Z</time>
</trkpt>
<trkpt lat="47.538761" lon="11.117307">
<ele>642.505</ele>
<time>2020-09-11T15:22:11Z</time>
</trkpt>
<trkpt lat="47.538712" lon="11.117263">
<ele>642.593</ele>
<time>2020-09-11T15:22:12Z</time>
</trkpt>
<trkpt lat="47.538658" lon="11.117218">
<ele>642.646</ele>
<time>2020-09-11T15:22:13Z</time>
</trkpt>
<trkpt lat="47.538605" lon="11.117173">
<ele>642.669</ele>
<time>2020-09-11T15:22:14Z</time>
</trkpt>
<trkpt lat="47.538551" lon="11.117132">
<ele>642.692</ele>
<time>2020-09-11T15:22:15Z</time>
</trkpt>
<trkpt lat="47.538498" lon="11.117088">
<ele>642.692</ele>
<time>2020-09-11T15:22:16Z</time>
</trkpt>
<trkpt lat="47.538445" lon="11.117044">
<ele>642.692</ele>
<time>2020-09-11T15:22:17Z</time>
</trkpt>
<trkpt lat="47.538395" lon="11.117001">
<ele>642.692</ele>
<time>2020-09-11T15:22:18Z</time>
</trkpt>
<trkpt lat="47.538342" lon="11.116952">
<ele>642.692</ele>
<time>2020-09-11T15:22:19Z</time>
</trkpt>
<trkpt lat="47.538288" lon="11.116904">
<ele>642.692</ele>
<time>2020-09-11T15:22:20Z</time>
</trkpt>
<trkpt lat="47.538235" lon="11.116858">
<ele>642.692</ele>
<time>2020-09-11T15:22:21Z</time>
</trkpt>
<trkpt lat="47.538185" lon="11.116805">
<ele>642.692</ele>
<time>2020-09-11T15:22:22Z</time>
</trkpt>
<trkpt lat="47.538139" lon="11.116741">
<ele>642.692</ele>
<time>2020-09-11T15:22:23Z</time>
</trkpt>
<trkpt lat="47.538097" lon="11.11668">
<ele>642.692</ele>
<time>2020-09-11T15:22:24Z</time>
</trkpt>
<trkpt lat="47.538048" lon="11.116623">
<ele>642.692</ele>
<time>2020-09-11T15:22:25Z</time>
</trkpt>
<trkpt lat="47.537998" lon="11.116575">
<ele>642.692</ele>
<time>2020-09-11T15:22:26Z</time>
</trkpt>
<trkpt lat="47.537945" lon="11.116531">
<ele>642.692</ele>
<time>2020-09-11T15:22:27Z</time>
</trkpt>
<trkpt lat="47.537899" lon="11.116488">
<ele>642.692</ele>
<time>2020-09-11T15:22:28Z</time>
</trkpt>
<trkpt lat="47.537846" lon="11.116444">
<ele>642.692</ele>
<time>2020-09-11T15:22:29Z</time>
</trkpt>
<trkpt lat="47.5378" lon="11.116399">
<ele>642.691</ele>
<time>2020-09-11T15:22:30Z</time>
</trkpt>
<trkpt lat="47.53775" lon="11.11635">
<ele>642.692</ele>
<time>2020-09-11T15:22:31Z</time>
</trkpt>
<trkpt lat="47.537708" lon="11.116301">
<ele>642.692</ele>
<time>2020-09-11T15:22:32Z</time>
</trkpt>
<trkpt lat="47.537659" lon="11.116252">
<ele>642.692</ele>
<time>2020-09-11T15:22:33Z</time>
</trkpt>
<trkpt lat="47.537613" lon="11.116203">
<ele>642.692</ele>
<time>2020-09-11T15:22:34Z</time>
</trkpt>
<trkpt lat="47.53756" lon="11.116157">
<ele>642.692</ele>
<time>2020-09-11T15:22:35Z</time>
</trkpt>
<trkpt lat="47.53751" lon="11.116108">
<ele>642.692</ele>
<time>2020-09-11T15:22:36Z</time>
</trkpt>
<trkpt lat="47.53746" lon="11.11606">
<ele>642.692</ele>
<time>2020-09-11T15:22:37Z</time>
</trkpt>
<trkpt lat="47.537411" lon="11.11601">
<ele>642.692</ele>
<time>2020-09-11T15:22:38Z</time>
</trkpt>
<trkpt lat="47.537357" lon="11.11596">
<ele>642.692</ele>
<time>2020-09-11T15:22:39Z</time>
</trkpt>
<trkpt lat="47.537308" lon="11.115909">
<ele>642.692</ele>
<time>2020-09-11T15:22:40Z</time>
</trkpt>
<trkpt lat="47.537254" lon="11.115853">
<ele>642.692</ele>
<time>2020-09-11T15:22:41Z</time>
</trkpt>
<trkpt lat="47.537205" lon="11.115802">
<ele>642.692</ele>
<time>2020-09-11T15:22:42Z</time>
</trkpt>
<trkpt lat="47.537148" lon="11.11575">
<ele>642.692</ele>
<time>2020-09-11T15:22:43Z</time>
</trkpt>
<trkpt lat="47.53709" lon="11.1157">
<ele>642.692</ele>
<time>2020-09-11T15:22:44Z</time>
</trkpt>
<trkpt lat="47.537041" lon="11.115648">
<ele>642.911</ele>
<time>2020-09-11T15:22:45Z</time>
</trkpt>
<trkpt lat="47.536987" lon="11.115597">
<ele>643.117</ele>
<time>2020-09-11T15:22:46Z</time>
</trkpt>
<trkpt lat="47.536934" lon="11.115543">
<ele>643.284</ele>
<time>2020-09-11T15:22:47Z</time>
</trkpt>
<trkpt lat="47.536884" lon="11.11549">
<ele>643.416</ele>
<time>2020-09-11T15:22:48Z</time>
</trkpt>
<trkpt lat="47.536835" lon="11.115438">
<ele>643.518</ele>
<time>2020-09-11T15:22:49Z</time>
</trkpt>
<trkpt lat="47.536785" lon="11.11539">
<ele>643.593</ele>
<time>2020-09-11T15:22:50Z</time>
</trkpt>
<trkpt lat="47.536736" lon="11.115345">
<ele>643.64</ele>
<time>2020-09-11T15:22:51Z</time>
</trkpt>
<trkpt lat="47.536694" lon="11.115305">
<ele>643.664</ele>
<time>2020-09-11T15:22:52Z</time>
</trkpt>
<trkpt lat="47.536655" lon="11.115268">
<ele>643.664</ele>
<time>2020-09-11T15:22:53Z</time>
</trkpt>
<trkpt lat="47.536625" lon="11.115233">
<ele>643.664</ele>
<time>2020-09-11T15:22:54Z</time>
</trkpt>
<trkpt lat="47.536598" lon="11.1152">
<ele>643.664</ele>
<time>2020-09-11T15:22:55Z</time>
</trkpt>
<trkpt lat="47.536575" lon="11.115173">
<ele>643.664</ele>
<time>2020-09-11T15:22:56Z</time>
</trkpt>
<trkpt lat="47.53656" lon="11.115157">
<ele>643.664</ele>
<time>2020-09-11T15:22:57Z</time>
</trkpt>
<trkpt lat="47.536552" lon="11.115149">
<ele>643.664</ele>
<time>2020-09-11T15:22:58Z</time>
</trkpt>
<trkpt lat="47.536552" lon="11.11515">
<ele>643.664</ele>
<time>2020-09-11T15:23:00Z</time>
</trkpt>
<trkpt lat="47.536556" lon="11.11515">
<ele>643.664</ele>
<time>2020-09-11T15:23:01Z</time>
</trkpt>
<trkpt lat="47.536537" lon="11.115138">
<ele>643.664</ele>
<time>2020-09-11T15:28:21Z</time>
</trkpt>
<trkpt lat="47.536526" lon="11.115128">
<ele>643.664</ele>
<time>2020-09-11T15:28:22Z</time>
</trkpt>
<trkpt lat="47.53651" lon="11.115117">
<ele>643.664</ele>
<time>2020-09-11T15:28:23Z</time>
</trkpt>
<trkpt lat="47.536491" lon="11.115098">
<ele>643.664</ele>
<time>2020-09-11T15:28:24Z</time>
</trkpt>
<trkpt lat="47.536465" lon="11.115077">
<ele>643.664</ele>
<time>2020-09-11T15:28:25Z</time>
</trkpt>
<trkpt lat="47.536438" lon="11.11505">
<ele>643.664</ele>
<time>2020-09-11T15:28:26Z</time>
</trkpt>
<trkpt lat="47.536411" lon="11.115022">
<ele>643.664</ele>
<time>2020-09-11T15:28:27Z</time>
</trkpt>
<trkpt lat="47.536381" lon="11.114991">
<ele>643.664</ele>
<time>2020-09-11T15:28:28Z</time>
</trkpt>
<trkpt lat="47.53635" lon="11.114964">
<ele>643.664</ele>
<time>2020-09-11T15:28:29Z</time>
</trkpt>
<trkpt lat="47.53632" lon="11.114933">
<ele>643.664</ele>
<time>2020-09-11T15:28:30Z</time>
</trkpt>
<trkpt lat="47.536289" lon="11.114902">
<ele>643.664</ele>
<time>2020-09-11T15:28:31Z</time>
</trkpt>
<trkpt lat="47.536255" lon="11.114868">
<ele>643.664</ele>
<time>2020-09-11T15:28:32Z</time>
</trkpt>
<trkpt lat="47.536221" lon="11.114834">
<ele>643.664</ele>
<time>2020-09-11T15:28:33Z</time>
</trkpt>
<trkpt lat="47.536186" lon="11.114799">
<ele>643.664</ele>
<time>2020-09-11T15:28:34Z</time>
</trkpt>
<trkpt lat="47.536156" lon="11.114761">
<ele>643.664</ele>
<time>2020-09-11T15:28:35Z</time>
</trkpt>
<trkpt lat="47.536121" lon="11.114727">
<ele>643.664</ele>
<time>2020-09-11T15:28:36Z</time>
</trkpt>
<trkpt lat="47.536083" lon="11.11469">
<ele>643.664</ele>
<time>2020-09-11T15:28:37Z</time>
</trkpt>
<trkpt lat="47.536049" lon="11.114655">
<ele>643.664</ele>
<time>2020-09-11T15:28:38Z</time>
</trkpt>
<trkpt lat="47.536011" lon="11.114618">
<ele>643.664</ele>
<time>2020-09-11T15:28:39Z</time>
</trkpt>
<trkpt lat="47.535973" lon="11.114581">
<ele>643.664</ele>
<time>2020-09-11T15:28:40Z</time>
</trkpt>
<trkpt lat="47.535934" lon="11.114541">
<ele>643.664</ele>
<time>2020-09-11T15:28:41Z</time>
</trkpt>
<trkpt lat="47.535892" lon="11.114507">
<ele>643.664</ele>
<time>2020-09-11T15:28:42Z</time>
</trkpt>
<trkpt lat="47.535854" lon="11.114468">
<ele>643.664</ele>
<time>2020-09-11T15:28:43Z</time>
</trkpt>
<trkpt lat="47.535816" lon="11.114429">
<ele>643.664</ele>
<time>2020-09-11T15:28:44Z</time>
</trkpt>
<trkpt lat="47.535778" lon="11.114392">
<ele>643.664</ele>
<time>2020-09-11T15:28:45Z</time>
</trkpt>
<trkpt lat="47.535736" lon="11.11435">
<ele>643.664</ele>
<time>2020-09-11T15:28:46Z</time>
</trkpt>
<trkpt lat="47.535694" lon="11.114308">
<ele>643.664</ele>
<time>2020-09-11T15:28:47Z</time>
</trkpt>
<trkpt lat="47.535656" lon="11.114266">
<ele>643.664</ele>
<time>2020-09-11T15:28:48Z</time>
</trkpt>
<trkpt lat="47.535614" lon="11.114224">
<ele>643.908</ele>
<time>2020-09-11T15:28:49Z</time>
</trkpt>
<trkpt lat="47.535576" lon="11.114185">
<ele>644.096</ele>
<time>2020-09-11T15:28:50Z</time>
</trkpt>
<trkpt lat="47.535534" lon="11.114143">
<ele>644.239</ele>
<time>2020-09-11T15:28:51Z</time>
</trkpt>
<trkpt lat="47.535492" lon="11.114101">
<ele>644.343</ele>
<time>2020-09-11T15:28:52Z</time>
</trkpt>
<trkpt lat="47.535446" lon="11.114058">
<ele>644.422</ele>
<time>2020-09-11T15:28:53Z</time>
</trkpt>
<trkpt lat="47.535404" lon="11.114018">
<ele>644.475</ele>
<time>2020-09-11T15:28:54Z</time>
</trkpt>
<trkpt lat="47.535358" lon="11.113976">
<ele>644.525</ele>
<time>2020-09-11T15:28:55Z</time>
</trkpt>
<trkpt lat="47.535313" lon="11.113935">
<ele>644.549</ele>
<time>2020-09-11T15:28:56Z</time>
</trkpt>
<trkpt lat="47.535267" lon="11.113894">
<ele>644.549</ele>
<time>2020-09-11T15:28:57Z</time>
</trkpt>
<trkpt lat="47.535225" lon="11.113855">
<ele>644.549</ele>
<time>2020-09-11T15:28:58Z</time>
</trkpt>
<trkpt lat="47.535183" lon="11.113813">
<ele>644.549</ele>
<time>2020-09-11T15:28:59Z</time>
</trkpt>
<trkpt lat="47.535133" lon="11.113771">
<ele>644.549</ele>
<time>2020-09-11T15:29:00Z</time>
</trkpt>
<trkpt lat="47.535095" lon="11.11373">
<ele>644.549</ele>
<time>2020-09-11T15:29:01Z</time>
</trkpt>
<trkpt lat="47.535053" lon="11.113687">
<ele>644.549</ele>
<time>2020-09-11T15:29:02Z</time>
</trkpt>
<trkpt lat="47.535007" lon="11.113644">
<ele>644.549</ele>
<time>2020-09-11T15:29:03Z</time>
</trkpt>
<trkpt lat="47.534966" lon="11.113602">
<ele>644.549</ele>
<time>2020-09-11T15:29:04Z</time>
</trkpt>
<trkpt lat="47.534924" lon="11.113559">
<ele>644.549</ele>
<time>2020-09-11T15:29:05Z</time>
</trkpt>
<trkpt lat="47.534882" lon="11.113515">
<ele>644.549</ele>
<time>2020-09-11T15:29:06Z</time>
</trkpt>
<trkpt lat="47.53484" lon="11.11347">
<ele>644.549</ele>
<time>2020-09-11T15:29:07Z</time>
</trkpt>
<trkpt lat="47.534794" lon="11.113426">
<ele>644.549</ele>
<time>2020-09-11T15:29:08Z</time>
</trkpt>
<trkpt lat="47.534748" lon="11.113384">
<ele>644.549</ele>
<time>2020-09-11T15:29:09Z</time>
</trkpt>
<trkpt lat="47.534706" lon="11.113343">
<ele>644.549</ele>
<time>2020-09-11T15:29:10Z</time>
</trkpt>
<trkpt lat="47.53466" lon="11.113302">
<ele>644.549</ele>
<time>2020-09-11T15:29:11Z</time>
</trkpt>
<trkpt lat="47.534615" lon="11.11326">
<ele>644.549</ele>
<time>2020-09-11T15:29:12Z</time>
</trkpt>
<trkpt lat="47.534573" lon="11.113216">
<ele>644.549</ele>
<time>2020-09-11T15:29:13Z</time>
</trkpt>
<trkpt lat="47.534531" lon="11.113178">
<ele>644.549</ele>
<time>2020-09-11T15:29:14Z</time>
</trkpt>
<trkpt lat="47.534485" lon="11.11314">
<ele>644.549</ele>
<time>2020-09-11T15:29:15Z</time>
</trkpt>
<trkpt lat="47.534443" lon="11.113104">
<ele>644.549</ele>
<time>2020-09-11T15:29:16Z</time>
</trkpt>
<trkpt lat="47.534397" lon="11.113067">
<ele>644.549</ele>
<time>2020-09-11T15:29:17Z</time>
</trkpt>
<trkpt lat="47.534351" lon="11.113032">
<ele>644.821</ele>
<time>2020-09-11T15:29:18Z</time>
</trkpt>
<trkpt lat="47.534298" lon="11.112995">
<ele>645.033</ele>
<time>2020-09-11T15:29:19Z</time>
</trkpt>
<trkpt lat="47.534256" lon="11.112964">
<ele>645.196</ele>
<time>2020-09-11T15:29:20Z</time>
</trkpt>
<trkpt lat="47.534206" lon="11.112932">
<ele>645.315</ele>
<time>2020-09-11T15:29:21Z</time>
</trkpt>
<trkpt lat="47.534157" lon="11.1129">
<ele>645.402</ele>
<time>2020-09-11T15:29:22Z</time>
</trkpt>
<trkpt lat="47.534107" lon="11.11287">
<ele>645.454</ele>
<time>2020-09-11T15:29:23Z</time>
</trkpt>
<trkpt lat="47.534058" lon="11.112842">
<ele>645.495</ele>
<time>2020-09-11T15:29:24Z</time>
</trkpt>
<trkpt lat="47.534008" lon="11.112815">
<ele>645.521</ele>
<time>2020-09-11T15:29:25Z</time>
</trkpt>
<trkpt lat="47.533955" lon="11.112793">
<ele>645.521</ele>
<time>2020-09-11T15:29:26Z</time>
</trkpt>
<trkpt lat="47.533901" lon="11.112773">
<ele>645.521</ele>
<time>2020-09-11T15:29:27Z</time>
</trkpt>
<trkpt lat="47.533848" lon="11.112754">
<ele>645.521</ele>
<time>2020-09-11T15:29:28Z</time>
</trkpt>
<trkpt lat="47.533798" lon="11.112731">
<ele>645.521</ele>
<time>2020-09-11T15:29:29Z</time>
</trkpt>
<trkpt lat="47.533741" lon="11.112712">
<ele>645.521</ele>
<time>2020-09-11T15:29:30Z</time>
</trkpt>
<trkpt lat="47.533688" lon="11.112691">
<ele>645.521</ele>
<time>2020-09-11T15:29:31Z</time>
</trkpt>
<trkpt lat="47.533634" lon="11.112674">
<ele>645.521</ele>
<time>2020-09-11T15:29:32Z</time>
</trkpt>
<trkpt lat="47.533581" lon="11.112659">
<ele>645.521</ele>
<time>2020-09-11T15:29:33Z</time>
</trkpt>
<trkpt lat="47.533527" lon="11.112654">
<ele>645.521</ele>
<time>2020-09-11T15:29:34Z</time>
</trkpt>
<trkpt lat="47.53347" lon="11.11265">
<ele>645.521</ele>
<time>2020-09-11T15:29:35Z</time>
</trkpt>
<trkpt lat="47.533413" lon="11.11265">
<ele>645.521</ele>
<time>2020-09-11T15:29:36Z</time>
</trkpt>
<trkpt lat="47.53336" lon="11.112649">
<ele>645.521</ele>
<time>2020-09-11T15:29:37Z</time>
</trkpt>
<trkpt lat="47.533302" lon="11.112647">
<ele>645.521</ele>
<time>2020-09-11T15:29:38Z</time>
</trkpt>
<trkpt lat="47.533245" lon="11.112643">
<ele>645.522</ele>
<time>2020-09-11T15:29:39Z</time>
</trkpt>
<trkpt lat="47.533184" lon="11.112637">
<ele>645.521</ele>
<time>2020-09-11T15:29:40Z</time>
</trkpt>
<trkpt lat="47.533131" lon="11.112635">
<ele>645.521</ele>
<time>2020-09-11T15:29:41Z</time>
</trkpt>
<trkpt lat="47.533073" lon="11.112637">
<ele>645.521</ele>
<time>2020-09-11T15:29:42Z</time>
</trkpt>
<trkpt lat="47.533016" lon="11.11264">
<ele>645.521</ele>
<time>2020-09-11T15:29:43Z</time>
</trkpt>
<trkpt lat="47.532955" lon="11.112647">
<ele>645.521</ele>
<time>2020-09-11T15:29:44Z</time>
</trkpt>
<trkpt lat="47.532898" lon="11.112654">
<ele>645.737</ele>
<time>2020-09-11T15:29:45Z</time>
</trkpt>
<trkpt lat="47.532837" lon="11.112659">
<ele>645.918</ele>
<time>2020-09-11T15:29:46Z</time>
</trkpt>
<trkpt lat="47.53278" lon="11.11267">
<ele>646.068</ele>
<time>2020-09-11T15:29:47Z</time>
</trkpt>
<trkpt lat="47.532722" lon="11.112682">
<ele>646.187</ele>
<time>2020-09-11T15:29:48Z</time>
</trkpt>
<trkpt lat="47.532658" lon="11.112693">
<ele>646.243</ele>
<time>2020-09-11T15:29:49Z</time>
</trkpt>
<trkpt lat="47.5326" lon="11.112705">
<ele>646.093</ele>
<time>2020-09-11T15:29:50Z</time>
</trkpt>
<trkpt lat="47.532543" lon="11.112717">
<ele>645.96</ele>
<time>2020-09-11T15:29:51Z</time>
</trkpt>
<trkpt lat="47.532482" lon="11.112724">
<ele>645.845</ele>
<time>2020-09-11T15:29:52Z</time>
</trkpt>
<trkpt lat="47.532425" lon="11.112731">
<ele>645.742</ele>
<time>2020-09-11T15:29:53Z</time>
</trkpt>
<trkpt lat="47.532364" lon="11.112735">
<ele>645.669</ele>
<time>2020-09-11T15:29:54Z</time>
</trkpt>
<trkpt lat="47.532299" lon="11.112735">
<ele>645.593</ele>
<time>2020-09-11T15:29:55Z</time>
</trkpt>
<trkpt lat="47.532238" lon="11.112735">
<ele>645.544</ele>
<time>2020-09-11T15:29:56Z</time>
</trkpt>
<trkpt lat="47.532177" lon="11.112737">
<ele>645.521</ele>
<time>2020-09-11T15:29:57Z</time>
</trkpt>
<trkpt lat="47.532116" lon="11.11274">
<ele>645.521</ele>
<time>2020-09-11T15:29:58Z</time>
</trkpt>
<trkpt lat="47.532055" lon="11.112743">
<ele>645.522</ele>
<time>2020-09-11T15:29:59Z</time>
</trkpt>
<trkpt lat="47.531994" lon="11.11275">
<ele>645.521</ele>
<time>2020-09-11T15:30:00Z</time>
</trkpt>
<trkpt lat="47.531937" lon="11.112756">
<ele>645.521</ele>
<time>2020-09-11T15:30:01Z</time>
</trkpt>
<trkpt lat="47.531876" lon="11.112761">
<ele>645.521</ele>
<time>2020-09-11T15:30:02Z</time>
</trkpt>
<trkpt lat="47.531815" lon="11.112768">
<ele>645.521</ele>
<time>2020-09-11T15:30:03Z</time>
</trkpt>
<trkpt lat="47.531757" lon="11.112775">
<ele>645.521</ele>
<time>2020-09-11T15:30:04Z</time>
</trkpt>
<trkpt lat="47.5317" lon="11.112781">
<ele>645.521</ele>
<time>2020-09-11T15:30:05Z</time>
</trkpt>
<trkpt lat="47.531639" lon="11.112783">
<ele>645.521</ele>
<time>2020-09-11T15:30:06Z</time>
</trkpt>
<trkpt lat="47.531582" lon="11.112785">
<ele>645.521</ele>
<time>2020-09-11T15:30:07Z</time>
</trkpt>
<trkpt lat="47.531517" lon="11.112783">
<ele>645.521</ele>
<time>2020-09-11T15:30:08Z</time>
</trkpt>
<trkpt lat="47.53146" lon="11.112785">
<ele>645.521</ele>
<time>2020-09-11T15:30:09Z</time>
</trkpt>
<trkpt lat="47.531403" lon="11.112785">
<ele>645.521</ele>
<time>2020-09-11T15:30:10Z</time>
</trkpt>
<trkpt lat="47.531345" lon="11.112781">
<ele>645.521</ele>
<time>2020-09-11T15:30:11Z</time>
</trkpt>
<trkpt lat="47.531288" lon="11.112772">
<ele>645.521</ele>
<time>2020-09-11T15:30:12Z</time>
</trkpt>
<trkpt lat="47.531223" lon="11.112757">
<ele>645.736</ele>
<time>2020-09-11T15:30:13Z</time>
</trkpt>
<trkpt lat="47.53117" lon="11.112737">
<ele>645.889</ele>
<time>2020-09-11T15:30:14Z</time>
</trkpt>
<trkpt lat="47.531116" lon="11.112712">
<ele>646.047</ele>
<time>2020-09-11T15:30:15Z</time>
</trkpt>
<trkpt lat="47.531059" lon="11.112685">
<ele>646.172</ele>
<time>2020-09-11T15:30:16Z</time>
</trkpt>
<trkpt lat="47.53101" lon="11.112655">
<ele>646.269</ele>
<time>2020-09-11T15:30:17Z</time>
</trkpt>
<trkpt lat="47.53096" lon="11.112623">
<ele>646.339</ele>
<time>2020-09-11T15:30:18Z</time>
</trkpt>
<trkpt lat="47.530903" lon="11.112593">
<ele>646.384</ele>
<time>2020-09-11T15:30:19Z</time>
</trkpt>
<trkpt lat="47.530853" lon="11.11256">
<ele>646.406</ele>
<time>2020-09-11T15:30:20Z</time>
</trkpt>
<trkpt lat="47.5308" lon="11.112525">
<ele>646.406</ele>
<time>2020-09-11T15:30:21Z</time>
</trkpt>
<trkpt lat="47.530739" lon="11.112487">
<ele>646.406</ele>
<time>2020-09-11T15:30:22Z</time>
</trkpt>
<trkpt lat="47.530689" lon="11.112448">
<ele>646.406</ele>
<time>2020-09-11T15:30:23Z</time>
</trkpt>
<trkpt lat="47.53064" lon="11.112409">
<ele>646.406</ele>
<time>2020-09-11T15:30:24Z</time>
</trkpt>
<trkpt lat="47.530594" lon="11.112362">
<ele>646.406</ele>
<time>2020-09-11T15:30:25Z</time>
</trkpt>
<trkpt lat="47.53054" lon="11.112318">
<ele>646.406</ele>
<time>2020-09-11T15:30:26Z</time>
</trkpt>
<trkpt lat="47.530499" lon="11.112278">
<ele>646.406</ele>
<time>2020-09-11T15:30:27Z</time>
</trkpt>
<trkpt lat="47.530445" lon="11.11224">
<ele>646.406</ele>
<time>2020-09-11T15:30:28Z</time>
</trkpt>
<trkpt lat="47.530396" lon="11.112202">
<ele>646.406</ele>
<time>2020-09-11T15:30:29Z</time>
</trkpt>
<trkpt lat="47.530342" lon="11.112164">
<ele>646.406</ele>
<time>2020-09-11T15:30:30Z</time>
</trkpt>
<trkpt lat="47.530285" lon="11.112125">
<ele>646.406</ele>
<time>2020-09-11T15:30:31Z</time>
</trkpt>
<trkpt lat="47.530231" lon="11.112085">
<ele>646.406</ele>
<time>2020-09-11T15:30:32Z</time>
</trkpt>
<trkpt lat="47.530178" lon="11.112041">
<ele>646.406</ele>
<time>2020-09-11T15:30:33Z</time>
</trkpt>
<trkpt lat="47.530128" lon="11.112">
<ele>646.406</ele>
<time>2020-09-11T15:30:34Z</time>
</trkpt>
<trkpt lat="47.530075" lon="11.111958">
<ele>646.406</ele>
<time>2020-09-11T15:30:35Z</time>
</trkpt>
<trkpt lat="47.530018" lon="11.111922">
<ele>646.406</ele>
<time>2020-09-11T15:30:36Z</time>
</trkpt>
<trkpt lat="47.529976" lon="11.111887">
<ele>646.406</ele>
<time>2020-09-11T15:30:37Z</time>
</trkpt>
<trkpt lat="47.529919" lon="11.111856">
<ele>646.406</ele>
<time>2020-09-11T15:30:38Z</time>
</trkpt>
<trkpt lat="47.529869" lon="11.111827">
<ele>646.406</ele>
<time>2020-09-11T15:30:39Z</time>
</trkpt>
<trkpt lat="47.529819" lon="11.111798">
<ele>646.406</ele>
<time>2020-09-11T15:30:40Z</time>
</trkpt>
<trkpt lat="47.529766" lon="11.111769">
<ele>646.406</ele>
<time>2020-09-11T15:30:41Z</time>
</trkpt>
<trkpt lat="47.529716" lon="11.11174">
<ele>646.406</ele>
<time>2020-09-11T15:30:42Z</time>
</trkpt>
<trkpt lat="47.529659" lon="11.111713">
<ele>646.406</ele>
<time>2020-09-11T15:30:43Z</time>
</trkpt>
<trkpt lat="47.529606" lon="11.111688">
<ele>646.406</ele>
<time>2020-09-11T15:30:44Z</time>
</trkpt>
<trkpt lat="47.529552" lon="11.111662">
<ele>646.406</ele>
<time>2020-09-11T15:30:45Z</time>
</trkpt>
<trkpt lat="47.529499" lon="11.111633">
<ele>646.406</ele>
<time>2020-09-11T15:30:46Z</time>
</trkpt>
<trkpt lat="47.529446" lon="11.111604">
<ele>646.406</ele>
<time>2020-09-11T15:30:47Z</time>
</trkpt>
<trkpt lat="47.529392" lon="11.111574">
<ele>646.682</ele>
<time>2020-09-11T15:30:48Z</time>
</trkpt>
<trkpt lat="47.529335" lon="11.111543">
<ele>646.896</ele>
<time>2020-09-11T15:30:49Z</time>
</trkpt>
<trkpt lat="47.529278" lon="11.111517">
<ele>647.058</ele>
<time>2020-09-11T15:30:50Z</time>
</trkpt>
<trkpt lat="47.529224" lon="11.111492">
<ele>647.175</ele>
<time>2020-09-11T15:30:51Z</time>
</trkpt>
<trkpt lat="47.529167" lon="11.111468">
<ele>647.255</ele>
<time>2020-09-11T15:30:52Z</time>
</trkpt>
<trkpt lat="47.52911" lon="11.111444">
<ele>647.311</ele>
<time>2020-09-11T15:30:53Z</time>
</trkpt>
<trkpt lat="47.529053" lon="11.111427">
<ele>647.353</ele>
<time>2020-09-11T15:30:54Z</time>
</trkpt>
<trkpt lat="47.528996" lon="11.111408">
<ele>647.379</ele>
<time>2020-09-11T15:30:55Z</time>
</trkpt>
<trkpt lat="47.528938" lon="11.111388">
<ele>647.379</ele>
<time>2020-09-11T15:30:56Z</time>
</trkpt>
<trkpt lat="47.528881" lon="11.111366">
<ele>647.379</ele>
<time>2020-09-11T15:30:57Z</time>
</trkpt>
<trkpt lat="47.528824" lon="11.111345">
<ele>647.379</ele>
<time>2020-09-11T15:30:58Z</time>
</trkpt>
<trkpt lat="47.528767" lon="11.111323">
<ele>647.379</ele>
<time>2020-09-11T15:30:59Z</time>
</trkpt>
<trkpt lat="47.528709" lon="11.111301">
<ele>647.379</ele>
<time>2020-09-11T15:31:00Z</time>
</trkpt>
<trkpt lat="47.528648" lon="11.111281">
<ele>647.379</ele>
<time>2020-09-11T15:31:01Z</time>
</trkpt>
<trkpt lat="47.528587" lon="11.111264">
<ele>647.379</ele>
<time>2020-09-11T15:31:02Z</time>
</trkpt>
<trkpt lat="47.52853" lon="11.111245">
<ele>647.379</ele>
<time>2020-09-11T15:31:03Z</time>
</trkpt>
<trkpt lat="47.528473" lon="11.111225">
<ele>647.616</ele>
<time>2020-09-11T15:31:04Z</time>
</trkpt>
<trkpt lat="47.528419" lon="11.111207">
<ele>647.838</ele>
<time>2020-09-11T15:31:05Z</time>
</trkpt>
<trkpt lat="47.528358" lon="11.111191">
<ele>648.02</ele>
<time>2020-09-11T15:31:06Z</time>
</trkpt>
<trkpt lat="47.528301" lon="11.111175">
<ele>648.164</ele>
<time>2020-09-11T15:31:07Z</time>
</trkpt>
<trkpt lat="47.528244" lon="11.111156">
<ele>648.279</ele>
<time>2020-09-11T15:31:08Z</time>
</trkpt>
<trkpt lat="47.528191" lon="11.111134">
<ele>648.361</ele>
<time>2020-09-11T15:31:09Z</time>
</trkpt>
<trkpt lat="47.52813" lon="11.111115">
<ele>648.415</ele>
<time>2020-09-11T15:31:10Z</time>
</trkpt>
<trkpt lat="47.528076" lon="11.111094">
<ele>648.441</ele>
<time>2020-09-11T15:31:11Z</time>
</trkpt>
<trkpt lat="47.528023" lon="11.111076">
<ele>648.441</ele>
<time>2020-09-11T15:31:12Z</time>
</trkpt>
<trkpt lat="47.527962" lon="11.111061">
<ele>648.441</ele>
<time>2020-09-11T15:31:13Z</time>
</trkpt>
<trkpt lat="47.527905" lon="11.111044">
<ele>648.441</ele>
<time>2020-09-11T15:31:14Z</time>
</trkpt>
<trkpt lat="47.527851" lon="11.111035">
<ele>648.441</ele>
<time>2020-09-11T15:31:15Z</time>
</trkpt>
<trkpt lat="47.527798" lon="11.111018">
<ele>648.441</ele>
<time>2020-09-11T15:31:16Z</time>
</trkpt>
<trkpt lat="47.527737" lon="11.110998">
<ele>648.441</ele>
<time>2020-09-11T15:31:17Z</time>
</trkpt>
<trkpt lat="47.527676" lon="11.110979">
<ele>648.441</ele>
<time>2020-09-11T15:31:18Z</time>
</trkpt>
<trkpt lat="47.527618" lon="11.110958">
<ele>648.441</ele>
<time>2020-09-11T15:31:19Z</time>
</trkpt>
<trkpt lat="47.527561" lon="11.110938">
<ele>648.44</ele>
<time>2020-09-11T15:31:20Z</time>
</trkpt>
<trkpt lat="47.527504" lon="11.11092">
<ele>648.441</ele>
<time>2020-09-11T15:31:21Z</time>
</trkpt>
<trkpt lat="47.527443" lon="11.110898">
<ele>648.441</ele>
<time>2020-09-11T15:31:22Z</time>
</trkpt>
<trkpt lat="47.52739" lon="11.11088">
<ele>648.441</ele>
<time>2020-09-11T15:31:23Z</time>
</trkpt>
<trkpt lat="47.527328" lon="11.110864">
<ele>648.441</ele>
<time>2020-09-11T15:31:24Z</time>
</trkpt>
<trkpt lat="47.527271" lon="11.110847">
<ele>648.441</ele>
<time>2020-09-11T15:31:25Z</time>
</trkpt>
<trkpt lat="47.527214" lon="11.11083">
<ele>648.441</ele>
<time>2020-09-11T15:31:26Z</time>
</trkpt>
<trkpt lat="47.527149" lon="11.110809">
<ele>648.723</ele>
<time>2020-09-11T15:31:27Z</time>
</trkpt>
<trkpt lat="47.527092" lon="11.110791">
<ele>648.944</ele>
<time>2020-09-11T15:31:28Z</time>
</trkpt>
<trkpt lat="47.527035" lon="11.110774">
<ele>649.11</ele>
<time>2020-09-11T15:31:29Z</time>
</trkpt>
<trkpt lat="47.526978" lon="11.110755">
<ele>649.232</ele>
<time>2020-09-11T15:31:30Z</time>
</trkpt>
<trkpt lat="47.52692" lon="11.110735">
<ele>649.312</ele>
<time>2020-09-11T15:31:31Z</time>
</trkpt>
<trkpt lat="47.526859" lon="11.110718">
<ele>649.363</ele>
<time>2020-09-11T15:31:32Z</time>
</trkpt>
<trkpt lat="47.526802" lon="11.110702">
<ele>649.391</ele>
<time>2020-09-11T15:31:33Z</time>
</trkpt>
<trkpt lat="47.526745" lon="11.11069">
<ele>649.414</ele>
<time>2020-09-11T15:31:34Z</time>
</trkpt>
<trkpt lat="47.526691" lon="11.110677">
<ele>649.414</ele>
<time>2020-09-11T15:31:35Z</time>
</trkpt>
<trkpt lat="47.52663" lon="11.110657">
<ele>649.414</ele>
<time>2020-09-11T15:31:36Z</time>
</trkpt>
<trkpt lat="47.526573" lon="11.110636">
<ele>649.414</ele>
<time>2020-09-11T15:31:37Z</time>
</trkpt>
<trkpt lat="47.526516" lon="11.11061">
<ele>649.414</ele>
<time>2020-09-11T15:31:38Z</time>
</trkpt>
<trkpt lat="47.526455" lon="11.110585">
<ele>649.414</ele>
<time>2020-09-11T15:31:39Z</time>
</trkpt>
<trkpt lat="47.526398" lon="11.11056">
<ele>649.414</ele>
<time>2020-09-11T15:31:40Z</time>
</trkpt>
<trkpt lat="47.526337" lon="11.110538">
<ele>649.414</ele>
<time>2020-09-11T15:31:41Z</time>
</trkpt>
<trkpt lat="47.526279" lon="11.11052">
<ele>649.414</ele>
<time>2020-09-11T15:31:42Z</time>
</trkpt>
<trkpt lat="47.526218" lon="11.110503">
<ele>649.414</ele>
<time>2020-09-11T15:31:43Z</time>
</trkpt>
<trkpt lat="47.526165" lon="11.110489">
<ele>649.414</ele>
<time>2020-09-11T15:31:44Z</time>
</trkpt>
<trkpt lat="47.526104" lon="11.110472">
<ele>649.649</ele>
<time>2020-09-11T15:31:45Z</time>
</trkpt>
<trkpt lat="47.526051" lon="11.110456">
<ele>649.843</ele>
<time>2020-09-11T15:31:46Z</time>
</trkpt>
<trkpt lat="47.526001" lon="11.110436">
<ele>650.006</ele>
<time>2020-09-11T15:31:47Z</time>
</trkpt>
<trkpt lat="47.525944" lon="11.110418">
<ele>650.138</ele>
<time>2020-09-11T15:31:48Z</time>
</trkpt>
<trkpt lat="47.52589" lon="11.1104">
<ele>650.24</ele>
<time>2020-09-11T15:31:49Z</time>
</trkpt>
<trkpt lat="47.525837" lon="11.110384">
<ele>650.314</ele>
<time>2020-09-11T15:31:50Z</time>
</trkpt>
<trkpt lat="47.52578" lon="11.110365">
<ele>650.363</ele>
<time>2020-09-11T15:31:51Z</time>
</trkpt>
<trkpt lat="47.525726" lon="11.110347">
<ele>650.387</ele>
<time>2020-09-11T15:31:52Z</time>
</trkpt>
<trkpt lat="47.525669" lon="11.110328">
<ele>650.387</ele>
<time>2020-09-11T15:31:53Z</time>
</trkpt>
<trkpt lat="47.525616" lon="11.110311">
<ele>650.387</ele>
<time>2020-09-11T15:31:54Z</time>
</trkpt>
<trkpt lat="47.525555" lon="11.110291">
<ele>650.387</ele>
<time>2020-09-11T15:31:55Z</time>
</trkpt>
<trkpt lat="47.525497" lon="11.110273">
<ele>650.387</ele>
<time>2020-09-11T15:31:56Z</time>
</trkpt>
<trkpt lat="47.525444" lon="11.110253">
<ele>650.387</ele>
<time>2020-09-11T15:31:57Z</time>
</trkpt>
<trkpt lat="47.525387" lon="11.110235">
<ele>650.387</ele>
<time>2020-09-11T15:31:58Z</time>
</trkpt>
<trkpt lat="47.52533" lon="11.11022">
<ele>650.387</ele>
<time>2020-09-11T15:31:59Z</time>
</trkpt>
<trkpt lat="47.525276" lon="11.110202">
<ele>650.387</ele>
<time>2020-09-11T15:32:00Z</time>
</trkpt>
<trkpt lat="47.525223" lon="11.110185">
<ele>650.387</ele>
<time>2020-09-11T15:32:01Z</time>
</trkpt>
<trkpt lat="47.525166" lon="11.110165">
<ele>650.607</ele>
<time>2020-09-11T15:32:02Z</time>
</trkpt>
<trkpt lat="47.525108" lon="11.110144">
<ele>650.781</ele>
<time>2020-09-11T15:32:03Z</time>
</trkpt>
<trkpt lat="47.525051" lon="11.110125">
<ele>650.902</ele>
<time>2020-09-11T15:32:04Z</time>
</trkpt>
<trkpt lat="47.524994" lon="11.110106">
<ele>651.034</ele>
<time>2020-09-11T15:32:05Z</time>
</trkpt>
<trkpt lat="47.524933" lon="11.11009">
<ele>651.133</ele>
<time>2020-09-11T15:32:06Z</time>
</trkpt>
<trkpt lat="47.524876" lon="11.11007">
<ele>651.205</ele>
<time>2020-09-11T15:32:07Z</time>
</trkpt>
<trkpt lat="47.524815" lon="11.11005">
<ele>651.251</ele>
<time>2020-09-11T15:32:08Z</time>
</trkpt>
<trkpt lat="47.524754" lon="11.110032">
<ele>651.272</ele>
<time>2020-09-11T15:32:09Z</time>
</trkpt>
<trkpt lat="47.524696" lon="11.110011">
<ele>651.272</ele>
<time>2020-09-11T15:32:10Z</time>
</trkpt>
<trkpt lat="47.524635" lon="11.109992">
<ele>651.272</ele>
<time>2020-09-11T15:32:11Z</time>
</trkpt>
<trkpt lat="47.52457" lon="11.109974">
<ele>651.272</ele>
<time>2020-09-11T15:32:12Z</time>
</trkpt>
<trkpt lat="47.524513" lon="11.109955">
<ele>651.272</ele>
<time>2020-09-11T15:32:13Z</time>
</trkpt>
<trkpt lat="47.524452" lon="11.109937">
<ele>651.272</ele>
<time>2020-09-11T15:32:14Z</time>
</trkpt>
<trkpt lat="47.524391" lon="11.109915">
<ele>651.272</ele>
<time>2020-09-11T15:32:15Z</time>
</trkpt>
<trkpt lat="47.524334" lon="11.109897">
<ele>651.272</ele>
<time>2020-09-11T15:32:16Z</time>
</trkpt>
<trkpt lat="47.524273" lon="11.109877">
<ele>651.272</ele>
<time>2020-09-11T15:32:17Z</time>
</trkpt>
<trkpt lat="47.524212" lon="11.109859">
<ele>651.272</ele>
<time>2020-09-11T15:32:18Z</time>
</trkpt>
<trkpt lat="47.524147" lon="11.109838">
<ele>651.272</ele>
<time>2020-09-11T15:32:19Z</time>
</trkpt>
<trkpt lat="47.524086" lon="11.10982">
<ele>651.272</ele>
<time>2020-09-11T15:32:20Z</time>
</trkpt>
<trkpt lat="47.524025" lon="11.109799">
<ele>651.272</ele>
<time>2020-09-11T15:32:21Z</time>
</trkpt>
<trkpt lat="47.52396" lon="11.10978">
<ele>651.272</ele>
<time>2020-09-11T15:32:22Z</time>
</trkpt>
<trkpt lat="47.523899" lon="11.109758">
<ele>651.51</ele>
<time>2020-09-11T15:32:23Z</time>
</trkpt>
<trkpt lat="47.523838" lon="11.109738">
<ele>651.681</ele>
<time>2020-09-11T15:32:24Z</time>
</trkpt>
<trkpt lat="47.523773" lon="11.109718">
<ele>651.853</ele>
<time>2020-09-11T15:32:25Z</time>
</trkpt>
<trkpt lat="47.523708" lon="11.109696">
<ele>651.991</ele>
<time>2020-09-11T15:32:26Z</time>
</trkpt>
<trkpt lat="47.523643" lon="11.109676">
<ele>652.097</ele>
<time>2020-09-11T15:32:27Z</time>
</trkpt>
<trkpt lat="47.523579" lon="11.109653">
<ele>652.174</ele>
<time>2020-09-11T15:32:28Z</time>
</trkpt>
<trkpt lat="47.523518" lon="11.109632">
<ele>652.222</ele>
<time>2020-09-11T15:32:29Z</time>
</trkpt>
<trkpt lat="47.523449" lon="11.10961">
<ele>652.245</ele>
<time>2020-09-11T15:32:30Z</time>
</trkpt>
<trkpt lat="47.523384" lon="11.109589">
<ele>652.245</ele>
<time>2020-09-11T15:32:31Z</time>
</trkpt>
<trkpt lat="47.523319" lon="11.10957">
<ele>652.245</ele>
<time>2020-09-11T15:32:32Z</time>
</trkpt>
<trkpt lat="47.523251" lon="11.10955">
<ele>652.245</ele>
<time>2020-09-11T15:32:33Z</time>
</trkpt>
<trkpt lat="47.523182" lon="11.109529">
<ele>652.245</ele>
<time>2020-09-11T15:32:34Z</time>
</trkpt>
<trkpt lat="47.523113" lon="11.109509">
<ele>652.245</ele>
<time>2020-09-11T15:32:35Z</time>
</trkpt>
<trkpt lat="47.523045" lon="11.109487">
<ele>652.245</ele>
<time>2020-09-11T15:32:36Z</time>
</trkpt>
<trkpt lat="47.522976" lon="11.109463">
<ele>652.245</ele>
<time>2020-09-11T15:32:37Z</time>
</trkpt>
<trkpt lat="47.522907" lon="11.109442">
<ele>652.245</ele>
<time>2020-09-11T15:32:38Z</time>
</trkpt>
<trkpt lat="47.522839" lon="11.109417">
<ele>652.539</ele>
<time>2020-09-11T15:32:39Z</time>
</trkpt>
<trkpt lat="47.522766" lon="11.109391">
<ele>652.766</ele>
<time>2020-09-11T15:32:40Z</time>
</trkpt>
<trkpt lat="47.522697" lon="11.10937">
<ele>652.938</ele>
<time>2020-09-11T15:32:41Z</time>
</trkpt>
<trkpt lat="47.522629" lon="11.109348">
<ele>653.064</ele>
<time>2020-09-11T15:32:42Z</time>
</trkpt>
<trkpt lat="47.52256" lon="11.109324">
<ele>653.153</ele>
<time>2020-09-11T15:32:43Z</time>
</trkpt>
<trkpt lat="47.522488" lon="11.109305">
<ele>653.219</ele>
<time>2020-09-11T15:32:44Z</time>
</trkpt>
<trkpt lat="47.522419" lon="11.109284">
<ele>653.279</ele>
<time>2020-09-11T15:32:45Z</time>
</trkpt>
<trkpt lat="47.522354" lon="11.109265">
<ele>653.307</ele>
<time>2020-09-11T15:32:46Z</time>
</trkpt>
<trkpt lat="47.522285" lon="11.109244">
<ele>653.307</ele>
<time>2020-09-11T15:32:47Z</time>
</trkpt>
<trkpt lat="47.522217" lon="11.109228">
<ele>653.58</ele>
<time>2020-09-11T15:32:48Z</time>
</trkpt>
<trkpt lat="47.522144" lon="11.109213">
<ele>653.794</ele>
<time>2020-09-11T15:32:49Z</time>
</trkpt>
<trkpt lat="47.522076" lon="11.1092">
<ele>653.955</ele>
<time>2020-09-11T15:32:50Z</time>
</trkpt>
<trkpt lat="47.522007" lon="11.109186">
<ele>654.073</ele>
<time>2020-09-11T15:32:51Z</time>
</trkpt>
<trkpt lat="47.521935" lon="11.109175">
<ele>654.156</ele>
<time>2020-09-11T15:32:52Z</time>
</trkpt>
<trkpt lat="47.521866" lon="11.109163">
<ele>654.212</ele>
<time>2020-09-11T15:32:53Z</time>
</trkpt>
<trkpt lat="47.521797" lon="11.109152">
<ele>654.254</ele>
<time>2020-09-11T15:32:54Z</time>
</trkpt>
<trkpt lat="47.521725" lon="11.109136">
<ele>654.281</ele>
<time>2020-09-11T15:32:55Z</time>
</trkpt>
<trkpt lat="47.521648" lon="11.109118">
<ele>654.281</ele>
<time>2020-09-11T15:32:56Z</time>
</trkpt>
<trkpt lat="47.521576" lon="11.109106">
<ele>654.281</ele>
<time>2020-09-11T15:32:57Z</time>
</trkpt>
<trkpt lat="47.521507" lon="11.109097">
<ele>654.281</ele>
<time>2020-09-11T15:32:58Z</time>
</trkpt>
<trkpt lat="47.521435" lon="11.109088">
<ele>654.281</ele>
<time>2020-09-11T15:32:59Z</time>
</trkpt>
<trkpt lat="47.521358" lon="11.109085">
<ele>654.281</ele>
<time>2020-09-11T15:33:00Z</time>
</trkpt>
<trkpt lat="47.521286" lon="11.109083">
<ele>654.281</ele>
<time>2020-09-11T15:33:01Z</time>
</trkpt>
<trkpt lat="47.521214" lon="11.109085">
<ele>654.281</ele>
<time>2020-09-11T15:33:02Z</time>
</trkpt>
<trkpt lat="47.521141" lon="11.109087">
<ele>654.281</ele>
<time>2020-09-11T15:33:03Z</time>
</trkpt>
<trkpt lat="47.521069" lon="11.109088">
<ele>654.281</ele>
<time>2020-09-11T15:33:04Z</time>
</trkpt>
<trkpt lat="47.520996" lon="11.10909">
<ele>654.281</ele>
<time>2020-09-11T15:33:05Z</time>
</trkpt>
<trkpt lat="47.520924" lon="11.10909">
<ele>654.281</ele>
<time>2020-09-11T15:33:06Z</time>
</trkpt>
<trkpt lat="47.520855" lon="11.10909">
<ele>654.281</ele>
<time>2020-09-11T15:33:07Z</time>
</trkpt>
<trkpt lat="47.520786" lon="11.109088">
<ele>654.281</ele>
<time>2020-09-11T15:33:08Z</time>
</trkpt>
<trkpt lat="47.520714" lon="11.109087">
<ele>654.281</ele>
<time>2020-09-11T15:33:09Z</time>
</trkpt>
<trkpt lat="47.520641" lon="11.109085">
<ele>654.281</ele>
<time>2020-09-11T15:33:10Z</time>
</trkpt>
<trkpt lat="47.520569" lon="11.10908">
<ele>654.281</ele>
<time>2020-09-11T15:33:11Z</time>
</trkpt>
<trkpt lat="47.5205" lon="11.10907">
<ele>654.281</ele>
<time>2020-09-11T15:33:12Z</time>
</trkpt>
<trkpt lat="47.520432" lon="11.109058">
<ele>654.281</ele>
<time>2020-09-11T15:33:13Z</time>
</trkpt>
<trkpt lat="47.520367" lon="11.109047">
<ele>654.281</ele>
<time>2020-09-11T15:33:14Z</time>
</trkpt>
<trkpt lat="47.520298" lon="11.109034">
<ele>654.281</ele>
<time>2020-09-11T15:33:15Z</time>
</trkpt>
<trkpt lat="47.520233" lon="11.109014">
<ele>654.281</ele>
<time>2020-09-11T15:33:16Z</time>
</trkpt>
<trkpt lat="47.520172" lon="11.108995">
<ele>654.281</ele>
<time>2020-09-11T15:33:17Z</time>
</trkpt>
<trkpt lat="47.520119" lon="11.108978">
<ele>654.281</ele>
<time>2020-09-11T15:33:18Z</time>
</trkpt>
<trkpt lat="47.520073" lon="11.108965">
<ele>654.281</ele>
<time>2020-09-11T15:33:19Z</time>
</trkpt>
<trkpt lat="47.520031" lon="11.108958">
<ele>654.281</ele>
<time>2020-09-11T15:33:20Z</time>
</trkpt>
<trkpt lat="47.519993" lon="11.10896">
<ele>654.281</ele>
<time>2020-09-11T15:33:21Z</time>
</trkpt>
<trkpt lat="47.519958" lon="11.108966">
<ele>654.281</ele>
<time>2020-09-11T15:33:22Z</time>
</trkpt>
<trkpt lat="47.519932" lon="11.108978">
<ele>654.281</ele>
<time>2020-09-11T15:33:23Z</time>
</trkpt>
<trkpt lat="47.519909" lon="11.108992">
<ele>654.281</ele>
<time>2020-09-11T15:33:24Z</time>
</trkpt>
<trkpt lat="47.519886" lon="11.109005">
<ele>654.281</ele>
<time>2020-09-11T15:33:25Z</time>
</trkpt>
<trkpt lat="47.519878" lon="11.109018">
<ele>654.281</ele>
<time>2020-09-11T15:33:26Z</time>
</trkpt>
<trkpt lat="47.519875" lon="11.109027">
<ele>654.281</ele>
<time>2020-09-11T15:33:27Z</time>
</trkpt>
<trkpt lat="47.519867" lon="11.109031">
<ele>654.281</ele>
<time>2020-09-11T15:33:29Z</time>
</trkpt>
<trkpt lat="47.519852" lon="11.109038">
<ele>654.281</ele>
<time>2020-09-11T15:33:30Z</time>
</trkpt>
<trkpt lat="47.519836" lon="11.109056">
<ele>654.281</ele>
<time>2020-09-11T15:33:31Z</time>
</trkpt>
<trkpt lat="47.519814" lon="11.109076">
<ele>654.281</ele>
<time>2020-09-11T15:33:32Z</time>
</trkpt>
<trkpt lat="47.519791" lon="11.109094">
<ele>654.281</ele>
<time>2020-09-11T15:33:33Z</time>
</trkpt>
<trkpt lat="47.519764" lon="11.109108">
<ele>654.281</ele>
<time>2020-09-11T15:33:34Z</time>
</trkpt>
<trkpt lat="47.519741" lon="11.109118">
<ele>654.281</ele>
<time>2020-09-11T15:33:35Z</time>
</trkpt>
<trkpt lat="47.519711" lon="11.109113">
<ele>653.975</ele>
<time>2020-09-11T15:33:36Z</time>
</trkpt>
<trkpt lat="47.519688" lon="11.109085">
<ele>653.776</ele>
<time>2020-09-11T15:33:37Z</time>
</trkpt>
<trkpt lat="47.519676" lon="11.109041">
<ele>653.641</ele>
<time>2020-09-11T15:33:38Z</time>
</trkpt>
<trkpt lat="47.519661" lon="11.108997">
<ele>653.531</ele>
<time>2020-09-11T15:33:39Z</time>
</trkpt>
<trkpt lat="47.519646" lon="11.10895">
<ele>653.439</ele>
<time>2020-09-11T15:33:40Z</time>
</trkpt>
<trkpt lat="47.519623" lon="11.108907">
<ele>653.369</ele>
<time>2020-09-11T15:33:41Z</time>
</trkpt>
<trkpt lat="47.519596" lon="11.108867">
<ele>653.329</ele>
<time>2020-09-11T15:33:42Z</time>
</trkpt>
<trkpt lat="47.519566" lon="11.108828">
<ele>653.307</ele>
<time>2020-09-11T15:33:43Z</time>
</trkpt>
<trkpt lat="47.519531" lon="11.10879">
<ele>653.307</ele>
<time>2020-09-11T15:33:44Z</time>
</trkpt>
<trkpt lat="47.519497" lon="11.108748">
<ele>653.307</ele>
<time>2020-09-11T15:33:45Z</time>
</trkpt>
<trkpt lat="47.519459" lon="11.108704">
<ele>653.61</ele>
<time>2020-09-11T15:33:46Z</time>
</trkpt>
<trkpt lat="47.519421" lon="11.108658">
<ele>653.854</ele>
<time>2020-09-11T15:33:47Z</time>
</trkpt>
<trkpt lat="47.519379" lon="11.108612">
<ele>654.047</ele>
<time>2020-09-11T15:33:48Z</time>
</trkpt>
<trkpt lat="47.519337" lon="11.108563">
<ele>654.197</ele>
<time>2020-09-11T15:33:49Z</time>
</trkpt>
<trkpt lat="47.519299" lon="11.108513">
<ele>654.307</ele>
<time>2020-09-11T15:33:50Z</time>
</trkpt>
<trkpt lat="47.519257" lon="11.108469">
<ele>654.386</ele>
<time>2020-09-11T15:33:51Z</time>
</trkpt>
<trkpt lat="47.519215" lon="11.108412">
<ele>654.435</ele>
<time>2020-09-11T15:33:52Z</time>
</trkpt>
<trkpt lat="47.519176" lon="11.108356">
<ele>654.458</ele>
<time>2020-09-11T15:33:53Z</time>
</trkpt>
<trkpt lat="47.519135" lon="11.108303">
<ele>654.458</ele>
<time>2020-09-11T15:33:54Z</time>
</trkpt>
<trkpt lat="47.519096" lon="11.108255">
<ele>654.458</ele>
<time>2020-09-11T15:33:55Z</time>
</trkpt>
<trkpt lat="47.519051" lon="11.108201">
<ele>654.458</ele>
<time>2020-09-11T15:33:56Z</time>
</trkpt>
<trkpt lat="47.519012" lon="11.108143">
<ele>654.458</ele>
<time>2020-09-11T15:33:57Z</time>
</trkpt>
<trkpt lat="47.518974" lon="11.108086">
<ele>654.458</ele>
<time>2020-09-11T15:33:58Z</time>
</trkpt>
<trkpt lat="47.518932" lon="11.108031">
<ele>654.458</ele>
<time>2020-09-11T15:33:59Z</time>
</trkpt>
<trkpt lat="47.518898" lon="11.107975">
<ele>654.458</ele>
<time>2020-09-11T15:34:00Z</time>
</trkpt>
<trkpt lat="47.518867" lon="11.107912">
<ele>654.458</ele>
<time>2020-09-11T15:34:01Z</time>
</trkpt>
<trkpt lat="47.518829" lon="11.107845">
<ele>654.458</ele>
<time>2020-09-11T15:34:02Z</time>
</trkpt>
<trkpt lat="47.518787" lon="11.107779">
<ele>654.458</ele>
<time>2020-09-11T15:34:03Z</time>
</trkpt>
<trkpt lat="47.518749" lon="11.107707">
<ele>654.458</ele>
<time>2020-09-11T15:34:04Z</time>
</trkpt>
<trkpt lat="47.518715" lon="11.107645">
<ele>654.458</ele>
<time>2020-09-11T15:34:05Z</time>
</trkpt>
<trkpt lat="47.518677" lon="11.107576">
<ele>654.458</ele>
<time>2020-09-11T15:34:06Z</time>
</trkpt>
<trkpt lat="47.518639" lon="11.107512">
<ele>654.458</ele>
<time>2020-09-11T15:34:07Z</time>
</trkpt>
<trkpt lat="47.518608" lon="11.10744">
<ele>654.744</ele>
<time>2020-09-11T15:34:08Z</time>
</trkpt>
<trkpt lat="47.518574" lon="11.107368">
<ele>654.96</ele>
<time>2020-09-11T15:34:09Z</time>
</trkpt>
<trkpt lat="47.518547" lon="11.107295">
<ele>655.123</ele>
<time>2020-09-11T15:34:10Z</time>
</trkpt>
<trkpt lat="47.518517" lon="11.107224">
<ele>655.245</ele>
<time>2020-09-11T15:34:11Z</time>
</trkpt>
<trkpt lat="47.518486" lon="11.107148">
<ele>655.331</ele>
<time>2020-09-11T15:34:12Z</time>
</trkpt>
<trkpt lat="47.518459" lon="11.107072">
<ele>655.385</ele>
<time>2020-09-11T15:34:13Z</time>
</trkpt>
<trkpt lat="47.518433" lon="11.106998">
<ele>655.409</ele>
<time>2020-09-11T15:34:14Z</time>
</trkpt>
<trkpt lat="47.51841" lon="11.106923">
<ele>655.432</ele>
<time>2020-09-11T15:34:15Z</time>
</trkpt>
<trkpt lat="47.518383" lon="11.106847">
<ele>655.432</ele>
<time>2020-09-11T15:34:16Z</time>
</trkpt>
<trkpt lat="47.518356" lon="11.106769">
<ele>655.432</ele>
<time>2020-09-11T15:34:17Z</time>
</trkpt>
<trkpt lat="47.51833" lon="11.106687">
<ele>655.432</ele>
<time>2020-09-11T15:34:18Z</time>
</trkpt>
<trkpt lat="47.518299" lon="11.106603">
<ele>655.432</ele>
<time>2020-09-11T15:34:19Z</time>
</trkpt>
<trkpt lat="47.518272" lon="11.106519">
<ele>655.432</ele>
<time>2020-09-11T15:34:20Z</time>
</trkpt>
<trkpt lat="47.518246" lon="11.106431">
<ele>655.432</ele>
<time>2020-09-11T15:34:21Z</time>
</trkpt>
<trkpt lat="47.518215" lon="11.106347">
<ele>655.432</ele>
<time>2020-09-11T15:34:22Z</time>
</trkpt>
<trkpt lat="47.518192" lon="11.106261">
<ele>655.432</ele>
<time>2020-09-11T15:34:23Z</time>
</trkpt>
<trkpt lat="47.518169" lon="11.106178">
<ele>655.65</ele>
<time>2020-09-11T15:34:24Z</time>
</trkpt>
<trkpt lat="47.518147" lon="11.106097">
<ele>655.802</ele>
<time>2020-09-11T15:34:25Z</time>
</trkpt>
<trkpt lat="47.51812" lon="11.106016">
<ele>655.957</ele>
<time>2020-09-11T15:34:26Z</time>
</trkpt>
<trkpt lat="47.518093" lon="11.105938">
<ele>656.081</ele>
<time>2020-09-11T15:34:27Z</time>
</trkpt>
<trkpt lat="47.51807" lon="11.105859">
<ele>656.178</ele>
<time>2020-09-11T15:34:28Z</time>
</trkpt>
<trkpt lat="47.518047" lon="11.105782">
<ele>656.241</ele>
<time>2020-09-11T15:34:29Z</time>
</trkpt>
<trkpt lat="47.518021" lon="11.105705">
<ele>656.525</ele>
<time>2020-09-11T15:34:30Z</time>
</trkpt>
<trkpt lat="47.517998" lon="11.10563">
<ele>656.747</ele>
<time>2020-09-11T15:34:31Z</time>
</trkpt>
<trkpt lat="47.517979" lon="11.105556">
<ele>656.944</ele>
<time>2020-09-11T15:34:32Z</time>
</trkpt>
<trkpt lat="47.517952" lon="11.105485">
<ele>657.062</ele>
<time>2020-09-11T15:34:33Z</time>
</trkpt>
<trkpt lat="47.517929" lon="11.105416">
<ele>657.145</ele>
<time>2020-09-11T15:34:34Z</time>
</trkpt>
<trkpt lat="47.517906" lon="11.10535">
<ele>657.208</ele>
<time>2020-09-11T15:34:35Z</time>
</trkpt>
<trkpt lat="47.517883" lon="11.105289">
<ele>657.263</ele>
<time>2020-09-11T15:34:36Z</time>
</trkpt>
<trkpt lat="47.51786" lon="11.105228">
<ele>657.291</ele>
<time>2020-09-11T15:34:37Z</time>
</trkpt>
<trkpt lat="47.517841" lon="11.105168">
<ele>657.291</ele>
<time>2020-09-11T15:34:38Z</time>
</trkpt>
<trkpt lat="47.517822" lon="11.10511">
<ele>657.291</ele>
<time>2020-09-11T15:34:39Z</time>
</trkpt>
<trkpt lat="47.517818" lon="11.105054">
<ele>657.291</ele>
<time>2020-09-11T15:34:40Z</time>
</trkpt>
<trkpt lat="47.517811" lon="11.104996">
<ele>657.291</ele>
<time>2020-09-11T15:34:41Z</time>
</trkpt>
<trkpt lat="47.517807" lon="11.10493">
<ele>657.291</ele>
<time>2020-09-11T15:34:42Z</time>
</trkpt>
<trkpt lat="47.517803" lon="11.104859">
<ele>657.291</ele>
<time>2020-09-11T15:34:43Z</time>
</trkpt>
<trkpt lat="47.517796" lon="11.10478">
<ele>657.552</ele>
<time>2020-09-11T15:34:44Z</time>
</trkpt>
<trkpt lat="47.517788" lon="11.104696">
<ele>657.738</ele>
<time>2020-09-11T15:34:45Z</time>
</trkpt>
<trkpt lat="47.517769" lon="11.104614">
<ele>657.94</ele>
<time>2020-09-11T15:34:46Z</time>
</trkpt>
<trkpt lat="47.517746" lon="11.104537">
<ele>658.099</ele>
<time>2020-09-11T15:34:47Z</time>
</trkpt>
<trkpt lat="47.517723" lon="11.10446">
<ele>658.199</ele>
<time>2020-09-11T15:34:48Z</time>
</trkpt>
<trkpt lat="47.517696" lon="11.104383">
<ele>658.535</ele>
<time>2020-09-11T15:34:49Z</time>
</trkpt>
<trkpt lat="47.517673" lon="11.104308">
<ele>658.782</ele>
<time>2020-09-11T15:34:50Z</time>
</trkpt>
<trkpt lat="47.517651" lon="11.104235">
<ele>658.963</ele>
<time>2020-09-11T15:34:51Z</time>
</trkpt>
<trkpt lat="47.517628" lon="11.104163">
<ele>659.12</ele>
<time>2020-09-11T15:34:52Z</time>
</trkpt>
<trkpt lat="47.517605" lon="11.104093">
<ele>659.201</ele>
<time>2020-09-11T15:34:53Z</time>
</trkpt>
<trkpt lat="47.517586" lon="11.104023">
<ele>659.256</ele>
<time>2020-09-11T15:34:54Z</time>
</trkpt>
<trkpt lat="47.517563" lon="11.103954">
<ele>659.3</ele>
<time>2020-09-11T15:34:55Z</time>
</trkpt>
<trkpt lat="47.517548" lon="11.103889">
<ele>659.537</ele>
<time>2020-09-11T15:34:56Z</time>
</trkpt>
<trkpt lat="47.517525" lon="11.10382">
<ele>659.716</ele>
<time>2020-09-11T15:34:57Z</time>
</trkpt>
<trkpt lat="47.517506" lon="11.103749">
<ele>659.865</ele>
<time>2020-09-11T15:34:58Z</time>
</trkpt>
<trkpt lat="47.517487" lon="11.103682">
<ele>659.986</ele>
<time>2020-09-11T15:34:59Z</time>
</trkpt>
<trkpt lat="47.517464" lon="11.103611">
<ele>660.081</ele>
<time>2020-09-11T15:35:00Z</time>
</trkpt>
<trkpt lat="47.517441" lon="11.103541">
<ele>660.149</ele>
<time>2020-09-11T15:35:01Z</time>
</trkpt>
<trkpt lat="47.517426" lon="11.10347">
<ele>660.192</ele>
<time>2020-09-11T15:35:02Z</time>
</trkpt>
<trkpt lat="47.517403" lon="11.103399">
<ele>660.214</ele>
<time>2020-09-11T15:35:03Z</time>
</trkpt>
<trkpt lat="47.517384" lon="11.103328">
<ele>660.214</ele>
<time>2020-09-11T15:35:04Z</time>
</trkpt>
<trkpt lat="47.517365" lon="11.103256">
<ele>660.431</ele>
<time>2020-09-11T15:35:05Z</time>
</trkpt>
<trkpt lat="47.517342" lon="11.103188">
<ele>660.874</ele>
<time>2020-09-11T15:35:06Z</time>
</trkpt>
<trkpt lat="47.517319" lon="11.103118">
<ele>660.989</ele>
<time>2020-09-11T15:35:07Z</time>
</trkpt>
<trkpt lat="47.517303" lon="11.103048">
<ele>661.074</ele>
<time>2020-09-11T15:35:08Z</time>
</trkpt>
<trkpt lat="47.517281" lon="11.102977">
<ele>661.135</ele>
<time>2020-09-11T15:35:09Z</time>
</trkpt>
<trkpt lat="47.517258" lon="11.102908">
<ele>661.17</ele>
<time>2020-09-11T15:35:10Z</time>
</trkpt>
<trkpt lat="47.517235" lon="11.102839">
<ele>661.184</ele>
<time>2020-09-11T15:35:11Z</time>
</trkpt>
<trkpt lat="47.517216" lon="11.102769">
<ele>661.379</ele>
<time>2020-09-11T15:35:12Z</time>
</trkpt>
<trkpt lat="47.517193" lon="11.102699">
<ele>661.555</ele>
<time>2020-09-11T15:35:13Z</time>
</trkpt>
<trkpt lat="47.517174" lon="11.10263">
<ele>661.668</ele>
<time>2020-09-11T15:35:14Z</time>
</trkpt>
<trkpt lat="47.517155" lon="11.102559">
<ele>661.763</ele>
<time>2020-09-11T15:35:15Z</time>
</trkpt>
<trkpt lat="47.517136" lon="11.102489">
<ele>661.81</ele>
<time>2020-09-11T15:35:16Z</time>
</trkpt>
<trkpt lat="47.517117" lon="11.102419">
<ele>661.919</ele>
<time>2020-09-11T15:35:17Z</time>
</trkpt>
<trkpt lat="47.517097" lon="11.102348">
<ele>661.992</ele>
<time>2020-09-11T15:35:18Z</time>
</trkpt>
<trkpt lat="47.517075" lon="11.102275">
<ele>662.264</ele>
<time>2020-09-11T15:35:19Z</time>
</trkpt>
<trkpt lat="47.517056" lon="11.102205">
<ele>662.471</ele>
<time>2020-09-11T15:35:20Z</time>
</trkpt>
<trkpt lat="47.517033" lon="11.102132">
<ele>662.666</ele>
<time>2020-09-11T15:35:21Z</time>
</trkpt>
<trkpt lat="47.51701" lon="11.10206">
<ele>662.775</ele>
<time>2020-09-11T15:35:22Z</time>
</trkpt>
<trkpt lat="47.516987" lon="11.101985">
<ele>662.847</ele>
<time>2020-09-11T15:35:23Z</time>
</trkpt>
<trkpt lat="47.516964" lon="11.101912">
<ele>662.898</ele>
<time>2020-09-11T15:35:24Z</time>
</trkpt>
<trkpt lat="47.516941" lon="11.101836">
<ele>662.936</ele>
<time>2020-09-11T15:35:25Z</time>
</trkpt>
<trkpt lat="47.516914" lon="11.101761">
<ele>662.96</ele>
<time>2020-09-11T15:35:26Z</time>
</trkpt>
<trkpt lat="47.516891" lon="11.101687">
<ele>662.96</ele>
<time>2020-09-11T15:35:27Z</time>
</trkpt>
<trkpt lat="47.516872" lon="11.101615">
<ele>662.96</ele>
<time>2020-09-11T15:35:28Z</time>
</trkpt>
<trkpt lat="47.516846" lon="11.101545">
<ele>662.96</ele>
<time>2020-09-11T15:35:29Z</time>
</trkpt>
<trkpt lat="47.516827" lon="11.10148">
<ele>663.222</ele>
<time>2020-09-11T15:35:30Z</time>
</trkpt>
<trkpt lat="47.516811" lon="11.101425">
<ele>663.424</ele>
<time>2020-09-11T15:35:31Z</time>
</trkpt>
<trkpt lat="47.516796" lon="11.101379">
<ele>663.577</ele>
<time>2020-09-11T15:35:32Z</time>
</trkpt>
<trkpt lat="47.516781" lon="11.101337">
<ele>663.688</ele>
<time>2020-09-11T15:35:33Z</time>
</trkpt>
<trkpt lat="47.516769" lon="11.101294">
<ele>663.774</ele>
<time>2020-09-11T15:35:34Z</time>
</trkpt>
<trkpt lat="47.516754" lon="11.101252">
<ele>663.842</ele>
<time>2020-09-11T15:35:35Z</time>
</trkpt>
<trkpt lat="47.516747" lon="11.10121">
<ele>663.902</ele>
<time>2020-09-11T15:35:36Z</time>
</trkpt>
<trkpt lat="47.516731" lon="11.101168">
<ele>663.934</ele>
<time>2020-09-11T15:35:37Z</time>
</trkpt>
<trkpt lat="47.516716" lon="11.101129">
<ele>663.934</ele>
<time>2020-09-11T15:35:38Z</time>
</trkpt>
<trkpt lat="47.516708" lon="11.101093">
<ele>663.934</ele>
<time>2020-09-11T15:35:39Z</time>
</trkpt>
<trkpt lat="47.516693" lon="11.10106">
<ele>663.934</ele>
<time>2020-09-11T15:35:40Z</time>
</trkpt>
<trkpt lat="47.516682" lon="11.101022">
<ele>663.934</ele>
<time>2020-09-11T15:35:41Z</time>
</trkpt>
<trkpt lat="47.516674" lon="11.100986">
<ele>663.934</ele>
<time>2020-09-11T15:35:42Z</time>
</trkpt>
<trkpt lat="47.516655" lon="11.100945">
<ele>663.61</ele>
<time>2020-09-11T15:35:43Z</time>
</trkpt>
<trkpt lat="47.51664" lon="11.100891">
<ele>663.338</ele>
<time>2020-09-11T15:35:44Z</time>
</trkpt>
<trkpt lat="47.516624" lon="11.100828">
<ele>663.158</ele>
<time>2020-09-11T15:35:45Z</time>
</trkpt>
<trkpt lat="47.516609" lon="11.100765">
<ele>662.942</ele>
<time>2020-09-11T15:35:46Z</time>
</trkpt>
<trkpt lat="47.516586" lon="11.100697">
<ele>662.784</ele>
<time>2020-09-11T15:35:47Z</time>
</trkpt>
<trkpt lat="47.516563" lon="11.100625">
<ele>662.685</ele>
<time>2020-09-11T15:35:48Z</time>
</trkpt>
<trkpt lat="47.516544" lon="11.100552">
<ele>662.63</ele>
<time>2020-09-11T15:35:49Z</time>
</trkpt>
<trkpt lat="47.516521" lon="11.100476">
<ele>662.605</ele>
<time>2020-09-11T15:35:50Z</time>
</trkpt>
<trkpt lat="47.516499" lon="11.1004">
<ele>662.605</ele>
<time>2020-09-11T15:35:51Z</time>
</trkpt>
<trkpt lat="47.516476" lon="11.100324">
<ele>662.605</ele>
<time>2020-09-11T15:35:52Z</time>
</trkpt>
<trkpt lat="47.516453" lon="11.100244">
<ele>662.605</ele>
<time>2020-09-11T15:35:53Z</time>
</trkpt>
<trkpt lat="47.516422" lon="11.100158">
<ele>662.605</ele>
<time>2020-09-11T15:35:54Z</time>
</trkpt>
<trkpt lat="47.516399" lon="11.100068">
<ele>662.605</ele>
<time>2020-09-11T15:35:55Z</time>
</trkpt>
<trkpt lat="47.516373" lon="11.099978">
<ele>662.356</ele>
<time>2020-09-11T15:35:56Z</time>
</trkpt>
<trkpt lat="47.516342" lon="11.09989">
<ele>662.152</ele>
<time>2020-09-11T15:35:57Z</time>
</trkpt>
<trkpt lat="47.516315" lon="11.099804">
<ele>661.989</ele>
<time>2020-09-11T15:35:58Z</time>
</trkpt>
<trkpt lat="47.516289" lon="11.099716">
<ele>661.861</ele>
<time>2020-09-11T15:35:59Z</time>
</trkpt>
<trkpt lat="47.516258" lon="11.099627">
<ele>661.764</ele>
<time>2020-09-11T15:36:00Z</time>
</trkpt>
<trkpt lat="47.516235" lon="11.099533">
<ele>661.697</ele>
<time>2020-09-11T15:36:01Z</time>
</trkpt>
<trkpt lat="47.516205" lon="11.099443">
<ele>661.653</ele>
<time>2020-09-11T15:36:02Z</time>
</trkpt>
<trkpt lat="47.516178" lon="11.099354">
<ele>661.631</ele>
<time>2020-09-11T15:36:03Z</time>
</trkpt>
<trkpt lat="47.516151" lon="11.099258">
<ele>661.392</ele>
<time>2020-09-11T15:36:04Z</time>
</trkpt>
<trkpt lat="47.516121" lon="11.099165">
<ele>661.222</ele>
<time>2020-09-11T15:36:05Z</time>
</trkpt>
<trkpt lat="47.516094" lon="11.099067">
<ele>661.046</ele>
<time>2020-09-11T15:36:06Z</time>
</trkpt>
<trkpt lat="47.516064" lon="11.098969">
<ele>660.908</ele>
<time>2020-09-11T15:36:07Z</time>
</trkpt>
<trkpt lat="47.516033" lon="11.098868">
<ele>660.803</ele>
<time>2020-09-11T15:36:08Z</time>
</trkpt>
<trkpt lat="47.516003" lon="11.098768">
<ele>660.728</ele>
<time>2020-09-11T15:36:09Z</time>
</trkpt>
<trkpt lat="47.51598" lon="11.098677">
<ele>660.679</ele>
<time>2020-09-11T15:36:10Z</time>
</trkpt>
<trkpt lat="47.515945" lon="11.098583">
<ele>660.657</ele>
<time>2020-09-11T15:36:11Z</time>
</trkpt>
<trkpt lat="47.515915" lon="11.098493">
<ele>660.656</ele>
<time>2020-09-11T15:36:12Z</time>
</trkpt>
<trkpt lat="47.515888" lon="11.098405">
<ele>660.656</ele>
<time>2020-09-11T15:36:13Z</time>
</trkpt>
<trkpt lat="47.515858" lon="11.098316">
<ele>660.656</ele>
<time>2020-09-11T15:36:14Z</time>
</trkpt>
<trkpt lat="47.515835" lon="11.098233">
<ele>660.444</ele>
<time>2020-09-11T15:36:15Z</time>
</trkpt>
<trkpt lat="47.515804" lon="11.098145">
<ele>660.243</ele>
<time>2020-09-11T15:36:16Z</time>
</trkpt>
<trkpt lat="47.51577" lon="11.098062">
<ele>660.075</ele>
<time>2020-09-11T15:36:17Z</time>
</trkpt>
<trkpt lat="47.515743" lon="11.09798">
<ele>659.937</ele>
<time>2020-09-11T15:36:18Z</time>
</trkpt>
<trkpt lat="47.515717" lon="11.097897">
<ele>659.834</ele>
<time>2020-09-11T15:36:19Z</time>
</trkpt>
<trkpt lat="47.51569" lon="11.097812">
<ele>659.756</ele>
<time>2020-09-11T15:36:20Z</time>
</trkpt>
<trkpt lat="47.515659" lon="11.097723">
<ele>659.706</ele>
<time>2020-09-11T15:36:21Z</time>
</trkpt>
<trkpt lat="47.515625" lon="11.097637">
<ele>659.682</ele>
<time>2020-09-11T15:36:22Z</time>
</trkpt>
<trkpt lat="47.515587" lon="11.097558">
<ele>659.682</ele>
<time>2020-09-11T15:36:23Z</time>
</trkpt>
<trkpt lat="47.515553" lon="11.097485">
<ele>659.682</ele>
<time>2020-09-11T15:36:24Z</time>
</trkpt>
<trkpt lat="47.515514" lon="11.097408">
<ele>659.682</ele>
<time>2020-09-11T15:36:25Z</time>
</trkpt>
<trkpt lat="47.51548" lon="11.097334">
<ele>659.682</ele>
<time>2020-09-11T15:36:26Z</time>
</trkpt>
<trkpt lat="47.515446" lon="11.097269">
<ele>659.682</ele>
<time>2020-09-11T15:36:27Z</time>
</trkpt>
<trkpt lat="47.515408" lon="11.097208">
<ele>659.682</ele>
<time>2020-09-11T15:36:28Z</time>
</trkpt>
<trkpt lat="47.515369" lon="11.097147">
<ele>659.682</ele>
<time>2020-09-11T15:36:29Z</time>
</trkpt>
<trkpt lat="47.515331" lon="11.097083">
<ele>659.682</ele>
<time>2020-09-11T15:36:30Z</time>
</trkpt>
<trkpt lat="47.515285" lon="11.097022">
<ele>659.682</ele>
<time>2020-09-11T15:36:31Z</time>
</trkpt>
<trkpt lat="47.515247" lon="11.096963">
<ele>659.682</ele>
<time>2020-09-11T15:36:32Z</time>
</trkpt>
<trkpt lat="47.515205" lon="11.096904">
<ele>659.682</ele>
<time>2020-09-11T15:36:33Z</time>
</trkpt>
<trkpt lat="47.51516" lon="11.096842">
<ele>659.682</ele>
<time>2020-09-11T15:36:34Z</time>
</trkpt>
<trkpt lat="47.515118" lon="11.096783">
<ele>659.682</ele>
<time>2020-09-11T15:36:35Z</time>
</trkpt>
<trkpt lat="47.515076" lon="11.096726">
<ele>659.682</ele>
<time>2020-09-11T15:36:36Z</time>
</trkpt>
<trkpt lat="47.515026" lon="11.09667">
<ele>659.682</ele>
<time>2020-09-11T15:36:37Z</time>
</trkpt>
<trkpt lat="47.51498" lon="11.096615">
<ele>659.682</ele>
<time>2020-09-11T15:36:38Z</time>
</trkpt>
<trkpt lat="47.514935" lon="11.09656">
<ele>659.682</ele>
<time>2020-09-11T15:36:39Z</time>
</trkpt>
<trkpt lat="47.514889" lon="11.09651">
<ele>659.682</ele>
<time>2020-09-11T15:36:40Z</time>
</trkpt>
<trkpt lat="47.514835" lon="11.096467">
<ele>659.962</ele>
<time>2020-09-11T15:36:41Z</time>
</trkpt>
<trkpt lat="47.514782" lon="11.096425">
<ele>660.182</ele>
<time>2020-09-11T15:36:42Z</time>
</trkpt>
<trkpt lat="47.514729" lon="11.09638">
<ele>660.352</ele>
<time>2020-09-11T15:36:43Z</time>
</trkpt>
<trkpt lat="47.514675" lon="11.096336">
<ele>660.48</ele>
<time>2020-09-11T15:36:44Z</time>
</trkpt>
<trkpt lat="47.514626" lon="11.096291">
<ele>660.567</ele>
<time>2020-09-11T15:36:45Z</time>
</trkpt>
<trkpt lat="47.514568" lon="11.096242">
<ele>660.659</ele>
<time>2020-09-11T15:36:46Z</time>
</trkpt>
<trkpt lat="47.514515" lon="11.096189">
<ele>660.717</ele>
<time>2020-09-11T15:36:47Z</time>
</trkpt>
<trkpt lat="47.514462" lon="11.09614">
<ele>660.745</ele>
<time>2020-09-11T15:36:48Z</time>
</trkpt>
<trkpt lat="47.514404" lon="11.096088">
<ele>660.745</ele>
<time>2020-09-11T15:36:49Z</time>
</trkpt>
<trkpt lat="47.514355" lon="11.096039">
<ele>660.745</ele>
<time>2020-09-11T15:36:50Z</time>
</trkpt>
<trkpt lat="47.514301" lon="11.095991">
<ele>660.745</ele>
<time>2020-09-11T15:36:51Z</time>
</trkpt>
<trkpt lat="47.514244" lon="11.095946">
<ele>660.745</ele>
<time>2020-09-11T15:36:52Z</time>
</trkpt>
<trkpt lat="47.514194" lon="11.095901">
<ele>660.745</ele>
<time>2020-09-11T15:36:53Z</time>
</trkpt>
<trkpt lat="47.514141" lon="11.095857">
<ele>660.745</ele>
<time>2020-09-11T15:36:54Z</time>
</trkpt>
<trkpt lat="47.514095" lon="11.095811">
<ele>660.745</ele>
<time>2020-09-11T15:36:55Z</time>
</trkpt>
<trkpt lat="47.514042" lon="11.095767">
<ele>660.745</ele>
<time>2020-09-11T15:36:56Z</time>
</trkpt>
<trkpt lat="47.513992" lon="11.095721">
<ele>660.745</ele>
<time>2020-09-11T15:36:57Z</time>
</trkpt>
<trkpt lat="47.513943" lon="11.095676">
<ele>660.745</ele>
<time>2020-09-11T15:36:58Z</time>
</trkpt>
<trkpt lat="47.513889" lon="11.095631">
<ele>660.745</ele>
<time>2020-09-11T15:36:59Z</time>
</trkpt>
<trkpt lat="47.51384" lon="11.095585">
<ele>660.745</ele>
<time>2020-09-11T15:37:00Z</time>
</trkpt>
<trkpt lat="47.513786" lon="11.095542">
<ele>660.745</ele>
<time>2020-09-11T15:37:01Z</time>
</trkpt>
<trkpt lat="47.513737" lon="11.095494">
<ele>660.745</ele>
<time>2020-09-11T15:37:02Z</time>
</trkpt>
<trkpt lat="47.513683" lon="11.095447">
<ele>660.745</ele>
<time>2020-09-11T15:37:03Z</time>
</trkpt>
<trkpt lat="47.513634" lon="11.095395">
<ele>660.745</ele>
<time>2020-09-11T15:37:04Z</time>
</trkpt>
<trkpt lat="47.513584" lon="11.095348">
<ele>660.745</ele>
<time>2020-09-11T15:37:05Z</time>
</trkpt>
<trkpt lat="47.513531" lon="11.095304">
<ele>660.745</ele>
<time>2020-09-11T15:37:06Z</time>
</trkpt>
<trkpt lat="47.513477" lon="11.095258">
<ele>660.745</ele>
<time>2020-09-11T15:37:07Z</time>
</trkpt>
<trkpt lat="47.513424" lon="11.095214">
<ele>660.745</ele>
<time>2020-09-11T15:37:08Z</time>
</trkpt>
<trkpt lat="47.513367" lon="11.095167">
<ele>660.745</ele>
<time>2020-09-11T15:37:09Z</time>
</trkpt>
<trkpt lat="47.513313" lon="11.095119">
<ele>660.745</ele>
<time>2020-09-11T15:37:10Z</time>
</trkpt>
<trkpt lat="47.51326" lon="11.09507">
<ele>660.745</ele>
<time>2020-09-11T15:37:11Z</time>
</trkpt>
<trkpt lat="47.513203" lon="11.095023">
<ele>660.745</ele>
<time>2020-09-11T15:37:12Z</time>
</trkpt>
<trkpt lat="47.513149" lon="11.094978">
<ele>660.745</ele>
<time>2020-09-11T15:37:13Z</time>
</trkpt>
<trkpt lat="47.513096" lon="11.094932">
<ele>660.745</ele>
<time>2020-09-11T15:37:14Z</time>
</trkpt>
<trkpt lat="47.513042" lon="11.094882">
<ele>660.745</ele>
<time>2020-09-11T15:37:15Z</time>
</trkpt>
<trkpt lat="47.512989" lon="11.094832">
<ele>660.745</ele>
<time>2020-09-11T15:37:16Z</time>
</trkpt>
<trkpt lat="47.512936" lon="11.094785">
<ele>660.745</ele>
<time>2020-09-11T15:37:17Z</time>
</trkpt>
<trkpt lat="47.512886" lon="11.09474">
<ele>660.745</ele>
<time>2020-09-11T15:37:18Z</time>
</trkpt>
<trkpt lat="47.512833" lon="11.094696">
<ele>660.745</ele>
<time>2020-09-11T15:37:19Z</time>
</trkpt>
<trkpt lat="47.512779" lon="11.094652">
<ele>660.745</ele>
<time>2020-09-11T15:37:20Z</time>
</trkpt>
<trkpt lat="47.51273" lon="11.094606">
<ele>660.999</ele>
<time>2020-09-11T15:37:21Z</time>
</trkpt>
<trkpt lat="47.512676" lon="11.094562">
<ele>661.2</ele>
<time>2020-09-11T15:37:22Z</time>
</trkpt>
<trkpt lat="47.512623" lon="11.094519">
<ele>661.355</ele>
<time>2020-09-11T15:37:23Z</time>
</trkpt>
<trkpt lat="47.512573" lon="11.094475">
<ele>661.473</ele>
<time>2020-09-11T15:37:24Z</time>
</trkpt>
<trkpt lat="47.51252" lon="11.094432">
<ele>661.556</ele>
<time>2020-09-11T15:37:25Z</time>
</trkpt>
<trkpt lat="47.51247" lon="11.09439">
<ele>661.639</ele>
<time>2020-09-11T15:37:26Z</time>
</trkpt>
<trkpt lat="47.512421" lon="11.094348">
<ele>661.693</ele>
<time>2020-09-11T15:37:27Z</time>
</trkpt>
<trkpt lat="47.512367" lon="11.094307">
<ele>661.719</ele>
<time>2020-09-11T15:37:28Z</time>
</trkpt>
<trkpt lat="47.512314" lon="11.094269">
<ele>661.719</ele>
<time>2020-09-11T15:37:29Z</time>
</trkpt>
<trkpt lat="47.512268" lon="11.094235">
<ele>661.719</ele>
<time>2020-09-11T15:37:30Z</time>
</trkpt>
<trkpt lat="47.512218" lon="11.0942">
<ele>661.719</ele>
<time>2020-09-11T15:37:31Z</time>
</trkpt>
<trkpt lat="47.512173" lon="11.094162">
<ele>661.719</ele>
<time>2020-09-11T15:37:32Z</time>
</trkpt>
<trkpt lat="47.512127" lon="11.094116">
<ele>661.719</ele>
<time>2020-09-11T15:37:33Z</time>
</trkpt>
<trkpt lat="47.512085" lon="11.094075">
<ele>661.951</ele>
<time>2020-09-11T15:37:34Z</time>
</trkpt>
<trkpt lat="47.512039" lon="11.094032">
<ele>662.119</ele>
<time>2020-09-11T15:37:35Z</time>
</trkpt>
<trkpt lat="47.511997" lon="11.093988">
<ele>662.29</ele>
<time>2020-09-11T15:37:36Z</time>
</trkpt>
<trkpt lat="47.511955" lon="11.093942">
<ele>662.431</ele>
<time>2020-09-11T15:37:37Z</time>
</trkpt>
<trkpt lat="47.511917" lon="11.093895">
<ele>662.542</ele>
<time>2020-09-11T15:37:38Z</time>
</trkpt>
<trkpt lat="47.511883" lon="11.093857">
<ele>662.62</ele>
<time>2020-09-11T15:37:39Z</time>
</trkpt>
<trkpt lat="47.511845" lon="11.093812">
<ele>662.67</ele>
<time>2020-09-11T15:37:40Z</time>
</trkpt>
<trkpt lat="47.51181" lon="11.093768">
<ele>662.694</ele>
<time>2020-09-11T15:37:41Z</time>
</trkpt>
<trkpt lat="47.511776" lon="11.093728">
<ele>662.694</ele>
<time>2020-09-11T15:37:42Z</time>
</trkpt>
<trkpt lat="47.511742" lon="11.093688">
<ele>662.694</ele>
<time>2020-09-11T15:37:43Z</time>
</trkpt>
<trkpt lat="47.511707" lon="11.093645">
<ele>662.694</ele>
<time>2020-09-11T15:37:44Z</time>
</trkpt>
<trkpt lat="47.511673" lon="11.093603">
<ele>662.694</ele>
<time>2020-09-11T15:37:45Z</time>
</trkpt>
<trkpt lat="47.511646" lon="11.093563">
<ele>662.694</ele>
<time>2020-09-11T15:37:46Z</time>
</trkpt>
<trkpt lat="47.511616" lon="11.093529">
<ele>662.694</ele>
<time>2020-09-11T15:37:47Z</time>
</trkpt>
<trkpt lat="47.511585" lon="11.093487">
<ele>662.694</ele>
<time>2020-09-11T15:37:48Z</time>
</trkpt>
<trkpt lat="47.511555" lon="11.09345">
<ele>662.694</ele>
<time>2020-09-11T15:37:49Z</time>
</trkpt>
<trkpt lat="47.511528" lon="11.093415">
<ele>662.694</ele>
<time>2020-09-11T15:37:50Z</time>
</trkpt>
<trkpt lat="47.511497" lon="11.093383">
<ele>662.694</ele>
<time>2020-09-11T15:37:51Z</time>
</trkpt>
<trkpt lat="47.511478" lon="11.093351">
<ele>662.694</ele>
<time>2020-09-11T15:37:52Z</time>
</trkpt>
<trkpt lat="47.511456" lon="11.093315">
<ele>662.694</ele>
<time>2020-09-11T15:37:53Z</time>
</trkpt>
<trkpt lat="47.511433" lon="11.09328">
<ele>662.694</ele>
<time>2020-09-11T15:37:54Z</time>
</trkpt>
<trkpt lat="47.511414" lon="11.093248">
<ele>662.694</ele>
<time>2020-09-11T15:37:55Z</time>
</trkpt>
<trkpt lat="47.511398" lon="11.093222">
<ele>662.694</ele>
<time>2020-09-11T15:37:56Z</time>
</trkpt>
<trkpt lat="47.511383" lon="11.093195">
<ele>662.959</ele>
<time>2020-09-11T15:37:57Z</time>
</trkpt>
<trkpt lat="47.51136" lon="11.093173">
<ele>663.179</ele>
<time>2020-09-11T15:37:58Z</time>
</trkpt>
<trkpt lat="47.511337" lon="11.093155">
<ele>663.358</ele>
<time>2020-09-11T15:37:59Z</time>
</trkpt>
<trkpt lat="47.511314" lon="11.093138">
<ele>663.482</ele>
<time>2020-09-11T15:38:00Z</time>
</trkpt>
<trkpt lat="47.511295" lon="11.093117">
<ele>663.569</ele>
<time>2020-09-11T15:38:01Z</time>
</trkpt>
<trkpt lat="47.511272" lon="11.093092">
<ele>663.63</ele>
<time>2020-09-11T15:38:02Z</time>
</trkpt>
<trkpt lat="47.51125" lon="11.093064">
<ele>663.66</ele>
<time>2020-09-11T15:38:03Z</time>
</trkpt>
<trkpt lat="47.511227" lon="11.09304">
<ele>663.668</ele>
<time>2020-09-11T15:38:04Z</time>
</trkpt>
<trkpt lat="47.511204" lon="11.093019">
<ele>663.668</ele>
<time>2020-09-11T15:38:05Z</time>
</trkpt>
<trkpt lat="47.511169" lon="11.092999">
<ele>663.668</ele>
<time>2020-09-11T15:38:06Z</time>
</trkpt>
<trkpt lat="47.511131" lon="11.09299">
<ele>663.668</ele>
<time>2020-09-11T15:38:07Z</time>
</trkpt>
<trkpt lat="47.511093" lon="11.092982">
<ele>663.668</ele>
<time>2020-09-11T15:38:08Z</time>
</trkpt>
<trkpt lat="47.511055" lon="11.092972">
<ele>663.668</ele>
<time>2020-09-11T15:38:09Z</time>
</trkpt>
<trkpt lat="47.511017" lon="11.092965">
<ele>663.668</ele>
<time>2020-09-11T15:38:10Z</time>
</trkpt>
<trkpt lat="47.510983" lon="11.092963">
<ele>663.668</ele>
<time>2020-09-11T15:38:11Z</time>
</trkpt>
<trkpt lat="47.510952" lon="11.092965">
<ele>663.668</ele>
<time>2020-09-11T15:38:12Z</time>
</trkpt>
<trkpt lat="47.510918" lon="11.092968">
<ele>663.668</ele>
<time>2020-09-11T15:38:13Z</time>
</trkpt>
<trkpt lat="47.510887" lon="11.09297">
<ele>663.668</ele>
<time>2020-09-11T15:38:14Z</time>
</trkpt>
<trkpt lat="47.510849" lon="11.092972">
<ele>663.668</ele>
<time>2020-09-11T15:38:15Z</time>
</trkpt>
<trkpt lat="47.510815" lon="11.09297">
<ele>663.668</ele>
<time>2020-09-11T15:38:16Z</time>
</trkpt>
<trkpt lat="47.51078" lon="11.092965">
<ele>663.668</ele>
<time>2020-09-11T15:38:17Z</time>
</trkpt>
<trkpt lat="47.51075" lon="11.092961">
<ele>663.668</ele>
<time>2020-09-11T15:38:18Z</time>
</trkpt>
<trkpt lat="47.510719" lon="11.092959">
<ele>663.668</ele>
<time>2020-09-11T15:38:19Z</time>
</trkpt>
<trkpt lat="47.510689" lon="11.092952">
<ele>663.668</ele>
<time>2020-09-11T15:38:20Z</time>
</trkpt>
<trkpt lat="47.510651" lon="11.092942">
<ele>663.668</ele>
<time>2020-09-11T15:38:21Z</time>
</trkpt>
<trkpt lat="47.510612" lon="11.092923">
<ele>663.9</ele>
<time>2020-09-11T15:38:22Z</time>
</trkpt>
<trkpt lat="47.510571" lon="11.092896">
<ele>664.084</ele>
<time>2020-09-11T15:38:23Z</time>
</trkpt>
<trkpt lat="47.510532" lon="11.092869">
<ele>664.229</ele>
<time>2020-09-11T15:38:24Z</time>
</trkpt>
<trkpt lat="47.510487" lon="11.09284">
<ele>664.324</ele>
<time>2020-09-11T15:38:25Z</time>
</trkpt>
<trkpt lat="47.510448" lon="11.092811">
<ele>664.431</ele>
<time>2020-09-11T15:38:26Z</time>
</trkpt>
<trkpt lat="47.51041" lon="11.092779">
<ele>664.5</ele>
<time>2020-09-11T15:38:27Z</time>
</trkpt>
<trkpt lat="47.510368" lon="11.092752">
<ele>664.537</ele>
<time>2020-09-11T15:38:28Z</time>
</trkpt>
<trkpt lat="47.51033" lon="11.092727">
<ele>664.554</ele>
<time>2020-09-11T15:38:29Z</time>
</trkpt>
<trkpt lat="47.510296" lon="11.092702">
<ele>664.554</ele>
<time>2020-09-11T15:38:30Z</time>
</trkpt>
<trkpt lat="47.510265" lon="11.092676">
<ele>664.554</ele>
<time>2020-09-11T15:38:31Z</time>
</trkpt>
<trkpt lat="47.510231" lon="11.092649">
<ele>664.554</ele>
<time>2020-09-11T15:38:32Z</time>
</trkpt>
<trkpt lat="47.510201" lon="11.092618">
<ele>664.554</ele>
<time>2020-09-11T15:38:33Z</time>
</trkpt>
<trkpt lat="47.510178" lon="11.092585">
<ele>664.554</ele>
<time>2020-09-11T15:38:34Z</time>
</trkpt>
<trkpt lat="47.510151" lon="11.092548">
<ele>664.554</ele>
<time>2020-09-11T15:38:35Z</time>
</trkpt>
<trkpt lat="47.510132" lon="11.09251">
<ele>664.78</ele>
<time>2020-09-11T15:38:36Z</time>
</trkpt>
<trkpt lat="47.510124" lon="11.092466">
<ele>664.977</ele>
<time>2020-09-11T15:38:37Z</time>
</trkpt>
<trkpt lat="47.510113" lon="11.092417">
<ele>665.143</ele>
<time>2020-09-11T15:38:38Z</time>
</trkpt>
<trkpt lat="47.510113" lon="11.09236">
<ele>665.276</ele>
<time>2020-09-11T15:38:39Z</time>
</trkpt>
<trkpt lat="47.510109" lon="11.092295">
<ele>665.381</ele>
<time>2020-09-11T15:38:40Z</time>
</trkpt>
<trkpt lat="47.510105" lon="11.092228">
<ele>665.46</ele>
<time>2020-09-11T15:38:41Z</time>
</trkpt>
<trkpt lat="47.510109" lon="11.092161">
<ele>665.507</ele>
<time>2020-09-11T15:38:42Z</time>
</trkpt>
<trkpt lat="47.510113" lon="11.092092">
<ele>665.529</ele>
<time>2020-09-11T15:38:43Z</time>
</trkpt>
<trkpt lat="47.510113" lon="11.092018">
<ele>665.529</ele>
<time>2020-09-11T15:38:44Z</time>
</trkpt>
<trkpt lat="47.510113" lon="11.091948">
<ele>665.529</ele>
<time>2020-09-11T15:38:45Z</time>
</trkpt>
<trkpt lat="47.510117" lon="11.091887">
<ele>665.529</ele>
<time>2020-09-11T15:38:46Z</time>
</trkpt>
<trkpt lat="47.510117" lon="11.091825">
<ele>665.529</ele>
<time>2020-09-11T15:38:47Z</time>
</trkpt>
<trkpt lat="47.510113" lon="11.091768">
<ele>665.529</ele>
<time>2020-09-11T15:38:48Z</time>
</trkpt>
<trkpt lat="47.510105" lon="11.091712">
<ele>665.529</ele>
<time>2020-09-11T15:38:49Z</time>
</trkpt>
<trkpt lat="47.510094" lon="11.091655">
<ele>665.529</ele>
<time>2020-09-11T15:38:50Z</time>
</trkpt>
<trkpt lat="47.510075" lon="11.091596">
<ele>665.529</ele>
<time>2020-09-11T15:38:51Z</time>
</trkpt>
<trkpt lat="47.510059" lon="11.09153">
<ele>665.283</ele>
<time>2020-09-11T15:38:52Z</time>
</trkpt>
<trkpt lat="47.510033" lon="11.091463">
<ele>665.08</ele>
<time>2020-09-11T15:38:53Z</time>
</trkpt>
<trkpt lat="47.51001" lon="11.091394">
<ele>664.916</ele>
<time>2020-09-11T15:38:54Z</time>
</trkpt>
<trkpt lat="47.509979" lon="11.091327">
<ele>664.813</ele>
<time>2020-09-11T15:38:55Z</time>
</trkpt>
<trkpt lat="47.509941" lon="11.091264">
<ele>664.697</ele>
<time>2020-09-11T15:38:56Z</time>
</trkpt>
<trkpt lat="47.509903" lon="11.091202">
<ele>664.621</ele>
<time>2020-09-11T15:38:57Z</time>
</trkpt>
<trkpt lat="47.509857" lon="11.091142">
<ele>664.575</ele>
<time>2020-09-11T15:38:58Z</time>
</trkpt>
<trkpt lat="47.509811" lon="11.091084">
<ele>664.554</ele>
<time>2020-09-11T15:38:59Z</time>
</trkpt>
<trkpt lat="47.509769" lon="11.091023">
<ele>664.302</ele>
<time>2020-09-11T15:39:00Z</time>
</trkpt>
<trkpt lat="47.509724" lon="11.090967">
<ele>664.113</ele>
<time>2020-09-11T15:39:01Z</time>
</trkpt>
<trkpt lat="47.509678" lon="11.090908">
<ele>663.972</ele>
<time>2020-09-11T15:39:02Z</time>
</trkpt>
<trkpt lat="47.50964" lon="11.090854">
<ele>663.868</ele>
<time>2020-09-11T15:39:03Z</time>
</trkpt>
<trkpt lat="47.509594" lon="11.090799">
<ele>663.796</ele>
<time>2020-09-11T15:39:04Z</time>
</trkpt>
<trkpt lat="47.509552" lon="11.090747">
<ele>663.742</ele>
<time>2020-09-11T15:39:05Z</time>
</trkpt>
<trkpt lat="47.50951" lon="11.090694">
<ele>663.692</ele>
<time>2020-09-11T15:39:06Z</time>
</trkpt>
<trkpt lat="47.509468" lon="11.090645">
<ele>663.668</ele>
<time>2020-09-11T15:39:07Z</time>
</trkpt>
<trkpt lat="47.509426" lon="11.090596">
<ele>663.668</ele>
<time>2020-09-11T15:39:08Z</time>
</trkpt>
<trkpt lat="47.509388" lon="11.090547">
<ele>663.668</ele>
<time>2020-09-11T15:39:09Z</time>
</trkpt>
<trkpt lat="47.50935" lon="11.090495">
<ele>663.668</ele>
<time>2020-09-11T15:39:10Z</time>
</trkpt>
<trkpt lat="47.509315" lon="11.090448">
<ele>663.668</ele>
<time>2020-09-11T15:39:11Z</time>
</trkpt>
<trkpt lat="47.509285" lon="11.0904">
<ele>663.887</ele>
<time>2020-09-11T15:39:12Z</time>
</trkpt>
<trkpt lat="47.509251" lon="11.090355">
<ele>664.062</ele>
<time>2020-09-11T15:39:13Z</time>
</trkpt>
<trkpt lat="47.509228" lon="11.090315">
<ele>664.198</ele>
<time>2020-09-11T15:39:14Z</time>
</trkpt>
<trkpt lat="47.509209" lon="11.090275">
<ele>664.297</ele>
<time>2020-09-11T15:39:15Z</time>
</trkpt>
<trkpt lat="47.50919" lon="11.09024">
<ele>664.399</ele>
<time>2020-09-11T15:39:16Z</time>
</trkpt>
<trkpt lat="47.509167" lon="11.090208">
<ele>664.475</ele>
<time>2020-09-11T15:39:17Z</time>
</trkpt>
<trkpt lat="47.509144" lon="11.090179">
<ele>664.527</ele>
<time>2020-09-11T15:39:18Z</time>
</trkpt>
<trkpt lat="47.509113" lon="11.09015">
<ele>664.555</ele>
<time>2020-09-11T15:39:19Z</time>
</trkpt>
<trkpt lat="47.509087" lon="11.090117">
<ele>664.554</ele>
<time>2020-09-11T15:39:20Z</time>
</trkpt>
<trkpt lat="47.509052" lon="11.090081">
<ele>664.554</ele>
<time>2020-09-11T15:39:21Z</time>
</trkpt>
<trkpt lat="47.50901" lon="11.090041">
<ele>664.554</ele>
<time>2020-09-11T15:39:22Z</time>
</trkpt>
<trkpt lat="47.508972" lon="11.09">
<ele>664.554</ele>
<time>2020-09-11T15:39:23Z</time>
</trkpt>
<trkpt lat="47.50893" lon="11.089959">
<ele>664.554</ele>
<time>2020-09-11T15:39:24Z</time>
</trkpt>
<trkpt lat="47.508892" lon="11.089924">
<ele>664.554</ele>
<time>2020-09-11T15:39:25Z</time>
</trkpt>
<trkpt lat="47.508858" lon="11.089893">
<ele>664.554</ele>
<time>2020-09-11T15:39:26Z</time>
</trkpt>
<trkpt lat="47.508827" lon="11.089862">
<ele>664.883</ele>
<time>2020-09-11T15:39:27Z</time>
</trkpt>
<trkpt lat="47.508797" lon="11.089831">
<ele>665.124</ele>
<time>2020-09-11T15:39:28Z</time>
</trkpt>
<trkpt lat="47.508762" lon="11.089798">
<ele>665.289</ele>
<time>2020-09-11T15:39:29Z</time>
</trkpt>
<trkpt lat="47.508736" lon="11.08976">
<ele>665.42</ele>
<time>2020-09-11T15:39:30Z</time>
</trkpt>
<trkpt lat="47.508705" lon="11.089722">
<ele>665.523</ele>
<time>2020-09-11T15:39:31Z</time>
</trkpt>
<trkpt lat="47.508671" lon="11.089688">
<ele>665.581</ele>
<time>2020-09-11T15:39:32Z</time>
</trkpt>
<trkpt lat="47.508636" lon="11.089653">
<ele>665.612</ele>
<time>2020-09-11T15:39:33Z</time>
</trkpt>
<trkpt lat="47.50861" lon="11.089618">
<ele>665.618</ele>
<time>2020-09-11T15:39:34Z</time>
</trkpt>
<trkpt lat="47.508579" lon="11.08958">
<ele>665.618</ele>
<time>2020-09-11T15:39:35Z</time>
</trkpt>
<trkpt lat="47.508556" lon="11.089543">
<ele>665.618</ele>
<time>2020-09-11T15:39:36Z</time>
</trkpt>
<trkpt lat="47.508522" lon="11.089508">
<ele>665.618</ele>
<time>2020-09-11T15:39:37Z</time>
</trkpt>
<trkpt lat="47.508488" lon="11.089478">
<ele>665.618</ele>
<time>2020-09-11T15:39:38Z</time>
</trkpt>
<trkpt lat="47.50845" lon="11.089443">
<ele>665.618</ele>
<time>2020-09-11T15:39:39Z</time>
</trkpt>
<trkpt lat="47.508408" lon="11.089405">
<ele>665.618</ele>
<time>2020-09-11T15:39:40Z</time>
</trkpt>
<trkpt lat="47.508366" lon="11.089368">
<ele>665.618</ele>
<time>2020-09-11T15:39:41Z</time>
</trkpt>
<trkpt lat="47.508324" lon="11.089332">
<ele>665.618</ele>
<time>2020-09-11T15:39:42Z</time>
</trkpt>
<trkpt lat="47.50827" lon="11.089292">
<ele>665.618</ele>
<time>2020-09-11T15:39:43Z</time>
</trkpt>
<trkpt lat="47.508224" lon="11.089247">
<ele>665.618</ele>
<time>2020-09-11T15:39:44Z</time>
</trkpt>
<trkpt lat="47.508179" lon="11.089198">
<ele>665.618</ele>
<time>2020-09-11T15:39:45Z</time>
</trkpt>
<trkpt lat="47.508133" lon="11.089153">
<ele>665.618</ele>
<time>2020-09-11T15:39:46Z</time>
</trkpt>
<trkpt lat="47.50808" lon="11.08911">
<ele>665.618</ele>
<time>2020-09-11T15:39:47Z</time>
</trkpt>
<trkpt lat="47.508022" lon="11.08907">
<ele>665.618</ele>
<time>2020-09-11T15:39:48Z</time>
</trkpt>
<trkpt lat="47.507969" lon="11.089026">
<ele>665.618</ele>
<time>2020-09-11T15:39:49Z</time>
</trkpt>
<trkpt lat="47.507912" lon="11.088984">
<ele>665.618</ele>
<time>2020-09-11T15:39:50Z</time>
</trkpt>
<trkpt lat="47.507866" lon="11.088941">
<ele>665.618</ele>
<time>2020-09-11T15:39:51Z</time>
</trkpt>
<trkpt lat="47.507824" lon="11.088897">
<ele>665.618</ele>
<time>2020-09-11T15:39:52Z</time>
</trkpt>
<trkpt lat="47.507778" lon="11.088853">
<ele>665.618</ele>
<time>2020-09-11T15:39:53Z</time>
</trkpt>
<trkpt lat="47.507729" lon="11.088809">
<ele>665.618</ele>
<time>2020-09-11T15:39:54Z</time>
</trkpt>
<trkpt lat="47.507683" lon="11.088761">
<ele>665.618</ele>
<time>2020-09-11T15:39:55Z</time>
</trkpt>
<trkpt lat="47.507629" lon="11.088715">
<ele>665.618</ele>
<time>2020-09-11T15:39:56Z</time>
</trkpt>
<trkpt lat="47.50758" lon="11.088672">
<ele>665.618</ele>
<time>2020-09-11T15:39:57Z</time>
</trkpt>
<trkpt lat="47.50753" lon="11.088629">
<ele>665.903</ele>
<time>2020-09-11T15:39:58Z</time>
</trkpt>
<trkpt lat="47.507473" lon="11.088585">
<ele>666.127</ele>
<time>2020-09-11T15:39:59Z</time>
</trkpt>
<trkpt lat="47.50742" lon="11.088541">
<ele>666.294</ele>
<time>2020-09-11T15:40:00Z</time>
</trkpt>
<trkpt lat="47.507359" lon="11.088497">
<ele>666.412</ele>
<time>2020-09-11T15:40:01Z</time>
</trkpt>
<trkpt lat="47.507301" lon="11.08845">
<ele>666.492</ele>
<time>2020-09-11T15:40:02Z</time>
</trkpt>
<trkpt lat="47.507248" lon="11.088411">
<ele>666.543</ele>
<time>2020-09-11T15:40:03Z</time>
</trkpt>
<trkpt lat="47.507195" lon="11.088377">
<ele>666.57</ele>
<time>2020-09-11T15:40:04Z</time>
</trkpt>
<trkpt lat="47.507137" lon="11.088346">
<ele>666.592</ele>
<time>2020-09-11T15:40:05Z</time>
</trkpt>
<trkpt lat="47.507088" lon="11.088312">
<ele>666.592</ele>
<time>2020-09-11T15:40:06Z</time>
</trkpt>
<trkpt lat="47.50703" lon="11.088281">
<ele>666.592</ele>
<time>2020-09-11T15:40:07Z</time>
</trkpt>
<trkpt lat="47.506973" lon="11.08825">
<ele>666.592</ele>
<time>2020-09-11T15:40:08Z</time>
</trkpt>
<trkpt lat="47.50692" lon="11.088222">
<ele>666.592</ele>
<time>2020-09-11T15:40:09Z</time>
</trkpt>
<trkpt lat="47.506863" lon="11.088195">
<ele>666.592</ele>
<time>2020-09-11T15:40:10Z</time>
</trkpt>
<trkpt lat="47.506805" lon="11.08817">
<ele>666.593</ele>
<time>2020-09-11T15:40:11Z</time>
</trkpt>
<trkpt lat="47.506748" lon="11.088145">
<ele>666.592</ele>
<time>2020-09-11T15:40:12Z</time>
</trkpt>
<trkpt lat="47.506691" lon="11.08812">
<ele>666.592</ele>
<time>2020-09-11T15:40:13Z</time>
</trkpt>
<trkpt lat="47.506638" lon="11.088097">
<ele>666.592</ele>
<time>2020-09-11T15:40:14Z</time>
</trkpt>
<trkpt lat="47.506577" lon="11.088079">
<ele>666.592</ele>
<time>2020-09-11T15:40:15Z</time>
</trkpt>
<trkpt lat="47.506523" lon="11.088063">
<ele>666.592</ele>
<time>2020-09-11T15:40:16Z</time>
</trkpt>
<trkpt lat="47.506466" lon="11.088046">
<ele>666.592</ele>
<time>2020-09-11T15:40:17Z</time>
</trkpt>
<trkpt lat="47.506409" lon="11.088032">
<ele>666.592</ele>
<time>2020-09-11T15:40:18Z</time>
</trkpt>
<trkpt lat="47.506348" lon="11.088017">
<ele>666.592</ele>
<time>2020-09-11T15:40:19Z</time>
</trkpt>
<trkpt lat="47.50629" lon="11.088002">
<ele>666.593</ele>
<time>2020-09-11T15:40:20Z</time>
</trkpt>
<trkpt lat="47.506229" lon="11.08799">
<ele>666.592</ele>
<time>2020-09-11T15:40:21Z</time>
</trkpt>
<trkpt lat="47.506168" lon="11.087979">
<ele>666.592</ele>
<time>2020-09-11T15:40:22Z</time>
</trkpt>
<trkpt lat="47.506107" lon="11.087969">
<ele>666.592</ele>
<time>2020-09-11T15:40:23Z</time>
</trkpt>
<trkpt lat="47.506046" lon="11.087956">
<ele>666.592</ele>
<time>2020-09-11T15:40:24Z</time>
</trkpt>
<trkpt lat="47.505985" lon="11.08795">
<ele>666.592</ele>
<time>2020-09-11T15:40:25Z</time>
</trkpt>
<trkpt lat="47.505924" lon="11.087945">
<ele>666.592</ele>
<time>2020-09-11T15:40:26Z</time>
</trkpt>
<trkpt lat="47.505859" lon="11.087935">
<ele>666.888</ele>
<time>2020-09-11T15:40:27Z</time>
</trkpt>
<trkpt lat="47.505798" lon="11.087925">
<ele>667.112</ele>
<time>2020-09-11T15:40:28Z</time>
</trkpt>
<trkpt lat="47.505733" lon="11.08792">
<ele>667.28</ele>
<time>2020-09-11T15:40:29Z</time>
</trkpt>
<trkpt lat="47.505676" lon="11.087908">
<ele>667.403</ele>
<time>2020-09-11T15:40:30Z</time>
</trkpt>
<trkpt lat="47.505615" lon="11.087898">
<ele>667.488</ele>
<time>2020-09-11T15:40:31Z</time>
</trkpt>
<trkpt lat="47.505554" lon="11.087887">
<ele>667.543</ele>
<time>2020-09-11T15:40:32Z</time>
</trkpt>
<trkpt lat="47.505493" lon="11.087878">
<ele>667.564</ele>
<time>2020-09-11T15:40:33Z</time>
</trkpt>
<trkpt lat="47.505432" lon="11.087871">
<ele>667.567</ele>
<time>2020-09-11T15:40:34Z</time>
</trkpt>
<trkpt lat="47.505371" lon="11.087864">
<ele>667.567</ele>
<time>2020-09-11T15:40:35Z</time>
</trkpt>
<trkpt lat="47.505306" lon="11.087855">
<ele>667.567</ele>
<time>2020-09-11T15:40:36Z</time>
</trkpt>
<trkpt lat="47.505245" lon="11.087845">
<ele>667.567</ele>
<time>2020-09-11T15:40:37Z</time>
</trkpt>
<trkpt lat="47.505188" lon="11.087836">
<ele>667.567</ele>
<time>2020-09-11T15:40:38Z</time>
</trkpt>
<trkpt lat="47.505123" lon="11.087829">
<ele>667.567</ele>
<time>2020-09-11T15:40:39Z</time>
</trkpt>
<trkpt lat="47.505066" lon="11.087818">
<ele>667.567</ele>
<time>2020-09-11T15:40:40Z</time>
</trkpt>
<trkpt lat="47.505005" lon="11.087811">
<ele>667.567</ele>
<time>2020-09-11T15:40:41Z</time>
</trkpt>
<trkpt lat="47.504948" lon="11.087803">
<ele>667.567</ele>
<time>2020-09-11T15:40:42Z</time>
</trkpt>
<trkpt lat="47.50489" lon="11.087793">
<ele>667.567</ele>
<time>2020-09-11T15:40:43Z</time>
</trkpt>
<trkpt lat="47.504833" lon="11.087789">
<ele>667.567</ele>
<time>2020-09-11T15:40:44Z</time>
</trkpt>
<trkpt lat="47.504772" lon="11.087783">
<ele>667.567</ele>
<time>2020-09-11T15:40:45Z</time>
</trkpt>
<trkpt lat="47.504715" lon="11.087771">
<ele>667.567</ele>
<time>2020-09-11T15:40:46Z</time>
</trkpt>
<trkpt lat="47.504654" lon="11.087766">
<ele>667.567</ele>
<time>2020-09-11T15:40:47Z</time>
</trkpt>
<trkpt lat="47.504597" lon="11.087759">
<ele>667.567</ele>
<time>2020-09-11T15:40:48Z</time>
</trkpt>
<trkpt lat="47.504536" lon="11.087751">
<ele>667.567</ele>
<time>2020-09-11T15:40:49Z</time>
</trkpt>
<trkpt lat="47.504475" lon="11.087742">
<ele>667.567</ele>
<time>2020-09-11T15:40:50Z</time>
</trkpt>
<trkpt lat="47.504414" lon="11.087736">
<ele>667.567</ele>
<time>2020-09-11T15:40:51Z</time>
</trkpt>
<trkpt lat="47.504356" lon="11.087727">
<ele>667.567</ele>
<time>2020-09-11T15:40:52Z</time>
</trkpt>
<trkpt lat="47.504295" lon="11.087724">
<ele>667.567</ele>
<time>2020-09-11T15:40:53Z</time>
</trkpt>
<trkpt lat="47.504234" lon="11.087718">
<ele>667.567</ele>
<time>2020-09-11T15:40:54Z</time>
</trkpt>
<trkpt lat="47.504177" lon="11.087711">
<ele>667.567</ele>
<time>2020-09-11T15:40:55Z</time>
</trkpt>
<trkpt lat="47.504116" lon="11.087705">
<ele>667.567</ele>
<time>2020-09-11T15:40:56Z</time>
</trkpt>
<trkpt lat="47.504059" lon="11.087702">
<ele>667.567</ele>
<time>2020-09-11T15:40:57Z</time>
</trkpt>
<trkpt lat="47.503998" lon="11.087693">
<ele>667.567</ele>
<time>2020-09-11T15:40:58Z</time>
</trkpt>
<trkpt lat="47.503937" lon="11.087687">
<ele>667.567</ele>
<time>2020-09-11T15:40:59Z</time>
</trkpt>
<trkpt lat="47.503876" lon="11.087686">
<ele>667.809</ele>
<time>2020-09-11T15:41:00Z</time>
</trkpt>
<trkpt lat="47.503815" lon="11.087682">
<ele>668</ele>
<time>2020-09-11T15:41:01Z</time>
</trkpt>
<trkpt lat="47.503757" lon="11.087671">
<ele>668.142</ele>
<time>2020-09-11T15:41:02Z</time>
</trkpt>
<trkpt lat="47.503696" lon="11.087661">
<ele>668.248</ele>
<time>2020-09-11T15:41:03Z</time>
</trkpt>
<trkpt lat="47.503635" lon="11.087653">
<ele>668.325</ele>
<time>2020-09-11T15:41:04Z</time>
</trkpt>
<trkpt lat="47.503578" lon="11.087644">
<ele>668.381</ele>
<time>2020-09-11T15:41:05Z</time>
</trkpt>
<trkpt lat="47.503513" lon="11.087633">
<ele>668.429</ele>
<time>2020-09-11T15:41:06Z</time>
</trkpt>
<trkpt lat="47.503448" lon="11.087628">
<ele>668.454</ele>
<time>2020-09-11T15:41:07Z</time>
</trkpt>
<trkpt lat="47.503391" lon="11.087622">
<ele>668.454</ele>
<time>2020-09-11T15:41:08Z</time>
</trkpt>
<trkpt lat="47.50333" lon="11.087613">
<ele>668.454</ele>
<time>2020-09-11T15:41:09Z</time>
</trkpt>
<trkpt lat="47.503273" lon="11.087608">
<ele>668.454</ele>
<time>2020-09-11T15:41:10Z</time>
</trkpt>
<trkpt lat="47.503212" lon="11.087602">
<ele>668.454</ele>
<time>2020-09-11T15:41:11Z</time>
</trkpt>
<trkpt lat="47.503155" lon="11.087596">
<ele>668.454</ele>
<time>2020-09-11T15:41:12Z</time>
</trkpt>
<trkpt lat="47.503094" lon="11.087592">
<ele>668.697</ele>
<time>2020-09-11T15:41:13Z</time>
</trkpt>
<trkpt lat="47.503033" lon="11.087582">
<ele>668.887</ele>
<time>2020-09-11T15:41:14Z</time>
</trkpt>
<trkpt lat="47.502975" lon="11.087571">
<ele>669.021</ele>
<time>2020-09-11T15:41:15Z</time>
</trkpt>
<trkpt lat="47.502914" lon="11.087564">
<ele>669.165</ele>
<time>2020-09-11T15:41:16Z</time>
</trkpt>
<trkpt lat="47.502857" lon="11.087558">
<ele>669.273</ele>
<time>2020-09-11T15:41:17Z</time>
</trkpt>
<trkpt lat="47.502796" lon="11.087548">
<ele>669.353</ele>
<time>2020-09-11T15:41:18Z</time>
</trkpt>
<trkpt lat="47.502739" lon="11.087537">
<ele>669.404</ele>
<time>2020-09-11T15:41:19Z</time>
</trkpt>
<trkpt lat="47.502682" lon="11.08753">
<ele>669.429</ele>
<time>2020-09-11T15:41:20Z</time>
</trkpt>
<trkpt lat="47.502617" lon="11.087528">
<ele>669.429</ele>
<time>2020-09-11T15:41:21Z</time>
</trkpt>
<trkpt lat="47.502556" lon="11.087523">
<ele>669.429</ele>
<time>2020-09-11T15:41:22Z</time>
</trkpt>
<trkpt lat="47.502502" lon="11.087514">
<ele>669.429</ele>
<time>2020-09-11T15:41:23Z</time>
</trkpt>
<trkpt lat="47.502445" lon="11.087503">
<ele>669.429</ele>
<time>2020-09-11T15:41:24Z</time>
</trkpt>
<trkpt lat="47.502392" lon="11.087495">
<ele>669.429</ele>
<time>2020-09-11T15:41:25Z</time>
</trkpt>
<trkpt lat="47.502335" lon="11.087481">
<ele>669.429</ele>
<time>2020-09-11T15:41:26Z</time>
</trkpt>
<trkpt lat="47.502274" lon="11.087474">
<ele>669.429</ele>
<time>2020-09-11T15:41:27Z</time>
</trkpt>
<trkpt lat="47.502209" lon="11.087465">
<ele>669.429</ele>
<time>2020-09-11T15:41:28Z</time>
</trkpt>
<trkpt lat="47.502148" lon="11.087455">
<ele>669.429</ele>
<time>2020-09-11T15:41:29Z</time>
</trkpt>
<trkpt lat="47.502094" lon="11.087443">
<ele>669.429</ele>
<time>2020-09-11T15:41:30Z</time>
</trkpt>
<trkpt lat="47.502037" lon="11.087433">
<ele>669.429</ele>
<time>2020-09-11T15:41:31Z</time>
</trkpt>
<trkpt lat="47.50198" lon="11.087421">
<ele>669.429</ele>
<time>2020-09-11T15:41:32Z</time>
</trkpt>
<trkpt lat="47.501919" lon="11.087416">
<ele>669.429</ele>
<time>2020-09-11T15:41:33Z</time>
</trkpt>
<trkpt lat="47.501854" lon="11.087403">
<ele>669.429</ele>
<time>2020-09-11T15:41:34Z</time>
</trkpt>
<trkpt lat="47.501793" lon="11.087395">
<ele>669.429</ele>
<time>2020-09-11T15:41:35Z</time>
</trkpt>
<trkpt lat="47.501732" lon="11.087386">
<ele>669.429</ele>
<time>2020-09-11T15:41:36Z</time>
</trkpt>
<trkpt lat="47.501675" lon="11.087377">
<ele>669.429</ele>
<time>2020-09-11T15:41:37Z</time>
</trkpt>
<trkpt lat="47.50161" lon="11.087365">
<ele>669.429</ele>
<time>2020-09-11T15:41:38Z</time>
</trkpt>
<trkpt lat="47.501553" lon="11.087355">
<ele>669.429</ele>
<time>2020-09-11T15:41:39Z</time>
</trkpt>
<trkpt lat="47.501492" lon="11.087343">
<ele>669.695</ele>
<time>2020-09-11T15:41:40Z</time>
</trkpt>
<trkpt lat="47.501431" lon="11.087332">
<ele>669.901</ele>
<time>2020-09-11T15:41:41Z</time>
</trkpt>
<trkpt lat="47.501373" lon="11.087321">
<ele>670.058</ele>
<time>2020-09-11T15:41:42Z</time>
</trkpt>
<trkpt lat="47.501316" lon="11.087311">
<ele>670.177</ele>
<time>2020-09-11T15:41:43Z</time>
</trkpt>
<trkpt lat="47.501259" lon="11.087295">
<ele>670.26</ele>
<time>2020-09-11T15:41:44Z</time>
</trkpt>
<trkpt lat="47.501198" lon="11.087281">
<ele>670.321</ele>
<time>2020-09-11T15:41:45Z</time>
</trkpt>
<trkpt lat="47.501141" lon="11.08727">
<ele>670.376</ele>
<time>2020-09-11T15:41:46Z</time>
</trkpt>
<trkpt lat="47.50108" lon="11.08726">
<ele>670.404</ele>
<time>2020-09-11T15:41:47Z</time>
</trkpt>
<trkpt lat="47.501022" lon="11.08725">
<ele>670.404</ele>
<time>2020-09-11T15:41:48Z</time>
</trkpt>
<trkpt lat="47.500957" lon="11.087238">
<ele>670.404</ele>
<time>2020-09-11T15:41:49Z</time>
</trkpt>
<trkpt lat="47.500896" lon="11.087227">
<ele>670.404</ele>
<time>2020-09-11T15:41:50Z</time>
</trkpt>
<trkpt lat="47.500839" lon="11.087218">
<ele>670.404</ele>
<time>2020-09-11T15:41:51Z</time>
</trkpt>
<trkpt lat="47.500774" lon="11.087212">
<ele>670.404</ele>
<time>2020-09-11T15:41:52Z</time>
</trkpt>
<trkpt lat="47.500713" lon="11.087207">
<ele>670.404</ele>
<time>2020-09-11T15:41:53Z</time>
</trkpt>
<trkpt lat="47.500652" lon="11.087202">
<ele>670.404</ele>
<time>2020-09-11T15:41:54Z</time>
</trkpt>
<trkpt lat="47.500591" lon="11.0872">
<ele>670.404</ele>
<time>2020-09-11T15:41:55Z</time>
</trkpt>
<trkpt lat="47.50053" lon="11.087202">
<ele>670.404</ele>
<time>2020-09-11T15:41:56Z</time>
</trkpt>
<trkpt lat="47.500469" lon="11.087205">
<ele>670.404</ele>
<time>2020-09-11T15:41:57Z</time>
</trkpt>
<trkpt lat="47.500408" lon="11.087212">
<ele>670.404</ele>
<time>2020-09-11T15:41:58Z</time>
</trkpt>
<trkpt lat="47.500347" lon="11.087218">
<ele>670.404</ele>
<time>2020-09-11T15:41:59Z</time>
</trkpt>
<trkpt lat="47.500286" lon="11.087227">
<ele>670.404</ele>
<time>2020-09-11T15:42:00Z</time>
</trkpt>
<trkpt lat="47.500225" lon="11.087237">
<ele>670.404</ele>
<time>2020-09-11T15:42:01Z</time>
</trkpt>
<trkpt lat="47.500164" lon="11.087248">
<ele>670.404</ele>
<time>2020-09-11T15:42:02Z</time>
</trkpt>
<trkpt lat="47.500107" lon="11.087261">
<ele>670.404</ele>
<time>2020-09-11T15:42:03Z</time>
</trkpt>
<trkpt lat="47.500042" lon="11.087278">
<ele>670.404</ele>
<time>2020-09-11T15:42:04Z</time>
</trkpt>
<trkpt lat="47.499985" lon="11.087296">
<ele>670.404</ele>
<time>2020-09-11T15:42:05Z</time>
</trkpt>
<trkpt lat="47.499924" lon="11.087315">
<ele>670.404</ele>
<time>2020-09-11T15:42:06Z</time>
</trkpt>
<trkpt lat="47.499859" lon="11.087335">
<ele>670.404</ele>
<time>2020-09-11T15:42:07Z</time>
</trkpt>
<trkpt lat="47.499802" lon="11.087351">
<ele>670.688</ele>
<time>2020-09-11T15:42:08Z</time>
</trkpt>
<trkpt lat="47.499744" lon="11.087372">
<ele>670.904</ele>
<time>2020-09-11T15:42:09Z</time>
</trkpt>
<trkpt lat="47.499687" lon="11.087393">
<ele>671.073</ele>
<time>2020-09-11T15:42:10Z</time>
</trkpt>
<trkpt lat="47.49963" lon="11.087407">
<ele>671.195</ele>
<time>2020-09-11T15:42:11Z</time>
</trkpt>
<trkpt lat="47.499569" lon="11.087428">
<ele>671.275</ele>
<time>2020-09-11T15:42:12Z</time>
</trkpt>
<trkpt lat="47.499512" lon="11.087449">
<ele>671.328</ele>
<time>2020-09-11T15:42:13Z</time>
</trkpt>
<trkpt lat="47.499454" lon="11.08747">
<ele>671.356</ele>
<time>2020-09-11T15:42:14Z</time>
</trkpt>
<trkpt lat="47.499397" lon="11.08749">
<ele>671.379</ele>
<time>2020-09-11T15:42:15Z</time>
</trkpt>
<trkpt lat="47.49934" lon="11.087515">
<ele>671.379</ele>
<time>2020-09-11T15:42:16Z</time>
</trkpt>
<trkpt lat="47.499283" lon="11.08754">
<ele>671.379</ele>
<time>2020-09-11T15:42:17Z</time>
</trkpt>
<trkpt lat="47.499226" lon="11.087564">
<ele>671.379</ele>
<time>2020-09-11T15:42:18Z</time>
</trkpt>
<trkpt lat="47.499168" lon="11.087593">
<ele>671.379</ele>
<time>2020-09-11T15:42:19Z</time>
</trkpt>
<trkpt lat="47.499111" lon="11.087622">
<ele>671.379</ele>
<time>2020-09-11T15:42:20Z</time>
</trkpt>
<trkpt lat="47.499046" lon="11.087646">
<ele>671.379</ele>
<time>2020-09-11T15:42:21Z</time>
</trkpt>
<trkpt lat="47.498989" lon="11.087673">
<ele>671.379</ele>
<time>2020-09-11T15:42:22Z</time>
</trkpt>
<trkpt lat="47.498932" lon="11.087702">
<ele>671.379</ele>
<time>2020-09-11T15:42:23Z</time>
</trkpt>
<trkpt lat="47.498875" lon="11.08773">
<ele>671.379</ele>
<time>2020-09-11T15:42:24Z</time>
</trkpt>
<trkpt lat="47.498817" lon="11.087757">
<ele>671.379</ele>
<time>2020-09-11T15:42:25Z</time>
</trkpt>
<trkpt lat="47.49876" lon="11.087782">
<ele>671.379</ele>
<time>2020-09-11T15:42:26Z</time>
</trkpt>
<trkpt lat="47.498703" lon="11.087807">
<ele>671.379</ele>
<time>2020-09-11T15:42:27Z</time>
</trkpt>
<trkpt lat="47.49865" lon="11.087831">
<ele>671.379</ele>
<time>2020-09-11T15:42:28Z</time>
</trkpt>
<trkpt lat="47.498592" lon="11.087852">
<ele>671.379</ele>
<time>2020-09-11T15:42:29Z</time>
</trkpt>
<trkpt lat="47.498543" lon="11.087876">
<ele>671.379</ele>
<time>2020-09-11T15:42:30Z</time>
</trkpt>
<trkpt lat="47.498493" lon="11.087898">
<ele>671.379</ele>
<time>2020-09-11T15:42:31Z</time>
</trkpt>
<trkpt lat="47.498455" lon="11.087916">
<ele>671.379</ele>
<time>2020-09-11T15:42:32Z</time>
</trkpt>
<trkpt lat="47.498417" lon="11.087935">
<ele>671.379</ele>
<time>2020-09-11T15:42:33Z</time>
</trkpt>
<trkpt lat="47.498383" lon="11.087948">
<ele>671.379</ele>
<time>2020-09-11T15:42:34Z</time>
</trkpt>
<trkpt lat="47.498356" lon="11.087956">
<ele>671.379</ele>
<time>2020-09-11T15:42:35Z</time>
</trkpt>
<trkpt lat="47.498333" lon="11.087965">
<ele>671.565</ele>
<time>2020-09-11T15:42:36Z</time>
</trkpt>
<trkpt lat="47.498322" lon="11.087969">
<ele>671.724</ele>
<time>2020-09-11T15:42:37Z</time>
</trkpt>
<trkpt lat="47.498306" lon="11.087969">
<ele>671.862</ele>
<time>2020-09-11T15:42:38Z</time>
</trkpt>
<trkpt lat="47.498295" lon="11.087972">
<ele>671.983</ele>
<time>2020-09-11T15:42:39Z</time>
</trkpt>
<trkpt lat="47.49828" lon="11.087976">
<ele>672.089</ele>
<time>2020-09-11T15:42:40Z</time>
</trkpt>
<trkpt lat="47.498257" lon="11.087985">
<ele>672.17</ele>
<time>2020-09-11T15:42:41Z</time>
</trkpt>
<trkpt lat="47.49823" lon="11.088">
<ele>672.234</ele>
<time>2020-09-11T15:42:42Z</time>
</trkpt>
<trkpt lat="47.498199" lon="11.088012">
<ele>672.266</ele>
<time>2020-09-11T15:42:43Z</time>
</trkpt>
<trkpt lat="47.498165" lon="11.088025">
<ele>672.266</ele>
<time>2020-09-11T15:42:44Z</time>
</trkpt>
<trkpt lat="47.498131" lon="11.088037">
<ele>672.266</ele>
<time>2020-09-11T15:42:45Z</time>
</trkpt>
<trkpt lat="47.498096" lon="11.088046">
<ele>672.266</ele>
<time>2020-09-11T15:42:46Z</time>
</trkpt>
<trkpt lat="47.498058" lon="11.08806">
<ele>672.266</ele>
<time>2020-09-11T15:42:47Z</time>
</trkpt>
<trkpt lat="47.49802" lon="11.08807">
<ele>672.266</ele>
<time>2020-09-11T15:42:48Z</time>
</trkpt>
<trkpt lat="47.497982" lon="11.088081">
<ele>672.266</ele>
<time>2020-09-11T15:42:49Z</time>
</trkpt>
<trkpt lat="47.497936" lon="11.088095">
<ele>672.266</ele>
<time>2020-09-11T15:42:50Z</time>
</trkpt>
<trkpt lat="47.49789" lon="11.088112">
<ele>672.266</ele>
<time>2020-09-11T15:42:51Z</time>
</trkpt>
<trkpt lat="47.497845" lon="11.08813">
<ele>672.535</ele>
<time>2020-09-11T15:42:52Z</time>
</trkpt>
<trkpt lat="47.497803" lon="11.088149">
<ele>672.737</ele>
<time>2020-09-11T15:42:53Z</time>
</trkpt>
<trkpt lat="47.497757" lon="11.088158">
<ele>672.887</ele>
<time>2020-09-11T15:42:54Z</time>
</trkpt>
<trkpt lat="47.497707" lon="11.088174">
<ele>672.986</ele>
<time>2020-09-11T15:42:55Z</time>
</trkpt>
<trkpt lat="47.497662" lon="11.088182">
<ele>673.096</ele>
<time>2020-09-11T15:42:56Z</time>
</trkpt>
<trkpt lat="47.497612" lon="11.08819">
<ele>673.169</ele>
<time>2020-09-11T15:42:57Z</time>
</trkpt>
<trkpt lat="47.497574" lon="11.088199">
<ele>673.217</ele>
<time>2020-09-11T15:42:58Z</time>
</trkpt>
<trkpt lat="47.497524" lon="11.088208">
<ele>673.241</ele>
<time>2020-09-11T15:42:59Z</time>
</trkpt>
<trkpt lat="47.497482" lon="11.088217">
<ele>673.241</ele>
<time>2020-09-11T15:43:00Z</time>
</trkpt>
<trkpt lat="47.49744" lon="11.088226">
<ele>673.241</ele>
<time>2020-09-11T15:43:01Z</time>
</trkpt>
<trkpt lat="47.497395" lon="11.088239">
<ele>673.241</ele>
<time>2020-09-11T15:43:02Z</time>
</trkpt>
<trkpt lat="47.497349" lon="11.088248">
<ele>673.241</ele>
<time>2020-09-11T15:43:03Z</time>
</trkpt>
<trkpt lat="47.497299" lon="11.088256">
<ele>673.241</ele>
<time>2020-09-11T15:43:04Z</time>
</trkpt>
<trkpt lat="47.497246" lon="11.088264">
<ele>673.241</ele>
<time>2020-09-11T15:43:05Z</time>
</trkpt>
<trkpt lat="47.497189" lon="11.08827">
<ele>673.241</ele>
<time>2020-09-11T15:43:06Z</time>
</trkpt>
<trkpt lat="47.497131" lon="11.088279">
<ele>673.241</ele>
<time>2020-09-11T15:43:07Z</time>
</trkpt>
<trkpt lat="47.49707" lon="11.088281">
<ele>673.241</ele>
<time>2020-09-11T15:43:08Z</time>
</trkpt>
<trkpt lat="47.497013" lon="11.088277">
<ele>673.241</ele>
<time>2020-09-11T15:43:09Z</time>
</trkpt>
<trkpt lat="47.496956" lon="11.088272">
<ele>673.241</ele>
<time>2020-09-11T15:43:10Z</time>
</trkpt>
<trkpt lat="47.496895" lon="11.088264">
<ele>673.241</ele>
<time>2020-09-11T15:43:11Z</time>
</trkpt>
<trkpt lat="47.496834" lon="11.088248">
<ele>673.241</ele>
<time>2020-09-11T15:43:12Z</time>
</trkpt>
<trkpt lat="47.496784" lon="11.088233">
<ele>673.241</ele>
<time>2020-09-11T15:43:13Z</time>
</trkpt>
<trkpt lat="47.496731" lon="11.088217">
<ele>673.497</ele>
<time>2020-09-11T15:43:14Z</time>
</trkpt>
<trkpt lat="47.496685" lon="11.088199">
<ele>673.679</ele>
<time>2020-09-11T15:43:15Z</time>
</trkpt>
<trkpt lat="47.496635" lon="11.088175">
<ele>673.862</ele>
<time>2020-09-11T15:43:16Z</time>
</trkpt>
<trkpt lat="47.49659" lon="11.08815">
<ele>674.014</ele>
<time>2020-09-11T15:43:17Z</time>
</trkpt>
<trkpt lat="47.496544" lon="11.088125">
<ele>674.13</ele>
<time>2020-09-11T15:43:18Z</time>
</trkpt>
<trkpt lat="47.496502" lon="11.0881">
<ele>674.218</ele>
<time>2020-09-11T15:43:19Z</time>
</trkpt>
<trkpt lat="47.496464" lon="11.088078">
<ele>674.277</ele>
<time>2020-09-11T15:43:20Z</time>
</trkpt>
<trkpt lat="47.496418" lon="11.088053">
<ele>674.305</ele>
<time>2020-09-11T15:43:21Z</time>
</trkpt>
<trkpt lat="47.496376" lon="11.088028">
<ele>674.306</ele>
<time>2020-09-11T15:43:22Z</time>
</trkpt>
<trkpt lat="47.49633" lon="11.088005">
<ele>674.306</ele>
<time>2020-09-11T15:43:23Z</time>
</trkpt>
<trkpt lat="47.496284" lon="11.087979">
<ele>674.306</ele>
<time>2020-09-11T15:43:24Z</time>
</trkpt>
<trkpt lat="47.496243" lon="11.087956">
<ele>674.306</ele>
<time>2020-09-11T15:43:25Z</time>
</trkpt>
<trkpt lat="47.496197" lon="11.087937">
<ele>674.305</ele>
<time>2020-09-11T15:43:26Z</time>
</trkpt>
<trkpt lat="47.496147" lon="11.08792">
<ele>674.306</ele>
<time>2020-09-11T15:43:27Z</time>
</trkpt>
<trkpt lat="47.496105" lon="11.087908">
<ele>674.306</ele>
<time>2020-09-11T15:43:28Z</time>
</trkpt>
<trkpt lat="47.496056" lon="11.087902">
<ele>674.306</ele>
<time>2020-09-11T15:43:29Z</time>
</trkpt>
<trkpt lat="47.496014" lon="11.087893">
<ele>674.306</ele>
<time>2020-09-11T15:43:30Z</time>
</trkpt>
<trkpt lat="47.495975" lon="11.087889">
<ele>674.305</ele>
<time>2020-09-11T15:43:31Z</time>
</trkpt>
<trkpt lat="47.495941" lon="11.087887">
<ele>674.306</ele>
<time>2020-09-11T15:43:32Z</time>
</trkpt>
<trkpt lat="47.495914" lon="11.087887">
<ele>674.305</ele>
<time>2020-09-11T15:43:33Z</time>
</trkpt>
<trkpt lat="47.495884" lon="11.087889">
<ele>674.306</ele>
<time>2020-09-11T15:43:34Z</time>
</trkpt>
<trkpt lat="47.495857" lon="11.087893">
<ele>674.306</ele>
<time>2020-09-11T15:43:35Z</time>
</trkpt>
<trkpt lat="47.495827" lon="11.087906">
<ele>674.306</ele>
<time>2020-09-11T15:43:36Z</time>
</trkpt>
<trkpt lat="47.495804" lon="11.08793">
<ele>674.305</ele>
<time>2020-09-11T15:43:37Z</time>
</trkpt>
<trkpt lat="47.495785" lon="11.087963">
<ele>674.305</ele>
<time>2020-09-11T15:43:38Z</time>
</trkpt>
<trkpt lat="47.495773" lon="11.088005">
<ele>674.306</ele>
<time>2020-09-11T15:43:39Z</time>
</trkpt>
<trkpt lat="47.495773" lon="11.08805">
<ele>674.306</ele>
<time>2020-09-11T15:43:40Z</time>
</trkpt>
<trkpt lat="47.495781" lon="11.088099">
<ele>674.306</ele>
<time>2020-09-11T15:43:41Z</time>
</trkpt>
<trkpt lat="47.495796" lon="11.08814">
<ele>674.306</ele>
<time>2020-09-11T15:43:42Z</time>
</trkpt>
<trkpt lat="47.495819" lon="11.088179">
<ele>674.306</ele>
<time>2020-09-11T15:43:43Z</time>
</trkpt>
<trkpt lat="47.495846" lon="11.088217">
<ele>674.306</ele>
<time>2020-09-11T15:43:44Z</time>
</trkpt>
<trkpt lat="47.495872" lon="11.088256">
<ele>674.306</ele>
<time>2020-09-11T15:43:45Z</time>
</trkpt>
<trkpt lat="47.495899" lon="11.088298">
<ele>674.306</ele>
<time>2020-09-11T15:43:46Z</time>
</trkpt>
<trkpt lat="47.49593" lon="11.088342">
<ele>674.306</ele>
<time>2020-09-11T15:43:47Z</time>
</trkpt>
<trkpt lat="47.495964" lon="11.088388">
<ele>674.305</ele>
<time>2020-09-11T15:43:48Z</time>
</trkpt>
<trkpt lat="47.495998" lon="11.088435">
<ele>674.306</ele>
<time>2020-09-11T15:43:49Z</time>
</trkpt>
<trkpt lat="47.496029" lon="11.08848">
<ele>674.305</ele>
<time>2020-09-11T15:43:50Z</time>
</trkpt>
<trkpt lat="47.496063" lon="11.088527">
<ele>674.306</ele>
<time>2020-09-11T15:43:51Z</time>
</trkpt>
<trkpt lat="47.496098" lon="11.088572">
<ele>674.306</ele>
<time>2020-09-11T15:43:52Z</time>
</trkpt>
<trkpt lat="47.496132" lon="11.088618">
<ele>674.305</ele>
<time>2020-09-11T15:43:53Z</time>
</trkpt>
<trkpt lat="47.49617" lon="11.088665">
<ele>674.305</ele>
<time>2020-09-11T15:43:54Z</time>
</trkpt>
<trkpt lat="47.496204" lon="11.088715">
<ele>674.306</ele>
<time>2020-09-11T15:43:55Z</time>
</trkpt>
<trkpt lat="47.496239" lon="11.088765">
<ele>674.305</ele>
<time>2020-09-11T15:43:56Z</time>
</trkpt>
<trkpt lat="47.496273" lon="11.088811">
<ele>674.306</ele>
<time>2020-09-11T15:43:57Z</time>
</trkpt>
<trkpt lat="47.496307" lon="11.08886">
<ele>674.305</ele>
<time>2020-09-11T15:43:58Z</time>
</trkpt>
<trkpt lat="47.496349" lon="11.08891">
<ele>674.306</ele>
<time>2020-09-11T15:43:59Z</time>
</trkpt>
<trkpt lat="47.496395" lon="11.08896">
<ele>674.306</ele>
<time>2020-09-11T15:44:00Z</time>
</trkpt>
<trkpt lat="47.496433" lon="11.08901">
<ele>674.306</ele>
<time>2020-09-11T15:44:01Z</time>
</trkpt>
<trkpt lat="47.496471" lon="11.08906">
<ele>674.306</ele>
<time>2020-09-11T15:44:02Z</time>
</trkpt>
<trkpt lat="47.496506" lon="11.089111">
<ele>674.305</ele>
<time>2020-09-11T15:44:03Z</time>
</trkpt>
<trkpt lat="47.496536" lon="11.089165">
<ele>674.306</ele>
<time>2020-09-11T15:44:04Z</time>
</trkpt>
<trkpt lat="47.496574" lon="11.089224">
<ele>674.306</ele>
<time>2020-09-11T15:44:05Z</time>
</trkpt>
<trkpt lat="47.496613" lon="11.089283">
<ele>674.306</ele>
<time>2020-09-11T15:44:06Z</time>
</trkpt>
<trkpt lat="47.496651" lon="11.089343">
<ele>674.306</ele>
<time>2020-09-11T15:44:07Z</time>
</trkpt>
<trkpt lat="47.496689" lon="11.0894">
<ele>674.305</ele>
<time>2020-09-11T15:44:08Z</time>
</trkpt>
<trkpt lat="47.496727" lon="11.089454">
<ele>674.306</ele>
<time>2020-09-11T15:44:09Z</time>
</trkpt>
<trkpt lat="47.496765" lon="11.089513">
<ele>674.306</ele>
<time>2020-09-11T15:44:10Z</time>
</trkpt>
<trkpt lat="47.496799" lon="11.089567">
<ele>674.045</ele>
<time>2020-09-11T15:44:11Z</time>
</trkpt>
<trkpt lat="47.496834" lon="11.089623">
<ele>673.845</ele>
<time>2020-09-11T15:44:12Z</time>
</trkpt>
<trkpt lat="47.496876" lon="11.089681">
<ele>673.695</ele>
<time>2020-09-11T15:44:13Z</time>
</trkpt>
<trkpt lat="47.496918" lon="11.089731">
<ele>673.577</ele>
<time>2020-09-11T15:44:14Z</time>
</trkpt>
<trkpt lat="47.49696" lon="11.08978">
<ele>673.493</ele>
<time>2020-09-11T15:44:15Z</time>
</trkpt>
<trkpt lat="47.497017" lon="11.089827">
<ele>673.408</ele>
<time>2020-09-11T15:44:16Z</time>
</trkpt>
<trkpt lat="47.497055" lon="11.089877">
<ele>673.356</ele>
<time>2020-09-11T15:44:17Z</time>
</trkpt>
<trkpt lat="47.497101" lon="11.089927">
<ele>673.33</ele>
<time>2020-09-11T15:44:18Z</time>
</trkpt>
<trkpt lat="47.497143" lon="11.089978">
<ele>673.33</ele>
<time>2020-09-11T15:44:19Z</time>
</trkpt>
<trkpt lat="47.497177" lon="11.090034">
<ele>673.33</ele>
<time>2020-09-11T15:44:20Z</time>
</trkpt>
<trkpt lat="47.497211" lon="11.090094">
<ele>673.33</ele>
<time>2020-09-11T15:44:21Z</time>
</trkpt>
<trkpt lat="47.497246" lon="11.090152">
<ele>673.33</ele>
<time>2020-09-11T15:44:22Z</time>
</trkpt>
<trkpt lat="47.497276" lon="11.090212">
<ele>673.33</ele>
<time>2020-09-11T15:44:23Z</time>
</trkpt>
<trkpt lat="47.497307" lon="11.090273">
<ele>673.33</ele>
<time>2020-09-11T15:44:24Z</time>
</trkpt>
<trkpt lat="47.49733" lon="11.090328">
<ele>673.33</ele>
<time>2020-09-11T15:44:25Z</time>
</trkpt>
<trkpt lat="47.497356" lon="11.09038">
<ele>673.33</ele>
<time>2020-09-11T15:44:26Z</time>
</trkpt>
<trkpt lat="47.497391" lon="11.09043">
<ele>673.33</ele>
<time>2020-09-11T15:44:27Z</time>
</trkpt>
<trkpt lat="47.497414" lon="11.090481">
<ele>673.33</ele>
<time>2020-09-11T15:44:28Z</time>
</trkpt>
<trkpt lat="47.497433" lon="11.09054">
<ele>673.33</ele>
<time>2020-09-11T15:44:29Z</time>
</trkpt>
<trkpt lat="47.497452" lon="11.090598">
<ele>673.33</ele>
<time>2020-09-11T15:44:30Z</time>
</trkpt>
<trkpt lat="47.497478" lon="11.090658">
<ele>673.33</ele>
<time>2020-09-11T15:44:31Z</time>
</trkpt>
<trkpt lat="47.497501" lon="11.090718">
<ele>673.33</ele>
<time>2020-09-11T15:44:32Z</time>
</trkpt>
<trkpt lat="47.497517" lon="11.090785">
<ele>673.33</ele>
<time>2020-09-11T15:44:33Z</time>
</trkpt>
<trkpt lat="47.497532" lon="11.09085">
<ele>673.33</ele>
<time>2020-09-11T15:44:34Z</time>
</trkpt>
<trkpt lat="47.49754" lon="11.090919">
<ele>673.33</ele>
<time>2020-09-11T15:44:35Z</time>
</trkpt>
<trkpt lat="47.497543" lon="11.09099">
<ele>673.33</ele>
<time>2020-09-11T15:44:36Z</time>
</trkpt>
<trkpt lat="47.497528" lon="11.091057">
<ele>673.33</ele>
<time>2020-09-11T15:44:37Z</time>
</trkpt>
<trkpt lat="47.497498" lon="11.091115">
<ele>673.33</ele>
<time>2020-09-11T15:44:38Z</time>
</trkpt>
<trkpt lat="47.497459" lon="11.091172">
<ele>673.33</ele>
<time>2020-09-11T15:44:39Z</time>
</trkpt>
<trkpt lat="47.497421" lon="11.091227">
<ele>673.33</ele>
<time>2020-09-11T15:44:40Z</time>
</trkpt>
<trkpt lat="47.497383" lon="11.091279">
<ele>673.33</ele>
<time>2020-09-11T15:44:41Z</time>
</trkpt>
<trkpt lat="47.497345" lon="11.091327">
<ele>673.33</ele>
<time>2020-09-11T15:44:42Z</time>
</trkpt>
<trkpt lat="47.497303" lon="11.091372">
<ele>673.33</ele>
<time>2020-09-11T15:44:43Z</time>
</trkpt>
<trkpt lat="47.497257" lon="11.091417">
<ele>673.33</ele>
<time>2020-09-11T15:44:44Z</time>
</trkpt>
<trkpt lat="47.497219" lon="11.091459">
<ele>673.33</ele>
<time>2020-09-11T15:44:45Z</time>
</trkpt>
<trkpt lat="47.497173" lon="11.091503">
<ele>673.33</ele>
<time>2020-09-11T15:44:46Z</time>
</trkpt>
<trkpt lat="47.497128" lon="11.091541">
<ele>673.33</ele>
<time>2020-09-11T15:44:47Z</time>
</trkpt>
<trkpt lat="47.497086" lon="11.091585">
<ele>673.33</ele>
<time>2020-09-11T15:44:48Z</time>
</trkpt>
<trkpt lat="47.49704" lon="11.091622">
<ele>673.33</ele>
<time>2020-09-11T15:44:49Z</time>
</trkpt>
<trkpt lat="47.496998" lon="11.091655">
<ele>673.33</ele>
<time>2020-09-11T15:44:50Z</time>
</trkpt>
<trkpt lat="47.496956" lon="11.091685">
<ele>673.33</ele>
<time>2020-09-11T15:44:51Z</time>
</trkpt>
<trkpt lat="47.496906" lon="11.091712">
<ele>673.33</ele>
<time>2020-09-11T15:44:52Z</time>
</trkpt>
<trkpt lat="47.496861" lon="11.091742">
<ele>673.33</ele>
<time>2020-09-11T15:44:53Z</time>
</trkpt>
<trkpt lat="47.496819" lon="11.091769">
<ele>673.33</ele>
<time>2020-09-11T15:44:54Z</time>
</trkpt>
<trkpt lat="47.496769" lon="11.091801">
<ele>673.33</ele>
<time>2020-09-11T15:44:55Z</time>
</trkpt>
<trkpt lat="47.496723" lon="11.091828">
<ele>673.33</ele>
<time>2020-09-11T15:44:56Z</time>
</trkpt>
<trkpt lat="47.496677" lon="11.091853">
<ele>673.759</ele>
<time>2020-09-11T15:44:57Z</time>
</trkpt>
<trkpt lat="47.496632" lon="11.09188">
<ele>674.09</ele>
<time>2020-09-11T15:44:58Z</time>
</trkpt>
<trkpt lat="47.49659" lon="11.0919">
<ele>674.333</ele>
<time>2020-09-11T15:44:59Z</time>
</trkpt>
<trkpt lat="47.49654" lon="11.091925">
<ele>674.513</ele>
<time>2020-09-11T15:45:00Z</time>
</trkpt>
<trkpt lat="47.496494" lon="11.091949">
<ele>674.637</ele>
<time>2020-09-11T15:45:01Z</time>
</trkpt>
<trkpt lat="47.496445" lon="11.09198">
<ele>674.707</ele>
<time>2020-09-11T15:45:02Z</time>
</trkpt>
<trkpt lat="47.496399" lon="11.092005">
<ele>674.743</ele>
<time>2020-09-11T15:45:03Z</time>
</trkpt>
<trkpt lat="47.496357" lon="11.09202">
<ele>674.749</ele>
<time>2020-09-11T15:45:04Z</time>
</trkpt>
<trkpt lat="47.496315" lon="11.09203">
<ele>674.749</ele>
<time>2020-09-11T15:45:05Z</time>
</trkpt>
<trkpt lat="47.496269" lon="11.092053">
<ele>674.749</ele>
<time>2020-09-11T15:45:06Z</time>
</trkpt>
<trkpt lat="47.496223" lon="11.092085">
<ele>674.749</ele>
<time>2020-09-11T15:45:07Z</time>
</trkpt>
<trkpt lat="47.496178" lon="11.092119">
<ele>674.749</ele>
<time>2020-09-11T15:45:08Z</time>
</trkpt>
<trkpt lat="47.496132" lon="11.092149">
<ele>674.749</ele>
<time>2020-09-11T15:45:09Z</time>
</trkpt>
<trkpt lat="47.496086" lon="11.092175">
<ele>674.749</ele>
<time>2020-09-11T15:45:10Z</time>
</trkpt>
<trkpt lat="47.496044" lon="11.092201">
<ele>674.749</ele>
<time>2020-09-11T15:45:11Z</time>
</trkpt>
<trkpt lat="47.496002" lon="11.092228">
<ele>674.749</ele>
<time>2020-09-11T15:45:12Z</time>
</trkpt>
<trkpt lat="47.49596" lon="11.092254">
<ele>674.749</ele>
<time>2020-09-11T15:45:13Z</time>
</trkpt>
<trkpt lat="47.495918" lon="11.092285">
<ele>674.749</ele>
<time>2020-09-11T15:45:14Z</time>
</trkpt>
<trkpt lat="47.49588" lon="11.09232">
<ele>674.749</ele>
<time>2020-09-11T15:45:15Z</time>
</trkpt>
<trkpt lat="47.495831" lon="11.092361">
<ele>674.749</ele>
<time>2020-09-11T15:45:16Z</time>
</trkpt>
<trkpt lat="47.495785" lon="11.0924">
<ele>674.749</ele>
<time>2020-09-11T15:45:17Z</time>
</trkpt>
<trkpt lat="47.495747" lon="11.09244">
<ele>675.01</ele>
<time>2020-09-11T15:45:18Z</time>
</trkpt>
<trkpt lat="47.495708" lon="11.092484">
<ele>675.21</ele>
<time>2020-09-11T15:45:19Z</time>
</trkpt>
<trkpt lat="47.495674" lon="11.092524">
<ele>675.361</ele>
<time>2020-09-11T15:45:20Z</time>
</trkpt>
<trkpt lat="47.49564" lon="11.092559">
<ele>675.469</ele>
<time>2020-09-11T15:45:21Z</time>
</trkpt>
<trkpt lat="47.495609" lon="11.09259">
<ele>675.54</ele>
<time>2020-09-11T15:45:22Z</time>
</trkpt>
<trkpt lat="47.495583" lon="11.092618">
<ele>675.586</ele>
<time>2020-09-11T15:45:23Z</time>
</trkpt>
<trkpt lat="47.495556" lon="11.092649">
<ele>675.612</ele>
<time>2020-09-11T15:45:24Z</time>
</trkpt>
<trkpt lat="47.495525" lon="11.092689">
<ele>675.636</ele>
<time>2020-09-11T15:45:25Z</time>
</trkpt>
<trkpt lat="47.495495" lon="11.092722">
<ele>675.636</ele>
<time>2020-09-11T15:45:26Z</time>
</trkpt>
<trkpt lat="47.495476" lon="11.09275">
<ele>675.636</ele>
<time>2020-09-11T15:45:27Z</time>
</trkpt>
<trkpt lat="47.495449" lon="11.092783">
<ele>675.636</ele>
<time>2020-09-11T15:45:28Z</time>
</trkpt>
<trkpt lat="47.495426" lon="11.092818">
<ele>675.636</ele>
<time>2020-09-11T15:45:29Z</time>
</trkpt>
<trkpt lat="47.495399" lon="11.092847">
<ele>675.636</ele>
<time>2020-09-11T15:45:30Z</time>
</trkpt>
<trkpt lat="47.495373" lon="11.092878">
<ele>675.911</ele>
<time>2020-09-11T15:45:31Z</time>
</trkpt>
<trkpt lat="47.49535" lon="11.092903">
<ele>676.126</ele>
<time>2020-09-11T15:45:32Z</time>
</trkpt>
<trkpt lat="47.495327" lon="11.092921">
<ele>676.291</ele>
<time>2020-09-11T15:45:33Z</time>
</trkpt>
<trkpt lat="47.495304" lon="11.092943">
<ele>676.234</ele>
<time>2020-09-11T15:45:34Z</time>
</trkpt>
<trkpt lat="47.495289" lon="11.092961">
<ele>676.187</ele>
<time>2020-09-11T15:45:35Z</time>
</trkpt>
<trkpt lat="47.495277" lon="11.092975">
<ele>676.133</ele>
<time>2020-09-11T15:45:36Z</time>
</trkpt>
<trkpt lat="47.495274" lon="11.09298">
<ele>676.083</ele>
<time>2020-09-11T15:45:37Z</time>
</trkpt>
<trkpt lat="47.49527" lon="11.092985">
<ele>676.028</ele>
<time>2020-09-11T15:45:38Z</time>
</trkpt>
<trkpt lat="47.495251" lon="11.093007">
<ele>675.988</ele>
<time>2020-09-11T15:46:04Z</time>
</trkpt>
<trkpt lat="47.495243" lon="11.09302">
<ele>675.904</ele>
<time>2020-09-11T15:46:05Z</time>
</trkpt>
<trkpt lat="47.495232" lon="11.09304">
<ele>675.844</ele>
<time>2020-09-11T15:46:06Z</time>
</trkpt>
<trkpt lat="47.495209" lon="11.093077">
<ele>675.813</ele>
<time>2020-09-11T15:46:07Z</time>
</trkpt>
<trkpt lat="47.495186" lon="11.093114">
<ele>675.813</ele>
<time>2020-09-11T15:46:08Z</time>
</trkpt>
<trkpt lat="47.495155" lon="11.093164">
<ele>675.813</ele>
<time>2020-09-11T15:46:09Z</time>
</trkpt>
<trkpt lat="47.495132" lon="11.093211">
<ele>675.813</ele>
<time>2020-09-11T15:46:10Z</time>
</trkpt>
<trkpt lat="47.495125" lon="11.093262">
<ele>675.813</ele>
<time>2020-09-11T15:46:11Z</time>
</trkpt>
<trkpt lat="47.495113" lon="11.09334">
<ele>675.813</ele>
<time>2020-09-11T15:46:12Z</time>
</trkpt>
<trkpt lat="47.49511" lon="11.093418">
<ele>675.813</ele>
<time>2020-09-11T15:46:13Z</time>
</trkpt>
<trkpt lat="47.495117" lon="11.093481">
<ele>675.813</ele>
<time>2020-09-11T15:46:14Z</time>
</trkpt>
<trkpt lat="47.495132" lon="11.093545">
<ele>675.813</ele>
<time>2020-09-11T15:46:15Z</time>
</trkpt>
<trkpt lat="47.495152" lon="11.093602">
<ele>676.056</ele>
<time>2020-09-11T15:46:16Z</time>
</trkpt>
<trkpt lat="47.495167" lon="11.093661">
<ele>676.235</ele>
<time>2020-09-11T15:46:17Z</time>
</trkpt>
<trkpt lat="47.495174" lon="11.093723">
<ele>676.376</ele>
<time>2020-09-11T15:46:18Z</time>
</trkpt>
<trkpt lat="47.49519" lon="11.093783">
<ele>676.478</ele>
<time>2020-09-11T15:46:19Z</time>
</trkpt>
<trkpt lat="47.495201" lon="11.093843">
<ele>676.54</ele>
<time>2020-09-11T15:46:20Z</time>
</trkpt>
<trkpt lat="47.49522" lon="11.093904">
<ele>676.622</ele>
<time>2020-09-11T15:46:21Z</time>
</trkpt>
<trkpt lat="47.495232" lon="11.093968">
<ele>676.677</ele>
<time>2020-09-11T15:46:22Z</time>
</trkpt>
<trkpt lat="47.495239" lon="11.094034">
<ele>676.701</ele>
<time>2020-09-11T15:46:23Z</time>
</trkpt>
<trkpt lat="47.495255" lon="11.094095">
<ele>676.701</ele>
<time>2020-09-11T15:46:24Z</time>
</trkpt>
<trkpt lat="47.495262" lon="11.094155">
<ele>676.701</ele>
<time>2020-09-11T15:46:25Z</time>
</trkpt>
<trkpt lat="47.495277" lon="11.09421">
<ele>676.701</ele>
<time>2020-09-11T15:46:26Z</time>
</trkpt>
<trkpt lat="47.495296" lon="11.094267">
<ele>676.701</ele>
<time>2020-09-11T15:46:27Z</time>
</trkpt>
<trkpt lat="47.495304" lon="11.094321">
<ele>676.701</ele>
<time>2020-09-11T15:46:28Z</time>
</trkpt>
<trkpt lat="47.495319" lon="11.094378">
<ele>676.701</ele>
<time>2020-09-11T15:46:29Z</time>
</trkpt>
<trkpt lat="47.495331" lon="11.094437">
<ele>676.701</ele>
<time>2020-09-11T15:46:30Z</time>
</trkpt>
<trkpt lat="47.495342" lon="11.094493">
<ele>676.701</ele>
<time>2020-09-11T15:46:31Z</time>
</trkpt>
<trkpt lat="47.495358" lon="11.09455">
<ele>676.701</ele>
<time>2020-09-11T15:46:32Z</time>
</trkpt>
<trkpt lat="47.495365" lon="11.094605">
<ele>676.701</ele>
<time>2020-09-11T15:46:33Z</time>
</trkpt>
<trkpt lat="47.49538" lon="11.094662">
<ele>676.701</ele>
<time>2020-09-11T15:46:34Z</time>
</trkpt>
<trkpt lat="47.495396" lon="11.09472">
<ele>676.701</ele>
<time>2020-09-11T15:46:35Z</time>
</trkpt>
<trkpt lat="47.495399" lon="11.094776">
<ele>676.701</ele>
<time>2020-09-11T15:46:36Z</time>
</trkpt>
<trkpt lat="47.495411" lon="11.094834">
<ele>676.701</ele>
<time>2020-09-11T15:46:37Z</time>
</trkpt>
<trkpt lat="47.495419" lon="11.094891">
<ele>676.701</ele>
<time>2020-09-11T15:46:38Z</time>
</trkpt>
<trkpt lat="47.495422" lon="11.094937">
<ele>676.49</ele>
<time>2020-09-11T15:46:39Z</time>
</trkpt>
<trkpt lat="47.49543" lon="11.094975">
<ele>676.335</ele>
<time>2020-09-11T15:46:40Z</time>
</trkpt>
<trkpt lat="47.495438" lon="11.095018">
<ele>676.294</ele>
<time>2020-09-11T15:46:41Z</time>
</trkpt>
<trkpt lat="47.495449" lon="11.095058">
<ele>676.373</ele>
<time>2020-09-11T15:46:42Z</time>
</trkpt>
<trkpt lat="47.495453" lon="11.09511">
<ele>676.441</ele>
<time>2020-09-11T15:46:43Z</time>
</trkpt>
<trkpt lat="47.495461" lon="11.09516">
<ele>676.505</ele>
<time>2020-09-11T15:46:44Z</time>
</trkpt>
<trkpt lat="47.495468" lon="11.095201">
<ele>676.565</ele>
<time>2020-09-11T15:46:45Z</time>
</trkpt>
<trkpt lat="47.495472" lon="11.095245">
<ele>676.623</ele>
<time>2020-09-11T15:46:46Z</time>
</trkpt>
<trkpt lat="47.495476" lon="11.095291">
<ele>676.672</ele>
<time>2020-09-11T15:46:47Z</time>
</trkpt>
<trkpt lat="47.49548" lon="11.095331">
<ele>676.695</ele>
<time>2020-09-11T15:46:48Z</time>
</trkpt>
<trkpt lat="47.49548" lon="11.095363">
<ele>676.701</ele>
<time>2020-09-11T15:46:49Z</time>
</trkpt>
<trkpt lat="47.495476" lon="11.095389">
<ele>676.701</ele>
<time>2020-09-11T15:46:50Z</time>
</trkpt>
<trkpt lat="47.495468" lon="11.095413">
<ele>676.701</ele>
<time>2020-09-11T15:46:51Z</time>
</trkpt>
<trkpt lat="47.495449" lon="11.095429">
<ele>676.701</ele>
<time>2020-09-11T15:46:52Z</time>
</trkpt>
<trkpt lat="47.495426" lon="11.095438">
<ele>676.701</ele>
<time>2020-09-11T15:46:53Z</time>
</trkpt>
<trkpt lat="47.495411" lon="11.095448">
<ele>676.701</ele>
<time>2020-09-11T15:46:54Z</time>
</trkpt>
<trkpt lat="47.495392" lon="11.095463">
<ele>676.701</ele>
<time>2020-09-11T15:46:55Z</time>
</trkpt>
<trkpt lat="47.495361" lon="11.095478">
<ele>676.701</ele>
<time>2020-09-11T15:46:56Z</time>
</trkpt>
<trkpt lat="47.495331" lon="11.095489">
<ele>676.701</ele>
<time>2020-09-11T15:46:57Z</time>
</trkpt>
<trkpt lat="47.495296" lon="11.095502">
<ele>676.974</ele>
<time>2020-09-11T15:46:58Z</time>
</trkpt>
<trkpt lat="47.495262" lon="11.095518">
<ele>677.184</ele>
<time>2020-09-11T15:46:59Z</time>
</trkpt>
<trkpt lat="47.495232" lon="11.095534">
<ele>677.306</ele>
<time>2020-09-11T15:47:00Z</time>
</trkpt>
<trkpt lat="47.495186" lon="11.095551">
<ele>677.457</ele>
<time>2020-09-11T15:47:01Z</time>
</trkpt>
<trkpt lat="47.495148" lon="11.095562">
<ele>677.556</ele>
<time>2020-09-11T15:47:02Z</time>
</trkpt>
<trkpt lat="47.495106" lon="11.095572">
<ele>677.617</ele>
<time>2020-09-11T15:47:03Z</time>
</trkpt>
<trkpt lat="47.495068" lon="11.095583">
<ele>677.655</ele>
<time>2020-09-11T15:47:04Z</time>
</trkpt>
<trkpt lat="47.495029" lon="11.095603">
<ele>677.676</ele>
<time>2020-09-11T15:47:05Z</time>
</trkpt>
<trkpt lat="47.494995" lon="11.09562">
<ele>677.676</ele>
<time>2020-09-11T15:47:06Z</time>
</trkpt>
<trkpt lat="47.494953" lon="11.095631">
<ele>677.676</ele>
<time>2020-09-11T15:47:07Z</time>
</trkpt>
<trkpt lat="47.494907" lon="11.095641">
<ele>677.676</ele>
<time>2020-09-11T15:47:08Z</time>
</trkpt>
<trkpt lat="47.494873" lon="11.095662">
<ele>677.676</ele>
<time>2020-09-11T15:47:09Z</time>
</trkpt>
<trkpt lat="47.494839" lon="11.095678">
<ele>677.676</ele>
<time>2020-09-11T15:47:10Z</time>
</trkpt>
<trkpt lat="47.494808" lon="11.095712">
<ele>677.676</ele>
<time>2020-09-11T15:47:11Z</time>
</trkpt>
<trkpt lat="47.494785" lon="11.09575">
<ele>677.676</ele>
<time>2020-09-11T15:47:12Z</time>
</trkpt>
<trkpt lat="47.494755" lon="11.09581">
<ele>677.676</ele>
<time>2020-09-11T15:47:13Z</time>
</trkpt>
<trkpt lat="47.494732" lon="11.095832">
<ele>677.676</ele>
<time>2020-09-11T15:47:14Z</time>
</trkpt>
<trkpt lat="47.494709" lon="11.095852">
<ele>677.676</ele>
<time>2020-09-11T15:47:15Z</time>
</trkpt>
<trkpt lat="47.494678" lon="11.095863">
<ele>677.676</ele>
<time>2020-09-11T15:47:16Z</time>
</trkpt>
<trkpt lat="47.494637" lon="11.095872">
<ele>677.676</ele>
<time>2020-09-11T15:47:17Z</time>
</trkpt>
<trkpt lat="47.494602" lon="11.095883">
<ele>677.676</ele>
<time>2020-09-11T15:47:18Z</time>
</trkpt>
<trkpt lat="47.494572" lon="11.09589">
<ele>677.676</ele>
<time>2020-09-11T15:47:19Z</time>
</trkpt>
<trkpt lat="47.494537" lon="11.095895">
<ele>677.676</ele>
<time>2020-09-11T15:47:20Z</time>
</trkpt>
<trkpt lat="47.494492" lon="11.095907">
<ele>677.676</ele>
<time>2020-09-11T15:47:21Z</time>
</trkpt>
<trkpt lat="47.494453" lon="11.095923">
<ele>677.676</ele>
<time>2020-09-11T15:47:22Z</time>
</trkpt>
<trkpt lat="47.494415" lon="11.095945">
<ele>677.676</ele>
<time>2020-09-11T15:47:23Z</time>
</trkpt>
<trkpt lat="47.494373" lon="11.095965">
<ele>677.676</ele>
<time>2020-09-11T15:47:24Z</time>
</trkpt>
<trkpt lat="47.494339" lon="11.095984">
<ele>677.676</ele>
<time>2020-09-11T15:47:25Z</time>
</trkpt>
<trkpt lat="47.494308" lon="11.096005">
<ele>677.676</ele>
<time>2020-09-11T15:47:26Z</time>
</trkpt>
<trkpt lat="47.494274" lon="11.096024">
<ele>677.949</ele>
<time>2020-09-11T15:47:27Z</time>
</trkpt>
<trkpt lat="47.494244" lon="11.096042">
<ele>678.155</ele>
<time>2020-09-11T15:47:28Z</time>
</trkpt>
<trkpt lat="47.494209" lon="11.096058">
<ele>678.312</ele>
<time>2020-09-11T15:47:29Z</time>
</trkpt>
<trkpt lat="47.494175" lon="11.096072">
<ele>678.429</ele>
<time>2020-09-11T15:47:30Z</time>
</trkpt>
<trkpt lat="47.494137" lon="11.096087">
<ele>678.554</ele>
<time>2020-09-11T15:47:31Z</time>
</trkpt>
<trkpt lat="47.494102" lon="11.096105">
<ele>678.649</ele>
<time>2020-09-11T15:47:32Z</time>
</trkpt>
<trkpt lat="47.494064" lon="11.096127">
<ele>678.712</ele>
<time>2020-09-11T15:47:33Z</time>
</trkpt>
<trkpt lat="47.494034" lon="11.096147">
<ele>678.741</ele>
<time>2020-09-11T15:47:34Z</time>
</trkpt>
<trkpt lat="47.493996" lon="11.096194">
<ele>678.741</ele>
<time>2020-09-11T15:47:35Z</time>
</trkpt>
<trkpt lat="47.493965" lon="11.096228">
<ele>678.741</ele>
<time>2020-09-11T15:47:36Z</time>
</trkpt>
<trkpt lat="47.493935" lon="11.096251">
<ele>679.019</ele>
<time>2020-09-11T15:47:37Z</time>
</trkpt>
<trkpt lat="47.493908" lon="11.096272">
<ele>679.232</ele>
<time>2020-09-11T15:47:38Z</time>
</trkpt>
<trkpt lat="47.493874" lon="11.096292">
<ele>679.395</ele>
<time>2020-09-11T15:47:39Z</time>
</trkpt>
<trkpt lat="47.493843" lon="11.096324">
<ele>679.508</ele>
<time>2020-09-11T15:47:40Z</time>
</trkpt>
<trkpt lat="47.493805" lon="11.096354">
<ele>679.628</ele>
<time>2020-09-11T15:47:41Z</time>
</trkpt>
<trkpt lat="47.493771" lon="11.096382">
<ele>679.718</ele>
<time>2020-09-11T15:47:42Z</time>
</trkpt>
<trkpt lat="47.493736" lon="11.096399">
<ele>679.771</ele>
<time>2020-09-11T15:47:43Z</time>
</trkpt>
<trkpt lat="47.493698" lon="11.096423">
<ele>679.806</ele>
<time>2020-09-11T15:47:44Z</time>
</trkpt>
<trkpt lat="47.493664" lon="11.096441">
<ele>679.806</ele>
<time>2020-09-11T15:47:45Z</time>
</trkpt>
<trkpt lat="47.493622" lon="11.096462">
<ele>679.806</ele>
<time>2020-09-11T15:47:46Z</time>
</trkpt>
<trkpt lat="47.493576" lon="11.096483">
<ele>679.806</ele>
<time>2020-09-11T15:47:47Z</time>
</trkpt>
<trkpt lat="47.493534" lon="11.096502">
<ele>679.806</ele>
<time>2020-09-11T15:47:48Z</time>
</trkpt>
<trkpt lat="47.493496" lon="11.096525">
<ele>679.806</ele>
<time>2020-09-11T15:47:49Z</time>
</trkpt>
<trkpt lat="47.493454" lon="11.096546">
<ele>680.01</ele>
<time>2020-09-11T15:47:50Z</time>
</trkpt>
<trkpt lat="47.493416" lon="11.096567">
<ele>680.199</ele>
<time>2020-09-11T15:47:51Z</time>
</trkpt>
<trkpt lat="47.493374" lon="11.096585">
<ele>680.349</ele>
<time>2020-09-11T15:47:52Z</time>
</trkpt>
<trkpt lat="47.49334" lon="11.096605">
<ele>680.468</ele>
<time>2020-09-11T15:47:53Z</time>
</trkpt>
<trkpt lat="47.493305" lon="11.096626">
<ele>680.545</ele>
<time>2020-09-11T15:47:54Z</time>
</trkpt>
<trkpt lat="47.493271" lon="11.09665">
<ele>680.848</ele>
<time>2020-09-11T15:47:55Z</time>
</trkpt>
<trkpt lat="47.493229" lon="11.09667">
<ele>681.096</ele>
<time>2020-09-11T15:47:56Z</time>
</trkpt>
<trkpt lat="47.493191" lon="11.096691">
<ele>681.284</ele>
<time>2020-09-11T15:47:57Z</time>
</trkpt>
<trkpt lat="47.493153" lon="11.096712">
<ele>681.437</ele>
<time>2020-09-11T15:47:58Z</time>
</trkpt>
<trkpt lat="47.493122" lon="11.096733">
<ele>681.505</ele>
<time>2020-09-11T15:47:59Z</time>
</trkpt>
<trkpt lat="47.493088" lon="11.096751">
<ele>681.803</ele>
<time>2020-09-11T15:48:00Z</time>
</trkpt>
<trkpt lat="47.493061" lon="11.09677">
<ele>682.059</ele>
<time>2020-09-11T15:48:01Z</time>
</trkpt>
<trkpt lat="47.493023" lon="11.096795">
<ele>682.252</ele>
<time>2020-09-11T15:48:02Z</time>
</trkpt>
<trkpt lat="47.492989" lon="11.096825">
<ele>682.387</ele>
<time>2020-09-11T15:48:03Z</time>
</trkpt>
<trkpt lat="47.49295" lon="11.096846">
<ele>682.491</ele>
<time>2020-09-11T15:48:04Z</time>
</trkpt>
<trkpt lat="47.492916" lon="11.096867">
<ele>682.57</ele>
<time>2020-09-11T15:48:05Z</time>
</trkpt>
<trkpt lat="47.492874" lon="11.096889">
<ele>682.622</ele>
<time>2020-09-11T15:48:06Z</time>
</trkpt>
<trkpt lat="47.492836" lon="11.096913">
<ele>682.646</ele>
<time>2020-09-11T15:48:07Z</time>
</trkpt>
<trkpt lat="47.492802" lon="11.096975">
<ele>682.646</ele>
<time>2020-09-11T15:48:08Z</time>
</trkpt>
<trkpt lat="47.492767" lon="11.097012">
<ele>682.646</ele>
<time>2020-09-11T15:48:09Z</time>
</trkpt>
<trkpt lat="47.492729" lon="11.097028">
<ele>682.89</ele>
<time>2020-09-11T15:48:10Z</time>
</trkpt>
<trkpt lat="47.492691" lon="11.09704">
<ele>683.113</ele>
<time>2020-09-11T15:48:11Z</time>
</trkpt>
<trkpt lat="47.492657" lon="11.097057">
<ele>683.295</ele>
<time>2020-09-11T15:48:12Z</time>
</trkpt>
<trkpt lat="47.492622" lon="11.097074">
<ele>683.437</ele>
<time>2020-09-11T15:48:13Z</time>
</trkpt>
<trkpt lat="47.492596" lon="11.097083">
<ele>683.544</ele>
<time>2020-09-11T15:48:14Z</time>
</trkpt>
<trkpt lat="47.492565" lon="11.097099">
<ele>683.625</ele>
<time>2020-09-11T15:48:15Z</time>
</trkpt>
<trkpt lat="47.492531" lon="11.097122">
<ele>683.678</ele>
<time>2020-09-11T15:48:16Z</time>
</trkpt>
<trkpt lat="47.492496" lon="11.097145">
<ele>683.711</ele>
<time>2020-09-11T15:48:17Z</time>
</trkpt>
<trkpt lat="47.492458" lon="11.097172">
<ele>683.954</ele>
<time>2020-09-11T15:48:18Z</time>
</trkpt>
<trkpt lat="47.492424" lon="11.097194">
<ele>684.154</ele>
<time>2020-09-11T15:48:19Z</time>
</trkpt>
<trkpt lat="47.49239" lon="11.097213">
<ele>684.29</ele>
<time>2020-09-11T15:48:20Z</time>
</trkpt>
<trkpt lat="47.492348" lon="11.09723">
<ele>684.442</ele>
<time>2020-09-11T15:48:21Z</time>
</trkpt>
<trkpt lat="47.492306" lon="11.097239">
<ele>684.555</ele>
<time>2020-09-11T15:48:22Z</time>
</trkpt>
<trkpt lat="47.492268" lon="11.097238">
<ele>684.619</ele>
<time>2020-09-11T15:48:23Z</time>
</trkpt>
<trkpt lat="47.492233" lon="11.097239">
<ele>684.664</ele>
<time>2020-09-11T15:48:24Z</time>
</trkpt>
<trkpt lat="47.492199" lon="11.097243">
<ele>684.688</ele>
<time>2020-09-11T15:48:25Z</time>
</trkpt>
<trkpt lat="47.492168" lon="11.097255">
<ele>684.688</ele>
<time>2020-09-11T15:48:26Z</time>
</trkpt>
<trkpt lat="47.492134" lon="11.09727">
<ele>684.687</ele>
<time>2020-09-11T15:48:27Z</time>
</trkpt>
<trkpt lat="47.492107" lon="11.097285">
<ele>684.688</ele>
<time>2020-09-11T15:48:28Z</time>
</trkpt>
<trkpt lat="47.492081" lon="11.097301">
<ele>684.888</ele>
<time>2020-09-11T15:48:29Z</time>
</trkpt>
<trkpt lat="47.492054" lon="11.097317">
<ele>685.04</ele>
<time>2020-09-11T15:48:30Z</time>
</trkpt>
<trkpt lat="47.492035" lon="11.097336">
<ele>685.199</ele>
<time>2020-09-11T15:48:31Z</time>
</trkpt>
<trkpt lat="47.492012" lon="11.09735">
<ele>685.325</ele>
<time>2020-09-11T15:48:32Z</time>
</trkpt>
<trkpt lat="47.492001" lon="11.097363">
<ele>685.426</ele>
<time>2020-09-11T15:48:33Z</time>
</trkpt>
<trkpt lat="47.491985" lon="11.097382">
<ele>685.499</ele>
<time>2020-09-11T15:48:34Z</time>
</trkpt>
<trkpt lat="47.49197" lon="11.097401">
<ele>685.549</ele>
<time>2020-09-11T15:48:35Z</time>
</trkpt>
<trkpt lat="47.491955" lon="11.097417">
<ele>685.576</ele>
<time>2020-09-11T15:48:36Z</time>
</trkpt>
<trkpt lat="47.49194" lon="11.097433">
<ele>685.576</ele>
<time>2020-09-11T15:48:37Z</time>
</trkpt>
<trkpt lat="47.49192" lon="11.097455">
<ele>685.576</ele>
<time>2020-09-11T15:48:38Z</time>
</trkpt>
<trkpt lat="47.491905" lon="11.097474">
<ele>685.576</ele>
<time>2020-09-11T15:48:39Z</time>
</trkpt>
<trkpt lat="47.491882" lon="11.097493">
<ele>685.576</ele>
<time>2020-09-11T15:48:40Z</time>
</trkpt>
<trkpt lat="47.491863" lon="11.097507">
<ele>685.576</ele>
<time>2020-09-11T15:48:41Z</time>
</trkpt>
<trkpt lat="47.49184" lon="11.097522">
<ele>685.576</ele>
<time>2020-09-11T15:48:42Z</time>
</trkpt>
<trkpt lat="47.491817" lon="11.09754">
<ele>685.576</ele>
<time>2020-09-11T15:48:43Z</time>
</trkpt>
<trkpt lat="47.491802" lon="11.097548">
<ele>685.576</ele>
<time>2020-09-11T15:48:44Z</time>
</trkpt>
<trkpt lat="47.491783" lon="11.097558">
<ele>685.576</ele>
<time>2020-09-11T15:48:45Z</time>
</trkpt>
<trkpt lat="47.491776" lon="11.097564">
<ele>685.576</ele>
<time>2020-09-11T15:48:46Z</time>
</trkpt>
<trkpt lat="47.491776" lon="11.097567">
<ele>685.575</ele>
<time>2020-09-11T15:48:47Z</time>
</trkpt>
<trkpt lat="47.49176" lon="11.097575">
<ele>685.576</ele>
<time>2020-09-11T15:48:48Z</time>
</trkpt>
<trkpt lat="47.491749" lon="11.097577">
<ele>685.576</ele>
<time>2020-09-11T15:48:49Z</time>
</trkpt>
<trkpt lat="47.491737" lon="11.09758">
<ele>685.576</ele>
<time>2020-09-11T15:48:50Z</time>
</trkpt>
<trkpt lat="47.491718" lon="11.09758">
<ele>685.576</ele>
<time>2020-09-11T15:48:51Z</time>
</trkpt>
<trkpt lat="47.491707" lon="11.097585">
<ele>685.576</ele>
<time>2020-09-11T15:48:52Z</time>
</trkpt>
<trkpt lat="47.491692" lon="11.097595">
<ele>685.879</ele>
<time>2020-09-11T15:48:53Z</time>
</trkpt>
<trkpt lat="47.491676" lon="11.097609">
<ele>686.145</ele>
<time>2020-09-11T15:48:54Z</time>
</trkpt>
<trkpt lat="47.49165" lon="11.097625">
<ele>686.288</ele>
<time>2020-09-11T15:48:55Z</time>
</trkpt>
<trkpt lat="47.491619" lon="11.097649">
<ele>686.111</ele>
<time>2020-09-11T15:48:56Z</time>
</trkpt>
<trkpt lat="47.491585" lon="11.097669">
<ele>685.974</ele>
<time>2020-09-11T15:48:57Z</time>
</trkpt>
<trkpt lat="47.491554" lon="11.097684">
<ele>685.869</ele>
<time>2020-09-11T15:48:58Z</time>
</trkpt>
<trkpt lat="47.491528" lon="11.097698">
<ele>686.025</ele>
<time>2020-09-11T15:48:59Z</time>
</trkpt>
<trkpt lat="47.491497" lon="11.097712">
<ele>686.029</ele>
<time>2020-09-11T15:49:00Z</time>
</trkpt>
<trkpt lat="47.491478" lon="11.097727">
<ele>686.214</ele>
<time>2020-09-11T15:49:01Z</time>
</trkpt>
<trkpt lat="47.491455" lon="11.09774">
<ele>686.292</ele>
<time>2020-09-11T15:49:02Z</time>
</trkpt>
<trkpt lat="47.491436" lon="11.097759">
<ele>686.354</ele>
<time>2020-09-11T15:49:03Z</time>
</trkpt>
<trkpt lat="47.491413" lon="11.097775">
<ele>686.41</ele>
<time>2020-09-11T15:49:04Z</time>
</trkpt>
<trkpt lat="47.491394" lon="11.097785">
<ele>686.465</ele>
<time>2020-09-11T15:49:05Z</time>
</trkpt>
<trkpt lat="47.491383" lon="11.097795">
<ele>686.524</ele>
<time>2020-09-11T15:49:06Z</time>
</trkpt>
<trkpt lat="47.491375" lon="11.0978">
<ele>686.552</ele>
<time>2020-09-11T15:49:07Z</time>
</trkpt>
<trkpt lat="47.491364" lon="11.097803">
<ele>686.552</ele>
<time>2020-09-11T15:49:08Z</time>
</trkpt>
<trkpt lat="47.491352" lon="11.097808">
<ele>686.552</ele>
<time>2020-09-11T15:49:09Z</time>
</trkpt>
<trkpt lat="47.491333" lon="11.097818">
<ele>686.552</ele>
<time>2020-09-11T15:49:10Z</time>
</trkpt>
<trkpt lat="47.491314" lon="11.097825">
<ele>686.552</ele>
<time>2020-09-11T15:49:11Z</time>
</trkpt>
<trkpt lat="47.491291" lon="11.097838">
<ele>686.552</ele>
<time>2020-09-11T15:49:12Z</time>
</trkpt>
<trkpt lat="47.491272" lon="11.097849">
<ele>686.552</ele>
<time>2020-09-11T15:49:13Z</time>
</trkpt>
<trkpt lat="47.491253" lon="11.097861">
<ele>686.552</ele>
<time>2020-09-11T15:49:14Z</time>
</trkpt>
<trkpt lat="47.49123" lon="11.097874">
<ele>686.552</ele>
<time>2020-09-11T15:49:15Z</time>
</trkpt>
<trkpt lat="47.491211" lon="11.097883">
<ele>686.552</ele>
<time>2020-09-11T15:49:16Z</time>
</trkpt>
<trkpt lat="47.491196" lon="11.097897">
<ele>686.552</ele>
<time>2020-09-11T15:49:17Z</time>
</trkpt>
<trkpt lat="47.49118" lon="11.097903">
<ele>686.552</ele>
<time>2020-09-11T15:49:18Z</time>
</trkpt>
<trkpt lat="47.491165" lon="11.09796">
<ele>686.552</ele>
<time>2020-09-11T15:49:19Z</time>
</trkpt>
<trkpt lat="47.491154" lon="11.09797">
<ele>686.552</ele>
<time>2020-09-11T15:49:20Z</time>
</trkpt>
<trkpt lat="47.491142" lon="11.097985">
<ele>686.552</ele>
<time>2020-09-11T15:49:21Z</time>
</trkpt>
<trkpt lat="47.491135" lon="11.097985">
<ele>686.552</ele>
<time>2020-09-11T15:49:22Z</time>
</trkpt>
<trkpt lat="47.491127" lon="11.097985">
<ele>686.552</ele>
<time>2020-09-11T15:49:23Z</time>
</trkpt>
<trkpt lat="47.491127" lon="11.097983">
<ele>686.552</ele>
<time>2020-09-11T15:49:24Z</time>
</trkpt>
<trkpt lat="47.491135" lon="11.09796">
<ele>686.552</ele>
<time>2020-09-11T15:49:37Z</time>
</trkpt>
<trkpt lat="47.491138" lon="11.097957">
<ele>686.344</ele>
<time>2020-09-11T15:49:38Z</time>
</trkpt>
<trkpt lat="47.491146" lon="11.097952">
<ele>686.371</ele>
<time>2020-09-11T15:49:39Z</time>
</trkpt>
<trkpt lat="47.491146" lon="11.097948">
<ele>686.378</ele>
<time>2020-09-11T15:49:40Z</time>
</trkpt>
<trkpt lat="47.49115" lon="11.097941">
<ele>686.402</ele>
<time>2020-09-11T15:49:41Z</time>
</trkpt>
<trkpt lat="47.491158" lon="11.097935">
<ele>686.386</ele>
<time>2020-09-11T15:49:42Z</time>
</trkpt>
<trkpt lat="47.491161" lon="11.097935">
<ele>686.475</ele>
<time>2020-09-11T15:49:45Z</time>
</trkpt>
<trkpt lat="47.491169" lon="11.097933">
<ele>686.536</ele>
<time>2020-09-11T15:49:46Z</time>
</trkpt>
<trkpt lat="47.491177" lon="11.097933">
<ele>686.552</ele>
<time>2020-09-11T15:49:47Z</time>
</trkpt>
<trkpt lat="47.491188" lon="11.097933">
<ele>686.552</ele>
<time>2020-09-11T15:49:48Z</time>
</trkpt>
<trkpt lat="47.491192" lon="11.097935">
<ele>686.552</ele>
<time>2020-09-11T15:49:49Z</time>
</trkpt>
<trkpt lat="47.491196" lon="11.097935">
<ele>686.552</ele>
<time>2020-09-11T15:49:50Z</time>
</trkpt>
<trkpt lat="47.491203" lon="11.097933">
<ele>686.552</ele>
<time>2020-09-11T15:49:51Z</time>
</trkpt>
<trkpt lat="47.491211" lon="11.097933">
<ele>686.552</ele>
<time>2020-09-11T15:49:52Z</time>
</trkpt>
<trkpt lat="47.491215" lon="11.097945">
<ele>686.552</ele>
<time>2020-09-11T15:49:53Z</time>
</trkpt>
<trkpt lat="47.491222" lon="11.097939">
<ele>686.552</ele>
<time>2020-09-11T15:49:54Z</time>
</trkpt>
<trkpt lat="47.491226" lon="11.097933">
<ele>686.552</ele>
<time>2020-09-11T15:49:55Z</time>
</trkpt>
<trkpt lat="47.491238" lon="11.097929">
<ele>686.552</ele>
<time>2020-09-11T15:49:56Z</time>
</trkpt>
<trkpt lat="47.491245" lon="11.097923">
<ele>686.552</ele>
<time>2020-09-11T15:49:57Z</time>
</trkpt>
<trkpt lat="47.491253" lon="11.097919">
<ele>686.552</ele>
<time>2020-09-11T15:49:58Z</time>
</trkpt>
<trkpt lat="47.491253" lon="11.097941">
<ele>686.552</ele>
<time>2020-09-11T15:49:59Z</time>
</trkpt>
<trkpt lat="47.491261" lon="11.097935">
<ele>686.552</ele>
<time>2020-09-11T15:50:00Z</time>
</trkpt>
<trkpt lat="47.491272" lon="11.09793">
<ele>686.552</ele>
<time>2020-09-11T15:50:01Z</time>
</trkpt>
<trkpt lat="47.491283" lon="11.097923">
<ele>686.552</ele>
<time>2020-09-11T15:50:02Z</time>
</trkpt>
<trkpt lat="47.491287" lon="11.097914">
<ele>686.552</ele>
<time>2020-09-11T15:50:03Z</time>
</trkpt>
<trkpt lat="47.491295" lon="11.097905">
<ele>686.552</ele>
<time>2020-09-11T15:50:04Z</time>
</trkpt>
<trkpt lat="47.491299" lon="11.097905">
<ele>686.552</ele>
<time>2020-09-11T15:50:05Z</time>
</trkpt>
<trkpt lat="47.491302" lon="11.097905">
<ele>686.552</ele>
<time>2020-09-11T15:50:06Z</time>
</trkpt>
<trkpt lat="47.49131" lon="11.097903">
<ele>686.552</ele>
<time>2020-09-11T15:50:07Z</time>
</trkpt>
<trkpt lat="47.491318" lon="11.097905">
<ele>686.552</ele>
<time>2020-09-11T15:50:08Z</time>
</trkpt>
<trkpt lat="47.491325" lon="11.097901">
<ele>686.552</ele>
<time>2020-09-11T15:50:09Z</time>
</trkpt>
<trkpt lat="47.491337" lon="11.097897">
<ele>686.552</ele>
<time>2020-09-11T15:50:10Z</time>
</trkpt>
<trkpt lat="47.491352" lon="11.097889">
<ele>686.552</ele>
<time>2020-09-11T15:50:11Z</time>
</trkpt>
<trkpt lat="47.491367" lon="11.097887">
<ele>686.552</ele>
<time>2020-09-11T15:50:12Z</time>
</trkpt>
<trkpt lat="47.491375" lon="11.097881">
<ele>686.552</ele>
<time>2020-09-11T15:50:13Z</time>
</trkpt>
<trkpt lat="47.491375" lon="11.097885">
<ele>686.552</ele>
<time>2020-09-11T15:50:14Z</time>
</trkpt>
<trkpt lat="47.491386" lon="11.097875">
<ele>686.552</ele>
<time>2020-09-11T15:50:15Z</time>
</trkpt>
<trkpt lat="47.491402" lon="11.097874">
<ele>686.552</ele>
<time>2020-09-11T15:50:16Z</time>
</trkpt>
<trkpt lat="47.491413" lon="11.09787">
<ele>686.552</ele>
<time>2020-09-11T15:50:17Z</time>
</trkpt>
<trkpt lat="47.491421" lon="11.097863">
<ele>686.552</ele>
<time>2020-09-11T15:50:18Z</time>
</trkpt>
<trkpt lat="47.491436" lon="11.097847">
<ele>686.552</ele>
<time>2020-09-11T15:50:19Z</time>
</trkpt>
<trkpt lat="47.491447" lon="11.097836">
<ele>686.552</ele>
<time>2020-09-11T15:50:20Z</time>
</trkpt>
<trkpt lat="47.491455" lon="11.09783">
<ele>686.552</ele>
<time>2020-09-11T15:50:21Z</time>
</trkpt>
<trkpt lat="47.491455" lon="11.097832">
<ele>686.552</ele>
<time>2020-09-11T15:50:22Z</time>
</trkpt>
<trkpt lat="47.491455" lon="11.097835">
<ele>686.552</ele>
<time>2020-09-11T15:50:23Z</time>
</trkpt>
<trkpt lat="47.491459" lon="11.097941">
<ele>686.552</ele>
<time>2020-09-11T15:51:04Z</time>
</trkpt>
<trkpt lat="47.491459" lon="11.097957">
<ele>686.552</ele>
<time>2020-09-11T15:51:05Z</time>
</trkpt>
<trkpt lat="47.491459" lon="11.09797">
<ele>686.552</ele>
<time>2020-09-11T15:51:06Z</time>
</trkpt>
<trkpt lat="47.491455" lon="11.097983">
<ele>686.552</ele>
<time>2020-09-11T15:51:07Z</time>
</trkpt>
<trkpt lat="47.491451" lon="11.097999">
<ele>686.552</ele>
<time>2020-09-11T15:51:08Z</time>
</trkpt>
<trkpt lat="47.491455" lon="11.098006">
<ele>686.552</ele>
<time>2020-09-11T15:51:09Z</time>
</trkpt>
<trkpt lat="47.491451" lon="11.098012">
<ele>686.552</ele>
<time>2020-09-11T15:51:10Z</time>
</trkpt>
<trkpt lat="47.491451" lon="11.098017">
<ele>686.552</ele>
<time>2020-09-11T15:51:11Z</time>
</trkpt>
<trkpt lat="47.491451" lon="11.098019">
<ele>686.552</ele>
<time>2020-09-11T15:51:12Z</time>
</trkpt>
<trkpt lat="47.491451" lon="11.09802">
<ele>686.552</ele>
<time>2020-09-11T15:51:13Z</time>
</trkpt>
<trkpt lat="47.491482" lon="11.09804">
<ele>686.552</ele>
<time>2020-09-11T15:55:17Z</time>
</trkpt>
<trkpt lat="47.491482" lon="11.098028">
<ele>686.552</ele>
<time>2020-09-11T15:55:18Z</time>
</trkpt>
<trkpt lat="47.491486" lon="11.098019">
<ele>686.552</ele>
<time>2020-09-11T15:55:19Z</time>
</trkpt>
<trkpt lat="47.491486" lon="11.098004">
<ele>686.552</ele>
<time>2020-09-11T15:55:20Z</time>
</trkpt>
<trkpt lat="47.491486" lon="11.098">
<ele>686.552</ele>
<time>2020-09-11T15:55:21Z</time>
</trkpt>
<trkpt lat="47.491486" lon="11.097999">
<ele>686.552</ele>
<time>2020-09-11T15:55:22Z</time>
</trkpt>
<trkpt lat="47.491528" lon="11.097915">
<ele>686.552</ele>
<time>2020-09-11T15:56:00Z</time>
</trkpt>
<trkpt lat="47.491547" lon="11.097899">
<ele>686.552</ele>
<time>2020-09-11T15:56:01Z</time>
</trkpt>
<trkpt lat="47.491558" lon="11.097881">
<ele>686.552</ele>
<time>2020-09-11T15:56:02Z</time>
</trkpt>
<trkpt lat="47.491581" lon="11.097857">
<ele>686.552</ele>
<time>2020-09-11T15:56:03Z</time>
</trkpt>
<trkpt lat="47.491592" lon="11.097828">
<ele>686.552</ele>
<time>2020-09-11T15:56:04Z</time>
</trkpt>
<trkpt lat="47.491608" lon="11.097803">
<ele>686.552</ele>
<time>2020-09-11T15:56:05Z</time>
</trkpt>
<trkpt lat="47.491615" lon="11.097774">
<ele>686.552</ele>
<time>2020-09-11T15:56:06Z</time>
</trkpt>
<trkpt lat="47.491631" lon="11.097745">
<ele>686.552</ele>
<time>2020-09-11T15:56:07Z</time>
</trkpt>
<trkpt lat="47.49165" lon="11.097721">
<ele>686.552</ele>
<time>2020-09-11T15:56:08Z</time>
</trkpt>
<trkpt lat="47.491676" lon="11.097707">
<ele>686.552</ele>
<time>2020-09-11T15:56:09Z</time>
</trkpt>
<trkpt lat="47.491695" lon="11.097702">
<ele>686.552</ele>
<time>2020-09-11T15:56:10Z</time>
</trkpt>
<trkpt lat="47.491718" lon="11.097703">
<ele>686.552</ele>
<time>2020-09-11T15:56:11Z</time>
</trkpt>
<trkpt lat="47.491756" lon="11.097703">
<ele>686.552</ele>
<time>2020-09-11T15:56:12Z</time>
</trkpt>
<trkpt lat="47.491806" lon="11.097677">
<ele>686.552</ele>
<time>2020-09-11T15:56:13Z</time>
</trkpt>
<trkpt lat="47.491871" lon="11.097644">
<ele>686.552</ele>
<time>2020-09-11T15:56:14Z</time>
</trkpt>
<trkpt lat="47.491932" lon="11.097604">
<ele>686.552</ele>
<time>2020-09-11T15:56:15Z</time>
</trkpt>
<trkpt lat="47.491989" lon="11.097564">
<ele>686.552</ele>
<time>2020-09-11T15:56:16Z</time>
</trkpt>
<trkpt lat="47.492046" lon="11.097518">
<ele>686.552</ele>
<time>2020-09-11T15:56:17Z</time>
</trkpt>
<trkpt lat="47.4921" lon="11.097474">
<ele>686.552</ele>
<time>2020-09-11T15:56:18Z</time>
</trkpt>
<trkpt lat="47.492149" lon="11.097432">
<ele>686.552</ele>
<time>2020-09-11T15:56:19Z</time>
</trkpt>
<trkpt lat="47.492203" lon="11.097392">
<ele>686.552</ele>
<time>2020-09-11T15:56:20Z</time>
</trkpt>
<trkpt lat="47.492252" lon="11.097362">
<ele>686.552</ele>
<time>2020-09-11T15:56:21Z</time>
</trkpt>
<trkpt lat="47.492302" lon="11.09733">
<ele>686.552</ele>
<time>2020-09-11T15:56:22Z</time>
</trkpt>
<trkpt lat="47.492352" lon="11.097297">
<ele>686.552</ele>
<time>2020-09-11T15:56:23Z</time>
</trkpt>
<trkpt lat="47.492401" lon="11.097263">
<ele>686.552</ele>
<time>2020-09-11T15:56:24Z</time>
</trkpt>
<trkpt lat="47.492455" lon="11.09723">
<ele>686.552</ele>
<time>2020-09-11T15:56:25Z</time>
</trkpt>
<trkpt lat="47.4925" lon="11.097197">
<ele>686.552</ele>
<time>2020-09-11T15:56:26Z</time>
</trkpt>
<trkpt lat="47.492554" lon="11.09717">
<ele>686.552</ele>
<time>2020-09-11T15:56:27Z</time>
</trkpt>
<trkpt lat="47.492603" lon="11.097138">
<ele>686.552</ele>
<time>2020-09-11T15:56:28Z</time>
</trkpt>
<trkpt lat="47.492657" lon="11.097103">
<ele>686.552</ele>
<time>2020-09-11T15:56:29Z</time>
</trkpt>
<trkpt lat="47.49271" lon="11.09707">
<ele>686.552</ele>
<time>2020-09-11T15:56:30Z</time>
</trkpt>
<trkpt lat="47.492764" lon="11.097036">
<ele>686.312</ele>
<time>2020-09-11T15:56:31Z</time>
</trkpt>
<trkpt lat="47.492817" lon="11.097005">
<ele>686.143</ele>
<time>2020-09-11T15:56:32Z</time>
</trkpt>
<trkpt lat="47.49287" lon="11.09697">
<ele>685.967</ele>
<time>2020-09-11T15:56:33Z</time>
</trkpt>
<trkpt lat="47.492924" lon="11.096933">
<ele>685.905</ele>
<time>2020-09-11T15:56:34Z</time>
</trkpt>
<trkpt lat="47.492981" lon="11.096896">
<ele>685.763</ele>
<time>2020-09-11T15:56:35Z</time>
</trkpt>
<trkpt lat="47.493038" lon="11.09686">
<ele>685.663</ele>
<time>2020-09-11T15:56:36Z</time>
</trkpt>
<trkpt lat="47.493099" lon="11.09682">
<ele>685.608</ele>
<time>2020-09-11T15:56:37Z</time>
</trkpt>
<trkpt lat="47.493156" lon="11.096773">
<ele>685.319</ele>
<time>2020-09-11T15:56:38Z</time>
</trkpt>
<trkpt lat="47.493217" lon="11.09673">
<ele>684.819</ele>
<time>2020-09-11T15:56:39Z</time>
</trkpt>
<trkpt lat="47.493275" lon="11.096691">
<ele>684.439</ele>
<time>2020-09-11T15:56:40Z</time>
</trkpt>
<trkpt lat="47.49334" lon="11.096639">
<ele>684.159</ele>
<time>2020-09-11T15:56:41Z</time>
</trkpt>
<trkpt lat="47.493404" lon="11.096597">
<ele>684.002</ele>
<time>2020-09-11T15:56:42Z</time>
</trkpt>
<trkpt lat="47.493469" lon="11.096546">
<ele>683.859</ele>
<time>2020-09-11T15:56:43Z</time>
</trkpt>
<trkpt lat="47.493534" lon="11.096497">
<ele>683.476</ele>
<time>2020-09-11T15:56:44Z</time>
</trkpt>
<trkpt lat="47.493599" lon="11.096457">
<ele>683.204</ele>
<time>2020-09-11T15:56:45Z</time>
</trkpt>
<trkpt lat="47.493656" lon="11.096416">
<ele>683.016</ele>
<time>2020-09-11T15:56:46Z</time>
</trkpt>
<trkpt lat="47.493717" lon="11.096378">
<ele>682.805</ele>
<time>2020-09-11T15:56:47Z</time>
</trkpt>
<trkpt lat="47.493774" lon="11.096338">
<ele>682.72</ele>
<time>2020-09-11T15:56:48Z</time>
</trkpt>
<trkpt lat="47.493828" lon="11.096305">
<ele>682.672</ele>
<time>2020-09-11T15:56:49Z</time>
</trkpt>
<trkpt lat="47.493881" lon="11.096275">
<ele>682.647</ele>
<time>2020-09-11T15:56:50Z</time>
</trkpt>
<trkpt lat="47.493942" lon="11.09624">
<ele>682.419</ele>
<time>2020-09-11T15:56:51Z</time>
</trkpt>
<trkpt lat="47.493996" lon="11.096207">
<ele>682.251</ele>
<time>2020-09-11T15:56:52Z</time>
</trkpt>
<trkpt lat="47.494049" lon="11.096182">
<ele>682.077</ele>
<time>2020-09-11T15:56:53Z</time>
</trkpt>
<trkpt lat="47.494095" lon="11.096156">
<ele>681.937</ele>
<time>2020-09-11T15:56:54Z</time>
</trkpt>
<trkpt lat="47.494156" lon="11.096121">
<ele>681.827</ele>
<time>2020-09-11T15:56:55Z</time>
</trkpt>
<trkpt lat="47.494213" lon="11.096084">
<ele>681.746</ele>
<time>2020-09-11T15:56:56Z</time>
</trkpt>
<trkpt lat="47.49427" lon="11.096042">
<ele>681.697</ele>
<time>2020-09-11T15:56:57Z</time>
</trkpt>
<trkpt lat="47.494324" lon="11.096">
<ele>681.365</ele>
<time>2020-09-11T15:56:58Z</time>
</trkpt>
<trkpt lat="47.494385" lon="11.09595">
<ele>681.078</ele>
<time>2020-09-11T15:56:59Z</time>
</trkpt>
<trkpt lat="47.494434" lon="11.095913">
<ele>680.874</ele>
<time>2020-09-11T15:57:00Z</time>
</trkpt>
<trkpt lat="47.494488" lon="11.095876">
<ele>680.722</ele>
<time>2020-09-11T15:57:01Z</time>
</trkpt>
<trkpt lat="47.494537" lon="11.095836">
<ele>680.626</ele>
<time>2020-09-11T15:57:02Z</time>
</trkpt>
<trkpt lat="47.494579" lon="11.09579">
<ele>680.531</ele>
<time>2020-09-11T15:57:03Z</time>
</trkpt>
<trkpt lat="47.49461" lon="11.095757">
<ele>680.462</ele>
<time>2020-09-11T15:57:04Z</time>
</trkpt>
<trkpt lat="47.49464" lon="11.095745">
<ele>680.428</ele>
<time>2020-09-11T15:57:05Z</time>
</trkpt>
<trkpt lat="47.494671" lon="11.095748">
<ele>680.428</ele>
<time>2020-09-11T15:57:06Z</time>
</trkpt>
<trkpt lat="47.494698" lon="11.095755">
<ele>680.428</ele>
<time>2020-09-11T15:57:07Z</time>
</trkpt>
<trkpt lat="47.494743" lon="11.095752">
<ele>680.428</ele>
<time>2020-09-11T15:57:08Z</time>
</trkpt>
<trkpt lat="47.494785" lon="11.095737">
<ele>680.428</ele>
<time>2020-09-11T15:57:09Z</time>
</trkpt>
<trkpt lat="47.494831" lon="11.09572">
<ele>680.428</ele>
<time>2020-09-11T15:57:10Z</time>
</trkpt>
<trkpt lat="47.494877" lon="11.095698">
<ele>680.428</ele>
<time>2020-09-11T15:57:11Z</time>
</trkpt>
<trkpt lat="47.494919" lon="11.095681">
<ele>680.428</ele>
<time>2020-09-11T15:57:12Z</time>
</trkpt>
<trkpt lat="47.494965" lon="11.095662">
<ele>680.428</ele>
<time>2020-09-11T15:57:13Z</time>
</trkpt>
<trkpt lat="47.495007" lon="11.095645">
<ele>680.428</ele>
<time>2020-09-11T15:57:14Z</time>
</trkpt>
<trkpt lat="47.495056" lon="11.095629">
<ele>680.428</ele>
<time>2020-09-11T15:57:15Z</time>
</trkpt>
<trkpt lat="47.495102" lon="11.095612">
<ele>680.428</ele>
<time>2020-09-11T15:57:16Z</time>
</trkpt>
<trkpt lat="47.495144" lon="11.095598">
<ele>680.428</ele>
<time>2020-09-11T15:57:17Z</time>
</trkpt>
<trkpt lat="47.495182" lon="11.095585">
<ele>680.428</ele>
<time>2020-09-11T15:57:18Z</time>
</trkpt>
<trkpt lat="47.495209" lon="11.09558">
<ele>680.428</ele>
<time>2020-09-11T15:57:19Z</time>
</trkpt>
<trkpt lat="47.495232" lon="11.095578">
<ele>680.163</ele>
<time>2020-09-11T15:57:20Z</time>
</trkpt>
<trkpt lat="47.495255" lon="11.095572">
<ele>679.958</ele>
<time>2020-09-11T15:57:21Z</time>
</trkpt>
<trkpt lat="47.495266" lon="11.095572">
<ele>679.8</ele>
<time>2020-09-11T15:57:22Z</time>
</trkpt>
<trkpt lat="47.495285" lon="11.09557">
<ele>679.646</ele>
<time>2020-09-11T15:57:23Z</time>
</trkpt>
<trkpt lat="47.4953" lon="11.095572">
<ele>679.513</ele>
<time>2020-09-11T15:57:24Z</time>
</trkpt>
<trkpt lat="47.495316" lon="11.095568">
<ele>679.404</ele>
<time>2020-09-11T15:57:25Z</time>
</trkpt>
<trkpt lat="47.495327" lon="11.095567">
<ele>679.322</ele>
<time>2020-09-11T15:57:26Z</time>
</trkpt>
<trkpt lat="47.495331" lon="11.095568">
<ele>679.275</ele>
<time>2020-09-11T15:57:27Z</time>
</trkpt>
<trkpt lat="47.495358" lon="11.095565">
<ele>679.275</ele>
<time>2020-09-11T15:57:56Z</time>
</trkpt>
<trkpt lat="47.495384" lon="11.095558">
<ele>679.507</ele>
<time>2020-09-11T15:57:57Z</time>
</trkpt>
<trkpt lat="47.495411" lon="11.095542">
<ele>679.703</ele>
<time>2020-09-11T15:57:58Z</time>
</trkpt>
<trkpt lat="47.495441" lon="11.0955">
<ele>679.822</ele>
<time>2020-09-11T15:57:59Z</time>
</trkpt>
<trkpt lat="47.495468" lon="11.095428">
<ele>679.998</ele>
<time>2020-09-11T15:58:00Z</time>
</trkpt>
<trkpt lat="47.495491" lon="11.095337">
<ele>680.106</ele>
<time>2020-09-11T15:58:01Z</time>
</trkpt>
<trkpt lat="47.495495" lon="11.095242">
<ele>680.141</ele>
<time>2020-09-11T15:58:02Z</time>
</trkpt>
<trkpt lat="47.495491" lon="11.095151">
<ele>679.817</ele>
<time>2020-09-11T15:58:03Z</time>
</trkpt>
<trkpt lat="47.495491" lon="11.095077">
<ele>679.649</ele>
<time>2020-09-11T15:58:04Z</time>
</trkpt>
<trkpt lat="47.49548" lon="11.095016">
<ele>679.523</ele>
<time>2020-09-11T15:58:05Z</time>
</trkpt>
<trkpt lat="47.495472" lon="11.094967">
<ele>679.442</ele>
<time>2020-09-11T15:58:06Z</time>
</trkpt>
<trkpt lat="47.495461" lon="11.094913">
<ele>679.387</ele>
<time>2020-09-11T15:58:07Z</time>
</trkpt>
<trkpt lat="47.495457" lon="11.09485">
<ele>679.343</ele>
<time>2020-09-11T15:58:08Z</time>
</trkpt>
<trkpt lat="47.495445" lon="11.094775">
<ele>679.304</ele>
<time>2020-09-11T15:58:09Z</time>
</trkpt>
<trkpt lat="47.495434" lon="11.094695">
<ele>679.275</ele>
<time>2020-09-11T15:58:10Z</time>
</trkpt>
<trkpt lat="47.495422" lon="11.094613">
<ele>679.275</ele>
<time>2020-09-11T15:58:11Z</time>
</trkpt>
<trkpt lat="47.495407" lon="11.094526">
<ele>679.275</ele>
<time>2020-09-11T15:58:12Z</time>
</trkpt>
<trkpt lat="47.495396" lon="11.094449">
<ele>679.275</ele>
<time>2020-09-11T15:58:13Z</time>
</trkpt>
<trkpt lat="47.495384" lon="11.094374">
<ele>679.275</ele>
<time>2020-09-11T15:58:14Z</time>
</trkpt>
<trkpt lat="47.495377" lon="11.094303">
<ele>679.275</ele>
<time>2020-09-11T15:58:15Z</time>
</trkpt>
<trkpt lat="47.495365" lon="11.094238">
<ele>679.275</ele>
<time>2020-09-11T15:58:16Z</time>
</trkpt>
<trkpt lat="47.495358" lon="11.094176">
<ele>679.275</ele>
<time>2020-09-11T15:58:17Z</time>
</trkpt>
<trkpt lat="47.495346" lon="11.09412">
<ele>679.275</ele>
<time>2020-09-11T15:58:18Z</time>
</trkpt>
<trkpt lat="47.495342" lon="11.094069">
<ele>679.275</ele>
<time>2020-09-11T15:58:19Z</time>
</trkpt>
<trkpt lat="47.495335" lon="11.094027">
<ele>679.275</ele>
<time>2020-09-11T15:58:20Z</time>
</trkpt>
<trkpt lat="47.495327" lon="11.093988">
<ele>679.275</ele>
<time>2020-09-11T15:58:21Z</time>
</trkpt>
<trkpt lat="47.495319" lon="11.093955">
<ele>679.275</ele>
<time>2020-09-11T15:58:22Z</time>
</trkpt>
<trkpt lat="47.495296" lon="11.093925">
<ele>679.275</ele>
<time>2020-09-11T15:58:23Z</time>
</trkpt>
<trkpt lat="47.495289" lon="11.0939">
<ele>679.275</ele>
<time>2020-09-11T15:58:24Z</time>
</trkpt>
<trkpt lat="47.495281" lon="11.093879">
<ele>679.275</ele>
<time>2020-09-11T15:58:25Z</time>
</trkpt>
<trkpt lat="47.495277" lon="11.093854">
<ele>679.275</ele>
<time>2020-09-11T15:58:26Z</time>
</trkpt>
<trkpt lat="47.49527" lon="11.093821">
<ele>679.275</ele>
<time>2020-09-11T15:58:27Z</time>
</trkpt>
<trkpt lat="47.495266" lon="11.093791">
<ele>679.275</ele>
<time>2020-09-11T15:58:28Z</time>
</trkpt>
<trkpt lat="47.495262" lon="11.093768">
<ele>679.275</ele>
<time>2020-09-11T15:58:29Z</time>
</trkpt>
<trkpt lat="47.495262" lon="11.093745">
<ele>679.275</ele>
<time>2020-09-11T15:58:30Z</time>
</trkpt>
<trkpt lat="47.495258" lon="11.093723">
<ele>679.008</ele>
<time>2020-09-11T15:58:31Z</time>
</trkpt>
<trkpt lat="47.495255" lon="11.093699">
<ele>678.768</ele>
<time>2020-09-11T15:58:32Z</time>
</trkpt>
<trkpt lat="47.495251" lon="11.093677">
<ele>678.604</ele>
<time>2020-09-11T15:58:33Z</time>
</trkpt>
<trkpt lat="47.495251" lon="11.093659">
<ele>678.479</ele>
<time>2020-09-11T15:58:34Z</time>
</trkpt>
<trkpt lat="47.495247" lon="11.093647">
<ele>678.397</ele>
<time>2020-09-11T15:58:35Z</time>
</trkpt>
<trkpt lat="47.495243" lon="11.093636">
<ele>678.343</ele>
<time>2020-09-11T15:58:36Z</time>
</trkpt>
<trkpt lat="47.495235" lon="11.093619">
<ele>678.313</ele>
<time>2020-09-11T15:58:37Z</time>
</trkpt>
<trkpt lat="47.495232" lon="11.0936">
<ele>678.299</ele>
<time>2020-09-11T15:58:38Z</time>
</trkpt>
<trkpt lat="47.495216" lon="11.09357">
<ele>678.299</ele>
<time>2020-09-11T15:58:39Z</time>
</trkpt>
<trkpt lat="47.495205" lon="11.093535">
<ele>678.299</ele>
<time>2020-09-11T15:58:40Z</time>
</trkpt>
<trkpt lat="47.495205" lon="11.0935">
<ele>678.299</ele>
<time>2020-09-11T15:58:41Z</time>
</trkpt>
<trkpt lat="47.495205" lon="11.093465">
<ele>678.299</ele>
<time>2020-09-11T15:58:42Z</time>
</trkpt>
<trkpt lat="47.495197" lon="11.093427">
<ele>678.299</ele>
<time>2020-09-11T15:58:43Z</time>
</trkpt>
<trkpt lat="47.495186" lon="11.09339">
<ele>678.299</ele>
<time>2020-09-11T15:58:44Z</time>
</trkpt>
<trkpt lat="47.495167" lon="11.093351">
<ele>678.299</ele>
<time>2020-09-11T15:58:45Z</time>
</trkpt>
<trkpt lat="47.495163" lon="11.093318">
<ele>678.299</ele>
<time>2020-09-11T15:58:46Z</time>
</trkpt>
<trkpt lat="47.495163" lon="11.09329">
<ele>678.299</ele>
<time>2020-09-11T15:58:47Z</time>
</trkpt>
<trkpt lat="47.495167" lon="11.093269">
<ele>678.299</ele>
<time>2020-09-11T15:58:48Z</time>
</trkpt>
<trkpt lat="47.49519" lon="11.093242">
<ele>678.299</ele>
<time>2020-09-11T15:58:49Z</time>
</trkpt>
<trkpt lat="47.49522" lon="11.0932">
<ele>678.299</ele>
<time>2020-09-11T15:58:50Z</time>
</trkpt>
<trkpt lat="47.495258" lon="11.093159">
<ele>678.299</ele>
<time>2020-09-11T15:58:51Z</time>
</trkpt>
<trkpt lat="47.4953" lon="11.093112">
<ele>678.299</ele>
<time>2020-09-11T15:58:52Z</time>
</trkpt>
<trkpt lat="47.495346" lon="11.093063">
<ele>678.299</ele>
<time>2020-09-11T15:58:53Z</time>
</trkpt>
<trkpt lat="47.495388" lon="11.093016">
<ele>678.299</ele>
<time>2020-09-11T15:58:54Z</time>
</trkpt>
<trkpt lat="47.49543" lon="11.092961">
<ele>677.985</ele>
<time>2020-09-11T15:58:55Z</time>
</trkpt>
<trkpt lat="47.495472" lon="11.092907">
<ele>677.779</ele>
<time>2020-09-11T15:58:56Z</time>
</trkpt>
<trkpt lat="47.495514" lon="11.092853">
<ele>677.647</ele>
<time>2020-09-11T15:58:57Z</time>
</trkpt>
<trkpt lat="47.495556" lon="11.092798">
<ele>677.55</ele>
<time>2020-09-11T15:58:58Z</time>
</trkpt>
<trkpt lat="47.495598" lon="11.092742">
<ele>677.479</ele>
<time>2020-09-11T15:58:59Z</time>
</trkpt>
<trkpt lat="47.495644" lon="11.092676">
<ele>677.401</ele>
<time>2020-09-11T15:59:00Z</time>
</trkpt>
<trkpt lat="47.495689" lon="11.092611">
<ele>677.348</ele>
<time>2020-09-11T15:59:01Z</time>
</trkpt>
<trkpt lat="47.495743" lon="11.092555">
<ele>677.323</ele>
<time>2020-09-11T15:59:02Z</time>
</trkpt>
<trkpt lat="47.495792" lon="11.092499">
<ele>677.323</ele>
<time>2020-09-11T15:59:03Z</time>
</trkpt>
<trkpt lat="47.495846" lon="11.092445">
<ele>677.323</ele>
<time>2020-09-11T15:59:04Z</time>
</trkpt>
<trkpt lat="47.495899" lon="11.092402">
<ele>677.323</ele>
<time>2020-09-11T15:59:05Z</time>
</trkpt>
<trkpt lat="47.495953" lon="11.092359">
<ele>677.07</ele>
<time>2020-09-11T15:59:06Z</time>
</trkpt>
<trkpt lat="47.49601" lon="11.09232">
<ele>676.874</ele>
<time>2020-09-11T15:59:07Z</time>
</trkpt>
<trkpt lat="47.496067" lon="11.092282">
<ele>676.726</ele>
<time>2020-09-11T15:59:08Z</time>
</trkpt>
<trkpt lat="47.496124" lon="11.092245">
<ele>676.624</ele>
<time>2020-09-11T15:59:09Z</time>
</trkpt>
<trkpt lat="47.496181" lon="11.092209">
<ele>676.508</ele>
<time>2020-09-11T15:59:10Z</time>
</trkpt>
<trkpt lat="47.496243" lon="11.092174">
<ele>676.425</ele>
<time>2020-09-11T15:59:11Z</time>
</trkpt>
<trkpt lat="47.496296" lon="11.092138">
<ele>676.374</ele>
<time>2020-09-11T15:59:12Z</time>
</trkpt>
<trkpt lat="47.496357" lon="11.0921">
<ele>676.348</ele>
<time>2020-09-11T15:59:13Z</time>
</trkpt>
<trkpt lat="47.496418" lon="11.092058">
<ele>676.348</ele>
<time>2020-09-11T15:59:14Z</time>
</trkpt>
<trkpt lat="47.496483" lon="11.092018">
<ele>676.348</ele>
<time>2020-09-11T15:59:15Z</time>
</trkpt>
<trkpt lat="47.496544" lon="11.091981">
<ele>676.348</ele>
<time>2020-09-11T15:59:16Z</time>
</trkpt>
<trkpt lat="47.496605" lon="11.091948">
<ele>676.348</ele>
<time>2020-09-11T15:59:17Z</time>
</trkpt>
<trkpt lat="47.496666" lon="11.091916">
<ele>676.13</ele>
<time>2020-09-11T15:59:18Z</time>
</trkpt>
<trkpt lat="47.496723" lon="11.091883">
<ele>675.974</ele>
<time>2020-09-11T15:59:19Z</time>
</trkpt>
<trkpt lat="47.49678" lon="11.091851">
<ele>675.82</ele>
<time>2020-09-11T15:59:20Z</time>
</trkpt>
<trkpt lat="47.496838" lon="11.091817">
<ele>675.699</ele>
<time>2020-09-11T15:59:21Z</time>
</trkpt>
<trkpt lat="47.496895" lon="11.091782">
<ele>675.602</ele>
<time>2020-09-11T15:59:22Z</time>
</trkpt>
<trkpt lat="47.496952" lon="11.091746">
<ele>675.53</ele>
<time>2020-09-11T15:59:23Z</time>
</trkpt>
<trkpt lat="47.497005" lon="11.091706">
<ele>675.484</ele>
<time>2020-09-11T15:59:24Z</time>
</trkpt>
<trkpt lat="47.497059" lon="11.091663">
<ele>675.461</ele>
<time>2020-09-11T15:59:25Z</time>
</trkpt>
<trkpt lat="47.497112" lon="11.09162">
<ele>675.461</ele>
<time>2020-09-11T15:59:26Z</time>
</trkpt>
<trkpt lat="47.497162" lon="11.091573">
<ele>675.461</ele>
<time>2020-09-11T15:59:27Z</time>
</trkpt>
<trkpt lat="47.497215" lon="11.091525">
<ele>675.461</ele>
<time>2020-09-11T15:59:28Z</time>
</trkpt>
<trkpt lat="47.497265" lon="11.091476">
<ele>675.46</ele>
<time>2020-09-11T15:59:29Z</time>
</trkpt>
<trkpt lat="47.497318" lon="11.091426">
<ele>675.46</ele>
<time>2020-09-11T15:59:30Z</time>
</trkpt>
<trkpt lat="47.497368" lon="11.091377">
<ele>675.461</ele>
<time>2020-09-11T15:59:31Z</time>
</trkpt>
<trkpt lat="47.497417" lon="11.091323">
<ele>675.46</ele>
<time>2020-09-11T15:59:32Z</time>
</trkpt>
<trkpt lat="47.497467" lon="11.091267">
<ele>675.461</ele>
<time>2020-09-11T15:59:33Z</time>
</trkpt>
<trkpt lat="47.497513" lon="11.091212">
<ele>675.461</ele>
<time>2020-09-11T15:59:34Z</time>
</trkpt>
<trkpt lat="47.497547" lon="11.091149">
<ele>675.461</ele>
<time>2020-09-11T15:59:35Z</time>
</trkpt>
<trkpt lat="47.497578" lon="11.091086">
<ele>675.217</ele>
<time>2020-09-11T15:59:36Z</time>
</trkpt>
<trkpt lat="47.497593" lon="11.091015">
<ele>675.023</ele>
<time>2020-09-11T15:59:37Z</time>
</trkpt>
<trkpt lat="47.497604" lon="11.090935">
<ele>674.873</ele>
<time>2020-09-11T15:59:38Z</time>
</trkpt>
<trkpt lat="47.497604" lon="11.090852">
<ele>674.766</ele>
<time>2020-09-11T15:59:39Z</time>
</trkpt>
<trkpt lat="47.497597" lon="11.090775">
<ele>674.653</ele>
<time>2020-09-11T15:59:40Z</time>
</trkpt>
<trkpt lat="47.497578" lon="11.090698">
<ele>674.568</ele>
<time>2020-09-11T15:59:41Z</time>
</trkpt>
<trkpt lat="47.497559" lon="11.09062">
<ele>674.511</ele>
<time>2020-09-11T15:59:42Z</time>
</trkpt>
<trkpt lat="47.497532" lon="11.090546">
<ele>674.49</ele>
<time>2020-09-11T15:59:43Z</time>
</trkpt>
<trkpt lat="47.497505" lon="11.090472">
<ele>674.756</ele>
<time>2020-09-11T15:59:44Z</time>
</trkpt>
<trkpt lat="47.497471" lon="11.090397">
<ele>674.964</ele>
<time>2020-09-11T15:59:45Z</time>
</trkpt>
<trkpt lat="47.497437" lon="11.090318">
<ele>675.122</ele>
<time>2020-09-11T15:59:46Z</time>
</trkpt>
<trkpt lat="47.497398" lon="11.090243">
<ele>675.24</ele>
<time>2020-09-11T15:59:47Z</time>
</trkpt>
<trkpt lat="47.497356" lon="11.090171">
<ele>675.105</ele>
<time>2020-09-11T15:59:48Z</time>
</trkpt>
<trkpt lat="47.497314" lon="11.090099">
<ele>675.131</ele>
<time>2020-09-11T15:59:49Z</time>
</trkpt>
<trkpt lat="47.497261" lon="11.09003">
<ele>674.976</ele>
<time>2020-09-11T15:59:50Z</time>
</trkpt>
<trkpt lat="47.497219" lon="11.089959">
<ele>674.843</ele>
<time>2020-09-11T15:59:51Z</time>
</trkpt>
<trkpt lat="47.497169" lon="11.089889">
<ele>674.725</ele>
<time>2020-09-11T15:59:52Z</time>
</trkpt>
<trkpt lat="47.49712" lon="11.089821">
<ele>674.626</ele>
<time>2020-09-11T15:59:53Z</time>
</trkpt>
<trkpt lat="47.49707" lon="11.089758">
<ele>674.555</ele>
<time>2020-09-11T15:59:54Z</time>
</trkpt>
<trkpt lat="47.497021" lon="11.089699">
<ele>674.508</ele>
<time>2020-09-11T15:59:55Z</time>
</trkpt>
<trkpt lat="47.496967" lon="11.089645">
<ele>674.485</ele>
<time>2020-09-11T15:59:56Z</time>
</trkpt>
<trkpt lat="47.496914" lon="11.089592">
<ele>674.485</ele>
<time>2020-09-11T15:59:57Z</time>
</trkpt>
<trkpt lat="47.496861" lon="11.089539">
<ele>674.485</ele>
<time>2020-09-11T15:59:58Z</time>
</trkpt>
<trkpt lat="47.496815" lon="11.089478">
<ele>674.485</ele>
<time>2020-09-11T15:59:59Z</time>
</trkpt>
<trkpt lat="47.496765" lon="11.089418">
<ele>674.485</ele>
<time>2020-09-11T16:00:00Z</time>
</trkpt>
<trkpt lat="47.496719" lon="11.089356">
<ele>674.485</ele>
<time>2020-09-11T16:00:01Z</time>
</trkpt>
<trkpt lat="47.49667" lon="11.089298">
<ele>674.485</ele>
<time>2020-09-11T16:00:02Z</time>
</trkpt>
<trkpt lat="47.496632" lon="11.089227">
<ele>674.783</ele>
<time>2020-09-11T16:00:03Z</time>
</trkpt>
<trkpt lat="47.49659" lon="11.089161">
<ele>675.013</ele>
<time>2020-09-11T16:00:04Z</time>
</trkpt>
<trkpt lat="47.49654" lon="11.089098">
<ele>675.189</ele>
<time>2020-09-11T16:00:05Z</time>
</trkpt>
<trkpt lat="47.496498" lon="11.089031">
<ele>675.321</ele>
<time>2020-09-11T16:00:06Z</time>
</trkpt>
<trkpt lat="47.496452" lon="11.088972">
<ele>675.413</ele>
<time>2020-09-11T16:00:07Z</time>
</trkpt>
<trkpt lat="47.49641" lon="11.088916">
<ele>675.473</ele>
<time>2020-09-11T16:00:08Z</time>
</trkpt>
<trkpt lat="47.496372" lon="11.088859">
<ele>675.52</ele>
<time>2020-09-11T16:00:09Z</time>
</trkpt>
<trkpt lat="47.49633" lon="11.088807">
<ele>675.549</ele>
<time>2020-09-11T16:00:10Z</time>
</trkpt>
<trkpt lat="47.496288" lon="11.088755">
<ele>675.549</ele>
<time>2020-09-11T16:00:11Z</time>
</trkpt>
<trkpt lat="47.496254" lon="11.088706">
<ele>675.549</ele>
<time>2020-09-11T16:00:12Z</time>
</trkpt>
<trkpt lat="47.49622" lon="11.088658">
<ele>675.549</ele>
<time>2020-09-11T16:00:13Z</time>
</trkpt>
<trkpt lat="47.496189" lon="11.088612">
<ele>675.549</ele>
<time>2020-09-11T16:00:14Z</time>
</trkpt>
<trkpt lat="47.496155" lon="11.088566">
<ele>675.549</ele>
<time>2020-09-11T16:00:15Z</time>
</trkpt>
<trkpt lat="47.496124" lon="11.088522">
<ele>675.549</ele>
<time>2020-09-11T16:00:16Z</time>
</trkpt>
<trkpt lat="47.496094" lon="11.088485">
<ele>675.549</ele>
<time>2020-09-11T16:00:17Z</time>
</trkpt>
<trkpt lat="47.496075" lon="11.088451">
<ele>675.549</ele>
<time>2020-09-11T16:00:18Z</time>
</trkpt>
<trkpt lat="47.496059" lon="11.088426">
<ele>675.549</ele>
<time>2020-09-11T16:00:19Z</time>
</trkpt>
<trkpt lat="47.496048" lon="11.088405">
<ele>675.549</ele>
<time>2020-09-11T16:00:20Z</time>
</trkpt>
<trkpt lat="47.496037" lon="11.088386">
<ele>675.549</ele>
<time>2020-09-11T16:00:21Z</time>
</trkpt>
<trkpt lat="47.496025" lon="11.088367">
<ele>675.549</ele>
<time>2020-09-11T16:00:22Z</time>
</trkpt>
<trkpt lat="47.496014" lon="11.088352">
<ele>675.549</ele>
<time>2020-09-11T16:00:23Z</time>
</trkpt>
<trkpt lat="47.49601" lon="11.088342">
<ele>675.549</ele>
<time>2020-09-11T16:00:24Z</time>
</trkpt>
<trkpt lat="47.49601" lon="11.08834">
<ele>675.549</ele>
<time>2020-09-11T16:00:25Z</time>
</trkpt>
<trkpt lat="47.496006" lon="11.08834">
<ele>675.549</ele>
<time>2020-09-11T16:00:27Z</time>
</trkpt>
<trkpt lat="47.495987" lon="11.088305">
<ele>675.549</ele>
<time>2020-09-11T16:00:39Z</time>
</trkpt>
<trkpt lat="47.495975" lon="11.088285">
<ele>675.549</ele>
<time>2020-09-11T16:00:40Z</time>
</trkpt>
<trkpt lat="47.495956" lon="11.088262">
<ele>675.549</ele>
<time>2020-09-11T16:00:41Z</time>
</trkpt>
<trkpt lat="47.495937" lon="11.088231">
<ele>675.549</ele>
<time>2020-09-11T16:00:42Z</time>
</trkpt>
<trkpt lat="47.495918" lon="11.088193">
<ele>675.549</ele>
<time>2020-09-11T16:00:43Z</time>
</trkpt>
<trkpt lat="47.495892" lon="11.088147">
<ele>675.549</ele>
<time>2020-09-11T16:00:44Z</time>
</trkpt>
<trkpt lat="47.495869" lon="11.088085">
<ele>675.549</ele>
<time>2020-09-11T16:00:45Z</time>
</trkpt>
<trkpt lat="47.495846" lon="11.088013">
<ele>675.549</ele>
<time>2020-09-11T16:00:46Z</time>
</trkpt>
<trkpt lat="47.495815" lon="11.087935">
<ele>675.549</ele>
<time>2020-09-11T16:00:47Z</time>
</trkpt>
<trkpt lat="47.495785" lon="11.087852">
<ele>675.549</ele>
<time>2020-09-11T16:00:48Z</time>
</trkpt>
<trkpt lat="47.495754" lon="11.087764">
<ele>675.549</ele>
<time>2020-09-11T16:00:49Z</time>
</trkpt>
<trkpt lat="47.495724" lon="11.087675">
<ele>675.549</ele>
<time>2020-09-11T16:00:50Z</time>
</trkpt>
<trkpt lat="47.495697" lon="11.087587">
<ele>675.549</ele>
<time>2020-09-11T16:00:51Z</time>
</trkpt>
<trkpt lat="47.49567" lon="11.0875">
<ele>675.549</ele>
<time>2020-09-11T16:00:52Z</time>
</trkpt>
<trkpt lat="47.495647" lon="11.087414">
<ele>675.549</ele>
<time>2020-09-11T16:00:53Z</time>
</trkpt>
<trkpt lat="47.495621" lon="11.087327">
<ele>675.549</ele>
<time>2020-09-11T16:00:54Z</time>
</trkpt>
<trkpt lat="47.49559" lon="11.087245">
<ele>675.549</ele>
<time>2020-09-11T16:00:55Z</time>
</trkpt>
<trkpt lat="47.495556" lon="11.087174">
<ele>675.549</ele>
<time>2020-09-11T16:00:56Z</time>
</trkpt>
<trkpt lat="47.495525" lon="11.087106">
<ele>675.549</ele>
<time>2020-09-11T16:00:57Z</time>
</trkpt>
<trkpt lat="47.495491" lon="11.087035">
<ele>675.549</ele>
<time>2020-09-11T16:00:58Z</time>
</trkpt>
<trkpt lat="47.495461" lon="11.086968">
<ele>675.549</ele>
<time>2020-09-11T16:00:59Z</time>
</trkpt>
<trkpt lat="47.495426" lon="11.086902">
<ele>675.549</ele>
<time>2020-09-11T16:01:00Z</time>
</trkpt>
<trkpt lat="47.495399" lon="11.08684">
<ele>675.549</ele>
<time>2020-09-11T16:01:01Z</time>
</trkpt>
<trkpt lat="47.495377" lon="11.086783">
<ele>675.549</ele>
<time>2020-09-11T16:01:02Z</time>
</trkpt>
<trkpt lat="47.49535" lon="11.086724">
<ele>675.549</ele>
<time>2020-09-11T16:01:03Z</time>
</trkpt>
<trkpt lat="47.495327" lon="11.086667">
<ele>675.549</ele>
<time>2020-09-11T16:01:04Z</time>
</trkpt>
<trkpt lat="47.4953" lon="11.086609">
<ele>675.549</ele>
<time>2020-09-11T16:01:05Z</time>
</trkpt>
<trkpt lat="47.49527" lon="11.086552">
<ele>675.549</ele>
<time>2020-09-11T16:01:06Z</time>
</trkpt>
<trkpt lat="47.495243" lon="11.086493">
<ele>675.549</ele>
<time>2020-09-11T16:01:07Z</time>
</trkpt>
<trkpt lat="47.495216" lon="11.086437">
<ele>675.549</ele>
<time>2020-09-11T16:01:08Z</time>
</trkpt>
<trkpt lat="47.49519" lon="11.086376">
<ele>675.549</ele>
<time>2020-09-11T16:01:09Z</time>
</trkpt>
<trkpt lat="47.495159" lon="11.086311">
<ele>675.791</ele>
<time>2020-09-11T16:01:10Z</time>
</trkpt>
<trkpt lat="47.495121" lon="11.086248">
<ele>675.959</ele>
<time>2020-09-11T16:01:11Z</time>
</trkpt>
<trkpt lat="47.495083" lon="11.086185">
<ele>676.138</ele>
<time>2020-09-11T16:01:12Z</time>
</trkpt>
<trkpt lat="47.495052" lon="11.086113">
<ele>676.277</ele>
<time>2020-09-11T16:01:13Z</time>
</trkpt>
<trkpt lat="47.495026" lon="11.086043">
<ele>676.383</ele>
<time>2020-09-11T16:01:14Z</time>
</trkpt>
<trkpt lat="47.494999" lon="11.085975">
<ele>676.457</ele>
<time>2020-09-11T16:01:15Z</time>
</trkpt>
<trkpt lat="47.494968" lon="11.08591">
<ele>676.503</ele>
<time>2020-09-11T16:01:16Z</time>
</trkpt>
<trkpt lat="47.494942" lon="11.085845">
<ele>676.525</ele>
<time>2020-09-11T16:01:17Z</time>
</trkpt>
<trkpt lat="47.494907" lon="11.08578">
<ele>676.525</ele>
<time>2020-09-11T16:01:18Z</time>
</trkpt>
<trkpt lat="47.494873" lon="11.085713">
<ele>676.525</ele>
<time>2020-09-11T16:01:19Z</time>
</trkpt>
<trkpt lat="47.494843" lon="11.085643">
<ele>676.525</ele>
<time>2020-09-11T16:01:20Z</time>
</trkpt>
<trkpt lat="47.494812" lon="11.085574">
<ele>676.525</ele>
<time>2020-09-11T16:01:21Z</time>
</trkpt>
<trkpt lat="47.494785" lon="11.085506">
<ele>676.525</ele>
<time>2020-09-11T16:01:22Z</time>
</trkpt>
<trkpt lat="47.494755" lon="11.085444">
<ele>676.525</ele>
<time>2020-09-11T16:01:23Z</time>
</trkpt>
<trkpt lat="47.494724" lon="11.085382">
<ele>676.525</ele>
<time>2020-09-11T16:01:24Z</time>
</trkpt>
<trkpt lat="47.494694" lon="11.085315">
<ele>676.525</ele>
<time>2020-09-11T16:01:25Z</time>
</trkpt>
<trkpt lat="47.494667" lon="11.085248">
<ele>676.525</ele>
<time>2020-09-11T16:01:26Z</time>
</trkpt>
<trkpt lat="47.494637" lon="11.085187">
<ele>676.525</ele>
<time>2020-09-11T16:01:27Z</time>
</trkpt>
<trkpt lat="47.494606" lon="11.085126">
<ele>676.525</ele>
<time>2020-09-11T16:01:28Z</time>
</trkpt>
<trkpt lat="47.494576" lon="11.08507">
<ele>676.525</ele>
<time>2020-09-11T16:01:29Z</time>
</trkpt>
<trkpt lat="47.494545" lon="11.085018">
<ele>676.525</ele>
<time>2020-09-11T16:01:30Z</time>
</trkpt>
<trkpt lat="47.494522" lon="11.084969">
<ele>676.525</ele>
<time>2020-09-11T16:01:31Z</time>
</trkpt>
<trkpt lat="47.494492" lon="11.08491">
<ele>676.525</ele>
<time>2020-09-11T16:01:32Z</time>
</trkpt>
<trkpt lat="47.494465" lon="11.084851">
<ele>676.525</ele>
<time>2020-09-11T16:01:33Z</time>
</trkpt>
<trkpt lat="47.494446" lon="11.084802">
<ele>676.525</ele>
<time>2020-09-11T16:01:34Z</time>
</trkpt>
<trkpt lat="47.494434" lon="11.084768">
<ele>676.525</ele>
<time>2020-09-11T16:01:35Z</time>
</trkpt>
<trkpt lat="47.494434" lon="11.08476">
<ele>676.735</ele>
<time>2020-09-11T16:01:36Z</time>
</trkpt>
<trkpt lat="47.494438" lon="11.084764">
<ele>676.9</ele>
<time>2020-09-11T16:01:37Z</time>
</trkpt>
<trkpt lat="47.494442" lon="11.084759">
<ele>677.028</ele>
<time>2020-09-11T16:01:38Z</time>
</trkpt>
<trkpt lat="47.49445" lon="11.084753">
<ele>677.046</ele>
<time>2020-09-11T16:01:40Z</time>
</trkpt>
<trkpt lat="47.494457" lon="11.084755">
<ele>676.946</ele>
<time>2020-09-11T16:01:41Z</time>
</trkpt>
<trkpt lat="47.494465" lon="11.08476">
<ele>677.045</ele>
<time>2020-09-11T16:01:42Z</time>
</trkpt>
<trkpt lat="47.494469" lon="11.084765">
<ele>677.128</ele>
<time>2020-09-11T16:01:43Z</time>
</trkpt>
<trkpt lat="47.494476" lon="11.084765">
<ele>677.181</ele>
<time>2020-09-11T16:01:44Z</time>
</trkpt>
<trkpt lat="47.494476" lon="11.084767">
<ele>677.207</ele>
<time>2020-09-11T16:01:45Z</time>
</trkpt>
<trkpt lat="47.494484" lon="11.08476">
<ele>677.227</ele>
<time>2020-09-11T16:01:46Z</time>
</trkpt>
<trkpt lat="47.494484" lon="11.084748">
<ele>677.247</ele>
<time>2020-09-11T16:01:47Z</time>
</trkpt>
<trkpt lat="47.494484" lon="11.08473">
<ele>677.267</ele>
<time>2020-09-11T16:01:48Z</time>
</trkpt>
<trkpt lat="47.494495" lon="11.084706">
<ele>677.293</ele>
<time>2020-09-11T16:01:49Z</time>
</trkpt>
<trkpt lat="47.494514" lon="11.084686">
<ele>677.323</ele>
<time>2020-09-11T16:01:50Z</time>
</trkpt>
<trkpt lat="47.494541" lon="11.084669">
<ele>677.323</ele>
<time>2020-09-11T16:01:51Z</time>
</trkpt>
<trkpt lat="47.494568" lon="11.084646">
<ele>677.323</ele>
<time>2020-09-11T16:01:52Z</time>
</trkpt>
<trkpt lat="47.494583" lon="11.084634">
<ele>677.323</ele>
<time>2020-09-11T16:01:53Z</time>
</trkpt>
<trkpt lat="47.494598" lon="11.084621">
<ele>677.323</ele>
<time>2020-09-11T16:01:54Z</time>
</trkpt>
<trkpt lat="47.494614" lon="11.084604">
<ele>677.323</ele>
<time>2020-09-11T16:01:55Z</time>
</trkpt>
<trkpt lat="47.494644" lon="11.08458">
<ele>677.323</ele>
<time>2020-09-11T16:01:56Z</time>
</trkpt>
<trkpt lat="47.494675" lon="11.084547">
<ele>677.323</ele>
<time>2020-09-11T16:01:57Z</time>
</trkpt>
<trkpt lat="47.49469" lon="11.084507">
<ele>677.323</ele>
<time>2020-09-11T16:01:58Z</time>
</trkpt>
<trkpt lat="47.494705" lon="11.084458">
<ele>677.323</ele>
<time>2020-09-11T16:01:59Z</time>
</trkpt>
<trkpt lat="47.494698" lon="11.084412">
<ele>677.323</ele>
<time>2020-09-11T16:02:00Z</time>
</trkpt>
<trkpt lat="47.494682" lon="11.084368">
<ele>677.323</ele>
<time>2020-09-11T16:02:01Z</time>
</trkpt>
<trkpt lat="47.494667" lon="11.084317">
<ele>677.323</ele>
<time>2020-09-11T16:02:02Z</time>
</trkpt>
<trkpt lat="47.494652" lon="11.084256">
<ele>677.323</ele>
<time>2020-09-11T16:02:03Z</time>
</trkpt>
<trkpt lat="47.494644" lon="11.084193">
<ele>677.323</ele>
<time>2020-09-11T16:02:04Z</time>
</trkpt>
<trkpt lat="47.494629" lon="11.084128">
<ele>677.323</ele>
<time>2020-09-11T16:02:05Z</time>
</trkpt>
<trkpt lat="47.49461" lon="11.08406">
<ele>677.323</ele>
<time>2020-09-11T16:02:06Z</time>
</trkpt>
<trkpt lat="47.494587" lon="11.083995">
<ele>677.323</ele>
<time>2020-09-11T16:02:07Z</time>
</trkpt>
<trkpt lat="47.494568" lon="11.083928">
<ele>677.323</ele>
<time>2020-09-11T16:02:08Z</time>
</trkpt>
<trkpt lat="47.494553" lon="11.083863">
<ele>677.323</ele>
<time>2020-09-11T16:02:09Z</time>
</trkpt>
<trkpt lat="47.494541" lon="11.083801">
<ele>677.323</ele>
<time>2020-09-11T16:02:10Z</time>
</trkpt>
<trkpt lat="47.49453" lon="11.083738">
<ele>677.323</ele>
<time>2020-09-11T16:02:11Z</time>
</trkpt>
<trkpt lat="47.494526" lon="11.083675">
<ele>677.323</ele>
<time>2020-09-11T16:02:12Z</time>
</trkpt>
<trkpt lat="47.494537" lon="11.083611">
<ele>677.323</ele>
<time>2020-09-11T16:02:13Z</time>
</trkpt>
<trkpt lat="47.494553" lon="11.083552">
<ele>677.323</ele>
<time>2020-09-11T16:02:14Z</time>
</trkpt>
<trkpt lat="47.494576" lon="11.083504">
<ele>677.323</ele>
<time>2020-09-11T16:02:15Z</time>
</trkpt>
<trkpt lat="47.494595" lon="11.083451">
<ele>677.323</ele>
<time>2020-09-11T16:02:16Z</time>
</trkpt>
<trkpt lat="47.49461" lon="11.083393">
<ele>677.323</ele>
<time>2020-09-11T16:02:17Z</time>
</trkpt>
<trkpt lat="47.494633" lon="11.083332">
<ele>677.323</ele>
<time>2020-09-11T16:02:18Z</time>
</trkpt>
<trkpt lat="47.494648" lon="11.08327">
<ele>677.323</ele>
<time>2020-09-11T16:02:19Z</time>
</trkpt>
<trkpt lat="47.494656" lon="11.083205">
<ele>677.323</ele>
<time>2020-09-11T16:02:20Z</time>
</trkpt>
<trkpt lat="47.494644" lon="11.083148">
<ele>677.583</ele>
<time>2020-09-11T16:02:21Z</time>
</trkpt>
<trkpt lat="47.494617" lon="11.0831">
<ele>677.772</ele>
<time>2020-09-11T16:02:22Z</time>
</trkpt>
<trkpt lat="47.494579" lon="11.083058">
<ele>677.964</ele>
<time>2020-09-11T16:02:23Z</time>
</trkpt>
<trkpt lat="47.494541" lon="11.083022">
<ele>678.11</ele>
<time>2020-09-11T16:02:24Z</time>
</trkpt>
<trkpt lat="47.494499" lon="11.082982">
<ele>678.222</ele>
<time>2020-09-11T16:02:25Z</time>
</trkpt>
<trkpt lat="47.494453" lon="11.082936">
<ele>678.307</ele>
<time>2020-09-11T16:02:26Z</time>
</trkpt>
<trkpt lat="47.494411" lon="11.082891">
<ele>678.362</ele>
<time>2020-09-11T16:02:27Z</time>
</trkpt>
<trkpt lat="47.49437" lon="11.082842">
<ele>678.388</ele>
<time>2020-09-11T16:02:28Z</time>
</trkpt>
<trkpt lat="47.494324" lon="11.082789">
<ele>678.388</ele>
<time>2020-09-11T16:02:29Z</time>
</trkpt>
<trkpt lat="47.494286" lon="11.082738">
<ele>678.388</ele>
<time>2020-09-11T16:02:30Z</time>
</trkpt>
<trkpt lat="47.494251" lon="11.082685">
<ele>678.388</ele>
<time>2020-09-11T16:02:31Z</time>
</trkpt>
<trkpt lat="47.494209" lon="11.08263">
<ele>678.388</ele>
<time>2020-09-11T16:02:32Z</time>
</trkpt>
<trkpt lat="47.494179" lon="11.082574">
<ele>678.388</ele>
<time>2020-09-11T16:02:33Z</time>
</trkpt>
<trkpt lat="47.494148" lon="11.082518">
<ele>678.388</ele>
<time>2020-09-11T16:02:34Z</time>
</trkpt>
<trkpt lat="47.494118" lon="11.082463">
<ele>678.388</ele>
<time>2020-09-11T16:02:35Z</time>
</trkpt>
<trkpt lat="47.494083" lon="11.082413">
<ele>678.388</ele>
<time>2020-09-11T16:02:36Z</time>
</trkpt>
<trkpt lat="47.494049" lon="11.082367">
<ele>678.388</ele>
<time>2020-09-11T16:02:37Z</time>
</trkpt>
<trkpt lat="47.494015" lon="11.082316">
<ele>678.388</ele>
<time>2020-09-11T16:02:38Z</time>
</trkpt>
<trkpt lat="47.493984" lon="11.082264">
<ele>678.388</ele>
<time>2020-09-11T16:02:39Z</time>
</trkpt>
<trkpt lat="47.49395" lon="11.082207">
<ele>678.388</ele>
<time>2020-09-11T16:02:40Z</time>
</trkpt>
<trkpt lat="47.493916" lon="11.082151">
<ele>678.388</ele>
<time>2020-09-11T16:02:41Z</time>
</trkpt>
<trkpt lat="47.493881" lon="11.082098">
<ele>678.388</ele>
<time>2020-09-11T16:02:42Z</time>
</trkpt>
<trkpt lat="47.493847" lon="11.082044">
<ele>678.388</ele>
<time>2020-09-11T16:02:43Z</time>
</trkpt>
<trkpt lat="47.493809" lon="11.081989">
<ele>678.388</ele>
<time>2020-09-11T16:02:44Z</time>
</trkpt>
<trkpt lat="47.493771" lon="11.081933">
<ele>678.388</ele>
<time>2020-09-11T16:02:45Z</time>
</trkpt>
<trkpt lat="47.493732" lon="11.081874">
<ele>678.388</ele>
<time>2020-09-11T16:02:46Z</time>
</trkpt>
<trkpt lat="47.493694" lon="11.081812">
<ele>678.388</ele>
<time>2020-09-11T16:02:47Z</time>
</trkpt>
<trkpt lat="47.493649" lon="11.081746">
<ele>678.388</ele>
<time>2020-09-11T16:02:48Z</time>
</trkpt>
<trkpt lat="47.493607" lon="11.081681">
<ele>678.388</ele>
<time>2020-09-11T16:02:49Z</time>
</trkpt>
<trkpt lat="47.493568" lon="11.081616">
<ele>678.665</ele>
<time>2020-09-11T16:02:50Z</time>
</trkpt>
<trkpt lat="47.493526" lon="11.081552">
<ele>678.879</ele>
<time>2020-09-11T16:02:51Z</time>
</trkpt>
<trkpt lat="47.493492" lon="11.081487">
<ele>679.021</ele>
<time>2020-09-11T16:02:52Z</time>
</trkpt>
<trkpt lat="47.493454" lon="11.081424">
<ele>679.171</ele>
<time>2020-09-11T16:02:53Z</time>
</trkpt>
<trkpt lat="47.49342" lon="11.081361">
<ele>679.287</ele>
<time>2020-09-11T16:02:54Z</time>
</trkpt>
<trkpt lat="47.493382" lon="11.081296">
<ele>679.371</ele>
<time>2020-09-11T16:02:55Z</time>
</trkpt>
<trkpt lat="47.493351" lon="11.081235">
<ele>679.425</ele>
<time>2020-09-11T16:02:56Z</time>
</trkpt>
<trkpt lat="47.493313" lon="11.081175">
<ele>679.452</ele>
<time>2020-09-11T16:02:57Z</time>
</trkpt>
<trkpt lat="47.493282" lon="11.081114">
<ele>679.452</ele>
<time>2020-09-11T16:02:58Z</time>
</trkpt>
<trkpt lat="47.493248" lon="11.08105">
<ele>679.452</ele>
<time>2020-09-11T16:02:59Z</time>
</trkpt>
<trkpt lat="47.493214" lon="11.080985">
<ele>679.452</ele>
<time>2020-09-11T16:03:00Z</time>
</trkpt>
<trkpt lat="47.493179" lon="11.080918">
<ele>679.452</ele>
<time>2020-09-11T16:03:01Z</time>
</trkpt>
<trkpt lat="47.493145" lon="11.080856">
<ele>679.452</ele>
<time>2020-09-11T16:03:02Z</time>
</trkpt>
<trkpt lat="47.493107" lon="11.080795">
<ele>679.452</ele>
<time>2020-09-11T16:03:03Z</time>
</trkpt>
<trkpt lat="47.493069" lon="11.080735">
<ele>679.452</ele>
<time>2020-09-11T16:03:04Z</time>
</trkpt>
<trkpt lat="47.493023" lon="11.080678">
<ele>679.452</ele>
<time>2020-09-11T16:03:05Z</time>
</trkpt>
<trkpt lat="47.492981" lon="11.080624">
<ele>679.452</ele>
<time>2020-09-11T16:03:06Z</time>
</trkpt>
<trkpt lat="47.492947" lon="11.080568">
<ele>679.452</ele>
<time>2020-09-11T16:03:07Z</time>
</trkpt>
<trkpt lat="47.492905" lon="11.080517">
<ele>679.452</ele>
<time>2020-09-11T16:03:08Z</time>
</trkpt>
<trkpt lat="47.492867" lon="11.080466">
<ele>679.452</ele>
<time>2020-09-11T16:03:09Z</time>
</trkpt>
<trkpt lat="47.492825" lon="11.080422">
<ele>679.452</ele>
<time>2020-09-11T16:03:10Z</time>
</trkpt>
<trkpt lat="47.492786" lon="11.080379">
<ele>679.452</ele>
<time>2020-09-11T16:03:11Z</time>
</trkpt>
<trkpt lat="47.492748" lon="11.080338">
<ele>679.664</ele>
<time>2020-09-11T16:03:12Z</time>
</trkpt>
<trkpt lat="47.492718" lon="11.080293">
<ele>679.864</ele>
<time>2020-09-11T16:03:13Z</time>
</trkpt>
<trkpt lat="47.492691" lon="11.080236">
<ele>680.03</ele>
<time>2020-09-11T16:03:14Z</time>
</trkpt>
<trkpt lat="47.492687" lon="11.080172">
<ele>680.167</ele>
<time>2020-09-11T16:03:15Z</time>
</trkpt>
<trkpt lat="47.492699" lon="11.080112">
<ele>680.273</ele>
<time>2020-09-11T16:03:16Z</time>
</trkpt>
<trkpt lat="47.49271" lon="11.08005">
<ele>680.352</ele>
<time>2020-09-11T16:03:17Z</time>
</trkpt>
<trkpt lat="47.492718" lon="11.079987">
<ele>680.403</ele>
<time>2020-09-11T16:03:18Z</time>
</trkpt>
<trkpt lat="47.492722" lon="11.079922">
<ele>680.428</ele>
<time>2020-09-11T16:03:19Z</time>
</trkpt>
<trkpt lat="47.492729" lon="11.079857">
<ele>680.428</ele>
<time>2020-09-11T16:03:20Z</time>
</trkpt>
<trkpt lat="47.492737" lon="11.079787">
<ele>680.428</ele>
<time>2020-09-11T16:03:21Z</time>
</trkpt>
<trkpt lat="47.492741" lon="11.079714">
<ele>680.209</ele>
<time>2020-09-11T16:03:22Z</time>
</trkpt>
<trkpt lat="47.492741" lon="11.07964">
<ele>679.998</ele>
<time>2020-09-11T16:03:23Z</time>
</trkpt>
<trkpt lat="47.492737" lon="11.079563">
<ele>679.824</ele>
<time>2020-09-11T16:03:24Z</time>
</trkpt>
<trkpt lat="47.492733" lon="11.079485">
<ele>679.69</ele>
<time>2020-09-11T16:03:25Z</time>
</trkpt>
<trkpt lat="47.492729" lon="11.079409">
<ele>679.589</ele>
<time>2020-09-11T16:03:26Z</time>
</trkpt>
<trkpt lat="47.492725" lon="11.07933">
<ele>679.518</ele>
<time>2020-09-11T16:03:27Z</time>
</trkpt>
<trkpt lat="47.492722" lon="11.079249">
<ele>679.473</ele>
<time>2020-09-11T16:03:28Z</time>
</trkpt>
<trkpt lat="47.492718" lon="11.079171">
<ele>679.452</ele>
<time>2020-09-11T16:03:29Z</time>
</trkpt>
<trkpt lat="47.492714" lon="11.07909">
<ele>679.452</ele>
<time>2020-09-11T16:03:30Z</time>
</trkpt>
<trkpt lat="47.492706" lon="11.079008">
<ele>679.452</ele>
<time>2020-09-11T16:03:31Z</time>
</trkpt>
<trkpt lat="47.492702" lon="11.078924">
<ele>679.452</ele>
<time>2020-09-11T16:03:32Z</time>
</trkpt>
<trkpt lat="47.492702" lon="11.078836">
<ele>679.452</ele>
<time>2020-09-11T16:03:33Z</time>
</trkpt>
<trkpt lat="47.492699" lon="11.078753">
<ele>679.752</ele>
<time>2020-09-11T16:03:34Z</time>
</trkpt>
<trkpt lat="47.492699" lon="11.078673">
<ele>679.977</ele>
<time>2020-09-11T16:03:35Z</time>
</trkpt>
<trkpt lat="47.492702" lon="11.078589">
<ele>680.146</ele>
<time>2020-09-11T16:03:36Z</time>
</trkpt>
<trkpt lat="47.492706" lon="11.078506">
<ele>680.27</ele>
<time>2020-09-11T16:03:37Z</time>
</trkpt>
<trkpt lat="47.49271" lon="11.078424">
<ele>680.352</ele>
<time>2020-09-11T16:03:38Z</time>
</trkpt>
<trkpt lat="47.49271" lon="11.078341">
<ele>680.404</ele>
<time>2020-09-11T16:03:39Z</time>
</trkpt>
<trkpt lat="47.49271" lon="11.07826">
<ele>680.428</ele>
<time>2020-09-11T16:03:40Z</time>
</trkpt>
<trkpt lat="47.492718" lon="11.078176">
<ele>680.428</ele>
<time>2020-09-11T16:03:41Z</time>
</trkpt>
<trkpt lat="47.492722" lon="11.078092">
<ele>680.428</ele>
<time>2020-09-11T16:03:42Z</time>
</trkpt>
<trkpt lat="47.492729" lon="11.078009">
<ele>680.428</ele>
<time>2020-09-11T16:03:43Z</time>
</trkpt>
<trkpt lat="47.492733" lon="11.077925">
<ele>680.428</ele>
<time>2020-09-11T16:03:44Z</time>
</trkpt>
<trkpt lat="47.492744" lon="11.07784">
<ele>680.428</ele>
<time>2020-09-11T16:03:45Z</time>
</trkpt>
<trkpt lat="47.492752" lon="11.077755">
<ele>680.428</ele>
<time>2020-09-11T16:03:46Z</time>
</trkpt>
<trkpt lat="47.492756" lon="11.077668">
<ele>680.428</ele>
<time>2020-09-11T16:03:47Z</time>
</trkpt>
<trkpt lat="47.492767" lon="11.077583">
<ele>680.665</ele>
<time>2020-09-11T16:03:48Z</time>
</trkpt>
<trkpt lat="47.492775" lon="11.077499">
<ele>680.849</ele>
<time>2020-09-11T16:03:49Z</time>
</trkpt>
<trkpt lat="47.492783" lon="11.077418">
<ele>680.99</ele>
<time>2020-09-11T16:03:50Z</time>
</trkpt>
<trkpt lat="47.492786" lon="11.077336">
<ele>681.095</ele>
<time>2020-09-11T16:03:51Z</time>
</trkpt>
<trkpt lat="47.492798" lon="11.077254">
<ele>681.168</ele>
<time>2020-09-11T16:03:52Z</time>
</trkpt>
<trkpt lat="47.492805" lon="11.077175">
<ele>681.243</ele>
<time>2020-09-11T16:03:53Z</time>
</trkpt>
<trkpt lat="47.492813" lon="11.077095">
<ele>681.292</ele>
<time>2020-09-11T16:03:54Z</time>
</trkpt>
<trkpt lat="47.492817" lon="11.077013">
<ele>681.316</ele>
<time>2020-09-11T16:03:55Z</time>
</trkpt>
<trkpt lat="47.492828" lon="11.07693">
<ele>681.316</ele>
<time>2020-09-11T16:03:56Z</time>
</trkpt>
<trkpt lat="47.492836" lon="11.076846">
<ele>681.316</ele>
<time>2020-09-11T16:03:57Z</time>
</trkpt>
<trkpt lat="47.49284" lon="11.076768">
<ele>681.316</ele>
<time>2020-09-11T16:03:58Z</time>
</trkpt>
<trkpt lat="47.492844" lon="11.076692">
<ele>681.316</ele>
<time>2020-09-11T16:03:59Z</time>
</trkpt>
<trkpt lat="47.492851" lon="11.076618">
<ele>681.316</ele>
<time>2020-09-11T16:04:00Z</time>
</trkpt>
<trkpt lat="47.492851" lon="11.076544">
<ele>681.316</ele>
<time>2020-09-11T16:04:01Z</time>
</trkpt>
<trkpt lat="47.492855" lon="11.076467">
<ele>681.316</ele>
<time>2020-09-11T16:04:02Z</time>
</trkpt>
<trkpt lat="47.492859" lon="11.076388">
<ele>681.316</ele>
<time>2020-09-11T16:04:03Z</time>
</trkpt>
<trkpt lat="47.492859" lon="11.076305">
<ele>681.316</ele>
<time>2020-09-11T16:04:04Z</time>
</trkpt>
<trkpt lat="47.492863" lon="11.076221">
<ele>681.316</ele>
<time>2020-09-11T16:04:05Z</time>
</trkpt>
<trkpt lat="47.492867" lon="11.076141">
<ele>681.316</ele>
<time>2020-09-11T16:04:06Z</time>
</trkpt>
<trkpt lat="47.49287" lon="11.076058">
<ele>681.316</ele>
<time>2020-09-11T16:04:07Z</time>
</trkpt>
<trkpt lat="47.49287" lon="11.075976">
<ele>681.316</ele>
<time>2020-09-11T16:04:08Z</time>
</trkpt>
<trkpt lat="47.49287" lon="11.075893">
<ele>681.316</ele>
<time>2020-09-11T16:04:09Z</time>
</trkpt>
<trkpt lat="47.49287" lon="11.07581">
<ele>681.562</ele>
<time>2020-09-11T16:04:10Z</time>
</trkpt>
<trkpt lat="47.492867" lon="11.075727">
<ele>681.755</ele>
<time>2020-09-11T16:04:11Z</time>
</trkpt>
<trkpt lat="47.492867" lon="11.075645">
<ele>681.885</ele>
<time>2020-09-11T16:04:12Z</time>
</trkpt>
<trkpt lat="47.492867" lon="11.075563">
<ele>682.029</ele>
<time>2020-09-11T16:04:13Z</time>
</trkpt>
<trkpt lat="47.492859" lon="11.075483">
<ele>682.139</ele>
<time>2020-09-11T16:04:14Z</time>
</trkpt>
<trkpt lat="47.492855" lon="11.075402">
<ele>682.217</ele>
<time>2020-09-11T16:04:15Z</time>
</trkpt>
<trkpt lat="47.492855" lon="11.07532">
<ele>682.268</ele>
<time>2020-09-11T16:04:16Z</time>
</trkpt>
<trkpt lat="47.492851" lon="11.07524">
<ele>682.292</ele>
<time>2020-09-11T16:04:17Z</time>
</trkpt>
<trkpt lat="47.492847" lon="11.075158">
<ele>682.292</ele>
<time>2020-09-11T16:04:18Z</time>
</trkpt>
<trkpt lat="47.492844" lon="11.075082">
<ele>682.292</ele>
<time>2020-09-11T16:04:19Z</time>
</trkpt>
<trkpt lat="47.492836" lon="11.075002">
<ele>682.292</ele>
<time>2020-09-11T16:04:20Z</time>
</trkpt>
<trkpt lat="47.492828" lon="11.074922">
<ele>682.292</ele>
<time>2020-09-11T16:04:21Z</time>
</trkpt>
<trkpt lat="47.492821" lon="11.074839">
<ele>682.292</ele>
<time>2020-09-11T16:04:22Z</time>
</trkpt>
<trkpt lat="47.492817" lon="11.074755">
<ele>682.292</ele>
<time>2020-09-11T16:04:23Z</time>
</trkpt>
<trkpt lat="47.492805" lon="11.074674">
<ele>682.292</ele>
<time>2020-09-11T16:04:24Z</time>
</trkpt>
<trkpt lat="47.492794" lon="11.074592">
<ele>682.292</ele>
<time>2020-09-11T16:04:25Z</time>
</trkpt>
<trkpt lat="47.492779" lon="11.074516">
<ele>682.292</ele>
<time>2020-09-11T16:04:26Z</time>
</trkpt>
<trkpt lat="47.49276" lon="11.074441">
<ele>682.292</ele>
<time>2020-09-11T16:04:27Z</time>
</trkpt>
<trkpt lat="47.492744" lon="11.074362">
<ele>682.292</ele>
<time>2020-09-11T16:04:28Z</time>
</trkpt>
<trkpt lat="47.492729" lon="11.074282">
<ele>682.292</ele>
<time>2020-09-11T16:04:29Z</time>
</trkpt>
<trkpt lat="47.492718" lon="11.074202">
<ele>682.292</ele>
<time>2020-09-11T16:04:30Z</time>
</trkpt>
<trkpt lat="47.492702" lon="11.074122">
<ele>682.292</ele>
<time>2020-09-11T16:04:31Z</time>
</trkpt>
<trkpt lat="47.492691" lon="11.07404">
<ele>682.292</ele>
<time>2020-09-11T16:04:32Z</time>
</trkpt>
<trkpt lat="47.49268" lon="11.073961">
<ele>682.292</ele>
<time>2020-09-11T16:04:33Z</time>
</trkpt>
<trkpt lat="47.492664" lon="11.073885">
<ele>682.292</ele>
<time>2020-09-11T16:04:34Z</time>
</trkpt>
<trkpt lat="47.492653" lon="11.073813">
<ele>682.292</ele>
<time>2020-09-11T16:04:35Z</time>
</trkpt>
<trkpt lat="47.49263" lon="11.073743">
<ele>682.292</ele>
<time>2020-09-11T16:04:36Z</time>
</trkpt>
<trkpt lat="47.492603" lon="11.073671">
<ele>682.292</ele>
<time>2020-09-11T16:04:37Z</time>
</trkpt>
<trkpt lat="47.492577" lon="11.0736">
<ele>682.292</ele>
<time>2020-09-11T16:04:38Z</time>
</trkpt>
<trkpt lat="47.492554" lon="11.073522">
<ele>682.292</ele>
<time>2020-09-11T16:04:39Z</time>
</trkpt>
<trkpt lat="47.492527" lon="11.073445">
<ele>682.292</ele>
<time>2020-09-11T16:04:40Z</time>
</trkpt>
<trkpt lat="47.4925" lon="11.073368">
<ele>682.292</ele>
<time>2020-09-11T16:04:41Z</time>
</trkpt>
<trkpt lat="47.492477" lon="11.073292">
<ele>682.292</ele>
<time>2020-09-11T16:04:42Z</time>
</trkpt>
<trkpt lat="47.492451" lon="11.073218">
<ele>682.292</ele>
<time>2020-09-11T16:04:43Z</time>
</trkpt>
<trkpt lat="47.492428" lon="11.073147">
<ele>682.292</ele>
<time>2020-09-11T16:04:44Z</time>
</trkpt>
<trkpt lat="47.492401" lon="11.073073">
<ele>682.292</ele>
<time>2020-09-11T16:04:45Z</time>
</trkpt>
<trkpt lat="47.492382" lon="11.073002">
<ele>682.292</ele>
<time>2020-09-11T16:04:46Z</time>
</trkpt>
<trkpt lat="47.492359" lon="11.072928">
<ele>682.292</ele>
<time>2020-09-11T16:04:47Z</time>
</trkpt>
<trkpt lat="47.492332" lon="11.072853">
<ele>682.292</ele>
<time>2020-09-11T16:04:48Z</time>
</trkpt>
<trkpt lat="47.49231" lon="11.072777">
<ele>682.292</ele>
<time>2020-09-11T16:04:49Z</time>
</trkpt>
<trkpt lat="47.492287" lon="11.072701">
<ele>682.292</ele>
<time>2020-09-11T16:04:50Z</time>
</trkpt>
<trkpt lat="47.492264" lon="11.072625">
<ele>682.292</ele>
<time>2020-09-11T16:04:51Z</time>
</trkpt>
<trkpt lat="47.492237" lon="11.07255">
<ele>682.292</ele>
<time>2020-09-11T16:04:52Z</time>
</trkpt>
<trkpt lat="47.49221" lon="11.072474">
<ele>682.292</ele>
<time>2020-09-11T16:04:53Z</time>
</trkpt>
<trkpt lat="47.492188" lon="11.072398">
<ele>682.587</ele>
<time>2020-09-11T16:04:54Z</time>
</trkpt>
<trkpt lat="47.492168" lon="11.072327">
<ele>682.81</ele>
<time>2020-09-11T16:04:55Z</time>
</trkpt>
<trkpt lat="47.492146" lon="11.072253">
<ele>682.977</ele>
<time>2020-09-11T16:04:56Z</time>
</trkpt>
<trkpt lat="47.492126" lon="11.07218">
<ele>683.1</ele>
<time>2020-09-11T16:04:57Z</time>
</trkpt>
<trkpt lat="47.4921" lon="11.072103">
<ele>683.186</ele>
<time>2020-09-11T16:04:58Z</time>
</trkpt>
<trkpt lat="47.492077" lon="11.072032">
<ele>683.239</ele>
<time>2020-09-11T16:04:59Z</time>
</trkpt>
<trkpt lat="47.492054" lon="11.071959">
<ele>683.268</ele>
<time>2020-09-11T16:05:00Z</time>
</trkpt>
<trkpt lat="47.492031" lon="11.071883">
<ele>683.268</ele>
<time>2020-09-11T16:05:01Z</time>
</trkpt>
<trkpt lat="47.492004" lon="11.07181">
<ele>683.268</ele>
<time>2020-09-11T16:05:02Z</time>
</trkpt>
<trkpt lat="47.491978" lon="11.071736">
<ele>683.268</ele>
<time>2020-09-11T16:05:03Z</time>
</trkpt>
<trkpt lat="47.491955" lon="11.071662">
<ele>683.268</ele>
<time>2020-09-11T16:05:04Z</time>
</trkpt>
<trkpt lat="47.491932" lon="11.071589">
<ele>683.268</ele>
<time>2020-09-11T16:05:05Z</time>
</trkpt>
<trkpt lat="47.491905" lon="11.071516">
<ele>683.268</ele>
<time>2020-09-11T16:05:06Z</time>
</trkpt>
<trkpt lat="47.491879" lon="11.071446">
<ele>683.268</ele>
<time>2020-09-11T16:05:07Z</time>
</trkpt>
<trkpt lat="47.491852" lon="11.071375">
<ele>683.268</ele>
<time>2020-09-11T16:05:08Z</time>
</trkpt>
<trkpt lat="47.491825" lon="11.071303">
<ele>683.54</ele>
<time>2020-09-11T16:05:09Z</time>
</trkpt>
<trkpt lat="47.491802" lon="11.071232">
<ele>683.755</ele>
<time>2020-09-11T16:05:10Z</time>
</trkpt>
<trkpt lat="47.491776" lon="11.07116">
<ele>683.92</ele>
<time>2020-09-11T16:05:11Z</time>
</trkpt>
<trkpt lat="47.491753" lon="11.071089">
<ele>684.035</ele>
<time>2020-09-11T16:05:12Z</time>
</trkpt>
<trkpt lat="47.491722" lon="11.07102">
<ele>684.156</ele>
<time>2020-09-11T16:05:13Z</time>
</trkpt>
<trkpt lat="47.491695" lon="11.070951">
<ele>684.484</ele>
<time>2020-09-11T16:05:14Z</time>
</trkpt>
<trkpt lat="47.491673" lon="11.070879">
<ele>684.743</ele>
<time>2020-09-11T16:05:15Z</time>
</trkpt>
<trkpt lat="47.491646" lon="11.070808">
<ele>684.932</ele>
<time>2020-09-11T16:05:16Z</time>
</trkpt>
<trkpt lat="47.491615" lon="11.070737">
<ele>685.142</ele>
<time>2020-09-11T16:05:17Z</time>
</trkpt>
<trkpt lat="47.491592" lon="11.070663">
<ele>685.228</ele>
<time>2020-09-11T16:05:18Z</time>
</trkpt>
<trkpt lat="47.491562" lon="11.070594">
<ele>685.281</ele>
<time>2020-09-11T16:05:19Z</time>
</trkpt>
<trkpt lat="47.491535" lon="11.070521">
<ele>685.306</ele>
<time>2020-09-11T16:05:20Z</time>
</trkpt>
<trkpt lat="47.491508" lon="11.070452">
<ele>685.309</ele>
<time>2020-09-11T16:05:21Z</time>
</trkpt>
<trkpt lat="47.491482" lon="11.070383">
<ele>685.309</ele>
<time>2020-09-11T16:05:22Z</time>
</trkpt>
<trkpt lat="47.491451" lon="11.070312">
<ele>685.309</ele>
<time>2020-09-11T16:05:23Z</time>
</trkpt>
<trkpt lat="47.491428" lon="11.070238">
<ele>685.309</ele>
<time>2020-09-11T16:05:24Z</time>
</trkpt>
<trkpt lat="47.491402" lon="11.070168">
<ele>685.309</ele>
<time>2020-09-11T16:05:25Z</time>
</trkpt>
<trkpt lat="47.491375" lon="11.0701">
<ele>685.309</ele>
<time>2020-09-11T16:05:26Z</time>
</trkpt>
<trkpt lat="47.491348" lon="11.070032">
<ele>685.309</ele>
<time>2020-09-11T16:05:27Z</time>
</trkpt>
<trkpt lat="47.491322" lon="11.069963">
<ele>685.309</ele>
<time>2020-09-11T16:05:28Z</time>
</trkpt>
<trkpt lat="47.491295" lon="11.069893">
<ele>685.309</ele>
<time>2020-09-11T16:05:29Z</time>
</trkpt>
<trkpt lat="47.491268" lon="11.069825">
<ele>685.309</ele>
<time>2020-09-11T16:05:30Z</time>
</trkpt>
<trkpt lat="47.491238" lon="11.069758">
<ele>685.309</ele>
<time>2020-09-11T16:05:31Z</time>
</trkpt>
<trkpt lat="47.491211" lon="11.069694">
<ele>685.309</ele>
<time>2020-09-11T16:05:32Z</time>
</trkpt>
<trkpt lat="47.491188" lon="11.069625">
<ele>685.309</ele>
<time>2020-09-11T16:05:33Z</time>
</trkpt>
<trkpt lat="47.491158" lon="11.069559">
<ele>685.309</ele>
<time>2020-09-11T16:05:34Z</time>
</trkpt>
<trkpt lat="47.491131" lon="11.069492">
<ele>685.309</ele>
<time>2020-09-11T16:05:35Z</time>
</trkpt>
<trkpt lat="47.491104" lon="11.069423">
<ele>685.309</ele>
<time>2020-09-11T16:05:36Z</time>
</trkpt>
<trkpt lat="47.491074" lon="11.069356">
<ele>685.309</ele>
<time>2020-09-11T16:05:37Z</time>
</trkpt>
<trkpt lat="47.491047" lon="11.069288">
<ele>685.309</ele>
<time>2020-09-11T16:05:38Z</time>
</trkpt>
<trkpt lat="47.49102" lon="11.06922">
<ele>685.309</ele>
<time>2020-09-11T16:05:39Z</time>
</trkpt>
<trkpt lat="47.490993" lon="11.069153">
<ele>685.309</ele>
<time>2020-09-11T16:05:40Z</time>
</trkpt>
<trkpt lat="47.490971" lon="11.069088">
<ele>685.309</ele>
<time>2020-09-11T16:05:41Z</time>
</trkpt>
<trkpt lat="47.490948" lon="11.069025">
<ele>685.309</ele>
<time>2020-09-11T16:05:42Z</time>
</trkpt>
<trkpt lat="47.490921" lon="11.068958">
<ele>685.309</ele>
<time>2020-09-11T16:05:43Z</time>
</trkpt>
<trkpt lat="47.490894" lon="11.068891">
<ele>685.571</ele>
<time>2020-09-11T16:05:44Z</time>
</trkpt>
<trkpt lat="47.490868" lon="11.06882">
<ele>685.774</ele>
<time>2020-09-11T16:05:45Z</time>
</trkpt>
<trkpt lat="47.490845" lon="11.068748">
<ele>685.931</ele>
<time>2020-09-11T16:05:46Z</time>
</trkpt>
<trkpt lat="47.490818" lon="11.068679">
<ele>686.049</ele>
<time>2020-09-11T16:05:47Z</time>
</trkpt>
<trkpt lat="47.490795" lon="11.06861">
<ele>686.128</ele>
<time>2020-09-11T16:05:48Z</time>
</trkpt>
<trkpt lat="47.490768" lon="11.068543">
<ele>686.176</ele>
<time>2020-09-11T16:05:49Z</time>
</trkpt>
<trkpt lat="47.490749" lon="11.068477">
<ele>686.197</ele>
<time>2020-09-11T16:05:50Z</time>
</trkpt>
<trkpt lat="47.490726" lon="11.068415">
<ele>686.197</ele>
<time>2020-09-11T16:05:51Z</time>
</trkpt>
<trkpt lat="47.4907" lon="11.068357">
<ele>686.197</ele>
<time>2020-09-11T16:05:52Z</time>
</trkpt>
<trkpt lat="47.490681" lon="11.068298">
<ele>686.426</ele>
<time>2020-09-11T16:05:53Z</time>
</trkpt>
<trkpt lat="47.490658" lon="11.068238">
<ele>686.62</ele>
<time>2020-09-11T16:05:54Z</time>
</trkpt>
<trkpt lat="47.490639" lon="11.068176">
<ele>686.784</ele>
<time>2020-09-11T16:05:55Z</time>
</trkpt>
<trkpt lat="47.49062" lon="11.068115">
<ele>686.919</ele>
<time>2020-09-11T16:05:56Z</time>
</trkpt>
<trkpt lat="47.490601" lon="11.068053">
<ele>687.024</ele>
<time>2020-09-11T16:05:57Z</time>
</trkpt>
<trkpt lat="47.490574" lon="11.067994">
<ele>687.101</ele>
<time>2020-09-11T16:05:58Z</time>
</trkpt>
<trkpt lat="47.490543" lon="11.06794">
<ele>687.15</ele>
<time>2020-09-11T16:05:59Z</time>
</trkpt>
<trkpt lat="47.490509" lon="11.06788">
<ele>687.174</ele>
<time>2020-09-11T16:06:00Z</time>
</trkpt>
<trkpt lat="47.490486" lon="11.067805">
<ele>687.174</ele>
<time>2020-09-11T16:06:01Z</time>
</trkpt>
<trkpt lat="47.490459" lon="11.067726">
<ele>687.174</ele>
<time>2020-09-11T16:06:02Z</time>
</trkpt>
<trkpt lat="47.490437" lon="11.067645">
<ele>687.174</ele>
<time>2020-09-11T16:06:03Z</time>
</trkpt>
<trkpt lat="47.490417" lon="11.067556">
<ele>687.461</ele>
<time>2020-09-11T16:06:04Z</time>
</trkpt>
<trkpt lat="47.490398" lon="11.067472">
<ele>687.672</ele>
<time>2020-09-11T16:06:05Z</time>
</trkpt>
<trkpt lat="47.490376" lon="11.067389">
<ele>687.824</ele>
<time>2020-09-11T16:06:06Z</time>
</trkpt>
<trkpt lat="47.490341" lon="11.067308">
<ele>687.928</ele>
<time>2020-09-11T16:06:07Z</time>
</trkpt>
<trkpt lat="47.490311" lon="11.067228">
<ele>687.997</ele>
<time>2020-09-11T16:06:08Z</time>
</trkpt>
<trkpt lat="47.49028" lon="11.067146">
<ele>688.038</ele>
<time>2020-09-11T16:06:09Z</time>
</trkpt>
<trkpt lat="47.490246" lon="11.067066">
<ele>688.059</ele>
<time>2020-09-11T16:06:10Z</time>
</trkpt>
<trkpt lat="47.490211" lon="11.06699">
<ele>688.062</ele>
<time>2020-09-11T16:06:11Z</time>
</trkpt>
<trkpt lat="47.490177" lon="11.066917">
<ele>688.062</ele>
<time>2020-09-11T16:06:12Z</time>
</trkpt>
<trkpt lat="47.490143" lon="11.066847">
<ele>688.062</ele>
<time>2020-09-11T16:06:13Z</time>
</trkpt>
<trkpt lat="47.490101" lon="11.066773">
<ele>688.062</ele>
<time>2020-09-11T16:06:14Z</time>
</trkpt>
<trkpt lat="47.490067" lon="11.0667">
<ele>688.342</ele>
<time>2020-09-11T16:06:15Z</time>
</trkpt>
<trkpt lat="47.490028" lon="11.066628">
<ele>688.56</ele>
<time>2020-09-11T16:06:16Z</time>
</trkpt>
<trkpt lat="47.489998" lon="11.066553">
<ele>688.726</ele>
<time>2020-09-11T16:06:17Z</time>
</trkpt>
<trkpt lat="47.48996" lon="11.066482">
<ele>688.849</ele>
<time>2020-09-11T16:06:18Z</time>
</trkpt>
<trkpt lat="47.489922" lon="11.06641">
<ele>688.935</ele>
<time>2020-09-11T16:06:19Z</time>
</trkpt>
<trkpt lat="47.489883" lon="11.066339">
<ele>688.988</ele>
<time>2020-09-11T16:06:20Z</time>
</trkpt>
<trkpt lat="47.489841" lon="11.066275">
<ele>689.016</ele>
<time>2020-09-11T16:06:21Z</time>
</trkpt>
<trkpt lat="47.489799" lon="11.066212">
<ele>689.039</ele>
<time>2020-09-11T16:06:22Z</time>
</trkpt>
<trkpt lat="47.489765" lon="11.066147">
<ele>689.275</ele>
<time>2020-09-11T16:06:23Z</time>
</trkpt>
<trkpt lat="47.489723" lon="11.066087">
<ele>689.473</ele>
<time>2020-09-11T16:06:24Z</time>
</trkpt>
<trkpt lat="47.489689" lon="11.066022">
<ele>689.636</ele>
<time>2020-09-11T16:06:25Z</time>
</trkpt>
<trkpt lat="47.489655" lon="11.065958">
<ele>689.767</ele>
<time>2020-09-11T16:06:26Z</time>
</trkpt>
<trkpt lat="47.489616" lon="11.065897">
<ele>689.868</ele>
<time>2020-09-11T16:06:27Z</time>
</trkpt>
<trkpt lat="47.489578" lon="11.065832">
<ele>689.943</ele>
<time>2020-09-11T16:06:28Z</time>
</trkpt>
<trkpt lat="47.48954" lon="11.065768">
<ele>689.987</ele>
<time>2020-09-11T16:06:29Z</time>
</trkpt>
<trkpt lat="47.489506" lon="11.065703">
<ele>690.294</ele>
<time>2020-09-11T16:06:30Z</time>
</trkpt>
<trkpt lat="47.489471" lon="11.065639">
<ele>690.531</ele>
<time>2020-09-11T16:06:31Z</time>
</trkpt>
<trkpt lat="47.489437" lon="11.06558">
<ele>690.688</ele>
<time>2020-09-11T16:06:32Z</time>
</trkpt>
<trkpt lat="47.489407" lon="11.065516">
<ele>690.856</ele>
<time>2020-09-11T16:06:33Z</time>
</trkpt>
<trkpt lat="47.48938" lon="11.065451">
<ele>690.986</ele>
<time>2020-09-11T16:06:34Z</time>
</trkpt>
<trkpt lat="47.489357" lon="11.065384">
<ele>691.073</ele>
<time>2020-09-11T16:06:35Z</time>
</trkpt>
<trkpt lat="47.489334" lon="11.065316">
<ele>691.39</ele>
<time>2020-09-11T16:06:36Z</time>
</trkpt>
<trkpt lat="47.489319" lon="11.065244">
<ele>691.638</ele>
<time>2020-09-11T16:06:37Z</time>
</trkpt>
<trkpt lat="47.489304" lon="11.065176">
<ele>691.873</ele>
<time>2020-09-11T16:06:38Z</time>
</trkpt>
<trkpt lat="47.489296" lon="11.065105">
<ele>691.98</ele>
<time>2020-09-11T16:06:39Z</time>
</trkpt>
<trkpt lat="47.489288" lon="11.065038">
<ele>692.343</ele>
<time>2020-09-11T16:06:40Z</time>
</trkpt>
<trkpt lat="47.489277" lon="11.06497">
<ele>692.616</ele>
<time>2020-09-11T16:06:41Z</time>
</trkpt>
<trkpt lat="47.489265" lon="11.064903">
<ele>692.819</ele>
<time>2020-09-11T16:06:42Z</time>
</trkpt>
<trkpt lat="47.489254" lon="11.06484">
<ele>693.008</ele>
<time>2020-09-11T16:06:43Z</time>
</trkpt>
<trkpt lat="47.489243" lon="11.064776">
<ele>693.119</ele>
<time>2020-09-11T16:06:44Z</time>
</trkpt>
<trkpt lat="47.489223" lon="11.064712">
<ele>693.444</ele>
<time>2020-09-11T16:06:45Z</time>
</trkpt>
<trkpt lat="47.489204" lon="11.064649">
<ele>693.676</ele>
<time>2020-09-11T16:06:46Z</time>
</trkpt>
<trkpt lat="47.489185" lon="11.064585">
<ele>694.116</ele>
<time>2020-09-11T16:06:47Z</time>
</trkpt>
<trkpt lat="47.489166" lon="11.064522">
<ele>694.553</ele>
<time>2020-09-11T16:06:48Z</time>
</trkpt>
<trkpt lat="47.48914" lon="11.064462">
<ele>694.802</ele>
<time>2020-09-11T16:06:49Z</time>
</trkpt>
<trkpt lat="47.489117" lon="11.064395">
<ele>694.945</ele>
<time>2020-09-11T16:06:50Z</time>
</trkpt>
<trkpt lat="47.489094" lon="11.064332">
<ele>695.343</ele>
<time>2020-09-11T16:06:51Z</time>
</trkpt>
<trkpt lat="47.489067" lon="11.064271">
<ele>695.627</ele>
<time>2020-09-11T16:06:52Z</time>
</trkpt>
<trkpt lat="47.489037" lon="11.064217">
<ele>695.856</ele>
<time>2020-09-11T16:06:53Z</time>
</trkpt>
<trkpt lat="47.48901" lon="11.064165">
<ele>696.32</ele>
<time>2020-09-11T16:06:54Z</time>
</trkpt>
<trkpt lat="47.488976" lon="11.064116">
<ele>696.672</ele>
<time>2020-09-11T16:06:55Z</time>
</trkpt>
<trkpt lat="47.488945" lon="11.064074">
<ele>696.949</ele>
<time>2020-09-11T16:06:56Z</time>
</trkpt>
<trkpt lat="47.488907" lon="11.064034">
<ele>697.123</ele>
<time>2020-09-11T16:06:57Z</time>
</trkpt>
<trkpt lat="47.488873" lon="11.063996">
<ele>697.536</ele>
<time>2020-09-11T16:06:58Z</time>
</trkpt>
<trkpt lat="47.488834" lon="11.063961">
<ele>697.932</ele>
<time>2020-09-11T16:06:59Z</time>
</trkpt>
<trkpt lat="47.4888" lon="11.063927">
<ele>698.146</ele>
<time>2020-09-11T16:07:00Z</time>
</trkpt>
<trkpt lat="47.488762" lon="11.063893">
<ele>698.274</ele>
<time>2020-09-11T16:07:01Z</time>
</trkpt>
<trkpt lat="47.488728" lon="11.06386">
<ele>698.364</ele>
<time>2020-09-11T16:07:02Z</time>
</trkpt>
<trkpt lat="47.488689" lon="11.063829">
<ele>698.456</ele>
<time>2020-09-11T16:07:03Z</time>
</trkpt>
<trkpt lat="47.488651" lon="11.063797">
<ele>698.517</ele>
<time>2020-09-11T16:07:04Z</time>
</trkpt>
<trkpt lat="47.488621" lon="11.063765">
<ele>698.545</ele>
<time>2020-09-11T16:07:05Z</time>
</trkpt>
<trkpt lat="47.488583" lon="11.063731">
<ele>698.545</ele>
<time>2020-09-11T16:07:06Z</time>
</trkpt>
<trkpt lat="47.488548" lon="11.0637">
<ele>698.545</ele>
<time>2020-09-11T16:07:07Z</time>
</trkpt>
<trkpt lat="47.488506" lon="11.063672">
<ele>698.545</ele>
<time>2020-09-11T16:07:08Z</time>
</trkpt>
<trkpt lat="47.488464" lon="11.063642">
<ele>698.545</ele>
<time>2020-09-11T16:07:09Z</time>
</trkpt>
<trkpt lat="47.488419" lon="11.063613">
<ele>698.545</ele>
<time>2020-09-11T16:07:10Z</time>
</trkpt>
<trkpt lat="47.488377" lon="11.063588">
<ele>698.545</ele>
<time>2020-09-11T16:07:11Z</time>
</trkpt>
<trkpt lat="47.488323" lon="11.063565">
<ele>698.545</ele>
<time>2020-09-11T16:07:12Z</time>
</trkpt>
<trkpt lat="47.488274" lon="11.063546">
<ele>698.545</ele>
<time>2020-09-11T16:07:13Z</time>
</trkpt>
<trkpt lat="47.48822" lon="11.063536">
<ele>698.545</ele>
<time>2020-09-11T16:07:14Z</time>
</trkpt>
<trkpt lat="47.488159" lon="11.063539">
<ele>698.273</ele>
<time>2020-09-11T16:07:15Z</time>
</trkpt>
<trkpt lat="47.48811" lon="11.063552">
<ele>698.072</ele>
<time>2020-09-11T16:07:16Z</time>
</trkpt>
<trkpt lat="47.48806" lon="11.063576">
<ele>697.952</ele>
<time>2020-09-11T16:07:17Z</time>
</trkpt>
<trkpt lat="47.488007" lon="11.063601">
<ele>697.57</ele>
<time>2020-09-11T16:07:18Z</time>
</trkpt>
<trkpt lat="47.487957" lon="11.063634">
<ele>697.292</ele>
<time>2020-09-11T16:07:19Z</time>
</trkpt>
<trkpt lat="47.487896" lon="11.063668">
<ele>697.082</ele>
<time>2020-09-11T16:07:20Z</time>
</trkpt>
<trkpt lat="47.487839" lon="11.063707">
<ele>696.942</ele>
<time>2020-09-11T16:07:21Z</time>
</trkpt>
<trkpt lat="47.487785" lon="11.063748">
<ele>696.842</ele>
<time>2020-09-11T16:07:22Z</time>
</trkpt>
<trkpt lat="47.487732" lon="11.063793">
<ele>696.758</ele>
<time>2020-09-11T16:07:23Z</time>
</trkpt>
<trkpt lat="47.487671" lon="11.063842">
<ele>696.704</ele>
<time>2020-09-11T16:07:24Z</time>
</trkpt>
<trkpt lat="47.487614" lon="11.06389">
<ele>696.429</ele>
<time>2020-09-11T16:07:25Z</time>
</trkpt>
<trkpt lat="47.487553" lon="11.063935">
<ele>696.162</ele>
<time>2020-09-11T16:07:26Z</time>
</trkpt>
<trkpt lat="47.487492" lon="11.06398">
<ele>695.999</ele>
<time>2020-09-11T16:07:27Z</time>
</trkpt>
<trkpt lat="47.487427" lon="11.064027">
<ele>695.907</ele>
<time>2020-09-11T16:07:28Z</time>
</trkpt>
<trkpt lat="47.487366" lon="11.064072">
<ele>695.575</ele>
<time>2020-09-11T16:07:29Z</time>
</trkpt>
<trkpt lat="47.487301" lon="11.064112">
<ele>695.34</ele>
<time>2020-09-11T16:07:30Z</time>
</trkpt>
<trkpt lat="47.48724" lon="11.064145">
<ele>695.171</ele>
<time>2020-09-11T16:07:31Z</time>
</trkpt>
<trkpt lat="47.487175" lon="11.064173">
<ele>695.056</ele>
<time>2020-09-11T16:07:32Z</time>
</trkpt>
<trkpt lat="47.487114" lon="11.064198">
<ele>694.955</ele>
<time>2020-09-11T16:07:33Z</time>
</trkpt>
<trkpt lat="47.487049" lon="11.064225">
<ele>694.882</ele>
<time>2020-09-11T16:07:34Z</time>
</trkpt>
<trkpt lat="47.486984" lon="11.064252">
<ele>694.836</ele>
<time>2020-09-11T16:07:35Z</time>
</trkpt>
<trkpt lat="47.486927" lon="11.064271">
<ele>694.812</ele>
<time>2020-09-11T16:07:36Z</time>
</trkpt>
<trkpt lat="47.48687" lon="11.064288">
<ele>694.812</ele>
<time>2020-09-11T16:07:37Z</time>
</trkpt>
<trkpt lat="47.486809" lon="11.064303">
<ele>694.812</ele>
<time>2020-09-11T16:07:38Z</time>
</trkpt>
<trkpt lat="47.486755" lon="11.064319">
<ele>694.812</ele>
<time>2020-09-11T16:07:39Z</time>
</trkpt>
<trkpt lat="47.486694" lon="11.06433">
<ele>694.812</ele>
<time>2020-09-11T16:07:40Z</time>
</trkpt>
<trkpt lat="47.486633" lon="11.064339">
<ele>694.812</ele>
<time>2020-09-11T16:07:41Z</time>
</trkpt>
<trkpt lat="47.486572" lon="11.064346">
<ele>694.812</ele>
<time>2020-09-11T16:07:42Z</time>
</trkpt>
<trkpt lat="47.486511" lon="11.064351">
<ele>694.812</ele>
<time>2020-09-11T16:07:43Z</time>
</trkpt>
<trkpt lat="47.486446" lon="11.064351">
<ele>694.812</ele>
<time>2020-09-11T16:07:44Z</time>
</trkpt>
<trkpt lat="47.486385" lon="11.064342">
<ele>694.812</ele>
<time>2020-09-11T16:07:45Z</time>
</trkpt>
<trkpt lat="47.486324" lon="11.064334">
<ele>694.812</ele>
<time>2020-09-11T16:07:46Z</time>
</trkpt>
<trkpt lat="47.486263" lon="11.064323">
<ele>694.812</ele>
<time>2020-09-11T16:07:47Z</time>
</trkpt>
<trkpt lat="47.486206" lon="11.064305">
<ele>694.812</ele>
<time>2020-09-11T16:07:48Z</time>
</trkpt>
<trkpt lat="47.486149" lon="11.064288">
<ele>694.812</ele>
<time>2020-09-11T16:07:49Z</time>
</trkpt>
<trkpt lat="47.486092" lon="11.064263">
<ele>694.812</ele>
<time>2020-09-11T16:07:50Z</time>
</trkpt>
<trkpt lat="47.486034" lon="11.064238">
<ele>694.812</ele>
<time>2020-09-11T16:07:51Z</time>
</trkpt>
<trkpt lat="47.485985" lon="11.064208">
<ele>694.812</ele>
<time>2020-09-11T16:07:52Z</time>
</trkpt>
<trkpt lat="47.485928" lon="11.064179">
<ele>694.812</ele>
<time>2020-09-11T16:07:53Z</time>
</trkpt>
<trkpt lat="47.485874" lon="11.064154">
<ele>694.812</ele>
<time>2020-09-11T16:07:54Z</time>
</trkpt>
<trkpt lat="47.485817" lon="11.064127">
<ele>694.812</ele>
<time>2020-09-11T16:07:55Z</time>
</trkpt>
<trkpt lat="47.485767" lon="11.064097">
<ele>694.812</ele>
<time>2020-09-11T16:07:56Z</time>
</trkpt>
<trkpt lat="47.48571" lon="11.064065">
<ele>694.812</ele>
<time>2020-09-11T16:07:57Z</time>
</trkpt>
<trkpt lat="47.485649" lon="11.064032">
<ele>694.812</ele>
<time>2020-09-11T16:07:58Z</time>
</trkpt>
<trkpt lat="47.485603" lon="11.063994">
<ele>694.812</ele>
<time>2020-09-11T16:07:59Z</time>
</trkpt>
<trkpt lat="47.485554" lon="11.063957">
<ele>695.034</ele>
<time>2020-09-11T16:08:00Z</time>
</trkpt>
<trkpt lat="47.4855" lon="11.06392">
<ele>695.207</ele>
<time>2020-09-11T16:08:01Z</time>
</trkpt>
<trkpt lat="47.485451" lon="11.063886">
<ele>695.329</ele>
<time>2020-09-11T16:08:02Z</time>
</trkpt>
<trkpt lat="47.485397" lon="11.06385">
<ele>695.461</ele>
<time>2020-09-11T16:08:03Z</time>
</trkpt>
<trkpt lat="47.485352" lon="11.063813">
<ele>695.559</ele>
<time>2020-09-11T16:08:04Z</time>
</trkpt>
<trkpt lat="47.485302" lon="11.063773">
<ele>695.63</ele>
<time>2020-09-11T16:08:05Z</time>
</trkpt>
<trkpt lat="47.485252" lon="11.063735">
<ele>695.677</ele>
<time>2020-09-11T16:08:06Z</time>
</trkpt>
<trkpt lat="47.485203" lon="11.063695">
<ele>695.701</ele>
<time>2020-09-11T16:08:07Z</time>
</trkpt>
<trkpt lat="47.485157" lon="11.063651">
<ele>695.701</ele>
<time>2020-09-11T16:08:08Z</time>
</trkpt>
<trkpt lat="47.485111" lon="11.063609">
<ele>695.701</ele>
<time>2020-09-11T16:08:09Z</time>
</trkpt>
<trkpt lat="47.485062" lon="11.063572">
<ele>695.701</ele>
<time>2020-09-11T16:08:10Z</time>
</trkpt>
<trkpt lat="47.48502" lon="11.063532">
<ele>695.701</ele>
<time>2020-09-11T16:08:11Z</time>
</trkpt>
<trkpt lat="47.484974" lon="11.063497">
<ele>695.701</ele>
<time>2020-09-11T16:08:12Z</time>
</trkpt>
<trkpt lat="47.484928" lon="11.063462">
<ele>695.701</ele>
<time>2020-09-11T16:08:13Z</time>
</trkpt>
<trkpt lat="47.484882" lon="11.063425">
<ele>695.987</ele>
<time>2020-09-11T16:08:14Z</time>
</trkpt>
<trkpt lat="47.484833" lon="11.063389">
<ele>696.214</ele>
<time>2020-09-11T16:08:15Z</time>
</trkpt>
<trkpt lat="47.484779" lon="11.06335">
<ele>696.388</ele>
<time>2020-09-11T16:08:16Z</time>
</trkpt>
<trkpt lat="47.48473" lon="11.063315">
<ele>696.514</ele>
<time>2020-09-11T16:08:17Z</time>
</trkpt>
<trkpt lat="47.48468" lon="11.06328">
<ele>696.601</ele>
<time>2020-09-11T16:08:18Z</time>
</trkpt>
<trkpt lat="47.484634" lon="11.063242">
<ele>696.651</ele>
<time>2020-09-11T16:08:19Z</time>
</trkpt>
<trkpt lat="47.484585" lon="11.063205">
<ele>696.678</ele>
<time>2020-09-11T16:08:20Z</time>
</trkpt>
<trkpt lat="47.484539" lon="11.063167">
<ele>696.678</ele>
<time>2020-09-11T16:08:21Z</time>
</trkpt>
<trkpt lat="47.484486" lon="11.063131">
<ele>696.678</ele>
<time>2020-09-11T16:08:22Z</time>
</trkpt>
<trkpt lat="47.48444" lon="11.063093">
<ele>696.678</ele>
<time>2020-09-11T16:08:23Z</time>
</trkpt>
<trkpt lat="47.484386" lon="11.063056">
<ele>696.679</ele>
<time>2020-09-11T16:08:24Z</time>
</trkpt>
<trkpt lat="47.484337" lon="11.06302">
<ele>696.678</ele>
<time>2020-09-11T16:08:25Z</time>
</trkpt>
<trkpt lat="47.48428" lon="11.062984">
<ele>696.957</ele>
<time>2020-09-11T16:08:26Z</time>
</trkpt>
<trkpt lat="47.48423" lon="11.062951">
<ele>697.172</ele>
<time>2020-09-11T16:08:27Z</time>
</trkpt>
<trkpt lat="47.48418" lon="11.062922">
<ele>697.334</ele>
<time>2020-09-11T16:08:28Z</time>
</trkpt>
<trkpt lat="47.484135" lon="11.062893">
<ele>697.448</ele>
<time>2020-09-11T16:08:29Z</time>
</trkpt>
<trkpt lat="47.484085" lon="11.062861">
<ele>697.53</ele>
<time>2020-09-11T16:08:30Z</time>
</trkpt>
<trkpt lat="47.484035" lon="11.062832">
<ele>697.585</ele>
<time>2020-09-11T16:08:31Z</time>
</trkpt>
<trkpt lat="47.483982" lon="11.062795">
<ele>697.629</ele>
<time>2020-09-11T16:08:32Z</time>
</trkpt>
<trkpt lat="47.483929" lon="11.06276">
<ele>697.656</ele>
<time>2020-09-11T16:08:33Z</time>
</trkpt>
<trkpt lat="47.483875" lon="11.062723">
<ele>697.656</ele>
<time>2020-09-11T16:08:34Z</time>
</trkpt>
<trkpt lat="47.483814" lon="11.062692">
<ele>697.656</ele>
<time>2020-09-11T16:08:35Z</time>
</trkpt>
<trkpt lat="47.483757" lon="11.06266">
<ele>697.656</ele>
<time>2020-09-11T16:08:36Z</time>
</trkpt>
<trkpt lat="47.4837" lon="11.062632">
<ele>697.656</ele>
<time>2020-09-11T16:08:37Z</time>
</trkpt>
<trkpt lat="47.483643" lon="11.062607">
<ele>697.656</ele>
<time>2020-09-11T16:08:38Z</time>
</trkpt>
<trkpt lat="47.483589" lon="11.062592">
<ele>697.656</ele>
<time>2020-09-11T16:08:39Z</time>
</trkpt>
<trkpt lat="47.483528" lon="11.062595">
<ele>697.656</ele>
<time>2020-09-11T16:08:40Z</time>
</trkpt>
<trkpt lat="47.483482" lon="11.062615">
<ele>697.656</ele>
<time>2020-09-11T16:08:41Z</time>
</trkpt>
<trkpt lat="47.483448" lon="11.062655">
<ele>697.848</ele>
<time>2020-09-11T16:08:42Z</time>
</trkpt>
<trkpt lat="47.483425" lon="11.062705">
<ele>698.024</ele>
<time>2020-09-11T16:08:43Z</time>
</trkpt>
<trkpt lat="47.483406" lon="11.062763">
<ele>698.174</ele>
<time>2020-09-11T16:08:44Z</time>
</trkpt>
<trkpt lat="47.483387" lon="11.062817">
<ele>698.295</ele>
<time>2020-09-11T16:08:45Z</time>
</trkpt>
<trkpt lat="47.483364" lon="11.062867">
<ele>698.394</ele>
<time>2020-09-11T16:08:46Z</time>
</trkpt>
<trkpt lat="47.483345" lon="11.062915">
<ele>698.469</ele>
<time>2020-09-11T16:08:47Z</time>
</trkpt>
<trkpt lat="47.48333" lon="11.062962">
<ele>698.519</ele>
<time>2020-09-11T16:08:48Z</time>
</trkpt>
<trkpt lat="47.483315" lon="11.063004">
<ele>698.545</ele>
<time>2020-09-11T16:08:49Z</time>
</trkpt>
<trkpt lat="47.483299" lon="11.063039">
<ele>698.545</ele>
<time>2020-09-11T16:08:50Z</time>
</trkpt>
<trkpt lat="47.483292" lon="11.063073">
<ele>698.545</ele>
<time>2020-09-11T16:08:51Z</time>
</trkpt>
<trkpt lat="47.48328" lon="11.063107">
<ele>698.545</ele>
<time>2020-09-11T16:08:52Z</time>
</trkpt>
<trkpt lat="47.483265" lon="11.063135">
<ele>698.545</ele>
<time>2020-09-11T16:08:53Z</time>
</trkpt>
<trkpt lat="47.483257" lon="11.063163">
<ele>698.545</ele>
<time>2020-09-11T16:08:54Z</time>
</trkpt>
<trkpt lat="47.483238" lon="11.063192">
<ele>698.545</ele>
<time>2020-09-11T16:08:55Z</time>
</trkpt>
<trkpt lat="47.483223" lon="11.063207">
<ele>698.545</ele>
<time>2020-09-11T16:08:56Z</time>
</trkpt>
<trkpt lat="47.4832" lon="11.063203">
<ele>698.545</ele>
<time>2020-09-11T16:08:57Z</time>
</trkpt>
<trkpt lat="47.483177" lon="11.06319">
<ele>698.545</ele>
<time>2020-09-11T16:08:58Z</time>
</trkpt>
<trkpt lat="47.483154" lon="11.063178">
<ele>698.545</ele>
<time>2020-09-11T16:08:59Z</time>
</trkpt>
<trkpt lat="47.483124" lon="11.063157">
<ele>698.545</ele>
<time>2020-09-11T16:09:00Z</time>
</trkpt>
<trkpt lat="47.483101" lon="11.063125">
<ele>698.545</ele>
<time>2020-09-11T16:09:01Z</time>
</trkpt>
<trkpt lat="47.48307" lon="11.063086">
<ele>698.545</ele>
<time>2020-09-11T16:09:02Z</time>
</trkpt>
<trkpt lat="47.483044" lon="11.063044">
<ele>698.545</ele>
<time>2020-09-11T16:09:03Z</time>
</trkpt>
<trkpt lat="47.483021" lon="11.063004">
<ele>698.545</ele>
<time>2020-09-11T16:09:04Z</time>
</trkpt>
<trkpt lat="47.482998" lon="11.062968">
<ele>698.545</ele>
<time>2020-09-11T16:09:05Z</time>
</trkpt>
<trkpt lat="47.482975" lon="11.062945">
<ele>698.545</ele>
<time>2020-09-11T16:09:06Z</time>
</trkpt>
<trkpt lat="47.482952" lon="11.062923">
<ele>698.545</ele>
<time>2020-09-11T16:09:07Z</time>
</trkpt>
<trkpt lat="47.482925" lon="11.062901">
<ele>698.545</ele>
<time>2020-09-11T16:09:08Z</time>
</trkpt>
<trkpt lat="47.482903" lon="11.06288">
<ele>698.545</ele>
<time>2020-09-11T16:09:09Z</time>
</trkpt>
<trkpt lat="47.482876" lon="11.062863">
<ele>698.545</ele>
<time>2020-09-11T16:09:10Z</time>
</trkpt>
<trkpt lat="47.482841" lon="11.062843">
<ele>698.34</ele>
<time>2020-09-11T16:09:11Z</time>
</trkpt>
<trkpt lat="47.482811" lon="11.062825">
<ele>698.184</ele>
<time>2020-09-11T16:09:12Z</time>
</trkpt>
<trkpt lat="47.48278" lon="11.062807">
<ele>698.015</ele>
<time>2020-09-11T16:09:13Z</time>
</trkpt>
<trkpt lat="47.482754" lon="11.062797">
<ele>697.881</ele>
<time>2020-09-11T16:09:14Z</time>
</trkpt>
<trkpt lat="47.482738" lon="11.062794">
<ele>697.789</ele>
<time>2020-09-11T16:09:15Z</time>
</trkpt>
<trkpt lat="47.482723" lon="11.062795">
<ele>697.724</ele>
<time>2020-09-11T16:09:16Z</time>
</trkpt>
<trkpt lat="47.482723" lon="11.062792">
<ele>697.678</ele>
<time>2020-09-11T16:09:17Z</time>
</trkpt>
<trkpt lat="47.482719" lon="11.062792">
<ele>697.656</ele>
<time>2020-09-11T16:09:18Z</time>
</trkpt>
<trkpt lat="47.482689" lon="11.062827">
<ele>697.656</ele>
<time>2020-09-11T16:11:13Z</time>
</trkpt>
<trkpt lat="47.48267" lon="11.062859">
<ele>697.638</ele>
<time>2020-09-11T16:11:14Z</time>
</trkpt>
<trkpt lat="47.482639" lon="11.062883">
<ele>697.371</ele>
<time>2020-09-11T16:11:15Z</time>
</trkpt>
<trkpt lat="47.482616" lon="11.062883">
<ele>697.157</ele>
<time>2020-09-11T16:11:16Z</time>
</trkpt>
<trkpt lat="47.482582" lon="11.062863">
<ele>696.902</ele>
<time>2020-09-11T16:11:17Z</time>
</trkpt>
<trkpt lat="47.482536" lon="11.062827">
<ele>696.731</ele>
<time>2020-09-11T16:11:18Z</time>
</trkpt>
<trkpt lat="47.482487" lon="11.062785">
<ele>696.648</ele>
<time>2020-09-11T16:11:19Z</time>
</trkpt>
<trkpt lat="47.482426" lon="11.062745">
<ele>696.626</ele>
<time>2020-09-11T16:11:20Z</time>
</trkpt>
<trkpt lat="47.482368" lon="11.062706">
<ele>696.613</ele>
<time>2020-09-11T16:11:21Z</time>
</trkpt>
<trkpt lat="47.482311" lon="11.062665">
<ele>696.589</ele>
<time>2020-09-11T16:11:22Z</time>
</trkpt>
<trkpt lat="47.48225" lon="11.062623">
<ele>696.589</ele>
<time>2020-09-11T16:11:23Z</time>
</trkpt>
<trkpt lat="47.482185" lon="11.062585">
<ele>696.309</ele>
<time>2020-09-11T16:11:24Z</time>
</trkpt>
<trkpt lat="47.482121" lon="11.062545">
<ele>696.119</ele>
<time>2020-09-11T16:11:25Z</time>
</trkpt>
<trkpt lat="47.482056" lon="11.062509">
<ele>696.001</ele>
<time>2020-09-11T16:11:26Z</time>
</trkpt>
<trkpt lat="47.481987" lon="11.062475">
<ele>695.866</ele>
<time>2020-09-11T16:11:27Z</time>
</trkpt>
<trkpt lat="47.481918" lon="11.062452">
<ele>695.762</ele>
<time>2020-09-11T16:11:28Z</time>
</trkpt>
<trkpt lat="47.48185" lon="11.062433">
<ele>695.684</ele>
<time>2020-09-11T16:11:29Z</time>
</trkpt>
<trkpt lat="47.481785" lon="11.062413">
<ele>695.635</ele>
<time>2020-09-11T16:11:30Z</time>
</trkpt>
<trkpt lat="47.481716" lon="11.062392">
<ele>695.612</ele>
<time>2020-09-11T16:11:31Z</time>
</trkpt>
<trkpt lat="47.481651" lon="11.06236">
<ele>695.612</ele>
<time>2020-09-11T16:11:32Z</time>
</trkpt>
<trkpt lat="47.48159" lon="11.062329">
<ele>695.612</ele>
<time>2020-09-11T16:11:33Z</time>
</trkpt>
<trkpt lat="47.481525" lon="11.062291">
<ele>695.612</ele>
<time>2020-09-11T16:11:34Z</time>
</trkpt>
<trkpt lat="47.481468" lon="11.062253">
<ele>695.612</ele>
<time>2020-09-11T16:11:35Z</time>
</trkpt>
<trkpt lat="47.481407" lon="11.062208">
<ele>695.612</ele>
<time>2020-09-11T16:11:36Z</time>
</trkpt>
<trkpt lat="47.481346" lon="11.062161">
<ele>695.612</ele>
<time>2020-09-11T16:11:37Z</time>
</trkpt>
<trkpt lat="47.481289" lon="11.062107">
<ele>695.612</ele>
<time>2020-09-11T16:11:38Z</time>
</trkpt>
<trkpt lat="47.481243" lon="11.062055">
<ele>695.612</ele>
<time>2020-09-11T16:11:39Z</time>
</trkpt>
<trkpt lat="47.481186" lon="11.062004">
<ele>695.612</ele>
<time>2020-09-11T16:11:40Z</time>
</trkpt>
<trkpt lat="47.481136" lon="11.061958">
<ele>695.612</ele>
<time>2020-09-11T16:11:41Z</time>
</trkpt>
<trkpt lat="47.481091" lon="11.061923">
<ele>695.612</ele>
<time>2020-09-11T16:11:42Z</time>
</trkpt>
<trkpt lat="47.481041" lon="11.061887">
<ele>695.612</ele>
<time>2020-09-11T16:11:43Z</time>
</trkpt>
<trkpt lat="47.481003" lon="11.061832">
<ele>695.612</ele>
<time>2020-09-11T16:11:44Z</time>
</trkpt>
<trkpt lat="47.480961" lon="11.061773">
<ele>695.612</ele>
<time>2020-09-11T16:11:45Z</time>
</trkpt>
<trkpt lat="47.480919" lon="11.061708">
<ele>695.612</ele>
<time>2020-09-11T16:11:46Z</time>
</trkpt>
<trkpt lat="47.480888" lon="11.061642">
<ele>695.612</ele>
<time>2020-09-11T16:11:47Z</time>
</trkpt>
<trkpt lat="47.480865" lon="11.061577">
<ele>695.612</ele>
<time>2020-09-11T16:11:48Z</time>
</trkpt>
<trkpt lat="47.480843" lon="11.061505">
<ele>695.612</ele>
<time>2020-09-11T16:11:49Z</time>
</trkpt>
<trkpt lat="47.480824" lon="11.061432">
<ele>695.612</ele>
<time>2020-09-11T16:11:50Z</time>
</trkpt>
<trkpt lat="47.480801" lon="11.061358">
<ele>695.612</ele>
<time>2020-09-11T16:11:51Z</time>
</trkpt>
<trkpt lat="47.480766" lon="11.061294">
<ele>695.612</ele>
<time>2020-09-11T16:11:52Z</time>
</trkpt>
<trkpt lat="47.480751" lon="11.061225">
<ele>695.612</ele>
<time>2020-09-11T16:11:53Z</time>
</trkpt>
<trkpt lat="47.480728" lon="11.06116">
<ele>695.612</ele>
<time>2020-09-11T16:11:54Z</time>
</trkpt>
<trkpt lat="47.480705" lon="11.061099">
<ele>695.612</ele>
<time>2020-09-11T16:11:55Z</time>
</trkpt>
<trkpt lat="47.480686" lon="11.061026">
<ele>695.612</ele>
<time>2020-09-11T16:11:56Z</time>
</trkpt>
<trkpt lat="47.480667" lon="11.060944">
<ele>695.612</ele>
<time>2020-09-11T16:11:57Z</time>
</trkpt>
<trkpt lat="47.48064" lon="11.060866">
<ele>695.612</ele>
<time>2020-09-11T16:11:58Z</time>
</trkpt>
<trkpt lat="47.480618" lon="11.060785">
<ele>695.612</ele>
<time>2020-09-11T16:11:59Z</time>
</trkpt>
<trkpt lat="47.480595" lon="11.060699">
<ele>695.612</ele>
<time>2020-09-11T16:12:00Z</time>
</trkpt>
<trkpt lat="47.480568" lon="11.060621">
<ele>695.612</ele>
<time>2020-09-11T16:12:01Z</time>
</trkpt>
<trkpt lat="47.480549" lon="11.060542">
<ele>695.612</ele>
<time>2020-09-11T16:12:02Z</time>
</trkpt>
<trkpt lat="47.480526" lon="11.060462">
<ele>695.612</ele>
<time>2020-09-11T16:12:03Z</time>
</trkpt>
<trkpt lat="47.480499" lon="11.060376">
<ele>695.612</ele>
<time>2020-09-11T16:12:04Z</time>
</trkpt>
<trkpt lat="47.480476" lon="11.060292">
<ele>695.612</ele>
<time>2020-09-11T16:12:05Z</time>
</trkpt>
<trkpt lat="47.480461" lon="11.06021">
<ele>695.612</ele>
<time>2020-09-11T16:12:06Z</time>
</trkpt>
<trkpt lat="47.480438" lon="11.060129">
<ele>695.612</ele>
<time>2020-09-11T16:12:07Z</time>
</trkpt>
<trkpt lat="47.480412" lon="11.060052">
<ele>695.612</ele>
<time>2020-09-11T16:12:08Z</time>
</trkpt>
<trkpt lat="47.480389" lon="11.059972">
<ele>695.612</ele>
<time>2020-09-11T16:12:09Z</time>
</trkpt>
<trkpt lat="47.480358" lon="11.059898">
<ele>695.612</ele>
<time>2020-09-11T16:12:10Z</time>
</trkpt>
<trkpt lat="47.480328" lon="11.059832">
<ele>695.612</ele>
<time>2020-09-11T16:12:11Z</time>
</trkpt>
<trkpt lat="47.480297" lon="11.059762">
<ele>695.612</ele>
<time>2020-09-11T16:12:12Z</time>
</trkpt>
<trkpt lat="47.480267" lon="11.05969">
<ele>695.612</ele>
<time>2020-09-11T16:12:13Z</time>
</trkpt>
<trkpt lat="47.480247" lon="11.059616">
<ele>695.612</ele>
<time>2020-09-11T16:12:14Z</time>
</trkpt>
<trkpt lat="47.480221" lon="11.059537">
<ele>695.612</ele>
<time>2020-09-11T16:12:15Z</time>
</trkpt>
<trkpt lat="47.480202" lon="11.059448">
<ele>695.612</ele>
<time>2020-09-11T16:12:16Z</time>
</trkpt>
<trkpt lat="47.480175" lon="11.059357">
<ele>695.612</ele>
<time>2020-09-11T16:12:17Z</time>
</trkpt>
<trkpt lat="47.480156" lon="11.059266">
<ele>695.612</ele>
<time>2020-09-11T16:12:18Z</time>
</trkpt>
<trkpt lat="47.480137" lon="11.059175">
<ele>695.612</ele>
<time>2020-09-11T16:12:19Z</time>
</trkpt>
<trkpt lat="47.480114" lon="11.059084">
<ele>695.612</ele>
<time>2020-09-11T16:12:20Z</time>
</trkpt>
<trkpt lat="47.480095" lon="11.058991">
<ele>695.612</ele>
<time>2020-09-11T16:12:21Z</time>
</trkpt>
<trkpt lat="47.480072" lon="11.058904">
<ele>695.612</ele>
<time>2020-09-11T16:12:22Z</time>
</trkpt>
<trkpt lat="47.480057" lon="11.058815">
<ele>695.612</ele>
<time>2020-09-11T16:12:23Z</time>
</trkpt>
<trkpt lat="47.480038" lon="11.058727">
<ele>695.612</ele>
<time>2020-09-11T16:12:24Z</time>
</trkpt>
<trkpt lat="47.480019" lon="11.058635">
<ele>695.612</ele>
<time>2020-09-11T16:12:25Z</time>
</trkpt>
<trkpt lat="47.480007" lon="11.058543">
<ele>695.612</ele>
<time>2020-09-11T16:12:26Z</time>
</trkpt>
<trkpt lat="47.479996" lon="11.058452">
<ele>695.612</ele>
<time>2020-09-11T16:12:27Z</time>
</trkpt>
<trkpt lat="47.479988" lon="11.058358">
<ele>695.612</ele>
<time>2020-09-11T16:12:28Z</time>
</trkpt>
<trkpt lat="47.479988" lon="11.058267">
<ele>695.612</ele>
<time>2020-09-11T16:12:29Z</time>
</trkpt>
<trkpt lat="47.479988" lon="11.058177">
<ele>695.612</ele>
<time>2020-09-11T16:12:30Z</time>
</trkpt>
<trkpt lat="47.479988" lon="11.058088">
<ele>695.612</ele>
<time>2020-09-11T16:12:31Z</time>
</trkpt>
<trkpt lat="47.479988" lon="11.058002">
<ele>695.612</ele>
<time>2020-09-11T16:12:32Z</time>
</trkpt>
<trkpt lat="47.479992" lon="11.057913">
<ele>695.612</ele>
<time>2020-09-11T16:12:33Z</time>
</trkpt>
<trkpt lat="47.48" lon="11.057825">
<ele>695.612</ele>
<time>2020-09-11T16:12:34Z</time>
</trkpt>
<trkpt lat="47.480007" lon="11.057738">
<ele>695.612</ele>
<time>2020-09-11T16:12:35Z</time>
</trkpt>
<trkpt lat="47.480011" lon="11.057652">
<ele>695.612</ele>
<time>2020-09-11T16:12:36Z</time>
</trkpt>
<trkpt lat="47.480015" lon="11.057567">
<ele>695.612</ele>
<time>2020-09-11T16:12:37Z</time>
</trkpt>
<trkpt lat="47.480022" lon="11.057484">
<ele>695.901</ele>
<time>2020-09-11T16:12:38Z</time>
</trkpt>
<trkpt lat="47.480026" lon="11.057404">
<ele>696.127</ele>
<time>2020-09-11T16:12:39Z</time>
</trkpt>
<trkpt lat="47.480034" lon="11.057325">
<ele>696.298</ele>
<time>2020-09-11T16:12:40Z</time>
</trkpt>
<trkpt lat="47.480038" lon="11.057246">
<ele>696.422</ele>
<time>2020-09-11T16:12:41Z</time>
</trkpt>
<trkpt lat="47.480042" lon="11.057165">
<ele>696.509</ele>
<time>2020-09-11T16:12:42Z</time>
</trkpt>
<trkpt lat="47.480049" lon="11.057081">
<ele>696.564</ele>
<time>2020-09-11T16:12:43Z</time>
</trkpt>
<trkpt lat="47.480049" lon="11.056998">
<ele>696.586</ele>
<time>2020-09-11T16:12:44Z</time>
</trkpt>
<trkpt lat="47.480053" lon="11.056915">
<ele>696.59</ele>
<time>2020-09-11T16:12:45Z</time>
</trkpt>
<trkpt lat="47.480049" lon="11.056829">
<ele>696.589</ele>
<time>2020-09-11T16:12:46Z</time>
</trkpt>
<trkpt lat="47.480049" lon="11.056746">
<ele>696.59</ele>
<time>2020-09-11T16:12:47Z</time>
</trkpt>
<trkpt lat="47.480049" lon="11.056658">
<ele>696.86</ele>
<time>2020-09-11T16:12:48Z</time>
</trkpt>
<trkpt lat="47.480049" lon="11.056576">
<ele>697.067</ele>
<time>2020-09-11T16:12:49Z</time>
</trkpt>
<trkpt lat="47.480049" lon="11.05649">
<ele>697.22</ele>
<time>2020-09-11T16:12:50Z</time>
</trkpt>
<trkpt lat="47.480049" lon="11.05641">
<ele>697.328</ele>
<time>2020-09-11T16:12:51Z</time>
</trkpt>
<trkpt lat="47.480053" lon="11.056332">
<ele>697.409</ele>
<time>2020-09-11T16:12:52Z</time>
</trkpt>
<trkpt lat="47.480053" lon="11.056253">
<ele>697.453</ele>
<time>2020-09-11T16:12:53Z</time>
</trkpt>
<trkpt lat="47.480049" lon="11.056176">
<ele>697.475</ele>
<time>2020-09-11T16:12:54Z</time>
</trkpt>
<trkpt lat="47.480045" lon="11.0561">
<ele>697.479</ele>
<time>2020-09-11T16:12:55Z</time>
</trkpt>
<trkpt lat="47.480038" lon="11.056023">
<ele>697.691</ele>
<time>2020-09-11T16:12:56Z</time>
</trkpt>
<trkpt lat="47.480034" lon="11.055953">
<ele>697.894</ele>
<time>2020-09-11T16:12:57Z</time>
</trkpt>
<trkpt lat="47.480019" lon="11.055882">
<ele>698.062</ele>
<time>2020-09-11T16:12:58Z</time>
</trkpt>
<trkpt lat="47.480007" lon="11.05581">
<ele>698.2</ele>
<time>2020-09-11T16:12:59Z</time>
</trkpt>
<trkpt lat="47.479996" lon="11.055737">
<ele>698.306</ele>
<time>2020-09-11T16:13:00Z</time>
</trkpt>
<trkpt lat="47.47998" lon="11.05566">
<ele>698.383</ele>
<time>2020-09-11T16:13:01Z</time>
</trkpt>
<trkpt lat="47.479969" lon="11.055585">
<ele>698.432</ele>
<time>2020-09-11T16:13:02Z</time>
</trkpt>
<trkpt lat="47.47995" lon="11.055513">
<ele>698.456</ele>
<time>2020-09-11T16:13:03Z</time>
</trkpt>
<trkpt lat="47.479939" lon="11.055443">
<ele>698.456</ele>
<time>2020-09-11T16:13:04Z</time>
</trkpt>
<trkpt lat="47.479923" lon="11.055378">
<ele>698.456</ele>
<time>2020-09-11T16:13:05Z</time>
</trkpt>
<trkpt lat="47.479908" lon="11.055312">
<ele>698.456</ele>
<time>2020-09-11T16:13:06Z</time>
</trkpt>
<trkpt lat="47.479897" lon="11.055243">
<ele>698.456</ele>
<time>2020-09-11T16:13:07Z</time>
</trkpt>
<trkpt lat="47.479885" lon="11.055177">
<ele>698.456</ele>
<time>2020-09-11T16:13:08Z</time>
</trkpt>
<trkpt lat="47.479874" lon="11.055114">
<ele>698.456</ele>
<time>2020-09-11T16:13:09Z</time>
</trkpt>
<trkpt lat="47.479858" lon="11.055052">
<ele>698.456</ele>
<time>2020-09-11T16:13:10Z</time>
</trkpt>
<trkpt lat="47.479843" lon="11.05499">
<ele>698.456</ele>
<time>2020-09-11T16:13:11Z</time>
</trkpt>
<trkpt lat="47.479832" lon="11.05493">
<ele>698.456</ele>
<time>2020-09-11T16:13:12Z</time>
</trkpt>
<trkpt lat="47.479816" lon="11.054871">
<ele>698.456</ele>
<time>2020-09-11T16:13:13Z</time>
</trkpt>
<trkpt lat="47.479801" lon="11.054805">
<ele>698.456</ele>
<time>2020-09-11T16:13:14Z</time>
</trkpt>
<trkpt lat="47.47979" lon="11.054733">
<ele>698.456</ele>
<time>2020-09-11T16:13:15Z</time>
</trkpt>
<trkpt lat="47.479786" lon="11.054659">
<ele>698.456</ele>
<time>2020-09-11T16:13:16Z</time>
</trkpt>
<trkpt lat="47.47979" lon="11.054582">
<ele>698.456</ele>
<time>2020-09-11T16:13:17Z</time>
</trkpt>
<trkpt lat="47.479786" lon="11.0545">
<ele>698.456</ele>
<time>2020-09-11T16:13:18Z</time>
</trkpt>
<trkpt lat="47.479778" lon="11.054419">
<ele>698.456</ele>
<time>2020-09-11T16:13:19Z</time>
</trkpt>
<trkpt lat="47.479774" lon="11.054335">
<ele>698.456</ele>
<time>2020-09-11T16:13:20Z</time>
</trkpt>
<trkpt lat="47.479763" lon="11.054253">
<ele>698.456</ele>
<time>2020-09-11T16:13:21Z</time>
</trkpt>
<trkpt lat="47.479752" lon="11.054169">
<ele>698.456</ele>
<time>2020-09-11T16:13:22Z</time>
</trkpt>
<trkpt lat="47.479744" lon="11.054089">
<ele>698.456</ele>
<time>2020-09-11T16:13:23Z</time>
</trkpt>
<trkpt lat="47.479729" lon="11.054009">
<ele>698.456</ele>
<time>2020-09-11T16:13:24Z</time>
</trkpt>
<trkpt lat="47.479713" lon="11.053932">
<ele>698.456</ele>
<time>2020-09-11T16:13:25Z</time>
</trkpt>
<trkpt lat="47.479698" lon="11.053859">
<ele>698.456</ele>
<time>2020-09-11T16:13:26Z</time>
</trkpt>
<trkpt lat="47.479679" lon="11.05378">
<ele>698.456</ele>
<time>2020-09-11T16:13:27Z</time>
</trkpt>
<trkpt lat="47.47966" lon="11.053699">
<ele>698.456</ele>
<time>2020-09-11T16:13:28Z</time>
</trkpt>
<trkpt lat="47.479641" lon="11.053621">
<ele>698.456</ele>
<time>2020-09-11T16:13:29Z</time>
</trkpt>
<trkpt lat="47.479614" lon="11.053544">
<ele>698.456</ele>
<time>2020-09-11T16:13:30Z</time>
</trkpt>
<trkpt lat="47.479591" lon="11.053467">
<ele>698.749</ele>
<time>2020-09-11T16:13:31Z</time>
</trkpt>
<trkpt lat="47.479568" lon="11.05339">
<ele>698.977</ele>
<time>2020-09-11T16:13:32Z</time>
</trkpt>
<trkpt lat="47.479542" lon="11.053316">
<ele>699.152</ele>
<time>2020-09-11T16:13:33Z</time>
</trkpt>
<trkpt lat="47.479515" lon="11.053246">
<ele>699.28</ele>
<time>2020-09-11T16:13:34Z</time>
</trkpt>
<trkpt lat="47.479488" lon="11.053175">
<ele>699.367</ele>
<time>2020-09-11T16:13:35Z</time>
</trkpt>
<trkpt lat="47.479458" lon="11.053108">
<ele>699.433</ele>
<time>2020-09-11T16:13:36Z</time>
</trkpt>
<trkpt lat="47.479431" lon="11.053043">
<ele>699.493</ele>
<time>2020-09-11T16:13:37Z</time>
</trkpt>
<trkpt lat="47.479397" lon="11.052979">
<ele>699.757</ele>
<time>2020-09-11T16:13:38Z</time>
</trkpt>
<trkpt lat="47.479366" lon="11.052918">
<ele>700.033</ele>
<time>2020-09-11T16:13:39Z</time>
</trkpt>
<trkpt lat="47.479332" lon="11.052861">
<ele>700.203</ele>
<time>2020-09-11T16:13:40Z</time>
</trkpt>
<trkpt lat="47.479294" lon="11.052809">
<ele>700.33</ele>
<time>2020-09-11T16:13:41Z</time>
</trkpt>
<trkpt lat="47.479256" lon="11.052758">
<ele>700.417</ele>
<time>2020-09-11T16:13:42Z</time>
</trkpt>
<trkpt lat="47.479225" lon="11.052707">
<ele>700.471</ele>
<time>2020-09-11T16:13:43Z</time>
</trkpt>
<trkpt lat="47.479191" lon="11.052653">
<ele>700.496</ele>
<time>2020-09-11T16:13:44Z</time>
</trkpt>
<trkpt lat="47.479164" lon="11.052597">
<ele>700.5</ele>
<time>2020-09-11T16:13:45Z</time>
</trkpt>
<trkpt lat="47.479137" lon="11.052541">
<ele>700.694</ele>
<time>2020-09-11T16:13:46Z</time>
</trkpt>
<trkpt lat="47.479111" lon="11.052484">
<ele>700.879</ele>
<time>2020-09-11T16:13:47Z</time>
</trkpt>
<trkpt lat="47.479088" lon="11.052423">
<ele>701.031</ele>
<time>2020-09-11T16:13:48Z</time>
</trkpt>
<trkpt lat="47.479069" lon="11.052363">
<ele>701.156</ele>
<time>2020-09-11T16:13:49Z</time>
</trkpt>
<trkpt lat="47.47905" lon="11.052306">
<ele>701.239</ele>
<time>2020-09-11T16:13:50Z</time>
</trkpt>
<trkpt lat="47.479031" lon="11.052257">
<ele>701.567</ele>
<time>2020-09-11T16:13:51Z</time>
</trkpt>
<trkpt lat="47.479015" lon="11.052216">
<ele>701.828</ele>
<time>2020-09-11T16:13:52Z</time>
</trkpt>
<trkpt lat="47.478996" lon="11.052172">
<ele>702.027</ele>
<time>2020-09-11T16:13:53Z</time>
</trkpt>
<trkpt lat="47.478981" lon="11.052132">
<ele>702.187</ele>
<time>2020-09-11T16:13:54Z</time>
</trkpt>
<trkpt lat="47.478962" lon="11.052093">
<ele>702.282</ele>
<time>2020-09-11T16:13:55Z</time>
</trkpt>
<trkpt lat="47.478947" lon="11.052056">
<ele>702.357</ele>
<time>2020-09-11T16:13:56Z</time>
</trkpt>
<trkpt lat="47.478924" lon="11.052019">
<ele>702.423</ele>
<time>2020-09-11T16:13:57Z</time>
</trkpt>
<trkpt lat="47.478893" lon="11.051984">
<ele>702.457</ele>
<time>2020-09-11T16:13:58Z</time>
</trkpt>
<trkpt lat="47.478867" lon="11.051946">
<ele>702.457</ele>
<time>2020-09-11T16:13:59Z</time>
</trkpt>
<trkpt lat="47.478836" lon="11.051897">
<ele>702.457</ele>
<time>2020-09-11T16:14:00Z</time>
</trkpt>
<trkpt lat="47.478817" lon="11.051839">
<ele>702.457</ele>
<time>2020-09-11T16:14:01Z</time>
</trkpt>
<trkpt lat="47.478802" lon="11.05178">
<ele>702.457</ele>
<time>2020-09-11T16:14:02Z</time>
</trkpt>
<trkpt lat="47.478783" lon="11.051718">
<ele>702.457</ele>
<time>2020-09-11T16:14:03Z</time>
</trkpt>
<trkpt lat="47.478767" lon="11.051659">
<ele>702.74</ele>
<time>2020-09-11T16:14:04Z</time>
</trkpt>
<trkpt lat="47.478756" lon="11.0516">
<ele>702.95</ele>
<time>2020-09-11T16:14:05Z</time>
</trkpt>
<trkpt lat="47.478737" lon="11.051538">
<ele>703.089</ele>
<time>2020-09-11T16:14:06Z</time>
</trkpt>
<trkpt lat="47.478733" lon="11.051474">
<ele>703.233</ele>
<time>2020-09-11T16:14:07Z</time>
</trkpt>
<trkpt lat="47.478722" lon="11.051407">
<ele>703.636</ele>
<time>2020-09-11T16:14:08Z</time>
</trkpt>
<trkpt lat="47.478714" lon="11.051336">
<ele>703.96</ele>
<time>2020-09-11T16:14:09Z</time>
</trkpt>
<trkpt lat="47.47871" lon="11.051267">
<ele>704.172</ele>
<time>2020-09-11T16:14:10Z</time>
</trkpt>
<trkpt lat="47.47871" lon="11.0512">
<ele>704.614</ele>
<time>2020-09-11T16:14:11Z</time>
</trkpt>
<trkpt lat="47.47871" lon="11.05113">
<ele>705.068</ele>
<time>2020-09-11T16:14:12Z</time>
</trkpt>
<trkpt lat="47.47871" lon="11.05106">
<ele>705.26</ele>
<time>2020-09-11T16:14:13Z</time>
</trkpt>
<trkpt lat="47.478718" lon="11.05099">
<ele>705.664</ele>
<time>2020-09-11T16:14:14Z</time>
</trkpt>
<trkpt lat="47.478722" lon="11.050923">
<ele>705.945</ele>
<time>2020-09-11T16:14:15Z</time>
</trkpt>
<trkpt lat="47.478729" lon="11.050858">
<ele>706.148</ele>
<time>2020-09-11T16:14:16Z</time>
</trkpt>
<trkpt lat="47.478733" lon="11.050794">
<ele>706.579</ele>
<time>2020-09-11T16:14:17Z</time>
</trkpt>
<trkpt lat="47.478729" lon="11.050732">
<ele>706.914</ele>
<time>2020-09-11T16:14:18Z</time>
</trkpt>
<trkpt lat="47.478722" lon="11.05067">
<ele>707.122</ele>
<time>2020-09-11T16:14:19Z</time>
</trkpt>
<trkpt lat="47.478718" lon="11.050611">
<ele>707.525</ele>
<time>2020-09-11T16:14:20Z</time>
</trkpt>
<trkpt lat="47.478706" lon="11.050552">
<ele>707.808</ele>
<time>2020-09-11T16:14:21Z</time>
</trkpt>
<trkpt lat="47.478703" lon="11.050491">
<ele>708.282</ele>
<time>2020-09-11T16:14:22Z</time>
</trkpt>
<trkpt lat="47.478691" lon="11.050426">
<ele>708.669</ele>
<time>2020-09-11T16:14:23Z</time>
</trkpt>
<trkpt lat="47.478683" lon="11.050358">
<ele>708.964</ele>
<time>2020-09-11T16:14:24Z</time>
</trkpt>
<trkpt lat="47.478668" lon="11.050292">
<ele>709.171</ele>
<time>2020-09-11T16:14:25Z</time>
</trkpt>
<trkpt lat="47.478657" lon="11.050221">
<ele>709.298</ele>
<time>2020-09-11T16:14:26Z</time>
</trkpt>
<trkpt lat="47.478638" lon="11.05015">
<ele>709.68</ele>
<time>2020-09-11T16:14:27Z</time>
</trkpt>
<trkpt lat="47.478611" lon="11.050078">
<ele>709.96</ele>
<time>2020-09-11T16:14:28Z</time>
</trkpt>
<trkpt lat="47.478584" lon="11.050008">
<ele>710.163</ele>
<time>2020-09-11T16:14:29Z</time>
</trkpt>
<trkpt lat="47.478558" lon="11.049943">
<ele>710.271</ele>
<time>2020-09-11T16:14:30Z</time>
</trkpt>
<trkpt lat="47.478527" lon="11.049885">
<ele>710.633</ele>
<time>2020-09-11T16:14:31Z</time>
</trkpt>
<trkpt lat="47.4785" lon="11.049828">
<ele>710.915</ele>
<time>2020-09-11T16:14:32Z</time>
</trkpt>
<trkpt lat="47.478474" lon="11.049773">
<ele>711.13</ele>
<time>2020-09-11T16:14:33Z</time>
</trkpt>
<trkpt lat="47.478443" lon="11.049721">
<ele>711.282</ele>
<time>2020-09-11T16:14:34Z</time>
</trkpt>
<trkpt lat="47.478413" lon="11.049668">
<ele>711.362</ele>
<time>2020-09-11T16:14:35Z</time>
</trkpt>
<trkpt lat="47.47839" lon="11.049615">
<ele>711.635</ele>
<time>2020-09-11T16:14:36Z</time>
</trkpt>
<trkpt lat="47.478363" lon="11.049562">
<ele>711.876</ele>
<time>2020-09-11T16:14:37Z</time>
</trkpt>
<trkpt lat="47.478333" lon="11.049509">
<ele>712.061</ele>
<time>2020-09-11T16:14:38Z</time>
</trkpt>
<trkpt lat="47.478302" lon="11.04946">
<ele>712.187</ele>
<time>2020-09-11T16:14:39Z</time>
</trkpt>
<trkpt lat="47.478268" lon="11.049415">
<ele>712.285</ele>
<time>2020-09-11T16:14:40Z</time>
</trkpt>
<trkpt lat="47.478245" lon="11.049371">
<ele>712.355</ele>
<time>2020-09-11T16:14:41Z</time>
</trkpt>
<trkpt lat="47.478218" lon="11.049322">
<ele>712.399</ele>
<time>2020-09-11T16:14:42Z</time>
</trkpt>
<trkpt lat="47.478207" lon="11.049269">
<ele>712.42</ele>
<time>2020-09-11T16:14:43Z</time>
</trkpt>
<trkpt lat="47.478203" lon="11.049215">
<ele>712.42</ele>
<time>2020-09-11T16:14:44Z</time>
</trkpt>
<trkpt lat="47.47821" lon="11.049175">
<ele>712.643</ele>
<time>2020-09-11T16:14:45Z</time>
</trkpt>
<trkpt lat="47.478233" lon="11.049142">
<ele>712.81</ele>
<time>2020-09-11T16:14:46Z</time>
</trkpt>
<trkpt lat="47.478249" lon="11.049105">
<ele>712.979</ele>
<time>2020-09-11T16:14:47Z</time>
</trkpt>
<trkpt lat="47.478271" lon="11.049061">
<ele>713.107</ele>
<time>2020-09-11T16:14:48Z</time>
</trkpt>
<trkpt lat="47.478287" lon="11.049008">
<ele>713.459</ele>
<time>2020-09-11T16:14:49Z</time>
</trkpt>
<trkpt lat="47.47831" lon="11.048958">
<ele>713.75</ele>
<time>2020-09-11T16:14:50Z</time>
</trkpt>
<trkpt lat="47.478336" lon="11.048905">
<ele>713.98</ele>
<time>2020-09-11T16:14:51Z</time>
</trkpt>
<trkpt lat="47.478359" lon="11.048845">
<ele>714.15</ele>
<time>2020-09-11T16:14:52Z</time>
</trkpt>
<trkpt lat="47.478386" lon="11.048782">
<ele>714.289</ele>
<time>2020-09-11T16:14:53Z</time>
</trkpt>
<trkpt lat="47.478413" lon="11.048723">
<ele>714.339</ele>
<time>2020-09-11T16:14:54Z</time>
</trkpt>
<trkpt lat="47.478436" lon="11.048665">
<ele>714.357</ele>
<time>2020-09-11T16:14:55Z</time>
</trkpt>
<trkpt lat="47.478458" lon="11.048608">
<ele>714.585</ele>
<time>2020-09-11T16:14:56Z</time>
</trkpt>
<trkpt lat="47.478481" lon="11.048555">
<ele>714.772</ele>
<time>2020-09-11T16:14:57Z</time>
</trkpt>
<trkpt lat="47.478504" lon="11.048505">
<ele>714.921</ele>
<time>2020-09-11T16:14:58Z</time>
</trkpt>
<trkpt lat="47.478527" lon="11.048457">
<ele>715.036</ele>
<time>2020-09-11T16:14:59Z</time>
</trkpt>
<trkpt lat="47.47855" lon="11.048405">
<ele>715.128</ele>
<time>2020-09-11T16:15:00Z</time>
</trkpt>
<trkpt lat="47.478584" lon="11.048352">
<ele>715.198</ele>
<time>2020-09-11T16:15:01Z</time>
</trkpt>
<trkpt lat="47.478615" lon="11.048302">
<ele>715.246</ele>
<time>2020-09-11T16:15:02Z</time>
</trkpt>
<trkpt lat="47.478649" lon="11.048259">
<ele>715.269</ele>
<time>2020-09-11T16:15:03Z</time>
</trkpt>
<trkpt lat="47.478676" lon="11.04821">
<ele>715.269</ele>
<time>2020-09-11T16:15:04Z</time>
</trkpt>
<trkpt lat="47.478718" lon="11.048166">
<ele>715.269</ele>
<time>2020-09-11T16:15:05Z</time>
</trkpt>
<trkpt lat="47.478756" lon="11.048116">
<ele>715.269</ele>
<time>2020-09-11T16:15:06Z</time>
</trkpt>
<trkpt lat="47.478802" lon="11.04807">
<ele>715.269</ele>
<time>2020-09-11T16:15:07Z</time>
</trkpt>
<trkpt lat="47.478844" lon="11.048025">
<ele>715.269</ele>
<time>2020-09-11T16:15:08Z</time>
</trkpt>
<trkpt lat="47.478889" lon="11.047978">
<ele>715.269</ele>
<time>2020-09-11T16:15:09Z</time>
</trkpt>
<trkpt lat="47.478935" lon="11.047936">
<ele>715.555</ele>
<time>2020-09-11T16:15:10Z</time>
</trkpt>
<trkpt lat="47.478981" lon="11.047894">
<ele>715.773</ele>
<time>2020-09-11T16:15:11Z</time>
</trkpt>
<trkpt lat="47.479027" lon="11.047847">
<ele>715.931</ele>
<time>2020-09-11T16:15:12Z</time>
</trkpt>
<trkpt lat="47.479057" lon="11.047758">
<ele>716.045</ele>
<time>2020-09-11T16:15:13Z</time>
</trkpt>
<trkpt lat="47.479095" lon="11.047713">
<ele>716.125</ele>
<time>2020-09-11T16:15:14Z</time>
</trkpt>
<trkpt lat="47.479145" lon="11.047678">
<ele>716.18</ele>
<time>2020-09-11T16:15:15Z</time>
</trkpt>
<trkpt lat="47.479191" lon="11.047648">
<ele>716.222</ele>
<time>2020-09-11T16:15:16Z</time>
</trkpt>
<trkpt lat="47.47924" lon="11.04762">
<ele>716.248</ele>
<time>2020-09-11T16:15:17Z</time>
</trkpt>
<trkpt lat="47.47929" lon="11.04759">
<ele>716.248</ele>
<time>2020-09-11T16:15:18Z</time>
</trkpt>
<trkpt lat="47.479332" lon="11.047552">
<ele>716.248</ele>
<time>2020-09-11T16:15:19Z</time>
</trkpt>
<trkpt lat="47.479378" lon="11.047508">
<ele>716.517</ele>
<time>2020-09-11T16:15:20Z</time>
</trkpt>
<trkpt lat="47.479424" lon="11.047459">
<ele>716.726</ele>
<time>2020-09-11T16:15:21Z</time>
</trkpt>
<trkpt lat="47.479462" lon="11.047403">
<ele>716.903</ele>
<time>2020-09-11T16:15:22Z</time>
</trkpt>
<trkpt lat="47.479492" lon="11.047345">
<ele>717.021</ele>
<time>2020-09-11T16:15:23Z</time>
</trkpt>
<trkpt lat="47.479519" lon="11.047286">
<ele>717.104</ele>
<time>2020-09-11T16:15:24Z</time>
</trkpt>
<trkpt lat="47.479538" lon="11.047225">
<ele>717.16</ele>
<time>2020-09-11T16:15:25Z</time>
</trkpt>
<trkpt lat="47.479553" lon="11.047162">
<ele>717.201</ele>
<time>2020-09-11T16:15:26Z</time>
</trkpt>
<trkpt lat="47.479568" lon="11.047098">
<ele>717.228</ele>
<time>2020-09-11T16:15:27Z</time>
</trkpt>
<trkpt lat="47.479588" lon="11.047035">
<ele>717.228</ele>
<time>2020-09-11T16:15:28Z</time>
</trkpt>
<trkpt lat="47.479614" lon="11.046968">
<ele>717.228</ele>
<time>2020-09-11T16:15:29Z</time>
</trkpt>
<trkpt lat="47.47963" lon="11.046897">
<ele>717.228</ele>
<time>2020-09-11T16:15:30Z</time>
</trkpt>
<trkpt lat="47.479645" lon="11.046817">
<ele>717.228</ele>
<time>2020-09-11T16:15:31Z</time>
</trkpt>
<trkpt lat="47.479652" lon="11.04673">
<ele>717.228</ele>
<time>2020-09-11T16:15:32Z</time>
</trkpt>
<trkpt lat="47.479664" lon="11.046645">
<ele>717.228</ele>
<time>2020-09-11T16:15:33Z</time>
</trkpt>
<trkpt lat="47.479679" lon="11.04657">
<ele>717.228</ele>
<time>2020-09-11T16:15:34Z</time>
</trkpt>
<trkpt lat="47.479687" lon="11.046494">
<ele>717.228</ele>
<time>2020-09-11T16:15:35Z</time>
</trkpt>
<trkpt lat="47.479698" lon="11.04642">
<ele>717.228</ele>
<time>2020-09-11T16:15:36Z</time>
</trkpt>
<trkpt lat="47.479706" lon="11.046339">
<ele>717.228</ele>
<time>2020-09-11T16:15:37Z</time>
</trkpt>
<trkpt lat="47.479713" lon="11.046258">
<ele>717.228</ele>
<time>2020-09-11T16:15:38Z</time>
</trkpt>
<trkpt lat="47.479721" lon="11.046173">
<ele>717.228</ele>
<time>2020-09-11T16:15:39Z</time>
</trkpt>
<trkpt lat="47.47974" lon="11.046095">
<ele>717.228</ele>
<time>2020-09-11T16:15:40Z</time>
</trkpt>
<trkpt lat="47.479759" lon="11.046019">
<ele>717.228</ele>
<time>2020-09-11T16:15:41Z</time>
</trkpt>
<trkpt lat="47.479778" lon="11.045941">
<ele>717.228</ele>
<time>2020-09-11T16:15:42Z</time>
</trkpt>
<trkpt lat="47.479786" lon="11.045872">
<ele>717.228</ele>
<time>2020-09-11T16:15:43Z</time>
</trkpt>
<trkpt lat="47.479794" lon="11.045798">
<ele>717.513</ele>
<time>2020-09-11T16:15:44Z</time>
</trkpt>
<trkpt lat="47.479801" lon="11.045719">
<ele>717.736</ele>
<time>2020-09-11T16:15:45Z</time>
</trkpt>
<trkpt lat="47.479801" lon="11.045635">
<ele>717.894</ele>
<time>2020-09-11T16:15:46Z</time>
</trkpt>
<trkpt lat="47.479797" lon="11.045551">
<ele>718.063</ele>
<time>2020-09-11T16:15:47Z</time>
</trkpt>
<trkpt lat="47.479794" lon="11.04547">
<ele>718.198</ele>
<time>2020-09-11T16:15:48Z</time>
</trkpt>
<trkpt lat="47.479794" lon="11.045393">
<ele>718.294</ele>
<time>2020-09-11T16:15:49Z</time>
</trkpt>
<trkpt lat="47.479801" lon="11.045319">
<ele>718.356</ele>
<time>2020-09-11T16:15:50Z</time>
</trkpt>
<trkpt lat="47.479809" lon="11.045248">
<ele>718.385</ele>
<time>2020-09-11T16:15:51Z</time>
</trkpt>
<trkpt lat="47.479824" lon="11.04518">
<ele>718.385</ele>
<time>2020-09-11T16:15:52Z</time>
</trkpt>
<trkpt lat="47.479836" lon="11.045114">
<ele>718.385</ele>
<time>2020-09-11T16:15:53Z</time>
</trkpt>
<trkpt lat="47.479843" lon="11.045047">
<ele>718.385</ele>
<time>2020-09-11T16:15:54Z</time>
</trkpt>
<trkpt lat="47.479851" lon="11.044982">
<ele>718.385</ele>
<time>2020-09-11T16:15:55Z</time>
</trkpt>
<trkpt lat="47.479866" lon="11.044913">
<ele>718.386</ele>
<time>2020-09-11T16:15:56Z</time>
</trkpt>
<trkpt lat="47.479885" lon="11.04484">
<ele>718.385</ele>
<time>2020-09-11T16:15:57Z</time>
</trkpt>
<trkpt lat="47.479908" lon="11.044764">
<ele>718.036</ele>
<time>2020-09-11T16:15:58Z</time>
</trkpt>
<trkpt lat="47.479935" lon="11.044701">
<ele>717.76</ele>
<time>2020-09-11T16:15:59Z</time>
</trkpt>
<trkpt lat="47.479965" lon="11.04464">
<ele>717.556</ele>
<time>2020-09-11T16:16:00Z</time>
</trkpt>
<trkpt lat="47.479996" lon="11.044586">
<ele>717.409</ele>
<time>2020-09-11T16:16:01Z</time>
</trkpt>
<trkpt lat="47.480034" lon="11.044539">
<ele>717.312</ele>
<time>2020-09-11T16:16:02Z</time>
</trkpt>
<trkpt lat="47.480072" lon="11.0445">
<ele>717.254</ele>
<time>2020-09-11T16:16:03Z</time>
</trkpt>
<trkpt lat="47.480106" lon="11.044456">
<ele>717.228</ele>
<time>2020-09-11T16:16:04Z</time>
</trkpt>
<trkpt lat="47.480141" lon="11.044412">
<ele>717.228</ele>
<time>2020-09-11T16:16:05Z</time>
</trkpt>
<trkpt lat="47.480179" lon="11.044374">
<ele>717.228</ele>
<time>2020-09-11T16:16:06Z</time>
</trkpt>
<trkpt lat="47.480213" lon="11.044338">
<ele>717.228</ele>
<time>2020-09-11T16:16:07Z</time>
</trkpt>
<trkpt lat="47.480247" lon="11.0443">
<ele>717.228</ele>
<time>2020-09-11T16:16:08Z</time>
</trkpt>
<trkpt lat="47.480278" lon="11.044263">
<ele>717.228</ele>
<time>2020-09-11T16:16:09Z</time>
</trkpt>
<trkpt lat="47.480309" lon="11.044228">
<ele>717.228</ele>
<time>2020-09-11T16:16:10Z</time>
</trkpt>
<trkpt lat="47.480339" lon="11.044198">
<ele>717.228</ele>
<time>2020-09-11T16:16:11Z</time>
</trkpt>
<trkpt lat="47.480366" lon="11.044165">
<ele>717.228</ele>
<time>2020-09-11T16:16:12Z</time>
</trkpt>
<trkpt lat="47.480389" lon="11.044133">
<ele>717.228</ele>
<time>2020-09-11T16:16:13Z</time>
</trkpt>
<trkpt lat="47.480404" lon="11.044095">
<ele>717.455</ele>
<time>2020-09-11T16:16:14Z</time>
</trkpt>
<trkpt lat="47.480408" lon="11.044055">
<ele>717.64</ele>
<time>2020-09-11T16:16:15Z</time>
</trkpt>
<trkpt lat="47.480408" lon="11.044008">
<ele>717.775</ele>
<time>2020-09-11T16:16:16Z</time>
</trkpt>
<trkpt lat="47.480396" lon="11.043957">
<ele>718.127</ele>
<time>2020-09-11T16:16:17Z</time>
</trkpt>
<trkpt lat="47.480385" lon="11.043901">
<ele>718.431</ele>
<time>2020-09-11T16:16:18Z</time>
</trkpt>
<trkpt lat="47.48037" lon="11.043841">
<ele>718.676</ele>
<time>2020-09-11T16:16:19Z</time>
</trkpt>
<trkpt lat="47.480358" lon="11.043775">
<ele>718.86</ele>
<time>2020-09-11T16:16:20Z</time>
</trkpt>
<trkpt lat="47.480347" lon="11.043712">
<ele>718.983</ele>
<time>2020-09-11T16:16:21Z</time>
</trkpt>
<trkpt lat="47.480339" lon="11.043647">
<ele>719.045</ele>
<time>2020-09-11T16:16:22Z</time>
</trkpt>
<trkpt lat="47.480339" lon="11.043584">
<ele>719.083</ele>
<time>2020-09-11T16:16:23Z</time>
</trkpt>
<trkpt lat="47.480343" lon="11.04352">
<ele>719.098</ele>
<time>2020-09-11T16:16:24Z</time>
</trkpt>
<trkpt lat="47.480354" lon="11.04346">
<ele>719.098</ele>
<time>2020-09-11T16:16:25Z</time>
</trkpt>
<trkpt lat="47.480366" lon="11.043402">
<ele>719.098</ele>
<time>2020-09-11T16:16:26Z</time>
</trkpt>
<trkpt lat="47.480385" lon="11.043348">
<ele>719.098</ele>
<time>2020-09-11T16:16:27Z</time>
</trkpt>
<trkpt lat="47.480404" lon="11.0433">
<ele>719.098</ele>
<time>2020-09-11T16:16:28Z</time>
</trkpt>
<trkpt lat="47.480431" lon="11.043253">
<ele>719.098</ele>
<time>2020-09-11T16:16:29Z</time>
</trkpt>
<trkpt lat="47.480461" lon="11.043207">
<ele>719.098</ele>
<time>2020-09-11T16:16:30Z</time>
</trkpt>
<trkpt lat="47.480492" lon="11.043157">
<ele>719.098</ele>
<time>2020-09-11T16:16:31Z</time>
</trkpt>
<trkpt lat="47.480522" lon="11.043107">
<ele>719.098</ele>
<time>2020-09-11T16:16:32Z</time>
</trkpt>
<trkpt lat="47.480553" lon="11.043063">
<ele>719.098</ele>
<time>2020-09-11T16:16:33Z</time>
</trkpt>
<trkpt lat="47.480579" lon="11.043021">
<ele>719.098</ele>
<time>2020-09-11T16:16:34Z</time>
</trkpt>
<trkpt lat="47.480598" lon="11.04298">
<ele>719.098</ele>
<time>2020-09-11T16:16:35Z</time>
</trkpt>
<trkpt lat="47.480621" lon="11.042938">
<ele>719.098</ele>
<time>2020-09-11T16:16:36Z</time>
</trkpt>
<trkpt lat="47.480637" lon="11.042899">
<ele>719.098</ele>
<time>2020-09-11T16:16:37Z</time>
</trkpt>
<trkpt lat="47.480652" lon="11.04286">
<ele>719.098</ele>
<time>2020-09-11T16:16:38Z</time>
</trkpt>
<trkpt lat="47.480659" lon="11.04282">
<ele>719.098</ele>
<time>2020-09-11T16:16:39Z</time>
</trkpt>
<trkpt lat="47.480667" lon="11.042782">
<ele>719.098</ele>
<time>2020-09-11T16:16:40Z</time>
</trkpt>
<trkpt lat="47.480675" lon="11.042745">
<ele>719.098</ele>
<time>2020-09-11T16:16:41Z</time>
</trkpt>
<trkpt lat="47.480679" lon="11.042717">
<ele>719.098</ele>
<time>2020-09-11T16:16:42Z</time>
</trkpt>
<trkpt lat="47.480679" lon="11.042696">
<ele>719.098</ele>
<time>2020-09-11T16:16:43Z</time>
</trkpt>
<trkpt lat="47.480686" lon="11.042679">
<ele>719.098</ele>
<time>2020-09-11T16:16:44Z</time>
</trkpt>
<trkpt lat="47.48069" lon="11.042668">
<ele>719.098</ele>
<time>2020-09-11T16:16:45Z</time>
</trkpt>
<trkpt lat="47.48069" lon="11.04266">
<ele>719.098</ele>
<time>2020-09-11T16:16:46Z</time>
</trkpt>
<trkpt lat="47.480694" lon="11.042652">
<ele>719.098</ele>
<time>2020-09-11T16:16:47Z</time>
</trkpt>
<trkpt lat="47.480698" lon="11.042639">
<ele>719.098</ele>
<time>2020-09-11T16:16:48Z</time>
</trkpt>
<trkpt lat="47.480721" lon="11.042619">
<ele>719.098</ele>
<time>2020-09-11T16:16:49Z</time>
</trkpt>
<trkpt lat="47.48074" lon="11.042605">
<ele>719.098</ele>
<time>2020-09-11T16:16:50Z</time>
</trkpt>
<trkpt lat="47.480762" lon="11.0426">
<ele>719.098</ele>
<time>2020-09-11T16:16:51Z</time>
</trkpt>
<trkpt lat="47.480793" lon="11.0426">
<ele>719.098</ele>
<time>2020-09-11T16:16:52Z</time>
</trkpt>
<trkpt lat="47.480835" lon="11.0426">
<ele>719.098</ele>
<time>2020-09-11T16:16:53Z</time>
</trkpt>
<trkpt lat="47.480885" lon="11.0426">
<ele>719.098</ele>
<time>2020-09-11T16:16:54Z</time>
</trkpt>
<trkpt lat="47.480934" lon="11.042597">
<ele>719.098</ele>
<time>2020-09-11T16:16:55Z</time>
</trkpt>
<trkpt lat="47.480984" lon="11.042579">
<ele>719.098</ele>
<time>2020-09-11T16:16:56Z</time>
</trkpt>
<trkpt lat="47.481037" lon="11.042543">
<ele>719.098</ele>
<time>2020-09-11T16:16:57Z</time>
</trkpt>
<trkpt lat="47.481083" lon="11.042495">
<ele>719.098</ele>
<time>2020-09-11T16:16:58Z</time>
</trkpt>
<trkpt lat="47.481117" lon="11.04244">
<ele>719.098</ele>
<time>2020-09-11T16:16:59Z</time>
</trkpt>
<trkpt lat="47.481159" lon="11.042381">
<ele>719.098</ele>
<time>2020-09-11T16:17:00Z</time>
</trkpt>
<trkpt lat="47.481197" lon="11.042318">
<ele>719.098</ele>
<time>2020-09-11T16:17:01Z</time>
</trkpt>
<trkpt lat="47.481236" lon="11.042253">
<ele>719.098</ele>
<time>2020-09-11T16:17:02Z</time>
</trkpt>
<trkpt lat="47.481274" lon="11.042192">
<ele>719.098</ele>
<time>2020-09-11T16:17:03Z</time>
</trkpt>
<trkpt lat="47.481312" lon="11.04213">
<ele>719.098</ele>
<time>2020-09-11T16:17:04Z</time>
</trkpt>
<trkpt lat="47.481346" lon="11.042068">
<ele>719.098</ele>
<time>2020-09-11T16:17:05Z</time>
</trkpt>
<trkpt lat="47.481384" lon="11.04201">
<ele>719.098</ele>
<time>2020-09-11T16:17:06Z</time>
</trkpt>
<trkpt lat="47.481426" lon="11.041954">
<ele>719.098</ele>
<time>2020-09-11T16:17:07Z</time>
</trkpt>
<trkpt lat="47.481464" lon="11.041891">
<ele>719.098</ele>
<time>2020-09-11T16:17:08Z</time>
</trkpt>
<trkpt lat="47.481506" lon="11.041835">
<ele>719.098</ele>
<time>2020-09-11T16:17:09Z</time>
</trkpt>
<trkpt lat="47.481541" lon="11.041777">
<ele>719.098</ele>
<time>2020-09-11T16:17:10Z</time>
</trkpt>
<trkpt lat="47.481583" lon="11.041718">
<ele>719.098</ele>
<time>2020-09-11T16:17:11Z</time>
</trkpt>
<trkpt lat="47.481625" lon="11.041656">
<ele>719.098</ele>
<time>2020-09-11T16:17:12Z</time>
</trkpt>
<trkpt lat="47.481663" lon="11.041598">
<ele>719.098</ele>
<time>2020-09-11T16:17:13Z</time>
</trkpt>
<trkpt lat="47.481705" lon="11.041542">
<ele>719.098</ele>
<time>2020-09-11T16:17:14Z</time>
</trkpt>
<trkpt lat="47.481743" lon="11.041487">
<ele>719.098</ele>
<time>2020-09-11T16:17:15Z</time>
</trkpt>
<trkpt lat="47.481785" lon="11.04143">
<ele>719.098</ele>
<time>2020-09-11T16:17:16Z</time>
</trkpt>
<trkpt lat="47.481823" lon="11.041373">
<ele>719.098</ele>
<time>2020-09-11T16:17:17Z</time>
</trkpt>
<trkpt lat="47.481857" lon="11.041313">
<ele>719.098</ele>
<time>2020-09-11T16:17:18Z</time>
</trkpt>
<trkpt lat="47.481895" lon="11.041255">
<ele>719.098</ele>
<time>2020-09-11T16:17:19Z</time>
</trkpt>
<trkpt lat="47.48193" lon="11.041195">
<ele>719.098</ele>
<time>2020-09-11T16:17:20Z</time>
</trkpt>
<trkpt lat="47.481964" lon="11.041137">
<ele>719.098</ele>
<time>2020-09-11T16:17:21Z</time>
</trkpt>
<trkpt lat="47.481998" lon="11.041079">
<ele>719.098</ele>
<time>2020-09-11T16:17:22Z</time>
</trkpt>
<trkpt lat="47.482029" lon="11.041026">
<ele>719.098</ele>
<time>2020-09-11T16:17:23Z</time>
</trkpt>
<trkpt lat="47.482067" lon="11.040976">
<ele>719.098</ele>
<time>2020-09-11T16:17:24Z</time>
</trkpt>
<trkpt lat="47.482105" lon="11.040925">
<ele>719.098</ele>
<time>2020-09-11T16:17:25Z</time>
</trkpt>
<trkpt lat="47.482147" lon="11.04087">
<ele>719.098</ele>
<time>2020-09-11T16:17:26Z</time>
</trkpt>
<trkpt lat="47.482182" lon="11.040812">
<ele>719.098</ele>
<time>2020-09-11T16:17:27Z</time>
</trkpt>
<trkpt lat="47.48222" lon="11.040756">
<ele>719.098</ele>
<time>2020-09-11T16:17:28Z</time>
</trkpt>
<trkpt lat="47.482262" lon="11.0407">
<ele>719.098</ele>
<time>2020-09-11T16:17:29Z</time>
</trkpt>
<trkpt lat="47.4823" lon="11.040647">
<ele>719.098</ele>
<time>2020-09-11T16:17:30Z</time>
</trkpt>
<trkpt lat="47.482338" lon="11.040601">
<ele>719.098</ele>
<time>2020-09-11T16:17:31Z</time>
</trkpt>
<trkpt lat="47.48238" lon="11.04054">
<ele>719.098</ele>
<time>2020-09-11T16:17:32Z</time>
</trkpt>
<trkpt lat="47.482418" lon="11.040482">
<ele>719.098</ele>
<time>2020-09-11T16:17:33Z</time>
</trkpt>
<trkpt lat="47.482456" lon="11.040427">
<ele>719.098</ele>
<time>2020-09-11T16:17:34Z</time>
</trkpt>
<trkpt lat="47.482491" lon="11.040377">
<ele>719.098</ele>
<time>2020-09-11T16:17:35Z</time>
</trkpt>
<trkpt lat="47.482525" lon="11.040324">
<ele>719.098</ele>
<time>2020-09-11T16:17:36Z</time>
</trkpt>
<trkpt lat="47.482559" lon="11.040275">
<ele>719.098</ele>
<time>2020-09-11T16:17:37Z</time>
</trkpt>
<trkpt lat="47.482594" lon="11.040221">
<ele>719.098</ele>
<time>2020-09-11T16:17:38Z</time>
</trkpt>
<trkpt lat="47.482628" lon="11.040174">
<ele>719.098</ele>
<time>2020-09-11T16:17:39Z</time>
</trkpt>
<trkpt lat="47.482658" lon="11.040129">
<ele>719.098</ele>
<time>2020-09-11T16:17:40Z</time>
</trkpt>
<trkpt lat="47.482693" lon="11.040087">
<ele>719.098</ele>
<time>2020-09-11T16:17:41Z</time>
</trkpt>
<trkpt lat="47.482719" lon="11.040047">
<ele>719.098</ele>
<time>2020-09-11T16:17:42Z</time>
</trkpt>
<trkpt lat="47.482754" lon="11.04001">
<ele>719.098</ele>
<time>2020-09-11T16:17:43Z</time>
</trkpt>
<trkpt lat="47.482788" lon="11.039973">
<ele>719.098</ele>
<time>2020-09-11T16:17:44Z</time>
</trkpt>
<trkpt lat="47.482834" lon="11.039928">
<ele>719.098</ele>
<time>2020-09-11T16:17:45Z</time>
</trkpt>
<trkpt lat="47.482883" lon="11.03987">
<ele>719.098</ele>
<time>2020-09-11T16:17:46Z</time>
</trkpt>
<trkpt lat="47.482929" lon="11.039799">
<ele>719.098</ele>
<time>2020-09-11T16:17:47Z</time>
</trkpt>
<trkpt lat="47.482979" lon="11.039717">
<ele>719.098</ele>
<time>2020-09-11T16:17:48Z</time>
</trkpt>
<trkpt lat="47.483025" lon="11.039635">
<ele>719.098</ele>
<time>2020-09-11T16:17:49Z</time>
</trkpt>
<trkpt lat="47.483063" lon="11.039556">
<ele>719.098</ele>
<time>2020-09-11T16:17:50Z</time>
</trkpt>
<trkpt lat="47.483105" lon="11.039476">
<ele>719.098</ele>
<time>2020-09-11T16:17:51Z</time>
</trkpt>
<trkpt lat="47.483135" lon="11.039402">
<ele>719.098</ele>
<time>2020-09-11T16:17:52Z</time>
</trkpt>
<trkpt lat="47.48317" lon="11.039323">
<ele>719.374</ele>
<time>2020-09-11T16:17:53Z</time>
</trkpt>
<trkpt lat="47.4832" lon="11.039245">
<ele>719.579</ele>
<time>2020-09-11T16:17:54Z</time>
</trkpt>
<trkpt lat="47.483231" lon="11.039165">
<ele>719.743</ele>
<time>2020-09-11T16:17:55Z</time>
</trkpt>
<trkpt lat="47.483253" lon="11.039083">
<ele>719.856</ele>
<time>2020-09-11T16:17:56Z</time>
</trkpt>
<trkpt lat="47.483273" lon="11.039001">
<ele>719.984</ele>
<time>2020-09-11T16:17:57Z</time>
</trkpt>
<trkpt lat="47.483292" lon="11.03892">
<ele>720.078</ele>
<time>2020-09-11T16:17:58Z</time>
</trkpt>
<trkpt lat="47.483311" lon="11.03884">
<ele>720.138</ele>
<time>2020-09-11T16:17:59Z</time>
</trkpt>
<trkpt lat="47.48333" lon="11.038759">
<ele>720.167</ele>
<time>2020-09-11T16:18:00Z</time>
</trkpt>
<trkpt lat="47.483349" lon="11.038684">
<ele>720.167</ele>
<time>2020-09-11T16:18:01Z</time>
</trkpt>
<trkpt lat="47.483368" lon="11.038605">
<ele>720.167</ele>
<time>2020-09-11T16:18:02Z</time>
</trkpt>
<trkpt lat="47.483387" lon="11.038527">
<ele>720.167</ele>
<time>2020-09-11T16:18:03Z</time>
</trkpt>
<trkpt lat="47.483402" lon="11.038446">
<ele>720.167</ele>
<time>2020-09-11T16:18:04Z</time>
</trkpt>
<trkpt lat="47.483425" lon="11.038368">
<ele>720.403</ele>
<time>2020-09-11T16:18:05Z</time>
</trkpt>
<trkpt lat="47.48344" lon="11.038294">
<ele>720.573</ele>
<time>2020-09-11T16:18:06Z</time>
</trkpt>
<trkpt lat="47.483463" lon="11.038217">
<ele>720.747</ele>
<time>2020-09-11T16:18:07Z</time>
</trkpt>
<trkpt lat="47.483475" lon="11.038141">
<ele>720.887</ele>
<time>2020-09-11T16:18:08Z</time>
</trkpt>
<trkpt lat="47.48349" lon="11.038066">
<ele>720.996</ele>
<time>2020-09-11T16:18:09Z</time>
</trkpt>
<trkpt lat="47.483498" lon="11.037992">
<ele>721.072</ele>
<time>2020-09-11T16:18:10Z</time>
</trkpt>
<trkpt lat="47.483505" lon="11.037919">
<ele>721.122</ele>
<time>2020-09-11T16:18:11Z</time>
</trkpt>
<trkpt lat="47.483517" lon="11.037846">
<ele>721.147</ele>
<time>2020-09-11T16:18:12Z</time>
</trkpt>
<trkpt lat="47.483528" lon="11.037775">
<ele>721.415</ele>
<time>2020-09-11T16:18:13Z</time>
</trkpt>
<trkpt lat="47.483536" lon="11.037699">
<ele>721.63</ele>
<time>2020-09-11T16:18:14Z</time>
</trkpt>
<trkpt lat="47.483547" lon="11.03762">
<ele>721.798</ele>
<time>2020-09-11T16:18:15Z</time>
</trkpt>
<trkpt lat="47.483559" lon="11.037539">
<ele>721.915</ele>
<time>2020-09-11T16:18:16Z</time>
</trkpt>
<trkpt lat="47.483559" lon="11.037458">
<ele>722.041</ele>
<time>2020-09-11T16:18:17Z</time>
</trkpt>
<trkpt lat="47.483562" lon="11.037374">
<ele>722.132</ele>
<time>2020-09-11T16:18:18Z</time>
</trkpt>
<trkpt lat="47.483562" lon="11.037291">
<ele>722.189</ele>
<time>2020-09-11T16:18:19Z</time>
</trkpt>
<trkpt lat="47.483562" lon="11.037209">
<ele>722.216</ele>
<time>2020-09-11T16:18:20Z</time>
</trkpt>
<trkpt lat="47.483562" lon="11.037125">
<ele>722.216</ele>
<time>2020-09-11T16:18:21Z</time>
</trkpt>
<trkpt lat="47.483562" lon="11.037044">
<ele>722.216</ele>
<time>2020-09-11T16:18:22Z</time>
</trkpt>
<trkpt lat="47.483562" lon="11.036963">
<ele>722.216</ele>
<time>2020-09-11T16:18:23Z</time>
</trkpt>
<trkpt lat="47.483562" lon="11.036884">
<ele>722.216</ele>
<time>2020-09-11T16:18:24Z</time>
</trkpt>
<trkpt lat="47.483562" lon="11.036805">
<ele>722.216</ele>
<time>2020-09-11T16:18:25Z</time>
</trkpt>
<trkpt lat="47.483562" lon="11.036729">
<ele>722.216</ele>
<time>2020-09-11T16:18:26Z</time>
</trkpt>
<trkpt lat="47.483562" lon="11.036654">
<ele>722.449</ele>
<time>2020-09-11T16:18:27Z</time>
</trkpt>
<trkpt lat="47.483562" lon="11.036576">
<ele>722.648</ele>
<time>2020-09-11T16:18:28Z</time>
</trkpt>
<trkpt lat="47.483562" lon="11.0365">
<ele>722.812</ele>
<time>2020-09-11T16:18:29Z</time>
</trkpt>
<trkpt lat="47.483566" lon="11.036422">
<ele>722.946</ele>
<time>2020-09-11T16:18:30Z</time>
</trkpt>
<trkpt lat="47.48357" lon="11.036345">
<ele>723.049</ele>
<time>2020-09-11T16:18:31Z</time>
</trkpt>
<trkpt lat="47.483578" lon="11.036268">
<ele>723.124</ele>
<time>2020-09-11T16:18:32Z</time>
</trkpt>
<trkpt lat="47.483585" lon="11.03619">
<ele>723.167</ele>
<time>2020-09-11T16:18:33Z</time>
</trkpt>
<trkpt lat="47.483593" lon="11.036113">
<ele>723.413</ele>
<time>2020-09-11T16:18:34Z</time>
</trkpt>
<trkpt lat="47.483593" lon="11.036036">
<ele>723.596</ele>
<time>2020-09-11T16:18:35Z</time>
</trkpt>
<trkpt lat="47.483597" lon="11.03596">
<ele>723.716</ele>
<time>2020-09-11T16:18:36Z</time>
</trkpt>
<trkpt lat="47.483593" lon="11.035883">
<ele>723.846</ele>
<time>2020-09-11T16:18:37Z</time>
</trkpt>
<trkpt lat="47.483585" lon="11.035807">
<ele>723.946</ele>
<time>2020-09-11T16:18:38Z</time>
</trkpt>
<trkpt lat="47.483574" lon="11.035728">
<ele>724.019</ele>
<time>2020-09-11T16:18:39Z</time>
</trkpt>
<trkpt lat="47.483562" lon="11.035654">
<ele>724.065</ele>
<time>2020-09-11T16:18:40Z</time>
</trkpt>
<trkpt lat="47.483559" lon="11.035582">
<ele>724.087</ele>
<time>2020-09-11T16:18:41Z</time>
</trkpt>
<trkpt lat="47.483559" lon="11.035508">
<ele>724.344</ele>
<time>2020-09-11T16:18:42Z</time>
</trkpt>
<trkpt lat="47.483562" lon="11.035434">
<ele>724.546</ele>
<time>2020-09-11T16:18:43Z</time>
</trkpt>
<trkpt lat="47.483562" lon="11.035358">
<ele>724.698</ele>
<time>2020-09-11T16:18:44Z</time>
</trkpt>
<trkpt lat="47.483562" lon="11.035285">
<ele>724.817</ele>
<time>2020-09-11T16:18:45Z</time>
</trkpt>
<trkpt lat="47.483559" lon="11.035208">
<ele>724.899</ele>
<time>2020-09-11T16:18:46Z</time>
</trkpt>
<trkpt lat="47.483559" lon="11.035131">
<ele>724.984</ele>
<time>2020-09-11T16:18:47Z</time>
</trkpt>
<trkpt lat="47.483555" lon="11.035053">
<ele>725.041</ele>
<time>2020-09-11T16:18:48Z</time>
</trkpt>
<trkpt lat="47.483555" lon="11.034975">
<ele>725.067</ele>
<time>2020-09-11T16:18:49Z</time>
</trkpt>
<trkpt lat="47.483551" lon="11.0349">
<ele>725.067</ele>
<time>2020-09-11T16:18:50Z</time>
</trkpt>
<trkpt lat="47.483543" lon="11.034823">
<ele>725.067</ele>
<time>2020-09-11T16:18:51Z</time>
</trkpt>
<trkpt lat="47.48354" lon="11.03475">
<ele>725.325</ele>
<time>2020-09-11T16:18:52Z</time>
</trkpt>
<trkpt lat="47.483536" lon="11.034678">
<ele>725.526</ele>
<time>2020-09-11T16:18:53Z</time>
</trkpt>
<trkpt lat="47.483532" lon="11.034614">
<ele>725.678</ele>
<time>2020-09-11T16:18:54Z</time>
</trkpt>
<trkpt lat="47.483528" lon="11.034554">
<ele>725.795</ele>
<time>2020-09-11T16:18:55Z</time>
</trkpt>
<trkpt lat="47.483517" lon="11.034498">
<ele>725.879</ele>
<time>2020-09-11T16:18:56Z</time>
</trkpt>
<trkpt lat="47.483513" lon="11.034435">
<ele>725.963</ele>
<time>2020-09-11T16:18:57Z</time>
</trkpt>
<trkpt lat="47.483498" lon="11.034374">
<ele>726.02</ele>
<time>2020-09-11T16:18:58Z</time>
</trkpt>
<trkpt lat="47.483486" lon="11.034305">
<ele>726.047</ele>
<time>2020-09-11T16:18:59Z</time>
</trkpt>
<trkpt lat="47.483471" lon="11.034225">
<ele>726.047</ele>
<time>2020-09-11T16:19:00Z</time>
</trkpt>
<trkpt lat="47.483463" lon="11.034154">
<ele>726.047</ele>
<time>2020-09-11T16:19:01Z</time>
</trkpt>
<trkpt lat="47.483459" lon="11.034079">
<ele>726.047</ele>
<time>2020-09-11T16:19:02Z</time>
</trkpt>
<trkpt lat="47.483448" lon="11.033998">
<ele>726.047</ele>
<time>2020-09-11T16:19:03Z</time>
</trkpt>
<trkpt lat="47.483433" lon="11.033919">
<ele>726.047</ele>
<time>2020-09-11T16:19:04Z</time>
</trkpt>
<trkpt lat="47.483418" lon="11.033842">
<ele>726.047</ele>
<time>2020-09-11T16:19:05Z</time>
</trkpt>
<trkpt lat="47.483398" lon="11.033762">
<ele>726.047</ele>
<time>2020-09-11T16:19:06Z</time>
</trkpt>
<trkpt lat="47.483391" lon="11.033681">
<ele>726.047</ele>
<time>2020-09-11T16:19:07Z</time>
</trkpt>
<trkpt lat="47.483372" lon="11.033599">
<ele>726.047</ele>
<time>2020-09-11T16:19:08Z</time>
</trkpt>
<trkpt lat="47.483356" lon="11.033517">
<ele>726.047</ele>
<time>2020-09-11T16:19:09Z</time>
</trkpt>
<trkpt lat="47.483341" lon="11.033438">
<ele>726.047</ele>
<time>2020-09-11T16:19:10Z</time>
</trkpt>
<trkpt lat="47.483326" lon="11.033356">
<ele>726.047</ele>
<time>2020-09-11T16:19:11Z</time>
</trkpt>
<trkpt lat="47.483311" lon="11.033266">
<ele>726.047</ele>
<time>2020-09-11T16:19:12Z</time>
</trkpt>
<trkpt lat="47.483307" lon="11.033182">
<ele>726.047</ele>
<time>2020-09-11T16:19:13Z</time>
</trkpt>
<trkpt lat="47.483299" lon="11.033103">
<ele>726.047</ele>
<time>2020-09-11T16:19:14Z</time>
</trkpt>
<trkpt lat="47.483295" lon="11.033023">
<ele>726.047</ele>
<time>2020-09-11T16:19:15Z</time>
</trkpt>
<trkpt lat="47.483295" lon="11.032949">
<ele>726.243</ele>
<time>2020-09-11T16:19:16Z</time>
</trkpt>
<trkpt lat="47.483299" lon="11.032874">
<ele>726.427</ele>
<time>2020-09-11T16:19:17Z</time>
</trkpt>
<trkpt lat="47.483307" lon="11.032792">
<ele>726.58</ele>
<time>2020-09-11T16:19:18Z</time>
</trkpt>
<trkpt lat="47.483326" lon="11.032695">
<ele>726.628</ele>
<time>2020-09-11T16:19:19Z</time>
</trkpt>
<trkpt lat="47.483345" lon="11.032589">
<ele>726.504</ele>
<time>2020-09-11T16:19:20Z</time>
</trkpt>
<trkpt lat="47.483353" lon="11.032476">
<ele>726.053</ele>
<time>2020-09-11T16:19:21Z</time>
</trkpt>
<trkpt lat="47.483353" lon="11.032369">
<ele>725.691</ele>
<time>2020-09-11T16:19:22Z</time>
</trkpt>
<trkpt lat="47.483349" lon="11.03226">
<ele>725.415</ele>
<time>2020-09-11T16:19:23Z</time>
</trkpt>
<trkpt lat="47.483337" lon="11.032155">
<ele>725.207</ele>
<time>2020-09-11T16:19:24Z</time>
</trkpt>
<trkpt lat="47.48333" lon="11.032062">
<ele>725.081</ele>
<time>2020-09-11T16:19:25Z</time>
</trkpt>
<trkpt lat="47.483322" lon="11.031971">
<ele>724.989</ele>
<time>2020-09-11T16:19:26Z</time>
</trkpt>
<trkpt lat="47.483322" lon="11.031875">
<ele>724.916</ele>
<time>2020-09-11T16:19:27Z</time>
</trkpt>
<trkpt lat="47.483326" lon="11.03178">
<ele>724.889</ele>
<time>2020-09-11T16:19:28Z</time>
</trkpt>
<trkpt lat="47.483326" lon="11.031687">
<ele>724.888</ele>
<time>2020-09-11T16:19:29Z</time>
</trkpt>
<trkpt lat="47.483326" lon="11.0316">
<ele>724.888</ele>
<time>2020-09-11T16:19:30Z</time>
</trkpt>
<trkpt lat="47.483318" lon="11.03152">
<ele>724.889</ele>
<time>2020-09-11T16:19:31Z</time>
</trkpt>
<trkpt lat="47.483311" lon="11.031439">
<ele>724.889</ele>
<time>2020-09-11T16:19:32Z</time>
</trkpt>
<trkpt lat="47.483307" lon="11.031359">
<ele>724.888</ele>
<time>2020-09-11T16:19:33Z</time>
</trkpt>
<trkpt lat="47.483303" lon="11.031278">
<ele>724.888</ele>
<time>2020-09-11T16:19:34Z</time>
</trkpt>
<trkpt lat="47.483303" lon="11.031197">
<ele>725.097</ele>
<time>2020-09-11T16:19:35Z</time>
</trkpt>
<trkpt lat="47.483303" lon="11.031112">
<ele>725.25</ele>
<time>2020-09-11T16:19:36Z</time>
</trkpt>
<trkpt lat="47.483303" lon="11.031025">
<ele>725.411</ele>
<time>2020-09-11T16:19:37Z</time>
</trkpt>
<trkpt lat="47.483299" lon="11.030936">
<ele>725.544</ele>
<time>2020-09-11T16:19:38Z</time>
</trkpt>
<trkpt lat="47.483284" lon="11.030853">
<ele>725.645</ele>
<time>2020-09-11T16:19:39Z</time>
</trkpt>
<trkpt lat="47.483265" lon="11.03077">
<ele>725.714</ele>
<time>2020-09-11T16:19:40Z</time>
</trkpt>
<trkpt lat="47.483242" lon="11.030686">
<ele>725.759</ele>
<time>2020-09-11T16:19:41Z</time>
</trkpt>
<trkpt lat="47.483227" lon="11.030602">
<ele>725.78</ele>
<time>2020-09-11T16:19:42Z</time>
</trkpt>
<trkpt lat="47.483204" lon="11.030519">
<ele>725.78</ele>
<time>2020-09-11T16:19:43Z</time>
</trkpt>
<trkpt lat="47.483189" lon="11.030438">
<ele>725.78</ele>
<time>2020-09-11T16:19:44Z</time>
</trkpt>
<trkpt lat="47.483166" lon="11.030364">
<ele>725.78</ele>
<time>2020-09-11T16:19:45Z</time>
</trkpt>
<trkpt lat="47.483143" lon="11.030285">
<ele>725.78</ele>
<time>2020-09-11T16:19:46Z</time>
</trkpt>
<trkpt lat="47.483128" lon="11.030205">
<ele>725.78</ele>
<time>2020-09-11T16:19:47Z</time>
</trkpt>
<trkpt lat="47.483116" lon="11.030126">
<ele>725.78</ele>
<time>2020-09-11T16:19:48Z</time>
</trkpt>
<trkpt lat="47.483105" lon="11.030046">
<ele>725.78</ele>
<time>2020-09-11T16:19:49Z</time>
</trkpt>
<trkpt lat="47.483086" lon="11.02996">
<ele>725.78</ele>
<time>2020-09-11T16:19:50Z</time>
</trkpt>
<trkpt lat="47.48307" lon="11.029879">
<ele>725.78</ele>
<time>2020-09-11T16:19:51Z</time>
</trkpt>
<trkpt lat="47.483063" lon="11.029792">
<ele>725.78</ele>
<time>2020-09-11T16:19:52Z</time>
</trkpt>
<trkpt lat="47.483047" lon="11.029704">
<ele>725.78</ele>
<time>2020-09-11T16:19:53Z</time>
</trkpt>
<trkpt lat="47.483032" lon="11.029616">
<ele>725.78</ele>
<time>2020-09-11T16:19:54Z</time>
</trkpt>
<trkpt lat="47.483017" lon="11.029532">
<ele>725.78</ele>
<time>2020-09-11T16:19:55Z</time>
</trkpt>
<trkpt lat="47.483006" lon="11.029445">
<ele>725.78</ele>
<time>2020-09-11T16:19:56Z</time>
</trkpt>
<trkpt lat="47.482994" lon="11.029362">
<ele>725.78</ele>
<time>2020-09-11T16:19:57Z</time>
</trkpt>
<trkpt lat="47.482971" lon="11.029284">
<ele>725.78</ele>
<time>2020-09-11T16:19:58Z</time>
</trkpt>
<trkpt lat="47.482956" lon="11.029207">
<ele>725.78</ele>
<time>2020-09-11T16:19:59Z</time>
</trkpt>
<trkpt lat="47.482941" lon="11.029132">
<ele>725.78</ele>
<time>2020-09-11T16:20:00Z</time>
</trkpt>
<trkpt lat="47.482922" lon="11.029063">
<ele>725.78</ele>
<time>2020-09-11T16:20:01Z</time>
</trkpt>
<trkpt lat="47.482906" lon="11.028998">
<ele>725.78</ele>
<time>2020-09-11T16:20:02Z</time>
</trkpt>
<trkpt lat="47.48288" lon="11.02894">
<ele>725.78</ele>
<time>2020-09-11T16:20:03Z</time>
</trkpt>
<trkpt lat="47.482857" lon="11.02888">
<ele>725.78</ele>
<time>2020-09-11T16:20:04Z</time>
</trkpt>
<trkpt lat="47.48283" lon="11.028818">
<ele>725.78</ele>
<time>2020-09-11T16:20:05Z</time>
</trkpt>
<trkpt lat="47.482807" lon="11.028755">
<ele>725.78</ele>
<time>2020-09-11T16:20:06Z</time>
</trkpt>
<trkpt lat="47.482777" lon="11.02869">
<ele>725.78</ele>
<time>2020-09-11T16:20:07Z</time>
</trkpt>
<trkpt lat="47.482754" lon="11.028622">
<ele>725.78</ele>
<time>2020-09-11T16:20:08Z</time>
</trkpt>
<trkpt lat="47.482727" lon="11.028557">
<ele>725.78</ele>
<time>2020-09-11T16:20:09Z</time>
</trkpt>
<trkpt lat="47.482704" lon="11.028493">
<ele>726.062</ele>
<time>2020-09-11T16:20:10Z</time>
</trkpt>
<trkpt lat="47.482677" lon="11.028428">
<ele>726.278</ele>
<time>2020-09-11T16:20:11Z</time>
</trkpt>
<trkpt lat="47.482647" lon="11.028361">
<ele>726.438</ele>
<time>2020-09-11T16:20:12Z</time>
</trkpt>
<trkpt lat="47.48262" lon="11.028298">
<ele>726.556</ele>
<time>2020-09-11T16:20:13Z</time>
</trkpt>
<trkpt lat="47.48259" lon="11.028232">
<ele>726.639</ele>
<time>2020-09-11T16:20:14Z</time>
</trkpt>
<trkpt lat="47.482563" lon="11.028171">
<ele>726.691</ele>
<time>2020-09-11T16:20:15Z</time>
</trkpt>
<trkpt lat="47.482536" lon="11.028108">
<ele>726.733</ele>
<time>2020-09-11T16:20:16Z</time>
</trkpt>
<trkpt lat="47.48251" lon="11.028049">
<ele>726.76</ele>
<time>2020-09-11T16:20:17Z</time>
</trkpt>
<trkpt lat="47.482487" lon="11.027985">
<ele>727.078</ele>
<time>2020-09-11T16:20:18Z</time>
</trkpt>
<trkpt lat="47.482468" lon="11.027922">
<ele>727.321</ele>
<time>2020-09-11T16:20:19Z</time>
</trkpt>
<trkpt lat="47.482445" lon="11.027859">
<ele>727.507</ele>
<time>2020-09-11T16:20:20Z</time>
</trkpt>
<trkpt lat="47.482418" lon="11.027797">
<ele>727.646</ele>
<time>2020-09-11T16:20:21Z</time>
</trkpt>
<trkpt lat="47.482391" lon="11.02773">
<ele>727.727</ele>
<time>2020-09-11T16:20:22Z</time>
</trkpt>
<trkpt lat="47.482365" lon="11.027665">
<ele>728.074</ele>
<time>2020-09-11T16:20:23Z</time>
</trkpt>
<trkpt lat="47.482338" lon="11.027598">
<ele>728.327</ele>
<time>2020-09-11T16:20:24Z</time>
</trkpt>
<trkpt lat="47.482311" lon="11.027534">
<ele>728.496</ele>
<time>2020-09-11T16:20:25Z</time>
</trkpt>
<trkpt lat="47.482285" lon="11.027469">
<ele>728.609</ele>
<time>2020-09-11T16:20:26Z</time>
</trkpt>
<trkpt lat="47.482258" lon="11.027402">
<ele>728.732</ele>
<time>2020-09-11T16:20:27Z</time>
</trkpt>
<trkpt lat="47.482239" lon="11.027332">
<ele>728.813</ele>
<time>2020-09-11T16:20:28Z</time>
</trkpt>
<trkpt lat="47.48222" lon="11.027259">
<ele>729.112</ele>
<time>2020-09-11T16:20:29Z</time>
</trkpt>
<trkpt lat="47.482201" lon="11.027185">
<ele>729.339</ele>
<time>2020-09-11T16:20:30Z</time>
</trkpt>
<trkpt lat="47.482185" lon="11.02711">
<ele>729.572</ele>
<time>2020-09-11T16:20:31Z</time>
</trkpt>
<trkpt lat="47.48217" lon="11.027037">
<ele>729.69</ele>
<time>2020-09-11T16:20:32Z</time>
</trkpt>
<trkpt lat="47.482159" lon="11.026968">
<ele>729.776</ele>
<time>2020-09-11T16:20:33Z</time>
</trkpt>
<trkpt lat="47.482143" lon="11.026905">
<ele>729.829</ele>
<time>2020-09-11T16:20:34Z</time>
</trkpt>
<trkpt lat="47.482132" lon="11.026838">
<ele>729.857</ele>
<time>2020-09-11T16:20:35Z</time>
</trkpt>
<trkpt lat="47.482124" lon="11.026767">
<ele>729.88</ele>
<time>2020-09-11T16:20:36Z</time>
</trkpt>
<trkpt lat="47.482124" lon="11.026698">
<ele>730.09</ele>
<time>2020-09-11T16:20:37Z</time>
</trkpt>
<trkpt lat="47.482117" lon="11.026625">
<ele>730.271</ele>
<time>2020-09-11T16:20:38Z</time>
</trkpt>
<trkpt lat="47.482109" lon="11.026551">
<ele>730.423</ele>
<time>2020-09-11T16:20:39Z</time>
</trkpt>
<trkpt lat="47.482098" lon="11.026477">
<ele>730.548</ele>
<time>2020-09-11T16:20:40Z</time>
</trkpt>
<trkpt lat="47.482094" lon="11.026399">
<ele>730.644</ele>
<time>2020-09-11T16:20:41Z</time>
</trkpt>
<trkpt lat="47.482094" lon="11.026319">
<ele>730.712</ele>
<time>2020-09-11T16:20:42Z</time>
</trkpt>
<trkpt lat="47.482105" lon="11.02623">
<ele>730.753</ele>
<time>2020-09-11T16:20:43Z</time>
</trkpt>
<trkpt lat="47.482128" lon="11.026134">
<ele>730.768</ele>
<time>2020-09-11T16:20:44Z</time>
</trkpt>
<trkpt lat="47.482143" lon="11.026044">
<ele>730.516</ele>
<time>2020-09-11T16:20:45Z</time>
</trkpt>
<trkpt lat="47.482155" lon="11.02597">
<ele>730.486</ele>
<time>2020-09-11T16:20:46Z</time>
</trkpt>
<trkpt lat="47.482159" lon="11.025906">
<ele>730.539</ele>
<time>2020-09-11T16:20:47Z</time>
</trkpt>
<trkpt lat="47.482162" lon="11.025846">
<ele>730.583</ele>
<time>2020-09-11T16:20:48Z</time>
</trkpt>
<trkpt lat="47.482166" lon="11.02579">
<ele>730.609</ele>
<time>2020-09-11T16:20:49Z</time>
</trkpt>
<trkpt lat="47.482166" lon="11.025726">
<ele>730.884</ele>
<time>2020-09-11T16:20:50Z</time>
</trkpt>
<trkpt lat="47.482162" lon="11.025661">
<ele>731.103</ele>
<time>2020-09-11T16:20:51Z</time>
</trkpt>
<trkpt lat="47.482159" lon="11.025592">
<ele>731.287</ele>
<time>2020-09-11T16:20:52Z</time>
</trkpt>
<trkpt lat="47.482151" lon="11.025531">
<ele>731.449</ele>
<time>2020-09-11T16:20:53Z</time>
</trkpt>
<trkpt lat="47.482143" lon="11.025474">
<ele>731.601</ele>
<time>2020-09-11T16:20:54Z</time>
</trkpt>
<trkpt lat="47.482128" lon="11.025412">
<ele>731.682</ele>
<time>2020-09-11T16:20:55Z</time>
</trkpt>
<trkpt lat="47.482113" lon="11.02534">
<ele>731.727</ele>
<time>2020-09-11T16:20:56Z</time>
</trkpt>
<trkpt lat="47.482094" lon="11.025271">
<ele>731.753</ele>
<time>2020-09-11T16:20:57Z</time>
</trkpt>
<trkpt lat="47.482075" lon="11.025195">
<ele>731.753</ele>
<time>2020-09-11T16:20:58Z</time>
</trkpt>
<trkpt lat="47.482063" lon="11.025115">
<ele>731.753</ele>
<time>2020-09-11T16:20:59Z</time>
</trkpt>
<trkpt lat="47.482059" lon="11.025034">
<ele>731.753</ele>
<time>2020-09-11T16:21:00Z</time>
</trkpt>
<trkpt lat="47.482056" lon="11.024961">
<ele>731.753</ele>
<time>2020-09-11T16:21:01Z</time>
</trkpt>
<trkpt lat="47.482048" lon="11.02489">
<ele>731.753</ele>
<time>2020-09-11T16:21:02Z</time>
</trkpt>
<trkpt lat="47.482044" lon="11.024822">
<ele>731.753</ele>
<time>2020-09-11T16:21:03Z</time>
</trkpt>
<trkpt lat="47.482037" lon="11.024758">
<ele>731.753</ele>
<time>2020-09-11T16:21:04Z</time>
</trkpt>
<trkpt lat="47.482029" lon="11.0247">
<ele>731.753</ele>
<time>2020-09-11T16:21:05Z</time>
</trkpt>
<trkpt lat="47.48201" lon="11.024649">
<ele>731.753</ele>
<time>2020-09-11T16:21:06Z</time>
</trkpt>
<trkpt lat="47.481995" lon="11.024603">
<ele>731.753</ele>
<time>2020-09-11T16:21:07Z</time>
</trkpt>
<trkpt lat="47.481976" lon="11.024555">
<ele>731.753</ele>
<time>2020-09-11T16:21:08Z</time>
</trkpt>
<trkpt lat="47.48196" lon="11.024515">
<ele>731.753</ele>
<time>2020-09-11T16:21:09Z</time>
</trkpt>
<trkpt lat="47.481941" lon="11.024475">
<ele>731.753</ele>
<time>2020-09-11T16:21:10Z</time>
</trkpt>
<trkpt lat="47.481918" lon="11.024451">
<ele>731.753</ele>
<time>2020-09-11T16:21:11Z</time>
</trkpt>
<trkpt lat="47.481876" lon="11.02443">
<ele>731.753</ele>
<time>2020-09-11T16:21:12Z</time>
</trkpt>
<trkpt lat="47.48185" lon="11.024398">
<ele>731.753</ele>
<time>2020-09-11T16:21:13Z</time>
</trkpt>
<trkpt lat="47.481831" lon="11.024364">
<ele>731.753</ele>
<time>2020-09-11T16:21:14Z</time>
</trkpt>
<trkpt lat="47.481823" lon="11.024322">
<ele>731.753</ele>
<time>2020-09-11T16:21:15Z</time>
</trkpt>
<trkpt lat="47.481823" lon="11.024276">
<ele>731.753</ele>
<time>2020-09-11T16:21:16Z</time>
</trkpt>
<trkpt lat="47.481819" lon="11.024219">
<ele>731.753</ele>
<time>2020-09-11T16:21:17Z</time>
</trkpt>
<trkpt lat="47.481815" lon="11.024157">
<ele>731.753</ele>
<time>2020-09-11T16:21:18Z</time>
</trkpt>
<trkpt lat="47.481808" lon="11.024092">
<ele>731.753</ele>
<time>2020-09-11T16:21:19Z</time>
</trkpt>
<trkpt lat="47.4818" lon="11.024025">
<ele>731.753</ele>
<time>2020-09-11T16:21:20Z</time>
</trkpt>
<trkpt lat="47.481792" lon="11.023955">
<ele>731.753</ele>
<time>2020-09-11T16:21:21Z</time>
</trkpt>
<trkpt lat="47.481785" lon="11.023887">
<ele>731.753</ele>
<time>2020-09-11T16:21:22Z</time>
</trkpt>
<trkpt lat="47.481781" lon="11.023815">
<ele>731.753</ele>
<time>2020-09-11T16:21:23Z</time>
</trkpt>
<trkpt lat="47.481773" lon="11.023738">
<ele>731.753</ele>
<time>2020-09-11T16:21:24Z</time>
</trkpt>
<trkpt lat="47.481758" lon="11.023657">
<ele>731.753</ele>
<time>2020-09-11T16:21:25Z</time>
</trkpt>
<trkpt lat="47.48175" lon="11.023582">
<ele>732.022</ele>
<time>2020-09-11T16:21:26Z</time>
</trkpt>
<trkpt lat="47.48175" lon="11.023505">
<ele>732.27</ele>
<time>2020-09-11T16:21:27Z</time>
</trkpt>
<trkpt lat="47.481743" lon="11.023434">
<ele>732.469</ele>
<time>2020-09-11T16:21:28Z</time>
</trkpt>
<trkpt lat="47.481735" lon="11.023367">
<ele>732.624</ele>
<time>2020-09-11T16:21:29Z</time>
</trkpt>
<trkpt lat="47.481735" lon="11.023297">
<ele>732.745</ele>
<time>2020-09-11T16:21:30Z</time>
</trkpt>
<trkpt lat="47.481735" lon="11.023232">
<ele>732.818</ele>
<time>2020-09-11T16:21:31Z</time>
</trkpt>
<trkpt lat="47.481735" lon="11.02316">
<ele>733.152</ele>
<time>2020-09-11T16:21:32Z</time>
</trkpt>
<trkpt lat="47.481735" lon="11.023087">
<ele>733.416</ele>
<time>2020-09-11T16:21:33Z</time>
</trkpt>
<trkpt lat="47.481731" lon="11.023008">
<ele>733.637</ele>
<time>2020-09-11T16:21:34Z</time>
</trkpt>
<trkpt lat="47.481724" lon="11.022926">
<ele>733.779</ele>
<time>2020-09-11T16:21:35Z</time>
</trkpt>
<trkpt lat="47.481716" lon="11.022851">
<ele>733.879</ele>
<time>2020-09-11T16:21:36Z</time>
</trkpt>
<trkpt lat="47.481705" lon="11.022779">
<ele>733.981</ele>
<time>2020-09-11T16:21:37Z</time>
</trkpt>
<trkpt lat="47.481701" lon="11.022705">
<ele>734.042</ele>
<time>2020-09-11T16:21:38Z</time>
</trkpt>
<trkpt lat="47.481689" lon="11.022629">
<ele>734.072</ele>
<time>2020-09-11T16:21:39Z</time>
</trkpt>
<trkpt lat="47.481686" lon="11.022556">
<ele>734.072</ele>
<time>2020-09-11T16:21:40Z</time>
</trkpt>
<trkpt lat="47.481674" lon="11.022485">
<ele>734.071</ele>
<time>2020-09-11T16:21:41Z</time>
</trkpt>
<trkpt lat="47.48167" lon="11.022411">
<ele>734.072</ele>
<time>2020-09-11T16:21:42Z</time>
</trkpt>
<trkpt lat="47.481663" lon="11.022335">
<ele>734.072</ele>
<time>2020-09-11T16:21:43Z</time>
</trkpt>
<trkpt lat="47.481659" lon="11.02226">
<ele>734.072</ele>
<time>2020-09-11T16:21:44Z</time>
</trkpt>
<trkpt lat="47.481651" lon="11.022183">
<ele>734.072</ele>
<time>2020-09-11T16:21:45Z</time>
</trkpt>
<trkpt lat="47.481644" lon="11.022103">
<ele>734.311</ele>
<time>2020-09-11T16:21:46Z</time>
</trkpt>
<trkpt lat="47.481632" lon="11.022025">
<ele>734.539</ele>
<time>2020-09-11T16:21:47Z</time>
</trkpt>
<trkpt lat="47.481617" lon="11.02194">
<ele>734.729</ele>
<time>2020-09-11T16:21:48Z</time>
</trkpt>
<trkpt lat="47.481602" lon="11.021855">
<ele>734.876</ele>
<time>2020-09-11T16:21:49Z</time>
</trkpt>
<trkpt lat="47.48159" lon="11.02177">
<ele>734.988</ele>
<time>2020-09-11T16:21:50Z</time>
</trkpt>
<trkpt lat="47.481575" lon="11.02169">
<ele>735.067</ele>
<time>2020-09-11T16:21:51Z</time>
</trkpt>
<trkpt lat="47.48156" lon="11.021606">
<ele>735.118</ele>
<time>2020-09-11T16:21:52Z</time>
</trkpt>
<trkpt lat="47.481544" lon="11.021523">
<ele>735.142</ele>
<time>2020-09-11T16:21:53Z</time>
</trkpt>
<trkpt lat="47.481537" lon="11.021441">
<ele>735.142</ele>
<time>2020-09-11T16:21:54Z</time>
</trkpt>
<trkpt lat="47.481525" lon="11.021363">
<ele>735.423</ele>
<time>2020-09-11T16:21:55Z</time>
</trkpt>
<trkpt lat="47.481514" lon="11.021284">
<ele>735.621</ele>
<time>2020-09-11T16:21:56Z</time>
</trkpt>
<trkpt lat="47.481506" lon="11.021203">
<ele>735.826</ele>
<time>2020-09-11T16:21:57Z</time>
</trkpt>
<trkpt lat="47.481495" lon="11.021114">
<ele>735.993</ele>
<time>2020-09-11T16:21:58Z</time>
</trkpt>
<trkpt lat="47.481483" lon="11.021032">
<ele>736.122</ele>
<time>2020-09-11T16:21:59Z</time>
</trkpt>
<trkpt lat="47.481472" lon="11.020947">
<ele>736.213</ele>
<time>2020-09-11T16:22:00Z</time>
</trkpt>
<trkpt lat="47.481468" lon="11.020862">
<ele>736.273</ele>
<time>2020-09-11T16:22:01Z</time>
</trkpt>
<trkpt lat="47.481464" lon="11.020779">
<ele>736.302</ele>
<time>2020-09-11T16:22:02Z</time>
</trkpt>
<trkpt lat="47.481461" lon="11.020695">
<ele>736.302</ele>
<time>2020-09-11T16:22:03Z</time>
</trkpt>
<trkpt lat="47.481457" lon="11.02061">
<ele>736.302</ele>
<time>2020-09-11T16:22:04Z</time>
</trkpt>
<trkpt lat="47.481449" lon="11.020525">
<ele>736.302</ele>
<time>2020-09-11T16:22:05Z</time>
</trkpt>
<trkpt lat="47.481441" lon="11.020437">
<ele>736.302</ele>
<time>2020-09-11T16:22:06Z</time>
</trkpt>
<trkpt lat="47.48143" lon="11.02035">
<ele>736.302</ele>
<time>2020-09-11T16:22:07Z</time>
</trkpt>
<trkpt lat="47.481419" lon="11.020267">
<ele>736.302</ele>
<time>2020-09-11T16:22:08Z</time>
</trkpt>
<trkpt lat="47.481411" lon="11.020184">
<ele>736.302</ele>
<time>2020-09-11T16:22:09Z</time>
</trkpt>
<trkpt lat="47.481407" lon="11.020103">
<ele>736.302</ele>
<time>2020-09-11T16:22:10Z</time>
</trkpt>
<trkpt lat="47.481403" lon="11.020033">
<ele>736.563</ele>
<time>2020-09-11T16:22:11Z</time>
</trkpt>
<trkpt lat="47.4814" lon="11.019957">
<ele>736.767</ele>
<time>2020-09-11T16:22:12Z</time>
</trkpt>
<trkpt lat="47.481392" lon="11.019878">
<ele>736.924</ele>
<time>2020-09-11T16:22:13Z</time>
</trkpt>
<trkpt lat="47.481392" lon="11.019798">
<ele>737.042</ele>
<time>2020-09-11T16:22:14Z</time>
</trkpt>
<trkpt lat="47.481396" lon="11.019718">
<ele>737.131</ele>
<time>2020-09-11T16:22:15Z</time>
</trkpt>
<trkpt lat="47.481396" lon="11.019631">
<ele>737.197</ele>
<time>2020-09-11T16:22:16Z</time>
</trkpt>
<trkpt lat="47.481396" lon="11.019547">
<ele>737.255</ele>
<time>2020-09-11T16:22:17Z</time>
</trkpt>
<trkpt lat="47.4814" lon="11.01946">
<ele>737.283</ele>
<time>2020-09-11T16:22:18Z</time>
</trkpt>
<trkpt lat="47.481407" lon="11.019375">
<ele>737.283</ele>
<time>2020-09-11T16:22:19Z</time>
</trkpt>
<trkpt lat="47.481411" lon="11.019297">
<ele>737.283</ele>
<time>2020-09-11T16:22:20Z</time>
</trkpt>
<trkpt lat="47.481411" lon="11.019218">
<ele>737.283</ele>
<time>2020-09-11T16:22:21Z</time>
</trkpt>
<trkpt lat="47.481419" lon="11.019147">
<ele>737.538</ele>
<time>2020-09-11T16:22:22Z</time>
</trkpt>
<trkpt lat="47.481426" lon="11.019072">
<ele>737.736</ele>
<time>2020-09-11T16:22:23Z</time>
</trkpt>
<trkpt lat="47.481434" lon="11.018984">
<ele>737.89</ele>
<time>2020-09-11T16:22:24Z</time>
</trkpt>
<trkpt lat="47.481441" lon="11.018905">
<ele>737.934</ele>
<time>2020-09-11T16:22:25Z</time>
</trkpt>
<trkpt lat="47.481441" lon="11.018825">
<ele>737.803</ele>
<time>2020-09-11T16:22:26Z</time>
</trkpt>
<trkpt lat="47.481441" lon="11.018746">
<ele>737.668</ele>
<time>2020-09-11T16:22:27Z</time>
</trkpt>
<trkpt lat="47.481441" lon="11.018667">
<ele>737.548</ele>
<time>2020-09-11T16:22:28Z</time>
</trkpt>
<trkpt lat="47.481438" lon="11.018587">
<ele>737.442</ele>
<time>2020-09-11T16:22:29Z</time>
</trkpt>
<trkpt lat="47.48143" lon="11.018508">
<ele>737.349</ele>
<time>2020-09-11T16:22:30Z</time>
</trkpt>
<trkpt lat="47.481426" lon="11.018429">
<ele>737.272</ele>
<time>2020-09-11T16:22:31Z</time>
</trkpt>
<trkpt lat="47.481422" lon="11.018351">
<ele>737.297</ele>
<time>2020-09-11T16:22:32Z</time>
</trkpt>
<trkpt lat="47.481419" lon="11.01828">
<ele>737.334</ele>
<time>2020-09-11T16:22:33Z</time>
</trkpt>
<trkpt lat="47.481415" lon="11.018205">
<ele>737.356</ele>
<time>2020-09-11T16:22:34Z</time>
</trkpt>
<trkpt lat="47.481411" lon="11.018131">
<ele>737.412</ele>
<time>2020-09-11T16:22:35Z</time>
</trkpt>
<trkpt lat="47.481411" lon="11.018064">
<ele>737.45</ele>
<time>2020-09-11T16:22:36Z</time>
</trkpt>
<trkpt lat="47.481415" lon="11.017999">
<ele>737.491</ele>
<time>2020-09-11T16:22:37Z</time>
</trkpt>
<trkpt lat="47.481419" lon="11.017937">
<ele>737.521</ele>
<time>2020-09-11T16:22:38Z</time>
</trkpt>
<trkpt lat="47.481419" lon="11.017877">
<ele>737.54</ele>
<time>2020-09-11T16:22:39Z</time>
</trkpt>
<trkpt lat="47.481419" lon="11.017817">
<ele>737.778</ele>
<time>2020-09-11T16:22:40Z</time>
</trkpt>
<trkpt lat="47.481419" lon="11.017752">
<ele>738.025</ele>
<time>2020-09-11T16:22:41Z</time>
</trkpt>
<trkpt lat="47.481415" lon="11.017694">
<ele>738.189</ele>
<time>2020-09-11T16:22:42Z</time>
</trkpt>
<trkpt lat="47.481407" lon="11.017632">
<ele>738.311</ele>
<time>2020-09-11T16:22:43Z</time>
</trkpt>
<trkpt lat="47.481403" lon="11.017567">
<ele>738.405</ele>
<time>2020-09-11T16:22:44Z</time>
</trkpt>
<trkpt lat="47.4814" lon="11.017509">
<ele>738.46</ele>
<time>2020-09-11T16:22:45Z</time>
</trkpt>
<trkpt lat="47.481396" lon="11.017444">
<ele>738.505</ele>
<time>2020-09-11T16:22:46Z</time>
</trkpt>
<trkpt lat="47.481392" lon="11.017377">
<ele>738.532</ele>
<time>2020-09-11T16:22:47Z</time>
</trkpt>
<trkpt lat="47.481384" lon="11.01731">
<ele>738.532</ele>
<time>2020-09-11T16:22:48Z</time>
</trkpt>
<trkpt lat="47.481384" lon="11.017241">
<ele>738.532</ele>
<time>2020-09-11T16:22:49Z</time>
</trkpt>
<trkpt lat="47.481384" lon="11.01717">
<ele>738.532</ele>
<time>2020-09-11T16:22:50Z</time>
</trkpt>
<trkpt lat="47.48138" lon="11.017097">
<ele>738.532</ele>
<time>2020-09-11T16:22:51Z</time>
</trkpt>
<trkpt lat="47.48138" lon="11.017027">
<ele>738.532</ele>
<time>2020-09-11T16:22:52Z</time>
</trkpt>
<trkpt lat="47.481377" lon="11.016953">
<ele>738.532</ele>
<time>2020-09-11T16:22:53Z</time>
</trkpt>
<trkpt lat="47.481373" lon="11.016876">
<ele>738.532</ele>
<time>2020-09-11T16:22:54Z</time>
</trkpt>
<trkpt lat="47.481369" lon="11.016805">
<ele>738.532</ele>
<time>2020-09-11T16:22:55Z</time>
</trkpt>
<trkpt lat="47.481369" lon="11.016729">
<ele>738.532</ele>
<time>2020-09-11T16:22:56Z</time>
</trkpt>
<trkpt lat="47.481365" lon="11.016655">
<ele>738.532</ele>
<time>2020-09-11T16:22:57Z</time>
</trkpt>
<trkpt lat="47.481369" lon="11.016583">
<ele>738.532</ele>
<time>2020-09-11T16:22:58Z</time>
</trkpt>
<trkpt lat="47.481373" lon="11.016505">
<ele>738.532</ele>
<time>2020-09-11T16:22:59Z</time>
</trkpt>
<trkpt lat="47.481377" lon="11.01643">
<ele>738.532</ele>
<time>2020-09-11T16:23:00Z</time>
</trkpt>
<trkpt lat="47.48138" lon="11.01635">
<ele>738.532</ele>
<time>2020-09-11T16:23:01Z</time>
</trkpt>
<trkpt lat="47.48138" lon="11.016271">
<ele>738.532</ele>
<time>2020-09-11T16:23:02Z</time>
</trkpt>
<trkpt lat="47.48138" lon="11.016191">
<ele>738.532</ele>
<time>2020-09-11T16:23:03Z</time>
</trkpt>
<trkpt lat="47.48138" lon="11.016113">
<ele>738.532</ele>
<time>2020-09-11T16:23:04Z</time>
</trkpt>
<trkpt lat="47.481377" lon="11.016027">
<ele>738.532</ele>
<time>2020-09-11T16:23:05Z</time>
</trkpt>
<trkpt lat="47.481377" lon="11.015942">
<ele>738.532</ele>
<time>2020-09-11T16:23:06Z</time>
</trkpt>
<trkpt lat="47.481373" lon="11.015858">
<ele>738.532</ele>
<time>2020-09-11T16:23:07Z</time>
</trkpt>
<trkpt lat="47.481369" lon="11.015774">
<ele>738.834</ele>
<time>2020-09-11T16:23:08Z</time>
</trkpt>
<trkpt lat="47.481361" lon="11.015688">
<ele>739.061</ele>
<time>2020-09-11T16:23:09Z</time>
</trkpt>
<trkpt lat="47.48135" lon="11.015611">
<ele>739.232</ele>
<time>2020-09-11T16:23:10Z</time>
</trkpt>
<trkpt lat="47.481339" lon="11.015533">
<ele>739.352</ele>
<time>2020-09-11T16:23:11Z</time>
</trkpt>
<trkpt lat="47.481327" lon="11.01546">
<ele>739.438</ele>
<time>2020-09-11T16:23:12Z</time>
</trkpt>
<trkpt lat="47.481323" lon="11.01539">
<ele>739.489</ele>
<time>2020-09-11T16:23:13Z</time>
</trkpt>
<trkpt lat="47.481327" lon="11.015313">
<ele>739.514</ele>
<time>2020-09-11T16:23:14Z</time>
</trkpt>
<trkpt lat="47.481331" lon="11.015237">
<ele>739.514</ele>
<time>2020-09-11T16:23:15Z</time>
</trkpt>
<trkpt lat="47.481339" lon="11.015156">
<ele>739.514</ele>
<time>2020-09-11T16:23:16Z</time>
</trkpt>
<trkpt lat="47.481342" lon="11.01507">
<ele>739.514</ele>
<time>2020-09-11T16:23:17Z</time>
</trkpt>
<trkpt lat="47.481346" lon="11.014988">
<ele>739.514</ele>
<time>2020-09-11T16:23:18Z</time>
</trkpt>
<trkpt lat="47.481354" lon="11.014911">
<ele>739.514</ele>
<time>2020-09-11T16:23:19Z</time>
</trkpt>
<trkpt lat="47.481361" lon="11.014833">
<ele>739.514</ele>
<time>2020-09-11T16:23:20Z</time>
</trkpt>
<trkpt lat="47.481369" lon="11.014753">
<ele>739.514</ele>
<time>2020-09-11T16:23:21Z</time>
</trkpt>
<trkpt lat="47.481377" lon="11.014668">
<ele>739.514</ele>
<time>2020-09-11T16:23:22Z</time>
</trkpt>
<trkpt lat="47.481377" lon="11.014585">
<ele>739.514</ele>
<time>2020-09-11T16:23:23Z</time>
</trkpt>
<trkpt lat="47.48138" lon="11.014508">
<ele>739.514</ele>
<time>2020-09-11T16:23:24Z</time>
</trkpt>
<trkpt lat="47.481384" lon="11.014433">
<ele>739.514</ele>
<time>2020-09-11T16:23:25Z</time>
</trkpt>
<trkpt lat="47.48138" lon="11.014358">
<ele>739.514</ele>
<time>2020-09-11T16:23:26Z</time>
</trkpt>
<trkpt lat="47.48138" lon="11.014285">
<ele>739.514</ele>
<time>2020-09-11T16:23:27Z</time>
</trkpt>
<trkpt lat="47.48138" lon="11.014212">
<ele>739.514</ele>
<time>2020-09-11T16:23:28Z</time>
</trkpt>
<trkpt lat="47.48138" lon="11.014138">
<ele>739.514</ele>
<time>2020-09-11T16:23:29Z</time>
</trkpt>
<trkpt lat="47.48138" lon="11.014069">
<ele>739.781</ele>
<time>2020-09-11T16:23:30Z</time>
</trkpt>
<trkpt lat="47.481384" lon="11.013998">
<ele>739.995</ele>
<time>2020-09-11T16:23:31Z</time>
</trkpt>
<trkpt lat="47.481392" lon="11.013924">
<ele>740.163</ele>
<time>2020-09-11T16:23:32Z</time>
</trkpt>
<trkpt lat="47.481396" lon="11.013848">
<ele>740.286</ele>
<time>2020-09-11T16:23:33Z</time>
</trkpt>
<trkpt lat="47.481403" lon="11.013773">
<ele>740.367</ele>
<time>2020-09-11T16:23:34Z</time>
</trkpt>
<trkpt lat="47.481407" lon="11.013698">
<ele>740.425</ele>
<time>2020-09-11T16:23:35Z</time>
</trkpt>
<trkpt lat="47.481407" lon="11.013625">
<ele>740.468</ele>
<time>2020-09-11T16:23:36Z</time>
</trkpt>
<trkpt lat="47.481407" lon="11.013558">
<ele>740.495</ele>
<time>2020-09-11T16:23:37Z</time>
</trkpt>
<trkpt lat="47.481411" lon="11.013498">
<ele>740.495</ele>
<time>2020-09-11T16:23:38Z</time>
</trkpt>
<trkpt lat="47.481415" lon="11.013433">
<ele>740.495</ele>
<time>2020-09-11T16:23:39Z</time>
</trkpt>
<trkpt lat="47.481419" lon="11.013369">
<ele>740.495</ele>
<time>2020-09-11T16:23:40Z</time>
</trkpt>
<trkpt lat="47.481422" lon="11.013306">
<ele>740.495</ele>
<time>2020-09-11T16:23:41Z</time>
</trkpt>
<trkpt lat="47.481422" lon="11.013237">
<ele>740.495</ele>
<time>2020-09-11T16:23:42Z</time>
</trkpt>
<trkpt lat="47.48143" lon="11.013168">
<ele>740.495</ele>
<time>2020-09-11T16:23:43Z</time>
</trkpt>
<trkpt lat="47.481434" lon="11.013099">
<ele>740.495</ele>
<time>2020-09-11T16:23:44Z</time>
</trkpt>
<trkpt lat="47.481441" lon="11.013023">
<ele>740.495</ele>
<time>2020-09-11T16:23:45Z</time>
</trkpt>
<trkpt lat="47.481441" lon="11.012952">
<ele>740.495</ele>
<time>2020-09-11T16:23:46Z</time>
</trkpt>
<trkpt lat="47.481449" lon="11.012877">
<ele>740.495</ele>
<time>2020-09-11T16:23:47Z</time>
</trkpt>
<trkpt lat="47.481457" lon="11.012803">
<ele>740.495</ele>
<time>2020-09-11T16:23:48Z</time>
</trkpt>
<trkpt lat="47.481468" lon="11.012728">
<ele>740.761</ele>
<time>2020-09-11T16:23:49Z</time>
</trkpt>
<trkpt lat="47.481472" lon="11.012654">
<ele>740.96</ele>
<time>2020-09-11T16:23:50Z</time>
</trkpt>
<trkpt lat="47.48148" lon="11.01258">
<ele>741.11</ele>
<time>2020-09-11T16:23:51Z</time>
</trkpt>
<trkpt lat="47.481495" lon="11.012502">
<ele>741.218</ele>
<time>2020-09-11T16:23:52Z</time>
</trkpt>
<trkpt lat="47.481514" lon="11.012424">
<ele>741.297</ele>
<time>2020-09-11T16:23:53Z</time>
</trkpt>
<trkpt lat="47.481537" lon="11.012352">
<ele>741.342</ele>
<time>2020-09-11T16:23:54Z</time>
</trkpt>
<trkpt lat="47.48156" lon="11.012279">
<ele>741.368</ele>
<time>2020-09-11T16:23:55Z</time>
</trkpt>
<trkpt lat="47.481575" lon="11.012212">
<ele>741.388</ele>
<time>2020-09-11T16:23:56Z</time>
</trkpt>
<trkpt lat="47.481594" lon="11.012141">
<ele>741.388</ele>
<time>2020-09-11T16:23:57Z</time>
</trkpt>
<trkpt lat="47.481617" lon="11.012074">
<ele>741.388</ele>
<time>2020-09-11T16:23:58Z</time>
</trkpt>
<trkpt lat="47.481636" lon="11.01201">
<ele>741.388</ele>
<time>2020-09-11T16:23:59Z</time>
</trkpt>
<trkpt lat="47.481659" lon="11.011945">
<ele>741.388</ele>
<time>2020-09-11T16:24:00Z</time>
</trkpt>
<trkpt lat="47.48167" lon="11.011882">
<ele>741.388</ele>
<time>2020-09-11T16:24:01Z</time>
</trkpt>
<trkpt lat="47.481682" lon="11.011816">
<ele>741.388</ele>
<time>2020-09-11T16:24:02Z</time>
</trkpt>
<trkpt lat="47.481701" lon="11.011748">
<ele>741.388</ele>
<time>2020-09-11T16:24:03Z</time>
</trkpt>
<trkpt lat="47.481712" lon="11.011676">
<ele>741.388</ele>
<time>2020-09-11T16:24:04Z</time>
</trkpt>
<trkpt lat="47.481728" lon="11.011603">
<ele>741.388</ele>
<time>2020-09-11T16:24:05Z</time>
</trkpt>
<trkpt lat="47.481735" lon="11.011538">
<ele>741.388</ele>
<time>2020-09-11T16:24:06Z</time>
</trkpt>
<trkpt lat="47.481739" lon="11.011472">
<ele>741.388</ele>
<time>2020-09-11T16:24:07Z</time>
</trkpt>
<trkpt lat="47.48175" lon="11.011405">
<ele>741.388</ele>
<time>2020-09-11T16:24:08Z</time>
</trkpt>
<trkpt lat="47.481762" lon="11.011343">
<ele>741.697</ele>
<time>2020-09-11T16:24:09Z</time>
</trkpt>
<trkpt lat="47.481773" lon="11.01128">
<ele>741.933</ele>
<time>2020-09-11T16:24:10Z</time>
</trkpt>
<trkpt lat="47.481781" lon="11.011209">
<ele>742.108</ele>
<time>2020-09-11T16:24:11Z</time>
</trkpt>
<trkpt lat="47.481789" lon="11.011129">
<ele>742.245</ele>
<time>2020-09-11T16:24:12Z</time>
</trkpt>
<trkpt lat="47.481796" lon="11.01105">
<ele>742.342</ele>
<time>2020-09-11T16:24:13Z</time>
</trkpt>
<trkpt lat="47.4818" lon="11.010972">
<ele>742.404</ele>
<time>2020-09-11T16:24:14Z</time>
</trkpt>
<trkpt lat="47.4818" lon="11.010897">
<ele>742.435</ele>
<time>2020-09-11T16:24:15Z</time>
</trkpt>
<trkpt lat="47.481804" lon="11.010825">
<ele>742.459</ele>
<time>2020-09-11T16:24:16Z</time>
</trkpt>
<trkpt lat="47.481804" lon="11.010748">
<ele>742.459</ele>
<time>2020-09-11T16:24:17Z</time>
</trkpt>
<trkpt lat="47.481804" lon="11.010673">
<ele>742.459</ele>
<time>2020-09-11T16:24:18Z</time>
</trkpt>
<trkpt lat="47.481804" lon="11.010601">
<ele>742.459</ele>
<time>2020-09-11T16:24:19Z</time>
</trkpt>
<trkpt lat="47.481808" lon="11.010527">
<ele>742.729</ele>
<time>2020-09-11T16:24:20Z</time>
</trkpt>
<trkpt lat="47.481804" lon="11.010445">
<ele>742.946</ele>
<time>2020-09-11T16:24:21Z</time>
</trkpt>
<trkpt lat="47.4818" lon="11.010365">
<ele>743.11</ele>
<time>2020-09-11T16:24:22Z</time>
</trkpt>
<trkpt lat="47.4818" lon="11.010282">
<ele>743.236</ele>
<time>2020-09-11T16:24:23Z</time>
</trkpt>
<trkpt lat="47.481792" lon="11.010195">
<ele>743.317</ele>
<time>2020-09-11T16:24:24Z</time>
</trkpt>
<trkpt lat="47.481781" lon="11.010103">
<ele>743.372</ele>
<time>2020-09-11T16:24:25Z</time>
</trkpt>
<trkpt lat="47.48177" lon="11.01002">
<ele>743.415</ele>
<time>2020-09-11T16:24:26Z</time>
</trkpt>
<trkpt lat="47.481762" lon="11.009943">
<ele>743.441</ele>
<time>2020-09-11T16:24:27Z</time>
</trkpt>
<trkpt lat="47.481758" lon="11.009871">
<ele>743.736</ele>
<time>2020-09-11T16:24:28Z</time>
</trkpt>
<trkpt lat="47.48175" lon="11.009797">
<ele>743.957</ele>
<time>2020-09-11T16:24:29Z</time>
</trkpt>
<trkpt lat="47.481739" lon="11.009722">
<ele>744.126</ele>
<time>2020-09-11T16:24:30Z</time>
</trkpt>
<trkpt lat="47.481735" lon="11.00965">
<ele>744.248</ele>
<time>2020-09-11T16:24:31Z</time>
</trkpt>
<trkpt lat="47.481731" lon="11.009573">
<ele>744.334</ele>
<time>2020-09-11T16:24:32Z</time>
</trkpt>
<trkpt lat="47.481724" lon="11.009493">
<ele>744.391</ele>
<time>2020-09-11T16:24:33Z</time>
</trkpt>
<trkpt lat="47.481712" lon="11.009418">
<ele>744.419</ele>
<time>2020-09-11T16:24:34Z</time>
</trkpt>
<trkpt lat="47.481705" lon="11.009344">
<ele>744.423</ele>
<time>2020-09-11T16:24:35Z</time>
</trkpt>
<trkpt lat="47.481701" lon="11.009272">
<ele>744.623</ele>
<time>2020-09-11T16:24:36Z</time>
</trkpt>
<trkpt lat="47.481693" lon="11.009193">
<ele>744.81</ele>
<time>2020-09-11T16:24:37Z</time>
</trkpt>
<trkpt lat="47.481689" lon="11.00912">
<ele>744.964</ele>
<time>2020-09-11T16:24:38Z</time>
</trkpt>
<trkpt lat="47.481693" lon="11.009048">
<ele>745.087</ele>
<time>2020-09-11T16:24:39Z</time>
</trkpt>
<trkpt lat="47.481697" lon="11.00898">
<ele>745.179</ele>
<time>2020-09-11T16:24:40Z</time>
</trkpt>
<trkpt lat="47.481697" lon="11.008902">
<ele>745.248</ele>
<time>2020-09-11T16:24:41Z</time>
</trkpt>
<trkpt lat="47.481693" lon="11.008823">
<ele>745.295</ele>
<time>2020-09-11T16:24:42Z</time>
</trkpt>
<trkpt lat="47.481689" lon="11.008741">
<ele>745.316</ele>
<time>2020-09-11T16:24:43Z</time>
</trkpt>
<trkpt lat="47.481689" lon="11.008658">
<ele>745.316</ele>
<time>2020-09-11T16:24:44Z</time>
</trkpt>
<trkpt lat="47.481689" lon="11.008583">
<ele>745.316</ele>
<time>2020-09-11T16:24:45Z</time>
</trkpt>
<trkpt lat="47.481686" lon="11.008505">
<ele>745.316</ele>
<time>2020-09-11T16:24:46Z</time>
</trkpt>
<trkpt lat="47.481678" lon="11.008429">
<ele>745.559</ele>
<time>2020-09-11T16:24:47Z</time>
</trkpt>
<trkpt lat="47.48167" lon="11.008358">
<ele>745.758</ele>
<time>2020-09-11T16:24:48Z</time>
</trkpt>
<trkpt lat="47.481667" lon="11.008284">
<ele>745.916</ele>
<time>2020-09-11T16:24:49Z</time>
</trkpt>
<trkpt lat="47.481663" lon="11.008213">
<ele>746.021</ele>
<time>2020-09-11T16:24:50Z</time>
</trkpt>
<trkpt lat="47.481663" lon="11.008146">
<ele>746.364</ele>
<time>2020-09-11T16:24:51Z</time>
</trkpt>
<trkpt lat="47.481663" lon="11.008075">
<ele>746.645</ele>
<time>2020-09-11T16:24:52Z</time>
</trkpt>
<trkpt lat="47.481663" lon="11.008003">
<ele>746.869</ele>
<time>2020-09-11T16:24:53Z</time>
</trkpt>
<trkpt lat="47.481659" lon="11.007932">
<ele>747</ele>
<time>2020-09-11T16:24:54Z</time>
</trkpt>
<trkpt lat="47.481651" lon="11.007861">
<ele>747.332</ele>
<time>2020-09-11T16:24:55Z</time>
</trkpt>
<trkpt lat="47.481636" lon="11.007788">
<ele>747.569</ele>
<time>2020-09-11T16:24:56Z</time>
</trkpt>
<trkpt lat="47.481628" lon="11.007716">
<ele>747.773</ele>
<time>2020-09-11T16:24:57Z</time>
</trkpt>
<trkpt lat="47.481617" lon="11.007645">
<ele>748.179</ele>
<time>2020-09-11T16:24:58Z</time>
</trkpt>
<trkpt lat="47.481606" lon="11.007571">
<ele>748.482</ele>
<time>2020-09-11T16:24:59Z</time>
</trkpt>
<trkpt lat="47.481598" lon="11.007503">
<ele>748.676</ele>
<time>2020-09-11T16:25:00Z</time>
</trkpt>
<trkpt lat="47.481586" lon="11.00744">
<ele>749.106</ele>
<time>2020-09-11T16:25:01Z</time>
</trkpt>
<trkpt lat="47.481579" lon="11.007379">
<ele>749.436</ele>
<time>2020-09-11T16:25:02Z</time>
</trkpt>
<trkpt lat="47.481575" lon="11.007317">
<ele>749.759</ele>
<time>2020-09-11T16:25:03Z</time>
</trkpt>
<trkpt lat="47.481586" lon="11.007249">
<ele>749.894</ele>
<time>2020-09-11T16:25:04Z</time>
</trkpt>
<trkpt lat="47.481594" lon="11.007182">
<ele>749.988</ele>
<time>2020-09-11T16:25:05Z</time>
</trkpt>
<trkpt lat="47.481598" lon="11.007112">
<ele>750.052</ele>
<time>2020-09-11T16:25:06Z</time>
</trkpt>
<trkpt lat="47.48159" lon="11.007038">
<ele>750.11</ele>
<time>2020-09-11T16:25:07Z</time>
</trkpt>
<trkpt lat="47.48159" lon="11.00697">
<ele>750.139</ele>
<time>2020-09-11T16:25:08Z</time>
</trkpt>
<trkpt lat="47.481583" lon="11.006902">
<ele>750.455</ele>
<time>2020-09-11T16:25:09Z</time>
</trkpt>
<trkpt lat="47.481583" lon="11.006828">
<ele>750.699</ele>
<time>2020-09-11T16:25:10Z</time>
</trkpt>
<trkpt lat="47.481583" lon="11.006762">
<ele>750.881</ele>
<time>2020-09-11T16:25:11Z</time>
</trkpt>
<trkpt lat="47.481579" lon="11.006696">
<ele>750.979</ele>
<time>2020-09-11T16:25:12Z</time>
</trkpt>
<trkpt lat="47.481575" lon="11.006629">
<ele>751.338</ele>
<time>2020-09-11T16:25:13Z</time>
</trkpt>
<trkpt lat="47.481571" lon="11.006557">
<ele>751.599</ele>
<time>2020-09-11T16:25:14Z</time>
</trkpt>
<trkpt lat="47.481564" lon="11.006487">
<ele>751.783</ele>
<time>2020-09-11T16:25:15Z</time>
</trkpt>
<trkpt lat="47.48156" lon="11.006421">
<ele>751.919</ele>
<time>2020-09-11T16:25:16Z</time>
</trkpt>
<trkpt lat="47.481556" lon="11.006354">
<ele>752.032</ele>
<time>2020-09-11T16:25:17Z</time>
</trkpt>
<trkpt lat="47.481556" lon="11.006287">
<ele>752.114</ele>
<time>2020-09-11T16:25:18Z</time>
</trkpt>
<trkpt lat="47.481552" lon="11.00622">
<ele>752.169</ele>
<time>2020-09-11T16:25:19Z</time>
</trkpt>
<trkpt lat="47.481544" lon="11.006151">
<ele>752.194</ele>
<time>2020-09-11T16:25:20Z</time>
</trkpt>
<trkpt lat="47.481537" lon="11.006084">
<ele>752.194</ele>
<time>2020-09-11T16:25:21Z</time>
</trkpt>
<trkpt lat="47.481533" lon="11.006021">
<ele>752.473</ele>
<time>2020-09-11T16:25:22Z</time>
</trkpt>
<trkpt lat="47.481529" lon="11.005957">
<ele>752.697</ele>
<time>2020-09-11T16:25:23Z</time>
</trkpt>
<trkpt lat="47.481522" lon="11.005894">
<ele>752.866</ele>
<time>2020-09-11T16:25:24Z</time>
</trkpt>
<trkpt lat="47.481518" lon="11.005829">
<ele>752.995</ele>
<time>2020-09-11T16:25:25Z</time>
</trkpt>
<trkpt lat="47.481518" lon="11.005761">
<ele>753.085</ele>
<time>2020-09-11T16:25:26Z</time>
</trkpt>
<trkpt lat="47.481522" lon="11.005694">
<ele>753.175</ele>
<time>2020-09-11T16:25:27Z</time>
</trkpt>
<trkpt lat="47.481525" lon="11.00563">
<ele>753.452</ele>
<time>2020-09-11T16:25:28Z</time>
</trkpt>
<trkpt lat="47.481533" lon="11.005565">
<ele>753.666</ele>
<time>2020-09-11T16:25:29Z</time>
</trkpt>
<trkpt lat="47.481541" lon="11.005502">
<ele>753.896</ele>
<time>2020-09-11T16:25:30Z</time>
</trkpt>
<trkpt lat="47.481544" lon="11.005442">
<ele>754.008</ele>
<time>2020-09-11T16:25:31Z</time>
</trkpt>
<trkpt lat="47.481552" lon="11.005388">
<ele>754.086</ele>
<time>2020-09-11T16:25:32Z</time>
</trkpt>
<trkpt lat="47.481556" lon="11.00533">
<ele>754.133</ele>
<time>2020-09-11T16:25:33Z</time>
</trkpt>
<trkpt lat="47.48156" lon="11.005269">
<ele>754.16</ele>
<time>2020-09-11T16:25:34Z</time>
</trkpt>
<trkpt lat="47.481564" lon="11.005197">
<ele>754.16</ele>
<time>2020-09-11T16:25:35Z</time>
</trkpt>
<trkpt lat="47.481567" lon="11.005127">
<ele>754.16</ele>
<time>2020-09-11T16:25:36Z</time>
</trkpt>
<trkpt lat="47.481571" lon="11.005062">
<ele>754.16</ele>
<time>2020-09-11T16:25:37Z</time>
</trkpt>
<trkpt lat="47.481571" lon="11.004993">
<ele>754.16</ele>
<time>2020-09-11T16:25:38Z</time>
</trkpt>
<trkpt lat="47.481575" lon="11.00492">
<ele>754.16</ele>
<time>2020-09-11T16:25:39Z</time>
</trkpt>
<trkpt lat="47.481579" lon="11.004854">
<ele>754.16</ele>
<time>2020-09-11T16:25:40Z</time>
</trkpt>
<trkpt lat="47.481579" lon="11.004789">
<ele>754.16</ele>
<time>2020-09-11T16:25:41Z</time>
</trkpt>
<trkpt lat="47.481579" lon="11.00473">
<ele>754.16</ele>
<time>2020-09-11T16:25:42Z</time>
</trkpt>
<trkpt lat="47.481579" lon="11.00467">
<ele>754.406</ele>
<time>2020-09-11T16:25:43Z</time>
</trkpt>
<trkpt lat="47.481579" lon="11.004613">
<ele>754.598</ele>
<time>2020-09-11T16:25:44Z</time>
</trkpt>
<trkpt lat="47.481579" lon="11.00455">
<ele>754.753</ele>
<time>2020-09-11T16:25:45Z</time>
</trkpt>
<trkpt lat="47.481575" lon="11.004485">
<ele>754.857</ele>
<time>2020-09-11T16:25:46Z</time>
</trkpt>
<trkpt lat="47.481571" lon="11.004416">
<ele>754.968</ele>
<time>2020-09-11T16:25:47Z</time>
</trkpt>
<trkpt lat="47.481571" lon="11.00435">
<ele>755.302</ele>
<time>2020-09-11T16:25:48Z</time>
</trkpt>
<trkpt lat="47.481564" lon="11.004285">
<ele>755.563</ele>
<time>2020-09-11T16:25:49Z</time>
</trkpt>
<trkpt lat="47.481556" lon="11.004218">
<ele>755.76</ele>
<time>2020-09-11T16:25:50Z</time>
</trkpt>
<trkpt lat="47.481548" lon="11.004148">
<ele>755.972</ele>
<time>2020-09-11T16:25:51Z</time>
</trkpt>
<trkpt lat="47.481541" lon="11.004082">
<ele>756.05</ele>
<time>2020-09-11T16:25:52Z</time>
</trkpt>
<trkpt lat="47.481533" lon="11.004014">
<ele>756.098</ele>
<time>2020-09-11T16:25:53Z</time>
</trkpt>
<trkpt lat="47.481525" lon="11.003947">
<ele>756.121</ele>
<time>2020-09-11T16:25:54Z</time>
</trkpt>
<trkpt lat="47.481518" lon="11.003877">
<ele>756.126</ele>
<time>2020-09-11T16:25:55Z</time>
</trkpt>
<trkpt lat="47.48151" lon="11.003809">
<ele>756.126</ele>
<time>2020-09-11T16:25:56Z</time>
</trkpt>
<trkpt lat="47.481506" lon="11.003741">
<ele>756.126</ele>
<time>2020-09-11T16:25:57Z</time>
</trkpt>
<trkpt lat="47.481503" lon="11.003675">
<ele>756.126</ele>
<time>2020-09-11T16:25:58Z</time>
</trkpt>
<trkpt lat="47.481495" lon="11.003614">
<ele>756.126</ele>
<time>2020-09-11T16:25:59Z</time>
</trkpt>
<trkpt lat="47.481487" lon="11.003555">
<ele>756.42</ele>
<time>2020-09-11T16:26:00Z</time>
</trkpt>
<trkpt lat="47.48148" lon="11.003497">
<ele>756.649</ele>
<time>2020-09-11T16:26:01Z</time>
</trkpt>
<trkpt lat="47.481476" lon="11.00344">
<ele>756.825</ele>
<time>2020-09-11T16:26:02Z</time>
</trkpt>
<trkpt lat="47.481472" lon="11.003384">
<ele>756.93</ele>
<time>2020-09-11T16:26:03Z</time>
</trkpt>
<trkpt lat="47.481464" lon="11.003322">
<ele>757.251</ele>
<time>2020-09-11T16:26:04Z</time>
</trkpt>
<trkpt lat="47.481453" lon="11.00326">
<ele>757.5</ele>
<time>2020-09-11T16:26:05Z</time>
</trkpt>
<trkpt lat="47.481445" lon="11.003191">
<ele>757.682</ele>
<time>2020-09-11T16:26:06Z</time>
</trkpt>
<trkpt lat="47.481441" lon="11.003126">
<ele>757.852</ele>
<time>2020-09-11T16:26:07Z</time>
</trkpt>
<trkpt lat="47.481438" lon="11.00306">
<ele>757.954</ele>
<time>2020-09-11T16:26:08Z</time>
</trkpt>
<trkpt lat="47.481434" lon="11.002995">
<ele>758.027</ele>
<time>2020-09-11T16:26:09Z</time>
</trkpt>
<trkpt lat="47.48143" lon="11.002934">
<ele>758.072</ele>
<time>2020-09-11T16:26:10Z</time>
</trkpt>
<trkpt lat="47.481426" lon="11.002869">
<ele>758.093</ele>
<time>2020-09-11T16:26:11Z</time>
</trkpt>
<trkpt lat="47.481426" lon="11.002808">
<ele>758.093</ele>
<time>2020-09-11T16:26:12Z</time>
</trkpt>
<trkpt lat="47.48143" lon="11.00275">
<ele>758.093</ele>
<time>2020-09-11T16:26:13Z</time>
</trkpt>
<trkpt lat="47.481434" lon="11.002698">
<ele>758.093</ele>
<time>2020-09-11T16:26:14Z</time>
</trkpt>
<trkpt lat="47.481438" lon="11.002645">
<ele>758.093</ele>
<time>2020-09-11T16:26:15Z</time>
</trkpt>
<trkpt lat="47.481441" lon="11.002593">
<ele>758.093</ele>
<time>2020-09-11T16:26:16Z</time>
</trkpt>
<trkpt lat="47.481445" lon="11.002542">
<ele>758.093</ele>
<time>2020-09-11T16:26:17Z</time>
</trkpt>
<trkpt lat="47.481453" lon="11.002483">
<ele>758.093</ele>
<time>2020-09-11T16:26:18Z</time>
</trkpt>
<trkpt lat="47.481461" lon="11.002419">
<ele>758.093</ele>
<time>2020-09-11T16:26:19Z</time>
</trkpt>
<trkpt lat="47.481468" lon="11.002353">
<ele>758.399</ele>
<time>2020-09-11T16:26:20Z</time>
</trkpt>
<trkpt lat="47.481472" lon="11.002285">
<ele>758.646</ele>
<time>2020-09-11T16:26:21Z</time>
</trkpt>
<trkpt lat="47.481472" lon="11.002212">
<ele>758.832</ele>
<time>2020-09-11T16:26:22Z</time>
</trkpt>
<trkpt lat="47.481468" lon="11.002141">
<ele>758.956</ele>
<time>2020-09-11T16:26:23Z</time>
</trkpt>
<trkpt lat="47.481468" lon="11.002074">
<ele>759.043</ele>
<time>2020-09-11T16:26:24Z</time>
</trkpt>
<trkpt lat="47.481468" lon="11.002005">
<ele>759.1</ele>
<time>2020-09-11T16:26:25Z</time>
</trkpt>
<trkpt lat="47.481472" lon="11.001935">
<ele>759.139</ele>
<time>2020-09-11T16:26:26Z</time>
</trkpt>
<trkpt lat="47.481472" lon="11.001862">
<ele>759.166</ele>
<time>2020-09-11T16:26:27Z</time>
</trkpt>
<trkpt lat="47.48148" lon="11.00179">
<ele>759.166</ele>
<time>2020-09-11T16:26:28Z</time>
</trkpt>
<trkpt lat="47.481487" lon="11.001719">
<ele>759.166</ele>
<time>2020-09-11T16:26:29Z</time>
</trkpt>
<trkpt lat="47.481487" lon="11.001642">
<ele>759.166</ele>
<time>2020-09-11T16:26:30Z</time>
</trkpt>
<trkpt lat="47.481487" lon="11.001565">
<ele>759.166</ele>
<time>2020-09-11T16:26:31Z</time>
</trkpt>
<trkpt lat="47.481487" lon="11.001492">
<ele>759.166</ele>
<time>2020-09-11T16:26:32Z</time>
</trkpt>
<trkpt lat="47.481491" lon="11.001416">
<ele>759.166</ele>
<time>2020-09-11T16:26:33Z</time>
</trkpt>
<trkpt lat="47.481495" lon="11.001348">
<ele>759.166</ele>
<time>2020-09-11T16:26:34Z</time>
</trkpt>
<trkpt lat="47.481499" lon="11.001278">
<ele>759.166</ele>
<time>2020-09-11T16:26:35Z</time>
</trkpt>
<trkpt lat="47.481506" lon="11.001204">
<ele>759.166</ele>
<time>2020-09-11T16:26:36Z</time>
</trkpt>
<trkpt lat="47.48151" lon="11.001131">
<ele>759.166</ele>
<time>2020-09-11T16:26:37Z</time>
</trkpt>
<trkpt lat="47.481518" lon="11.00106">
<ele>759.166</ele>
<time>2020-09-11T16:26:38Z</time>
</trkpt>
<trkpt lat="47.481525" lon="11.000991">
<ele>759.166</ele>
<time>2020-09-11T16:26:39Z</time>
</trkpt>
<trkpt lat="47.481529" lon="11.000921">
<ele>759.166</ele>
<time>2020-09-11T16:26:40Z</time>
</trkpt>
<trkpt lat="47.481537" lon="11.000856">
<ele>759.453</ele>
<time>2020-09-11T16:26:41Z</time>
</trkpt>
<trkpt lat="47.481537" lon="11.000783">
<ele>759.684</ele>
<time>2020-09-11T16:26:42Z</time>
</trkpt>
<trkpt lat="47.481537" lon="11.00071">
<ele>759.854</ele>
<time>2020-09-11T16:26:43Z</time>
</trkpt>
<trkpt lat="47.481537" lon="11.000637">
<ele>759.986</ele>
<time>2020-09-11T16:26:44Z</time>
</trkpt>
<trkpt lat="47.481537" lon="11.00056">
<ele>760.079</ele>
<time>2020-09-11T16:26:45Z</time>
</trkpt>
<trkpt lat="47.481541" lon="11.000482">
<ele>760.148</ele>
<time>2020-09-11T16:26:46Z</time>
</trkpt>
<trkpt lat="47.481541" lon="11.0004">
<ele>760.21</ele>
<time>2020-09-11T16:26:47Z</time>
</trkpt>
<trkpt lat="47.481544" lon="11.000323">
<ele>760.239</ele>
<time>2020-09-11T16:26:48Z</time>
</trkpt>
<trkpt lat="47.481552" lon="11.000247">
<ele>760.239</ele>
<time>2020-09-11T16:26:49Z</time>
</trkpt>
<trkpt lat="47.481556" lon="11.000176">
<ele>760.239</ele>
<time>2020-09-11T16:26:50Z</time>
</trkpt>
<trkpt lat="47.481556" lon="11.000103">
<ele>760.239</ele>
<time>2020-09-11T16:26:51Z</time>
</trkpt>
<trkpt lat="47.481556" lon="11.000029">
<ele>760.239</ele>
<time>2020-09-11T16:26:52Z</time>
</trkpt>
<trkpt lat="47.481567" lon="10.999955">
<ele>760.239</ele>
<time>2020-09-11T16:26:53Z</time>
</trkpt>
<trkpt lat="47.481579" lon="10.99988">
<ele>760.239</ele>
<time>2020-09-11T16:26:54Z</time>
</trkpt>
<trkpt lat="47.481594" lon="10.999809">
<ele>760.239</ele>
<time>2020-09-11T16:26:55Z</time>
</trkpt>
<trkpt lat="47.481606" lon="10.999737">
<ele>760.477</ele>
<time>2020-09-11T16:26:56Z</time>
</trkpt>
<trkpt lat="47.481613" lon="10.999662">
<ele>760.704</ele>
<time>2020-09-11T16:26:57Z</time>
</trkpt>
<trkpt lat="47.481625" lon="10.999589">
<ele>760.893</ele>
<time>2020-09-11T16:26:58Z</time>
</trkpt>
<trkpt lat="47.481636" lon="10.999516">
<ele>761.038</ele>
<time>2020-09-11T16:26:59Z</time>
</trkpt>
<trkpt lat="47.481644" lon="10.999447">
<ele>761.15</ele>
<time>2020-09-11T16:27:00Z</time>
</trkpt>
<trkpt lat="47.481655" lon="10.999382">
<ele>761.232</ele>
<time>2020-09-11T16:27:01Z</time>
</trkpt>
<trkpt lat="47.481663" lon="10.999315">
<ele>761.285</ele>
<time>2020-09-11T16:27:02Z</time>
</trkpt>
<trkpt lat="47.48167" lon="10.999246">
<ele>761.312</ele>
<time>2020-09-11T16:27:03Z</time>
</trkpt>
<trkpt lat="47.481678" lon="10.999173">
<ele>761.312</ele>
<time>2020-09-11T16:27:04Z</time>
</trkpt>
<trkpt lat="47.481697" lon="10.99911">
<ele>761.312</ele>
<time>2020-09-11T16:27:05Z</time>
</trkpt>
<trkpt lat="47.481712" lon="10.999041">
<ele>761.312</ele>
<time>2020-09-11T16:27:06Z</time>
</trkpt>
<trkpt lat="47.481731" lon="10.998972">
<ele>761.312</ele>
<time>2020-09-11T16:27:07Z</time>
</trkpt>
<trkpt lat="47.481743" lon="10.998902">
<ele>761.312</ele>
<time>2020-09-11T16:27:08Z</time>
</trkpt>
<trkpt lat="47.481762" lon="10.998837">
<ele>761.312</ele>
<time>2020-09-11T16:27:09Z</time>
</trkpt>
<trkpt lat="47.481777" lon="10.998768">
<ele>761.614</ele>
<time>2020-09-11T16:27:10Z</time>
</trkpt>
<trkpt lat="47.481796" lon="10.998696">
<ele>761.85</ele>
<time>2020-09-11T16:27:11Z</time>
</trkpt>
<trkpt lat="47.481808" lon="10.998627">
<ele>762.029</ele>
<time>2020-09-11T16:27:12Z</time>
</trkpt>
<trkpt lat="47.481827" lon="10.998553">
<ele>762.161</ele>
<time>2020-09-11T16:27:13Z</time>
</trkpt>
<trkpt lat="47.481846" lon="10.998487">
<ele>762.25</ele>
<time>2020-09-11T16:27:14Z</time>
</trkpt>
<trkpt lat="47.481869" lon="10.998422">
<ele>762.308</ele>
<time>2020-09-11T16:27:15Z</time>
</trkpt>
<trkpt lat="47.481895" lon="10.998362">
<ele>762.355</ele>
<time>2020-09-11T16:27:16Z</time>
</trkpt>
<trkpt lat="47.481915" lon="10.998305">
<ele>762.385</ele>
<time>2020-09-11T16:27:17Z</time>
</trkpt>
<trkpt lat="47.48193" lon="10.998248">
<ele>762.385</ele>
<time>2020-09-11T16:27:18Z</time>
</trkpt>
<trkpt lat="47.481949" lon="10.998194">
<ele>762.385</ele>
<time>2020-09-11T16:27:19Z</time>
</trkpt>
<trkpt lat="47.481964" lon="10.998139">
<ele>762.385</ele>
<time>2020-09-11T16:27:20Z</time>
</trkpt>
<trkpt lat="47.481979" lon="10.998089">
<ele>762.385</ele>
<time>2020-09-11T16:27:21Z</time>
</trkpt>
<trkpt lat="47.481987" lon="10.998043">
<ele>762.385</ele>
<time>2020-09-11T16:27:22Z</time>
</trkpt>
<trkpt lat="47.481998" lon="10.997999">
<ele>762.385</ele>
<time>2020-09-11T16:27:23Z</time>
</trkpt>
<trkpt lat="47.482018" lon="10.997953">
<ele>762.385</ele>
<time>2020-09-11T16:27:24Z</time>
</trkpt>
<trkpt lat="47.482037" lon="10.997898">
<ele>762.385</ele>
<time>2020-09-11T16:27:25Z</time>
</trkpt>
<trkpt lat="47.482059" lon="10.997845">
<ele>762.385</ele>
<time>2020-09-11T16:27:26Z</time>
</trkpt>
<trkpt lat="47.482082" lon="10.997788">
<ele>762.385</ele>
<time>2020-09-11T16:27:27Z</time>
</trkpt>
<trkpt lat="47.482105" lon="10.997726">
<ele>762.385</ele>
<time>2020-09-11T16:27:28Z</time>
</trkpt>
<trkpt lat="47.482136" lon="10.997663">
<ele>762.385</ele>
<time>2020-09-11T16:27:29Z</time>
</trkpt>
<trkpt lat="47.482159" lon="10.997597">
<ele>762.688</ele>
<time>2020-09-11T16:27:30Z</time>
</trkpt>
<trkpt lat="47.482182" lon="10.99753">
<ele>762.906</ele>
<time>2020-09-11T16:27:31Z</time>
</trkpt>
<trkpt lat="47.482201" lon="10.997465">
<ele>763.06</ele>
<time>2020-09-11T16:27:32Z</time>
</trkpt>
<trkpt lat="47.482224" lon="10.997404">
<ele>763.171</ele>
<time>2020-09-11T16:27:33Z</time>
</trkpt>
<trkpt lat="47.482243" lon="10.997336">
<ele>763.25</ele>
<time>2020-09-11T16:27:34Z</time>
</trkpt>
<trkpt lat="47.482265" lon="10.997273">
<ele>763.302</ele>
<time>2020-09-11T16:27:35Z</time>
</trkpt>
<trkpt lat="47.482285" lon="10.997201">
<ele>763.342</ele>
<time>2020-09-11T16:27:36Z</time>
</trkpt>
<trkpt lat="47.482296" lon="10.997129">
<ele>763.369</ele>
<time>2020-09-11T16:27:37Z</time>
</trkpt>
<trkpt lat="47.482315" lon="10.99706">
<ele>763.369</ele>
<time>2020-09-11T16:27:38Z</time>
</trkpt>
<trkpt lat="47.482327" lon="10.996991">
<ele>763.369</ele>
<time>2020-09-11T16:27:39Z</time>
</trkpt>
<trkpt lat="47.482342" lon="10.996924">
<ele>763.369</ele>
<time>2020-09-11T16:27:40Z</time>
</trkpt>
<trkpt lat="47.482353" lon="10.996859">
<ele>763.369</ele>
<time>2020-09-11T16:27:41Z</time>
</trkpt>
<trkpt lat="47.482361" lon="10.996807">
<ele>763.644</ele>
<time>2020-09-11T16:27:42Z</time>
</trkpt>
<trkpt lat="47.482372" lon="10.996757">
<ele>763.859</ele>
<time>2020-09-11T16:27:43Z</time>
</trkpt>
<trkpt lat="47.482384" lon="10.996707">
<ele>764.02</ele>
<time>2020-09-11T16:27:44Z</time>
</trkpt>
<trkpt lat="47.482388" lon="10.996654">
<ele>764.15</ele>
<time>2020-09-11T16:27:45Z</time>
</trkpt>
<trkpt lat="47.482399" lon="10.996604">
<ele>764.247</ele>
<time>2020-09-11T16:27:46Z</time>
</trkpt>
<trkpt lat="47.482407" lon="10.996535">
<ele>764.344</ele>
<time>2020-09-11T16:27:47Z</time>
</trkpt>
<trkpt lat="47.482414" lon="10.996464">
<ele>764.408</ele>
<time>2020-09-11T16:27:48Z</time>
</trkpt>
<trkpt lat="47.482414" lon="10.996396">
<ele>764.712</ele>
<time>2020-09-11T16:27:49Z</time>
</trkpt>
<trkpt lat="47.482418" lon="10.996328">
<ele>765.022</ele>
<time>2020-09-11T16:27:50Z</time>
</trkpt>
<trkpt lat="47.482418" lon="10.996266">
<ele>765.198</ele>
<time>2020-09-11T16:27:51Z</time>
</trkpt>
<trkpt lat="47.482418" lon="10.996202">
<ele>765.326</ele>
<time>2020-09-11T16:27:52Z</time>
</trkpt>
<trkpt lat="47.482422" lon="10.996124">
<ele>765.41</ele>
<time>2020-09-11T16:27:53Z</time>
</trkpt>
<trkpt lat="47.482418" lon="10.996038">
<ele>765.468</ele>
<time>2020-09-11T16:27:54Z</time>
</trkpt>
<trkpt lat="47.482414" lon="10.995965">
<ele>765.49</ele>
<time>2020-09-11T16:27:55Z</time>
</trkpt>
<trkpt lat="47.48241" lon="10.995889">
<ele>765.516</ele>
<time>2020-09-11T16:27:56Z</time>
</trkpt>
<trkpt lat="47.482403" lon="10.995816">
<ele>765.515</ele>
<time>2020-09-11T16:27:57Z</time>
</trkpt>
<trkpt lat="47.482391" lon="10.995738">
<ele>765.795</ele>
<time>2020-09-11T16:27:58Z</time>
</trkpt>
<trkpt lat="47.48238" lon="10.995664">
<ele>766.002</ele>
<time>2020-09-11T16:27:59Z</time>
</trkpt>
<trkpt lat="47.482353" lon="10.995588">
<ele>766.15</ele>
<time>2020-09-11T16:28:00Z</time>
</trkpt>
<trkpt lat="47.482334" lon="10.995512">
<ele>766.256</ele>
<time>2020-09-11T16:28:01Z</time>
</trkpt>
<trkpt lat="47.482311" lon="10.995439">
<ele>766.333</ele>
<time>2020-09-11T16:28:02Z</time>
</trkpt>
<trkpt lat="47.482288" lon="10.995351">
<ele>766.386</ele>
<time>2020-09-11T16:28:03Z</time>
</trkpt>
<trkpt lat="47.482269" lon="10.995263">
<ele>766.407</ele>
<time>2020-09-11T16:28:04Z</time>
</trkpt>
<trkpt lat="47.482254" lon="10.995181">
<ele>766.411</ele>
<time>2020-09-11T16:28:05Z</time>
</trkpt>
<trkpt lat="47.48225" lon="10.995106">
<ele>766.411</ele>
<time>2020-09-11T16:28:06Z</time>
</trkpt>
<trkpt lat="47.482246" lon="10.995033">
<ele>766.411</ele>
<time>2020-09-11T16:28:07Z</time>
</trkpt>
<trkpt lat="47.482243" lon="10.99496">
<ele>766.411</ele>
<time>2020-09-11T16:28:08Z</time>
</trkpt>
<trkpt lat="47.482235" lon="10.994882">
<ele>766.41</ele>
<time>2020-09-11T16:28:09Z</time>
</trkpt>
<trkpt lat="47.482231" lon="10.994808">
<ele>766.411</ele>
<time>2020-09-11T16:28:10Z</time>
</trkpt>
<trkpt lat="47.482231" lon="10.994737">
<ele>766.691</ele>
<time>2020-09-11T16:28:11Z</time>
</trkpt>
<trkpt lat="47.482231" lon="10.994663">
<ele>766.888</ele>
<time>2020-09-11T16:28:12Z</time>
</trkpt>
<trkpt lat="47.482227" lon="10.994592">
<ele>767.328</ele>
<time>2020-09-11T16:28:13Z</time>
</trkpt>
<trkpt lat="47.482224" lon="10.994517">
<ele>767.666</ele>
<time>2020-09-11T16:28:14Z</time>
</trkpt>
<trkpt lat="47.482216" lon="10.994444">
<ele>767.924</ele>
<time>2020-09-11T16:28:15Z</time>
</trkpt>
<trkpt lat="47.482208" lon="10.994372">
<ele>768.102</ele>
<time>2020-09-11T16:28:16Z</time>
</trkpt>
<trkpt lat="47.482201" lon="10.994297">
<ele>768.27</ele>
<time>2020-09-11T16:28:17Z</time>
</trkpt>
<trkpt lat="47.482189" lon="10.99422">
<ele>768.609</ele>
<time>2020-09-11T16:28:18Z</time>
</trkpt>
<trkpt lat="47.482178" lon="10.994146">
<ele>768.848</ele>
<time>2020-09-11T16:28:19Z</time>
</trkpt>
<trkpt lat="47.482166" lon="10.994079">
<ele>769.022</ele>
<time>2020-09-11T16:28:20Z</time>
</trkpt>
<trkpt lat="47.482162" lon="10.994005">
<ele>769.213</ele>
<time>2020-09-11T16:28:21Z</time>
</trkpt>
<trkpt lat="47.482159" lon="10.993933">
<ele>769.289</ele>
<time>2020-09-11T16:28:22Z</time>
</trkpt>
<trkpt lat="47.482151" lon="10.993863">
<ele>769.337</ele>
<time>2020-09-11T16:28:23Z</time>
</trkpt>
<trkpt lat="47.48214" lon="10.993793">
<ele>769.36</ele>
<time>2020-09-11T16:28:24Z</time>
</trkpt>
<trkpt lat="47.482128" lon="10.993723">
<ele>769.364</ele>
<time>2020-09-11T16:28:25Z</time>
</trkpt>
<trkpt lat="47.482117" lon="10.993653">
<ele>769.364</ele>
<time>2020-09-11T16:28:26Z</time>
</trkpt>
<trkpt lat="47.482101" lon="10.993583">
<ele>769.364</ele>
<time>2020-09-11T16:28:27Z</time>
</trkpt>
<trkpt lat="47.482094" lon="10.993508">
<ele>769.364</ele>
<time>2020-09-11T16:28:28Z</time>
</trkpt>
<trkpt lat="47.482082" lon="10.993438">
<ele>769.364</ele>
<time>2020-09-11T16:28:29Z</time>
</trkpt>
<trkpt lat="47.482079" lon="10.993367">
<ele>769.364</ele>
<time>2020-09-11T16:28:30Z</time>
</trkpt>
<trkpt lat="47.482075" lon="10.993294">
<ele>769.364</ele>
<time>2020-09-11T16:28:31Z</time>
</trkpt>
<trkpt lat="47.482067" lon="10.993218">
<ele>769.364</ele>
<time>2020-09-11T16:28:32Z</time>
</trkpt>
<trkpt lat="47.482059" lon="10.993143">
<ele>769.364</ele>
<time>2020-09-11T16:28:33Z</time>
</trkpt>
<trkpt lat="47.482059" lon="10.993063">
<ele>769.613</ele>
<time>2020-09-11T16:28:34Z</time>
</trkpt>
<trkpt lat="47.482056" lon="10.992986">
<ele>769.809</ele>
<time>2020-09-11T16:28:35Z</time>
</trkpt>
<trkpt lat="47.482052" lon="10.992907">
<ele>769.942</ele>
<time>2020-09-11T16:28:36Z</time>
</trkpt>
<trkpt lat="47.482048" lon="10.99283">
<ele>770.089</ele>
<time>2020-09-11T16:28:37Z</time>
</trkpt>
<trkpt lat="47.482044" lon="10.99275">
<ele>770.198</ele>
<time>2020-09-11T16:28:38Z</time>
</trkpt>
<trkpt lat="47.48204" lon="10.992669">
<ele>770.275</ele>
<time>2020-09-11T16:28:39Z</time>
</trkpt>
<trkpt lat="47.482037" lon="10.992588">
<ele>770.324</ele>
<time>2020-09-11T16:28:40Z</time>
</trkpt>
<trkpt lat="47.482029" lon="10.992514">
<ele>770.348</ele>
<time>2020-09-11T16:28:41Z</time>
</trkpt>
<trkpt lat="47.482025" lon="10.99244">
<ele>770.348</ele>
<time>2020-09-11T16:28:42Z</time>
</trkpt>
<trkpt lat="47.482021" lon="10.992361">
<ele>770.348</ele>
<time>2020-09-11T16:28:43Z</time>
</trkpt>
<trkpt lat="47.482018" lon="10.992289">
<ele>770.348</ele>
<time>2020-09-11T16:28:44Z</time>
</trkpt>
<trkpt lat="47.482014" lon="10.992215">
<ele>770.348</ele>
<time>2020-09-11T16:28:45Z</time>
</trkpt>
<trkpt lat="47.48201" lon="10.992137">
<ele>770.348</ele>
<time>2020-09-11T16:28:46Z</time>
</trkpt>
<trkpt lat="47.48201" lon="10.992057">
<ele>770.348</ele>
<time>2020-09-11T16:28:47Z</time>
</trkpt>
<trkpt lat="47.482018" lon="10.991982">
<ele>770.348</ele>
<time>2020-09-11T16:28:48Z</time>
</trkpt>
<trkpt lat="47.482029" lon="10.991905">
<ele>770.348</ele>
<time>2020-09-11T16:28:49Z</time>
</trkpt>
<trkpt lat="47.482029" lon="10.99183">
<ele>770.348</ele>
<time>2020-09-11T16:28:50Z</time>
</trkpt>
<trkpt lat="47.482029" lon="10.991747">
<ele>770.348</ele>
<time>2020-09-11T16:28:51Z</time>
</trkpt>
<trkpt lat="47.482025" lon="10.991665">
<ele>770.085</ele>
<time>2020-09-11T16:28:52Z</time>
</trkpt>
<trkpt lat="47.482018" lon="10.991571">
<ele>769.878</ele>
<time>2020-09-11T16:28:53Z</time>
</trkpt>
<trkpt lat="47.482014" lon="10.99148">
<ele>769.721</ele>
<time>2020-09-11T16:28:54Z</time>
</trkpt>
<trkpt lat="47.482018" lon="10.991395">
<ele>769.601</ele>
<time>2020-09-11T16:28:55Z</time>
</trkpt>
<trkpt lat="47.482029" lon="10.991314">
<ele>769.519</ele>
<time>2020-09-11T16:28:56Z</time>
</trkpt>
<trkpt lat="47.482029" lon="10.991228">
<ele>769.439</ele>
<time>2020-09-11T16:28:57Z</time>
</trkpt>
<trkpt lat="47.482033" lon="10.991143">
<ele>769.387</ele>
<time>2020-09-11T16:28:58Z</time>
</trkpt>
<trkpt lat="47.482033" lon="10.991055">
<ele>769.364</ele>
<time>2020-09-11T16:28:59Z</time>
</trkpt>
<trkpt lat="47.482033" lon="10.990966">
<ele>769.364</ele>
<time>2020-09-11T16:29:00Z</time>
</trkpt>
<trkpt lat="47.482033" lon="10.990876">
<ele>769.364</ele>
<time>2020-09-11T16:29:01Z</time>
</trkpt>
<trkpt lat="47.482037" lon="10.990786">
<ele>769.364</ele>
<time>2020-09-11T16:29:02Z</time>
</trkpt>
<trkpt lat="47.48204" lon="10.990693">
<ele>769.364</ele>
<time>2020-09-11T16:29:03Z</time>
</trkpt>
<trkpt lat="47.482044" lon="10.990603">
<ele>769.364</ele>
<time>2020-09-11T16:29:04Z</time>
</trkpt>
<trkpt lat="47.482048" lon="10.990515">
<ele>769.364</ele>
<time>2020-09-11T16:29:05Z</time>
</trkpt>
<trkpt lat="47.482052" lon="10.990434">
<ele>769.364</ele>
<time>2020-09-11T16:29:06Z</time>
</trkpt>
<trkpt lat="47.482056" lon="10.990348">
<ele>769.364</ele>
<time>2020-09-11T16:29:07Z</time>
</trkpt>
<trkpt lat="47.482059" lon="10.990262">
<ele>769.364</ele>
<time>2020-09-11T16:29:08Z</time>
</trkpt>
<trkpt lat="47.482063" lon="10.990176">
<ele>769.364</ele>
<time>2020-09-11T16:29:09Z</time>
</trkpt>
<trkpt lat="47.482067" lon="10.99009">
<ele>769.364</ele>
<time>2020-09-11T16:29:10Z</time>
</trkpt>
<trkpt lat="47.482071" lon="10.990004">
<ele>769.364</ele>
<time>2020-09-11T16:29:11Z</time>
</trkpt>
<trkpt lat="47.482071" lon="10.989919">
<ele>769.364</ele>
<time>2020-09-11T16:29:12Z</time>
</trkpt>
<trkpt lat="47.482067" lon="10.989839">
<ele>769.364</ele>
<time>2020-09-11T16:29:13Z</time>
</trkpt>
<trkpt lat="47.482063" lon="10.989758">
<ele>769.364</ele>
<time>2020-09-11T16:29:14Z</time>
</trkpt>
<trkpt lat="47.482059" lon="10.989678">
<ele>769.364</ele>
<time>2020-09-11T16:29:15Z</time>
</trkpt>
<trkpt lat="47.482059" lon="10.989604">
<ele>769.364</ele>
<time>2020-09-11T16:29:16Z</time>
</trkpt>
<trkpt lat="47.482067" lon="10.989533">
<ele>769.364</ele>
<time>2020-09-11T16:29:17Z</time>
</trkpt>
<trkpt lat="47.482079" lon="10.989467">
<ele>769.364</ele>
<time>2020-09-11T16:29:18Z</time>
</trkpt>
<trkpt lat="47.482098" lon="10.989401">
<ele>769.364</ele>
<time>2020-09-11T16:29:19Z</time>
</trkpt>
<trkpt lat="47.482124" lon="10.989333">
<ele>769.364</ele>
<time>2020-09-11T16:29:20Z</time>
</trkpt>
<trkpt lat="47.482143" lon="10.989262">
<ele>769.364</ele>
<time>2020-09-11T16:29:21Z</time>
</trkpt>
<trkpt lat="47.482174" lon="10.989191">
<ele>769.364</ele>
<time>2020-09-11T16:29:22Z</time>
</trkpt>
<trkpt lat="47.482204" lon="10.989117">
<ele>769.364</ele>
<time>2020-09-11T16:29:23Z</time>
</trkpt>
<trkpt lat="47.482239" lon="10.989045">
<ele>769.364</ele>
<time>2020-09-11T16:29:24Z</time>
</trkpt>
<trkpt lat="47.482273" lon="10.988972">
<ele>769.364</ele>
<time>2020-09-11T16:29:25Z</time>
</trkpt>
<trkpt lat="47.4823" lon="10.988898">
<ele>769.364</ele>
<time>2020-09-11T16:29:26Z</time>
</trkpt>
<trkpt lat="47.482323" lon="10.988822">
<ele>769.364</ele>
<time>2020-09-11T16:29:27Z</time>
</trkpt>
<trkpt lat="47.482342" lon="10.98875">
<ele>769.364</ele>
<time>2020-09-11T16:29:28Z</time>
</trkpt>
<trkpt lat="47.482357" lon="10.988673">
<ele>769.364</ele>
<time>2020-09-11T16:29:29Z</time>
</trkpt>
<trkpt lat="47.48238" lon="10.988605">
<ele>769.364</ele>
<time>2020-09-11T16:29:30Z</time>
</trkpt>
<trkpt lat="47.482403" lon="10.988542">
<ele>769.364</ele>
<time>2020-09-11T16:29:31Z</time>
</trkpt>
<trkpt lat="47.48243" lon="10.988482">
<ele>769.364</ele>
<time>2020-09-11T16:29:32Z</time>
</trkpt>
<trkpt lat="47.482456" lon="10.988425">
<ele>769.364</ele>
<time>2020-09-11T16:29:33Z</time>
</trkpt>
<trkpt lat="47.482483" lon="10.988375">
<ele>769.364</ele>
<time>2020-09-11T16:29:34Z</time>
</trkpt>
<trkpt lat="47.48251" lon="10.988326">
<ele>769.364</ele>
<time>2020-09-11T16:29:35Z</time>
</trkpt>
<trkpt lat="47.482533" lon="10.988278">
<ele>769.364</ele>
<time>2020-09-11T16:29:36Z</time>
</trkpt>
<trkpt lat="47.482555" lon="10.988235">
<ele>769.364</ele>
<time>2020-09-11T16:29:37Z</time>
</trkpt>
<trkpt lat="47.482582" lon="10.988188">
<ele>769.364</ele>
<time>2020-09-11T16:29:38Z</time>
</trkpt>
<trkpt lat="47.48262" lon="10.98814">
<ele>769.364</ele>
<time>2020-09-11T16:29:39Z</time>
</trkpt>
<trkpt lat="47.482655" lon="10.988095">
<ele>769.364</ele>
<time>2020-09-11T16:29:40Z</time>
</trkpt>
<trkpt lat="47.482689" lon="10.988045">
<ele>769.364</ele>
<time>2020-09-11T16:29:41Z</time>
</trkpt>
<trkpt lat="47.482719" lon="10.987995">
<ele>769.364</ele>
<time>2020-09-11T16:29:42Z</time>
</trkpt>
<trkpt lat="47.482754" lon="10.987945">
<ele>769.364</ele>
<time>2020-09-11T16:29:43Z</time>
</trkpt>
<trkpt lat="47.482788" lon="10.987899">
<ele>769.364</ele>
<time>2020-09-11T16:29:44Z</time>
</trkpt>
<trkpt lat="47.482826" lon="10.987857">
<ele>769.364</ele>
<time>2020-09-11T16:29:45Z</time>
</trkpt>
<trkpt lat="47.482872" lon="10.987817">
<ele>769.364</ele>
<time>2020-09-11T16:29:46Z</time>
</trkpt>
<trkpt lat="47.482914" lon="10.987771">
<ele>769.364</ele>
<time>2020-09-11T16:29:47Z</time>
</trkpt>
<trkpt lat="47.482967" lon="10.987721">
<ele>769.364</ele>
<time>2020-09-11T16:29:48Z</time>
</trkpt>
<trkpt lat="47.483017" lon="10.987665">
<ele>769.364</ele>
<time>2020-09-11T16:29:49Z</time>
</trkpt>
<trkpt lat="47.483067" lon="10.987603">
<ele>769.364</ele>
<time>2020-09-11T16:29:50Z</time>
</trkpt>
<trkpt lat="47.483109" lon="10.987532">
<ele>769.364</ele>
<time>2020-09-11T16:29:51Z</time>
</trkpt>
<trkpt lat="47.483154" lon="10.98746">
<ele>769.364</ele>
<time>2020-09-11T16:29:52Z</time>
</trkpt>
<trkpt lat="47.483192" lon="10.987393">
<ele>769.364</ele>
<time>2020-09-11T16:29:53Z</time>
</trkpt>
<trkpt lat="47.483234" lon="10.98733">
<ele>769.364</ele>
<time>2020-09-11T16:29:54Z</time>
</trkpt>
<trkpt lat="47.483273" lon="10.987262">
<ele>769.364</ele>
<time>2020-09-11T16:29:55Z</time>
</trkpt>
<trkpt lat="47.483311" lon="10.987193">
<ele>769.364</ele>
<time>2020-09-11T16:29:56Z</time>
</trkpt>
<trkpt lat="47.483345" lon="10.987123">
<ele>769.364</ele>
<time>2020-09-11T16:29:57Z</time>
</trkpt>
<trkpt lat="47.483383" lon="10.98705">
<ele>769.364</ele>
<time>2020-09-11T16:29:58Z</time>
</trkpt>
<trkpt lat="47.483418" lon="10.986983">
<ele>769.364</ele>
<time>2020-09-11T16:29:59Z</time>
</trkpt>
<trkpt lat="47.483452" lon="10.986917">
<ele>769.364</ele>
<time>2020-09-11T16:30:00Z</time>
</trkpt>
<trkpt lat="47.483486" lon="10.986849">
<ele>769.364</ele>
<time>2020-09-11T16:30:01Z</time>
</trkpt>
<trkpt lat="47.483524" lon="10.986776">
<ele>769.364</ele>
<time>2020-09-11T16:30:02Z</time>
</trkpt>
<trkpt lat="47.483555" lon="10.986702">
<ele>769.364</ele>
<time>2020-09-11T16:30:03Z</time>
</trkpt>
<trkpt lat="47.483585" lon="10.986629">
<ele>769.364</ele>
<time>2020-09-11T16:30:04Z</time>
</trkpt>
<trkpt lat="47.483612" lon="10.986555">
<ele>769.364</ele>
<time>2020-09-11T16:30:05Z</time>
</trkpt>
<trkpt lat="47.483643" lon="10.986483">
<ele>769.364</ele>
<time>2020-09-11T16:30:06Z</time>
</trkpt>
<trkpt lat="47.483677" lon="10.986409">
<ele>769.364</ele>
<time>2020-09-11T16:30:07Z</time>
</trkpt>
<trkpt lat="47.483707" lon="10.986334">
<ele>769.364</ele>
<time>2020-09-11T16:30:08Z</time>
</trkpt>
<trkpt lat="47.483738" lon="10.98626">
<ele>769.364</ele>
<time>2020-09-11T16:30:09Z</time>
</trkpt>
<trkpt lat="47.483768" lon="10.986187">
<ele>769.364</ele>
<time>2020-09-11T16:30:10Z</time>
</trkpt>
<trkpt lat="47.483799" lon="10.986115">
<ele>769.364</ele>
<time>2020-09-11T16:30:11Z</time>
</trkpt>
<trkpt lat="47.483822" lon="10.986043">
<ele>769.364</ele>
<time>2020-09-11T16:30:12Z</time>
</trkpt>
<trkpt lat="47.483845" lon="10.98596">
<ele>769.364</ele>
<time>2020-09-11T16:30:13Z</time>
</trkpt>
<trkpt lat="47.483871" lon="10.985879">
<ele>769.364</ele>
<time>2020-09-11T16:30:14Z</time>
</trkpt>
<trkpt lat="47.483894" lon="10.985793">
<ele>769.364</ele>
<time>2020-09-11T16:30:15Z</time>
</trkpt>
<trkpt lat="47.483925" lon="10.985711">
<ele>769.364</ele>
<time>2020-09-11T16:30:16Z</time>
</trkpt>
<trkpt lat="47.483952" lon="10.985639">
<ele>769.364</ele>
<time>2020-09-11T16:30:17Z</time>
</trkpt>
<trkpt lat="47.483974" lon="10.985559">
<ele>769.364</ele>
<time>2020-09-11T16:30:18Z</time>
</trkpt>
<trkpt lat="47.483994" lon="10.985475">
<ele>769.364</ele>
<time>2020-09-11T16:30:19Z</time>
</trkpt>
<trkpt lat="47.484013" lon="10.985397">
<ele>769.364</ele>
<time>2020-09-11T16:30:20Z</time>
</trkpt>
<trkpt lat="47.484028" lon="10.985318">
<ele>769.364</ele>
<time>2020-09-11T16:30:21Z</time>
</trkpt>
<trkpt lat="47.484043" lon="10.985235">
<ele>769.364</ele>
<time>2020-09-11T16:30:22Z</time>
</trkpt>
<trkpt lat="47.484055" lon="10.985158">
<ele>769.364</ele>
<time>2020-09-11T16:30:23Z</time>
</trkpt>
<trkpt lat="47.484066" lon="10.985084">
<ele>769.364</ele>
<time>2020-09-11T16:30:24Z</time>
</trkpt>
<trkpt lat="47.484077" lon="10.985003">
<ele>769.364</ele>
<time>2020-09-11T16:30:25Z</time>
</trkpt>
<trkpt lat="47.484085" lon="10.984921">
<ele>769.364</ele>
<time>2020-09-11T16:30:26Z</time>
</trkpt>
<trkpt lat="47.484097" lon="10.984841">
<ele>769.364</ele>
<time>2020-09-11T16:30:27Z</time>
</trkpt>
<trkpt lat="47.484108" lon="10.984763">
<ele>769.364</ele>
<time>2020-09-11T16:30:28Z</time>
</trkpt>
<trkpt lat="47.484116" lon="10.984682">
<ele>769.364</ele>
<time>2020-09-11T16:30:29Z</time>
</trkpt>
<trkpt lat="47.484127" lon="10.984598">
<ele>769.667</ele>
<time>2020-09-11T16:30:30Z</time>
</trkpt>
<trkpt lat="47.484138" lon="10.984517">
<ele>769.906</ele>
<time>2020-09-11T16:30:31Z</time>
</trkpt>
<trkpt lat="47.484146" lon="10.984438">
<ele>770.081</ele>
<time>2020-09-11T16:30:32Z</time>
</trkpt>
<trkpt lat="47.484158" lon="10.984362">
<ele>770.213</ele>
<time>2020-09-11T16:30:33Z</time>
</trkpt>
<trkpt lat="47.484165" lon="10.984284">
<ele>770.304</ele>
<time>2020-09-11T16:30:34Z</time>
</trkpt>
<trkpt lat="47.484173" lon="10.984207">
<ele>770.349</ele>
<time>2020-09-11T16:30:35Z</time>
</trkpt>
<trkpt lat="47.48418" lon="10.984127">
<ele>770.626</ele>
<time>2020-09-11T16:30:36Z</time>
</trkpt>
<trkpt lat="47.484192" lon="10.984046">
<ele>770.859</ele>
<time>2020-09-11T16:30:37Z</time>
</trkpt>
<trkpt lat="47.484207" lon="10.983967">
<ele>771.03</ele>
<time>2020-09-11T16:30:38Z</time>
</trkpt>
<trkpt lat="47.484219" lon="10.983885">
<ele>771.17</ele>
<time>2020-09-11T16:30:39Z</time>
</trkpt>
<trkpt lat="47.484234" lon="10.9838">
<ele>771.277</ele>
<time>2020-09-11T16:30:40Z</time>
</trkpt>
<trkpt lat="47.484245" lon="10.98372">
<ele>771.353</ele>
<time>2020-09-11T16:30:41Z</time>
</trkpt>
<trkpt lat="47.484261" lon="10.983639">
<ele>771.4</ele>
<time>2020-09-11T16:30:42Z</time>
</trkpt>
<trkpt lat="47.484276" lon="10.983555">
<ele>771.422</ele>
<time>2020-09-11T16:30:43Z</time>
</trkpt>
<trkpt lat="47.484283" lon="10.983472">
<ele>771.422</ele>
<time>2020-09-11T16:30:44Z</time>
</trkpt>
<trkpt lat="47.484291" lon="10.983386">
<ele>771.422</ele>
<time>2020-09-11T16:30:45Z</time>
</trkpt>
<trkpt lat="47.484303" lon="10.98331">
<ele>771.422</ele>
<time>2020-09-11T16:30:46Z</time>
</trkpt>
<trkpt lat="47.48431" lon="10.983239">
<ele>771.422</ele>
<time>2020-09-11T16:30:47Z</time>
</trkpt>
<trkpt lat="47.484329" lon="10.983173">
<ele>771.422</ele>
<time>2020-09-11T16:30:48Z</time>
</trkpt>
<trkpt lat="47.484344" lon="10.983109">
<ele>771.422</ele>
<time>2020-09-11T16:30:49Z</time>
</trkpt>
<trkpt lat="47.484348" lon="10.983035">
<ele>771.422</ele>
<time>2020-09-11T16:30:50Z</time>
</trkpt>
<trkpt lat="47.484352" lon="10.98295">
<ele>771.422</ele>
<time>2020-09-11T16:30:51Z</time>
</trkpt>
<trkpt lat="47.48436" lon="10.982863">
<ele>771.422</ele>
<time>2020-09-11T16:30:52Z</time>
</trkpt>
<trkpt lat="47.484367" lon="10.982772">
<ele>771.422</ele>
<time>2020-09-11T16:30:53Z</time>
</trkpt>
<trkpt lat="47.484371" lon="10.982683">
<ele>771.188</ele>
<time>2020-09-11T16:30:54Z</time>
</trkpt>
<trkpt lat="47.484371" lon="10.982585">
<ele>771.001</ele>
<time>2020-09-11T16:30:55Z</time>
</trkpt>
<trkpt lat="47.484367" lon="10.98249">
<ele>770.879</ele>
<time>2020-09-11T16:30:56Z</time>
</trkpt>
<trkpt lat="47.484364" lon="10.982405">
<ele>770.751</ele>
<time>2020-09-11T16:30:57Z</time>
</trkpt>
<trkpt lat="47.484364" lon="10.982306">
<ele>770.658</ele>
<time>2020-09-11T16:30:58Z</time>
</trkpt>
<trkpt lat="47.484364" lon="10.982208">
<ele>770.592</ele>
<time>2020-09-11T16:30:59Z</time>
</trkpt>
<trkpt lat="47.484364" lon="10.982123">
<ele>770.548</ele>
<time>2020-09-11T16:31:00Z</time>
</trkpt>
<trkpt lat="47.48436" lon="10.982041">
<ele>770.527</ele>
<time>2020-09-11T16:31:01Z</time>
</trkpt>
<trkpt lat="47.484356" lon="10.981965">
<ele>770.527</ele>
<time>2020-09-11T16:31:02Z</time>
</trkpt>
<trkpt lat="47.484352" lon="10.981878">
<ele>770.527</ele>
<time>2020-09-11T16:31:03Z</time>
</trkpt>
<trkpt lat="47.484348" lon="10.981798">
<ele>770.527</ele>
<time>2020-09-11T16:31:04Z</time>
</trkpt>
<trkpt lat="47.484341" lon="10.981718">
<ele>770.527</ele>
<time>2020-09-11T16:31:05Z</time>
</trkpt>
<trkpt lat="47.484341" lon="10.981638">
<ele>770.527</ele>
<time>2020-09-11T16:31:06Z</time>
</trkpt>
<trkpt lat="47.484341" lon="10.98156">
<ele>770.527</ele>
<time>2020-09-11T16:31:07Z</time>
</trkpt>
<trkpt lat="47.484341" lon="10.981479">
<ele>770.818</ele>
<time>2020-09-11T16:31:08Z</time>
</trkpt>
<trkpt lat="47.484341" lon="10.981383">
<ele>771.049</ele>
<time>2020-09-11T16:31:09Z</time>
</trkpt>
<trkpt lat="47.484341" lon="10.981298">
<ele>771.222</ele>
<time>2020-09-11T16:31:10Z</time>
</trkpt>
<trkpt lat="47.484348" lon="10.98121">
<ele>771.343</ele>
<time>2020-09-11T16:31:11Z</time>
</trkpt>
<trkpt lat="47.484352" lon="10.981116">
<ele>771.433</ele>
<time>2020-09-11T16:31:12Z</time>
</trkpt>
<trkpt lat="47.484364" lon="10.981027">
<ele>771.485</ele>
<time>2020-09-11T16:31:13Z</time>
</trkpt>
<trkpt lat="47.484371" lon="10.980948">
<ele>771.508</ele>
<time>2020-09-11T16:31:14Z</time>
</trkpt>
<trkpt lat="47.484375" lon="10.980868">
<ele>771.512</ele>
<time>2020-09-11T16:31:15Z</time>
</trkpt>
<trkpt lat="47.484386" lon="10.980797">
<ele>771.512</ele>
<time>2020-09-11T16:31:16Z</time>
</trkpt>
<trkpt lat="47.484398" lon="10.980732">
<ele>771.74</ele>
<time>2020-09-11T16:31:17Z</time>
</trkpt>
<trkpt lat="47.484409" lon="10.98066">
<ele>771.936</ele>
<time>2020-09-11T16:31:18Z</time>
</trkpt>
<trkpt lat="47.484417" lon="10.980592">
<ele>772.096</ele>
<time>2020-09-11T16:31:19Z</time>
</trkpt>
<trkpt lat="47.484436" lon="10.98053">
<ele>772.228</ele>
<time>2020-09-11T16:31:20Z</time>
</trkpt>
<trkpt lat="47.484447" lon="10.980463">
<ele>772.338</ele>
<time>2020-09-11T16:31:21Z</time>
</trkpt>
<trkpt lat="47.484467" lon="10.980394">
<ele>772.42</ele>
<time>2020-09-11T16:31:22Z</time>
</trkpt>
<trkpt lat="47.484486" lon="10.980323">
<ele>772.471</ele>
<time>2020-09-11T16:31:23Z</time>
</trkpt>
<trkpt lat="47.484501" lon="10.980253">
<ele>772.497</ele>
<time>2020-09-11T16:31:24Z</time>
</trkpt>
<trkpt lat="47.484516" lon="10.980175">
<ele>772.497</ele>
<time>2020-09-11T16:31:25Z</time>
</trkpt>
<trkpt lat="47.484539" lon="10.980093">
<ele>772.497</ele>
<time>2020-09-11T16:31:26Z</time>
</trkpt>
<trkpt lat="47.484562" lon="10.980013">
<ele>772.497</ele>
<time>2020-09-11T16:31:27Z</time>
</trkpt>
<trkpt lat="47.484581" lon="10.979932">
<ele>772.811</ele>
<time>2020-09-11T16:31:28Z</time>
</trkpt>
<trkpt lat="47.484596" lon="10.979856">
<ele>773.04</ele>
<time>2020-09-11T16:31:29Z</time>
</trkpt>
<trkpt lat="47.484608" lon="10.979778">
<ele>773.203</ele>
<time>2020-09-11T16:31:30Z</time>
</trkpt>
<trkpt lat="47.484619" lon="10.979694">
<ele>773.074</ele>
<time>2020-09-11T16:31:31Z</time>
</trkpt>
<trkpt lat="47.484623" lon="10.979604">
<ele>772.963</ele>
<time>2020-09-11T16:31:32Z</time>
</trkpt>
<trkpt lat="47.484619" lon="10.979508">
<ele>772.864</ele>
<time>2020-09-11T16:31:33Z</time>
</trkpt>
<trkpt lat="47.484612" lon="10.979397">
<ele>772.774</ele>
<time>2020-09-11T16:31:34Z</time>
</trkpt>
<trkpt lat="47.484604" lon="10.979292">
<ele>772.692</ele>
<time>2020-09-11T16:31:35Z</time>
</trkpt>
<trkpt lat="47.484604" lon="10.979196">
<ele>772.654</ele>
<time>2020-09-11T16:31:36Z</time>
</trkpt>
<trkpt lat="47.484596" lon="10.979101">
<ele>772.568</ele>
<time>2020-09-11T16:31:37Z</time>
</trkpt>
<trkpt lat="47.484589" lon="10.97901">
<ele>772.519</ele>
<time>2020-09-11T16:31:38Z</time>
</trkpt>
<trkpt lat="47.484581" lon="10.978917">
<ele>772.497</ele>
<time>2020-09-11T16:31:39Z</time>
</trkpt>
<trkpt lat="47.484573" lon="10.978823">
<ele>772.497</ele>
<time>2020-09-11T16:31:40Z</time>
</trkpt>
<trkpt lat="47.48457" lon="10.978732">
<ele>772.497</ele>
<time>2020-09-11T16:31:41Z</time>
</trkpt>
<trkpt lat="47.48457" lon="10.978637">
<ele>772.497</ele>
<time>2020-09-11T16:31:42Z</time>
</trkpt>
<trkpt lat="47.484562" lon="10.978537">
<ele>772.497</ele>
<time>2020-09-11T16:31:43Z</time>
</trkpt>
<trkpt lat="47.48455" lon="10.978438">
<ele>772.497</ele>
<time>2020-09-11T16:31:44Z</time>
</trkpt>
<trkpt lat="47.484539" lon="10.978341">
<ele>772.497</ele>
<time>2020-09-11T16:31:45Z</time>
</trkpt>
<trkpt lat="47.484528" lon="10.978253">
<ele>772.497</ele>
<time>2020-09-11T16:31:46Z</time>
</trkpt>
<trkpt lat="47.484512" lon="10.978163">
<ele>772.497</ele>
<time>2020-09-11T16:31:47Z</time>
</trkpt>
<trkpt lat="47.484493" lon="10.978073">
<ele>772.497</ele>
<time>2020-09-11T16:31:48Z</time>
</trkpt>
<trkpt lat="47.484478" lon="10.977981">
<ele>772.497</ele>
<time>2020-09-11T16:31:49Z</time>
</trkpt>
<trkpt lat="47.484463" lon="10.97789">
<ele>772.497</ele>
<time>2020-09-11T16:31:50Z</time>
</trkpt>
<trkpt lat="47.484444" lon="10.977798">
<ele>772.497</ele>
<time>2020-09-11T16:31:51Z</time>
</trkpt>
<trkpt lat="47.484428" lon="10.977705">
<ele>772.497</ele>
<time>2020-09-11T16:31:52Z</time>
</trkpt>
<trkpt lat="47.484409" lon="10.977615">
<ele>772.497</ele>
<time>2020-09-11T16:31:53Z</time>
</trkpt>
<trkpt lat="47.484383" lon="10.977529">
<ele>772.497</ele>
<time>2020-09-11T16:31:54Z</time>
</trkpt>
<trkpt lat="47.484364" lon="10.977444">
<ele>772.497</ele>
<time>2020-09-11T16:31:55Z</time>
</trkpt>
<trkpt lat="47.484341" lon="10.97736">
<ele>772.497</ele>
<time>2020-09-11T16:31:56Z</time>
</trkpt>
<trkpt lat="47.48431" lon="10.977281">
<ele>772.497</ele>
<time>2020-09-11T16:31:57Z</time>
</trkpt>
<trkpt lat="47.48428" lon="10.9772">
<ele>772.497</ele>
<time>2020-09-11T16:31:58Z</time>
</trkpt>
<trkpt lat="47.484249" lon="10.977121">
<ele>772.497</ele>
<time>2020-09-11T16:31:59Z</time>
</trkpt>
<trkpt lat="47.484215" lon="10.977042">
<ele>772.497</ele>
<time>2020-09-11T16:32:00Z</time>
</trkpt>
<trkpt lat="47.48418" lon="10.976962">
<ele>772.497</ele>
<time>2020-09-11T16:32:01Z</time>
</trkpt>
<trkpt lat="47.48415" lon="10.976887">
<ele>772.497</ele>
<time>2020-09-11T16:32:02Z</time>
</trkpt>
<trkpt lat="47.484116" lon="10.976813">
<ele>772.497</ele>
<time>2020-09-11T16:32:03Z</time>
</trkpt>
<trkpt lat="47.484081" lon="10.97674">
<ele>772.497</ele>
<time>2020-09-11T16:32:04Z</time>
</trkpt>
<trkpt lat="47.484051" lon="10.976668">
<ele>772.497</ele>
<time>2020-09-11T16:32:05Z</time>
</trkpt>
<trkpt lat="47.48402" lon="10.9766">
<ele>772.732</ele>
<time>2020-09-11T16:32:06Z</time>
</trkpt>
<trkpt lat="47.483982" lon="10.976533">
<ele>772.954</ele>
<time>2020-09-11T16:32:07Z</time>
</trkpt>
<trkpt lat="47.483952" lon="10.976468">
<ele>773.136</ele>
<time>2020-09-11T16:32:08Z</time>
</trkpt>
<trkpt lat="47.483917" lon="10.976403">
<ele>773.287</ele>
<time>2020-09-11T16:32:09Z</time>
</trkpt>
<trkpt lat="47.483879" lon="10.97634">
<ele>773.406</ele>
<time>2020-09-11T16:32:10Z</time>
</trkpt>
<trkpt lat="47.483841" lon="10.976277">
<ele>773.49</ele>
<time>2020-09-11T16:32:11Z</time>
</trkpt>
<trkpt lat="47.483799" lon="10.976216">
<ele>773.544</ele>
<time>2020-09-11T16:32:12Z</time>
</trkpt>
<trkpt lat="47.483757" lon="10.976156">
<ele>773.571</ele>
<time>2020-09-11T16:32:13Z</time>
</trkpt>
<trkpt lat="47.483719" lon="10.976099">
<ele>773.571</ele>
<time>2020-09-11T16:32:14Z</time>
</trkpt>
<trkpt lat="47.483673" lon="10.976043">
<ele>773.571</ele>
<time>2020-09-11T16:32:15Z</time>
</trkpt>
<trkpt lat="47.483631" lon="10.975988">
<ele>773.571</ele>
<time>2020-09-11T16:32:16Z</time>
</trkpt>
<trkpt lat="47.483593" lon="10.975935">
<ele>773.571</ele>
<time>2020-09-11T16:32:17Z</time>
</trkpt>
<trkpt lat="47.483551" lon="10.975887">
<ele>773.571</ele>
<time>2020-09-11T16:32:18Z</time>
</trkpt>
<trkpt lat="47.483505" lon="10.975842">
<ele>773.571</ele>
<time>2020-09-11T16:32:19Z</time>
</trkpt>
<trkpt lat="47.483459" lon="10.975791">
<ele>773.846</ele>
<time>2020-09-11T16:32:20Z</time>
</trkpt>
<trkpt lat="47.483406" lon="10.975743">
<ele>774.06</ele>
<time>2020-09-11T16:32:21Z</time>
</trkpt>
<trkpt lat="47.48336" lon="10.975697">
<ele>774.225</ele>
<time>2020-09-11T16:32:22Z</time>
</trkpt>
<trkpt lat="47.483307" lon="10.975651">
<ele>774.348</ele>
<time>2020-09-11T16:32:23Z</time>
</trkpt>
<trkpt lat="47.483261" lon="10.975607">
<ele>774.434</ele>
<time>2020-09-11T16:32:24Z</time>
</trkpt>
<trkpt lat="47.483208" lon="10.975565">
<ele>774.489</ele>
<time>2020-09-11T16:32:25Z</time>
</trkpt>
<trkpt lat="47.483162" lon="10.975525">
<ele>774.529</ele>
<time>2020-09-11T16:32:26Z</time>
</trkpt>
<trkpt lat="47.483109" lon="10.975488">
<ele>774.556</ele>
<time>2020-09-11T16:32:27Z</time>
</trkpt>
<trkpt lat="47.483055" lon="10.975451">
<ele>774.556</ele>
<time>2020-09-11T16:32:28Z</time>
</trkpt>
<trkpt lat="47.483002" lon="10.975415">
<ele>774.556</ele>
<time>2020-09-11T16:32:29Z</time>
</trkpt>
<trkpt lat="47.482944" lon="10.975382">
<ele>774.556</ele>
<time>2020-09-11T16:32:30Z</time>
</trkpt>
<trkpt lat="47.482891" lon="10.975347">
<ele>774.556</ele>
<time>2020-09-11T16:32:31Z</time>
</trkpt>
<trkpt lat="47.482841" lon="10.975309">
<ele>774.556</ele>
<time>2020-09-11T16:32:32Z</time>
</trkpt>
<trkpt lat="47.48278" lon="10.975276">
<ele>774.556</ele>
<time>2020-09-11T16:32:33Z</time>
</trkpt>
<trkpt lat="47.482727" lon="10.975245">
<ele>774.556</ele>
<time>2020-09-11T16:32:34Z</time>
</trkpt>
<trkpt lat="47.482674" lon="10.975211">
<ele>774.556</ele>
<time>2020-09-11T16:32:35Z</time>
</trkpt>
<trkpt lat="47.48262" lon="10.975179">
<ele>774.556</ele>
<time>2020-09-11T16:32:36Z</time>
</trkpt>
<trkpt lat="47.482567" lon="10.975146">
<ele>774.556</ele>
<time>2020-09-11T16:32:37Z</time>
</trkpt>
<trkpt lat="47.482517" lon="10.975112">
<ele>774.556</ele>
<time>2020-09-11T16:32:38Z</time>
</trkpt>
<trkpt lat="47.482464" lon="10.975077">
<ele>774.556</ele>
<time>2020-09-11T16:32:39Z</time>
</trkpt>
<trkpt lat="47.482414" lon="10.975039">
<ele>774.556</ele>
<time>2020-09-11T16:32:40Z</time>
</trkpt>
<trkpt lat="47.482361" lon="10.975001">
<ele>774.556</ele>
<time>2020-09-11T16:32:41Z</time>
</trkpt>
<trkpt lat="47.482311" lon="10.974966">
<ele>774.556</ele>
<time>2020-09-11T16:32:42Z</time>
</trkpt>
<trkpt lat="47.482258" lon="10.97493">
<ele>774.786</ele>
<time>2020-09-11T16:32:43Z</time>
</trkpt>
<trkpt lat="47.482208" lon="10.974892">
<ele>774.968</ele>
<time>2020-09-11T16:32:44Z</time>
</trkpt>
<trkpt lat="47.482159" lon="10.974852">
<ele>775.106</ele>
<time>2020-09-11T16:32:45Z</time>
</trkpt>
<trkpt lat="47.482117" lon="10.974812">
<ele>775.203</ele>
<time>2020-09-11T16:32:46Z</time>
</trkpt>
<trkpt lat="47.482071" lon="10.974771">
<ele>775.305</ele>
<time>2020-09-11T16:32:47Z</time>
</trkpt>
<trkpt lat="47.482029" lon="10.97473">
<ele>775.38</ele>
<time>2020-09-11T16:32:48Z</time>
</trkpt>
<trkpt lat="47.481991" lon="10.974685">
<ele>775.428</ele>
<time>2020-09-11T16:32:49Z</time>
</trkpt>
<trkpt lat="47.481941" lon="10.974639">
<ele>775.452</ele>
<time>2020-09-11T16:32:50Z</time>
</trkpt>
<trkpt lat="47.481899" lon="10.974586">
<ele>775.452</ele>
<time>2020-09-11T16:32:51Z</time>
</trkpt>
<trkpt lat="47.481861" lon="10.974534">
<ele>775.452</ele>
<time>2020-09-11T16:32:52Z</time>
</trkpt>
<trkpt lat="47.481819" lon="10.974478">
<ele>775.452</ele>
<time>2020-09-11T16:32:53Z</time>
</trkpt>
<trkpt lat="47.481781" lon="10.974421">
<ele>775.452</ele>
<time>2020-09-11T16:32:54Z</time>
</trkpt>
<trkpt lat="47.481743" lon="10.974363">
<ele>775.452</ele>
<time>2020-09-11T16:32:55Z</time>
</trkpt>
<trkpt lat="47.481705" lon="10.974299">
<ele>775.452</ele>
<time>2020-09-11T16:32:56Z</time>
</trkpt>
<trkpt lat="47.481667" lon="10.974238">
<ele>775.452</ele>
<time>2020-09-11T16:32:57Z</time>
</trkpt>
<trkpt lat="47.481628" lon="10.974174">
<ele>775.452</ele>
<time>2020-09-11T16:32:58Z</time>
</trkpt>
<trkpt lat="47.481586" lon="10.974107">
<ele>775.452</ele>
<time>2020-09-11T16:32:59Z</time>
</trkpt>
<trkpt lat="47.481541" lon="10.97404">
<ele>775.452</ele>
<time>2020-09-11T16:33:00Z</time>
</trkpt>
<trkpt lat="47.481499" lon="10.973975">
<ele>775.452</ele>
<time>2020-09-11T16:33:01Z</time>
</trkpt>
<trkpt lat="47.481461" lon="10.973908">
<ele>775.452</ele>
<time>2020-09-11T16:33:02Z</time>
</trkpt>
<trkpt lat="47.481422" lon="10.973837">
<ele>775.452</ele>
<time>2020-09-11T16:33:03Z</time>
</trkpt>
<trkpt lat="47.481388" lon="10.973767">
<ele>775.452</ele>
<time>2020-09-11T16:33:04Z</time>
</trkpt>
<trkpt lat="47.481358" lon="10.973692">
<ele>775.452</ele>
<time>2020-09-11T16:33:05Z</time>
</trkpt>
<trkpt lat="47.481327" lon="10.973627">
<ele>775.452</ele>
<time>2020-09-11T16:33:06Z</time>
</trkpt>
<trkpt lat="47.4813" lon="10.97355">
<ele>775.452</ele>
<time>2020-09-11T16:33:07Z</time>
</trkpt>
<trkpt lat="47.481266" lon="10.973475">
<ele>775.452</ele>
<time>2020-09-11T16:33:08Z</time>
</trkpt>
<trkpt lat="47.481239" lon="10.973403">
<ele>775.452</ele>
<time>2020-09-11T16:33:09Z</time>
</trkpt>
<trkpt lat="47.481209" lon="10.973329">
<ele>775.452</ele>
<time>2020-09-11T16:33:10Z</time>
</trkpt>
<trkpt lat="47.481178" lon="10.973256">
<ele>775.452</ele>
<time>2020-09-11T16:33:11Z</time>
</trkpt>
<trkpt lat="47.481148" lon="10.973182">
<ele>775.452</ele>
<time>2020-09-11T16:33:12Z</time>
</trkpt>
<trkpt lat="47.481117" lon="10.97311">
<ele>775.452</ele>
<time>2020-09-11T16:33:13Z</time>
</trkpt>
<trkpt lat="47.481094" lon="10.973035">
<ele>775.452</ele>
<time>2020-09-11T16:33:14Z</time>
</trkpt>
<trkpt lat="47.481068" lon="10.972955">
<ele>775.452</ele>
<time>2020-09-11T16:33:15Z</time>
</trkpt>
<trkpt lat="47.481041" lon="10.972878">
<ele>775.452</ele>
<time>2020-09-11T16:33:16Z</time>
</trkpt>
<trkpt lat="47.481018" lon="10.972803">
<ele>775.452</ele>
<time>2020-09-11T16:33:17Z</time>
</trkpt>
<trkpt lat="47.480991" lon="10.972728">
<ele>775.452</ele>
<time>2020-09-11T16:33:18Z</time>
</trkpt>
<trkpt lat="47.480972" lon="10.972651">
<ele>775.452</ele>
<time>2020-09-11T16:33:19Z</time>
</trkpt>
<trkpt lat="47.480949" lon="10.97257">
<ele>775.452</ele>
<time>2020-09-11T16:33:20Z</time>
</trkpt>
<trkpt lat="47.480927" lon="10.972488">
<ele>775.452</ele>
<time>2020-09-11T16:33:21Z</time>
</trkpt>
<trkpt lat="47.4809" lon="10.972405">
<ele>775.452</ele>
<time>2020-09-11T16:33:22Z</time>
</trkpt>
<trkpt lat="47.480881" lon="10.97232">
<ele>775.452</ele>
<time>2020-09-11T16:33:23Z</time>
</trkpt>
<trkpt lat="47.480854" lon="10.97224">
<ele>775.452</ele>
<time>2020-09-11T16:33:24Z</time>
</trkpt>
<trkpt lat="47.480827" lon="10.97216">
<ele>775.452</ele>
<time>2020-09-11T16:33:25Z</time>
</trkpt>
<trkpt lat="47.480804" lon="10.972085">
<ele>775.452</ele>
<time>2020-09-11T16:33:26Z</time>
</trkpt>
<trkpt lat="47.480778" lon="10.97201">
<ele>775.452</ele>
<time>2020-09-11T16:33:27Z</time>
</trkpt>
<trkpt lat="47.480755" lon="10.971928">
<ele>775.452</ele>
<time>2020-09-11T16:33:28Z</time>
</trkpt>
<trkpt lat="47.480724" lon="10.971852">
<ele>775.734</ele>
<time>2020-09-11T16:33:29Z</time>
</trkpt>
<trkpt lat="47.480705" lon="10.971771">
<ele>775.952</ele>
<time>2020-09-11T16:33:30Z</time>
</trkpt>
<trkpt lat="47.480679" lon="10.971688">
<ele>776.121</ele>
<time>2020-09-11T16:33:31Z</time>
</trkpt>
<trkpt lat="47.480656" lon="10.971605">
<ele>776.248</ele>
<time>2020-09-11T16:33:32Z</time>
</trkpt>
<trkpt lat="47.480625" lon="10.971523">
<ele>776.333</ele>
<time>2020-09-11T16:33:33Z</time>
</trkpt>
<trkpt lat="47.480606" lon="10.971438">
<ele>776.387</ele>
<time>2020-09-11T16:33:34Z</time>
</trkpt>
<trkpt lat="47.480587" lon="10.971352">
<ele>776.415</ele>
<time>2020-09-11T16:33:35Z</time>
</trkpt>
<trkpt lat="47.480568" lon="10.971266">
<ele>776.437</ele>
<time>2020-09-11T16:33:36Z</time>
</trkpt>
<trkpt lat="47.480553" lon="10.971182">
<ele>776.437</ele>
<time>2020-09-11T16:33:37Z</time>
</trkpt>
<trkpt lat="47.480537" lon="10.971102">
<ele>776.437</ele>
<time>2020-09-11T16:33:38Z</time>
</trkpt>
<trkpt lat="47.48053" lon="10.971023">
<ele>776.437</ele>
<time>2020-09-11T16:33:39Z</time>
</trkpt>
<trkpt lat="47.480522" lon="10.970947">
<ele>776.437</ele>
<time>2020-09-11T16:33:40Z</time>
</trkpt>
<trkpt lat="47.480518" lon="10.970868">
<ele>776.437</ele>
<time>2020-09-11T16:33:41Z</time>
</trkpt>
<trkpt lat="47.480511" lon="10.970792">
<ele>776.437</ele>
<time>2020-09-11T16:33:42Z</time>
</trkpt>
<trkpt lat="47.480511" lon="10.97071">
<ele>776.437</ele>
<time>2020-09-11T16:33:43Z</time>
</trkpt>
<trkpt lat="47.480511" lon="10.970631">
<ele>776.437</ele>
<time>2020-09-11T16:33:44Z</time>
</trkpt>
<trkpt lat="47.480507" lon="10.970545">
<ele>776.437</ele>
<time>2020-09-11T16:33:45Z</time>
</trkpt>
<trkpt lat="47.480507" lon="10.970462">
<ele>776.437</ele>
<time>2020-09-11T16:33:46Z</time>
</trkpt>
<trkpt lat="47.480503" lon="10.970378">
<ele>776.437</ele>
<time>2020-09-11T16:33:47Z</time>
</trkpt>
<trkpt lat="47.480503" lon="10.970296">
<ele>776.437</ele>
<time>2020-09-11T16:33:48Z</time>
</trkpt>
<trkpt lat="47.480499" lon="10.970214">
<ele>776.437</ele>
<time>2020-09-11T16:33:49Z</time>
</trkpt>
<trkpt lat="47.480503" lon="10.970134">
<ele>776.437</ele>
<time>2020-09-11T16:33:50Z</time>
</trkpt>
<trkpt lat="47.480503" lon="10.970058">
<ele>776.437</ele>
<time>2020-09-11T16:33:51Z</time>
</trkpt>
<trkpt lat="47.480503" lon="10.969975">
<ele>776.695</ele>
<time>2020-09-11T16:33:52Z</time>
</trkpt>
<trkpt lat="47.480503" lon="10.96988">
<ele>776.9</ele>
<time>2020-09-11T16:33:53Z</time>
</trkpt>
<trkpt lat="47.480507" lon="10.969785">
<ele>777.057</ele>
<time>2020-09-11T16:33:54Z</time>
</trkpt>
<trkpt lat="47.480507" lon="10.969687">
<ele>777.179</ele>
<time>2020-09-11T16:33:55Z</time>
</trkpt>
<trkpt lat="47.480507" lon="10.969595">
<ele>777.26</ele>
<time>2020-09-11T16:33:56Z</time>
</trkpt>
<trkpt lat="47.480507" lon="10.969505">
<ele>777.344</ele>
<time>2020-09-11T16:33:57Z</time>
</trkpt>
<trkpt lat="47.480499" lon="10.969419">
<ele>777.398</ele>
<time>2020-09-11T16:33:58Z</time>
</trkpt>
<trkpt lat="47.480488" lon="10.969332">
<ele>777.422</ele>
<time>2020-09-11T16:33:59Z</time>
</trkpt>
<trkpt lat="47.480473" lon="10.969246">
<ele>777.422</ele>
<time>2020-09-11T16:34:00Z</time>
</trkpt>
<trkpt lat="47.480453" lon="10.969156">
<ele>777.422</ele>
<time>2020-09-11T16:34:01Z</time>
</trkpt>
<trkpt lat="47.480431" lon="10.969066">
<ele>777.422</ele>
<time>2020-09-11T16:34:02Z</time>
</trkpt>
<trkpt lat="47.480412" lon="10.968971">
<ele>777.422</ele>
<time>2020-09-11T16:34:03Z</time>
</trkpt>
<trkpt lat="47.480392" lon="10.968873">
<ele>777.422</ele>
<time>2020-09-11T16:34:04Z</time>
</trkpt>
<trkpt lat="47.480377" lon="10.968781">
<ele>777.422</ele>
<time>2020-09-11T16:34:05Z</time>
</trkpt>
<trkpt lat="47.480366" lon="10.968691">
<ele>777.422</ele>
<time>2020-09-11T16:34:06Z</time>
</trkpt>
<trkpt lat="47.480362" lon="10.968603">
<ele>777.422</ele>
<time>2020-09-11T16:34:07Z</time>
</trkpt>
<trkpt lat="47.480366" lon="10.968519">
<ele>777.422</ele>
<time>2020-09-11T16:34:08Z</time>
</trkpt>
<trkpt lat="47.48037" lon="10.968442">
<ele>777.422</ele>
<time>2020-09-11T16:34:09Z</time>
</trkpt>
<trkpt lat="47.480373" lon="10.96836">
<ele>777.422</ele>
<time>2020-09-11T16:34:10Z</time>
</trkpt>
<trkpt lat="47.480381" lon="10.96828">
<ele>777.422</ele>
<time>2020-09-11T16:34:11Z</time>
</trkpt>
<trkpt lat="47.480385" lon="10.968199">
<ele>777.422</ele>
<time>2020-09-11T16:34:12Z</time>
</trkpt>
<trkpt lat="47.480389" lon="10.968112">
<ele>777.422</ele>
<time>2020-09-11T16:34:13Z</time>
</trkpt>
<trkpt lat="47.480389" lon="10.968029">
<ele>777.422</ele>
<time>2020-09-11T16:34:14Z</time>
</trkpt>
<trkpt lat="47.480389" lon="10.967943">
<ele>777.422</ele>
<time>2020-09-11T16:34:15Z</time>
</trkpt>
<trkpt lat="47.480392" lon="10.967854">
<ele>777.422</ele>
<time>2020-09-11T16:34:16Z</time>
</trkpt>
<trkpt lat="47.480396" lon="10.967767">
<ele>777.422</ele>
<time>2020-09-11T16:34:17Z</time>
</trkpt>
<trkpt lat="47.480396" lon="10.967675">
<ele>777.422</ele>
<time>2020-09-11T16:34:18Z</time>
</trkpt>
<trkpt lat="47.480392" lon="10.96759">
<ele>777.422</ele>
<time>2020-09-11T16:34:19Z</time>
</trkpt>
<trkpt lat="47.480389" lon="10.967505">
<ele>777.422</ele>
<time>2020-09-11T16:34:20Z</time>
</trkpt>
<trkpt lat="47.480381" lon="10.967423">
<ele>777.422</ele>
<time>2020-09-11T16:34:21Z</time>
</trkpt>
<trkpt lat="47.480366" lon="10.967341">
<ele>777.422</ele>
<time>2020-09-11T16:34:22Z</time>
</trkpt>
<trkpt lat="47.480354" lon="10.967264">
<ele>777.422</ele>
<time>2020-09-11T16:34:23Z</time>
</trkpt>
<trkpt lat="47.48035" lon="10.967189">
<ele>777.422</ele>
<time>2020-09-11T16:34:24Z</time>
</trkpt>
<trkpt lat="47.48035" lon="10.967115">
<ele>777.422</ele>
<time>2020-09-11T16:34:25Z</time>
</trkpt>
<trkpt lat="47.48035" lon="10.967038">
<ele>777.422</ele>
<time>2020-09-11T16:34:26Z</time>
</trkpt>
<trkpt lat="47.480343" lon="10.966967">
<ele>777.422</ele>
<time>2020-09-11T16:34:27Z</time>
</trkpt>
<trkpt lat="47.480339" lon="10.966895">
<ele>777.422</ele>
<time>2020-09-11T16:34:28Z</time>
</trkpt>
<trkpt lat="47.480335" lon="10.966815">
<ele>777.422</ele>
<time>2020-09-11T16:34:29Z</time>
</trkpt>
<trkpt lat="47.480331" lon="10.966741">
<ele>777.422</ele>
<time>2020-09-11T16:34:30Z</time>
</trkpt>
<trkpt lat="47.48032" lon="10.966675">
<ele>777.422</ele>
<time>2020-09-11T16:34:31Z</time>
</trkpt>
<trkpt lat="47.480309" lon="10.966596">
<ele>777.422</ele>
<time>2020-09-11T16:34:32Z</time>
</trkpt>
<trkpt lat="47.480301" lon="10.966527">
<ele>777.422</ele>
<time>2020-09-11T16:34:33Z</time>
</trkpt>
<trkpt lat="47.480286" lon="10.96645">
<ele>777.422</ele>
<time>2020-09-11T16:34:34Z</time>
</trkpt>
<trkpt lat="47.480267" lon="10.966368">
<ele>777.422</ele>
<time>2020-09-11T16:34:35Z</time>
</trkpt>
<trkpt lat="47.480259" lon="10.96628">
<ele>777.422</ele>
<time>2020-09-11T16:34:36Z</time>
</trkpt>
<trkpt lat="47.480244" lon="10.966195">
<ele>777.422</ele>
<time>2020-09-11T16:34:37Z</time>
</trkpt>
<trkpt lat="47.480228" lon="10.96611">
<ele>777.422</ele>
<time>2020-09-11T16:34:38Z</time>
</trkpt>
<trkpt lat="47.480202" lon="10.966026">
<ele>777.422</ele>
<time>2020-09-11T16:34:39Z</time>
</trkpt>
<trkpt lat="47.480186" lon="10.965941">
<ele>777.422</ele>
<time>2020-09-11T16:34:40Z</time>
</trkpt>
<trkpt lat="47.480167" lon="10.965858">
<ele>777.674</ele>
<time>2020-09-11T16:34:41Z</time>
</trkpt>
<trkpt lat="47.480141" lon="10.96577">
<ele>777.862</ele>
<time>2020-09-11T16:34:42Z</time>
</trkpt>
<trkpt lat="47.480122" lon="10.965691">
<ele>778.004</ele>
<time>2020-09-11T16:34:43Z</time>
</trkpt>
<trkpt lat="47.480103" lon="10.965613">
<ele>778.109</ele>
<time>2020-09-11T16:34:44Z</time>
</trkpt>
<trkpt lat="47.480091" lon="10.965538">
<ele>778.188</ele>
<time>2020-09-11T16:34:45Z</time>
</trkpt>
<trkpt lat="47.480087" lon="10.96547">
<ele>778.243</ele>
<time>2020-09-11T16:34:46Z</time>
</trkpt>
<trkpt lat="47.480087" lon="10.965395">
<ele>778.293</ele>
<time>2020-09-11T16:34:47Z</time>
</trkpt>
<trkpt lat="47.480091" lon="10.965318">
<ele>778.318</ele>
<time>2020-09-11T16:34:48Z</time>
</trkpt>
<trkpt lat="47.480087" lon="10.965242">
<ele>778.318</ele>
<time>2020-09-11T16:34:49Z</time>
</trkpt>
<trkpt lat="47.480087" lon="10.96517">
<ele>778.318</ele>
<time>2020-09-11T16:34:50Z</time>
</trkpt>
<trkpt lat="47.480083" lon="10.9651">
<ele>778.318</ele>
<time>2020-09-11T16:34:51Z</time>
</trkpt>
<trkpt lat="47.480083" lon="10.965031">
<ele>778.318</ele>
<time>2020-09-11T16:34:52Z</time>
</trkpt>
<trkpt lat="47.48008" lon="10.964953">
<ele>778.318</ele>
<time>2020-09-11T16:34:53Z</time>
</trkpt>
<trkpt lat="47.48008" lon="10.964873">
<ele>778.318</ele>
<time>2020-09-11T16:34:54Z</time>
</trkpt>
<trkpt lat="47.48008" lon="10.964795">
<ele>778.318</ele>
<time>2020-09-11T16:34:55Z</time>
</trkpt>
<trkpt lat="47.480076" lon="10.964715">
<ele>778.318</ele>
<time>2020-09-11T16:34:56Z</time>
</trkpt>
<trkpt lat="47.480083" lon="10.964639">
<ele>778.318</ele>
<time>2020-09-11T16:34:57Z</time>
</trkpt>
<trkpt lat="47.480083" lon="10.964561">
<ele>778.318</ele>
<time>2020-09-11T16:34:58Z</time>
</trkpt>
<trkpt lat="47.480083" lon="10.964483">
<ele>778.318</ele>
<time>2020-09-11T16:34:59Z</time>
</trkpt>
<trkpt lat="47.48008" lon="10.964402">
<ele>778.318</ele>
<time>2020-09-11T16:35:00Z</time>
</trkpt>
<trkpt lat="47.48008" lon="10.964323">
<ele>778.318</ele>
<time>2020-09-11T16:35:01Z</time>
</trkpt>
<trkpt lat="47.480076" lon="10.964243">
<ele>778.318</ele>
<time>2020-09-11T16:35:02Z</time>
</trkpt>
<trkpt lat="47.480076" lon="10.964171">
<ele>778.318</ele>
<time>2020-09-11T16:35:03Z</time>
</trkpt>
<trkpt lat="47.48008" lon="10.964098">
<ele>778.318</ele>
<time>2020-09-11T16:35:04Z</time>
</trkpt>
<trkpt lat="47.480087" lon="10.964025">
<ele>778.318</ele>
<time>2020-09-11T16:35:05Z</time>
</trkpt>
<trkpt lat="47.480095" lon="10.963933">
<ele>778.318</ele>
<time>2020-09-11T16:35:06Z</time>
</trkpt>
<trkpt lat="47.480099" lon="10.963847">
<ele>778.561</ele>
<time>2020-09-11T16:35:07Z</time>
</trkpt>
<trkpt lat="47.480103" lon="10.963755">
<ele>778.766</ele>
<time>2020-09-11T16:35:08Z</time>
</trkpt>
<trkpt lat="47.480095" lon="10.963675">
<ele>778.936</ele>
<time>2020-09-11T16:35:09Z</time>
</trkpt>
<trkpt lat="47.480083" lon="10.963592">
<ele>779.07</ele>
<time>2020-09-11T16:35:10Z</time>
</trkpt>
<trkpt lat="47.480072" lon="10.963516">
<ele>779.172</ele>
<time>2020-09-11T16:35:11Z</time>
</trkpt>
<trkpt lat="47.480064" lon="10.963438">
<ele>779.24</ele>
<time>2020-09-11T16:35:12Z</time>
</trkpt>
<trkpt lat="47.480061" lon="10.963367">
<ele>779.283</ele>
<time>2020-09-11T16:35:13Z</time>
</trkpt>
<trkpt lat="47.480061" lon="10.963298">
<ele>779.303</ele>
<time>2020-09-11T16:35:14Z</time>
</trkpt>
<trkpt lat="47.480061" lon="10.963223">
<ele>779.303</ele>
<time>2020-09-11T16:35:15Z</time>
</trkpt>
<trkpt lat="47.480064" lon="10.96316">
<ele>779.303</ele>
<time>2020-09-11T16:35:16Z</time>
</trkpt>
<trkpt lat="47.480068" lon="10.963093">
<ele>779.303</ele>
<time>2020-09-11T16:35:17Z</time>
</trkpt>
<trkpt lat="47.480064" lon="10.963026">
<ele>779.303</ele>
<time>2020-09-11T16:35:18Z</time>
</trkpt>
<trkpt lat="47.480072" lon="10.962965">
<ele>779.303</ele>
<time>2020-09-11T16:35:19Z</time>
</trkpt>
<trkpt lat="47.480072" lon="10.9629">
<ele>779.303</ele>
<time>2020-09-11T16:35:20Z</time>
</trkpt>
<trkpt lat="47.480076" lon="10.962831">
<ele>779.303</ele>
<time>2020-09-11T16:35:21Z</time>
</trkpt>
<trkpt lat="47.480091" lon="10.962766">
<ele>779.303</ele>
<time>2020-09-11T16:35:22Z</time>
</trkpt>
<trkpt lat="47.480103" lon="10.96269">
<ele>779.581</ele>
<time>2020-09-11T16:35:23Z</time>
</trkpt>
<trkpt lat="47.48011" lon="10.962611">
<ele>779.808</ele>
<time>2020-09-11T16:35:24Z</time>
</trkpt>
<trkpt lat="47.480122" lon="10.962537">
<ele>779.977</ele>
<time>2020-09-11T16:35:25Z</time>
</trkpt>
<trkpt lat="47.480122" lon="10.962441">
<ele>780.091</ele>
<time>2020-09-11T16:35:26Z</time>
</trkpt>
<trkpt lat="47.480125" lon="10.962325">
<ele>780.219</ele>
<time>2020-09-11T16:35:27Z</time>
</trkpt>
<trkpt lat="47.480122" lon="10.962218">
<ele>780.303</ele>
<time>2020-09-11T16:35:28Z</time>
</trkpt>
<trkpt lat="47.480122" lon="10.962113">
<ele>780.354</ele>
<time>2020-09-11T16:35:29Z</time>
</trkpt>
<trkpt lat="47.480122" lon="10.962045">
<ele>780.378</ele>
<time>2020-09-11T16:35:30Z</time>
</trkpt>
<trkpt lat="47.48011" lon="10.96196">
<ele>780.378</ele>
<time>2020-09-11T16:35:31Z</time>
</trkpt>
<trkpt lat="47.480103" lon="10.961884">
<ele>780.378</ele>
<time>2020-09-11T16:35:32Z</time>
</trkpt>
<trkpt lat="47.480103" lon="10.961796">
<ele>780.378</ele>
<time>2020-09-11T16:35:33Z</time>
</trkpt>
<trkpt lat="47.480099" lon="10.961705">
<ele>780.378</ele>
<time>2020-09-11T16:35:34Z</time>
</trkpt>
<trkpt lat="47.480087" lon="10.961628">
<ele>780.378</ele>
<time>2020-09-11T16:35:35Z</time>
</trkpt>
<trkpt lat="47.480072" lon="10.961567">
<ele>780.378</ele>
<time>2020-09-11T16:35:36Z</time>
</trkpt>
<trkpt lat="47.480068" lon="10.961496">
<ele>780.378</ele>
<time>2020-09-11T16:35:37Z</time>
</trkpt>
<trkpt lat="47.480068" lon="10.961435">
<ele>780.378</ele>
<time>2020-09-11T16:35:38Z</time>
</trkpt>
<trkpt lat="47.480076" lon="10.961367">
<ele>780.378</ele>
<time>2020-09-11T16:35:39Z</time>
</trkpt>
<trkpt lat="47.480083" lon="10.961302">
<ele>780.378</ele>
<time>2020-09-11T16:35:40Z</time>
</trkpt>
<trkpt lat="47.480099" lon="10.961218">
<ele>780.378</ele>
<time>2020-09-11T16:35:41Z</time>
</trkpt>
<trkpt lat="47.48011" lon="10.961142">
<ele>780.378</ele>
<time>2020-09-11T16:35:42Z</time>
</trkpt>
<trkpt lat="47.480118" lon="10.961065">
<ele>780.378</ele>
<time>2020-09-11T16:35:43Z</time>
</trkpt>
<trkpt lat="47.480125" lon="10.960997">
<ele>780.378</ele>
<time>2020-09-11T16:35:44Z</time>
</trkpt>
<trkpt lat="47.480133" lon="10.960925">
<ele>780.623</ele>
<time>2020-09-11T16:35:45Z</time>
</trkpt>
<trkpt lat="47.480137" lon="10.960842">
<ele>780.797</ele>
<time>2020-09-11T16:35:46Z</time>
</trkpt>
<trkpt lat="47.480141" lon="10.960773">
<ele>780.967</ele>
<time>2020-09-11T16:35:47Z</time>
</trkpt>
<trkpt lat="47.480156" lon="10.96072">
<ele>781.102</ele>
<time>2020-09-11T16:35:48Z</time>
</trkpt>
<trkpt lat="47.480167" lon="10.960669">
<ele>781.2</ele>
<time>2020-09-11T16:35:49Z</time>
</trkpt>
<trkpt lat="47.480179" lon="10.960616">
<ele>781.283</ele>
<time>2020-09-11T16:35:50Z</time>
</trkpt>
<trkpt lat="47.48019" lon="10.96056">
<ele>781.337</ele>
<time>2020-09-11T16:35:51Z</time>
</trkpt>
<trkpt lat="47.48019" lon="10.960482">
<ele>781.364</ele>
<time>2020-09-11T16:35:52Z</time>
</trkpt>
<trkpt lat="47.48019" lon="10.960401">
<ele>781.364</ele>
<time>2020-09-11T16:35:53Z</time>
</trkpt>
<trkpt lat="47.480186" lon="10.96033">
<ele>781.364</ele>
<time>2020-09-11T16:35:54Z</time>
</trkpt>
<trkpt lat="47.480186" lon="10.960243">
<ele>781.364</ele>
<time>2020-09-11T16:35:55Z</time>
</trkpt>
<trkpt lat="47.480186" lon="10.96015">
<ele>781.364</ele>
<time>2020-09-11T16:35:56Z</time>
</trkpt>
<trkpt lat="47.480186" lon="10.960059">
<ele>781.364</ele>
<time>2020-09-11T16:35:57Z</time>
</trkpt>
<trkpt lat="47.48019" lon="10.959975">
<ele>781.364</ele>
<time>2020-09-11T16:35:58Z</time>
</trkpt>
<trkpt lat="47.48019" lon="10.959889">
<ele>781.364</ele>
<time>2020-09-11T16:35:59Z</time>
</trkpt>
<trkpt lat="47.480186" lon="10.959791">
<ele>781.364</ele>
<time>2020-09-11T16:36:00Z</time>
</trkpt>
<trkpt lat="47.480186" lon="10.959695">
<ele>781.364</ele>
<time>2020-09-11T16:36:01Z</time>
</trkpt>
<trkpt lat="47.480186" lon="10.959611">
<ele>781.364</ele>
<time>2020-09-11T16:36:02Z</time>
</trkpt>
<trkpt lat="47.480183" lon="10.959525">
<ele>781.364</ele>
<time>2020-09-11T16:36:03Z</time>
</trkpt>
<trkpt lat="47.480183" lon="10.959454">
<ele>781.364</ele>
<time>2020-09-11T16:36:04Z</time>
</trkpt>
<trkpt lat="47.480179" lon="10.95936">
<ele>781.364</ele>
<time>2020-09-11T16:36:05Z</time>
</trkpt>
<trkpt lat="47.480175" lon="10.959263">
<ele>781.364</ele>
<time>2020-09-11T16:36:06Z</time>
</trkpt>
<trkpt lat="47.480171" lon="10.959179">
<ele>781.364</ele>
<time>2020-09-11T16:36:07Z</time>
</trkpt>
<trkpt lat="47.480167" lon="10.959083">
<ele>781.629</ele>
<time>2020-09-11T16:36:08Z</time>
</trkpt>
<trkpt lat="47.480171" lon="10.958997">
<ele>781.84</ele>
<time>2020-09-11T16:36:09Z</time>
</trkpt>
<trkpt lat="47.480171" lon="10.958915">
<ele>782.003</ele>
<time>2020-09-11T16:36:10Z</time>
</trkpt>
<trkpt lat="47.480175" lon="10.958827">
<ele>782.114</ele>
<time>2020-09-11T16:36:11Z</time>
</trkpt>
<trkpt lat="47.480179" lon="10.958738">
<ele>782.192</ele>
<time>2020-09-11T16:36:12Z</time>
</trkpt>
<trkpt lat="47.480183" lon="10.958647">
<ele>782.234</ele>
<time>2020-09-11T16:36:13Z</time>
</trkpt>
<trkpt lat="47.480186" lon="10.958551">
<ele>782.26</ele>
<time>2020-09-11T16:36:14Z</time>
</trkpt>
<trkpt lat="47.48019" lon="10.958456">
<ele>782.26</ele>
<time>2020-09-11T16:36:15Z</time>
</trkpt>
<trkpt lat="47.480202" lon="10.958373">
<ele>782.26</ele>
<time>2020-09-11T16:36:16Z</time>
</trkpt>
<trkpt lat="47.480202" lon="10.958288">
<ele>782.26</ele>
<time>2020-09-11T16:36:17Z</time>
</trkpt>
<trkpt lat="47.480202" lon="10.958205">
<ele>782.26</ele>
<time>2020-09-11T16:36:18Z</time>
</trkpt>
<trkpt lat="47.480202" lon="10.958119">
<ele>782.26</ele>
<time>2020-09-11T16:36:19Z</time>
</trkpt>
<trkpt lat="47.480202" lon="10.958038">
<ele>782.26</ele>
<time>2020-09-11T16:36:20Z</time>
</trkpt>
<trkpt lat="47.480202" lon="10.957955">
<ele>782.26</ele>
<time>2020-09-11T16:36:21Z</time>
</trkpt>
<trkpt lat="47.480202" lon="10.95787">
<ele>782.26</ele>
<time>2020-09-11T16:36:22Z</time>
</trkpt>
<trkpt lat="47.480206" lon="10.957792">
<ele>782.26</ele>
<time>2020-09-11T16:36:23Z</time>
</trkpt>
<trkpt lat="47.480209" lon="10.957721">
<ele>782.26</ele>
<time>2020-09-11T16:36:24Z</time>
</trkpt>
<trkpt lat="47.480209" lon="10.957648">
<ele>782.26</ele>
<time>2020-09-11T16:36:25Z</time>
</trkpt>
<trkpt lat="47.480209" lon="10.957577">
<ele>782.26</ele>
<time>2020-09-11T16:36:26Z</time>
</trkpt>
<trkpt lat="47.480217" lon="10.957508">
<ele>782.26</ele>
<time>2020-09-11T16:36:27Z</time>
</trkpt>
<trkpt lat="47.480225" lon="10.95744">
<ele>782.26</ele>
<time>2020-09-11T16:36:28Z</time>
</trkpt>
<trkpt lat="47.480232" lon="10.957365">
<ele>782.26</ele>
<time>2020-09-11T16:36:29Z</time>
</trkpt>
<trkpt lat="47.480244" lon="10.957296">
<ele>782.26</ele>
<time>2020-09-11T16:36:30Z</time>
</trkpt>
<trkpt lat="47.480251" lon="10.957229">
<ele>782.26</ele>
<time>2020-09-11T16:36:31Z</time>
</trkpt>
<trkpt lat="47.480255" lon="10.95716">
<ele>782.26</ele>
<time>2020-09-11T16:36:32Z</time>
</trkpt>
<trkpt lat="47.480259" lon="10.957101">
<ele>782.26</ele>
<time>2020-09-11T16:36:33Z</time>
</trkpt>
<trkpt lat="47.480267" lon="10.957031">
<ele>782.523</ele>
<time>2020-09-11T16:36:34Z</time>
</trkpt>
<trkpt lat="47.48027" lon="10.956971">
<ele>782.734</ele>
<time>2020-09-11T16:36:35Z</time>
</trkpt>
<trkpt lat="47.480278" lon="10.956893">
<ele>782.877</ele>
<time>2020-09-11T16:36:36Z</time>
</trkpt>
<trkpt lat="47.480282" lon="10.956821">
<ele>783.034</ele>
<time>2020-09-11T16:36:37Z</time>
</trkpt>
<trkpt lat="47.480278" lon="10.956749">
<ele>783.162</ele>
<time>2020-09-11T16:36:38Z</time>
</trkpt>
<trkpt lat="47.480274" lon="10.956678">
<ele>783.252</ele>
<time>2020-09-11T16:36:39Z</time>
</trkpt>
<trkpt lat="47.480278" lon="10.956611">
<ele>783.309</ele>
<time>2020-09-11T16:36:40Z</time>
</trkpt>
<trkpt lat="47.480278" lon="10.95654">
<ele>783.336</ele>
<time>2020-09-11T16:36:41Z</time>
</trkpt>
<trkpt lat="47.480278" lon="10.956474">
<ele>783.336</ele>
<time>2020-09-11T16:36:42Z</time>
</trkpt>
<trkpt lat="47.480274" lon="10.956367">
<ele>783.335</ele>
<time>2020-09-11T16:36:43Z</time>
</trkpt>
<trkpt lat="47.480282" lon="10.956302">
<ele>783.336</ele>
<time>2020-09-11T16:36:44Z</time>
</trkpt>
<trkpt lat="47.480289" lon="10.956231">
<ele>783.336</ele>
<time>2020-09-11T16:36:45Z</time>
</trkpt>
<trkpt lat="47.480286" lon="10.95612">
<ele>783.336</ele>
<time>2020-09-11T16:36:46Z</time>
</trkpt>
<trkpt lat="47.480286" lon="10.956038">
<ele>783.336</ele>
<time>2020-09-11T16:36:47Z</time>
</trkpt>
<trkpt lat="47.480286" lon="10.955949">
<ele>783.336</ele>
<time>2020-09-11T16:36:48Z</time>
</trkpt>
<trkpt lat="47.480289" lon="10.955873">
<ele>783.335</ele>
<time>2020-09-11T16:36:49Z</time>
</trkpt>
<trkpt lat="47.480293" lon="10.955798">
<ele>783.613</ele>
<time>2020-09-11T16:36:50Z</time>
</trkpt>
<trkpt lat="47.480297" lon="10.95572">
<ele>783.817</ele>
<time>2020-09-11T16:36:51Z</time>
</trkpt>
<trkpt lat="47.480301" lon="10.955647">
<ele>783.993</ele>
<time>2020-09-11T16:36:52Z</time>
</trkpt>
<trkpt lat="47.480301" lon="10.955546">
<ele>784.105</ele>
<time>2020-09-11T16:36:53Z</time>
</trkpt>
<trkpt lat="47.480309" lon="10.955475">
<ele>784.182</ele>
<time>2020-09-11T16:36:54Z</time>
</trkpt>
<trkpt lat="47.480312" lon="10.955383">
<ele>784.248</ele>
<time>2020-09-11T16:36:55Z</time>
</trkpt>
<trkpt lat="47.480316" lon="10.955314">
<ele>784.291</ele>
<time>2020-09-11T16:36:56Z</time>
</trkpt>
<trkpt lat="47.480316" lon="10.955247">
<ele>784.321</ele>
<time>2020-09-11T16:36:57Z</time>
</trkpt>
<trkpt lat="47.480309" lon="10.955167">
<ele>784.321</ele>
<time>2020-09-11T16:36:58Z</time>
</trkpt>
<trkpt lat="47.480293" lon="10.95509">
<ele>784.321</ele>
<time>2020-09-11T16:36:59Z</time>
</trkpt>
<trkpt lat="47.48027" lon="10.955016">
<ele>784.321</ele>
<time>2020-09-11T16:37:00Z</time>
</trkpt>
<trkpt lat="47.480255" lon="10.954951">
<ele>784.321</ele>
<time>2020-09-11T16:37:01Z</time>
</trkpt>
<trkpt lat="47.480244" lon="10.954888">
<ele>784.322</ele>
<time>2020-09-11T16:37:02Z</time>
</trkpt>
<trkpt lat="47.480236" lon="10.954823">
<ele>784.321</ele>
<time>2020-09-11T16:37:03Z</time>
</trkpt>
<trkpt lat="47.480236" lon="10.954755">
<ele>784.321</ele>
<time>2020-09-11T16:37:04Z</time>
</trkpt>
<trkpt lat="47.480236" lon="10.95469">
<ele>784.321</ele>
<time>2020-09-11T16:37:05Z</time>
</trkpt>
<trkpt lat="47.48024" lon="10.954622">
<ele>784.321</ele>
<time>2020-09-11T16:37:06Z</time>
</trkpt>
<trkpt lat="47.48024" lon="10.954557">
<ele>784.321</ele>
<time>2020-09-11T16:37:07Z</time>
</trkpt>
<trkpt lat="47.480244" lon="10.954485">
<ele>784.321</ele>
<time>2020-09-11T16:37:08Z</time>
</trkpt>
<trkpt lat="47.480236" lon="10.954412">
<ele>784.321</ele>
<time>2020-09-11T16:37:09Z</time>
</trkpt>
<trkpt lat="47.480232" lon="10.954329">
<ele>784.632</ele>
<time>2020-09-11T16:37:10Z</time>
</trkpt>
<trkpt lat="47.480228" lon="10.954248">
<ele>784.875</ele>
<time>2020-09-11T16:37:11Z</time>
</trkpt>
<trkpt lat="47.480221" lon="10.954167">
<ele>785.055</ele>
<time>2020-09-11T16:37:12Z</time>
</trkpt>
<trkpt lat="47.480217" lon="10.954088">
<ele>785.182</ele>
<time>2020-09-11T16:37:13Z</time>
</trkpt>
<trkpt lat="47.480228" lon="10.954008">
<ele>785.274</ele>
<time>2020-09-11T16:37:14Z</time>
</trkpt>
<trkpt lat="47.48024" lon="10.953927">
<ele>785.329</ele>
<time>2020-09-11T16:37:15Z</time>
</trkpt>
<trkpt lat="47.480247" lon="10.953843">
<ele>785.369</ele>
<time>2020-09-11T16:37:16Z</time>
</trkpt>
<trkpt lat="47.480247" lon="10.953759">
<ele>785.397</ele>
<time>2020-09-11T16:37:17Z</time>
</trkpt>
<trkpt lat="47.480251" lon="10.953673">
<ele>785.397</ele>
<time>2020-09-11T16:37:18Z</time>
</trkpt>
<trkpt lat="47.480251" lon="10.953591">
<ele>785.397</ele>
<time>2020-09-11T16:37:19Z</time>
</trkpt>
<trkpt lat="47.480247" lon="10.953523">
<ele>785.397</ele>
<time>2020-09-11T16:37:20Z</time>
</trkpt>
<trkpt lat="47.480255" lon="10.953455">
<ele>785.397</ele>
<time>2020-09-11T16:37:21Z</time>
</trkpt>
<trkpt lat="47.480251" lon="10.953388">
<ele>785.397</ele>
<time>2020-09-11T16:37:22Z</time>
</trkpt>
<trkpt lat="47.480251" lon="10.953317">
<ele>785.397</ele>
<time>2020-09-11T16:37:23Z</time>
</trkpt>
<trkpt lat="47.480244" lon="10.953208">
<ele>785.397</ele>
<time>2020-09-11T16:37:24Z</time>
</trkpt>
<trkpt lat="47.480251" lon="10.953131">
<ele>785.397</ele>
<time>2020-09-11T16:37:25Z</time>
</trkpt>
<trkpt lat="47.480251" lon="10.953063">
<ele>785.397</ele>
<time>2020-09-11T16:37:26Z</time>
</trkpt>
<trkpt lat="47.480251" lon="10.953007">
<ele>785.397</ele>
<time>2020-09-11T16:37:27Z</time>
</trkpt>
<trkpt lat="47.480247" lon="10.952949">
<ele>785.397</ele>
<time>2020-09-11T16:37:28Z</time>
</trkpt>
<trkpt lat="47.480247" lon="10.952884">
<ele>785.397</ele>
<time>2020-09-11T16:37:29Z</time>
</trkpt>
<trkpt lat="47.480251" lon="10.952814">
<ele>785.397</ele>
<time>2020-09-11T16:37:30Z</time>
</trkpt>
<trkpt lat="47.480255" lon="10.952737">
<ele>785.397</ele>
<time>2020-09-11T16:37:31Z</time>
</trkpt>
<trkpt lat="47.480255" lon="10.952663">
<ele>785.397</ele>
<time>2020-09-11T16:37:32Z</time>
</trkpt>
<trkpt lat="47.480259" lon="10.952585">
<ele>785.397</ele>
<time>2020-09-11T16:37:33Z</time>
</trkpt>
<trkpt lat="47.480267" lon="10.952498">
<ele>785.397</ele>
<time>2020-09-11T16:37:34Z</time>
</trkpt>
<trkpt lat="47.480263" lon="10.95242">
<ele>785.397</ele>
<time>2020-09-11T16:37:35Z</time>
</trkpt>
<trkpt lat="47.480267" lon="10.952341">
<ele>785.397</ele>
<time>2020-09-11T16:37:36Z</time>
</trkpt>
<trkpt lat="47.480263" lon="10.952273">
<ele>785.397</ele>
<time>2020-09-11T16:37:37Z</time>
</trkpt>
<trkpt lat="47.480267" lon="10.952188">
<ele>785.397</ele>
<time>2020-09-11T16:37:38Z</time>
</trkpt>
<trkpt lat="47.480267" lon="10.952102">
<ele>785.688</ele>
<time>2020-09-11T16:37:39Z</time>
</trkpt>
<trkpt lat="47.48027" lon="10.952012">
<ele>785.912</ele>
<time>2020-09-11T16:37:40Z</time>
</trkpt>
<trkpt lat="47.480267" lon="10.951926">
<ele>786.077</ele>
<time>2020-09-11T16:37:41Z</time>
</trkpt>
<trkpt lat="47.480255" lon="10.951846">
<ele>786.199</ele>
<time>2020-09-11T16:37:42Z</time>
</trkpt>
<trkpt lat="47.480244" lon="10.951763">
<ele>786.284</ele>
<time>2020-09-11T16:37:43Z</time>
</trkpt>
<trkpt lat="47.480232" lon="10.95168">
<ele>786.336</ele>
<time>2020-09-11T16:37:44Z</time>
</trkpt>
<trkpt lat="47.480221" lon="10.951587">
<ele>786.364</ele>
<time>2020-09-11T16:37:45Z</time>
</trkpt>
<trkpt lat="47.480206" lon="10.951492">
<ele>786.383</ele>
<time>2020-09-11T16:37:46Z</time>
</trkpt>
<trkpt lat="47.480198" lon="10.951393">
<ele>786.383</ele>
<time>2020-09-11T16:37:47Z</time>
</trkpt>
<trkpt lat="47.480179" lon="10.951319">
<ele>786.383</ele>
<time>2020-09-11T16:37:48Z</time>
</trkpt>
<trkpt lat="47.480156" lon="10.951249">
<ele>786.383</ele>
<time>2020-09-11T16:37:49Z</time>
</trkpt>
<trkpt lat="47.480137" lon="10.951184">
<ele>786.383</ele>
<time>2020-09-11T16:37:50Z</time>
</trkpt>
<trkpt lat="47.480114" lon="10.951113">
<ele>786.383</ele>
<time>2020-09-11T16:37:51Z</time>
</trkpt>
<trkpt lat="47.480091" lon="10.95104">
<ele>786.383</ele>
<time>2020-09-11T16:37:52Z</time>
</trkpt>
<trkpt lat="47.480068" lon="10.950967">
<ele>786.383</ele>
<time>2020-09-11T16:37:53Z</time>
</trkpt>
<trkpt lat="47.480049" lon="10.950898">
<ele>786.383</ele>
<time>2020-09-11T16:37:54Z</time>
</trkpt>
<trkpt lat="47.48003" lon="10.950829">
<ele>786.383</ele>
<time>2020-09-11T16:37:55Z</time>
</trkpt>
<trkpt lat="47.480011" lon="10.950757">
<ele>786.383</ele>
<time>2020-09-11T16:37:56Z</time>
</trkpt>
<trkpt lat="47.479988" lon="10.950688">
<ele>786.383</ele>
<time>2020-09-11T16:37:57Z</time>
</trkpt>
<trkpt lat="47.479965" lon="10.950621">
<ele>786.383</ele>
<time>2020-09-11T16:37:58Z</time>
</trkpt>
<trkpt lat="47.479942" lon="10.95055">
<ele>786.383</ele>
<time>2020-09-11T16:37:59Z</time>
</trkpt>
<trkpt lat="47.479912" lon="10.950482">
<ele>786.383</ele>
<time>2020-09-11T16:38:00Z</time>
</trkpt>
<trkpt lat="47.479885" lon="10.950401">
<ele>786.383</ele>
<time>2020-09-11T16:38:01Z</time>
</trkpt>
<trkpt lat="47.479855" lon="10.950336">
<ele>786.383</ele>
<time>2020-09-11T16:38:02Z</time>
</trkpt>
<trkpt lat="47.479843" lon="10.950245">
<ele>786.621</ele>
<time>2020-09-11T16:38:03Z</time>
</trkpt>
<trkpt lat="47.479816" lon="10.950091">
<ele>786.815</ele>
<time>2020-09-11T16:38:04Z</time>
</trkpt>
<trkpt lat="47.47979" lon="10.949935">
<ele>786.968</ele>
<time>2020-09-11T16:38:05Z</time>
</trkpt>
<trkpt lat="47.479767" lon="10.949863">
<ele>787.055</ele>
<time>2020-09-11T16:38:06Z</time>
</trkpt>
<trkpt lat="47.479748" lon="10.949789">
<ele>787.154</ele>
<time>2020-09-11T16:38:07Z</time>
</trkpt>
<trkpt lat="47.479729" lon="10.949698">
<ele>787.219</ele>
<time>2020-09-11T16:38:08Z</time>
</trkpt>
<trkpt lat="47.47971" lon="10.949636">
<ele>787.26</ele>
<time>2020-09-11T16:38:09Z</time>
</trkpt>
<trkpt lat="47.479679" lon="10.949556">
<ele>787.28</ele>
<time>2020-09-11T16:38:10Z</time>
</trkpt>
<trkpt lat="47.479649" lon="10.949465">
<ele>787.28</ele>
<time>2020-09-11T16:38:11Z</time>
</trkpt>
<trkpt lat="47.479614" lon="10.949418">
<ele>787.28</ele>
<time>2020-09-11T16:38:12Z</time>
</trkpt>
<trkpt lat="47.479572" lon="10.949351">
<ele>787.28</ele>
<time>2020-09-11T16:38:13Z</time>
</trkpt>
<trkpt lat="47.479527" lon="10.949278">
<ele>787.28</ele>
<time>2020-09-11T16:38:14Z</time>
</trkpt>
<trkpt lat="47.479485" lon="10.949202">
<ele>787.28</ele>
<time>2020-09-11T16:38:15Z</time>
</trkpt>
<trkpt lat="47.479439" lon="10.949131">
<ele>787.28</ele>
<time>2020-09-11T16:38:16Z</time>
</trkpt>
<trkpt lat="47.479401" lon="10.949068">
<ele>787.28</ele>
<time>2020-09-11T16:38:17Z</time>
</trkpt>
<trkpt lat="47.479362" lon="10.948992">
<ele>787.605</ele>
<time>2020-09-11T16:38:18Z</time>
</trkpt>
<trkpt lat="47.479324" lon="10.948921">
<ele>787.853</ele>
<time>2020-09-11T16:38:19Z</time>
</trkpt>
<trkpt lat="47.479298" lon="10.948853">
<ele>788.051</ele>
<time>2020-09-11T16:38:20Z</time>
</trkpt>
<trkpt lat="47.479279" lon="10.948769">
<ele>788.173</ele>
<time>2020-09-11T16:38:21Z</time>
</trkpt>
<trkpt lat="47.479252" lon="10.948697">
<ele>788.261</ele>
<time>2020-09-11T16:38:22Z</time>
</trkpt>
<trkpt lat="47.479221" lon="10.948625">
<ele>788.322</ele>
<time>2020-09-11T16:38:23Z</time>
</trkpt>
<trkpt lat="47.479183" lon="10.948544">
<ele>788.352</ele>
<time>2020-09-11T16:38:24Z</time>
</trkpt>
<trkpt lat="47.479145" lon="10.948468">
<ele>788.356</ele>
<time>2020-09-11T16:38:25Z</time>
</trkpt>
<trkpt lat="47.479111" lon="10.948397">
<ele>788.356</ele>
<time>2020-09-11T16:38:26Z</time>
</trkpt>
<trkpt lat="47.479076" lon="10.948328">
<ele>788.356</ele>
<time>2020-09-11T16:38:27Z</time>
</trkpt>
<trkpt lat="47.479042" lon="10.948258">
<ele>788.356</ele>
<time>2020-09-11T16:38:28Z</time>
</trkpt>
<trkpt lat="47.479012" lon="10.948187">
<ele>788.356</ele>
<time>2020-09-11T16:38:29Z</time>
</trkpt>
<trkpt lat="47.478981" lon="10.948123">
<ele>788.356</ele>
<time>2020-09-11T16:38:30Z</time>
</trkpt>
<trkpt lat="47.478947" lon="10.94806">
<ele>788.356</ele>
<time>2020-09-11T16:38:31Z</time>
</trkpt>
<trkpt lat="47.47892" lon="10.948006">
<ele>788.356</ele>
<time>2020-09-11T16:38:32Z</time>
</trkpt>
<trkpt lat="47.478882" lon="10.947948">
<ele>788.356</ele>
<time>2020-09-11T16:38:33Z</time>
</trkpt>
<trkpt lat="47.478851" lon="10.947891">
<ele>788.356</ele>
<time>2020-09-11T16:38:34Z</time>
</trkpt>
<trkpt lat="47.478813" lon="10.947837">
<ele>788.356</ele>
<time>2020-09-11T16:38:35Z</time>
</trkpt>
<trkpt lat="47.478783" lon="10.947782">
<ele>788.356</ele>
<time>2020-09-11T16:38:36Z</time>
</trkpt>
<trkpt lat="47.478748" lon="10.947727">
<ele>788.591</ele>
<time>2020-09-11T16:38:37Z</time>
</trkpt>
<trkpt lat="47.47871" lon="10.947677">
<ele>788.794</ele>
<time>2020-09-11T16:38:38Z</time>
</trkpt>
<trkpt lat="47.478676" lon="10.947633">
<ele>788.96</ele>
<time>2020-09-11T16:38:39Z</time>
</trkpt>
<trkpt lat="47.478642" lon="10.947587">
<ele>789.095</ele>
<time>2020-09-11T16:38:40Z</time>
</trkpt>
<trkpt lat="47.478603" lon="10.947538">
<ele>789.195</ele>
<time>2020-09-11T16:38:41Z</time>
</trkpt>
<trkpt lat="47.478565" lon="10.947491">
<ele>789.27</ele>
<time>2020-09-11T16:38:42Z</time>
</trkpt>
<trkpt lat="47.478523" lon="10.947438">
<ele>789.318</ele>
<time>2020-09-11T16:38:43Z</time>
</trkpt>
<trkpt lat="47.478477" lon="10.947387">
<ele>789.342</ele>
<time>2020-09-11T16:38:44Z</time>
</trkpt>
<trkpt lat="47.478436" lon="10.94734">
<ele>789.342</ele>
<time>2020-09-11T16:38:45Z</time>
</trkpt>
<trkpt lat="47.47839" lon="10.947293">
<ele>789.342</ele>
<time>2020-09-11T16:38:46Z</time>
</trkpt>
<trkpt lat="47.478348" lon="10.947242">
<ele>789.342</ele>
<time>2020-09-11T16:38:47Z</time>
</trkpt>
<trkpt lat="47.47831" lon="10.947183">
<ele>789.342</ele>
<time>2020-09-11T16:38:48Z</time>
</trkpt>
<trkpt lat="47.478268" lon="10.947124">
<ele>789.342</ele>
<time>2020-09-11T16:38:49Z</time>
</trkpt>
<trkpt lat="47.478233" lon="10.947057">
<ele>789.342</ele>
<time>2020-09-11T16:38:50Z</time>
</trkpt>
<trkpt lat="47.478199" lon="10.946988">
<ele>789.342</ele>
<time>2020-09-11T16:38:51Z</time>
</trkpt>
<trkpt lat="47.478168" lon="10.946918">
<ele>789.604</ele>
<time>2020-09-11T16:38:52Z</time>
</trkpt>
<trkpt lat="47.478134" lon="10.946845">
<ele>789.81</ele>
<time>2020-09-11T16:38:53Z</time>
</trkpt>
<trkpt lat="47.478104" lon="10.946774">
<ele>789.968</ele>
<time>2020-09-11T16:38:54Z</time>
</trkpt>
<trkpt lat="47.478077" lon="10.9467">
<ele>790.086</ele>
<time>2020-09-11T16:38:55Z</time>
</trkpt>
<trkpt lat="47.47805" lon="10.94663">
<ele>790.166</ele>
<time>2020-09-11T16:38:56Z</time>
</trkpt>
<trkpt lat="47.47802" lon="10.946565">
<ele>790.249</ele>
<time>2020-09-11T16:38:57Z</time>
</trkpt>
<trkpt lat="47.477989" lon="10.946495">
<ele>790.302</ele>
<time>2020-09-11T16:38:58Z</time>
</trkpt>
<trkpt lat="47.477962" lon="10.946426">
<ele>790.328</ele>
<time>2020-09-11T16:38:59Z</time>
</trkpt>
<trkpt lat="47.477932" lon="10.94636">
<ele>790.328</ele>
<time>2020-09-11T16:39:00Z</time>
</trkpt>
<trkpt lat="47.477901" lon="10.946299">
<ele>790.328</ele>
<time>2020-09-11T16:39:01Z</time>
</trkpt>
<trkpt lat="47.477863" lon="10.946234">
<ele>790.328</ele>
<time>2020-09-11T16:39:02Z</time>
</trkpt>
<trkpt lat="47.477833" lon="10.946169">
<ele>790.328</ele>
<time>2020-09-11T16:39:03Z</time>
</trkpt>
<trkpt lat="47.477795" lon="10.946105">
<ele>790.328</ele>
<time>2020-09-11T16:39:04Z</time>
</trkpt>
<trkpt lat="47.47776" lon="10.946043">
<ele>790.328</ele>
<time>2020-09-11T16:39:05Z</time>
</trkpt>
<trkpt lat="47.477726" lon="10.945976">
<ele>790.528</ele>
<time>2020-09-11T16:39:06Z</time>
</trkpt>
<trkpt lat="47.477688" lon="10.945911">
<ele>790.72</ele>
<time>2020-09-11T16:39:07Z</time>
</trkpt>
<trkpt lat="47.477654" lon="10.945844">
<ele>790.875</ele>
<time>2020-09-11T16:39:08Z</time>
</trkpt>
<trkpt lat="47.477619" lon="10.945784">
<ele>790.999</ele>
<time>2020-09-11T16:39:09Z</time>
</trkpt>
<trkpt lat="47.477592" lon="10.945722">
<ele>791.091</ele>
<time>2020-09-11T16:39:10Z</time>
</trkpt>
<trkpt lat="47.477573" lon="10.945648">
<ele>791.16</ele>
<time>2020-09-11T16:39:11Z</time>
</trkpt>
<trkpt lat="47.477566" lon="10.945565">
<ele>791.204</ele>
<time>2020-09-11T16:39:12Z</time>
</trkpt>
<trkpt lat="47.477562" lon="10.945487">
<ele>791.225</ele>
<time>2020-09-11T16:39:13Z</time>
</trkpt>
<trkpt lat="47.477554" lon="10.945405">
<ele>791.226</ele>
<time>2020-09-11T16:39:14Z</time>
</trkpt>
<trkpt lat="47.477547" lon="10.945331">
<ele>791.225</ele>
<time>2020-09-11T16:39:15Z</time>
</trkpt>
<trkpt lat="47.477528" lon="10.945258">
<ele>791.225</ele>
<time>2020-09-11T16:39:16Z</time>
</trkpt>
<trkpt lat="47.477512" lon="10.945194">
<ele>791.226</ele>
<time>2020-09-11T16:39:17Z</time>
</trkpt>
<trkpt lat="47.477497" lon="10.945131">
<ele>791.225</ele>
<time>2020-09-11T16:39:18Z</time>
</trkpt>
<trkpt lat="47.477489" lon="10.945068">
<ele>791.226</ele>
<time>2020-09-11T16:39:19Z</time>
</trkpt>
<trkpt lat="47.477482" lon="10.945002">
<ele>791.226</ele>
<time>2020-09-11T16:39:20Z</time>
</trkpt>
<trkpt lat="47.47747" lon="10.944947">
<ele>791.225</ele>
<time>2020-09-11T16:39:21Z</time>
</trkpt>
<trkpt lat="47.477459" lon="10.944888">
<ele>791.226</ele>
<time>2020-09-11T16:39:22Z</time>
</trkpt>
<trkpt lat="47.47744" lon="10.944832">
<ele>791.225</ele>
<time>2020-09-11T16:39:23Z</time>
</trkpt>
<trkpt lat="47.477417" lon="10.944781">
<ele>791.485</ele>
<time>2020-09-11T16:39:24Z</time>
</trkpt>
<trkpt lat="47.477394" lon="10.944712">
<ele>791.701</ele>
<time>2020-09-11T16:39:25Z</time>
</trkpt>
<trkpt lat="47.477367" lon="10.944652">
<ele>791.849</ele>
<time>2020-09-11T16:39:26Z</time>
</trkpt>
<trkpt lat="47.477333" lon="10.944593">
<ele>792.013</ele>
<time>2020-09-11T16:39:27Z</time>
</trkpt>
<trkpt lat="47.477303" lon="10.944527">
<ele>792.137</ele>
<time>2020-09-11T16:39:28Z</time>
</trkpt>
<trkpt lat="47.477287" lon="10.944447">
<ele>792.228</ele>
<time>2020-09-11T16:39:29Z</time>
</trkpt>
<trkpt lat="47.477268" lon="10.944366">
<ele>792.278</ele>
<time>2020-09-11T16:39:30Z</time>
</trkpt>
<trkpt lat="47.477253" lon="10.944288">
<ele>792.302</ele>
<time>2020-09-11T16:39:31Z</time>
</trkpt>
<trkpt lat="47.477234" lon="10.944223">
<ele>792.57</ele>
<time>2020-09-11T16:39:32Z</time>
</trkpt>
<trkpt lat="47.477215" lon="10.94416">
<ele>792.767</ele>
<time>2020-09-11T16:39:33Z</time>
</trkpt>
<trkpt lat="47.477196" lon="10.944097">
<ele>792.925</ele>
<time>2020-09-11T16:39:34Z</time>
</trkpt>
<trkpt lat="47.477173" lon="10.94403">
<ele>793.038</ele>
<time>2020-09-11T16:39:35Z</time>
</trkpt>
<trkpt lat="47.477161" lon="10.943963">
<ele>793.118</ele>
<time>2020-09-11T16:39:36Z</time>
</trkpt>
<trkpt lat="47.477142" lon="10.943898">
<ele>793.202</ele>
<time>2020-09-11T16:39:37Z</time>
</trkpt>
<trkpt lat="47.477127" lon="10.943835">
<ele>793.259</ele>
<time>2020-09-11T16:39:38Z</time>
</trkpt>
<trkpt lat="47.477119" lon="10.943776">
<ele>793.288</ele>
<time>2020-09-11T16:39:39Z</time>
</trkpt>
<trkpt lat="47.477123" lon="10.943717">
<ele>793.289</ele>
<time>2020-09-11T16:39:40Z</time>
</trkpt>
<trkpt lat="47.477139" lon="10.943663">
<ele>793.289</ele>
<time>2020-09-11T16:39:41Z</time>
</trkpt>
<trkpt lat="47.477169" lon="10.943613">
<ele>793.288</ele>
<time>2020-09-11T16:39:42Z</time>
</trkpt>
<trkpt lat="47.477203" lon="10.943583">
<ele>793.289</ele>
<time>2020-09-11T16:39:43Z</time>
</trkpt>
<trkpt lat="47.477238" lon="10.943554">
<ele>793.289</ele>
<time>2020-09-11T16:39:44Z</time>
</trkpt>
<trkpt lat="47.477276" lon="10.943521">
<ele>793.289</ele>
<time>2020-09-11T16:39:45Z</time>
</trkpt>
<trkpt lat="47.477318" lon="10.943485">
<ele>793.239</ele>
<time>2020-09-11T16:39:46Z</time>
</trkpt>
<trkpt lat="47.477356" lon="10.943447">
<ele>793.195</ele>
<time>2020-09-11T16:39:47Z</time>
</trkpt>
<trkpt lat="47.477394" lon="10.943403">
<ele>793.163</ele>
<time>2020-09-11T16:39:48Z</time>
</trkpt>
<trkpt lat="47.477425" lon="10.943355">
<ele>793.139</ele>
<time>2020-09-11T16:39:49Z</time>
</trkpt>
<trkpt lat="47.477451" lon="10.943305">
<ele>793.124</ele>
<time>2020-09-11T16:39:50Z</time>
</trkpt>
<trkpt lat="47.477478" lon="10.943246">
<ele>793.113</ele>
<time>2020-09-11T16:39:51Z</time>
</trkpt>
<trkpt lat="47.477505" lon="10.94319">
<ele>793.109</ele>
<time>2020-09-11T16:39:52Z</time>
</trkpt>
<trkpt lat="47.477531" lon="10.94314">
<ele>793.109</ele>
<time>2020-09-11T16:39:53Z</time>
</trkpt>
<trkpt lat="47.477562" lon="10.943097">
<ele>793.109</ele>
<time>2020-09-11T16:39:54Z</time>
</trkpt>
<trkpt lat="47.477604" lon="10.943051">
<ele>793.109</ele>
<time>2020-09-11T16:39:55Z</time>
</trkpt>
<trkpt lat="47.47765" lon="10.943013">
<ele>793.109</ele>
<time>2020-09-11T16:39:56Z</time>
</trkpt>
<trkpt lat="47.477692" lon="10.94298">
<ele>793.109</ele>
<time>2020-09-11T16:39:57Z</time>
</trkpt>
<trkpt lat="47.477726" lon="10.942952">
<ele>793.109</ele>
<time>2020-09-11T16:39:58Z</time>
</trkpt>
<trkpt lat="47.47776" lon="10.942932">
<ele>793.109</ele>
<time>2020-09-11T16:39:59Z</time>
</trkpt>
<trkpt lat="47.477806" lon="10.942913">
<ele>793.109</ele>
<time>2020-09-11T16:40:00Z</time>
</trkpt>
<trkpt lat="47.477833" lon="10.942897">
<ele>793.109</ele>
<time>2020-09-11T16:40:01Z</time>
</trkpt>
<trkpt lat="47.477856" lon="10.942871">
<ele>793.109</ele>
<time>2020-09-11T16:40:02Z</time>
</trkpt>
<trkpt lat="47.477882" lon="10.94283">
<ele>793.109</ele>
<time>2020-09-11T16:40:03Z</time>
</trkpt>
<trkpt lat="47.47789" lon="10.94278">
<ele>793.109</ele>
<time>2020-09-11T16:40:04Z</time>
</trkpt>
<trkpt lat="47.477894" lon="10.942724">
<ele>793.109</ele>
<time>2020-09-11T16:40:05Z</time>
</trkpt>
<trkpt lat="47.477894" lon="10.942665">
<ele>793.109</ele>
<time>2020-09-11T16:40:06Z</time>
</trkpt>
<trkpt lat="47.47789" lon="10.94261">
<ele>793.109</ele>
<time>2020-09-11T16:40:07Z</time>
</trkpt>
<trkpt lat="47.477886" lon="10.942549">
<ele>793.109</ele>
<time>2020-09-11T16:40:08Z</time>
</trkpt>
<trkpt lat="47.477886" lon="10.942485">
<ele>793.109</ele>
<time>2020-09-11T16:40:09Z</time>
</trkpt>
<trkpt lat="47.477879" lon="10.94242">
<ele>793.109</ele>
<time>2020-09-11T16:40:10Z</time>
</trkpt>
<trkpt lat="47.477875" lon="10.942353">
<ele>793.388</ele>
<time>2020-09-11T16:40:11Z</time>
</trkpt>
<trkpt lat="47.477871" lon="10.942288">
<ele>793.605</ele>
<time>2020-09-11T16:40:12Z</time>
</trkpt>
<trkpt lat="47.477863" lon="10.942222">
<ele>793.759</ele>
<time>2020-09-11T16:40:13Z</time>
</trkpt>
<trkpt lat="47.477856" lon="10.942153">
<ele>793.875</ele>
<time>2020-09-11T16:40:14Z</time>
</trkpt>
<trkpt lat="47.477856" lon="10.942087">
<ele>793.961</ele>
<time>2020-09-11T16:40:15Z</time>
</trkpt>
<trkpt lat="47.477848" lon="10.942022">
<ele>794.017</ele>
<time>2020-09-11T16:40:16Z</time>
</trkpt>
<trkpt lat="47.477844" lon="10.941954">
<ele>794.07</ele>
<time>2020-09-11T16:40:17Z</time>
</trkpt>
<trkpt lat="47.477833" lon="10.941885">
<ele>794.096</ele>
<time>2020-09-11T16:40:18Z</time>
</trkpt>
<trkpt lat="47.477825" lon="10.941817">
<ele>794.096</ele>
<time>2020-09-11T16:40:19Z</time>
</trkpt>
<trkpt lat="47.477821" lon="10.941746">
<ele>794.096</ele>
<time>2020-09-11T16:40:20Z</time>
</trkpt>
<trkpt lat="47.47781" lon="10.941677">
<ele>794.096</ele>
<time>2020-09-11T16:40:21Z</time>
</trkpt>
<trkpt lat="47.477798" lon="10.941607">
<ele>794.335</ele>
<time>2020-09-11T16:40:22Z</time>
</trkpt>
<trkpt lat="47.477791" lon="10.94154">
<ele>794.523</ele>
<time>2020-09-11T16:40:23Z</time>
</trkpt>
<trkpt lat="47.477783" lon="10.941473">
<ele>794.666</ele>
<time>2020-09-11T16:40:24Z</time>
</trkpt>
<trkpt lat="47.477776" lon="10.941406">
<ele>794.769</ele>
<time>2020-09-11T16:40:25Z</time>
</trkpt>
<trkpt lat="47.477768" lon="10.941339">
<ele>794.843</ele>
<time>2020-09-11T16:40:26Z</time>
</trkpt>
<trkpt lat="47.47776" lon="10.941275">
<ele>794.92</ele>
<time>2020-09-11T16:40:27Z</time>
</trkpt>
<trkpt lat="47.477757" lon="10.941208">
<ele>794.967</ele>
<time>2020-09-11T16:40:28Z</time>
</trkpt>
<trkpt lat="47.477749" lon="10.941143">
<ele>795.231</ele>
<time>2020-09-11T16:40:29Z</time>
</trkpt>
<trkpt lat="47.477737" lon="10.941078">
<ele>795.497</ele>
<time>2020-09-11T16:40:30Z</time>
</trkpt>
<trkpt lat="47.477726" lon="10.941009">
<ele>795.669</ele>
<time>2020-09-11T16:40:31Z</time>
</trkpt>
<trkpt lat="47.477722" lon="10.940944">
<ele>795.793</ele>
<time>2020-09-11T16:40:32Z</time>
</trkpt>
<trkpt lat="47.477711" lon="10.940882">
<ele>795.879</ele>
<time>2020-09-11T16:40:33Z</time>
</trkpt>
<trkpt lat="47.477707" lon="10.940818">
<ele>795.924</ele>
<time>2020-09-11T16:40:34Z</time>
</trkpt>
<trkpt lat="47.477699" lon="10.940757">
<ele>796.191</ele>
<time>2020-09-11T16:40:35Z</time>
</trkpt>
<trkpt lat="47.477695" lon="10.940694">
<ele>796.387</ele>
<time>2020-09-11T16:40:36Z</time>
</trkpt>
<trkpt lat="47.477692" lon="10.940629">
<ele>796.562</ele>
<time>2020-09-11T16:40:37Z</time>
</trkpt>
<trkpt lat="47.47768" lon="10.94056">
<ele>796.702</ele>
<time>2020-09-11T16:40:38Z</time>
</trkpt>
<trkpt lat="47.477669" lon="10.940492">
<ele>796.81</ele>
<time>2020-09-11T16:40:39Z</time>
</trkpt>
<trkpt lat="47.477657" lon="10.940424">
<ele>796.893</ele>
<time>2020-09-11T16:40:40Z</time>
</trkpt>
<trkpt lat="47.477638" lon="10.940353">
<ele>796.944</ele>
<time>2020-09-11T16:40:41Z</time>
</trkpt>
<trkpt lat="47.477627" lon="10.94028">
<ele>796.967</ele>
<time>2020-09-11T16:40:42Z</time>
</trkpt>
<trkpt lat="47.477604" lon="10.940207">
<ele>796.967</ele>
<time>2020-09-11T16:40:43Z</time>
</trkpt>
<trkpt lat="47.477585" lon="10.94013">
<ele>796.967</ele>
<time>2020-09-11T16:40:44Z</time>
</trkpt>
<trkpt lat="47.477562" lon="10.940053">
<ele>796.967</ele>
<time>2020-09-11T16:40:45Z</time>
</trkpt>
<trkpt lat="47.477528" lon="10.939983">
<ele>796.967</ele>
<time>2020-09-11T16:40:46Z</time>
</trkpt>
<trkpt lat="47.477493" lon="10.939921">
<ele>796.967</ele>
<time>2020-09-11T16:40:47Z</time>
</trkpt>
<trkpt lat="47.477444" lon="10.93987">
<ele>796.967</ele>
<time>2020-09-11T16:40:48Z</time>
</trkpt>
<trkpt lat="47.477398" lon="10.939823">
<ele>796.967</ele>
<time>2020-09-11T16:40:49Z</time>
</trkpt>
<trkpt lat="47.477341" lon="10.93979">
<ele>796.967</ele>
<time>2020-09-11T16:40:50Z</time>
</trkpt>
<trkpt lat="47.47728" lon="10.939757">
<ele>796.967</ele>
<time>2020-09-11T16:40:51Z</time>
</trkpt>
<trkpt lat="47.477222" lon="10.93972">
<ele>796.967</ele>
<time>2020-09-11T16:40:52Z</time>
</trkpt>
<trkpt lat="47.477169" lon="10.939678">
<ele>796.967</ele>
<time>2020-09-11T16:40:53Z</time>
</trkpt>
<trkpt lat="47.477116" lon="10.939627">
<ele>796.714</ele>
<time>2020-09-11T16:40:54Z</time>
</trkpt>
<trkpt lat="47.477066" lon="10.93956">
<ele>796.517</ele>
<time>2020-09-11T16:40:55Z</time>
</trkpt>
<trkpt lat="47.477013" lon="10.939489">
<ele>796.385</ele>
<time>2020-09-11T16:40:56Z</time>
</trkpt>
<trkpt lat="47.476967" lon="10.93942">
<ele>796.241</ele>
<time>2020-09-11T16:40:57Z</time>
</trkpt>
<trkpt lat="47.476917" lon="10.939355">
<ele>796.132</ele>
<time>2020-09-11T16:40:58Z</time>
</trkpt>
<trkpt lat="47.476864" lon="10.93929">
<ele>796.055</ele>
<time>2020-09-11T16:40:59Z</time>
</trkpt>
<trkpt lat="47.476814" lon="10.93923">
<ele>796.007</ele>
<time>2020-09-11T16:41:00Z</time>
</trkpt>
<trkpt lat="47.476765" lon="10.939172">
<ele>795.739</ele>
<time>2020-09-11T16:41:01Z</time>
</trkpt>
<trkpt lat="47.476715" lon="10.939114">
<ele>795.534</ele>
<time>2020-09-11T16:41:02Z</time>
</trkpt>
<trkpt lat="47.476658" lon="10.939056">
<ele>795.116</ele>
<time>2020-09-11T16:41:03Z</time>
</trkpt>
<trkpt lat="47.476604" lon="10.939001">
<ele>794.79</ele>
<time>2020-09-11T16:41:04Z</time>
</trkpt>
<trkpt lat="47.476551" lon="10.938949">
<ele>794.543</ele>
<time>2020-09-11T16:41:05Z</time>
</trkpt>
<trkpt lat="47.476501" lon="10.938894">
<ele>794.366</ele>
<time>2020-09-11T16:41:06Z</time>
</trkpt>
<trkpt lat="47.476452" lon="10.938845">
<ele>794.195</ele>
<time>2020-09-11T16:41:07Z</time>
</trkpt>
<trkpt lat="47.476395" lon="10.938804">
<ele>794.083</ele>
<time>2020-09-11T16:41:08Z</time>
</trkpt>
<trkpt lat="47.476334" lon="10.93877">
<ele>794.032</ele>
<time>2020-09-11T16:41:09Z</time>
</trkpt>
<trkpt lat="47.476273" lon="10.938744">
<ele>794.006</ele>
<time>2020-09-11T16:41:10Z</time>
</trkpt>
<trkpt lat="47.476208" lon="10.938719">
<ele>794.006</ele>
<time>2020-09-11T16:41:11Z</time>
</trkpt>
<trkpt lat="47.476143" lon="10.938698">
<ele>794.006</ele>
<time>2020-09-11T16:41:12Z</time>
</trkpt>
<trkpt lat="47.476078" lon="10.938679">
<ele>794.006</ele>
<time>2020-09-11T16:41:13Z</time>
</trkpt>
<trkpt lat="47.476009" lon="10.938657">
<ele>794.006</ele>
<time>2020-09-11T16:41:14Z</time>
</trkpt>
<trkpt lat="47.475952" lon="10.938628">
<ele>794.006</ele>
<time>2020-09-11T16:41:15Z</time>
</trkpt>
<trkpt lat="47.475887" lon="10.938599">
<ele>794.006</ele>
<time>2020-09-11T16:41:16Z</time>
</trkpt>
<trkpt lat="47.475826" lon="10.938565">
<ele>794.006</ele>
<time>2020-09-11T16:41:17Z</time>
</trkpt>
<trkpt lat="47.475765" lon="10.938528">
<ele>794.006</ele>
<time>2020-09-11T16:41:18Z</time>
</trkpt>
<trkpt lat="47.475704" lon="10.938492">
<ele>794.006</ele>
<time>2020-09-11T16:41:19Z</time>
</trkpt>
<trkpt lat="47.475643" lon="10.93845">
<ele>794.006</ele>
<time>2020-09-11T16:41:20Z</time>
</trkpt>
<trkpt lat="47.475586" lon="10.938405">
<ele>794.006</ele>
<time>2020-09-11T16:41:21Z</time>
</trkpt>
<trkpt lat="47.475536" lon="10.938356">
<ele>794.006</ele>
<time>2020-09-11T16:41:22Z</time>
</trkpt>
<trkpt lat="47.475475" lon="10.938312">
<ele>794.006</ele>
<time>2020-09-11T16:41:23Z</time>
</trkpt>
<trkpt lat="47.475414" lon="10.938272">
<ele>794.006</ele>
<time>2020-09-11T16:41:24Z</time>
</trkpt>
<trkpt lat="47.475357" lon="10.938233">
<ele>794.006</ele>
<time>2020-09-11T16:41:25Z</time>
</trkpt>
<trkpt lat="47.4753" lon="10.938192">
<ele>794.006</ele>
<time>2020-09-11T16:41:26Z</time>
</trkpt>
<trkpt lat="47.475246" lon="10.938147">
<ele>794.006</ele>
<time>2020-09-11T16:41:27Z</time>
</trkpt>
<trkpt lat="47.475185" lon="10.9381">
<ele>794.006</ele>
<time>2020-09-11T16:41:28Z</time>
</trkpt>
<trkpt lat="47.475136" lon="10.938048">
<ele>794.006</ele>
<time>2020-09-11T16:41:29Z</time>
</trkpt>
<trkpt lat="47.475082" lon="10.937993">
<ele>794.006</ele>
<time>2020-09-11T16:41:30Z</time>
</trkpt>
<trkpt lat="47.47504" lon="10.937933">
<ele>794.006</ele>
<time>2020-09-11T16:41:31Z</time>
</trkpt>
<trkpt lat="47.474995" lon="10.937872">
<ele>794.006</ele>
<time>2020-09-11T16:41:32Z</time>
</trkpt>
<trkpt lat="47.474949" lon="10.937809">
<ele>794.006</ele>
<time>2020-09-11T16:41:33Z</time>
</trkpt>
<trkpt lat="47.474899" lon="10.937745">
<ele>794.006</ele>
<time>2020-09-11T16:41:34Z</time>
</trkpt>
<trkpt lat="47.474854" lon="10.937679">
<ele>794.006</ele>
<time>2020-09-11T16:41:35Z</time>
</trkpt>
<trkpt lat="47.474812" lon="10.937613">
<ele>794.006</ele>
<time>2020-09-11T16:41:36Z</time>
</trkpt>
<trkpt lat="47.47477" lon="10.937543">
<ele>794.006</ele>
<time>2020-09-11T16:41:37Z</time>
</trkpt>
<trkpt lat="47.474731" lon="10.937475">
<ele>794.006</ele>
<time>2020-09-11T16:41:38Z</time>
</trkpt>
<trkpt lat="47.474697" lon="10.937405">
<ele>794.006</ele>
<time>2020-09-11T16:41:39Z</time>
</trkpt>
<trkpt lat="47.474663" lon="10.937335">
<ele>794.006</ele>
<time>2020-09-11T16:41:40Z</time>
</trkpt>
<trkpt lat="47.474628" lon="10.937264">
<ele>794.006</ele>
<time>2020-09-11T16:41:41Z</time>
</trkpt>
<trkpt lat="47.474586" lon="10.937198">
<ele>794.006</ele>
<time>2020-09-11T16:41:42Z</time>
</trkpt>
<trkpt lat="47.474552" lon="10.937132">
<ele>794.006</ele>
<time>2020-09-11T16:41:43Z</time>
</trkpt>
<trkpt lat="47.474514" lon="10.937067">
<ele>794.249</ele>
<time>2020-09-11T16:41:44Z</time>
</trkpt>
<trkpt lat="47.474476" lon="10.937">
<ele>794.444</ele>
<time>2020-09-11T16:41:45Z</time>
</trkpt>
<trkpt lat="47.474434" lon="10.936935">
<ele>794.581</ele>
<time>2020-09-11T16:41:46Z</time>
</trkpt>
<trkpt lat="47.4744" lon="10.936871">
<ele>794.727</ele>
<time>2020-09-11T16:41:47Z</time>
</trkpt>
<trkpt lat="47.474361" lon="10.9368">
<ele>794.837</ele>
<time>2020-09-11T16:41:48Z</time>
</trkpt>
<trkpt lat="47.474327" lon="10.936732">
<ele>794.915</ele>
<time>2020-09-11T16:41:49Z</time>
</trkpt>
<trkpt lat="47.474293" lon="10.93666">
<ele>794.968</ele>
<time>2020-09-11T16:41:50Z</time>
</trkpt>
<trkpt lat="47.474258" lon="10.936588">
<ele>794.993</ele>
<time>2020-09-11T16:41:51Z</time>
</trkpt>
<trkpt lat="47.47422" lon="10.936519">
<ele>795.256</ele>
<time>2020-09-11T16:41:52Z</time>
</trkpt>
<trkpt lat="47.474182" lon="10.936454">
<ele>795.46</ele>
<time>2020-09-11T16:41:53Z</time>
</trkpt>
<trkpt lat="47.47414" lon="10.936385">
<ele>795.618</ele>
<time>2020-09-11T16:41:54Z</time>
</trkpt>
<trkpt lat="47.474106" lon="10.936317">
<ele>795.735</ele>
<time>2020-09-11T16:41:55Z</time>
</trkpt>
<trkpt lat="47.474064" lon="10.936247">
<ele>795.816</ele>
<time>2020-09-11T16:41:56Z</time>
</trkpt>
<trkpt lat="47.474022" lon="10.936179">
<ele>796.143</ele>
<time>2020-09-11T16:41:57Z</time>
</trkpt>
<trkpt lat="47.47398" lon="10.936111">
<ele>796.398</ele>
<time>2020-09-11T16:41:58Z</time>
</trkpt>
<trkpt lat="47.473942" lon="10.936045">
<ele>796.59</ele>
<time>2020-09-11T16:41:59Z</time>
</trkpt>
<trkpt lat="47.473904" lon="10.93598">
<ele>796.723</ele>
<time>2020-09-11T16:42:00Z</time>
</trkpt>
<trkpt lat="47.473866" lon="10.935915">
<ele>796.824</ele>
<time>2020-09-11T16:42:01Z</time>
</trkpt>
<trkpt lat="47.473827" lon="10.935852">
<ele>796.896</ele>
<time>2020-09-11T16:42:02Z</time>
</trkpt>
<trkpt lat="47.473793" lon="10.935794">
<ele>796.944</ele>
<time>2020-09-11T16:42:03Z</time>
</trkpt>
<trkpt lat="47.473755" lon="10.935741">
<ele>796.967</ele>
<time>2020-09-11T16:42:04Z</time>
</trkpt>
<trkpt lat="47.473717" lon="10.93569">
<ele>796.967</ele>
<time>2020-09-11T16:42:05Z</time>
</trkpt>
<trkpt lat="47.473686" lon="10.935638">
<ele>796.967</ele>
<time>2020-09-11T16:42:06Z</time>
</trkpt>
<trkpt lat="47.473656" lon="10.93559">
<ele>796.967</ele>
<time>2020-09-11T16:42:07Z</time>
</trkpt>
<trkpt lat="47.473625" lon="10.935543">
<ele>796.967</ele>
<time>2020-09-11T16:42:08Z</time>
</trkpt>
<trkpt lat="47.473595" lon="10.935496">
<ele>796.967</ele>
<time>2020-09-11T16:42:09Z</time>
</trkpt>
<trkpt lat="47.473564" lon="10.93545">
<ele>796.967</ele>
<time>2020-09-11T16:42:10Z</time>
</trkpt>
<trkpt lat="47.47353" lon="10.935404">
<ele>797.204</ele>
<time>2020-09-11T16:42:11Z</time>
</trkpt>
<trkpt lat="47.473503" lon="10.935358">
<ele>797.393</ele>
<time>2020-09-11T16:42:12Z</time>
</trkpt>
<trkpt lat="47.473473" lon="10.935318">
<ele>797.542</ele>
<time>2020-09-11T16:42:13Z</time>
</trkpt>
<trkpt lat="47.473442" lon="10.935282">
<ele>797.65</ele>
<time>2020-09-11T16:42:14Z</time>
</trkpt>
<trkpt lat="47.473412" lon="10.935246">
<ele>797.731</ele>
<time>2020-09-11T16:42:15Z</time>
</trkpt>
<trkpt lat="47.473385" lon="10.935209">
<ele>797.789</ele>
<time>2020-09-11T16:42:16Z</time>
</trkpt>
<trkpt lat="47.473362" lon="10.935177">
<ele>797.839</ele>
<time>2020-09-11T16:42:17Z</time>
</trkpt>
<trkpt lat="47.473347" lon="10.935142">
<ele>797.865</ele>
<time>2020-09-11T16:42:18Z</time>
</trkpt>
<trkpt lat="47.473324" lon="10.935111">
<ele>797.865</ele>
<time>2020-09-11T16:42:19Z</time>
</trkpt>
<trkpt lat="47.473309" lon="10.93508">
<ele>797.865</ele>
<time>2020-09-11T16:42:20Z</time>
</trkpt>
<trkpt lat="47.473297" lon="10.935068">
<ele>797.865</ele>
<time>2020-09-11T16:42:21Z</time>
</trkpt>
<trkpt lat="47.473293" lon="10.935068">
<ele>797.865</ele>
<time>2020-09-11T16:42:22Z</time>
</trkpt>
<trkpt lat="47.473289" lon="10.935077">
<ele>797.865</ele>
<time>2020-09-11T16:42:23Z</time>
</trkpt>
<trkpt lat="47.473289" lon="10.93508">
<ele>797.865</ele>
<time>2020-09-11T16:42:24Z</time>
</trkpt>
<trkpt lat="47.473282" lon="10.935085">
<ele>797.865</ele>
<time>2020-09-11T16:42:25Z</time>
</trkpt>
<trkpt lat="47.47327" lon="10.935094">
<ele>797.865</ele>
<time>2020-09-11T16:42:26Z</time>
</trkpt>
<trkpt lat="47.473274" lon="10.935092">
<ele>797.865</ele>
<time>2020-09-11T16:42:27Z</time>
</trkpt>
<trkpt lat="47.47327" lon="10.935094">
<ele>797.865</ele>
<time>2020-09-11T16:42:28Z</time>
</trkpt>
<trkpt lat="47.47327" lon="10.935095">
<ele>797.865</ele>
<time>2020-09-11T16:42:29Z</time>
</trkpt>
<trkpt lat="47.473263" lon="10.935065">
<ele>797.865</ele>
<time>2020-09-11T16:42:52Z</time>
</trkpt>
<trkpt lat="47.473259" lon="10.935062">
<ele>797.865</ele>
<time>2020-09-11T16:42:53Z</time>
</trkpt>
<trkpt lat="47.473255" lon="10.935061">
<ele>797.865</ele>
<time>2020-09-11T16:42:54Z</time>
</trkpt>
<trkpt lat="47.473251" lon="10.935055">
<ele>797.865</ele>
<time>2020-09-11T16:42:55Z</time>
</trkpt>
<trkpt lat="47.47324" lon="10.935059">
<ele>797.865</ele>
<time>2020-09-11T16:42:56Z</time>
</trkpt>
<trkpt lat="47.473232" lon="10.935071">
<ele>797.865</ele>
<time>2020-09-11T16:42:57Z</time>
</trkpt>
<trkpt lat="47.473225" lon="10.935088">
<ele>797.865</ele>
<time>2020-09-11T16:42:58Z</time>
</trkpt>
<trkpt lat="47.473217" lon="10.935113">
<ele>797.865</ele>
<time>2020-09-11T16:42:59Z</time>
</trkpt>
<trkpt lat="47.473202" lon="10.935146">
<ele>797.865</ele>
<time>2020-09-11T16:43:00Z</time>
</trkpt>
<trkpt lat="47.47319" lon="10.935186">
<ele>797.865</ele>
<time>2020-09-11T16:43:01Z</time>
</trkpt>
<trkpt lat="47.473171" lon="10.935234">
<ele>797.865</ele>
<time>2020-09-11T16:43:02Z</time>
</trkpt>
<trkpt lat="47.473156" lon="10.935278">
<ele>797.865</ele>
<time>2020-09-11T16:43:03Z</time>
</trkpt>
<trkpt lat="47.473129" lon="10.935324">
<ele>797.865</ele>
<time>2020-09-11T16:43:04Z</time>
</trkpt>
<trkpt lat="47.473106" lon="10.935372">
<ele>797.865</ele>
<time>2020-09-11T16:43:05Z</time>
</trkpt>
<trkpt lat="47.473076" lon="10.935421">
<ele>797.865</ele>
<time>2020-09-11T16:43:06Z</time>
</trkpt>
<trkpt lat="47.473049" lon="10.93547">
<ele>797.865</ele>
<time>2020-09-11T16:43:07Z</time>
</trkpt>
<trkpt lat="47.473007" lon="10.935518">
<ele>797.865</ele>
<time>2020-09-11T16:43:08Z</time>
</trkpt>
<trkpt lat="47.472965" lon="10.935558">
<ele>797.623</ele>
<time>2020-09-11T16:43:09Z</time>
</trkpt>
<trkpt lat="47.472916" lon="10.935588">
<ele>797.434</ele>
<time>2020-09-11T16:43:10Z</time>
</trkpt>
<trkpt lat="47.472866" lon="10.935605">
<ele>797.284</ele>
<time>2020-09-11T16:43:11Z</time>
</trkpt>
<trkpt lat="47.47282" lon="10.935612">
<ele>797.171</ele>
<time>2020-09-11T16:43:12Z</time>
</trkpt>
<trkpt lat="47.472782" lon="10.935603">
<ele>797.088</ele>
<time>2020-09-11T16:43:13Z</time>
</trkpt>
<trkpt lat="47.472736" lon="10.935582">
<ele>797.027</ele>
<time>2020-09-11T16:43:14Z</time>
</trkpt>
<trkpt lat="47.472691" lon="10.935552">
<ele>796.986</ele>
<time>2020-09-11T16:43:15Z</time>
</trkpt>
<trkpt lat="47.472652" lon="10.935512">
<ele>796.967</ele>
<time>2020-09-11T16:43:16Z</time>
</trkpt>
<trkpt lat="47.472618" lon="10.935463">
<ele>796.967</ele>
<time>2020-09-11T16:43:17Z</time>
</trkpt>
<trkpt lat="47.472588" lon="10.935414">
<ele>796.967</ele>
<time>2020-09-11T16:43:18Z</time>
</trkpt>
<trkpt lat="47.472553" lon="10.935367">
<ele>796.967</ele>
<time>2020-09-11T16:43:19Z</time>
</trkpt>
<trkpt lat="47.472519" lon="10.935322">
<ele>796.967</ele>
<time>2020-09-11T16:43:20Z</time>
</trkpt>
<trkpt lat="47.472485" lon="10.935278">
<ele>796.967</ele>
<time>2020-09-11T16:43:21Z</time>
</trkpt>
<trkpt lat="47.472454" lon="10.935234">
<ele>796.967</ele>
<time>2020-09-11T16:43:22Z</time>
</trkpt>
<trkpt lat="47.472427" lon="10.935188">
<ele>796.967</ele>
<time>2020-09-11T16:43:23Z</time>
</trkpt>
<trkpt lat="47.472404" lon="10.935155">
<ele>796.967</ele>
<time>2020-09-11T16:43:24Z</time>
</trkpt>
<trkpt lat="47.472378" lon="10.935122">
<ele>796.967</ele>
<time>2020-09-11T16:43:25Z</time>
</trkpt>
<trkpt lat="47.472343" lon="10.935085">
<ele>796.967</ele>
<time>2020-09-11T16:43:26Z</time>
</trkpt>
<trkpt lat="47.472313" lon="10.935043">
<ele>796.967</ele>
<time>2020-09-11T16:43:27Z</time>
</trkpt>
<trkpt lat="47.472286" lon="10.934997">
<ele>796.967</ele>
<time>2020-09-11T16:43:28Z</time>
</trkpt>
<trkpt lat="47.472256" lon="10.934941">
<ele>796.967</ele>
<time>2020-09-11T16:43:29Z</time>
</trkpt>
<trkpt lat="47.472214" lon="10.934883">
<ele>796.967</ele>
<time>2020-09-11T16:43:30Z</time>
</trkpt>
<trkpt lat="47.472179" lon="10.934822">
<ele>797.252</ele>
<time>2020-09-11T16:43:31Z</time>
</trkpt>
<trkpt lat="47.472137" lon="10.93476">
<ele>797.469</ele>
<time>2020-09-11T16:43:32Z</time>
</trkpt>
<trkpt lat="47.472099" lon="10.934702">
<ele>797.611</ele>
<time>2020-09-11T16:43:33Z</time>
</trkpt>
<trkpt lat="47.472061" lon="10.934646">
<ele>797.711</ele>
<time>2020-09-11T16:43:34Z</time>
</trkpt>
<trkpt lat="47.472034" lon="10.934595">
<ele>797.78</ele>
<time>2020-09-11T16:43:35Z</time>
</trkpt>
<trkpt lat="47.471996" lon="10.934544">
<ele>797.823</ele>
<time>2020-09-11T16:43:36Z</time>
</trkpt>
<trkpt lat="47.471962" lon="10.934488">
<ele>797.846</ele>
<time>2020-09-11T16:43:37Z</time>
</trkpt>
<trkpt lat="47.471924" lon="10.934437">
<ele>797.865</ele>
<time>2020-09-11T16:43:38Z</time>
</trkpt>
<trkpt lat="47.471886" lon="10.934385">
<ele>797.865</ele>
<time>2020-09-11T16:43:39Z</time>
</trkpt>
<trkpt lat="47.471844" lon="10.934329">
<ele>797.865</ele>
<time>2020-09-11T16:43:40Z</time>
</trkpt>
<trkpt lat="47.471806" lon="10.934273">
<ele>797.865</ele>
<time>2020-09-11T16:43:41Z</time>
</trkpt>
<trkpt lat="47.471771" lon="10.934215">
<ele>797.865</ele>
<time>2020-09-11T16:43:42Z</time>
</trkpt>
<trkpt lat="47.471733" lon="10.934155">
<ele>797.865</ele>
<time>2020-09-11T16:43:43Z</time>
</trkpt>
<trkpt lat="47.471695" lon="10.9341">
<ele>797.865</ele>
<time>2020-09-11T16:43:44Z</time>
</trkpt>
<trkpt lat="47.471661" lon="10.934052">
<ele>797.865</ele>
<time>2020-09-11T16:43:45Z</time>
</trkpt>
<trkpt lat="47.471626" lon="10.934003">
<ele>797.865</ele>
<time>2020-09-11T16:43:46Z</time>
</trkpt>
<trkpt lat="47.471592" lon="10.933962">
<ele>797.865</ele>
<time>2020-09-11T16:43:47Z</time>
</trkpt>
<trkpt lat="47.471558" lon="10.933918">
<ele>798.078</ele>
<time>2020-09-11T16:43:48Z</time>
</trkpt>
<trkpt lat="47.471523" lon="10.933873">
<ele>798.279</ele>
<time>2020-09-11T16:43:49Z</time>
</trkpt>
<trkpt lat="47.471489" lon="10.93383">
<ele>798.449</ele>
<time>2020-09-11T16:43:50Z</time>
</trkpt>
<trkpt lat="47.471451" lon="10.933791">
<ele>798.584</ele>
<time>2020-09-11T16:43:51Z</time>
</trkpt>
<trkpt lat="47.471405" lon="10.933759">
<ele>798.695</ele>
<time>2020-09-11T16:43:52Z</time>
</trkpt>
<trkpt lat="47.471359" lon="10.933726">
<ele>798.778</ele>
<time>2020-09-11T16:43:53Z</time>
</trkpt>
<trkpt lat="47.471306" lon="10.933699">
<ele>798.827</ele>
<time>2020-09-11T16:43:54Z</time>
</trkpt>
<trkpt lat="47.471264" lon="10.933661">
<ele>798.852</ele>
<time>2020-09-11T16:43:55Z</time>
</trkpt>
<trkpt lat="47.47123" lon="10.933608">
<ele>798.852</ele>
<time>2020-09-11T16:43:56Z</time>
</trkpt>
<trkpt lat="47.47121" lon="10.933537">
<ele>798.852</ele>
<time>2020-09-11T16:43:57Z</time>
</trkpt>
<trkpt lat="47.471203" lon="10.933455">
<ele>798.852</ele>
<time>2020-09-11T16:43:58Z</time>
</trkpt>
<trkpt lat="47.471199" lon="10.933372">
<ele>798.852</ele>
<time>2020-09-11T16:43:59Z</time>
</trkpt>
<trkpt lat="47.471191" lon="10.933293">
<ele>798.852</ele>
<time>2020-09-11T16:44:00Z</time>
</trkpt>
<trkpt lat="47.471188" lon="10.933221">
<ele>798.852</ele>
<time>2020-09-11T16:44:01Z</time>
</trkpt>
<trkpt lat="47.471172" lon="10.933153">
<ele>798.852</ele>
<time>2020-09-11T16:44:02Z</time>
</trkpt>
<trkpt lat="47.471157" lon="10.933088">
<ele>798.852</ele>
<time>2020-09-11T16:44:03Z</time>
</trkpt>
<trkpt lat="47.471138" lon="10.933023">
<ele>799.107</ele>
<time>2020-09-11T16:44:04Z</time>
</trkpt>
<trkpt lat="47.471104" lon="10.932965">
<ele>799.306</ele>
<time>2020-09-11T16:44:05Z</time>
</trkpt>
<trkpt lat="47.471062" lon="10.932915">
<ele>799.461</ele>
<time>2020-09-11T16:44:06Z</time>
</trkpt>
<trkpt lat="47.471008" lon="10.932865">
<ele>799.585</ele>
<time>2020-09-11T16:44:07Z</time>
</trkpt>
<trkpt lat="47.47097" lon="10.932813">
<ele>799.672</ele>
<time>2020-09-11T16:44:08Z</time>
</trkpt>
<trkpt lat="47.470924" lon="10.93277">
<ele>799.761</ele>
<time>2020-09-11T16:44:09Z</time>
</trkpt>
<trkpt lat="47.470879" lon="10.93272">
<ele>799.815</ele>
<time>2020-09-11T16:44:10Z</time>
</trkpt>
<trkpt lat="47.47084" lon="10.932667">
<ele>799.839</ele>
<time>2020-09-11T16:44:11Z</time>
</trkpt>
<trkpt lat="47.470802" lon="10.93261">
<ele>799.839</ele>
<time>2020-09-11T16:44:12Z</time>
</trkpt>
<trkpt lat="47.470776" lon="10.932549">
<ele>799.839</ele>
<time>2020-09-11T16:44:13Z</time>
</trkpt>
<trkpt lat="47.470749" lon="10.932487">
<ele>799.839</ele>
<time>2020-09-11T16:44:14Z</time>
</trkpt>
<trkpt lat="47.470715" lon="10.932423">
<ele>799.839</ele>
<time>2020-09-11T16:44:15Z</time>
</trkpt>
<trkpt lat="47.470684" lon="10.932358">
<ele>799.839</ele>
<time>2020-09-11T16:44:16Z</time>
</trkpt>
<trkpt lat="47.470657" lon="10.932295">
<ele>799.839</ele>
<time>2020-09-11T16:44:17Z</time>
</trkpt>
<trkpt lat="47.470634" lon="10.932232">
<ele>799.839</ele>
<time>2020-09-11T16:44:18Z</time>
</trkpt>
<trkpt lat="47.470612" lon="10.932161">
<ele>799.839</ele>
<time>2020-09-11T16:44:19Z</time>
</trkpt>
<trkpt lat="47.470592" lon="10.932088">
<ele>799.839</ele>
<time>2020-09-11T16:44:20Z</time>
</trkpt>
<trkpt lat="47.470581" lon="10.932014">
<ele>799.839</ele>
<time>2020-09-11T16:44:21Z</time>
</trkpt>
<trkpt lat="47.47057" lon="10.931938">
<ele>799.839</ele>
<time>2020-09-11T16:44:22Z</time>
</trkpt>
<trkpt lat="47.470551" lon="10.931865">
<ele>800.083</ele>
<time>2020-09-11T16:44:23Z</time>
</trkpt>
<trkpt lat="47.470539" lon="10.931798">
<ele>800.272</ele>
<time>2020-09-11T16:44:24Z</time>
</trkpt>
<trkpt lat="47.47052" lon="10.931729">
<ele>800.42</ele>
<time>2020-09-11T16:44:25Z</time>
</trkpt>
<trkpt lat="47.470497" lon="10.931662">
<ele>800.527</ele>
<time>2020-09-11T16:44:26Z</time>
</trkpt>
<trkpt lat="47.47047" lon="10.931597">
<ele>800.604</ele>
<time>2020-09-11T16:44:27Z</time>
</trkpt>
<trkpt lat="47.47044" lon="10.931532">
<ele>800.661</ele>
<time>2020-09-11T16:44:28Z</time>
</trkpt>
<trkpt lat="47.470402" lon="10.93147">
<ele>800.712</ele>
<time>2020-09-11T16:44:29Z</time>
</trkpt>
<trkpt lat="47.470364" lon="10.931411">
<ele>800.737</ele>
<time>2020-09-11T16:44:30Z</time>
</trkpt>
<trkpt lat="47.470325" lon="10.931356">
<ele>800.737</ele>
<time>2020-09-11T16:44:31Z</time>
</trkpt>
<trkpt lat="47.470284" lon="10.931306">
<ele>800.737</ele>
<time>2020-09-11T16:44:32Z</time>
</trkpt>
<trkpt lat="47.470242" lon="10.93126">
<ele>800.737</ele>
<time>2020-09-11T16:44:33Z</time>
</trkpt>
<trkpt lat="47.470192" lon="10.931215">
<ele>800.737</ele>
<time>2020-09-11T16:44:34Z</time>
</trkpt>
<trkpt lat="47.47015" lon="10.931176">
<ele>800.737</ele>
<time>2020-09-11T16:44:35Z</time>
</trkpt>
<trkpt lat="47.470104" lon="10.931147">
<ele>800.737</ele>
<time>2020-09-11T16:44:36Z</time>
</trkpt>
<trkpt lat="47.470051" lon="10.931118">
<ele>800.976</ele>
<time>2020-09-11T16:44:37Z</time>
</trkpt>
<trkpt lat="47.469997" lon="10.931088">
<ele>801.146</ele>
<time>2020-09-11T16:44:38Z</time>
</trkpt>
<trkpt lat="47.469948" lon="10.931061">
<ele>801.324</ele>
<time>2020-09-11T16:44:39Z</time>
</trkpt>
<trkpt lat="47.469898" lon="10.931033">
<ele>801.465</ele>
<time>2020-09-11T16:44:40Z</time>
</trkpt>
<trkpt lat="47.469849" lon="10.931005">
<ele>801.573</ele>
<time>2020-09-11T16:44:41Z</time>
</trkpt>
<trkpt lat="47.469803" lon="10.930975">
<ele>801.651</ele>
<time>2020-09-11T16:44:42Z</time>
</trkpt>
<trkpt lat="47.469749" lon="10.930943">
<ele>801.701</ele>
<time>2020-09-11T16:44:43Z</time>
</trkpt>
<trkpt lat="47.469704" lon="10.930905">
<ele>801.725</ele>
<time>2020-09-11T16:44:44Z</time>
</trkpt>
<trkpt lat="47.469666" lon="10.930863">
<ele>801.725</ele>
<time>2020-09-11T16:44:45Z</time>
</trkpt>
<trkpt lat="47.469627" lon="10.93082">
<ele>801.725</ele>
<time>2020-09-11T16:44:46Z</time>
</trkpt>
<trkpt lat="47.469589" lon="10.930772">
<ele>801.725</ele>
<time>2020-09-11T16:44:47Z</time>
</trkpt>
<trkpt lat="47.469551" lon="10.930719">
<ele>801.725</ele>
<time>2020-09-11T16:44:48Z</time>
</trkpt>
<trkpt lat="47.469509" lon="10.930667">
<ele>801.725</ele>
<time>2020-09-11T16:44:49Z</time>
</trkpt>
<trkpt lat="47.469475" lon="10.930612">
<ele>801.725</ele>
<time>2020-09-11T16:44:50Z</time>
</trkpt>
<trkpt lat="47.46944" lon="10.930553">
<ele>801.725</ele>
<time>2020-09-11T16:44:51Z</time>
</trkpt>
<trkpt lat="47.46941" lon="10.930487">
<ele>801.725</ele>
<time>2020-09-11T16:44:52Z</time>
</trkpt>
<trkpt lat="47.469395" lon="10.930417">
<ele>801.725</ele>
<time>2020-09-11T16:44:53Z</time>
</trkpt>
<trkpt lat="47.469379" lon="10.930345">
<ele>801.725</ele>
<time>2020-09-11T16:44:54Z</time>
</trkpt>
<trkpt lat="47.46936" lon="10.930275">
<ele>801.725</ele>
<time>2020-09-11T16:44:55Z</time>
</trkpt>
<trkpt lat="47.469345" lon="10.930208">
<ele>801.725</ele>
<time>2020-09-11T16:44:56Z</time>
</trkpt>
<trkpt lat="47.469318" lon="10.930145">
<ele>801.725</ele>
<time>2020-09-11T16:44:57Z</time>
</trkpt>
<trkpt lat="47.469292" lon="10.930083">
<ele>801.725</ele>
<time>2020-09-11T16:44:58Z</time>
</trkpt>
<trkpt lat="47.469261" lon="10.930026">
<ele>801.725</ele>
<time>2020-09-11T16:44:59Z</time>
</trkpt>
<trkpt lat="47.469223" lon="10.929974">
<ele>801.725</ele>
<time>2020-09-11T16:45:00Z</time>
</trkpt>
<trkpt lat="47.469181" lon="10.929928">
<ele>802.012</ele>
<time>2020-09-11T16:45:01Z</time>
</trkpt>
<trkpt lat="47.469135" lon="10.92989">
<ele>802.236</ele>
<time>2020-09-11T16:45:02Z</time>
</trkpt>
<trkpt lat="47.469086" lon="10.92986">
<ele>802.406</ele>
<time>2020-09-11T16:45:03Z</time>
</trkpt>
<trkpt lat="47.469036" lon="10.929833">
<ele>802.531</ele>
<time>2020-09-11T16:45:04Z</time>
</trkpt>
<trkpt lat="47.468987" lon="10.929811">
<ele>802.614</ele>
<time>2020-09-11T16:45:05Z</time>
</trkpt>
<trkpt lat="47.468937" lon="10.929789">
<ele>802.666</ele>
<time>2020-09-11T16:45:06Z</time>
</trkpt>
<trkpt lat="47.468891" lon="10.929757">
<ele>802.69</ele>
<time>2020-09-11T16:45:07Z</time>
</trkpt>
<trkpt lat="47.468849" lon="10.929716">
<ele>802.712</ele>
<time>2020-09-11T16:45:08Z</time>
</trkpt>
<trkpt lat="47.4688" lon="10.929671">
<ele>802.712</ele>
<time>2020-09-11T16:45:09Z</time>
</trkpt>
<trkpt lat="47.468758" lon="10.929626">
<ele>802.712</ele>
<time>2020-09-11T16:45:10Z</time>
</trkpt>
<trkpt lat="47.468712" lon="10.929584">
<ele>802.712</ele>
<time>2020-09-11T16:45:11Z</time>
</trkpt>
<trkpt lat="47.468666" lon="10.929552">
<ele>802.712</ele>
<time>2020-09-11T16:45:12Z</time>
</trkpt>
<trkpt lat="47.468624" lon="10.929531">
<ele>802.712</ele>
<time>2020-09-11T16:45:13Z</time>
</trkpt>
<trkpt lat="47.468575" lon="10.929527">
<ele>802.712</ele>
<time>2020-09-11T16:45:14Z</time>
</trkpt>
<trkpt lat="47.468525" lon="10.929522">
<ele>802.712</ele>
<time>2020-09-11T16:45:15Z</time>
</trkpt>
<trkpt lat="47.468472" lon="10.92951">
<ele>802.977</ele>
<time>2020-09-11T16:45:16Z</time>
</trkpt>
<trkpt lat="47.46843" lon="10.929488">
<ele>803.187</ele>
<time>2020-09-11T16:45:17Z</time>
</trkpt>
<trkpt lat="47.468376" lon="10.929461">
<ele>803.336</ele>
<time>2020-09-11T16:45:18Z</time>
</trkpt>
<trkpt lat="47.468334" lon="10.929427">
<ele>803.495</ele>
<time>2020-09-11T16:45:19Z</time>
</trkpt>
<trkpt lat="47.468288" lon="10.929389">
<ele>803.623</ele>
<time>2020-09-11T16:45:20Z</time>
</trkpt>
<trkpt lat="47.468246" lon="10.929347">
<ele>803.712</ele>
<time>2020-09-11T16:45:21Z</time>
</trkpt>
<trkpt lat="47.468208" lon="10.9293">
<ele>803.765</ele>
<time>2020-09-11T16:45:22Z</time>
</trkpt>
<trkpt lat="47.468166" lon="10.929249">
<ele>803.79</ele>
<time>2020-09-11T16:45:23Z</time>
</trkpt>
<trkpt lat="47.468132" lon="10.929194">
<ele>803.79</ele>
<time>2020-09-11T16:45:24Z</time>
</trkpt>
<trkpt lat="47.468086" lon="10.92914">
<ele>803.79</ele>
<time>2020-09-11T16:45:25Z</time>
</trkpt>
<trkpt lat="47.468052" lon="10.929085">
<ele>803.79</ele>
<time>2020-09-11T16:45:26Z</time>
</trkpt>
<trkpt lat="47.46801" lon="10.929039">
<ele>803.79</ele>
<time>2020-09-11T16:45:27Z</time>
</trkpt>
<trkpt lat="47.46796" lon="10.92899">
<ele>803.79</ele>
<time>2020-09-11T16:45:28Z</time>
</trkpt>
<trkpt lat="47.467918" lon="10.928943">
<ele>803.79</ele>
<time>2020-09-11T16:45:29Z</time>
</trkpt>
<trkpt lat="47.467873" lon="10.928897">
<ele>803.79</ele>
<time>2020-09-11T16:45:30Z</time>
</trkpt>
<trkpt lat="47.467827" lon="10.928848">
<ele>804.077</ele>
<time>2020-09-11T16:45:31Z</time>
</trkpt>
<trkpt lat="47.467785" lon="10.928806">
<ele>804.299</ele>
<time>2020-09-11T16:45:32Z</time>
</trkpt>
<trkpt lat="47.467747" lon="10.928768">
<ele>804.463</ele>
<time>2020-09-11T16:45:33Z</time>
</trkpt>
<trkpt lat="47.467701" lon="10.928729">
<ele>804.588</ele>
<time>2020-09-11T16:45:34Z</time>
</trkpt>
<trkpt lat="47.467655" lon="10.928689">
<ele>804.675</ele>
<time>2020-09-11T16:45:35Z</time>
</trkpt>
<trkpt lat="47.467609" lon="10.928643">
<ele>804.728</ele>
<time>2020-09-11T16:45:36Z</time>
</trkpt>
<trkpt lat="47.46756" lon="10.928601">
<ele>804.754</ele>
<time>2020-09-11T16:45:37Z</time>
</trkpt>
<trkpt lat="47.467514" lon="10.928561">
<ele>804.778</ele>
<time>2020-09-11T16:45:38Z</time>
</trkpt>
<trkpt lat="47.467464" lon="10.92852">
<ele>805</ele>
<time>2020-09-11T16:45:39Z</time>
</trkpt>
<trkpt lat="47.467415" lon="10.928478">
<ele>805.189</ele>
<time>2020-09-11T16:45:40Z</time>
</trkpt>
<trkpt lat="47.467361" lon="10.928444">
<ele>805.342</ele>
<time>2020-09-11T16:45:41Z</time>
</trkpt>
<trkpt lat="47.467308" lon="10.928411">
<ele>805.458</ele>
<time>2020-09-11T16:45:42Z</time>
</trkpt>
<trkpt lat="47.467255" lon="10.928379">
<ele>805.548</ele>
<time>2020-09-11T16:45:43Z</time>
</trkpt>
<trkpt lat="47.467201" lon="10.928349">
<ele>805.613</ele>
<time>2020-09-11T16:45:44Z</time>
</trkpt>
<trkpt lat="47.467159" lon="10.92832">
<ele>805.655</ele>
<time>2020-09-11T16:45:45Z</time>
</trkpt>
<trkpt lat="47.467113" lon="10.928278">
<ele>805.676</ele>
<time>2020-09-11T16:45:46Z</time>
</trkpt>
<trkpt lat="47.467083" lon="10.928225">
<ele>805.676</ele>
<time>2020-09-11T16:45:47Z</time>
</trkpt>
<trkpt lat="47.467064" lon="10.928162">
<ele>805.676</ele>
<time>2020-09-11T16:45:48Z</time>
</trkpt>
<trkpt lat="47.46706" lon="10.928094">
<ele>805.676</ele>
<time>2020-09-11T16:45:49Z</time>
</trkpt>
<trkpt lat="47.467056" lon="10.928021">
<ele>805.676</ele>
<time>2020-09-11T16:45:50Z</time>
</trkpt>
<trkpt lat="47.467056" lon="10.927958">
<ele>805.676</ele>
<time>2020-09-11T16:45:51Z</time>
</trkpt>
<trkpt lat="47.467052" lon="10.927894">
<ele>805.676</ele>
<time>2020-09-11T16:45:52Z</time>
</trkpt>
<trkpt lat="47.467041" lon="10.927828">
<ele>805.676</ele>
<time>2020-09-11T16:45:53Z</time>
</trkpt>
<trkpt lat="47.467026" lon="10.927761">
<ele>805.676</ele>
<time>2020-09-11T16:45:54Z</time>
</trkpt>
<trkpt lat="47.466999" lon="10.927696">
<ele>805.676</ele>
<time>2020-09-11T16:45:55Z</time>
</trkpt>
<trkpt lat="47.466972" lon="10.927629">
<ele>805.676</ele>
<time>2020-09-11T16:45:56Z</time>
</trkpt>
<trkpt lat="47.466949" lon="10.927562">
<ele>805.676</ele>
<time>2020-09-11T16:45:57Z</time>
</trkpt>
<trkpt lat="47.466923" lon="10.92749">
<ele>805.902</ele>
<time>2020-09-11T16:45:58Z</time>
</trkpt>
<trkpt lat="47.4669" lon="10.92742">
<ele>806.12</ele>
<time>2020-09-11T16:45:59Z</time>
</trkpt>
<trkpt lat="47.466869" lon="10.927353">
<ele>806.29</ele>
<time>2020-09-11T16:46:00Z</time>
</trkpt>
<trkpt lat="47.466835" lon="10.927294">
<ele>806.423</ele>
<time>2020-09-11T16:46:01Z</time>
</trkpt>
<trkpt lat="47.466793" lon="10.927238">
<ele>806.521</ele>
<time>2020-09-11T16:46:02Z</time>
</trkpt>
<trkpt lat="47.466751" lon="10.927189">
<ele>806.595</ele>
<time>2020-09-11T16:46:03Z</time>
</trkpt>
<trkpt lat="47.466705" lon="10.92714">
<ele>806.641</ele>
<time>2020-09-11T16:46:04Z</time>
</trkpt>
<trkpt lat="47.46666" lon="10.927089">
<ele>806.664</ele>
<time>2020-09-11T16:46:05Z</time>
</trkpt>
<trkpt lat="47.466618" lon="10.927034">
<ele>806.912</ele>
<time>2020-09-11T16:46:06Z</time>
</trkpt>
<trkpt lat="47.466576" lon="10.92698">
<ele>807.111</ele>
<time>2020-09-11T16:46:07Z</time>
</trkpt>
<trkpt lat="47.46653" lon="10.926927">
<ele>807.245</ele>
<time>2020-09-11T16:46:08Z</time>
</trkpt>
<trkpt lat="47.466488" lon="10.926871">
<ele>807.39</ele>
<time>2020-09-11T16:46:09Z</time>
</trkpt>
<trkpt lat="47.46645" lon="10.926815">
<ele>807.499</ele>
<time>2020-09-11T16:46:10Z</time>
</trkpt>
<trkpt lat="47.466412" lon="10.926758">
<ele>807.577</ele>
<time>2020-09-11T16:46:11Z</time>
</trkpt>
<trkpt lat="47.466377" lon="10.926701">
<ele>807.628</ele>
<time>2020-09-11T16:46:12Z</time>
</trkpt>
<trkpt lat="47.466351" lon="10.926637">
<ele>807.652</ele>
<time>2020-09-11T16:46:13Z</time>
</trkpt>
<trkpt lat="47.466328" lon="10.926569">
<ele>807.652</ele>
<time>2020-09-11T16:46:14Z</time>
</trkpt>
<trkpt lat="47.466312" lon="10.926498">
<ele>807.652</ele>
<time>2020-09-11T16:46:15Z</time>
</trkpt>
<trkpt lat="47.46629" lon="10.926427">
<ele>807.652</ele>
<time>2020-09-11T16:46:16Z</time>
</trkpt>
<trkpt lat="47.466274" lon="10.926357">
<ele>807.652</ele>
<time>2020-09-11T16:46:17Z</time>
</trkpt>
<trkpt lat="47.466248" lon="10.926287">
<ele>807.652</ele>
<time>2020-09-11T16:46:18Z</time>
</trkpt>
<trkpt lat="47.466225" lon="10.926219">
<ele>807.652</ele>
<time>2020-09-11T16:46:19Z</time>
</trkpt>
<trkpt lat="47.466202" lon="10.92615">
<ele>807.652</ele>
<time>2020-09-11T16:46:20Z</time>
</trkpt>
<trkpt lat="47.466179" lon="10.926084">
<ele>807.652</ele>
<time>2020-09-11T16:46:21Z</time>
</trkpt>
<trkpt lat="47.466148" lon="10.926023">
<ele>807.98</ele>
<time>2020-09-11T16:46:22Z</time>
</trkpt>
<trkpt lat="47.466118" lon="10.925965">
<ele>808.232</ele>
<time>2020-09-11T16:46:23Z</time>
</trkpt>
<trkpt lat="47.46608" lon="10.925909">
<ele>808.428</ele>
<time>2020-09-11T16:46:24Z</time>
</trkpt>
<trkpt lat="47.466042" lon="10.925852">
<ele>808.543</ele>
<time>2020-09-11T16:46:25Z</time>
</trkpt>
<trkpt lat="47.466" lon="10.925796">
<ele>808.883</ele>
<time>2020-09-11T16:46:26Z</time>
</trkpt>
<trkpt lat="47.465954" lon="10.925743">
<ele>809.135</ele>
<time>2020-09-11T16:46:27Z</time>
</trkpt>
<trkpt lat="47.465916" lon="10.9257">
<ele>809.317</ele>
<time>2020-09-11T16:46:28Z</time>
</trkpt>
<trkpt lat="47.465878" lon="10.925652">
<ele>809.482</ele>
<time>2020-09-11T16:46:29Z</time>
</trkpt>
<trkpt lat="47.465843" lon="10.925601">
<ele>809.582</ele>
<time>2020-09-11T16:46:30Z</time>
</trkpt>
<trkpt lat="47.465813" lon="10.925549">
<ele>809.651</ele>
<time>2020-09-11T16:46:31Z</time>
</trkpt>
<trkpt lat="47.46579" lon="10.925494">
<ele>809.694</ele>
<time>2020-09-11T16:46:32Z</time>
</trkpt>
<trkpt lat="47.465767" lon="10.925438">
<ele>809.968</ele>
<time>2020-09-11T16:46:33Z</time>
</trkpt>
<trkpt lat="47.465748" lon="10.92538">
<ele>810.22</ele>
<time>2020-09-11T16:46:34Z</time>
</trkpt>
<trkpt lat="47.465729" lon="10.92532">
<ele>810.396</ele>
<time>2020-09-11T16:46:35Z</time>
</trkpt>
<trkpt lat="47.46571" lon="10.925265">
<ele>810.533</ele>
<time>2020-09-11T16:46:36Z</time>
</trkpt>
<trkpt lat="47.465691" lon="10.925205">
<ele>810.63</ele>
<time>2020-09-11T16:46:37Z</time>
</trkpt>
<trkpt lat="47.46566" lon="10.925148">
<ele>810.703</ele>
<time>2020-09-11T16:46:38Z</time>
</trkpt>
<trkpt lat="47.465633" lon="10.925092">
<ele>810.767</ele>
<time>2020-09-11T16:46:39Z</time>
</trkpt>
<trkpt lat="47.465607" lon="10.925034">
<ele>810.797</ele>
<time>2020-09-11T16:46:40Z</time>
</trkpt>
<trkpt lat="47.46558" lon="10.924974">
<ele>810.797</ele>
<time>2020-09-11T16:46:41Z</time>
</trkpt>
<trkpt lat="47.465553" lon="10.92492">
<ele>810.797</ele>
<time>2020-09-11T16:46:42Z</time>
</trkpt>
<trkpt lat="47.46553" lon="10.92486">
<ele>810.797</ele>
<time>2020-09-11T16:46:43Z</time>
</trkpt>
<trkpt lat="47.465511" lon="10.9248">
<ele>811.156</ele>
<time>2020-09-11T16:46:44Z</time>
</trkpt>
<trkpt lat="47.465496" lon="10.924745">
<ele>811.429</ele>
<time>2020-09-11T16:46:45Z</time>
</trkpt>
<trkpt lat="47.465477" lon="10.924693">
<ele>811.635</ele>
<time>2020-09-11T16:46:46Z</time>
</trkpt>
<trkpt lat="47.465466" lon="10.92465">
<ele>811.795</ele>
<time>2020-09-11T16:46:47Z</time>
</trkpt>
<trkpt lat="47.465454" lon="10.924605">
<ele>811.909</ele>
<time>2020-09-11T16:46:48Z</time>
</trkpt>
<trkpt lat="47.465439" lon="10.924557">
<ele>812.27</ele>
<time>2020-09-11T16:46:49Z</time>
</trkpt>
<trkpt lat="47.46542" lon="10.924507">
<ele>812.561</ele>
<time>2020-09-11T16:46:50Z</time>
</trkpt>
<trkpt lat="47.465401" lon="10.924453">
<ele>812.749</ele>
<time>2020-09-11T16:46:51Z</time>
</trkpt>
<trkpt lat="47.465393" lon="10.924402">
<ele>813.127</ele>
<time>2020-09-11T16:46:52Z</time>
</trkpt>
<trkpt lat="47.465378" lon="10.924346">
<ele>813.448</ele>
<time>2020-09-11T16:46:53Z</time>
</trkpt>
<trkpt lat="47.465363" lon="10.924296">
<ele>813.7</ele>
<time>2020-09-11T16:46:54Z</time>
</trkpt>
<trkpt lat="47.465347" lon="10.92425">
<ele>813.885</ele>
<time>2020-09-11T16:46:55Z</time>
</trkpt>
<trkpt lat="47.465328" lon="10.924208">
<ele>813.998</ele>
<time>2020-09-11T16:46:56Z</time>
</trkpt>
<trkpt lat="47.465305" lon="10.924166">
<ele>814.049</ele>
<time>2020-09-11T16:46:57Z</time>
</trkpt>
<trkpt lat="47.465294" lon="10.92412">
<ele>814.312</ele>
<time>2020-09-11T16:46:58Z</time>
</trkpt>
<trkpt lat="47.465271" lon="10.924076">
<ele>814.542</ele>
<time>2020-09-11T16:46:59Z</time>
</trkpt>
<trkpt lat="47.465248" lon="10.924036">
<ele>814.714</ele>
<time>2020-09-11T16:47:00Z</time>
</trkpt>
<trkpt lat="47.465218" lon="10.923992">
<ele>814.852</ele>
<time>2020-09-11T16:47:01Z</time>
</trkpt>
<trkpt lat="47.465187" lon="10.923944">
<ele>814.964</ele>
<time>2020-09-11T16:47:02Z</time>
</trkpt>
<trkpt lat="47.46516" lon="10.9239">
<ele>815.032</ele>
<time>2020-09-11T16:47:03Z</time>
</trkpt>
<trkpt lat="47.465126" lon="10.92386">
<ele>815.363</ele>
<time>2020-09-11T16:47:04Z</time>
</trkpt>
<trkpt lat="47.465096" lon="10.923814">
<ele>815.614</ele>
<time>2020-09-11T16:47:05Z</time>
</trkpt>
<trkpt lat="47.465069" lon="10.923768">
<ele>815.813</ele>
<time>2020-09-11T16:47:06Z</time>
</trkpt>
<trkpt lat="47.465042" lon="10.923716">
<ele>815.905</ele>
<time>2020-09-11T16:47:07Z</time>
</trkpt>
<trkpt lat="47.465012" lon="10.923676">
<ele>816.239</ele>
<time>2020-09-11T16:47:08Z</time>
</trkpt>
<trkpt lat="47.464981" lon="10.923645">
<ele>816.525</ele>
<time>2020-09-11T16:47:09Z</time>
</trkpt>
<trkpt lat="47.464954" lon="10.923616">
<ele>816.751</ele>
<time>2020-09-11T16:47:10Z</time>
</trkpt>
<trkpt lat="47.464924" lon="10.923602">
<ele>816.92</ele>
<time>2020-09-11T16:47:11Z</time>
</trkpt>
<trkpt lat="47.464901" lon="10.923579">
<ele>817.021</ele>
<time>2020-09-11T16:47:12Z</time>
</trkpt>
<trkpt lat="47.464878" lon="10.923556">
<ele>817.101</ele>
<time>2020-09-11T16:47:13Z</time>
</trkpt>
<trkpt lat="47.464844" lon="10.923537">
<ele>817.153</ele>
<time>2020-09-11T16:47:14Z</time>
</trkpt>
<trkpt lat="47.464813" lon="10.923512">
<ele>817.179</ele>
<time>2020-09-11T16:47:15Z</time>
</trkpt>
<trkpt lat="47.464783" lon="10.923476">
<ele>817.179</ele>
<time>2020-09-11T16:47:16Z</time>
</trkpt>
<trkpt lat="47.464748" lon="10.923437">
<ele>817.179</ele>
<time>2020-09-11T16:47:17Z</time>
</trkpt>
<trkpt lat="47.464714" lon="10.923402">
<ele>817.179</ele>
<time>2020-09-11T16:47:18Z</time>
</trkpt>
<trkpt lat="47.464676" lon="10.923362">
<ele>817.42</ele>
<time>2020-09-11T16:47:19Z</time>
</trkpt>
<trkpt lat="47.464638" lon="10.923322">
<ele>817.615</ele>
<time>2020-09-11T16:47:20Z</time>
</trkpt>
<trkpt lat="47.464607" lon="10.92328">
<ele>817.762</ele>
<time>2020-09-11T16:47:21Z</time>
</trkpt>
<trkpt lat="47.464584" lon="10.92324">
<ele>817.871</ele>
<time>2020-09-11T16:47:22Z</time>
</trkpt>
<trkpt lat="47.464565" lon="10.923196">
<ele>817.957</ele>
<time>2020-09-11T16:47:23Z</time>
</trkpt>
<trkpt lat="47.464542" lon="10.923157">
<ele>818.017</ele>
<time>2020-09-11T16:47:24Z</time>
</trkpt>
<trkpt lat="47.464516" lon="10.923114">
<ele>818.057</ele>
<time>2020-09-11T16:47:25Z</time>
</trkpt>
<trkpt lat="47.464474" lon="10.92307">
<ele>818.079</ele>
<time>2020-09-11T16:47:26Z</time>
</trkpt>
<trkpt lat="47.464428" lon="10.923041">
<ele>818.079</ele>
<time>2020-09-11T16:47:27Z</time>
</trkpt>
<trkpt lat="47.464378" lon="10.923024">
<ele>818.079</ele>
<time>2020-09-11T16:47:28Z</time>
</trkpt>
<trkpt lat="47.464329" lon="10.923017">
<ele>818.079</ele>
<time>2020-09-11T16:47:29Z</time>
</trkpt>
<trkpt lat="47.464291" lon="10.923005">
<ele>817.785</ele>
<time>2020-09-11T16:47:30Z</time>
</trkpt>
<trkpt lat="47.464237" lon="10.922995">
<ele>817.577</ele>
<time>2020-09-11T16:47:31Z</time>
</trkpt>
<trkpt lat="47.464176" lon="10.922987">
<ele>817.449</ele>
<time>2020-09-11T16:47:32Z</time>
</trkpt>
<trkpt lat="47.464119" lon="10.922976">
<ele>817.178</ele>
<time>2020-09-11T16:47:33Z</time>
</trkpt>
<trkpt lat="47.464073" lon="10.922963">
<ele>816.994</ele>
<time>2020-09-11T16:47:34Z</time>
</trkpt>
<trkpt lat="47.464027" lon="10.922947">
<ele>816.854</ele>
<time>2020-09-11T16:47:35Z</time>
</trkpt>
<trkpt lat="47.463982" lon="10.92294">
<ele>816.759</ele>
<time>2020-09-11T16:47:36Z</time>
</trkpt>
<trkpt lat="47.46394" lon="10.922942">
<ele>816.908</ele>
<time>2020-09-11T16:47:37Z</time>
</trkpt>
<trkpt lat="47.463902" lon="10.922952">
<ele>816.898</ele>
<time>2020-09-11T16:47:38Z</time>
</trkpt>
<trkpt lat="47.46386" lon="10.922967">
<ele>817.037</ele>
<time>2020-09-11T16:47:39Z</time>
</trkpt>
<trkpt lat="47.463825" lon="10.92298">
<ele>817.395</ele>
<time>2020-09-11T16:47:40Z</time>
</trkpt>
<trkpt lat="47.463783" lon="10.922993">
<ele>817.701</ele>
<time>2020-09-11T16:47:41Z</time>
</trkpt>
<trkpt lat="47.463757" lon="10.923007">
<ele>817.98</ele>
<time>2020-09-11T16:47:42Z</time>
</trkpt>
<trkpt lat="47.463726" lon="10.923017">
<ele>818.188</ele>
<time>2020-09-11T16:47:43Z</time>
</trkpt>
<trkpt lat="47.463692" lon="10.923033">
<ele>818.348</ele>
<time>2020-09-11T16:47:44Z</time>
</trkpt>
<trkpt lat="47.463657" lon="10.923049">
<ele>818.45</ele>
<time>2020-09-11T16:47:45Z</time>
</trkpt>
<trkpt lat="47.463608" lon="10.923075">
<ele>818.523</ele>
<time>2020-09-11T16:47:46Z</time>
</trkpt>
<trkpt lat="47.463554" lon="10.923103">
<ele>818.528</ele>
<time>2020-09-11T16:47:47Z</time>
</trkpt>
<trkpt lat="47.463501" lon="10.923133">
<ele>818.528</ele>
<time>2020-09-11T16:47:48Z</time>
</trkpt>
<trkpt lat="47.463451" lon="10.923159">
<ele>818.528</ele>
<time>2020-09-11T16:47:49Z</time>
</trkpt>
<trkpt lat="47.463402" lon="10.923183">
<ele>818.215</ele>
<time>2020-09-11T16:47:50Z</time>
</trkpt>
<trkpt lat="47.463352" lon="10.923212">
<ele>818.004</ele>
<time>2020-09-11T16:47:51Z</time>
</trkpt>
<trkpt lat="47.463306" lon="10.923253">
<ele>817.861</ele>
<time>2020-09-11T16:47:52Z</time>
</trkpt>
<trkpt lat="47.463276" lon="10.923305">
<ele>817.766</ele>
<time>2020-09-11T16:47:53Z</time>
</trkpt>
<trkpt lat="47.463238" lon="10.923362">
<ele>817.711</ele>
<time>2020-09-11T16:47:54Z</time>
</trkpt>
<trkpt lat="47.463211" lon="10.923407">
<ele>817.409</ele>
<time>2020-09-11T16:47:55Z</time>
</trkpt>
<trkpt lat="47.463165" lon="10.92344">
<ele>817.185</ele>
<time>2020-09-11T16:47:56Z</time>
</trkpt>
<trkpt lat="47.463104" lon="10.923456">
<ele>817.025</ele>
<time>2020-09-11T16:47:57Z</time>
</trkpt>
<trkpt lat="47.46302" lon="10.923462">
<ele>816.921</ele>
<time>2020-09-11T16:47:58Z</time>
</trkpt>
<trkpt lat="47.462955" lon="10.923445">
<ele>816.537</ele>
<time>2020-09-11T16:47:59Z</time>
</trkpt>
<trkpt lat="47.462891" lon="10.923418">
<ele>816.242</ele>
<time>2020-09-11T16:48:00Z</time>
</trkpt>
<trkpt lat="47.462837" lon="10.923395">
<ele>816.013</ele>
<time>2020-09-11T16:48:01Z</time>
</trkpt>
<trkpt lat="47.462791" lon="10.923371">
<ele>815.865</ele>
<time>2020-09-11T16:48:02Z</time>
</trkpt>
<trkpt lat="47.462734" lon="10.923357">
<ele>815.769</ele>
<time>2020-09-11T16:48:03Z</time>
</trkpt>
<trkpt lat="47.462673" lon="10.923345">
<ele>815.71</ele>
<time>2020-09-11T16:48:04Z</time>
</trkpt>
<trkpt lat="47.462627" lon="10.923334">
<ele>815.673</ele>
<time>2020-09-11T16:48:05Z</time>
</trkpt>
<trkpt lat="47.462566" lon="10.923326">
<ele>815.655</ele>
<time>2020-09-11T16:48:06Z</time>
</trkpt>
<trkpt lat="47.462521" lon="10.923315">
<ele>815.88</ele>
<time>2020-09-11T16:48:07Z</time>
</trkpt>
<trkpt lat="47.462467" lon="10.92331">
<ele>816.056</ele>
<time>2020-09-11T16:48:08Z</time>
</trkpt>
<trkpt lat="47.462406" lon="10.923306">
<ele>816.238</ele>
<time>2020-09-11T16:48:09Z</time>
</trkpt>
<trkpt lat="47.462341" lon="10.923305">
<ele>816.382</ele>
<time>2020-09-11T16:48:10Z</time>
</trkpt>
<trkpt lat="47.462276" lon="10.923305">
<ele>816.488</ele>
<time>2020-09-11T16:48:11Z</time>
</trkpt>
<trkpt lat="47.462219" lon="10.923299">
<ele>816.565</ele>
<time>2020-09-11T16:48:12Z</time>
</trkpt>
<trkpt lat="47.462166" lon="10.923288">
<ele>816.612</ele>
<time>2020-09-11T16:48:13Z</time>
</trkpt>
<trkpt lat="47.462105" lon="10.923278">
<ele>816.374</ele>
<time>2020-09-11T16:48:14Z</time>
</trkpt>
<trkpt lat="47.462044" lon="10.923266">
<ele>816.165</ele>
<time>2020-09-11T16:48:15Z</time>
</trkpt>
<trkpt lat="47.461983" lon="10.923252">
<ele>816.014</ele>
<time>2020-09-11T16:48:16Z</time>
</trkpt>
<trkpt lat="47.461922" lon="10.923237">
<ele>815.901</ele>
<time>2020-09-11T16:48:17Z</time>
</trkpt>
<trkpt lat="47.461872" lon="10.923227">
<ele>815.821</ele>
<time>2020-09-11T16:48:18Z</time>
</trkpt>
<trkpt lat="47.461811" lon="10.923225">
<ele>815.734</ele>
<time>2020-09-11T16:48:19Z</time>
</trkpt>
<trkpt lat="47.46175" lon="10.923215">
<ele>815.677</ele>
<time>2020-09-11T16:48:20Z</time>
</trkpt>
<trkpt lat="47.461689" lon="10.923204">
<ele>815.651</ele>
<time>2020-09-11T16:48:21Z</time>
</trkpt>
<trkpt lat="47.461643" lon="10.923194">
<ele>815.651</ele>
<time>2020-09-11T16:48:22Z</time>
</trkpt>
<trkpt lat="47.461582" lon="10.923188">
<ele>815.651</ele>
<time>2020-09-11T16:48:23Z</time>
</trkpt>
<trkpt lat="47.461521" lon="10.923177">
<ele>815.651</ele>
<time>2020-09-11T16:48:24Z</time>
</trkpt>
<trkpt lat="47.461472" lon="10.92314">
<ele>815.651</ele>
<time>2020-09-11T16:48:25Z</time>
</trkpt>
<trkpt lat="47.461433" lon="10.92309">
<ele>815.651</ele>
<time>2020-09-11T16:48:26Z</time>
</trkpt>
<trkpt lat="47.461407" lon="10.923032">
<ele>815.651</ele>
<time>2020-09-11T16:48:27Z</time>
</trkpt>
<trkpt lat="47.461399" lon="10.922976">
<ele>815.651</ele>
<time>2020-09-11T16:48:28Z</time>
</trkpt>
<trkpt lat="47.461391" lon="10.922928">
<ele>815.651</ele>
<time>2020-09-11T16:48:29Z</time>
</trkpt>
<trkpt lat="47.461365" lon="10.922877">
<ele>815.651</ele>
<time>2020-09-11T16:48:30Z</time>
</trkpt>
<trkpt lat="47.461346" lon="10.922818">
<ele>815.651</ele>
<time>2020-09-11T16:48:31Z</time>
</trkpt>
<trkpt lat="47.461323" lon="10.922764">
<ele>815.651</ele>
<time>2020-09-11T16:48:32Z</time>
</trkpt>
<trkpt lat="47.461296" lon="10.922711">
<ele>815.932</ele>
<time>2020-09-11T16:48:33Z</time>
</trkpt>
<trkpt lat="47.461269" lon="10.922649">
<ele>816.168</ele>
<time>2020-09-11T16:48:34Z</time>
</trkpt>
<trkpt lat="47.461243" lon="10.922585">
<ele>816.356</ele>
<time>2020-09-11T16:48:35Z</time>
</trkpt>
<trkpt lat="47.461212" lon="10.922522">
<ele>816.497</ele>
<time>2020-09-11T16:48:36Z</time>
</trkpt>
<trkpt lat="47.461185" lon="10.922461">
<ele>816.59</ele>
<time>2020-09-11T16:48:37Z</time>
</trkpt>
<trkpt lat="47.461155" lon="10.922394">
<ele>816.645</ele>
<time>2020-09-11T16:48:38Z</time>
</trkpt>
<trkpt lat="47.461128" lon="10.922322">
<ele>816.702</ele>
<time>2020-09-11T16:48:39Z</time>
</trkpt>
<trkpt lat="47.461094" lon="10.922254">
<ele>816.73</ele>
<time>2020-09-11T16:48:40Z</time>
</trkpt>
<trkpt lat="47.461071" lon="10.922185">
<ele>816.73</ele>
<time>2020-09-11T16:48:41Z</time>
</trkpt>
<trkpt lat="47.46104" lon="10.922113">
<ele>816.73</ele>
<time>2020-09-11T16:48:42Z</time>
</trkpt>
<trkpt lat="47.461002" lon="10.922042">
<ele>816.73</ele>
<time>2020-09-11T16:48:43Z</time>
</trkpt>
<trkpt lat="47.460968" lon="10.92197">
<ele>816.73</ele>
<time>2020-09-11T16:48:44Z</time>
</trkpt>
<trkpt lat="47.460938" lon="10.9219">
<ele>816.73</ele>
<time>2020-09-11T16:48:45Z</time>
</trkpt>
<trkpt lat="47.460907" lon="10.921834">
<ele>816.73</ele>
<time>2020-09-11T16:48:46Z</time>
</trkpt>
<trkpt lat="47.460869" lon="10.921759">
<ele>816.974</ele>
<time>2020-09-11T16:48:47Z</time>
</trkpt>
<trkpt lat="47.460835" lon="10.921692">
<ele>817.145</ele>
<time>2020-09-11T16:48:48Z</time>
</trkpt>
<trkpt lat="47.460789" lon="10.921625">
<ele>817.324</ele>
<time>2020-09-11T16:48:49Z</time>
</trkpt>
<trkpt lat="47.460739" lon="10.921563">
<ele>817.459</ele>
<time>2020-09-11T16:48:50Z</time>
</trkpt>
<trkpt lat="47.460686" lon="10.921509">
<ele>817.567</ele>
<time>2020-09-11T16:48:51Z</time>
</trkpt>
<trkpt lat="47.460632" lon="10.92146">
<ele>817.646</ele>
<time>2020-09-11T16:48:52Z</time>
</trkpt>
<trkpt lat="47.460579" lon="10.921407">
<ele>817.697</ele>
<time>2020-09-11T16:48:53Z</time>
</trkpt>
<trkpt lat="47.460533" lon="10.921353">
<ele>817.719</ele>
<time>2020-09-11T16:48:54Z</time>
</trkpt>
<trkpt lat="47.46048" lon="10.921302">
<ele>817.719</ele>
<time>2020-09-11T16:48:55Z</time>
</trkpt>
<trkpt lat="47.460434" lon="10.921253">
<ele>817.719</ele>
<time>2020-09-11T16:48:56Z</time>
</trkpt>
<trkpt lat="47.460388" lon="10.921206">
<ele>817.719</ele>
<time>2020-09-11T16:48:57Z</time>
</trkpt>
<trkpt lat="47.460339" lon="10.921155">
<ele>817.719</ele>
<time>2020-09-11T16:48:58Z</time>
</trkpt>
<trkpt lat="47.460285" lon="10.921101">
<ele>817.719</ele>
<time>2020-09-11T16:48:59Z</time>
</trkpt>
<trkpt lat="47.460232" lon="10.921052">
<ele>817.719</ele>
<time>2020-09-11T16:49:00Z</time>
</trkpt>
<trkpt lat="47.460182" lon="10.921013">
<ele>817.719</ele>
<time>2020-09-11T16:49:01Z</time>
</trkpt>
<trkpt lat="47.460129" lon="10.92099">
<ele>817.719</ele>
<time>2020-09-11T16:49:02Z</time>
</trkpt>
<trkpt lat="47.460075" lon="10.920983">
<ele>817.719</ele>
<time>2020-09-11T16:49:03Z</time>
</trkpt>
<trkpt lat="47.460018" lon="10.920987">
<ele>817.719</ele>
<time>2020-09-11T16:49:04Z</time>
</trkpt>
<trkpt lat="47.459957" lon="10.920997">
<ele>817.719</ele>
<time>2020-09-11T16:49:05Z</time>
</trkpt>
<trkpt lat="47.459904" lon="10.921004">
<ele>817.719</ele>
<time>2020-09-11T16:49:06Z</time>
</trkpt>
<trkpt lat="47.459854" lon="10.921013">
<ele>817.931</ele>
<time>2020-09-11T16:49:07Z</time>
</trkpt>
<trkpt lat="47.459801" lon="10.92102">
<ele>818.089</ele>
<time>2020-09-11T16:49:08Z</time>
</trkpt>
<trkpt lat="47.459755" lon="10.921025">
<ele>818.134</ele>
<time>2020-09-11T16:49:09Z</time>
</trkpt>
<trkpt lat="47.459717" lon="10.921034">
<ele>818.002</ele>
<time>2020-09-11T16:49:10Z</time>
</trkpt>
<trkpt lat="47.459663" lon="10.921048">
<ele>817.889</ele>
<time>2020-09-11T16:49:11Z</time>
</trkpt>
<trkpt lat="47.459614" lon="10.921068">
<ele>817.792</ele>
<time>2020-09-11T16:49:12Z</time>
</trkpt>
<trkpt lat="47.459576" lon="10.921088">
<ele>817.708</ele>
<time>2020-09-11T16:49:13Z</time>
</trkpt>
<trkpt lat="47.459538" lon="10.921113">
<ele>817.86</ele>
<time>2020-09-11T16:49:14Z</time>
</trkpt>
<trkpt lat="47.459492" lon="10.921151">
<ele>817.987</ele>
<time>2020-09-11T16:49:15Z</time>
</trkpt>
<trkpt lat="47.459454" lon="10.921175">
<ele>818.104</ele>
<time>2020-09-11T16:49:16Z</time>
</trkpt>
<trkpt lat="47.459415" lon="10.921195">
<ele>818.211</ele>
<time>2020-09-11T16:49:17Z</time>
</trkpt>
<trkpt lat="47.459373" lon="10.921218">
<ele>818.252</ele>
<time>2020-09-11T16:49:18Z</time>
</trkpt>
<trkpt lat="47.459332" lon="10.921247">
<ele>818.358</ele>
<time>2020-09-11T16:49:19Z</time>
</trkpt>
<trkpt lat="47.45929" lon="10.921283">
<ele>818.445</ele>
<time>2020-09-11T16:49:20Z</time>
</trkpt>
<trkpt lat="47.459244" lon="10.921325">
<ele>818.502</ele>
<time>2020-09-11T16:49:21Z</time>
</trkpt>
<trkpt lat="47.459206" lon="10.921362">
<ele>818.797</ele>
<time>2020-09-11T16:49:22Z</time>
</trkpt>
<trkpt lat="47.459164" lon="10.921411">
<ele>819.073</ele>
<time>2020-09-11T16:49:23Z</time>
</trkpt>
<trkpt lat="47.459114" lon="10.921451">
<ele>819.265</ele>
<time>2020-09-11T16:49:24Z</time>
</trkpt>
<trkpt lat="47.459068" lon="10.921493">
<ele>819.389</ele>
<time>2020-09-11T16:49:25Z</time>
</trkpt>
<trkpt lat="47.459026" lon="10.921535">
<ele>819.476</ele>
<time>2020-09-11T16:49:26Z</time>
</trkpt>
<trkpt lat="47.458977" lon="10.921583">
<ele>819.535</ele>
<time>2020-09-11T16:49:27Z</time>
</trkpt>
<trkpt lat="47.458942" lon="10.921622">
<ele>819.579</ele>
<time>2020-09-11T16:49:28Z</time>
</trkpt>
<trkpt lat="47.4589" lon="10.921666">
<ele>819.607</ele>
<time>2020-09-11T16:49:29Z</time>
</trkpt>
<trkpt lat="47.458874" lon="10.921704">
<ele>819.923</ele>
<time>2020-09-11T16:49:30Z</time>
</trkpt>
<trkpt lat="47.458843" lon="10.92174">
<ele>820.155</ele>
<time>2020-09-11T16:49:31Z</time>
</trkpt>
<trkpt lat="47.458817" lon="10.921775">
<ele>820.342</ele>
<time>2020-09-11T16:49:32Z</time>
</trkpt>
<trkpt lat="47.458778" lon="10.921822">
<ele>820.48</ele>
<time>2020-09-11T16:49:33Z</time>
</trkpt>
<trkpt lat="47.458744" lon="10.921864">
<ele>820.586</ele>
<time>2020-09-11T16:49:34Z</time>
</trkpt>
<trkpt lat="47.458698" lon="10.921911">
<ele>820.648</ele>
<time>2020-09-11T16:49:35Z</time>
</trkpt>
<trkpt lat="47.458652" lon="10.92197">
<ele>820.682</ele>
<time>2020-09-11T16:49:36Z</time>
</trkpt>
<trkpt lat="47.458603" lon="10.922027">
<ele>820.687</ele>
<time>2020-09-11T16:49:37Z</time>
</trkpt>
<trkpt lat="47.458565" lon="10.922077">
<ele>820.687</ele>
<time>2020-09-11T16:49:38Z</time>
</trkpt>
<trkpt lat="47.458527" lon="10.922121">
<ele>820.687</ele>
<time>2020-09-11T16:49:39Z</time>
</trkpt>
<trkpt lat="47.458477" lon="10.922178">
<ele>820.687</ele>
<time>2020-09-11T16:49:40Z</time>
</trkpt>
<trkpt lat="47.458427" lon="10.922226">
<ele>820.687</ele>
<time>2020-09-11T16:49:41Z</time>
</trkpt>
<trkpt lat="47.458393" lon="10.922267">
<ele>820.687</ele>
<time>2020-09-11T16:49:42Z</time>
</trkpt>
<trkpt lat="47.458351" lon="10.922307">
<ele>820.687</ele>
<time>2020-09-11T16:49:43Z</time>
</trkpt>
<trkpt lat="47.458313" lon="10.92235">
<ele>820.687</ele>
<time>2020-09-11T16:49:44Z</time>
</trkpt>
<trkpt lat="47.458271" lon="10.922396">
<ele>820.687</ele>
<time>2020-09-11T16:49:45Z</time>
</trkpt>
<trkpt lat="47.458229" lon="10.922435">
<ele>820.687</ele>
<time>2020-09-11T16:49:46Z</time>
</trkpt>
<trkpt lat="47.458195" lon="10.922471">
<ele>820.687</ele>
<time>2020-09-11T16:49:47Z</time>
</trkpt>
<trkpt lat="47.458149" lon="10.92251">
<ele>820.936</ele>
<time>2020-09-11T16:49:48Z</time>
</trkpt>
<trkpt lat="47.458103" lon="10.922548">
<ele>821.187</ele>
<time>2020-09-11T16:49:49Z</time>
</trkpt>
<trkpt lat="47.458069" lon="10.922584">
<ele>821.396</ele>
<time>2020-09-11T16:49:50Z</time>
</trkpt>
<trkpt lat="47.458031" lon="10.922632">
<ele>821.557</ele>
<time>2020-09-11T16:49:51Z</time>
</trkpt>
<trkpt lat="47.457985" lon="10.922697">
<ele>821.681</ele>
<time>2020-09-11T16:49:52Z</time>
</trkpt>
<trkpt lat="47.457939" lon="10.922765">
<ele>821.77</ele>
<time>2020-09-11T16:49:53Z</time>
</trkpt>
<trkpt lat="47.457901" lon="10.922842">
<ele>821.83</ele>
<time>2020-09-11T16:49:54Z</time>
</trkpt>
<trkpt lat="47.457859" lon="10.922917">
<ele>821.856</ele>
<time>2020-09-11T16:49:55Z</time>
</trkpt>
<trkpt lat="47.457817" lon="10.922995">
<ele>822.146</ele>
<time>2020-09-11T16:49:56Z</time>
</trkpt>
<trkpt lat="47.457787" lon="10.923068">
<ele>822.368</ele>
<time>2020-09-11T16:49:57Z</time>
</trkpt>
<trkpt lat="47.457756" lon="10.923139">
<ele>822.515</ele>
<time>2020-09-11T16:49:58Z</time>
</trkpt>
<trkpt lat="47.457722" lon="10.923198">
<ele>822.653</ele>
<time>2020-09-11T16:49:59Z</time>
</trkpt>
<trkpt lat="47.45768" lon="10.923248">
<ele>822.762</ele>
<time>2020-09-11T16:50:00Z</time>
</trkpt>
<trkpt lat="47.457642" lon="10.923292">
<ele>822.85</ele>
<time>2020-09-11T16:50:01Z</time>
</trkpt>
<trkpt lat="47.4576" lon="10.923326">
<ele>822.907</ele>
<time>2020-09-11T16:50:02Z</time>
</trkpt>
<trkpt lat="47.457565" lon="10.923348">
<ele>822.936</ele>
<time>2020-09-11T16:50:03Z</time>
</trkpt>
<trkpt lat="47.457527" lon="10.923359">
<ele>822.936</ele>
<time>2020-09-11T16:50:04Z</time>
</trkpt>
<trkpt lat="47.457493" lon="10.923345">
<ele>822.936</ele>
<time>2020-09-11T16:50:05Z</time>
</trkpt>
<trkpt lat="47.457451" lon="10.923313">
<ele>822.936</ele>
<time>2020-09-11T16:50:06Z</time>
</trkpt>
<trkpt lat="47.457417" lon="10.923273">
<ele>822.647</ele>
<time>2020-09-11T16:50:07Z</time>
</trkpt>
<trkpt lat="47.457382" lon="10.923248">
<ele>822.432</ele>
<time>2020-09-11T16:50:08Z</time>
</trkpt>
<trkpt lat="47.457348" lon="10.923223">
<ele>822.218</ele>
<time>2020-09-11T16:50:09Z</time>
</trkpt>
<trkpt lat="47.457314" lon="10.923213">
<ele>821.781</ele>
<time>2020-09-11T16:50:10Z</time>
</trkpt>
<trkpt lat="47.457279" lon="10.923203">
<ele>821.422</ele>
<time>2020-09-11T16:50:11Z</time>
</trkpt>
<trkpt lat="47.457241" lon="10.923202">
<ele>821.159</ele>
<time>2020-09-11T16:50:12Z</time>
</trkpt>
<trkpt lat="47.457207" lon="10.923196">
<ele>820.967</ele>
<time>2020-09-11T16:50:13Z</time>
</trkpt>
<trkpt lat="47.457161" lon="10.923198">
<ele>820.845</ele>
<time>2020-09-11T16:50:14Z</time>
</trkpt>
<trkpt lat="47.457115" lon="10.923196">
<ele>820.72</ele>
<time>2020-09-11T16:50:15Z</time>
</trkpt>
<trkpt lat="47.457062" lon="10.923198">
<ele>820.692</ele>
<time>2020-09-11T16:50:16Z</time>
</trkpt>
<trkpt lat="47.45702" lon="10.9232">
<ele>820.687</ele>
<time>2020-09-11T16:50:17Z</time>
</trkpt>
<trkpt lat="47.45697" lon="10.923203">
<ele>820.687</ele>
<time>2020-09-11T16:50:18Z</time>
</trkpt>
<trkpt lat="47.456924" lon="10.923208">
<ele>820.687</ele>
<time>2020-09-11T16:50:19Z</time>
</trkpt>
<trkpt lat="47.456879" lon="10.923212">
<ele>820.687</ele>
<time>2020-09-11T16:50:20Z</time>
</trkpt>
<trkpt lat="47.456833" lon="10.923215">
<ele>820.687</ele>
<time>2020-09-11T16:50:21Z</time>
</trkpt>
<trkpt lat="47.456787" lon="10.923217">
<ele>820.964</ele>
<time>2020-09-11T16:50:22Z</time>
</trkpt>
<trkpt lat="47.456738" lon="10.923222">
<ele>821.175</ele>
<time>2020-09-11T16:50:23Z</time>
</trkpt>
<trkpt lat="47.456696" lon="10.923223">
<ele>821.309</ele>
<time>2020-09-11T16:50:24Z</time>
</trkpt>
<trkpt lat="47.456646" lon="10.923225">
<ele>821.724</ele>
<time>2020-09-11T16:50:25Z</time>
</trkpt>
<trkpt lat="47.456596" lon="10.923223">
<ele>822.035</ele>
<time>2020-09-11T16:50:26Z</time>
</trkpt>
<trkpt lat="47.456539" lon="10.923222">
<ele>822.268</ele>
<time>2020-09-11T16:50:27Z</time>
</trkpt>
<trkpt lat="47.456486" lon="10.923223">
<ele>822.435</ele>
<time>2020-09-11T16:50:28Z</time>
</trkpt>
<trkpt lat="47.456436" lon="10.923225">
<ele>822.586</ele>
<time>2020-09-11T16:50:29Z</time>
</trkpt>
<trkpt lat="47.456394" lon="10.923227">
<ele>822.673</ele>
<time>2020-09-11T16:50:30Z</time>
</trkpt>
<trkpt lat="47.456337" lon="10.923242">
<ele>822.729</ele>
<time>2020-09-11T16:50:31Z</time>
</trkpt>
<trkpt lat="47.456284" lon="10.923255">
<ele>822.756</ele>
<time>2020-09-11T16:50:32Z</time>
</trkpt>
<trkpt lat="47.456238" lon="10.923265">
<ele>822.756</ele>
<time>2020-09-11T16:50:33Z</time>
</trkpt>
<trkpt lat="47.456184" lon="10.923278">
<ele>822.756</ele>
<time>2020-09-11T16:50:34Z</time>
</trkpt>
<trkpt lat="47.456135" lon="10.923293">
<ele>822.756</ele>
<time>2020-09-11T16:50:35Z</time>
</trkpt>
<trkpt lat="47.45607" lon="10.923303">
<ele>822.756</ele>
<time>2020-09-11T16:50:36Z</time>
</trkpt>
<trkpt lat="47.456001" lon="10.923306">
<ele>822.756</ele>
<time>2020-09-11T16:50:37Z</time>
</trkpt>
<trkpt lat="47.455929" lon="10.923306">
<ele>822.756</ele>
<time>2020-09-11T16:50:38Z</time>
</trkpt>
<trkpt lat="47.455864" lon="10.923303">
<ele>823.035</ele>
<time>2020-09-11T16:50:39Z</time>
</trkpt>
<trkpt lat="47.455799" lon="10.923301">
<ele>823.267</ele>
<time>2020-09-11T16:50:40Z</time>
</trkpt>
<trkpt lat="47.455742" lon="10.923297">
<ele>823.452</ele>
<time>2020-09-11T16:50:41Z</time>
</trkpt>
<trkpt lat="47.455685" lon="10.923295">
<ele>823.587</ele>
<time>2020-09-11T16:50:42Z</time>
</trkpt>
<trkpt lat="47.455631" lon="10.923293">
<ele>823.685</ele>
<time>2020-09-11T16:50:43Z</time>
</trkpt>
<trkpt lat="47.455585" lon="10.923295">
<ele>823.755</ele>
<time>2020-09-11T16:50:44Z</time>
</trkpt>
<trkpt lat="47.455532" lon="10.923303">
<ele>823.807</ele>
<time>2020-09-11T16:50:45Z</time>
</trkpt>
<trkpt lat="47.455475" lon="10.92332">
<ele>823.835</ele>
<time>2020-09-11T16:50:46Z</time>
</trkpt>
<trkpt lat="47.455421" lon="10.923335">
<ele>823.835</ele>
<time>2020-09-11T16:50:47Z</time>
</trkpt>
<trkpt lat="47.455364" lon="10.923355">
<ele>823.835</ele>
<time>2020-09-11T16:50:48Z</time>
</trkpt>
<trkpt lat="47.455303" lon="10.923382">
<ele>823.835</ele>
<time>2020-09-11T16:50:49Z</time>
</trkpt>
<trkpt lat="47.455246" lon="10.923409">
<ele>823.835</ele>
<time>2020-09-11T16:50:50Z</time>
</trkpt>
<trkpt lat="47.455196" lon="10.923433">
<ele>823.835</ele>
<time>2020-09-11T16:50:51Z</time>
</trkpt>
<trkpt lat="47.455135" lon="10.92346">
<ele>823.835</ele>
<time>2020-09-11T16:50:52Z</time>
</trkpt>
<trkpt lat="47.455074" lon="10.923489">
<ele>823.835</ele>
<time>2020-09-11T16:50:53Z</time>
</trkpt>
<trkpt lat="47.455017" lon="10.923512">
<ele>823.835</ele>
<time>2020-09-11T16:50:54Z</time>
</trkpt>
<trkpt lat="47.454964" lon="10.923532">
<ele>823.835</ele>
<time>2020-09-11T16:50:55Z</time>
</trkpt>
<trkpt lat="47.454903" lon="10.923554">
<ele>823.835</ele>
<time>2020-09-11T16:50:56Z</time>
</trkpt>
<trkpt lat="47.454861" lon="10.923563">
<ele>823.835</ele>
<time>2020-09-11T16:50:57Z</time>
</trkpt>
<trkpt lat="47.454819" lon="10.923569">
<ele>824.03</ele>
<time>2020-09-11T16:50:58Z</time>
</trkpt>
<trkpt lat="47.454777" lon="10.923581">
<ele>824.21</ele>
<time>2020-09-11T16:50:59Z</time>
</trkpt>
<trkpt lat="47.454727" lon="10.923595">
<ele>824.358</ele>
<time>2020-09-11T16:51:00Z</time>
</trkpt>
<trkpt lat="47.454678" lon="10.923611">
<ele>824.481</ele>
<time>2020-09-11T16:51:01Z</time>
</trkpt>
<trkpt lat="47.454628" lon="10.923628">
<ele>824.583</ele>
<time>2020-09-11T16:51:02Z</time>
</trkpt>
<trkpt lat="47.454575" lon="10.92365">
<ele>824.66</ele>
<time>2020-09-11T16:51:03Z</time>
</trkpt>
<trkpt lat="47.454529" lon="10.92367">
<ele>824.708</ele>
<time>2020-09-11T16:51:04Z</time>
</trkpt>
<trkpt lat="47.454479" lon="10.923697">
<ele>824.735</ele>
<time>2020-09-11T16:51:05Z</time>
</trkpt>
<trkpt lat="47.454441" lon="10.923717">
<ele>824.735</ele>
<time>2020-09-11T16:51:06Z</time>
</trkpt>
<trkpt lat="47.454403" lon="10.923735">
<ele>824.735</ele>
<time>2020-09-11T16:51:07Z</time>
</trkpt>
<trkpt lat="47.454353" lon="10.923761">
<ele>824.735</ele>
<time>2020-09-11T16:51:08Z</time>
</trkpt>
<trkpt lat="47.454311" lon="10.923782">
<ele>824.735</ele>
<time>2020-09-11T16:51:09Z</time>
</trkpt>
<trkpt lat="47.45425" lon="10.923795">
<ele>825.025</ele>
<time>2020-09-11T16:51:10Z</time>
</trkpt>
<trkpt lat="47.454205" lon="10.923801">
<ele>825.257</ele>
<time>2020-09-11T16:51:11Z</time>
</trkpt>
<trkpt lat="47.454155" lon="10.923807">
<ele>825.441</ele>
<time>2020-09-11T16:51:12Z</time>
</trkpt>
<trkpt lat="47.454102" lon="10.923814">
<ele>825.561</ele>
<time>2020-09-11T16:51:13Z</time>
</trkpt>
<trkpt lat="47.454056" lon="10.923823">
<ele>825.655</ele>
<time>2020-09-11T16:51:14Z</time>
</trkpt>
<trkpt lat="47.454006" lon="10.923843">
<ele>825.706</ele>
<time>2020-09-11T16:51:15Z</time>
</trkpt>
<trkpt lat="47.453957" lon="10.923881">
<ele>825.721</ele>
<time>2020-09-11T16:51:16Z</time>
</trkpt>
<trkpt lat="47.453907" lon="10.923921">
<ele>825.725</ele>
<time>2020-09-11T16:51:17Z</time>
</trkpt>
<trkpt lat="47.453861" lon="10.923954">
<ele>825.725</ele>
<time>2020-09-11T16:51:18Z</time>
</trkpt>
<trkpt lat="47.453819" lon="10.92398">
<ele>825.725</ele>
<time>2020-09-11T16:51:19Z</time>
</trkpt>
<trkpt lat="47.453762" lon="10.924002">
<ele>825.725</ele>
<time>2020-09-11T16:51:20Z</time>
</trkpt>
<trkpt lat="47.453709" lon="10.924019">
<ele>825.725</ele>
<time>2020-09-11T16:51:21Z</time>
</trkpt>
<trkpt lat="47.453648" lon="10.924038">
<ele>825.725</ele>
<time>2020-09-11T16:51:22Z</time>
</trkpt>
<trkpt lat="47.453602" lon="10.924051">
<ele>825.725</ele>
<time>2020-09-11T16:51:23Z</time>
</trkpt>
<trkpt lat="47.453552" lon="10.924062">
<ele>825.725</ele>
<time>2020-09-11T16:51:24Z</time>
</trkpt>
<trkpt lat="47.453506" lon="10.924067">
<ele>825.999</ele>
<time>2020-09-11T16:51:25Z</time>
</trkpt>
<trkpt lat="47.453461" lon="10.92408">
<ele>826.214</ele>
<time>2020-09-11T16:51:26Z</time>
</trkpt>
<trkpt lat="47.4534" lon="10.924099">
<ele>826.349</ele>
<time>2020-09-11T16:51:27Z</time>
</trkpt>
<trkpt lat="47.453354" lon="10.924109">
<ele>826.689</ele>
<time>2020-09-11T16:51:28Z</time>
</trkpt>
<trkpt lat="47.453304" lon="10.92412">
<ele>827.005</ele>
<time>2020-09-11T16:51:29Z</time>
</trkpt>
<trkpt lat="47.453255" lon="10.924125">
<ele>827.251</ele>
<time>2020-09-11T16:51:30Z</time>
</trkpt>
<trkpt lat="47.453205" lon="10.924133">
<ele>827.435</ele>
<time>2020-09-11T16:51:31Z</time>
</trkpt>
<trkpt lat="47.453159" lon="10.924145">
<ele>827.805</ele>
<time>2020-09-11T16:51:32Z</time>
</trkpt>
<trkpt lat="47.453106" lon="10.924157">
<ele>828.085</ele>
<time>2020-09-11T16:51:33Z</time>
</trkpt>
<trkpt lat="47.453049" lon="10.924155">
<ele>828.253</ele>
<time>2020-09-11T16:51:34Z</time>
</trkpt>
<trkpt lat="47.452999" lon="10.924157">
<ele>828.7</ele>
<time>2020-09-11T16:51:35Z</time>
</trkpt>
<trkpt lat="47.452953" lon="10.92415">
<ele>829.098</ele>
<time>2020-09-11T16:51:36Z</time>
</trkpt>
<trkpt lat="47.452911" lon="10.924141">
<ele>829.34</ele>
<time>2020-09-11T16:51:37Z</time>
</trkpt>
<trkpt lat="47.452866" lon="10.924133">
<ele>829.52</ele>
<time>2020-09-11T16:51:38Z</time>
</trkpt>
<trkpt lat="47.45282" lon="10.924124">
<ele>829.679</ele>
<time>2020-09-11T16:51:39Z</time>
</trkpt>
<trkpt lat="47.452778" lon="10.924107">
<ele>829.774</ele>
<time>2020-09-11T16:51:40Z</time>
</trkpt>
<trkpt lat="47.45274" lon="10.924087">
<ele>829.832</ele>
<time>2020-09-11T16:51:41Z</time>
</trkpt>
<trkpt lat="47.452702" lon="10.924066">
<ele>829.866</ele>
<time>2020-09-11T16:51:42Z</time>
</trkpt>
<trkpt lat="47.452656" lon="10.924042">
<ele>829.866</ele>
<time>2020-09-11T16:51:43Z</time>
</trkpt>
<trkpt lat="47.45261" lon="10.924026">
<ele>829.866</ele>
<time>2020-09-11T16:51:44Z</time>
</trkpt>
<trkpt lat="47.452572" lon="10.924013">
<ele>829.866</ele>
<time>2020-09-11T16:51:45Z</time>
</trkpt>
<trkpt lat="47.452541" lon="10.924002">
<ele>829.866</ele>
<time>2020-09-11T16:51:46Z</time>
</trkpt>
<trkpt lat="47.452507" lon="10.923998">
<ele>829.866</ele>
<time>2020-09-11T16:51:47Z</time>
</trkpt>
<trkpt lat="47.452484" lon="10.923998">
<ele>829.866</ele>
<time>2020-09-11T16:51:48Z</time>
</trkpt>
<trkpt lat="47.452446" lon="10.924003">
<ele>830.091</ele>
<time>2020-09-11T16:51:49Z</time>
</trkpt>
<trkpt lat="47.452427" lon="10.924002">
<ele>830.275</ele>
<time>2020-09-11T16:51:50Z</time>
</trkpt>
<trkpt lat="47.452393" lon="10.92401">
<ele>830.408</ele>
<time>2020-09-11T16:51:51Z</time>
</trkpt>
<trkpt lat="47.45237" lon="10.924008">
<ele>830.771</ele>
<time>2020-09-11T16:51:52Z</time>
</trkpt>
<trkpt lat="47.452354" lon="10.924003">
<ele>831.096</ele>
<time>2020-09-11T16:51:53Z</time>
</trkpt>
<trkpt lat="47.452328" lon="10.924006">
<ele>831.331</ele>
<time>2020-09-11T16:51:54Z</time>
</trkpt>
<trkpt lat="47.452305" lon="10.924008">
<ele>831.729</ele>
<time>2020-09-11T16:51:55Z</time>
</trkpt>
<trkpt lat="47.452267" lon="10.924024">
<ele>832.068</ele>
<time>2020-09-11T16:51:56Z</time>
</trkpt>
<trkpt lat="47.452236" lon="10.92403">
<ele>832.298</ele>
<time>2020-09-11T16:51:57Z</time>
</trkpt>
<trkpt lat="47.452209" lon="10.924031">
<ele>832.477</ele>
<time>2020-09-11T16:51:58Z</time>
</trkpt>
<trkpt lat="47.452183" lon="10.924038">
<ele>832.591</ele>
<time>2020-09-11T16:51:59Z</time>
</trkpt>
<trkpt lat="47.452133" lon="10.924051">
<ele>832.968</ele>
<time>2020-09-11T16:52:00Z</time>
</trkpt>
<trkpt lat="47.452103" lon="10.92405">
<ele>833.218</ele>
<time>2020-09-11T16:52:01Z</time>
</trkpt>
<trkpt lat="47.452072" lon="10.92406">
<ele>833.388</ele>
<time>2020-09-11T16:52:02Z</time>
</trkpt>
<trkpt lat="47.452038" lon="10.924067">
<ele>833.585</ele>
<time>2020-09-11T16:52:03Z</time>
</trkpt>
<trkpt lat="47.452015" lon="10.924067">
<ele>833.654</ele>
<time>2020-09-11T16:52:04Z</time>
</trkpt>
<trkpt lat="47.451977" lon="10.92408">
<ele>833.703</ele>
<time>2020-09-11T16:52:05Z</time>
</trkpt>
<trkpt lat="47.451927" lon="10.924095">
<ele>833.999</ele>
<time>2020-09-11T16:52:06Z</time>
</trkpt>
<trkpt lat="47.451881" lon="10.9241">
<ele>834.199</ele>
<time>2020-09-11T16:52:07Z</time>
</trkpt>
<trkpt lat="47.451847" lon="10.924107">
<ele>834.317</ele>
<time>2020-09-11T16:52:08Z</time>
</trkpt>
<trkpt lat="47.451797" lon="10.924124">
<ele>834.488</ele>
<time>2020-09-11T16:52:09Z</time>
</trkpt>
<trkpt lat="47.451736" lon="10.924135">
<ele>834.595</ele>
<time>2020-09-11T16:52:10Z</time>
</trkpt>
<trkpt lat="47.451675" lon="10.924147">
<ele>834.664</ele>
<time>2020-09-11T16:52:11Z</time>
</trkpt>
<trkpt lat="47.451637" lon="10.924145">
<ele>834.978</ele>
<time>2020-09-11T16:52:12Z</time>
</trkpt>
<trkpt lat="47.451591" lon="10.924145">
<ele>835.187</ele>
<time>2020-09-11T16:52:13Z</time>
</trkpt>
<trkpt lat="47.451546" lon="10.92414">
<ele>835.389</ele>
<time>2020-09-11T16:52:14Z</time>
</trkpt>
<trkpt lat="47.451508" lon="10.924138">
<ele>835.518</ele>
<time>2020-09-11T16:52:15Z</time>
</trkpt>
<trkpt lat="47.451466" lon="10.924135">
<ele>835.598</ele>
<time>2020-09-11T16:52:16Z</time>
</trkpt>
<trkpt lat="47.451427" lon="10.924132">
<ele>835.632</ele>
<time>2020-09-11T16:52:17Z</time>
</trkpt>
<trkpt lat="47.451385" lon="10.92413">
<ele>835.87</ele>
<time>2020-09-11T16:52:18Z</time>
</trkpt>
<trkpt lat="47.451347" lon="10.924135">
<ele>836.092</ele>
<time>2020-09-11T16:52:19Z</time>
</trkpt>
<trkpt lat="47.451313" lon="10.924138">
<ele>836.242</ele>
<time>2020-09-11T16:52:20Z</time>
</trkpt>
<trkpt lat="47.451283" lon="10.924136">
<ele>836.614</ele>
<time>2020-09-11T16:52:21Z</time>
</trkpt>
<trkpt lat="47.451252" lon="10.924132">
<ele>836.93</ele>
<time>2020-09-11T16:52:22Z</time>
</trkpt>
<trkpt lat="47.451225" lon="10.924122">
<ele>837.184</ele>
<time>2020-09-11T16:52:23Z</time>
</trkpt>
<trkpt lat="47.451187" lon="10.924111">
<ele>837.386</ele>
<time>2020-09-11T16:52:24Z</time>
</trkpt>
<trkpt lat="47.451149" lon="10.924105">
<ele>837.529</ele>
<time>2020-09-11T16:52:25Z</time>
</trkpt>
<trkpt lat="47.451099" lon="10.9241">
<ele>837.635</ele>
<time>2020-09-11T16:52:26Z</time>
</trkpt>
<trkpt lat="47.451061" lon="10.924093">
<ele>837.671</ele>
<time>2020-09-11T16:52:27Z</time>
</trkpt>
<trkpt lat="47.451019" lon="10.924088">
<ele>837.702</ele>
<time>2020-09-11T16:52:28Z</time>
</trkpt>
<trkpt lat="47.450974" lon="10.924084">
<ele>837.702</ele>
<time>2020-09-11T16:52:29Z</time>
</trkpt>
<trkpt lat="47.450932" lon="10.924078">
<ele>838.026</ele>
<time>2020-09-11T16:52:30Z</time>
</trkpt>
<trkpt lat="47.450893" lon="10.924075">
<ele>838.252</ele>
<time>2020-09-11T16:52:31Z</time>
</trkpt>
<trkpt lat="47.450851" lon="10.924075">
<ele>838.409</ele>
<time>2020-09-11T16:52:32Z</time>
</trkpt>
<trkpt lat="47.450806" lon="10.924075">
<ele>838.52</ele>
<time>2020-09-11T16:52:33Z</time>
</trkpt>
<trkpt lat="47.45076" lon="10.924076">
<ele>838.595</ele>
<time>2020-09-11T16:52:34Z</time>
</trkpt>
<trkpt lat="47.45071" lon="10.924076">
<ele>838.943</ele>
<time>2020-09-11T16:52:35Z</time>
</trkpt>
<trkpt lat="47.450665" lon="10.924071">
<ele>839.189</ele>
<time>2020-09-11T16:52:36Z</time>
</trkpt>
<trkpt lat="47.450619" lon="10.924064">
<ele>839.369</ele>
<time>2020-09-11T16:52:37Z</time>
</trkpt>
<trkpt lat="47.450573" lon="10.924055">
<ele>839.485</ele>
<time>2020-09-11T16:52:38Z</time>
</trkpt>
<trkpt lat="47.450527" lon="10.92405">
<ele>839.608</ele>
<time>2020-09-11T16:52:39Z</time>
</trkpt>
<trkpt lat="47.450481" lon="10.924047">
<ele>839.694</ele>
<time>2020-09-11T16:52:40Z</time>
</trkpt>
<trkpt lat="47.450436" lon="10.924045">
<ele>839.748</ele>
<time>2020-09-11T16:52:41Z</time>
</trkpt>
<trkpt lat="47.450405" lon="10.92404">
<ele>839.774</ele>
<time>2020-09-11T16:52:42Z</time>
</trkpt>
<trkpt lat="47.450359" lon="10.924036">
<ele>839.774</ele>
<time>2020-09-11T16:52:43Z</time>
</trkpt>
<trkpt lat="47.450314" lon="10.92403">
<ele>839.774</ele>
<time>2020-09-11T16:52:44Z</time>
</trkpt>
<trkpt lat="47.450268" lon="10.924017">
<ele>839.774</ele>
<time>2020-09-11T16:52:45Z</time>
</trkpt>
<trkpt lat="47.450222" lon="10.92401">
<ele>839.774</ele>
<time>2020-09-11T16:52:46Z</time>
</trkpt>
<trkpt lat="47.450176" lon="10.924006">
<ele>839.774</ele>
<time>2020-09-11T16:52:47Z</time>
</trkpt>
<trkpt lat="47.450138" lon="10.923997">
<ele>839.774</ele>
<time>2020-09-11T16:52:48Z</time>
</trkpt>
<trkpt lat="47.4501" lon="10.923984">
<ele>839.774</ele>
<time>2020-09-11T16:52:49Z</time>
</trkpt>
<trkpt lat="47.450062" lon="10.923975">
<ele>839.774</ele>
<time>2020-09-11T16:52:50Z</time>
</trkpt>
<trkpt lat="47.450024" lon="10.923966">
<ele>839.774</ele>
<time>2020-09-11T16:52:51Z</time>
</trkpt>
<trkpt lat="47.449982" lon="10.923962">
<ele>839.774</ele>
<time>2020-09-11T16:52:52Z</time>
</trkpt>
<trkpt lat="47.449944" lon="10.923959">
<ele>839.774</ele>
<time>2020-09-11T16:52:53Z</time>
</trkpt>
<trkpt lat="47.449902" lon="10.923955">
<ele>839.774</ele>
<time>2020-09-11T16:52:54Z</time>
</trkpt>
<trkpt lat="47.449867" lon="10.923952">
<ele>839.774</ele>
<time>2020-09-11T16:52:55Z</time>
</trkpt>
<trkpt lat="47.449829" lon="10.923952">
<ele>839.774</ele>
<time>2020-09-11T16:52:56Z</time>
</trkpt>
<trkpt lat="47.449783" lon="10.923948">
<ele>839.774</ele>
<time>2020-09-11T16:52:57Z</time>
</trkpt>
<trkpt lat="47.449749" lon="10.923942">
<ele>839.975</ele>
<time>2020-09-11T16:52:58Z</time>
</trkpt>
<trkpt lat="47.449699" lon="10.923937">
<ele>840.166</ele>
<time>2020-09-11T16:52:59Z</time>
</trkpt>
<trkpt lat="47.449654" lon="10.923929">
<ele>840.325</ele>
<time>2020-09-11T16:53:00Z</time>
</trkpt>
<trkpt lat="47.449615" lon="10.923923">
<ele>840.453</ele>
<time>2020-09-11T16:53:01Z</time>
</trkpt>
<trkpt lat="47.449577" lon="10.923917">
<ele>840.547</ele>
<time>2020-09-11T16:53:02Z</time>
</trkpt>
<trkpt lat="47.449532" lon="10.923906">
<ele>840.618</ele>
<time>2020-09-11T16:53:03Z</time>
</trkpt>
<trkpt lat="47.449486" lon="10.92389">
<ele>840.656</ele>
<time>2020-09-11T16:53:04Z</time>
</trkpt>
<trkpt lat="47.449436" lon="10.923868">
<ele>840.676</ele>
<time>2020-09-11T16:53:05Z</time>
</trkpt>
<trkpt lat="47.44939" lon="10.923843">
<ele>840.676</ele>
<time>2020-09-11T16:53:06Z</time>
</trkpt>
<trkpt lat="47.449345" lon="10.923817">
<ele>840.676</ele>
<time>2020-09-11T16:53:07Z</time>
</trkpt>
<trkpt lat="47.449295" lon="10.923787">
<ele>840.676</ele>
<time>2020-09-11T16:53:08Z</time>
</trkpt>
<trkpt lat="47.449238" lon="10.923761">
<ele>840.676</ele>
<time>2020-09-11T16:53:09Z</time>
</trkpt>
<trkpt lat="47.449188" lon="10.923735">
<ele>841.021</ele>
<time>2020-09-11T16:53:10Z</time>
</trkpt>
<trkpt lat="47.449135" lon="10.923707">
<ele>841.265</ele>
<time>2020-09-11T16:53:11Z</time>
</trkpt>
<trkpt lat="47.449089" lon="10.923678">
<ele>841.446</ele>
<time>2020-09-11T16:53:12Z</time>
</trkpt>
<trkpt lat="47.449043" lon="10.923649">
<ele>841.58</ele>
<time>2020-09-11T16:53:13Z</time>
</trkpt>
<trkpt lat="47.449009" lon="10.923619">
<ele>841.671</ele>
<time>2020-09-11T16:53:14Z</time>
</trkpt>
<trkpt lat="47.448967" lon="10.92359">
<ele>841.727</ele>
<time>2020-09-11T16:53:15Z</time>
</trkpt>
<trkpt lat="47.448933" lon="10.923556">
<ele>841.752</ele>
<time>2020-09-11T16:53:16Z</time>
</trkpt>
<trkpt lat="47.448898" lon="10.92352">
<ele>841.983</ele>
<time>2020-09-11T16:53:17Z</time>
</trkpt>
<trkpt lat="47.448864" lon="10.923485">
<ele>842.153</ele>
<time>2020-09-11T16:53:18Z</time>
</trkpt>
<trkpt lat="47.448811" lon="10.923451">
<ele>842.33</ele>
<time>2020-09-11T16:53:19Z</time>
</trkpt>
<trkpt lat="47.448757" lon="10.923418">
<ele>842.481</ele>
<time>2020-09-11T16:53:20Z</time>
</trkpt>
<trkpt lat="47.448708" lon="10.923385">
<ele>842.598</ele>
<time>2020-09-11T16:53:21Z</time>
</trkpt>
<trkpt lat="47.448654" lon="10.923351">
<ele>842.68</ele>
<time>2020-09-11T16:53:22Z</time>
</trkpt>
<trkpt lat="47.448608" lon="10.923322">
<ele>842.722</ele>
<time>2020-09-11T16:53:23Z</time>
</trkpt>
<trkpt lat="47.448566" lon="10.923295">
<ele>843.001</ele>
<time>2020-09-11T16:53:24Z</time>
</trkpt>
<trkpt lat="47.448524" lon="10.923273">
<ele>843.22</ele>
<time>2020-09-11T16:53:25Z</time>
</trkpt>
<trkpt lat="47.448486" lon="10.923253">
<ele>843.366</ele>
<time>2020-09-11T16:53:26Z</time>
</trkpt>
<trkpt lat="47.44846" lon="10.92324">
<ele>843.474</ele>
<time>2020-09-11T16:53:27Z</time>
</trkpt>
<trkpt lat="47.448441" lon="10.923227">
<ele>843.558</ele>
<time>2020-09-11T16:53:28Z</time>
</trkpt>
<trkpt lat="47.448418" lon="10.923219">
<ele>843.645</ele>
<time>2020-09-11T16:53:29Z</time>
</trkpt>
<trkpt lat="47.448395" lon="10.92321">
<ele>843.907</ele>
<time>2020-09-11T16:53:30Z</time>
</trkpt>
<trkpt lat="47.448372" lon="10.923196">
<ele>844.126</ele>
<time>2020-09-11T16:53:31Z</time>
</trkpt>
<trkpt lat="47.448349" lon="10.923173">
<ele>844.378</ele>
<time>2020-09-11T16:53:32Z</time>
</trkpt>
<trkpt lat="47.448326" lon="10.923139">
<ele>844.523</ele>
<time>2020-09-11T16:53:33Z</time>
</trkpt>
<trkpt lat="47.448303" lon="10.92307">
<ele>844.635</ele>
<time>2020-09-11T16:53:34Z</time>
</trkpt>
<trkpt lat="47.448265" lon="10.92302">
<ele>844.706</ele>
<time>2020-09-11T16:53:35Z</time>
</trkpt>
<trkpt lat="47.448231" lon="10.922987">
<ele>844.724</ele>
<time>2020-09-11T16:53:36Z</time>
</trkpt>
<trkpt lat="47.448189" lon="10.922958">
<ele>844.732</ele>
<time>2020-09-11T16:53:37Z</time>
</trkpt>
<trkpt lat="47.448154" lon="10.922934">
<ele>844.732</ele>
<time>2020-09-11T16:53:38Z</time>
</trkpt>
<trkpt lat="47.448124" lon="10.922907">
<ele>844.732</ele>
<time>2020-09-11T16:53:39Z</time>
</trkpt>
<trkpt lat="47.448093" lon="10.922878">
<ele>844.732</ele>
<time>2020-09-11T16:53:40Z</time>
</trkpt>
<trkpt lat="47.448078" lon="10.922854">
<ele>844.732</ele>
<time>2020-09-11T16:53:41Z</time>
</trkpt>
<trkpt lat="47.448059" lon="10.92284">
<ele>844.732</ele>
<time>2020-09-11T16:53:42Z</time>
</trkpt>
<trkpt lat="47.44804" lon="10.922835">
<ele>844.732</ele>
<time>2020-09-11T16:53:43Z</time>
</trkpt>
<trkpt lat="47.448025" lon="10.922832">
<ele>844.732</ele>
<time>2020-09-11T16:53:44Z</time>
</trkpt>
<trkpt lat="47.448013" lon="10.922837">
<ele>844.732</ele>
<time>2020-09-11T16:53:45Z</time>
</trkpt>
<trkpt lat="47.448017" lon="10.922835">
<ele>844.732</ele>
<time>2020-09-11T16:53:46Z</time>
</trkpt>
<trkpt lat="47.448021" lon="10.922837">
<ele>844.732</ele>
<time>2020-09-11T16:53:47Z</time>
</trkpt>
<trkpt lat="47.448006" lon="10.922829">
<ele>844.732</ele>
<time>2020-09-11T16:54:05Z</time>
</trkpt>
<trkpt lat="47.447987" lon="10.92282">
<ele>844.865</ele>
<time>2020-09-11T16:54:06Z</time>
</trkpt>
<trkpt lat="47.447968" lon="10.922811">
<ele>844.994</ele>
<time>2020-09-11T16:54:07Z</time>
</trkpt>
<trkpt lat="47.447941" lon="10.922796">
<ele>845.12</ele>
<time>2020-09-11T16:54:08Z</time>
</trkpt>
<trkpt lat="47.447914" lon="10.922777">
<ele>845.23</ele>
<time>2020-09-11T16:54:09Z</time>
</trkpt>
<trkpt lat="47.447884" lon="10.922758">
<ele>845.313</ele>
<time>2020-09-11T16:54:10Z</time>
</trkpt>
<trkpt lat="47.447849" lon="10.922737">
<ele>845.356</ele>
<time>2020-09-11T16:54:11Z</time>
</trkpt>
<trkpt lat="47.447815" lon="10.922713">
<ele>845.361</ele>
<time>2020-09-11T16:54:12Z</time>
</trkpt>
<trkpt lat="47.447777" lon="10.92269">
<ele>845.363</ele>
<time>2020-09-11T16:54:13Z</time>
</trkpt>
<trkpt lat="47.447742" lon="10.922672">
<ele>845.363</ele>
<time>2020-09-11T16:54:14Z</time>
</trkpt>
<trkpt lat="47.447701" lon="10.922651">
<ele>845.363</ele>
<time>2020-09-11T16:54:15Z</time>
</trkpt>
<trkpt lat="47.447666" lon="10.922632">
<ele>845.363</ele>
<time>2020-09-11T16:54:16Z</time>
</trkpt>
<trkpt lat="47.447624" lon="10.922611">
<ele>845.363</ele>
<time>2020-09-11T16:54:17Z</time>
</trkpt>
<trkpt lat="47.447582" lon="10.922592">
<ele>845.363</ele>
<time>2020-09-11T16:54:18Z</time>
</trkpt>
<trkpt lat="47.44754" lon="10.922569">
<ele>845.363</ele>
<time>2020-09-11T16:54:19Z</time>
</trkpt>
<trkpt lat="47.447502" lon="10.922555">
<ele>845.363</ele>
<time>2020-09-11T16:54:20Z</time>
</trkpt>
<trkpt lat="47.44746" lon="10.922538">
<ele>845.363</ele>
<time>2020-09-11T16:54:21Z</time>
</trkpt>
<trkpt lat="47.447422" lon="10.922523">
<ele>845.363</ele>
<time>2020-09-11T16:54:22Z</time>
</trkpt>
<trkpt lat="47.44738" lon="10.922508">
<ele>845.363</ele>
<time>2020-09-11T16:54:23Z</time>
</trkpt>
<trkpt lat="47.447338" lon="10.922497">
<ele>845.363</ele>
<time>2020-09-11T16:54:24Z</time>
</trkpt>
<trkpt lat="47.447296" lon="10.92249">
<ele>845.363</ele>
<time>2020-09-11T16:54:25Z</time>
</trkpt>
<trkpt lat="47.447254" lon="10.922482">
<ele>845.604</ele>
<time>2020-09-11T16:54:26Z</time>
</trkpt>
<trkpt lat="47.447212" lon="10.922477">
<ele>845.808</ele>
<time>2020-09-11T16:54:27Z</time>
</trkpt>
<trkpt lat="47.447182" lon="10.922468">
<ele>845.973</ele>
<time>2020-09-11T16:54:28Z</time>
</trkpt>
<trkpt lat="47.447155" lon="10.922462">
<ele>846.103</ele>
<time>2020-09-11T16:54:29Z</time>
</trkpt>
<trkpt lat="47.447144" lon="10.922457">
<ele>846.205</ele>
<time>2020-09-11T16:54:30Z</time>
</trkpt>
<trkpt lat="47.44714" lon="10.922461">
<ele>846.277</ele>
<time>2020-09-11T16:54:31Z</time>
</trkpt>
<trkpt lat="47.447132" lon="10.922459">
<ele>846.327</ele>
<time>2020-09-11T16:54:32Z</time>
</trkpt>
<trkpt lat="47.447124" lon="10.922459">
<ele>846.355</ele>
<time>2020-09-11T16:54:33Z</time>
</trkpt>
<trkpt lat="47.447109" lon="10.922471">
<ele>846.355</ele>
<time>2020-09-11T16:55:49Z</time>
</trkpt>
<trkpt lat="47.447102" lon="10.922471">
<ele>846.178</ele>
<time>2020-09-11T16:55:50Z</time>
</trkpt>
<trkpt lat="47.447094" lon="10.922475">
<ele>845.997</ele>
<time>2020-09-11T16:55:51Z</time>
</trkpt>
<trkpt lat="47.447083" lon="10.922477">
<ele>845.804</ele>
<time>2020-09-11T16:55:52Z</time>
</trkpt>
<trkpt lat="47.447063" lon="10.922475">
<ele>845.597</ele>
<time>2020-09-11T16:55:53Z</time>
</trkpt>
<trkpt lat="47.447048" lon="10.922473">
<ele>845.717</ele>
<time>2020-09-11T16:55:54Z</time>
</trkpt>
<trkpt lat="47.447025" lon="10.922468">
<ele>845.839</ele>
<time>2020-09-11T16:55:55Z</time>
</trkpt>
<trkpt lat="47.446995" lon="10.922466">
<ele>845.953</ele>
<time>2020-09-11T16:55:56Z</time>
</trkpt>
<trkpt lat="47.446964" lon="10.922461">
<ele>846.04</ele>
<time>2020-09-11T16:55:57Z</time>
</trkpt>
<trkpt lat="47.446922" lon="10.922455">
<ele>846.141</ele>
<time>2020-09-11T16:55:58Z</time>
</trkpt>
<trkpt lat="47.446884" lon="10.922448">
<ele>846.191</ele>
<time>2020-09-11T16:55:59Z</time>
</trkpt>
<trkpt lat="47.446846" lon="10.922441">
<ele>846.22</ele>
<time>2020-09-11T16:56:00Z</time>
</trkpt>
<trkpt lat="47.446804" lon="10.922433">
<ele>846.248</ele>
<time>2020-09-11T16:56:01Z</time>
</trkpt>
<trkpt lat="47.446766" lon="10.922423">
<ele>846.265</ele>
<time>2020-09-11T16:56:02Z</time>
</trkpt>
<trkpt lat="47.446728" lon="10.922413">
<ele>846.265</ele>
<time>2020-09-11T16:56:03Z</time>
</trkpt>
<trkpt lat="47.446693" lon="10.922401">
<ele>846.265</ele>
<time>2020-09-11T16:56:04Z</time>
</trkpt>
<trkpt lat="47.446655" lon="10.922392">
<ele>846.265</ele>
<time>2020-09-11T16:56:05Z</time>
</trkpt>
<trkpt lat="47.446621" lon="10.92238">
<ele>846.265</ele>
<time>2020-09-11T16:56:06Z</time>
</trkpt>
<trkpt lat="47.44659" lon="10.922363">
<ele>846.265</ele>
<time>2020-09-11T16:56:07Z</time>
</trkpt>
<trkpt lat="47.446545" lon="10.922347">
<ele>846.265</ele>
<time>2020-09-11T16:56:08Z</time>
</trkpt>
<trkpt lat="47.446503" lon="10.922333">
<ele>846.265</ele>
<time>2020-09-11T16:56:09Z</time>
</trkpt>
<trkpt lat="47.446457" lon="10.922318">
<ele>846.265</ele>
<time>2020-09-11T16:56:10Z</time>
</trkpt>
<trkpt lat="47.446411" lon="10.922299">
<ele>846.265</ele>
<time>2020-09-11T16:56:11Z</time>
</trkpt>
<trkpt lat="47.446365" lon="10.922278">
<ele>846.584</ele>
<time>2020-09-11T16:56:12Z</time>
</trkpt>
<trkpt lat="47.446327" lon="10.922252">
<ele>846.819</ele>
<time>2020-09-11T16:56:13Z</time>
</trkpt>
<trkpt lat="47.446285" lon="10.92222">
<ele>846.988</ele>
<time>2020-09-11T16:56:14Z</time>
</trkpt>
<trkpt lat="47.446236" lon="10.922187">
<ele>847.102</ele>
<time>2020-09-11T16:56:15Z</time>
</trkpt>
<trkpt lat="47.446198" lon="10.922154">
<ele>847.177</ele>
<time>2020-09-11T16:56:16Z</time>
</trkpt>
<trkpt lat="47.446156" lon="10.92212">
<ele>847.23</ele>
<time>2020-09-11T16:56:17Z</time>
</trkpt>
<trkpt lat="47.446114" lon="10.922082">
<ele>847.523</ele>
<time>2020-09-11T16:56:18Z</time>
</trkpt>
<trkpt lat="47.446068" lon="10.922044">
<ele>847.745</ele>
<time>2020-09-11T16:56:19Z</time>
</trkpt>
<trkpt lat="47.44603" lon="10.922004">
<ele>847.892</ele>
<time>2020-09-11T16:56:20Z</time>
</trkpt>
<trkpt lat="47.445988" lon="10.921965">
<ele>848.049</ele>
<time>2020-09-11T16:56:21Z</time>
</trkpt>
<trkpt lat="47.445946" lon="10.921925">
<ele>848.16</ele>
<time>2020-09-11T16:56:22Z</time>
</trkpt>
<trkpt lat="47.445904" lon="10.921888">
<ele>848.272</ele>
<time>2020-09-11T16:56:23Z</time>
</trkpt>
<trkpt lat="47.445866" lon="10.92185">
<ele>848.351</ele>
<time>2020-09-11T16:56:24Z</time>
</trkpt>
<trkpt lat="47.445824" lon="10.921811">
<ele>848.395</ele>
<time>2020-09-11T16:56:25Z</time>
</trkpt>
<trkpt lat="47.445782" lon="10.921775">
<ele>848.412</ele>
<time>2020-09-11T16:56:26Z</time>
</trkpt>
<trkpt lat="47.445744" lon="10.921737">
<ele>848.42</ele>
<time>2020-09-11T16:56:27Z</time>
</trkpt>
<trkpt lat="47.445698" lon="10.9217">
<ele>848.643</ele>
<time>2020-09-11T16:56:28Z</time>
</trkpt>
<trkpt lat="47.445648" lon="10.921664">
<ele>848.821</ele>
<time>2020-09-11T16:56:29Z</time>
</trkpt>
<trkpt lat="47.445602" lon="10.921631">
<ele>848.873</ele>
<time>2020-09-11T16:56:30Z</time>
</trkpt>
<trkpt lat="47.445553" lon="10.921599">
<ele>849.041</ele>
<time>2020-09-11T16:56:31Z</time>
</trkpt>
<trkpt lat="47.445511" lon="10.921574">
<ele>849.166</ele>
<time>2020-09-11T16:56:32Z</time>
</trkpt>
<trkpt lat="47.445457" lon="10.921547">
<ele>849.275</ele>
<time>2020-09-11T16:56:33Z</time>
</trkpt>
<trkpt lat="47.445408" lon="10.921525">
<ele>849.351</ele>
<time>2020-09-11T16:56:34Z</time>
</trkpt>
<trkpt lat="47.445351" lon="10.921505">
<ele>849.399</ele>
<time>2020-09-11T16:56:35Z</time>
</trkpt>
<trkpt lat="47.445297" lon="10.921487">
<ele>849.421</ele>
<time>2020-09-11T16:56:36Z</time>
</trkpt>
<trkpt lat="47.445248" lon="10.921467">
<ele>849.422</ele>
<time>2020-09-11T16:56:37Z</time>
</trkpt>
<trkpt lat="47.445194" lon="10.921447">
<ele>849.422</ele>
<time>2020-09-11T16:56:38Z</time>
</trkpt>
<trkpt lat="47.445141" lon="10.921428">
<ele>849.422</ele>
<time>2020-09-11T16:56:39Z</time>
</trkpt>
<trkpt lat="47.445091" lon="10.921413">
<ele>849.422</ele>
<time>2020-09-11T16:56:40Z</time>
</trkpt>
<trkpt lat="47.445034" lon="10.921398">
<ele>849.422</ele>
<time>2020-09-11T16:56:41Z</time>
</trkpt>
<trkpt lat="47.444984" lon="10.921382">
<ele>849.719</ele>
<time>2020-09-11T16:56:42Z</time>
</trkpt>
<trkpt lat="47.444931" lon="10.921365">
<ele>849.945</ele>
<time>2020-09-11T16:56:43Z</time>
</trkpt>
<trkpt lat="47.444881" lon="10.921347">
<ele>850.117</ele>
<time>2020-09-11T16:56:44Z</time>
</trkpt>
<trkpt lat="47.444828" lon="10.921329">
<ele>850.244</ele>
<time>2020-09-11T16:56:45Z</time>
</trkpt>
<trkpt lat="47.444775" lon="10.921313">
<ele>850.325</ele>
<time>2020-09-11T16:56:46Z</time>
</trkpt>
<trkpt lat="47.444717" lon="10.9213">
<ele>850.612</ele>
<time>2020-09-11T16:56:47Z</time>
</trkpt>
<trkpt lat="47.444668" lon="10.921285">
<ele>850.824</ele>
<time>2020-09-11T16:56:48Z</time>
</trkpt>
<trkpt lat="47.444607" lon="10.921272">
<ele>850.972</ele>
<time>2020-09-11T16:56:49Z</time>
</trkpt>
<trkpt lat="47.444553" lon="10.921256">
<ele>851.069</ele>
<time>2020-09-11T16:56:50Z</time>
</trkpt>
<trkpt lat="47.444496" lon="10.92124">
<ele>851.173</ele>
<time>2020-09-11T16:56:51Z</time>
</trkpt>
<trkpt lat="47.444439" lon="10.921222">
<ele>851.247</ele>
<time>2020-09-11T16:56:52Z</time>
</trkpt>
<trkpt lat="47.444386" lon="10.921206">
<ele>851.294</ele>
<time>2020-09-11T16:56:53Z</time>
</trkpt>
<trkpt lat="47.444336" lon="10.92119">
<ele>851.316</ele>
<time>2020-09-11T16:56:54Z</time>
</trkpt>
<trkpt lat="47.444279" lon="10.921178">
<ele>851.316</ele>
<time>2020-09-11T16:56:55Z</time>
</trkpt>
<trkpt lat="47.444229" lon="10.921165">
<ele>851.316</ele>
<time>2020-09-11T16:56:56Z</time>
</trkpt>
<trkpt lat="47.444176" lon="10.921146">
<ele>851.316</ele>
<time>2020-09-11T16:56:57Z</time>
</trkpt>
<trkpt lat="47.444122" lon="10.921125">
<ele>851.561</ele>
<time>2020-09-11T16:56:58Z</time>
</trkpt>
<trkpt lat="47.444073" lon="10.921105">
<ele>851.756</ele>
<time>2020-09-11T16:56:59Z</time>
</trkpt>
<trkpt lat="47.444023" lon="10.921088">
<ele>851.891</ele>
<time>2020-09-11T16:57:00Z</time>
</trkpt>
<trkpt lat="47.443977" lon="10.921073">
<ele>852.037</ele>
<time>2020-09-11T16:57:01Z</time>
</trkpt>
<trkpt lat="47.443924" lon="10.921062">
<ele>852.142</ele>
<time>2020-09-11T16:57:02Z</time>
</trkpt>
<trkpt lat="47.443871" lon="10.921048">
<ele>852.467</ele>
<time>2020-09-11T16:57:03Z</time>
</trkpt>
<trkpt lat="47.443817" lon="10.921037">
<ele>852.724</ele>
<time>2020-09-11T16:57:04Z</time>
</trkpt>
<trkpt lat="47.443768" lon="10.921023">
<ele>852.917</ele>
<time>2020-09-11T16:57:05Z</time>
</trkpt>
<trkpt lat="47.443718" lon="10.921011">
<ele>853.109</ele>
<time>2020-09-11T16:57:06Z</time>
</trkpt>
<trkpt lat="47.443661" lon="10.921003">
<ele>853.197</ele>
<time>2020-09-11T16:57:07Z</time>
</trkpt>
<trkpt lat="47.443607" lon="10.920997">
<ele>853.25</ele>
<time>2020-09-11T16:57:08Z</time>
</trkpt>
<trkpt lat="47.443558" lon="10.920992">
<ele>853.279</ele>
<time>2020-09-11T16:57:09Z</time>
</trkpt>
<trkpt lat="47.443501" lon="10.92099">
<ele>853.301</ele>
<time>2020-09-11T16:57:10Z</time>
</trkpt>
<trkpt lat="47.443451" lon="10.92099">
<ele>853.52</ele>
<time>2020-09-11T16:57:11Z</time>
</trkpt>
<trkpt lat="47.443398" lon="10.92099">
<ele>853.704</ele>
<time>2020-09-11T16:57:12Z</time>
</trkpt>
<trkpt lat="47.443348" lon="10.920995">
<ele>853.856</ele>
<time>2020-09-11T16:57:13Z</time>
</trkpt>
<trkpt lat="47.443298" lon="10.921">
<ele>853.977</ele>
<time>2020-09-11T16:57:14Z</time>
</trkpt>
<trkpt lat="47.443241" lon="10.921006">
<ele>854.07</ele>
<time>2020-09-11T16:57:15Z</time>
</trkpt>
<trkpt lat="47.443188" lon="10.921013">
<ele>854.138</ele>
<time>2020-09-11T16:57:16Z</time>
</trkpt>
<trkpt lat="47.443134" lon="10.921023">
<ele>854.184</ele>
<time>2020-09-11T16:57:17Z</time>
</trkpt>
<trkpt lat="47.443077" lon="10.921034">
<ele>854.204</ele>
<time>2020-09-11T16:57:18Z</time>
</trkpt>
<trkpt lat="47.443024" lon="10.921038">
<ele>854.204</ele>
<time>2020-09-11T16:57:19Z</time>
</trkpt>
<trkpt lat="47.44297" lon="10.921044">
<ele>854.204</ele>
<time>2020-09-11T16:57:20Z</time>
</trkpt>
<trkpt lat="47.442913" lon="10.921055">
<ele>854.204</ele>
<time>2020-09-11T16:57:21Z</time>
</trkpt>
<trkpt lat="47.442871" lon="10.921059">
<ele>854.66</ele>
<time>2020-09-11T16:57:22Z</time>
</trkpt>
<trkpt lat="47.442818" lon="10.921063">
<ele>855.009</ele>
<time>2020-09-11T16:57:23Z</time>
</trkpt>
<trkpt lat="47.442772" lon="10.921065">
<ele>855.273</ele>
<time>2020-09-11T16:57:24Z</time>
</trkpt>
<trkpt lat="47.442722" lon="10.92107">
<ele>855.464</ele>
<time>2020-09-11T16:57:25Z</time>
</trkpt>
<trkpt lat="47.442665" lon="10.92108">
<ele>855.611</ele>
<time>2020-09-11T16:57:26Z</time>
</trkpt>
<trkpt lat="47.442608" lon="10.921086">
<ele>855.692</ele>
<time>2020-09-11T16:57:27Z</time>
</trkpt>
<trkpt lat="47.442547" lon="10.921093">
<ele>855.732</ele>
<time>2020-09-11T16:57:28Z</time>
</trkpt>
<trkpt lat="47.442493" lon="10.921099">
<ele>855.738</ele>
<time>2020-09-11T16:57:29Z</time>
</trkpt>
<trkpt lat="47.442436" lon="10.921107">
<ele>855.738</ele>
<time>2020-09-11T16:57:30Z</time>
</trkpt>
<trkpt lat="47.442383" lon="10.921111">
<ele>855.738</ele>
<time>2020-09-11T16:57:31Z</time>
</trkpt>
<trkpt lat="47.442329" lon="10.921117">
<ele>855.738</ele>
<time>2020-09-11T16:57:32Z</time>
</trkpt>
<trkpt lat="47.442272" lon="10.921126">
<ele>855.738</ele>
<time>2020-09-11T16:57:33Z</time>
</trkpt>
<trkpt lat="47.442215" lon="10.921135">
<ele>855.738</ele>
<time>2020-09-11T16:57:34Z</time>
</trkpt>
<trkpt lat="47.442158" lon="10.921141">
<ele>855.738</ele>
<time>2020-09-11T16:57:35Z</time>
</trkpt>
<trkpt lat="47.442104" lon="10.921146">
<ele>855.738</ele>
<time>2020-09-11T16:57:36Z</time>
</trkpt>
<trkpt lat="47.442051" lon="10.921151">
<ele>855.738</ele>
<time>2020-09-11T16:57:37Z</time>
</trkpt>
<trkpt lat="47.441994" lon="10.921168">
<ele>855.738</ele>
<time>2020-09-11T16:57:38Z</time>
</trkpt>
<trkpt lat="47.44194" lon="10.921174">
<ele>855.98</ele>
<time>2020-09-11T16:57:39Z</time>
</trkpt>
<trkpt lat="47.441891" lon="10.921182">
<ele>856.151</ele>
<time>2020-09-11T16:57:40Z</time>
</trkpt>
<trkpt lat="47.441837" lon="10.921188">
<ele>856.324</ele>
<time>2020-09-11T16:57:41Z</time>
</trkpt>
<trkpt lat="47.441784" lon="10.921195">
<ele>856.467</ele>
<time>2020-09-11T16:57:42Z</time>
</trkpt>
<trkpt lat="47.441734" lon="10.921204">
<ele>856.577</ele>
<time>2020-09-11T16:57:43Z</time>
</trkpt>
<trkpt lat="47.441681" lon="10.921208">
<ele>856.656</ele>
<time>2020-09-11T16:57:44Z</time>
</trkpt>
<trkpt lat="47.441631" lon="10.921212">
<ele>856.707</ele>
<time>2020-09-11T16:57:45Z</time>
</trkpt>
<trkpt lat="47.44157" lon="10.921218">
<ele>856.731</ele>
<time>2020-09-11T16:57:46Z</time>
</trkpt>
<trkpt lat="47.441517" lon="10.921225">
<ele>857.01</ele>
<time>2020-09-11T16:57:47Z</time>
</trkpt>
<trkpt lat="47.441463" lon="10.92123">
<ele>857.232</ele>
<time>2020-09-11T16:57:48Z</time>
</trkpt>
<trkpt lat="47.44141" lon="10.921239">
<ele>857.4</ele>
<time>2020-09-11T16:57:49Z</time>
</trkpt>
<trkpt lat="47.441357" lon="10.921246">
<ele>857.515</ele>
<time>2020-09-11T16:57:50Z</time>
</trkpt>
<trkpt lat="47.441307" lon="10.921253">
<ele>857.642</ele>
<time>2020-09-11T16:57:51Z</time>
</trkpt>
<trkpt lat="47.441277" lon="10.921262">
<ele>857.73</ele>
<time>2020-09-11T16:57:52Z</time>
</trkpt>
<trkpt lat="47.441242" lon="10.921268">
<ele>857.786</ele>
<time>2020-09-11T16:57:53Z</time>
</trkpt>
<trkpt lat="47.441204" lon="10.921273">
<ele>857.814</ele>
<time>2020-09-11T16:57:54Z</time>
</trkpt>
<trkpt lat="47.441158" lon="10.921282">
<ele>857.814</ele>
<time>2020-09-11T16:57:55Z</time>
</trkpt>
<trkpt lat="47.441113" lon="10.921293">
<ele>857.814</ele>
<time>2020-09-11T16:57:56Z</time>
</trkpt>
<trkpt lat="47.441071" lon="10.921304">
<ele>857.814</ele>
<time>2020-09-11T16:57:57Z</time>
</trkpt>
<trkpt lat="47.441013" lon="10.92132">
<ele>857.814</ele>
<time>2020-09-11T16:57:58Z</time>
</trkpt>
<trkpt lat="47.440964" lon="10.921333">
<ele>857.814</ele>
<time>2020-09-11T16:57:59Z</time>
</trkpt>
<trkpt lat="47.440918" lon="10.921347">
<ele>858.032</ele>
<time>2020-09-11T16:58:00Z</time>
</trkpt>
<trkpt lat="47.440865" lon="10.921356">
<ele>858.229</ele>
<time>2020-09-11T16:58:01Z</time>
</trkpt>
<trkpt lat="47.440819" lon="10.921371">
<ele>858.378</ele>
<time>2020-09-11T16:58:02Z</time>
</trkpt>
<trkpt lat="47.440765" lon="10.921384">
<ele>858.494</ele>
<time>2020-09-11T16:58:03Z</time>
</trkpt>
<trkpt lat="47.440708" lon="10.921396">
<ele>858.588</ele>
<time>2020-09-11T16:58:04Z</time>
</trkpt>
<trkpt lat="47.440655" lon="10.921411">
<ele>858.653</ele>
<time>2020-09-11T16:58:05Z</time>
</trkpt>
<trkpt lat="47.440594" lon="10.921428">
<ele>858.694</ele>
<time>2020-09-11T16:58:06Z</time>
</trkpt>
<trkpt lat="47.44054" lon="10.921445">
<ele>858.717</ele>
<time>2020-09-11T16:58:07Z</time>
</trkpt>
<trkpt lat="47.440487" lon="10.921463">
<ele>858.717</ele>
<time>2020-09-11T16:58:08Z</time>
</trkpt>
<trkpt lat="47.44043" lon="10.921476">
<ele>858.987</ele>
<time>2020-09-11T16:58:09Z</time>
</trkpt>
<trkpt lat="47.44038" lon="10.921489">
<ele>859.176</ele>
<time>2020-09-11T16:58:10Z</time>
</trkpt>
<trkpt lat="47.440323" lon="10.921507">
<ele>859.364</ele>
<time>2020-09-11T16:58:11Z</time>
</trkpt>
<trkpt lat="47.440269" lon="10.92152">
<ele>859.513</ele>
<time>2020-09-11T16:58:12Z</time>
</trkpt>
<trkpt lat="47.440212" lon="10.921541">
<ele>859.634</ele>
<time>2020-09-11T16:58:13Z</time>
</trkpt>
<trkpt lat="47.440144" lon="10.921558">
<ele>859.716</ele>
<time>2020-09-11T16:58:14Z</time>
</trkpt>
<trkpt lat="47.440086" lon="10.92157">
<ele>859.774</ele>
<time>2020-09-11T16:58:15Z</time>
</trkpt>
<trkpt lat="47.440022" lon="10.921583">
<ele>859.801</ele>
<time>2020-09-11T16:58:16Z</time>
</trkpt>
<trkpt lat="47.43996" lon="10.921598">
<ele>859.801</ele>
<time>2020-09-11T16:58:17Z</time>
</trkpt>
<trkpt lat="47.439903" lon="10.921615">
<ele>859.8</ele>
<time>2020-09-11T16:58:18Z</time>
</trkpt>
<trkpt lat="47.439842" lon="10.921631">
<ele>860.091</ele>
<time>2020-09-11T16:58:19Z</time>
</trkpt>
<trkpt lat="47.439781" lon="10.921652">
<ele>860.296</ele>
<time>2020-09-11T16:58:20Z</time>
</trkpt>
<trkpt lat="47.439724" lon="10.921666">
<ele>860.494</ele>
<time>2020-09-11T16:58:21Z</time>
</trkpt>
<trkpt lat="47.439671" lon="10.921681">
<ele>860.658</ele>
<time>2020-09-11T16:58:22Z</time>
</trkpt>
<trkpt lat="47.439613" lon="10.921696">
<ele>860.792</ele>
<time>2020-09-11T16:58:23Z</time>
</trkpt>
<trkpt lat="47.439556" lon="10.92171">
<ele>860.882</ele>
<time>2020-09-11T16:58:24Z</time>
</trkpt>
<trkpt lat="47.439503" lon="10.921727">
<ele>860.945</ele>
<time>2020-09-11T16:58:25Z</time>
</trkpt>
<trkpt lat="47.439449" lon="10.921741">
<ele>860.974</ele>
<time>2020-09-11T16:58:26Z</time>
</trkpt>
<trkpt lat="47.4394" lon="10.921755">
<ele>860.974</ele>
<time>2020-09-11T16:58:27Z</time>
</trkpt>
<trkpt lat="47.439346" lon="10.921767">
<ele>860.974</ele>
<time>2020-09-11T16:58:28Z</time>
</trkpt>
<trkpt lat="47.439304" lon="10.921782">
<ele>860.974</ele>
<time>2020-09-11T16:58:29Z</time>
</trkpt>
<trkpt lat="47.439255" lon="10.921795">
<ele>860.974</ele>
<time>2020-09-11T16:58:30Z</time>
</trkpt>
<trkpt lat="47.439205" lon="10.92181">
<ele>861.208</ele>
<time>2020-09-11T16:58:31Z</time>
</trkpt>
<trkpt lat="47.439152" lon="10.921826">
<ele>861.41</ele>
<time>2020-09-11T16:58:32Z</time>
</trkpt>
<trkpt lat="47.439095" lon="10.921842">
<ele>861.581</ele>
<time>2020-09-11T16:58:33Z</time>
</trkpt>
<trkpt lat="47.439041" lon="10.921857">
<ele>861.718</ele>
<time>2020-09-11T16:58:34Z</time>
</trkpt>
<trkpt lat="47.438995" lon="10.921868">
<ele>861.822</ele>
<time>2020-09-11T16:58:35Z</time>
</trkpt>
<trkpt lat="47.438934" lon="10.921888">
<ele>861.898</ele>
<time>2020-09-11T16:58:36Z</time>
</trkpt>
<trkpt lat="47.438877" lon="10.921906">
<ele>861.948</ele>
<time>2020-09-11T16:58:37Z</time>
</trkpt>
<trkpt lat="47.43882" lon="10.921922">
<ele>861.968</ele>
<time>2020-09-11T16:58:38Z</time>
</trkpt>
<trkpt lat="47.438766" lon="10.921941">
<ele>861.968</ele>
<time>2020-09-11T16:58:39Z</time>
</trkpt>
<trkpt lat="47.438705" lon="10.921953">
<ele>861.968</ele>
<time>2020-09-11T16:58:40Z</time>
</trkpt>
<trkpt lat="47.438648" lon="10.921968">
<ele>861.968</ele>
<time>2020-09-11T16:58:41Z</time>
</trkpt>
<trkpt lat="47.438595" lon="10.921985">
<ele>862.269</ele>
<time>2020-09-11T16:58:42Z</time>
</trkpt>
<trkpt lat="47.438541" lon="10.922">
<ele>862.498</ele>
<time>2020-09-11T16:58:43Z</time>
</trkpt>
<trkpt lat="47.438496" lon="10.922012">
<ele>862.66</ele>
<time>2020-09-11T16:58:44Z</time>
</trkpt>
<trkpt lat="47.438438" lon="10.922025">
<ele>862.788</ele>
<time>2020-09-11T16:58:45Z</time>
</trkpt>
<trkpt lat="47.438381" lon="10.922035">
<ele>862.879</ele>
<time>2020-09-11T16:58:46Z</time>
</trkpt>
<trkpt lat="47.438332" lon="10.922048">
<ele>862.931</ele>
<time>2020-09-11T16:58:47Z</time>
</trkpt>
<trkpt lat="47.438278" lon="10.922063">
<ele>863.206</ele>
<time>2020-09-11T16:58:48Z</time>
</trkpt>
<trkpt lat="47.438232" lon="10.922075">
<ele>863.399</ele>
<time>2020-09-11T16:58:49Z</time>
</trkpt>
<trkpt lat="47.438179" lon="10.922087">
<ele>863.538</ele>
<time>2020-09-11T16:58:50Z</time>
</trkpt>
<trkpt lat="47.438137" lon="10.922096">
<ele>863.684</ele>
<time>2020-09-11T16:58:51Z</time>
</trkpt>
<trkpt lat="47.438084" lon="10.922109">
<ele>863.796</ele>
<time>2020-09-11T16:58:52Z</time>
</trkpt>
<trkpt lat="47.438046" lon="10.922113">
<ele>863.867</ele>
<time>2020-09-11T16:58:53Z</time>
</trkpt>
<trkpt lat="47.438" lon="10.922115">
<ele>864.159</ele>
<time>2020-09-11T16:58:54Z</time>
</trkpt>
<trkpt lat="47.437954" lon="10.922115">
<ele>864.386</ele>
<time>2020-09-11T16:58:55Z</time>
</trkpt>
<trkpt lat="47.437912" lon="10.922117">
<ele>864.605</ele>
<time>2020-09-11T16:58:56Z</time>
</trkpt>
<trkpt lat="47.437866" lon="10.922123">
<ele>864.731</ele>
<time>2020-09-11T16:58:57Z</time>
</trkpt>
<trkpt lat="47.437809" lon="10.922135">
<ele>864.819</ele>
<time>2020-09-11T16:58:58Z</time>
</trkpt>
<trkpt lat="47.437756" lon="10.92214">
<ele>864.862</ele>
<time>2020-09-11T16:58:59Z</time>
</trkpt>
<trkpt lat="47.437702" lon="10.922145">
<ele>865.126</ele>
<time>2020-09-11T16:59:00Z</time>
</trkpt>
<trkpt lat="47.437653" lon="10.922149">
<ele>865.355</ele>
<time>2020-09-11T16:59:01Z</time>
</trkpt>
<trkpt lat="47.437595" lon="10.922151">
<ele>865.513</ele>
<time>2020-09-11T16:59:02Z</time>
</trkpt>
<trkpt lat="47.43755" lon="10.922147">
<ele>865.636</ele>
<time>2020-09-11T16:59:03Z</time>
</trkpt>
<trkpt lat="47.4375" lon="10.922144">
<ele>865.724</ele>
<time>2020-09-11T16:59:04Z</time>
</trkpt>
<trkpt lat="47.437447" lon="10.92214">
<ele>865.789</ele>
<time>2020-09-11T16:59:05Z</time>
</trkpt>
<trkpt lat="47.437393" lon="10.922135">
<ele>865.829</ele>
<time>2020-09-11T16:59:06Z</time>
</trkpt>
<trkpt lat="47.437336" lon="10.922138">
<ele>865.852</ele>
<time>2020-09-11T16:59:07Z</time>
</trkpt>
<trkpt lat="47.437283" lon="10.92214">
<ele>865.852</ele>
<time>2020-09-11T16:59:08Z</time>
</trkpt>
<trkpt lat="47.437225" lon="10.922136">
<ele>865.852</ele>
<time>2020-09-11T16:59:09Z</time>
</trkpt>
<trkpt lat="47.437168" lon="10.922138">
<ele>865.852</ele>
<time>2020-09-11T16:59:10Z</time>
</trkpt>
<trkpt lat="47.437119" lon="10.922132">
<ele>865.852</ele>
<time>2020-09-11T16:59:11Z</time>
</trkpt>
<trkpt lat="47.437065" lon="10.922127">
<ele>865.852</ele>
<time>2020-09-11T16:59:12Z</time>
</trkpt>
<trkpt lat="47.437012" lon="10.922117">
<ele>865.852</ele>
<time>2020-09-11T16:59:13Z</time>
</trkpt>
<trkpt lat="47.436962" lon="10.922109">
<ele>866.129</ele>
<time>2020-09-11T16:59:14Z</time>
</trkpt>
<trkpt lat="47.436909" lon="10.92209">
<ele>866.341</ele>
<time>2020-09-11T16:59:15Z</time>
</trkpt>
<trkpt lat="47.436859" lon="10.922067">
<ele>866.506</ele>
<time>2020-09-11T16:59:16Z</time>
</trkpt>
<trkpt lat="47.43681" lon="10.922042">
<ele>866.629</ele>
<time>2020-09-11T16:59:17Z</time>
</trkpt>
<trkpt lat="47.436756" lon="10.922012">
<ele>866.698</ele>
<time>2020-09-11T16:59:18Z</time>
</trkpt>
<trkpt lat="47.436707" lon="10.921981">
<ele>867.009</ele>
<time>2020-09-11T16:59:19Z</time>
</trkpt>
<trkpt lat="47.436653" lon="10.921949">
<ele>867.233</ele>
<time>2020-09-11T16:59:20Z</time>
</trkpt>
<trkpt lat="47.4366" lon="10.92192">
<ele>867.444</ele>
<time>2020-09-11T16:59:21Z</time>
</trkpt>
<trkpt lat="47.43655" lon="10.921888">
<ele>867.584</ele>
<time>2020-09-11T16:59:22Z</time>
</trkpt>
<trkpt lat="47.436497" lon="10.921857">
<ele>867.69</ele>
<time>2020-09-11T16:59:23Z</time>
</trkpt>
<trkpt lat="47.436451" lon="10.921824">
<ele>867.768</ele>
<time>2020-09-11T16:59:24Z</time>
</trkpt>
<trkpt lat="47.436401" lon="10.921794">
<ele>867.813</ele>
<time>2020-09-11T16:59:25Z</time>
</trkpt>
<trkpt lat="47.436356" lon="10.921762">
<ele>868.099</ele>
<time>2020-09-11T16:59:26Z</time>
</trkpt>
<trkpt lat="47.43631" lon="10.92173">
<ele>868.342</ele>
<time>2020-09-11T16:59:27Z</time>
</trkpt>
<trkpt lat="47.43626" lon="10.921697">
<ele>868.512</ele>
<time>2020-09-11T16:59:28Z</time>
</trkpt>
<trkpt lat="47.436214" lon="10.921663">
<ele>868.645</ele>
<time>2020-09-11T16:59:29Z</time>
</trkpt>
<trkpt lat="47.436172" lon="10.921627">
<ele>868.74</ele>
<time>2020-09-11T16:59:30Z</time>
</trkpt>
<trkpt lat="47.436127" lon="10.921589">
<ele>868.834</ele>
<time>2020-09-11T16:59:31Z</time>
</trkpt>
<trkpt lat="47.436085" lon="10.92155">
<ele>868.896</ele>
<time>2020-09-11T16:59:32Z</time>
</trkpt>
<trkpt lat="47.436039" lon="10.921512">
<ele>868.924</ele>
<time>2020-09-11T16:59:33Z</time>
</trkpt>
<trkpt lat="47.435993" lon="10.921474">
<ele>868.924</ele>
<time>2020-09-11T16:59:34Z</time>
</trkpt>
<trkpt lat="47.435955" lon="10.921432">
<ele>868.924</ele>
<time>2020-09-11T16:59:35Z</time>
</trkpt>
<trkpt lat="47.435909" lon="10.921393">
<ele>869.187</ele>
<time>2020-09-11T16:59:36Z</time>
</trkpt>
<trkpt lat="47.435863" lon="10.921351">
<ele>869.395</ele>
<time>2020-09-11T16:59:37Z</time>
</trkpt>
<trkpt lat="47.435822" lon="10.921313">
<ele>869.553</ele>
<time>2020-09-11T16:59:38Z</time>
</trkpt>
<trkpt lat="47.435776" lon="10.921275">
<ele>869.671</ele>
<time>2020-09-11T16:59:39Z</time>
</trkpt>
<trkpt lat="47.43573" lon="10.921239">
<ele>869.753</ele>
<time>2020-09-11T16:59:40Z</time>
</trkpt>
<trkpt lat="47.435688" lon="10.921199">
<ele>869.837</ele>
<time>2020-09-11T16:59:41Z</time>
</trkpt>
<trkpt lat="47.435642" lon="10.921158">
<ele>870.135</ele>
<time>2020-09-11T16:59:42Z</time>
</trkpt>
<trkpt lat="47.435596" lon="10.921118">
<ele>870.364</ele>
<time>2020-09-11T16:59:43Z</time>
</trkpt>
<trkpt lat="47.435555" lon="10.92108">
<ele>870.618</ele>
<time>2020-09-11T16:59:44Z</time>
</trkpt>
<trkpt lat="47.435509" lon="10.921043">
<ele>870.743</ele>
<time>2020-09-11T16:59:45Z</time>
</trkpt>
<trkpt lat="47.435463" lon="10.921006">
<ele>870.829</ele>
<time>2020-09-11T16:59:46Z</time>
</trkpt>
<trkpt lat="47.435421" lon="10.920967">
<ele>870.883</ele>
<time>2020-09-11T16:59:47Z</time>
</trkpt>
<trkpt lat="47.435375" lon="10.92093">
<ele>870.909</ele>
<time>2020-09-11T16:59:48Z</time>
</trkpt>
<trkpt lat="47.435333" lon="10.920892">
<ele>870.913</ele>
<time>2020-09-11T16:59:49Z</time>
</trkpt>
<trkpt lat="47.435291" lon="10.920856">
<ele>870.913</ele>
<time>2020-09-11T16:59:50Z</time>
</trkpt>
<trkpt lat="47.435246" lon="10.92082">
<ele>870.913</ele>
<time>2020-09-11T16:59:51Z</time>
</trkpt>
<trkpt lat="47.435211" lon="10.920785">
<ele>871.207</ele>
<time>2020-09-11T16:59:52Z</time>
</trkpt>
<trkpt lat="47.435173" lon="10.920745">
<ele>871.433</ele>
<time>2020-09-11T16:59:53Z</time>
</trkpt>
<trkpt lat="47.435135" lon="10.920709">
<ele>871.604</ele>
<time>2020-09-11T16:59:54Z</time>
</trkpt>
<trkpt lat="47.435097" lon="10.920673">
<ele>871.73</ele>
<time>2020-09-11T16:59:55Z</time>
</trkpt>
<trkpt lat="47.435059" lon="10.920638">
<ele>871.819</ele>
<time>2020-09-11T16:59:56Z</time>
</trkpt>
<trkpt lat="47.435017" lon="10.920605">
<ele>871.871</ele>
<time>2020-09-11T16:59:57Z</time>
</trkpt>
<trkpt lat="47.434982" lon="10.920573">
<ele>872.123</ele>
<time>2020-09-11T16:59:58Z</time>
</trkpt>
<trkpt lat="47.434944" lon="10.920539">
<ele>872.307</ele>
<time>2020-09-11T16:59:59Z</time>
</trkpt>
<trkpt lat="47.434902" lon="10.920506">
<ele>872.434</ele>
<time>2020-09-11T17:00:00Z</time>
</trkpt>
<trkpt lat="47.43486" lon="10.920472">
<ele>872.567</ele>
<time>2020-09-11T17:00:01Z</time>
</trkpt>
<trkpt lat="47.434822" lon="10.920437">
<ele>872.67</ele>
<time>2020-09-11T17:00:02Z</time>
</trkpt>
<trkpt lat="47.43478" lon="10.920405">
<ele>872.742</ele>
<time>2020-09-11T17:00:03Z</time>
</trkpt>
<trkpt lat="47.434738" lon="10.92037">
<ele>872.786</ele>
<time>2020-09-11T17:00:04Z</time>
</trkpt>
<trkpt lat="47.434696" lon="10.920335">
<ele>873.057</ele>
<time>2020-09-11T17:00:05Z</time>
</trkpt>
<trkpt lat="47.434654" lon="10.920303">
<ele>873.296</ele>
<time>2020-09-11T17:00:06Z</time>
</trkpt>
<trkpt lat="47.434605" lon="10.92027">
<ele>873.458</ele>
<time>2020-09-11T17:00:07Z</time>
</trkpt>
<trkpt lat="47.434559" lon="10.920236">
<ele>873.577</ele>
<time>2020-09-11T17:00:08Z</time>
</trkpt>
<trkpt lat="47.434517" lon="10.9202">
<ele>873.664</ele>
<time>2020-09-11T17:00:09Z</time>
</trkpt>
<trkpt lat="47.434467" lon="10.920168">
<ele>873.727</ele>
<time>2020-09-11T17:00:10Z</time>
</trkpt>
<trkpt lat="47.434429" lon="10.920139">
<ele>873.78</ele>
<time>2020-09-11T17:00:11Z</time>
</trkpt>
<trkpt lat="47.434387" lon="10.920115">
<ele>873.806</ele>
<time>2020-09-11T17:00:12Z</time>
</trkpt>
<trkpt lat="47.434341" lon="10.920091">
<ele>873.806</ele>
<time>2020-09-11T17:00:13Z</time>
</trkpt>
<trkpt lat="47.434303" lon="10.920065">
<ele>873.806</ele>
<time>2020-09-11T17:00:14Z</time>
</trkpt>
<trkpt lat="47.434261" lon="10.920038">
<ele>873.806</ele>
<time>2020-09-11T17:00:15Z</time>
</trkpt>
<trkpt lat="47.434223" lon="10.920013">
<ele>873.806</ele>
<time>2020-09-11T17:00:16Z</time>
</trkpt>
<trkpt lat="47.434181" lon="10.919987">
<ele>874.076</ele>
<time>2020-09-11T17:00:17Z</time>
</trkpt>
<trkpt lat="47.434139" lon="10.919961">
<ele>874.294</ele>
<time>2020-09-11T17:00:18Z</time>
</trkpt>
<trkpt lat="47.434105" lon="10.919938">
<ele>874.469</ele>
<time>2020-09-11T17:00:19Z</time>
</trkpt>
<trkpt lat="47.434059" lon="10.919911">
<ele>874.586</ele>
<time>2020-09-11T17:00:20Z</time>
</trkpt>
<trkpt lat="47.434021" lon="10.919886">
<ele>874.712</ele>
<time>2020-09-11T17:00:21Z</time>
</trkpt>
<trkpt lat="47.433975" lon="10.919854">
<ele>874.805</ele>
<time>2020-09-11T17:00:22Z</time>
</trkpt>
<trkpt lat="47.433941" lon="10.919825">
<ele>874.86</ele>
<time>2020-09-11T17:00:23Z</time>
</trkpt>
<trkpt lat="47.433899" lon="10.919793">
<ele>875.158</ele>
<time>2020-09-11T17:00:24Z</time>
</trkpt>
<trkpt lat="47.433857" lon="10.91976">
<ele>875.439</ele>
<time>2020-09-11T17:00:25Z</time>
</trkpt>
<trkpt lat="47.433815" lon="10.919726">
<ele>875.618</ele>
<time>2020-09-11T17:00:26Z</time>
</trkpt>
<trkpt lat="47.433773" lon="10.919695">
<ele>875.747</ele>
<time>2020-09-11T17:00:27Z</time>
</trkpt>
<trkpt lat="47.433731" lon="10.919663">
<ele>875.838</ele>
<time>2020-09-11T17:00:28Z</time>
</trkpt>
<trkpt lat="47.433685" lon="10.919634">
<ele>875.901</ele>
<time>2020-09-11T17:00:29Z</time>
</trkpt>
<trkpt lat="47.433647" lon="10.919607">
<ele>875.946</ele>
<time>2020-09-11T17:00:30Z</time>
</trkpt>
<trkpt lat="47.433601" lon="10.91958">
<ele>875.976</ele>
<time>2020-09-11T17:00:31Z</time>
</trkpt>
<trkpt lat="47.433559" lon="10.919553">
<ele>875.976</ele>
<time>2020-09-11T17:00:32Z</time>
</trkpt>
<trkpt lat="47.433521" lon="10.919528">
<ele>875.976</ele>
<time>2020-09-11T17:00:33Z</time>
</trkpt>
<trkpt lat="47.433483" lon="10.919508">
<ele>875.976</ele>
<time>2020-09-11T17:00:34Z</time>
</trkpt>
<trkpt lat="47.433449" lon="10.919487">
<ele>875.976</ele>
<time>2020-09-11T17:00:35Z</time>
</trkpt>
<trkpt lat="47.433411" lon="10.919462">
<ele>876.231</ele>
<time>2020-09-11T17:00:36Z</time>
</trkpt>
<trkpt lat="47.433372" lon="10.919437">
<ele>876.43</ele>
<time>2020-09-11T17:00:37Z</time>
</trkpt>
<trkpt lat="47.433334" lon="10.919414">
<ele>876.593</ele>
<time>2020-09-11T17:00:38Z</time>
</trkpt>
<trkpt lat="47.433296" lon="10.919392">
<ele>876.712</ele>
<time>2020-09-11T17:00:39Z</time>
</trkpt>
<trkpt lat="47.433262" lon="10.919368">
<ele>876.801</ele>
<time>2020-09-11T17:00:40Z</time>
</trkpt>
<trkpt lat="47.433224" lon="10.919347">
<ele>876.887</ele>
<time>2020-09-11T17:00:41Z</time>
</trkpt>
<trkpt lat="47.433189" lon="10.919324">
<ele>877.163</ele>
<time>2020-09-11T17:00:42Z</time>
</trkpt>
<trkpt lat="47.433151" lon="10.919301">
<ele>877.373</ele>
<time>2020-09-11T17:00:43Z</time>
</trkpt>
<trkpt lat="47.433117" lon="10.919276">
<ele>877.608</ele>
<time>2020-09-11T17:00:44Z</time>
</trkpt>
<trkpt lat="47.433079" lon="10.919253">
<ele>877.719</ele>
<time>2020-09-11T17:00:45Z</time>
</trkpt>
<trkpt lat="47.433041" lon="10.91923">
<ele>877.803</ele>
<time>2020-09-11T17:00:46Z</time>
</trkpt>
<trkpt lat="47.433002" lon="10.919203">
<ele>877.849</ele>
<time>2020-09-11T17:00:47Z</time>
</trkpt>
<trkpt lat="47.432968" lon="10.919177">
<ele>878.125</ele>
<time>2020-09-11T17:00:48Z</time>
</trkpt>
<trkpt lat="47.43293" lon="10.91915">
<ele>878.322</ele>
<time>2020-09-11T17:00:49Z</time>
</trkpt>
<trkpt lat="47.432896" lon="10.919125">
<ele>878.457</ele>
<time>2020-09-11T17:00:50Z</time>
</trkpt>
<trkpt lat="47.432861" lon="10.9191">
<ele>878.603</ele>
<time>2020-09-11T17:00:51Z</time>
</trkpt>
<trkpt lat="47.432823" lon="10.919075">
<ele>878.705</ele>
<time>2020-09-11T17:00:52Z</time>
</trkpt>
<trkpt lat="47.432781" lon="10.919052">
<ele>879.035</ele>
<time>2020-09-11T17:00:53Z</time>
</trkpt>
<trkpt lat="47.432743" lon="10.919028">
<ele>879.294</ele>
<time>2020-09-11T17:00:54Z</time>
</trkpt>
<trkpt lat="47.432705" lon="10.919003">
<ele>879.486</ele>
<time>2020-09-11T17:00:55Z</time>
</trkpt>
<trkpt lat="47.432671" lon="10.918982">
<ele>879.676</ele>
<time>2020-09-11T17:00:56Z</time>
</trkpt>
<trkpt lat="47.432636" lon="10.91896">
<ele>879.765</ele>
<time>2020-09-11T17:00:57Z</time>
</trkpt>
<trkpt lat="47.432598" lon="10.918939">
<ele>879.813</ele>
<time>2020-09-11T17:00:58Z</time>
</trkpt>
<trkpt lat="47.432564" lon="10.918914">
<ele>879.843</ele>
<time>2020-09-11T17:00:59Z</time>
</trkpt>
<trkpt lat="47.432526" lon="10.918888">
<ele>879.866</ele>
<time>2020-09-11T17:01:00Z</time>
</trkpt>
<trkpt lat="47.432487" lon="10.918867">
<ele>879.866</ele>
<time>2020-09-11T17:01:01Z</time>
</trkpt>
<trkpt lat="47.432446" lon="10.918845">
<ele>880.164</ele>
<time>2020-09-11T17:01:02Z</time>
</trkpt>
<trkpt lat="47.432407" lon="10.918821">
<ele>880.398</ele>
<time>2020-09-11T17:01:03Z</time>
</trkpt>
<trkpt lat="47.432369" lon="10.918798">
<ele>880.574</ele>
<time>2020-09-11T17:01:04Z</time>
</trkpt>
<trkpt lat="47.432327" lon="10.918778">
<ele>880.7</ele>
<time>2020-09-11T17:01:05Z</time>
</trkpt>
<trkpt lat="47.432285" lon="10.91876">
<ele>880.784</ele>
<time>2020-09-11T17:01:06Z</time>
</trkpt>
<trkpt lat="47.432243" lon="10.918743">
<ele>880.838</ele>
<time>2020-09-11T17:01:07Z</time>
</trkpt>
<trkpt lat="47.432205" lon="10.918729">
<ele>880.861</ele>
<time>2020-09-11T17:01:08Z</time>
</trkpt>
<trkpt lat="47.432163" lon="10.918715">
<ele>880.861</ele>
<time>2020-09-11T17:01:09Z</time>
</trkpt>
<trkpt lat="47.432117" lon="10.918704">
<ele>880.861</ele>
<time>2020-09-11T17:01:10Z</time>
</trkpt>
<trkpt lat="47.432079" lon="10.918692">
<ele>881.081</ele>
<time>2020-09-11T17:01:11Z</time>
</trkpt>
<trkpt lat="47.43203" lon="10.91868">
<ele>881.266</ele>
<time>2020-09-11T17:01:12Z</time>
</trkpt>
<trkpt lat="47.431984" lon="10.918671">
<ele>881.419</ele>
<time>2020-09-11T17:01:13Z</time>
</trkpt>
<trkpt lat="47.431942" lon="10.91866">
<ele>881.542</ele>
<time>2020-09-11T17:01:14Z</time>
</trkpt>
<trkpt lat="47.431892" lon="10.918648">
<ele>881.637</ele>
<time>2020-09-11T17:01:15Z</time>
</trkpt>
<trkpt lat="47.43185" lon="10.918636">
<ele>881.705</ele>
<time>2020-09-11T17:01:16Z</time>
</trkpt>
<trkpt lat="47.431801" lon="10.918625">
<ele>881.743</ele>
<time>2020-09-11T17:01:17Z</time>
</trkpt>
<trkpt lat="47.431755" lon="10.918613">
<ele>882.013</ele>
<time>2020-09-11T17:01:18Z</time>
</trkpt>
<trkpt lat="47.431709" lon="10.918601">
<ele>882.217</ele>
<time>2020-09-11T17:01:19Z</time>
</trkpt>
<trkpt lat="47.43166" lon="10.918589">
<ele>882.35</ele>
<time>2020-09-11T17:01:20Z</time>
</trkpt>
<trkpt lat="47.431618" lon="10.918576">
<ele>882.495</ele>
<time>2020-09-11T17:01:21Z</time>
</trkpt>
<trkpt lat="47.431572" lon="10.918567">
<ele>882.606</ele>
<time>2020-09-11T17:01:22Z</time>
</trkpt>
<trkpt lat="47.43153" lon="10.918553">
<ele>882.684</ele>
<time>2020-09-11T17:01:23Z</time>
</trkpt>
<trkpt lat="47.43148" lon="10.918536">
<ele>882.734</ele>
<time>2020-09-11T17:01:24Z</time>
</trkpt>
<trkpt lat="47.431435" lon="10.91852">
<ele>883.024</ele>
<time>2020-09-11T17:01:25Z</time>
</trkpt>
<trkpt lat="47.431389" lon="10.918505">
<ele>883.289</ele>
<time>2020-09-11T17:01:26Z</time>
</trkpt>
<trkpt lat="47.431335" lon="10.918489">
<ele>883.469</ele>
<time>2020-09-11T17:01:27Z</time>
</trkpt>
<trkpt lat="47.431293" lon="10.918473">
<ele>883.6</ele>
<time>2020-09-11T17:01:28Z</time>
</trkpt>
<trkpt lat="47.431244" lon="10.918455">
<ele>883.67</ele>
<time>2020-09-11T17:01:29Z</time>
</trkpt>
<trkpt lat="47.431198" lon="10.918438">
<ele>883.984</ele>
<time>2020-09-11T17:01:30Z</time>
</trkpt>
<trkpt lat="47.431149" lon="10.918424">
<ele>884.253</ele>
<time>2020-09-11T17:01:31Z</time>
</trkpt>
<trkpt lat="47.431103" lon="10.918408">
<ele>884.451</ele>
<time>2020-09-11T17:01:32Z</time>
</trkpt>
<trkpt lat="47.431061" lon="10.918393">
<ele>884.586</ele>
<time>2020-09-11T17:01:33Z</time>
</trkpt>
<trkpt lat="47.431015" lon="10.91838">
<ele>884.691</ele>
<time>2020-09-11T17:01:34Z</time>
</trkpt>
<trkpt lat="47.430973" lon="10.918366">
<ele>884.768</ele>
<time>2020-09-11T17:01:35Z</time>
</trkpt>
<trkpt lat="47.430923" lon="10.918352">
<ele>884.819</ele>
<time>2020-09-11T17:01:36Z</time>
</trkpt>
<trkpt lat="47.430878" lon="10.918337">
<ele>884.843</ele>
<time>2020-09-11T17:01:37Z</time>
</trkpt>
<trkpt lat="47.430836" lon="10.918321">
<ele>884.843</ele>
<time>2020-09-11T17:01:38Z</time>
</trkpt>
<trkpt lat="47.430786" lon="10.918303">
<ele>885.064</ele>
<time>2020-09-11T17:01:39Z</time>
</trkpt>
<trkpt lat="47.43074" lon="10.918287">
<ele>885.223</ele>
<time>2020-09-11T17:01:40Z</time>
</trkpt>
<trkpt lat="47.430687" lon="10.918272">
<ele>885.387</ele>
<time>2020-09-11T17:01:41Z</time>
</trkpt>
<trkpt lat="47.430637" lon="10.918255">
<ele>885.515</ele>
<time>2020-09-11T17:01:42Z</time>
</trkpt>
<trkpt lat="47.430584" lon="10.918239">
<ele>885.601</ele>
<time>2020-09-11T17:01:43Z</time>
</trkpt>
<trkpt lat="47.430538" lon="10.918223">
<ele>885.97</ele>
<time>2020-09-11T17:01:44Z</time>
</trkpt>
<trkpt lat="47.430485" lon="10.918208">
<ele>886.262</ele>
<time>2020-09-11T17:01:45Z</time>
</trkpt>
<trkpt lat="47.430435" lon="10.918191">
<ele>886.481</ele>
<time>2020-09-11T17:01:46Z</time>
</trkpt>
<trkpt lat="47.430386" lon="10.918175">
<ele>886.648</ele>
<time>2020-09-11T17:01:47Z</time>
</trkpt>
<trkpt lat="47.43034" lon="10.918159">
<ele>887.005</ele>
<time>2020-09-11T17:01:48Z</time>
</trkpt>
<trkpt lat="47.43029" lon="10.918142">
<ele>887.275</ele>
<time>2020-09-11T17:01:49Z</time>
</trkpt>
<trkpt lat="47.430244" lon="10.918125">
<ele>887.47</ele>
<time>2020-09-11T17:01:50Z</time>
</trkpt>
<trkpt lat="47.430195" lon="10.918109">
<ele>887.648</ele>
<time>2020-09-11T17:01:51Z</time>
</trkpt>
<trkpt lat="47.430145" lon="10.918092">
<ele>887.762</ele>
<time>2020-09-11T17:01:52Z</time>
</trkpt>
<trkpt lat="47.430096" lon="10.918078">
<ele>887.843</ele>
<time>2020-09-11T17:01:53Z</time>
</trkpt>
<trkpt lat="47.430046" lon="10.918069">
<ele>887.893</ele>
<time>2020-09-11T17:01:54Z</time>
</trkpt>
<trkpt lat="47.429996" lon="10.91806">
<ele>888.164</ele>
<time>2020-09-11T17:01:55Z</time>
</trkpt>
<trkpt lat="47.429947" lon="10.918052">
<ele>888.406</ele>
<time>2020-09-11T17:01:56Z</time>
</trkpt>
<trkpt lat="47.429897" lon="10.91805">
<ele>888.568</ele>
<time>2020-09-11T17:01:57Z</time>
</trkpt>
<trkpt lat="47.429848" lon="10.91805">
<ele>888.656</ele>
<time>2020-09-11T17:01:58Z</time>
</trkpt>
<trkpt lat="47.429798" lon="10.918053">
<ele>888.996</ele>
<time>2020-09-11T17:01:59Z</time>
</trkpt>
<trkpt lat="47.429745" lon="10.91806">
<ele>889.248</ele>
<time>2020-09-11T17:02:00Z</time>
</trkpt>
<trkpt lat="47.429695" lon="10.918067">
<ele>889.484</ele>
<time>2020-09-11T17:02:01Z</time>
</trkpt>
<trkpt lat="47.429646" lon="10.918074">
<ele>889.651</ele>
<time>2020-09-11T17:02:02Z</time>
</trkpt>
<trkpt lat="47.4296" lon="10.918085">
<ele>889.76</ele>
<time>2020-09-11T17:02:03Z</time>
</trkpt>
<trkpt lat="47.42955" lon="10.918105">
<ele>889.839</ele>
<time>2020-09-11T17:02:04Z</time>
</trkpt>
<trkpt lat="47.429501" lon="10.918128">
<ele>889.888</ele>
<time>2020-09-11T17:02:05Z</time>
</trkpt>
<trkpt lat="47.429451" lon="10.918147">
<ele>889.913</ele>
<time>2020-09-11T17:02:06Z</time>
</trkpt>
<trkpt lat="47.429409" lon="10.918168">
<ele>889.913</ele>
<time>2020-09-11T17:02:07Z</time>
</trkpt>
<trkpt lat="47.429352" lon="10.918193">
<ele>889.913</ele>
<time>2020-09-11T17:02:08Z</time>
</trkpt>
<trkpt lat="47.429302" lon="10.918221">
<ele>889.913</ele>
<time>2020-09-11T17:02:09Z</time>
</trkpt>
<trkpt lat="47.429249" lon="10.918248">
<ele>889.913</ele>
<time>2020-09-11T17:02:10Z</time>
</trkpt>
<trkpt lat="47.429199" lon="10.91827">
<ele>889.913</ele>
<time>2020-09-11T17:02:11Z</time>
</trkpt>
<trkpt lat="47.42915" lon="10.918288">
<ele>889.913</ele>
<time>2020-09-11T17:02:12Z</time>
</trkpt>
<trkpt lat="47.4291" lon="10.918308">
<ele>889.913</ele>
<time>2020-09-11T17:02:13Z</time>
</trkpt>
<trkpt lat="47.42905" lon="10.918328">
<ele>889.913</ele>
<time>2020-09-11T17:02:14Z</time>
</trkpt>
<trkpt lat="47.428993" lon="10.918348">
<ele>889.913</ele>
<time>2020-09-11T17:02:15Z</time>
</trkpt>
<trkpt lat="47.428944" lon="10.918365">
<ele>889.913</ele>
<time>2020-09-11T17:02:16Z</time>
</trkpt>
<trkpt lat="47.428886" lon="10.91838">
<ele>889.913</ele>
<time>2020-09-11T17:02:17Z</time>
</trkpt>
<trkpt lat="47.428837" lon="10.918392">
<ele>889.913</ele>
<time>2020-09-11T17:02:18Z</time>
</trkpt>
<trkpt lat="47.428787" lon="10.918398">
<ele>889.913</ele>
<time>2020-09-11T17:02:19Z</time>
</trkpt>
<trkpt lat="47.42873" lon="10.9184">
<ele>889.913</ele>
<time>2020-09-11T17:02:20Z</time>
</trkpt>
<trkpt lat="47.428677" lon="10.918398">
<ele>889.913</ele>
<time>2020-09-11T17:02:21Z</time>
</trkpt>
<trkpt lat="47.428619" lon="10.918395">
<ele>889.913</ele>
<time>2020-09-11T17:02:22Z</time>
</trkpt>
<trkpt lat="47.428562" lon="10.918388">
<ele>889.913</ele>
<time>2020-09-11T17:02:23Z</time>
</trkpt>
<trkpt lat="47.428501" lon="10.918384">
<ele>889.913</ele>
<time>2020-09-11T17:02:24Z</time>
</trkpt>
<trkpt lat="47.428444" lon="10.918377">
<ele>889.913</ele>
<time>2020-09-11T17:02:25Z</time>
</trkpt>
<trkpt lat="47.428394" lon="10.91837">
<ele>889.913</ele>
<time>2020-09-11T17:02:26Z</time>
</trkpt>
<trkpt lat="47.428333" lon="10.918362">
<ele>889.913</ele>
<time>2020-09-11T17:02:27Z</time>
</trkpt>
<trkpt lat="47.428284" lon="10.918357">
<ele>889.913</ele>
<time>2020-09-11T17:02:28Z</time>
</trkpt>
<trkpt lat="47.42823" lon="10.918352">
<ele>889.913</ele>
<time>2020-09-11T17:02:29Z</time>
</trkpt>
<trkpt lat="47.428173" lon="10.918346">
<ele>889.913</ele>
<time>2020-09-11T17:02:30Z</time>
</trkpt>
<trkpt lat="47.42812" lon="10.91834">
<ele>889.913</ele>
<time>2020-09-11T17:02:31Z</time>
</trkpt>
<trkpt lat="47.428062" lon="10.918335">
<ele>889.913</ele>
<time>2020-09-11T17:02:32Z</time>
</trkpt>
<trkpt lat="47.428005" lon="10.91833">
<ele>889.913</ele>
<time>2020-09-11T17:02:33Z</time>
</trkpt>
<trkpt lat="47.427948" lon="10.918323">
<ele>889.913</ele>
<time>2020-09-11T17:02:34Z</time>
</trkpt>
<trkpt lat="47.427891" lon="10.918321">
<ele>890.161</ele>
<time>2020-09-11T17:02:35Z</time>
</trkpt>
<trkpt lat="47.427834" lon="10.918317">
<ele>890.356</ele>
<time>2020-09-11T17:02:36Z</time>
</trkpt>
<trkpt lat="47.42778" lon="10.918312">
<ele>890.5</ele>
<time>2020-09-11T17:02:37Z</time>
</trkpt>
<trkpt lat="47.427719" lon="10.918305">
<ele>890.608</ele>
<time>2020-09-11T17:02:38Z</time>
</trkpt>
<trkpt lat="47.427666" lon="10.918298">
<ele>890.687</ele>
<time>2020-09-11T17:02:39Z</time>
</trkpt>
<trkpt lat="47.427608" lon="10.918291">
<ele>890.744</ele>
<time>2020-09-11T17:02:40Z</time>
</trkpt>
<trkpt lat="47.427551" lon="10.918285">
<ele>890.795</ele>
<time>2020-09-11T17:02:41Z</time>
</trkpt>
<trkpt lat="47.427498" lon="10.918281">
<ele>890.819</ele>
<time>2020-09-11T17:02:42Z</time>
</trkpt>
<trkpt lat="47.427448" lon="10.918275">
<ele>890.819</ele>
<time>2020-09-11T17:02:43Z</time>
</trkpt>
<trkpt lat="47.427395" lon="10.918272">
<ele>890.819</ele>
<time>2020-09-11T17:02:44Z</time>
</trkpt>
<trkpt lat="47.427345" lon="10.91827">
<ele>890.819</ele>
<time>2020-09-11T17:02:45Z</time>
</trkpt>
<trkpt lat="47.427292" lon="10.918264">
<ele>890.819</ele>
<time>2020-09-11T17:02:46Z</time>
</trkpt>
<trkpt lat="47.42725" lon="10.918258">
<ele>890.819</ele>
<time>2020-09-11T17:02:47Z</time>
</trkpt>
<trkpt lat="47.4272" lon="10.918252">
<ele>890.819</ele>
<time>2020-09-11T17:02:48Z</time>
</trkpt>
<trkpt lat="47.427155" lon="10.918245">
<ele>890.819</ele>
<time>2020-09-11T17:02:49Z</time>
</trkpt>
<trkpt lat="47.427113" lon="10.918239">
<ele>890.819</ele>
<time>2020-09-11T17:02:50Z</time>
</trkpt>
<trkpt lat="47.427067" lon="10.918232">
<ele>890.819</ele>
<time>2020-09-11T17:02:51Z</time>
</trkpt>
<trkpt lat="47.427029" lon="10.918226">
<ele>890.819</ele>
<time>2020-09-11T17:02:52Z</time>
</trkpt>
<trkpt lat="47.426987" lon="10.918224">
<ele>890.819</ele>
<time>2020-09-11T17:02:53Z</time>
</trkpt>
<trkpt lat="47.426945" lon="10.918223">
<ele>890.819</ele>
<time>2020-09-11T17:02:54Z</time>
</trkpt>
<trkpt lat="47.426903" lon="10.91822">
<ele>890.819</ele>
<time>2020-09-11T17:02:55Z</time>
</trkpt>
<trkpt lat="47.426868" lon="10.918214">
<ele>890.819</ele>
<time>2020-09-11T17:02:56Z</time>
</trkpt>
<trkpt lat="47.426834" lon="10.918205">
<ele>890.819</ele>
<time>2020-09-11T17:02:57Z</time>
</trkpt>
<trkpt lat="47.426807" lon="10.918179">
<ele>890.819</ele>
<time>2020-09-11T17:02:58Z</time>
</trkpt>
<trkpt lat="47.426796" lon="10.918142">
<ele>890.819</ele>
<time>2020-09-11T17:02:59Z</time>
</trkpt>
<trkpt lat="47.426781" lon="10.91811">
<ele>890.819</ele>
<time>2020-09-11T17:03:00Z</time>
</trkpt>
<trkpt lat="47.426769" lon="10.918083">
<ele>890.819</ele>
<time>2020-09-11T17:03:01Z</time>
</trkpt>
<trkpt lat="47.426765" lon="10.91806">
<ele>890.819</ele>
<time>2020-09-11T17:03:02Z</time>
</trkpt>
<trkpt lat="47.426762" lon="10.91805">
<ele>890.819</ele>
<time>2020-09-11T17:03:03Z</time>
</trkpt>
<trkpt lat="47.426765" lon="10.918046">
<ele>890.819</ele>
<time>2020-09-11T17:03:04Z</time>
</trkpt>
<trkpt lat="47.426769" lon="10.918053">
<ele>890.819</ele>
<time>2020-09-11T17:03:05Z</time>
</trkpt>
<trkpt lat="47.426765" lon="10.918053">
<ele>890.819</ele>
<time>2020-09-11T17:03:06Z</time>
</trkpt>
<trkpt lat="47.426765" lon="10.918058">
<ele>890.819</ele>
<time>2020-09-11T17:03:09Z</time>
</trkpt>
<trkpt lat="47.426769" lon="10.91806">
<ele>890.819</ele>
<time>2020-09-11T17:03:10Z</time>
</trkpt>
<trkpt lat="47.426769" lon="10.918065">
<ele>890.819</ele>
<time>2020-09-11T17:03:11Z</time>
</trkpt>
<trkpt lat="47.426781" lon="10.918098">
<ele>890.819</ele>
<time>2020-09-11T17:03:19Z</time>
</trkpt>
<trkpt lat="47.426785" lon="10.918112">
<ele>890.819</ele>
<time>2020-09-11T17:03:20Z</time>
</trkpt>
<trkpt lat="47.426785" lon="10.918117">
<ele>890.819</ele>
<time>2020-09-11T17:03:21Z</time>
</trkpt>
<trkpt lat="47.426785" lon="10.918119">
<ele>890.819</ele>
<time>2020-09-11T17:03:22Z</time>
</trkpt>
<trkpt lat="47.426785" lon="10.918125">
<ele>890.819</ele>
<time>2020-09-11T17:03:23Z</time>
</trkpt>
<trkpt lat="47.426773" lon="10.918163">
<ele>890.819</ele>
<time>2020-09-11T17:03:26Z</time>
</trkpt>
<trkpt lat="47.426762" lon="10.918188">
<ele>890.819</ele>
<time>2020-09-11T17:03:27Z</time>
</trkpt>
<trkpt lat="47.426739" lon="10.918199">
<ele>890.819</ele>
<time>2020-09-11T17:03:28Z</time>
</trkpt>
<trkpt lat="47.426712" lon="10.918201">
<ele>890.819</ele>
<time>2020-09-11T17:03:29Z</time>
</trkpt>
<trkpt lat="47.426674" lon="10.918203">
<ele>890.819</ele>
<time>2020-09-11T17:03:30Z</time>
</trkpt>
<trkpt lat="47.426636" lon="10.918208">
<ele>890.819</ele>
<time>2020-09-11T17:03:31Z</time>
</trkpt>
<trkpt lat="47.426594" lon="10.918217">
<ele>890.819</ele>
<time>2020-09-11T17:03:32Z</time>
</trkpt>
<trkpt lat="47.426552" lon="10.918228">
<ele>890.819</ele>
<time>2020-09-11T17:03:33Z</time>
</trkpt>
<trkpt lat="47.426506" lon="10.918242">
<ele>890.819</ele>
<time>2020-09-11T17:03:34Z</time>
</trkpt>
<trkpt lat="47.42646" lon="10.91826">
<ele>890.819</ele>
<time>2020-09-11T17:03:35Z</time>
</trkpt>
<trkpt lat="47.426414" lon="10.918282">
<ele>890.819</ele>
<time>2020-09-11T17:03:36Z</time>
</trkpt>
<trkpt lat="47.426373" lon="10.918302">
<ele>890.819</ele>
<time>2020-09-11T17:03:37Z</time>
</trkpt>
<trkpt lat="47.426327" lon="10.918322">
<ele>891.076</ele>
<time>2020-09-11T17:03:38Z</time>
</trkpt>
<trkpt lat="47.426285" lon="10.918346">
<ele>891.273</ele>
<time>2020-09-11T17:03:39Z</time>
</trkpt>
<trkpt lat="47.426239" lon="10.918373">
<ele>891.407</ele>
<time>2020-09-11T17:03:40Z</time>
</trkpt>
<trkpt lat="47.426193" lon="10.918398">
<ele>891.551</ele>
<time>2020-09-11T17:03:41Z</time>
</trkpt>
<trkpt lat="47.426151" lon="10.91842">
<ele>891.658</ele>
<time>2020-09-11T17:03:42Z</time>
</trkpt>
<trkpt lat="47.426109" lon="10.918448">
<ele>891.738</ele>
<time>2020-09-11T17:03:43Z</time>
</trkpt>
<trkpt lat="47.42606" lon="10.918477">
<ele>891.786</ele>
<time>2020-09-11T17:03:44Z</time>
</trkpt>
<trkpt lat="47.426018" lon="10.918503">
<ele>892.061</ele>
<time>2020-09-11T17:03:45Z</time>
</trkpt>
<trkpt lat="47.425964" lon="10.918533">
<ele>892.303</ele>
<time>2020-09-11T17:03:46Z</time>
</trkpt>
<trkpt lat="47.425919" lon="10.91856">
<ele>892.464</ele>
<time>2020-09-11T17:03:47Z</time>
</trkpt>
<trkpt lat="47.425873" lon="10.918587">
<ele>892.582</ele>
<time>2020-09-11T17:03:48Z</time>
</trkpt>
<trkpt lat="47.425827" lon="10.918612">
<ele>892.671</ele>
<time>2020-09-11T17:03:49Z</time>
</trkpt>
<trkpt lat="47.425781" lon="10.918638">
<ele>892.733</ele>
<time>2020-09-11T17:03:50Z</time>
</trkpt>
<trkpt lat="47.425735" lon="10.918665">
<ele>892.785</ele>
<time>2020-09-11T17:03:51Z</time>
</trkpt>
<trkpt lat="47.42569" lon="10.918698">
<ele>892.812</ele>
<time>2020-09-11T17:03:52Z</time>
</trkpt>
<trkpt lat="47.42564" lon="10.91873">
<ele>892.812</ele>
<time>2020-09-11T17:03:53Z</time>
</trkpt>
<trkpt lat="47.425594" lon="10.918765">
<ele>893.067</ele>
<time>2020-09-11T17:03:54Z</time>
</trkpt>
<trkpt lat="47.425545" lon="10.918795">
<ele>893.27</ele>
<time>2020-09-11T17:03:55Z</time>
</trkpt>
<trkpt lat="47.425495" lon="10.918827">
<ele>893.422</ele>
<time>2020-09-11T17:03:56Z</time>
</trkpt>
<trkpt lat="47.425442" lon="10.918855">
<ele>893.533</ele>
<time>2020-09-11T17:03:57Z</time>
</trkpt>
<trkpt lat="47.425392" lon="10.91888">
<ele>893.609</ele>
<time>2020-09-11T17:03:58Z</time>
</trkpt>
<trkpt lat="47.425335" lon="10.918912">
<ele>893.656</ele>
<time>2020-09-11T17:03:59Z</time>
</trkpt>
<trkpt lat="47.425278" lon="10.918945">
<ele>893.693</ele>
<time>2020-09-11T17:04:00Z</time>
</trkpt>
<trkpt lat="47.425224" lon="10.918977">
<ele>893.718</ele>
<time>2020-09-11T17:04:01Z</time>
</trkpt>
<trkpt lat="47.425171" lon="10.919008">
<ele>894.053</ele>
<time>2020-09-11T17:04:02Z</time>
</trkpt>
<trkpt lat="47.425114" lon="10.919033">
<ele>894.306</ele>
<time>2020-09-11T17:04:03Z</time>
</trkpt>
<trkpt lat="47.42506" lon="10.919056">
<ele>894.491</ele>
<time>2020-09-11T17:04:04Z</time>
</trkpt>
<trkpt lat="47.425003" lon="10.91908">
<ele>894.63</ele>
<time>2020-09-11T17:04:05Z</time>
</trkpt>
<trkpt lat="47.424946" lon="10.919098">
<ele>894.723</ele>
<time>2020-09-11T17:04:06Z</time>
</trkpt>
<trkpt lat="47.424892" lon="10.919117">
<ele>894.778</ele>
<time>2020-09-11T17:04:07Z</time>
</trkpt>
<trkpt lat="47.424839" lon="10.919129">
<ele>894.805</ele>
<time>2020-09-11T17:04:08Z</time>
</trkpt>
<trkpt lat="47.424782" lon="10.919144">
<ele>894.805</ele>
<time>2020-09-11T17:04:09Z</time>
</trkpt>
<trkpt lat="47.424728" lon="10.91916">
<ele>894.805</ele>
<time>2020-09-11T17:04:10Z</time>
</trkpt>
<trkpt lat="47.424675" lon="10.919169">
<ele>894.805</ele>
<time>2020-09-11T17:04:11Z</time>
</trkpt>
<trkpt lat="47.424618" lon="10.91918">
<ele>894.805</ele>
<time>2020-09-11T17:04:12Z</time>
</trkpt>
<trkpt lat="47.424564" lon="10.919192">
<ele>894.805</ele>
<time>2020-09-11T17:04:13Z</time>
</trkpt>
<trkpt lat="47.424511" lon="10.919202">
<ele>894.805</ele>
<time>2020-09-11T17:04:14Z</time>
</trkpt>
<trkpt lat="47.424454" lon="10.919213">
<ele>894.805</ele>
<time>2020-09-11T17:04:15Z</time>
</trkpt>
<trkpt lat="47.4244" lon="10.919227">
<ele>895.117</ele>
<time>2020-09-11T17:04:16Z</time>
</trkpt>
<trkpt lat="47.424347" lon="10.919238">
<ele>895.361</ele>
<time>2020-09-11T17:04:17Z</time>
</trkpt>
<trkpt lat="47.42429" lon="10.919251">
<ele>895.545</ele>
<time>2020-09-11T17:04:18Z</time>
</trkpt>
<trkpt lat="47.424232" lon="10.919265">
<ele>895.688</ele>
<time>2020-09-11T17:04:19Z</time>
</trkpt>
<trkpt lat="47.424183" lon="10.91928">
<ele>895.786</ele>
<time>2020-09-11T17:04:20Z</time>
</trkpt>
<trkpt lat="47.424129" lon="10.919297">
<ele>895.889</ele>
<time>2020-09-11T17:04:21Z</time>
</trkpt>
<trkpt lat="47.424076" lon="10.919315">
<ele>895.953</ele>
<time>2020-09-11T17:04:22Z</time>
</trkpt>
<trkpt lat="47.424023" lon="10.919334">
<ele>895.983</ele>
<time>2020-09-11T17:04:23Z</time>
</trkpt>
<trkpt lat="47.423965" lon="10.91936">
<ele>895.983</ele>
<time>2020-09-11T17:04:24Z</time>
</trkpt>
<trkpt lat="47.423916" lon="10.919387">
<ele>895.983</ele>
<time>2020-09-11T17:04:25Z</time>
</trkpt>
<trkpt lat="47.423866" lon="10.919415">
<ele>896.246</ele>
<time>2020-09-11T17:04:26Z</time>
</trkpt>
<trkpt lat="47.423813" lon="10.919447">
<ele>896.454</ele>
<time>2020-09-11T17:04:27Z</time>
</trkpt>
<trkpt lat="47.423767" lon="10.919478">
<ele>896.614</ele>
<time>2020-09-11T17:04:28Z</time>
</trkpt>
<trkpt lat="47.423717" lon="10.919506">
<ele>896.731</ele>
<time>2020-09-11T17:04:29Z</time>
</trkpt>
<trkpt lat="47.423672" lon="10.919532">
<ele>896.814</ele>
<time>2020-09-11T17:04:30Z</time>
</trkpt>
<trkpt lat="47.423622" lon="10.919553">
<ele>896.898</ele>
<time>2020-09-11T17:04:31Z</time>
</trkpt>
<trkpt lat="47.423573" lon="10.919576">
<ele>896.953</ele>
<time>2020-09-11T17:04:32Z</time>
</trkpt>
<trkpt lat="47.423519" lon="10.91959">
<ele>896.979</ele>
<time>2020-09-11T17:04:33Z</time>
</trkpt>
<trkpt lat="47.423473" lon="10.919601">
<ele>896.979</ele>
<time>2020-09-11T17:04:34Z</time>
</trkpt>
<trkpt lat="47.42342" lon="10.91961">
<ele>896.98</ele>
<time>2020-09-11T17:04:35Z</time>
</trkpt>
<trkpt lat="47.423374" lon="10.919615">
<ele>896.98</ele>
<time>2020-09-11T17:04:36Z</time>
</trkpt>
<trkpt lat="47.423317" lon="10.919618">
<ele>896.98</ele>
<time>2020-09-11T17:04:37Z</time>
</trkpt>
<trkpt lat="47.423264" lon="10.91962">
<ele>896.979</ele>
<time>2020-09-11T17:04:38Z</time>
</trkpt>
<trkpt lat="47.423214" lon="10.919617">
<ele>896.979</ele>
<time>2020-09-11T17:04:39Z</time>
</trkpt>
<trkpt lat="47.423161" lon="10.91961">
<ele>896.979</ele>
<time>2020-09-11T17:04:40Z</time>
</trkpt>
<trkpt lat="47.423111" lon="10.919597">
<ele>896.98</ele>
<time>2020-09-11T17:04:41Z</time>
</trkpt>
<trkpt lat="47.423054" lon="10.91958">
<ele>896.98</ele>
<time>2020-09-11T17:04:42Z</time>
</trkpt>
<trkpt lat="47.423" lon="10.919563">
<ele>897.271</ele>
<time>2020-09-11T17:04:43Z</time>
</trkpt>
<trkpt lat="47.422951" lon="10.919544">
<ele>897.494</ele>
<time>2020-09-11T17:04:44Z</time>
</trkpt>
<trkpt lat="47.422894" lon="10.919521">
<ele>897.665</ele>
<time>2020-09-11T17:04:45Z</time>
</trkpt>
<trkpt lat="47.42284" lon="10.919496">
<ele>897.786</ele>
<time>2020-09-11T17:04:46Z</time>
</trkpt>
<trkpt lat="47.422787" lon="10.919465">
<ele>897.873</ele>
<time>2020-09-11T17:04:47Z</time>
</trkpt>
<trkpt lat="47.422729" lon="10.919434">
<ele>897.926</ele>
<time>2020-09-11T17:04:48Z</time>
</trkpt>
<trkpt lat="47.42268" lon="10.919405">
<ele>897.954</ele>
<time>2020-09-11T17:04:49Z</time>
</trkpt>
<trkpt lat="47.422626" lon="10.919376">
<ele>897.976</ele>
<time>2020-09-11T17:04:50Z</time>
</trkpt>
<trkpt lat="47.422569" lon="10.919349">
<ele>897.976</ele>
<time>2020-09-11T17:04:51Z</time>
</trkpt>
<trkpt lat="47.42252" lon="10.919318">
<ele>897.976</ele>
<time>2020-09-11T17:04:52Z</time>
</trkpt>
<trkpt lat="47.422466" lon="10.919289">
<ele>897.976</ele>
<time>2020-09-11T17:04:53Z</time>
</trkpt>
<trkpt lat="47.422413" lon="10.919259">
<ele>897.976</ele>
<time>2020-09-11T17:04:54Z</time>
</trkpt>
<trkpt lat="47.422363" lon="10.919228">
<ele>898.245</ele>
<time>2020-09-11T17:04:55Z</time>
</trkpt>
<trkpt lat="47.42231" lon="10.919196">
<ele>898.455</ele>
<time>2020-09-11T17:04:56Z</time>
</trkpt>
<trkpt lat="47.422264" lon="10.919167">
<ele>898.621</ele>
<time>2020-09-11T17:04:57Z</time>
</trkpt>
<trkpt lat="47.422211" lon="10.919135">
<ele>898.741</ele>
<time>2020-09-11T17:04:58Z</time>
</trkpt>
<trkpt lat="47.422161" lon="10.919104">
<ele>898.825</ele>
<time>2020-09-11T17:04:59Z</time>
</trkpt>
<trkpt lat="47.422112" lon="10.919068">
<ele>898.889</ele>
<time>2020-09-11T17:05:00Z</time>
</trkpt>
<trkpt lat="47.422058" lon="10.919033">
<ele>898.946</ele>
<time>2020-09-11T17:05:01Z</time>
</trkpt>
<trkpt lat="47.422009" lon="10.918997">
<ele>898.973</ele>
<time>2020-09-11T17:05:02Z</time>
</trkpt>
<trkpt lat="47.421951" lon="10.918963">
<ele>898.973</ele>
<time>2020-09-11T17:05:03Z</time>
</trkpt>
<trkpt lat="47.421902" lon="10.918926">
<ele>898.973</ele>
<time>2020-09-11T17:05:04Z</time>
</trkpt>
<trkpt lat="47.421844" lon="10.91889">
<ele>898.973</ele>
<time>2020-09-11T17:05:05Z</time>
</trkpt>
<trkpt lat="47.421795" lon="10.918853">
<ele>898.973</ele>
<time>2020-09-11T17:05:06Z</time>
</trkpt>
<trkpt lat="47.421745" lon="10.918817">
<ele>898.973</ele>
<time>2020-09-11T17:05:07Z</time>
</trkpt>
<trkpt lat="47.421696" lon="10.918781">
<ele>898.973</ele>
<time>2020-09-11T17:05:08Z</time>
</trkpt>
<trkpt lat="47.421646" lon="10.918745">
<ele>899.214</ele>
<time>2020-09-11T17:05:09Z</time>
</trkpt>
<trkpt lat="47.421593" lon="10.918708">
<ele>899.387</ele>
<time>2020-09-11T17:05:10Z</time>
</trkpt>
<trkpt lat="47.421543" lon="10.918672">
<ele>899.563</ele>
<time>2020-09-11T17:05:11Z</time>
</trkpt>
<trkpt lat="47.421497" lon="10.918632">
<ele>899.704</ele>
<time>2020-09-11T17:05:12Z</time>
</trkpt>
<trkpt lat="47.421452" lon="10.918591">
<ele>899.814</ele>
<time>2020-09-11T17:05:13Z</time>
</trkpt>
<trkpt lat="47.421402" lon="10.91855">
<ele>899.895</ele>
<time>2020-09-11T17:05:14Z</time>
</trkpt>
<trkpt lat="47.421356" lon="10.918511">
<ele>899.946</ele>
<time>2020-09-11T17:05:15Z</time>
</trkpt>
<trkpt lat="47.421307" lon="10.918471">
<ele>899.971</ele>
<time>2020-09-11T17:05:16Z</time>
</trkpt>
<trkpt lat="47.421257" lon="10.918431">
<ele>899.971</ele>
<time>2020-09-11T17:05:17Z</time>
</trkpt>
<trkpt lat="47.421211" lon="10.918395">
<ele>899.971</ele>
<time>2020-09-11T17:05:18Z</time>
</trkpt>
<trkpt lat="47.421162" lon="10.918355">
<ele>899.971</ele>
<time>2020-09-11T17:05:19Z</time>
</trkpt>
<trkpt lat="47.421116" lon="10.918315">
<ele>899.971</ele>
<time>2020-09-11T17:05:20Z</time>
</trkpt>
<trkpt lat="47.42107" lon="10.918275">
<ele>900.257</ele>
<time>2020-09-11T17:05:21Z</time>
</trkpt>
<trkpt lat="47.421024" lon="10.918233">
<ele>900.498</ele>
<time>2020-09-11T17:05:22Z</time>
</trkpt>
<trkpt lat="47.420971" lon="10.918195">
<ele>900.696</ele>
<time>2020-09-11T17:05:23Z</time>
</trkpt>
<trkpt lat="47.420921" lon="10.918153">
<ele>900.854</ele>
<time>2020-09-11T17:05:24Z</time>
</trkpt>
<trkpt lat="47.420872" lon="10.918112">
<ele>900.976</ele>
<time>2020-09-11T17:05:25Z</time>
</trkpt>
<trkpt lat="47.42083" lon="10.91807">
<ele>901.051</ele>
<time>2020-09-11T17:05:26Z</time>
</trkpt>
<trkpt lat="47.42078" lon="10.918029">
<ele>901.338</ele>
<time>2020-09-11T17:05:27Z</time>
</trkpt>
<trkpt lat="47.420734" lon="10.917987">
<ele>901.556</ele>
<time>2020-09-11T17:05:28Z</time>
</trkpt>
<trkpt lat="47.420685" lon="10.917947">
<ele>901.707</ele>
<time>2020-09-11T17:05:29Z</time>
</trkpt>
<trkpt lat="47.420631" lon="10.917904">
<ele>901.8</ele>
<time>2020-09-11T17:05:30Z</time>
</trkpt>
<trkpt lat="47.420578" lon="10.917858">
<ele>901.906</ele>
<time>2020-09-11T17:05:31Z</time>
</trkpt>
<trkpt lat="47.420528" lon="10.917816">
<ele>901.983</ele>
<time>2020-09-11T17:05:32Z</time>
</trkpt>
<trkpt lat="47.420475" lon="10.917776">
<ele>902.033</ele>
<time>2020-09-11T17:05:33Z</time>
</trkpt>
<trkpt lat="47.420422" lon="10.917735">
<ele>902.056</ele>
<time>2020-09-11T17:05:34Z</time>
</trkpt>
<trkpt lat="47.420372" lon="10.917695">
<ele>902.33</ele>
<time>2020-09-11T17:05:35Z</time>
</trkpt>
<trkpt lat="47.420319" lon="10.917655">
<ele>902.541</ele>
<time>2020-09-11T17:05:36Z</time>
</trkpt>
<trkpt lat="47.420269" lon="10.917617">
<ele>902.703</ele>
<time>2020-09-11T17:05:37Z</time>
</trkpt>
<trkpt lat="47.420219" lon="10.917581">
<ele>902.82</ele>
<time>2020-09-11T17:05:38Z</time>
</trkpt>
<trkpt lat="47.420177" lon="10.917543">
<ele>902.904</ele>
<time>2020-09-11T17:05:39Z</time>
</trkpt>
<trkpt lat="47.420132" lon="10.91751">
<ele>902.968</ele>
<time>2020-09-11T17:05:40Z</time>
</trkpt>
<trkpt lat="47.420094" lon="10.91748">
<ele>903.025</ele>
<time>2020-09-11T17:05:41Z</time>
</trkpt>
<trkpt lat="47.420052" lon="10.917449">
<ele>903.262</ele>
<time>2020-09-11T17:05:42Z</time>
</trkpt>
<trkpt lat="47.420013" lon="10.917418">
<ele>903.511</ele>
<time>2020-09-11T17:05:43Z</time>
</trkpt>
<trkpt lat="47.419971" lon="10.917384">
<ele>903.673</ele>
<time>2020-09-11T17:05:44Z</time>
</trkpt>
<trkpt lat="47.41993" lon="10.917355">
<ele>903.795</ele>
<time>2020-09-11T17:05:45Z</time>
</trkpt>
<trkpt lat="47.419888" lon="10.917323">
<ele>903.883</ele>
<time>2020-09-11T17:05:46Z</time>
</trkpt>
<trkpt lat="47.419846" lon="10.917285">
<ele>903.936</ele>
<time>2020-09-11T17:05:47Z</time>
</trkpt>
<trkpt lat="47.4198" lon="10.917246">
<ele>903.96</ele>
<time>2020-09-11T17:05:48Z</time>
</trkpt>
<trkpt lat="47.41975" lon="10.917213">
<ele>903.96</ele>
<time>2020-09-11T17:05:49Z</time>
</trkpt>
<trkpt lat="47.419701" lon="10.917178">
<ele>903.96</ele>
<time>2020-09-11T17:05:50Z</time>
</trkpt>
<trkpt lat="47.419655" lon="10.917143">
<ele>904.212</ele>
<time>2020-09-11T17:05:51Z</time>
</trkpt>
<trkpt lat="47.419605" lon="10.917107">
<ele>904.42</ele>
<time>2020-09-11T17:05:52Z</time>
</trkpt>
<trkpt lat="47.419559" lon="10.917071">
<ele>904.589</ele>
<time>2020-09-11T17:05:53Z</time>
</trkpt>
<trkpt lat="47.41951" lon="10.917035">
<ele>904.715</ele>
<time>2020-09-11T17:05:54Z</time>
</trkpt>
<trkpt lat="47.419464" lon="10.916995">
<ele>904.796</ele>
<time>2020-09-11T17:05:55Z</time>
</trkpt>
<trkpt lat="47.419418" lon="10.916955">
<ele>905.121</ele>
<time>2020-09-11T17:05:56Z</time>
</trkpt>
<trkpt lat="47.419369" lon="10.916913">
<ele>905.377</ele>
<time>2020-09-11T17:05:57Z</time>
</trkpt>
<trkpt lat="47.419327" lon="10.916873">
<ele>905.572</ele>
<time>2020-09-11T17:05:58Z</time>
</trkpt>
<trkpt lat="47.419285" lon="10.916831">
<ele>905.705</ele>
<time>2020-09-11T17:05:59Z</time>
</trkpt>
<trkpt lat="47.419243" lon="10.916791">
<ele>905.788</ele>
<time>2020-09-11T17:06:00Z</time>
</trkpt>
<trkpt lat="47.419205" lon="10.916756">
<ele>905.871</ele>
<time>2020-09-11T17:06:01Z</time>
</trkpt>
<trkpt lat="47.419159" lon="10.916722">
<ele>906.166</ele>
<time>2020-09-11T17:06:02Z</time>
</trkpt>
<trkpt lat="47.419109" lon="10.916692">
<ele>906.393</ele>
<time>2020-09-11T17:06:03Z</time>
</trkpt>
<trkpt lat="47.419064" lon="10.916661">
<ele>906.649</ele>
<time>2020-09-11T17:06:04Z</time>
</trkpt>
<trkpt lat="47.419018" lon="10.916634">
<ele>906.777</ele>
<time>2020-09-11T17:06:05Z</time>
</trkpt>
<trkpt lat="47.418976" lon="10.916607">
<ele>906.867</ele>
<time>2020-09-11T17:06:06Z</time>
</trkpt>
<trkpt lat="47.41893" lon="10.916583">
<ele>906.928</ele>
<time>2020-09-11T17:06:07Z</time>
</trkpt>
<trkpt lat="47.41888" lon="10.916563">
<ele>906.953</ele>
<time>2020-09-11T17:06:08Z</time>
</trkpt>
<trkpt lat="47.418831" lon="10.916542">
<ele>906.953</ele>
<time>2020-09-11T17:06:09Z</time>
</trkpt>
<trkpt lat="47.418781" lon="10.91652">
<ele>906.953</ele>
<time>2020-09-11T17:06:10Z</time>
</trkpt>
<trkpt lat="47.418736" lon="10.916496">
<ele>906.953</ele>
<time>2020-09-11T17:06:11Z</time>
</trkpt>
<trkpt lat="47.41869" lon="10.916477">
<ele>906.953</ele>
<time>2020-09-11T17:06:12Z</time>
</trkpt>
<trkpt lat="47.418652" lon="10.916456">
<ele>906.953</ele>
<time>2020-09-11T17:06:13Z</time>
</trkpt>
<trkpt lat="47.41861" lon="10.916435">
<ele>907.228</ele>
<time>2020-09-11T17:06:14Z</time>
</trkpt>
<trkpt lat="47.418575" lon="10.916414">
<ele>907.435</ele>
<time>2020-09-11T17:06:15Z</time>
</trkpt>
<trkpt lat="47.418533" lon="10.916393">
<ele>907.596</ele>
<time>2020-09-11T17:06:16Z</time>
</trkpt>
<trkpt lat="47.418495" lon="10.91637">
<ele>907.722</ele>
<time>2020-09-11T17:06:17Z</time>
</trkpt>
<trkpt lat="47.418461" lon="10.916349">
<ele>907.793</ele>
<time>2020-09-11T17:06:18Z</time>
</trkpt>
<trkpt lat="47.418423" lon="10.916332">
<ele>908.073</ele>
<time>2020-09-11T17:06:19Z</time>
</trkpt>
<trkpt lat="47.418385" lon="10.916308">
<ele>908.289</ele>
<time>2020-09-11T17:06:20Z</time>
</trkpt>
<trkpt lat="47.418335" lon="10.916288">
<ele>908.488</ele>
<time>2020-09-11T17:06:21Z</time>
</trkpt>
<trkpt lat="47.418289" lon="10.916273">
<ele>908.623</ele>
<time>2020-09-11T17:06:22Z</time>
</trkpt>
<trkpt lat="47.41824" lon="10.916259">
<ele>908.71</ele>
<time>2020-09-11T17:06:23Z</time>
</trkpt>
<trkpt lat="47.41819" lon="10.916245">
<ele>909.066</ele>
<time>2020-09-11T17:06:24Z</time>
</trkpt>
<trkpt lat="47.418144" lon="10.916228">
<ele>909.345</ele>
<time>2020-09-11T17:06:25Z</time>
</trkpt>
<trkpt lat="47.418098" lon="10.91621">
<ele>909.552</ele>
<time>2020-09-11T17:06:26Z</time>
</trkpt>
<trkpt lat="47.418056" lon="10.91619">
<ele>909.722</ele>
<time>2020-09-11T17:06:27Z</time>
</trkpt>
<trkpt lat="47.418011" lon="10.916173">
<ele>909.809</ele>
<time>2020-09-11T17:06:28Z</time>
</trkpt>
<trkpt lat="47.417965" lon="10.916157">
<ele>909.868</ele>
<time>2020-09-11T17:06:29Z</time>
</trkpt>
<trkpt lat="47.417923" lon="10.91614">
<ele>909.917</ele>
<time>2020-09-11T17:06:30Z</time>
</trkpt>
<trkpt lat="47.417885" lon="10.916121">
<ele>909.947</ele>
<time>2020-09-11T17:06:31Z</time>
</trkpt>
<trkpt lat="47.417839" lon="10.916094">
<ele>909.947</ele>
<time>2020-09-11T17:06:32Z</time>
</trkpt>
<trkpt lat="47.417805" lon="10.91607">
<ele>909.947</ele>
<time>2020-09-11T17:06:33Z</time>
</trkpt>
<trkpt lat="47.417763" lon="10.916045">
<ele>909.947</ele>
<time>2020-09-11T17:06:34Z</time>
</trkpt>
<trkpt lat="47.417725" lon="10.91602">
<ele>910.212</ele>
<time>2020-09-11T17:06:35Z</time>
</trkpt>
<trkpt lat="47.41769" lon="10.915995">
<ele>910.421</ele>
<time>2020-09-11T17:06:36Z</time>
</trkpt>
<trkpt lat="47.417652" lon="10.915968">
<ele>910.583</ele>
<time>2020-09-11T17:06:37Z</time>
</trkpt>
<trkpt lat="47.417614" lon="10.915938">
<ele>910.708</ele>
<time>2020-09-11T17:06:38Z</time>
</trkpt>
<trkpt lat="47.41758" lon="10.915909">
<ele>910.775</ele>
<time>2020-09-11T17:06:39Z</time>
</trkpt>
<trkpt lat="47.417545" lon="10.915878">
<ele>911.076</ele>
<time>2020-09-11T17:06:40Z</time>
</trkpt>
<trkpt lat="47.417507" lon="10.915849">
<ele>911.33</ele>
<time>2020-09-11T17:06:41Z</time>
</trkpt>
<trkpt lat="47.417469" lon="10.915818">
<ele>911.763</ele>
<time>2020-09-11T17:06:42Z</time>
</trkpt>
<trkpt lat="47.417423" lon="10.915788">
<ele>912.098</ele>
<time>2020-09-11T17:06:43Z</time>
</trkpt>
<trkpt lat="47.417381" lon="10.915758">
<ele>912.365</ele>
<time>2020-09-11T17:06:44Z</time>
</trkpt>
<trkpt lat="47.417343" lon="10.915729">
<ele>912.525</ele>
<time>2020-09-11T17:06:45Z</time>
</trkpt>
<trkpt lat="47.417309" lon="10.915698">
<ele>912.93</ele>
<time>2020-09-11T17:06:46Z</time>
</trkpt>
<trkpt lat="47.417274" lon="10.915675">
<ele>913.233</ele>
<time>2020-09-11T17:06:47Z</time>
</trkpt>
<trkpt lat="47.41724" lon="10.915647">
<ele>913.47</ele>
<time>2020-09-11T17:06:48Z</time>
</trkpt>
<trkpt lat="47.417213" lon="10.915613">
<ele>913.565</ele>
<time>2020-09-11T17:06:49Z</time>
</trkpt>
<trkpt lat="47.417187" lon="10.915582">
<ele>913.905</ele>
<time>2020-09-11T17:06:50Z</time>
</trkpt>
<trkpt lat="47.417156" lon="10.915559">
<ele>914.206</ele>
<time>2020-09-11T17:06:51Z</time>
</trkpt>
<trkpt lat="47.417118" lon="10.915534">
<ele>914.455</ele>
<time>2020-09-11T17:06:52Z</time>
</trkpt>
<trkpt lat="47.41708" lon="10.915511">
<ele>914.645</ele>
<time>2020-09-11T17:06:53Z</time>
</trkpt>
<trkpt lat="47.417034" lon="10.91549">
<ele>914.769</ele>
<time>2020-09-11T17:06:54Z</time>
</trkpt>
<trkpt lat="47.416988" lon="10.915469">
<ele>914.847</ele>
<time>2020-09-11T17:06:55Z</time>
</trkpt>
<trkpt lat="47.41695" lon="10.915438">
<ele>915.145</ele>
<time>2020-09-11T17:06:56Z</time>
</trkpt>
<trkpt lat="47.416912" lon="10.915413">
<ele>915.37</ele>
<time>2020-09-11T17:06:57Z</time>
</trkpt>
<trkpt lat="47.416874" lon="10.915394">
<ele>915.53</ele>
<time>2020-09-11T17:06:58Z</time>
</trkpt>
<trkpt lat="47.416836" lon="10.915377">
<ele>915.632</ele>
<time>2020-09-11T17:06:59Z</time>
</trkpt>
<trkpt lat="47.416794" lon="10.915357">
<ele>915.698</ele>
<time>2020-09-11T17:07:00Z</time>
</trkpt>
<trkpt lat="47.416759" lon="10.915337">
<ele>915.772</ele>
<time>2020-09-11T17:07:01Z</time>
</trkpt>
<trkpt lat="47.416718" lon="10.915305">
<ele>915.822</ele>
<time>2020-09-11T17:07:02Z</time>
</trkpt>
<trkpt lat="47.416672" lon="10.915274">
<ele>915.847</ele>
<time>2020-09-11T17:07:03Z</time>
</trkpt>
<trkpt lat="47.41663" lon="10.915243">
<ele>915.847</ele>
<time>2020-09-11T17:07:04Z</time>
</trkpt>
<trkpt lat="47.416588" lon="10.915216">
<ele>915.847</ele>
<time>2020-09-11T17:07:05Z</time>
</trkpt>
<trkpt lat="47.41655" lon="10.915189">
<ele>915.847</ele>
<time>2020-09-11T17:07:06Z</time>
</trkpt>
<trkpt lat="47.416508" lon="10.915161">
<ele>915.847</ele>
<time>2020-09-11T17:07:07Z</time>
</trkpt>
<trkpt lat="47.41647" lon="10.915132">
<ele>915.847</ele>
<time>2020-09-11T17:07:08Z</time>
</trkpt>
<trkpt lat="47.416431" lon="10.915102">
<ele>915.847</ele>
<time>2020-09-11T17:07:09Z</time>
</trkpt>
<trkpt lat="47.416386" lon="10.915069">
<ele>915.847</ele>
<time>2020-09-11T17:07:10Z</time>
</trkpt>
<trkpt lat="47.416344" lon="10.915037">
<ele>915.847</ele>
<time>2020-09-11T17:07:11Z</time>
</trkpt>
<trkpt lat="47.416306" lon="10.915005">
<ele>916.177</ele>
<time>2020-09-11T17:07:12Z</time>
</trkpt>
<trkpt lat="47.416264" lon="10.914972">
<ele>916.431</ele>
<time>2020-09-11T17:07:13Z</time>
</trkpt>
<trkpt lat="47.416218" lon="10.914937">
<ele>916.626</ele>
<time>2020-09-11T17:07:14Z</time>
</trkpt>
<trkpt lat="47.41618" lon="10.9149">
<ele>916.761</ele>
<time>2020-09-11T17:07:15Z</time>
</trkpt>
<trkpt lat="47.416149" lon="10.91486">
<ele>916.854</ele>
<time>2020-09-11T17:07:16Z</time>
</trkpt>
<trkpt lat="47.416103" lon="10.914818">
<ele>916.906</ele>
<time>2020-09-11T17:07:17Z</time>
</trkpt>
<trkpt lat="47.416065" lon="10.914777">
<ele>916.931</ele>
<time>2020-09-11T17:07:18Z</time>
</trkpt>
<trkpt lat="47.416023" lon="10.914732">
<ele>917.183</ele>
<time>2020-09-11T17:07:19Z</time>
</trkpt>
<trkpt lat="47.415981" lon="10.91469">
<ele>917.358</ele>
<time>2020-09-11T17:07:20Z</time>
</trkpt>
<trkpt lat="47.415943" lon="10.914652">
<ele>917.533</ele>
<time>2020-09-11T17:07:21Z</time>
</trkpt>
<trkpt lat="47.415901" lon="10.914618">
<ele>917.677</ele>
<time>2020-09-11T17:07:22Z</time>
</trkpt>
<trkpt lat="47.415867" lon="10.914583">
<ele>917.789</ele>
<time>2020-09-11T17:07:23Z</time>
</trkpt>
<trkpt lat="47.415825" lon="10.91455">
<ele>917.863</ele>
<time>2020-09-11T17:07:24Z</time>
</trkpt>
<trkpt lat="47.415783" lon="10.91452">
<ele>917.909</ele>
<time>2020-09-11T17:07:25Z</time>
</trkpt>
<trkpt lat="47.415745" lon="10.914491">
<ele>917.935</ele>
<time>2020-09-11T17:07:26Z</time>
</trkpt>
<trkpt lat="47.415699" lon="10.914463">
<ele>917.935</ele>
<time>2020-09-11T17:07:27Z</time>
</trkpt>
<trkpt lat="47.415653" lon="10.91444">
<ele>918.23</ele>
<time>2020-09-11T17:07:28Z</time>
</trkpt>
<trkpt lat="47.415619" lon="10.91442">
<ele>918.463</ele>
<time>2020-09-11T17:07:29Z</time>
</trkpt>
<trkpt lat="47.415577" lon="10.914401">
<ele>918.629</ele>
<time>2020-09-11T17:07:30Z</time>
</trkpt>
<trkpt lat="47.415524" lon="10.91439">
<ele>918.801</ele>
<time>2020-09-11T17:07:31Z</time>
</trkpt>
<trkpt lat="47.415474" lon="10.914371">
<ele>918.931</ele>
<time>2020-09-11T17:07:32Z</time>
</trkpt>
<trkpt lat="47.415424" lon="10.914355">
<ele>919.027</ele>
<time>2020-09-11T17:07:33Z</time>
</trkpt>
<trkpt lat="47.415379" lon="10.914338">
<ele>919.088</ele>
<time>2020-09-11T17:07:34Z</time>
</trkpt>
<trkpt lat="47.415325" lon="10.914323">
<ele>919.116</ele>
<time>2020-09-11T17:07:35Z</time>
</trkpt>
<trkpt lat="47.415272" lon="10.9143">
<ele>919.413</ele>
<time>2020-09-11T17:07:36Z</time>
</trkpt>
<trkpt lat="47.415215" lon="10.914279">
<ele>919.649</ele>
<time>2020-09-11T17:07:37Z</time>
</trkpt>
<trkpt lat="47.415161" lon="10.914256">
<ele>919.815</ele>
<time>2020-09-11T17:07:38Z</time>
</trkpt>
<trkpt lat="47.415108" lon="10.914235">
<ele>919.941</ele>
<time>2020-09-11T17:07:39Z</time>
</trkpt>
<trkpt lat="47.415058" lon="10.914215">
<ele>920.032</ele>
<time>2020-09-11T17:07:40Z</time>
</trkpt>
<trkpt lat="47.415001" lon="10.914197">
<ele>920.123</ele>
<time>2020-09-11T17:07:41Z</time>
</trkpt>
<trkpt lat="47.414955" lon="10.914177">
<ele>920.18</ele>
<time>2020-09-11T17:07:42Z</time>
</trkpt>
<trkpt lat="47.414902" lon="10.914162">
<ele>920.206</ele>
<time>2020-09-11T17:07:43Z</time>
</trkpt>
<trkpt lat="47.414848" lon="10.914145">
<ele>920.206</ele>
<time>2020-09-11T17:07:44Z</time>
</trkpt>
<trkpt lat="47.414799" lon="10.914132">
<ele>920.473</ele>
<time>2020-09-11T17:07:45Z</time>
</trkpt>
<trkpt lat="47.414745" lon="10.914118">
<ele>920.689</ele>
<time>2020-09-11T17:07:46Z</time>
</trkpt>
<trkpt lat="47.414692" lon="10.914105">
<ele>920.818</ele>
<time>2020-09-11T17:07:47Z</time>
</trkpt>
<trkpt lat="47.414642" lon="10.914097">
<ele>921.179</ele>
<time>2020-09-11T17:07:48Z</time>
</trkpt>
<trkpt lat="47.414593" lon="10.91409">
<ele>921.449</ele>
<time>2020-09-11T17:07:49Z</time>
</trkpt>
<trkpt lat="47.414547" lon="10.914076">
<ele>921.651</ele>
<time>2020-09-11T17:07:50Z</time>
</trkpt>
<trkpt lat="47.414505" lon="10.914065">
<ele>922.071</ele>
<time>2020-09-11T17:07:51Z</time>
</trkpt>
<trkpt lat="47.414459" lon="10.914057">
<ele>922.402</ele>
<time>2020-09-11T17:07:52Z</time>
</trkpt>
<trkpt lat="47.414413" lon="10.914048">
<ele>922.643</ele>
<time>2020-09-11T17:07:53Z</time>
</trkpt>
<trkpt lat="47.414364" lon="10.914037">
<ele>922.827</ele>
<time>2020-09-11T17:07:54Z</time>
</trkpt>
<trkpt lat="47.414314" lon="10.914025">
<ele>922.957</ele>
<time>2020-09-11T17:07:55Z</time>
</trkpt>
<trkpt lat="47.414268" lon="10.914013">
<ele>923.036</ele>
<time>2020-09-11T17:07:56Z</time>
</trkpt>
<trkpt lat="47.414223" lon="10.914001">
<ele>923.09</ele>
<time>2020-09-11T17:07:57Z</time>
</trkpt>
<trkpt lat="47.414177" lon="10.913986">
<ele>923.113</ele>
<time>2020-09-11T17:07:58Z</time>
</trkpt>
<trkpt lat="47.414127" lon="10.913977">
<ele>923.113</ele>
<time>2020-09-11T17:07:59Z</time>
</trkpt>
<trkpt lat="47.414078" lon="10.91397">
<ele>923.113</ele>
<time>2020-09-11T17:08:00Z</time>
</trkpt>
<trkpt lat="47.414032" lon="10.913959">
<ele>923.113</ele>
<time>2020-09-11T17:08:01Z</time>
</trkpt>
<trkpt lat="47.413986" lon="10.913946">
<ele>923.412</ele>
<time>2020-09-11T17:08:02Z</time>
</trkpt>
<trkpt lat="47.413937" lon="10.913937">
<ele>923.613</ele>
<time>2020-09-11T17:08:03Z</time>
</trkpt>
<trkpt lat="47.413898" lon="10.913923">
<ele>924.103</ele>
<time>2020-09-11T17:08:04Z</time>
</trkpt>
<trkpt lat="47.413857" lon="10.913915">
<ele>924.475</ele>
<time>2020-09-11T17:08:05Z</time>
</trkpt>
<trkpt lat="47.413822" lon="10.913904">
<ele>924.742</ele>
<time>2020-09-11T17:08:06Z</time>
</trkpt>
<trkpt lat="47.413776" lon="10.913897">
<ele>924.934</ele>
<time>2020-09-11T17:08:07Z</time>
</trkpt>
<trkpt lat="47.413731" lon="10.913888">
<ele>925.057</ele>
<time>2020-09-11T17:08:08Z</time>
</trkpt>
<trkpt lat="47.413696" lon="10.91388">
<ele>925.119</ele>
<time>2020-09-11T17:08:09Z</time>
</trkpt>
<trkpt lat="47.413651" lon="10.913875">
<ele>925.17</ele>
<time>2020-09-11T17:08:10Z</time>
</trkpt>
<trkpt lat="47.413609" lon="10.913867">
<ele>925.203</ele>
<time>2020-09-11T17:08:11Z</time>
</trkpt>
<trkpt lat="47.413567" lon="10.913862">
<ele>925.505</ele>
<time>2020-09-11T17:08:12Z</time>
</trkpt>
<trkpt lat="47.413525" lon="10.91385">
<ele>925.736</ele>
<time>2020-09-11T17:08:13Z</time>
</trkpt>
<trkpt lat="47.413483" lon="10.913839">
<ele>925.911</ele>
<time>2020-09-11T17:08:14Z</time>
</trkpt>
<trkpt lat="47.413437" lon="10.91382">
<ele>926.033</ele>
<time>2020-09-11T17:08:15Z</time>
</trkpt>
<trkpt lat="47.413399" lon="10.913803">
<ele>926.106</ele>
<time>2020-09-11T17:08:16Z</time>
</trkpt>
<trkpt lat="47.413353" lon="10.913789">
<ele>926.499</ele>
<time>2020-09-11T17:08:17Z</time>
</trkpt>
<trkpt lat="47.413307" lon="10.913768">
<ele>926.783</ele>
<time>2020-09-11T17:08:18Z</time>
</trkpt>
<trkpt lat="47.413265" lon="10.913745">
<ele>926.993</ele>
<time>2020-09-11T17:08:19Z</time>
</trkpt>
<trkpt lat="47.413223" lon="10.913722">
<ele>927.127</ele>
<time>2020-09-11T17:08:20Z</time>
</trkpt>
<trkpt lat="47.413181" lon="10.913691">
<ele>927.272</ele>
<time>2020-09-11T17:08:21Z</time>
</trkpt>
<trkpt lat="47.413139" lon="10.913661">
<ele>927.377</ele>
<time>2020-09-11T17:08:22Z</time>
</trkpt>
<trkpt lat="47.413094" lon="10.913627">
<ele>927.442</ele>
<time>2020-09-11T17:08:23Z</time>
</trkpt>
<trkpt lat="47.413052" lon="10.913594">
<ele>927.475</ele>
<time>2020-09-11T17:08:24Z</time>
</trkpt>
<trkpt lat="47.413013" lon="10.913562">
<ele>927.475</ele>
<time>2020-09-11T17:08:25Z</time>
</trkpt>
<trkpt lat="47.412975" lon="10.913525">
<ele>927.475</ele>
<time>2020-09-11T17:08:26Z</time>
</trkpt>
<trkpt lat="47.412933" lon="10.913488">
<ele>927.475</ele>
<time>2020-09-11T17:08:27Z</time>
</trkpt>
<trkpt lat="47.412884" lon="10.913451">
<ele>927.475</ele>
<time>2020-09-11T17:08:28Z</time>
</trkpt>
<trkpt lat="47.412842" lon="10.913416">
<ele>927.722</ele>
<time>2020-09-11T17:08:29Z</time>
</trkpt>
<trkpt lat="47.412796" lon="10.913383">
<ele>927.896</ele>
<time>2020-09-11T17:08:30Z</time>
</trkpt>
<trkpt lat="47.41275" lon="10.913351">
<ele>928.074</ele>
<time>2020-09-11T17:08:31Z</time>
</trkpt>
<trkpt lat="47.412708" lon="10.913323">
<ele>928.222</ele>
<time>2020-09-11T17:08:32Z</time>
</trkpt>
<trkpt lat="47.412663" lon="10.913299">
<ele>928.328</ele>
<time>2020-09-11T17:08:33Z</time>
</trkpt>
<trkpt lat="47.412621" lon="10.913276">
<ele>928.403</ele>
<time>2020-09-11T17:08:34Z</time>
</trkpt>
<trkpt lat="47.412586" lon="10.913255">
<ele>928.451</ele>
<time>2020-09-11T17:08:35Z</time>
</trkpt>
<trkpt lat="47.412544" lon="10.913239">
<ele>928.475</ele>
<time>2020-09-11T17:08:36Z</time>
</trkpt>
<trkpt lat="47.412502" lon="10.913223">
<ele>928.475</ele>
<time>2020-09-11T17:08:37Z</time>
</trkpt>
<trkpt lat="47.412457" lon="10.913213">
<ele>928.475</ele>
<time>2020-09-11T17:08:38Z</time>
</trkpt>
<trkpt lat="47.412411" lon="10.913203">
<ele>928.475</ele>
<time>2020-09-11T17:08:39Z</time>
</trkpt>
<trkpt lat="47.412365" lon="10.913196">
<ele>928.475</ele>
<time>2020-09-11T17:08:40Z</time>
</trkpt>
<trkpt lat="47.412315" lon="10.913188">
<ele>928.475</ele>
<time>2020-09-11T17:08:41Z</time>
</trkpt>
<trkpt lat="47.412266" lon="10.913181">
<ele>928.475</ele>
<time>2020-09-11T17:08:42Z</time>
</trkpt>
<trkpt lat="47.41222" lon="10.913177">
<ele>928.475</ele>
<time>2020-09-11T17:08:43Z</time>
</trkpt>
<trkpt lat="47.412174" lon="10.913178">
<ele>928.475</ele>
<time>2020-09-11T17:08:44Z</time>
</trkpt>
<trkpt lat="47.412128" lon="10.913177">
<ele>928.475</ele>
<time>2020-09-11T17:08:45Z</time>
</trkpt>
<trkpt lat="47.412075" lon="10.913179">
<ele>928.475</ele>
<time>2020-09-11T17:08:46Z</time>
</trkpt>
<trkpt lat="47.412025" lon="10.913181">
<ele>928.475</ele>
<time>2020-09-11T17:08:47Z</time>
</trkpt>
<trkpt lat="47.411972" lon="10.913187">
<ele>928.475</ele>
<time>2020-09-11T17:08:48Z</time>
</trkpt>
<trkpt lat="47.411919" lon="10.913194">
<ele>928.475</ele>
<time>2020-09-11T17:08:49Z</time>
</trkpt>
<trkpt lat="47.411865" lon="10.913197">
<ele>928.475</ele>
<time>2020-09-11T17:08:50Z</time>
</trkpt>
<trkpt lat="47.411812" lon="10.913203">
<ele>928.475</ele>
<time>2020-09-11T17:08:51Z</time>
</trkpt>
<trkpt lat="47.411762" lon="10.91321">
<ele>928.475</ele>
<time>2020-09-11T17:08:52Z</time>
</trkpt>
<trkpt lat="47.411709" lon="10.913217">
<ele>928.475</ele>
<time>2020-09-11T17:08:53Z</time>
</trkpt>
<trkpt lat="47.411659" lon="10.913218">
<ele>928.475</ele>
<time>2020-09-11T17:08:54Z</time>
</trkpt>
<trkpt lat="47.41161" lon="10.913219">
<ele>928.475</ele>
<time>2020-09-11T17:08:55Z</time>
</trkpt>
<trkpt lat="47.411556" lon="10.913223">
<ele>928.475</ele>
<time>2020-09-11T17:08:56Z</time>
</trkpt>
<trkpt lat="47.411507" lon="10.913225">
<ele>928.475</ele>
<time>2020-09-11T17:08:57Z</time>
</trkpt>
<trkpt lat="47.411449" lon="10.913223">
<ele>928.475</ele>
<time>2020-09-11T17:08:58Z</time>
</trkpt>
<trkpt lat="47.4114" lon="10.913223">
<ele>928.475</ele>
<time>2020-09-11T17:08:59Z</time>
</trkpt>
<trkpt lat="47.411346" lon="10.913221">
<ele>928.475</ele>
<time>2020-09-11T17:09:00Z</time>
</trkpt>
<trkpt lat="47.411301" lon="10.913221">
<ele>928.475</ele>
<time>2020-09-11T17:09:01Z</time>
</trkpt>
<trkpt lat="47.411251" lon="10.913219">
<ele>928.746</ele>
<time>2020-09-11T17:09:02Z</time>
</trkpt>
<trkpt lat="47.411201" lon="10.913217">
<ele>928.951</ele>
<time>2020-09-11T17:09:03Z</time>
</trkpt>
<trkpt lat="47.411152" lon="10.913212">
<ele>929.112</ele>
<time>2020-09-11T17:09:04Z</time>
</trkpt>
<trkpt lat="47.411102" lon="10.913203">
<ele>929.225</ele>
<time>2020-09-11T17:09:05Z</time>
</trkpt>
<trkpt lat="47.411057" lon="10.913196">
<ele>929.305</ele>
<time>2020-09-11T17:09:06Z</time>
</trkpt>
<trkpt lat="47.411003" lon="10.913179">
<ele>929.356</ele>
<time>2020-09-11T17:09:07Z</time>
</trkpt>
<trkpt lat="47.410957" lon="10.913165">
<ele>929.384</ele>
<time>2020-09-11T17:09:08Z</time>
</trkpt>
<trkpt lat="47.410915" lon="10.913146">
<ele>929.384</ele>
<time>2020-09-11T17:09:09Z</time>
</trkpt>
<trkpt lat="47.41087" lon="10.913123">
<ele>929.384</ele>
<time>2020-09-11T17:09:10Z</time>
</trkpt>
<trkpt lat="47.410828" lon="10.913097">
<ele>929.384</ele>
<time>2020-09-11T17:09:11Z</time>
</trkpt>
<trkpt lat="47.410789" lon="10.913068">
<ele>929.678</ele>
<time>2020-09-11T17:09:12Z</time>
</trkpt>
<trkpt lat="47.410744" lon="10.913038">
<ele>929.905</ele>
<time>2020-09-11T17:09:13Z</time>
</trkpt>
<trkpt lat="47.410698" lon="10.913007">
<ele>930.082</ele>
<time>2020-09-11T17:09:14Z</time>
</trkpt>
<trkpt lat="47.410656" lon="10.912975">
<ele>930.215</ele>
<time>2020-09-11T17:09:15Z</time>
</trkpt>
<trkpt lat="47.41061" lon="10.912945">
<ele>930.306</ele>
<time>2020-09-11T17:09:16Z</time>
</trkpt>
<trkpt lat="47.410561" lon="10.912917">
<ele>930.355</ele>
<time>2020-09-11T17:09:17Z</time>
</trkpt>
<trkpt lat="47.410511" lon="10.912887">
<ele>930.38</ele>
<time>2020-09-11T17:09:18Z</time>
</trkpt>
<trkpt lat="47.410465" lon="10.912855">
<ele>930.384</ele>
<time>2020-09-11T17:09:19Z</time>
</trkpt>
<trkpt lat="47.410412" lon="10.912824">
<ele>930.384</ele>
<time>2020-09-11T17:09:20Z</time>
</trkpt>
<trkpt lat="47.410366" lon="10.912789">
<ele>930.384</ele>
<time>2020-09-11T17:09:21Z</time>
</trkpt>
<trkpt lat="47.410316" lon="10.912754">
<ele>930.384</ele>
<time>2020-09-11T17:09:22Z</time>
</trkpt>
<trkpt lat="47.410271" lon="10.912722">
<ele>930.384</ele>
<time>2020-09-11T17:09:23Z</time>
</trkpt>
<trkpt lat="47.410233" lon="10.912693">
<ele>930.664</ele>
<time>2020-09-11T17:09:24Z</time>
</trkpt>
<trkpt lat="47.410179" lon="10.912668">
<ele>930.876</ele>
<time>2020-09-11T17:09:25Z</time>
</trkpt>
<trkpt lat="47.410141" lon="10.912642">
<ele>931.045</ele>
<time>2020-09-11T17:09:26Z</time>
</trkpt>
<trkpt lat="47.410099" lon="10.912612">
<ele>931.166</ele>
<time>2020-09-11T17:09:27Z</time>
</trkpt>
<trkpt lat="47.410057" lon="10.912583">
<ele>931.252</ele>
<time>2020-09-11T17:09:28Z</time>
</trkpt>
<trkpt lat="47.410015" lon="10.912553">
<ele>931.308</ele>
<time>2020-09-11T17:09:29Z</time>
</trkpt>
<trkpt lat="47.409973" lon="10.912523">
<ele>931.354</ele>
<time>2020-09-11T17:09:30Z</time>
</trkpt>
<trkpt lat="47.409931" lon="10.91249">
<ele>931.384</ele>
<time>2020-09-11T17:09:31Z</time>
</trkpt>
<trkpt lat="47.409885" lon="10.91246">
<ele>931.384</ele>
<time>2020-09-11T17:09:32Z</time>
</trkpt>
<trkpt lat="47.40984" lon="10.91243">
<ele>931.384</ele>
<time>2020-09-11T17:09:33Z</time>
</trkpt>
<trkpt lat="47.409798" lon="10.9124">
<ele>931.384</ele>
<time>2020-09-11T17:09:34Z</time>
</trkpt>
<trkpt lat="47.409752" lon="10.912369">
<ele>931.636</ele>
<time>2020-09-11T17:09:35Z</time>
</trkpt>
<trkpt lat="47.409706" lon="10.912339">
<ele>931.829</ele>
<time>2020-09-11T17:09:36Z</time>
</trkpt>
<trkpt lat="47.40966" lon="10.912312">
<ele>931.974</ele>
<time>2020-09-11T17:09:37Z</time>
</trkpt>
<trkpt lat="47.409618" lon="10.912282">
<ele>932.082</ele>
<time>2020-09-11T17:09:38Z</time>
</trkpt>
<trkpt lat="47.409573" lon="10.91225">
<ele>932.161</ele>
<time>2020-09-11T17:09:39Z</time>
</trkpt>
<trkpt lat="47.409527" lon="10.91222">
<ele>932.218</ele>
<time>2020-09-11T17:09:40Z</time>
</trkpt>
<trkpt lat="47.409485" lon="10.91219">
<ele>932.269</ele>
<time>2020-09-11T17:09:41Z</time>
</trkpt>
<trkpt lat="47.409443" lon="10.91216">
<ele>932.294</ele>
<time>2020-09-11T17:09:42Z</time>
</trkpt>
<trkpt lat="47.409397" lon="10.912129">
<ele>932.294</ele>
<time>2020-09-11T17:09:43Z</time>
</trkpt>
<trkpt lat="47.409355" lon="10.9121">
<ele>932.294</ele>
<time>2020-09-11T17:09:44Z</time>
</trkpt>
<trkpt lat="47.409309" lon="10.91207">
<ele>932.564</ele>
<time>2020-09-11T17:09:45Z</time>
</trkpt>
<trkpt lat="47.409264" lon="10.912042">
<ele>932.779</ele>
<time>2020-09-11T17:09:46Z</time>
</trkpt>
<trkpt lat="47.409218" lon="10.912015">
<ele>932.94</ele>
<time>2020-09-11T17:09:47Z</time>
</trkpt>
<trkpt lat="47.409176" lon="10.911987">
<ele>933.06</ele>
<time>2020-09-11T17:09:48Z</time>
</trkpt>
<trkpt lat="47.40913" lon="10.911958">
<ele>933.149</ele>
<time>2020-09-11T17:09:49Z</time>
</trkpt>
<trkpt lat="47.409081" lon="10.911928">
<ele>933.212</ele>
<time>2020-09-11T17:09:50Z</time>
</trkpt>
<trkpt lat="47.409035" lon="10.9119">
<ele>933.268</ele>
<time>2020-09-11T17:09:51Z</time>
</trkpt>
<trkpt lat="47.408989" lon="10.911875">
<ele>933.294</ele>
<time>2020-09-11T17:09:52Z</time>
</trkpt>
<trkpt lat="47.408936" lon="10.911853">
<ele>933.294</ele>
<time>2020-09-11T17:09:53Z</time>
</trkpt>
<trkpt lat="47.40889" lon="10.91183">
<ele>933.294</ele>
<time>2020-09-11T17:09:54Z</time>
</trkpt>
<trkpt lat="47.408836" lon="10.911809">
<ele>933.569</ele>
<time>2020-09-11T17:09:55Z</time>
</trkpt>
<trkpt lat="47.408787" lon="10.911786">
<ele>933.783</ele>
<time>2020-09-11T17:09:56Z</time>
</trkpt>
<trkpt lat="47.408737" lon="10.911767">
<ele>933.944</ele>
<time>2020-09-11T17:09:57Z</time>
</trkpt>
<trkpt lat="47.40868" lon="10.91175">
<ele>934.064</ele>
<time>2020-09-11T17:09:58Z</time>
</trkpt>
<trkpt lat="47.40863" lon="10.91173">
<ele>934.152</ele>
<time>2020-09-11T17:09:59Z</time>
</trkpt>
<trkpt lat="47.408577" lon="10.911713">
<ele>934.214</ele>
<time>2020-09-11T17:10:00Z</time>
</trkpt>
<trkpt lat="47.408524" lon="10.911702">
<ele>934.268</ele>
<time>2020-09-11T17:10:01Z</time>
</trkpt>
<trkpt lat="47.408478" lon="10.911692">
<ele>934.294</ele>
<time>2020-09-11T17:10:02Z</time>
</trkpt>
<trkpt lat="47.408421" lon="10.911674">
<ele>934.294</ele>
<time>2020-09-11T17:10:03Z</time>
</trkpt>
<trkpt lat="47.408367" lon="10.911656">
<ele>934.294</ele>
<time>2020-09-11T17:10:04Z</time>
</trkpt>
<trkpt lat="47.408318" lon="10.911641">
<ele>934.294</ele>
<time>2020-09-11T17:10:05Z</time>
</trkpt>
<trkpt lat="47.408264" lon="10.911623">
<ele>934.294</ele>
<time>2020-09-11T17:10:06Z</time>
</trkpt>
<trkpt lat="47.408215" lon="10.911606">
<ele>934.294</ele>
<time>2020-09-11T17:10:07Z</time>
</trkpt>
<trkpt lat="47.408161" lon="10.911589">
<ele>934.295</ele>
<time>2020-09-11T17:10:08Z</time>
</trkpt>
<trkpt lat="47.408115" lon="10.911573">
<ele>934.295</ele>
<time>2020-09-11T17:10:09Z</time>
</trkpt>
<trkpt lat="47.40807" lon="10.91156">
<ele>934.294</ele>
<time>2020-09-11T17:10:10Z</time>
</trkpt>
<trkpt lat="47.408024" lon="10.911547">
<ele>934.294</ele>
<time>2020-09-11T17:10:11Z</time>
</trkpt>
<trkpt lat="47.407978" lon="10.911533">
<ele>934.294</ele>
<time>2020-09-11T17:10:12Z</time>
</trkpt>
<trkpt lat="47.407936" lon="10.911511">
<ele>934.294</ele>
<time>2020-09-11T17:10:13Z</time>
</trkpt>
<trkpt lat="47.407902" lon="10.911491">
<ele>934.294</ele>
<time>2020-09-11T17:10:14Z</time>
</trkpt>
<trkpt lat="47.40786" lon="10.91148">
<ele>934.294</ele>
<time>2020-09-11T17:10:15Z</time>
</trkpt>
<trkpt lat="47.407822" lon="10.911475">
<ele>934.295</ele>
<time>2020-09-11T17:10:16Z</time>
</trkpt>
<trkpt lat="47.40778" lon="10.911469">
<ele>934.295</ele>
<time>2020-09-11T17:10:17Z</time>
</trkpt>
<trkpt lat="47.407742" lon="10.911467">
<ele>934.294</ele>
<time>2020-09-11T17:10:18Z</time>
</trkpt>
<trkpt lat="47.407715" lon="10.911464">
<ele>934.294</ele>
<time>2020-09-11T17:10:19Z</time>
</trkpt>
<trkpt lat="47.407688" lon="10.911473">
<ele>934.527</ele>
<time>2020-09-11T17:10:20Z</time>
</trkpt>
<trkpt lat="47.407669" lon="10.911478">
<ele>934.739</ele>
<time>2020-09-11T17:10:21Z</time>
</trkpt>
<trkpt lat="47.407654" lon="10.911484">
<ele>934.915</ele>
<time>2020-09-11T17:10:22Z</time>
</trkpt>
<trkpt lat="47.407635" lon="10.91149">
<ele>935.058</ele>
<time>2020-09-11T17:10:23Z</time>
</trkpt>
<trkpt lat="47.407619" lon="10.911501">
<ele>935.178</ele>
<time>2020-09-11T17:10:24Z</time>
</trkpt>
<trkpt lat="47.407608" lon="10.91151">
<ele>935.275</ele>
<time>2020-09-11T17:10:25Z</time>
</trkpt>
<trkpt lat="47.407604" lon="10.911513">
<ele>935.346</ele>
<time>2020-09-11T17:10:26Z</time>
</trkpt>
<trkpt lat="47.407604" lon="10.911518">
<ele>935.386</ele>
<time>2020-09-11T17:10:27Z</time>
</trkpt>
<trkpt lat="47.407593" lon="10.911527">
<ele>935.386</ele>
<time>2020-09-11T17:10:36Z</time>
</trkpt>
<trkpt lat="47.407585" lon="10.911545">
<ele>935.386</ele>
<time>2020-09-11T17:10:37Z</time>
</trkpt>
<trkpt lat="47.407578" lon="10.911572">
<ele>935.386</ele>
<time>2020-09-11T17:10:38Z</time>
</trkpt>
<trkpt lat="47.407574" lon="10.911606">
<ele>935.386</ele>
<time>2020-09-11T17:10:39Z</time>
</trkpt>
<trkpt lat="47.407578" lon="10.911647">
<ele>935.386</ele>
<time>2020-09-11T17:10:40Z</time>
</trkpt>
<trkpt lat="47.407581" lon="10.91169">
<ele>935.386</ele>
<time>2020-09-11T17:10:41Z</time>
</trkpt>
<trkpt lat="47.407585" lon="10.911738">
<ele>935.386</ele>
<time>2020-09-11T17:10:42Z</time>
</trkpt>
<trkpt lat="47.407585" lon="10.911781">
<ele>935.386</ele>
<time>2020-09-11T17:10:43Z</time>
</trkpt>
<trkpt lat="47.407589" lon="10.911828">
<ele>935.386</ele>
<time>2020-09-11T17:10:44Z</time>
</trkpt>
<trkpt lat="47.407589" lon="10.911874">
<ele>935.386</ele>
<time>2020-09-11T17:10:45Z</time>
</trkpt>
<trkpt lat="47.407589" lon="10.911917">
<ele>935.386</ele>
<time>2020-09-11T17:10:46Z</time>
</trkpt>
<trkpt lat="47.407589" lon="10.911957">
<ele>935.386</ele>
<time>2020-09-11T17:10:47Z</time>
</trkpt>
<trkpt lat="47.407593" lon="10.911997">
<ele>935.386</ele>
<time>2020-09-11T17:10:48Z</time>
</trkpt>
<trkpt lat="47.4076" lon="10.912038">
<ele>935.386</ele>
<time>2020-09-11T17:10:49Z</time>
</trkpt>
<trkpt lat="47.407604" lon="10.912084">
<ele>935.386</ele>
<time>2020-09-11T17:10:50Z</time>
</trkpt>
<trkpt lat="47.407612" lon="10.912131">
<ele>935.386</ele>
<time>2020-09-11T17:10:51Z</time>
</trkpt>
<trkpt lat="47.407616" lon="10.912178">
<ele>935.386</ele>
<time>2020-09-11T17:10:52Z</time>
</trkpt>
<trkpt lat="47.407623" lon="10.912229">
<ele>935.386</ele>
<time>2020-09-11T17:10:53Z</time>
</trkpt>
<trkpt lat="47.407631" lon="10.912274">
<ele>935.386</ele>
<time>2020-09-11T17:10:54Z</time>
</trkpt>
<trkpt lat="47.40765" lon="10.912316">
<ele>935.386</ele>
<time>2020-09-11T17:10:55Z</time>
</trkpt>
<trkpt lat="47.407669" lon="10.912356">
<ele>935.386</ele>
<time>2020-09-11T17:10:56Z</time>
</trkpt>
<trkpt lat="47.4077" lon="10.912392">
<ele>935.386</ele>
<time>2020-09-11T17:10:57Z</time>
</trkpt>
<trkpt lat="47.40773" lon="10.912425">
<ele>935.386</ele>
<time>2020-09-11T17:10:58Z</time>
</trkpt>
<trkpt lat="47.407761" lon="10.912457">
<ele>935.386</ele>
<time>2020-09-11T17:10:59Z</time>
</trkpt>
<trkpt lat="47.407791" lon="10.912486">
<ele>935.386</ele>
<time>2020-09-11T17:11:00Z</time>
</trkpt>
<trkpt lat="47.407818" lon="10.912517">
<ele>935.386</ele>
<time>2020-09-11T17:11:01Z</time>
</trkpt>
<trkpt lat="47.407848" lon="10.912548">
<ele>935.698</ele>
<time>2020-09-11T17:11:02Z</time>
</trkpt>
<trkpt lat="47.407875" lon="10.912583">
<ele>935.937</ele>
<time>2020-09-11T17:11:03Z</time>
</trkpt>
<trkpt lat="47.407902" lon="10.91262">
<ele>936.11</ele>
<time>2020-09-11T17:11:04Z</time>
</trkpt>
<trkpt lat="47.407925" lon="10.912658">
<ele>936.213</ele>
<time>2020-09-11T17:11:05Z</time>
</trkpt>
<trkpt lat="47.407951" lon="10.912693">
<ele>936.611</ele>
<time>2020-09-11T17:11:06Z</time>
</trkpt>
<trkpt lat="47.407982" lon="10.912726">
<ele>936.917</ele>
<time>2020-09-11T17:11:07Z</time>
</trkpt>
<trkpt lat="47.408009" lon="10.912758">
<ele>937.136</ele>
<time>2020-09-11T17:11:08Z</time>
</trkpt>
<trkpt lat="47.408035" lon="10.912793">
<ele>937.34</ele>
<time>2020-09-11T17:11:09Z</time>
</trkpt>
<trkpt lat="47.408062" lon="10.912828">
<ele>937.462</ele>
<time>2020-09-11T17:11:10Z</time>
</trkpt>
<trkpt lat="47.408089" lon="10.912861">
<ele>937.784</ele>
<time>2020-09-11T17:11:11Z</time>
</trkpt>
<trkpt lat="47.408119" lon="10.912892">
<ele>938.035</ele>
<time>2020-09-11T17:11:12Z</time>
</trkpt>
<trkpt lat="47.408146" lon="10.912922">
<ele>938.191</ele>
<time>2020-09-11T17:11:13Z</time>
</trkpt>
<trkpt lat="47.408173" lon="10.912953">
<ele>938.687</ele>
<time>2020-09-11T17:11:14Z</time>
</trkpt>
<trkpt lat="47.408203" lon="10.912983">
<ele>939.012</ele>
<time>2020-09-11T17:11:15Z</time>
</trkpt>
<trkpt lat="47.40823" lon="10.913012">
<ele>939.253</ele>
<time>2020-09-11T17:11:16Z</time>
</trkpt>
<trkpt lat="47.408257" lon="10.913041">
<ele>939.429</ele>
<time>2020-09-11T17:11:17Z</time>
</trkpt>
<trkpt lat="47.408283" lon="10.913068">
<ele>939.554</ele>
<time>2020-09-11T17:11:18Z</time>
</trkpt>
<trkpt lat="47.408314" lon="10.913097">
<ele>939.656</ele>
<time>2020-09-11T17:11:19Z</time>
</trkpt>
<trkpt lat="47.40834" lon="10.913123">
<ele>939.722</ele>
<time>2020-09-11T17:11:20Z</time>
</trkpt>
<trkpt lat="47.408371" lon="10.913146">
<ele>939.993</ele>
<time>2020-09-11T17:11:21Z</time>
</trkpt>
<trkpt lat="47.408398" lon="10.913171">
<ele>940.263</ele>
<time>2020-09-11T17:11:22Z</time>
</trkpt>
<trkpt lat="47.408428" lon="10.913197">
<ele>940.436</ele>
<time>2020-09-11T17:11:23Z</time>
</trkpt>
<trkpt lat="47.408459" lon="10.913218">
<ele>940.563</ele>
<time>2020-09-11T17:11:24Z</time>
</trkpt>
<trkpt lat="47.408489" lon="10.913243">
<ele>940.635</ele>
<time>2020-09-11T17:11:25Z</time>
</trkpt>
<trkpt lat="47.40852" lon="10.913265">
<ele>940.998</ele>
<time>2020-09-11T17:11:26Z</time>
</trkpt>
<trkpt lat="47.40855" lon="10.913286">
<ele>941.26</ele>
<time>2020-09-11T17:11:27Z</time>
</trkpt>
<trkpt lat="47.408581" lon="10.91331">
<ele>941.449</ele>
<time>2020-09-11T17:11:28Z</time>
</trkpt>
<trkpt lat="47.408611" lon="10.913335">
<ele>941.619</ele>
<time>2020-09-11T17:11:29Z</time>
</trkpt>
<trkpt lat="47.408642" lon="10.913357">
<ele>941.751</ele>
<time>2020-09-11T17:11:30Z</time>
</trkpt>
<trkpt lat="47.408669" lon="10.913381">
<ele>941.845</ele>
<time>2020-09-11T17:11:31Z</time>
</trkpt>
<trkpt lat="47.408699" lon="10.913404">
<ele>941.909</ele>
<time>2020-09-11T17:11:32Z</time>
</trkpt>
<trkpt lat="47.408726" lon="10.913422">
<ele>941.938</ele>
<time>2020-09-11T17:11:33Z</time>
</trkpt>
<trkpt lat="47.40876" lon="10.913437">
<ele>941.938</ele>
<time>2020-09-11T17:11:34Z</time>
</trkpt>
<trkpt lat="47.408787" lon="10.913451">
<ele>941.938</ele>
<time>2020-09-11T17:11:35Z</time>
</trkpt>
<trkpt lat="47.408821" lon="10.913468">
<ele>942.21</ele>
<time>2020-09-11T17:11:36Z</time>
</trkpt>
<trkpt lat="47.408848" lon="10.913481">
<ele>942.425</ele>
<time>2020-09-11T17:11:37Z</time>
</trkpt>
<trkpt lat="47.408878" lon="10.913489">
<ele>942.574</ele>
<time>2020-09-11T17:11:38Z</time>
</trkpt>
<trkpt lat="47.408913" lon="10.9135">
<ele>942.726</ele>
<time>2020-09-11T17:11:39Z</time>
</trkpt>
<trkpt lat="47.408943" lon="10.913512">
<ele>943.096</ele>
<time>2020-09-11T17:11:40Z</time>
</trkpt>
<trkpt lat="47.408978" lon="10.913527">
<ele>943.392</ele>
<time>2020-09-11T17:11:41Z</time>
</trkpt>
<trkpt lat="47.409008" lon="10.913546">
<ele>943.62</ele>
<time>2020-09-11T17:11:42Z</time>
</trkpt>
<trkpt lat="47.409042" lon="10.913565">
<ele>943.786</ele>
<time>2020-09-11T17:11:43Z</time>
</trkpt>
<trkpt lat="47.409073" lon="10.913586">
<ele>943.947</ele>
<time>2020-09-11T17:11:44Z</time>
</trkpt>
<trkpt lat="47.409107" lon="10.913603">
<ele>944.002</ele>
<time>2020-09-11T17:11:45Z</time>
</trkpt>
<trkpt lat="47.409145" lon="10.913617">
<ele>944.025</ele>
<time>2020-09-11T17:11:46Z</time>
</trkpt>
<trkpt lat="47.409184" lon="10.913625">
<ele>944.032</ele>
<time>2020-09-11T17:11:47Z</time>
</trkpt>
<trkpt lat="47.409225" lon="10.913635">
<ele>944.032</ele>
<time>2020-09-11T17:11:48Z</time>
</trkpt>
<trkpt lat="47.40926" lon="10.913649">
<ele>944.032</ele>
<time>2020-09-11T17:11:49Z</time>
</trkpt>
<trkpt lat="47.409302" lon="10.913661">
<ele>944.032</ele>
<time>2020-09-11T17:11:50Z</time>
</trkpt>
<trkpt lat="47.409336" lon="10.913675">
<ele>944.032</ele>
<time>2020-09-11T17:11:51Z</time>
</trkpt>
<trkpt lat="47.40937" lon="10.913689">
<ele>943.747</ele>
<time>2020-09-11T17:11:52Z</time>
</trkpt>
<trkpt lat="47.409401" lon="10.913701">
<ele>943.795</ele>
<time>2020-09-11T17:11:53Z</time>
</trkpt>
<trkpt lat="47.409428" lon="10.913715">
<ele>943.835</ele>
<time>2020-09-11T17:11:54Z</time>
</trkpt>
<trkpt lat="47.409451" lon="10.913729">
<ele>943.869</ele>
<time>2020-09-11T17:11:55Z</time>
</trkpt>
<trkpt lat="47.409466" lon="10.913733">
<ele>943.898</ele>
<time>2020-09-11T17:11:56Z</time>
</trkpt>
<trkpt lat="47.409473" lon="10.913734">
<ele>943.924</ele>
<time>2020-09-11T17:11:57Z</time>
</trkpt>
<trkpt lat="47.409473" lon="10.913733">
<ele>943.929</ele>
<time>2020-09-11T17:11:58Z</time>
</trkpt>
<trkpt lat="47.409489" lon="10.91375">
<ele>943.993</ele>
<time>2020-09-11T17:12:53Z</time>
</trkpt>
<trkpt lat="47.409504" lon="10.913766">
<ele>944.032</ele>
<time>2020-09-11T17:12:54Z</time>
</trkpt>
<trkpt lat="47.409519" lon="10.913783">
<ele>944.031</ele>
<time>2020-09-11T17:12:55Z</time>
</trkpt>
<trkpt lat="47.409531" lon="10.913799">
<ele>944.032</ele>
<time>2020-09-11T17:12:56Z</time>
</trkpt>
<trkpt lat="47.409546" lon="10.913816">
<ele>944.032</ele>
<time>2020-09-11T17:12:57Z</time>
</trkpt>
<trkpt lat="47.409561" lon="10.913835">
<ele>944.032</ele>
<time>2020-09-11T17:12:58Z</time>
</trkpt>
<trkpt lat="47.40958" lon="10.913852">
<ele>944.032</ele>
<time>2020-09-11T17:12:59Z</time>
</trkpt>
<trkpt lat="47.409599" lon="10.913868">
<ele>944.032</ele>
<time>2020-09-11T17:13:00Z</time>
</trkpt>
<trkpt lat="47.409618" lon="10.913885">
<ele>944.031</ele>
<time>2020-09-11T17:13:01Z</time>
</trkpt>
<trkpt lat="47.409634" lon="10.913906">
<ele>944.032</ele>
<time>2020-09-11T17:13:02Z</time>
</trkpt>
<trkpt lat="47.409653" lon="10.91393">
<ele>944.35</ele>
<time>2020-09-11T17:13:03Z</time>
</trkpt>
<trkpt lat="47.409672" lon="10.913955">
<ele>944.59</ele>
<time>2020-09-11T17:13:04Z</time>
</trkpt>
<trkpt lat="47.409687" lon="10.913977">
<ele>944.757</ele>
<time>2020-09-11T17:13:05Z</time>
</trkpt>
<trkpt lat="47.409714" lon="10.91399">
<ele>944.866</ele>
<time>2020-09-11T17:13:06Z</time>
</trkpt>
<trkpt lat="47.409737" lon="10.913986">
<ele>944.959</ele>
<time>2020-09-11T17:13:07Z</time>
</trkpt>
<trkpt lat="47.409752" lon="10.913963">
<ele>945.01</ele>
<time>2020-09-11T17:13:08Z</time>
</trkpt>
<trkpt lat="47.409763" lon="10.913925">
<ele>945.024</ele>
<time>2020-09-11T17:13:09Z</time>
</trkpt>
<trkpt lat="47.409756" lon="10.913873">
<ele>945.033</ele>
<time>2020-09-11T17:13:10Z</time>
</trkpt>
<trkpt lat="47.40974" lon="10.913839">
<ele>945.033</ele>
<time>2020-09-11T17:13:11Z</time>
</trkpt>
<trkpt lat="47.40971" lon="10.91382">
<ele>945.033</ele>
<time>2020-09-11T17:13:12Z</time>
</trkpt>
<trkpt lat="47.409679" lon="10.913808">
<ele>945.033</ele>
<time>2020-09-11T17:13:13Z</time>
</trkpt>
<trkpt lat="47.409645" lon="10.913799">
<ele>945.033</ele>
<time>2020-09-11T17:13:14Z</time>
</trkpt>
<trkpt lat="47.409611" lon="10.913794">
<ele>945.033</ele>
<time>2020-09-11T17:13:15Z</time>
</trkpt>
<trkpt lat="47.409576" lon="10.913785">
<ele>945.033</ele>
<time>2020-09-11T17:13:16Z</time>
</trkpt>
<trkpt lat="47.409542" lon="10.913774">
<ele>945.033</ele>
<time>2020-09-11T17:13:17Z</time>
</trkpt>
<trkpt lat="47.409508" lon="10.91376">
<ele>945.033</ele>
<time>2020-09-11T17:13:18Z</time>
</trkpt>
<trkpt lat="47.409473" lon="10.91375">
<ele>945.033</ele>
<time>2020-09-11T17:13:19Z</time>
</trkpt>
<trkpt lat="47.409443" lon="10.913734">
<ele>945.033</ele>
<time>2020-09-11T17:13:20Z</time>
</trkpt>
<trkpt lat="47.409412" lon="10.913715">
<ele>945.033</ele>
<time>2020-09-11T17:13:21Z</time>
</trkpt>
<trkpt lat="47.409382" lon="10.913694">
<ele>945.033</ele>
<time>2020-09-11T17:13:22Z</time>
</trkpt>
<trkpt lat="47.409344" lon="10.913675">
<ele>945.033</ele>
<time>2020-09-11T17:13:23Z</time>
</trkpt>
<trkpt lat="47.409309" lon="10.913657">
<ele>944.738</ele>
<time>2020-09-11T17:13:24Z</time>
</trkpt>
<trkpt lat="47.409271" lon="10.913644">
<ele>944.516</ele>
<time>2020-09-11T17:13:25Z</time>
</trkpt>
<trkpt lat="47.409241" lon="10.913638">
<ele>944.345</ele>
<time>2020-09-11T17:13:26Z</time>
</trkpt>
<trkpt lat="47.409214" lon="10.913631">
<ele>944.216</ele>
<time>2020-09-11T17:13:27Z</time>
</trkpt>
<trkpt lat="47.409191" lon="10.913624">
<ele>944.138</ele>
<time>2020-09-11T17:13:28Z</time>
</trkpt>
<trkpt lat="47.409164" lon="10.913613">
<ele>944.087</ele>
<time>2020-09-11T17:13:29Z</time>
</trkpt>
<trkpt lat="47.409142" lon="10.913602">
<ele>944.055</ele>
<time>2020-09-11T17:13:30Z</time>
</trkpt>
<trkpt lat="47.409122" lon="10.913589">
<ele>944.032</ele>
<time>2020-09-11T17:13:31Z</time>
</trkpt>
<trkpt lat="47.4091" lon="10.913578">
<ele>944.032</ele>
<time>2020-09-11T17:13:32Z</time>
</trkpt>
<trkpt lat="47.409081" lon="10.913568">
<ele>944.031</ele>
<time>2020-09-11T17:13:33Z</time>
</trkpt>
<trkpt lat="47.409065" lon="10.913556">
<ele>944.032</ele>
<time>2020-09-11T17:13:34Z</time>
</trkpt>
<trkpt lat="47.409046" lon="10.913547">
<ele>944.032</ele>
<time>2020-09-11T17:13:35Z</time>
</trkpt>
<trkpt lat="47.409031" lon="10.91354">
<ele>944.032</ele>
<time>2020-09-11T17:13:36Z</time>
</trkpt>
<trkpt lat="47.409008" lon="10.913535">
<ele>944.031</ele>
<time>2020-09-11T17:13:37Z</time>
</trkpt>
<trkpt lat="47.408993" lon="10.913531">
<ele>944.032</ele>
<time>2020-09-11T17:13:38Z</time>
</trkpt>
<trkpt lat="47.40897" lon="10.913527">
<ele>944.032</ele>
<time>2020-09-11T17:13:39Z</time>
</trkpt>
<trkpt lat="47.408947" lon="10.913521">
<ele>944.032</ele>
<time>2020-09-11T17:13:40Z</time>
</trkpt>
<trkpt lat="47.408924" lon="10.913515">
<ele>944.031</ele>
<time>2020-09-11T17:13:41Z</time>
</trkpt>
<trkpt lat="47.408901" lon="10.913504">
<ele>944.031</ele>
<time>2020-09-11T17:13:42Z</time>
</trkpt>
<trkpt lat="47.408878" lon="10.913488">
<ele>944.032</ele>
<time>2020-09-11T17:13:43Z</time>
</trkpt>
<trkpt lat="47.408855" lon="10.913475">
<ele>944.032</ele>
<time>2020-09-11T17:13:44Z</time>
</trkpt>
<trkpt lat="47.408836" lon="10.913465">
<ele>944.032</ele>
<time>2020-09-11T17:13:45Z</time>
</trkpt>
<trkpt lat="47.40881" lon="10.913455">
<ele>944.032</ele>
<time>2020-09-11T17:13:46Z</time>
</trkpt>
<trkpt lat="47.408787" lon="10.913442">
<ele>944.031</ele>
<time>2020-09-11T17:13:47Z</time>
</trkpt>
<trkpt lat="47.408764" lon="10.913424">
<ele>944.032</ele>
<time>2020-09-11T17:13:48Z</time>
</trkpt>
<trkpt lat="47.408741" lon="10.913402">
<ele>943.776</ele>
<time>2020-09-11T17:13:49Z</time>
</trkpt>
<trkpt lat="47.408714" lon="10.913377">
<ele>943.575</ele>
<time>2020-09-11T17:13:50Z</time>
</trkpt>
<trkpt lat="47.408691" lon="10.913355">
<ele>943.44</ele>
<time>2020-09-11T17:13:51Z</time>
</trkpt>
<trkpt lat="47.408665" lon="10.913334">
<ele>943.055</ele>
<time>2020-09-11T17:13:52Z</time>
</trkpt>
<trkpt lat="47.408634" lon="10.913315">
<ele>942.746</ele>
<time>2020-09-11T17:13:53Z</time>
</trkpt>
<trkpt lat="47.408607" lon="10.913292">
<ele>942.521</ele>
<time>2020-09-11T17:13:54Z</time>
</trkpt>
<trkpt lat="47.408573" lon="10.913263">
<ele>942.354</ele>
<time>2020-09-11T17:13:55Z</time>
</trkpt>
<trkpt lat="47.408543" lon="10.913236">
<ele>942.243</ele>
<time>2020-09-11T17:13:56Z</time>
</trkpt>
<trkpt lat="47.408508" lon="10.913208">
<ele>942.18</ele>
<time>2020-09-11T17:13:57Z</time>
</trkpt>
<trkpt lat="47.408474" lon="10.913179">
<ele>942.143</ele>
<time>2020-09-11T17:13:58Z</time>
</trkpt>
<trkpt lat="47.408436" lon="10.91315">
<ele>941.835</ele>
<time>2020-09-11T17:13:59Z</time>
</trkpt>
<trkpt lat="47.408401" lon="10.913122">
<ele>941.607</ele>
<time>2020-09-11T17:14:00Z</time>
</trkpt>
<trkpt lat="47.40836" lon="10.913089">
<ele>941.464</ele>
<time>2020-09-11T17:14:01Z</time>
</trkpt>
<trkpt lat="47.408318" lon="10.91305">
<ele>941.305</ele>
<time>2020-09-11T17:14:02Z</time>
</trkpt>
<trkpt lat="47.408276" lon="10.913005">
<ele>941.201</ele>
<time>2020-09-11T17:14:03Z</time>
</trkpt>
<trkpt lat="47.408226" lon="10.912959">
<ele>940.797</ele>
<time>2020-09-11T17:14:04Z</time>
</trkpt>
<trkpt lat="47.40818" lon="10.91291">
<ele>940.484</ele>
<time>2020-09-11T17:14:05Z</time>
</trkpt>
<trkpt lat="47.408131" lon="10.91286">
<ele>940.305</ele>
<time>2020-09-11T17:14:06Z</time>
</trkpt>
<trkpt lat="47.408089" lon="10.91281">
<ele>939.778</ele>
<time>2020-09-11T17:14:07Z</time>
</trkpt>
<trkpt lat="47.408043" lon="10.912758">
<ele>939.472</ele>
<time>2020-09-11T17:14:08Z</time>
</trkpt>
<trkpt lat="47.407997" lon="10.912705">
<ele>939.251</ele>
<time>2020-09-11T17:14:09Z</time>
</trkpt>
<trkpt lat="47.407951" lon="10.912649">
<ele>939.139</ele>
<time>2020-09-11T17:14:10Z</time>
</trkpt>
<trkpt lat="47.407909" lon="10.912593">
<ele>938.784</ele>
<time>2020-09-11T17:14:11Z</time>
</trkpt>
<trkpt lat="47.407867" lon="10.91254">
<ele>938.493</ele>
<time>2020-09-11T17:14:12Z</time>
</trkpt>
<trkpt lat="47.407829" lon="10.912492">
<ele>938.29</ele>
<time>2020-09-11T17:14:13Z</time>
</trkpt>
<trkpt lat="47.407795" lon="10.91245">
<ele>937.901</ele>
<time>2020-09-11T17:14:14Z</time>
</trkpt>
<trkpt lat="47.407761" lon="10.912412">
<ele>937.61</ele>
<time>2020-09-11T17:14:15Z</time>
</trkpt>
<trkpt lat="47.407734" lon="10.912376">
<ele>937.411</ele>
<time>2020-09-11T17:14:16Z</time>
</trkpt>
<trkpt lat="47.407711" lon="10.912347">
<ele>936.967</ele>
<time>2020-09-11T17:14:17Z</time>
</trkpt>
<trkpt lat="47.407696" lon="10.912323">
<ele>936.617</ele>
<time>2020-09-11T17:14:18Z</time>
</trkpt>
<trkpt lat="47.407681" lon="10.9123">
<ele>936.308</ele>
<time>2020-09-11T17:14:19Z</time>
</trkpt>
<trkpt lat="47.407665" lon="10.91227">
<ele>936.13</ele>
<time>2020-09-11T17:14:20Z</time>
</trkpt>
<trkpt lat="47.407661" lon="10.91223">
<ele>935.986</ele>
<time>2020-09-11T17:14:21Z</time>
</trkpt>
<trkpt lat="47.407654" lon="10.912185">
<ele>935.87</ele>
<time>2020-09-11T17:14:22Z</time>
</trkpt>
<trkpt lat="47.40765" lon="10.912133">
<ele>935.794</ele>
<time>2020-09-11T17:14:23Z</time>
</trkpt>
<trkpt lat="47.407646" lon="10.912073">
<ele>935.498</ele>
<time>2020-09-11T17:14:24Z</time>
</trkpt>
<trkpt lat="47.407642" lon="10.912012">
<ele>935.201</ele>
<time>2020-09-11T17:14:25Z</time>
</trkpt>
<trkpt lat="47.407642" lon="10.91195">
<ele>935.018</ele>
<time>2020-09-11T17:14:26Z</time>
</trkpt>
<trkpt lat="47.407639" lon="10.911882">
<ele>934.903</ele>
<time>2020-09-11T17:14:27Z</time>
</trkpt>
<trkpt lat="47.407642" lon="10.911818">
<ele>934.835</ele>
<time>2020-09-11T17:14:28Z</time>
</trkpt>
<trkpt lat="47.407642" lon="10.911758">
<ele>934.794</ele>
<time>2020-09-11T17:14:29Z</time>
</trkpt>
<trkpt lat="47.407635" lon="10.911696">
<ele>934.768</ele>
<time>2020-09-11T17:14:30Z</time>
</trkpt>
<trkpt lat="47.407627" lon="10.911637">
<ele>934.749</ele>
<time>2020-09-11T17:14:31Z</time>
</trkpt>
<trkpt lat="47.407608" lon="10.911572">
<ele>934.749</ele>
<time>2020-09-11T17:14:32Z</time>
</trkpt>
<trkpt lat="47.407593" lon="10.911507">
<ele>934.749</ele>
<time>2020-09-11T17:14:33Z</time>
</trkpt>
<trkpt lat="47.407566" lon="10.911442">
<ele>934.749</ele>
<time>2020-09-11T17:14:34Z</time>
</trkpt>
<trkpt lat="47.407536" lon="10.91138">
<ele>934.749</ele>
<time>2020-09-11T17:14:35Z</time>
</trkpt>
<trkpt lat="47.407501" lon="10.911325">
<ele>934.749</ele>
<time>2020-09-11T17:14:36Z</time>
</trkpt>
<trkpt lat="47.407467" lon="10.91127">
<ele>934.749</ele>
<time>2020-09-11T17:14:37Z</time>
</trkpt>
<trkpt lat="47.407436" lon="10.911217">
<ele>934.749</ele>
<time>2020-09-11T17:14:38Z</time>
</trkpt>
<trkpt lat="47.407402" lon="10.911163">
<ele>934.749</ele>
<time>2020-09-11T17:14:39Z</time>
</trkpt>
<trkpt lat="47.40736" lon="10.911112">
<ele>934.749</ele>
<time>2020-09-11T17:14:40Z</time>
</trkpt>
<trkpt lat="47.407322" lon="10.91106">
<ele>934.749</ele>
<time>2020-09-11T17:14:41Z</time>
</trkpt>
<trkpt lat="47.407288" lon="10.911012">
<ele>934.749</ele>
<time>2020-09-11T17:14:42Z</time>
</trkpt>
<trkpt lat="47.407249" lon="10.910963">
<ele>934.749</ele>
<time>2020-09-11T17:14:43Z</time>
</trkpt>
<trkpt lat="47.407215" lon="10.910912">
<ele>934.749</ele>
<time>2020-09-11T17:14:44Z</time>
</trkpt>
<trkpt lat="47.407177" lon="10.910858">
<ele>934.749</ele>
<time>2020-09-11T17:14:45Z</time>
</trkpt>
<trkpt lat="47.407143" lon="10.910804">
<ele>934.749</ele>
<time>2020-09-11T17:14:46Z</time>
</trkpt>
<trkpt lat="47.407101" lon="10.910743">
<ele>934.749</ele>
<time>2020-09-11T17:14:47Z</time>
</trkpt>
<trkpt lat="47.407059" lon="10.91068">
<ele>934.485</ele>
<time>2020-09-11T17:14:48Z</time>
</trkpt>
<trkpt lat="47.407021" lon="10.910615">
<ele>934.277</ele>
<time>2020-09-11T17:14:49Z</time>
</trkpt>
<trkpt lat="47.406979" lon="10.910554">
<ele>934.116</ele>
<time>2020-09-11T17:14:50Z</time>
</trkpt>
<trkpt lat="47.40694" lon="10.910493">
<ele>934.013</ele>
<time>2020-09-11T17:14:51Z</time>
</trkpt>
<trkpt lat="47.406898" lon="10.910433">
<ele>933.901</ele>
<time>2020-09-11T17:14:52Z</time>
</trkpt>
<trkpt lat="47.406853" lon="10.910374">
<ele>933.823</ele>
<time>2020-09-11T17:14:53Z</time>
</trkpt>
<trkpt lat="47.406815" lon="10.910314">
<ele>933.773</ele>
<time>2020-09-11T17:14:54Z</time>
</trkpt>
<trkpt lat="47.406769" lon="10.910252">
<ele>933.749</ele>
<time>2020-09-11T17:14:55Z</time>
</trkpt>
<trkpt lat="47.406723" lon="10.91019">
<ele>933.749</ele>
<time>2020-09-11T17:14:56Z</time>
</trkpt>
<trkpt lat="47.406685" lon="10.910127">
<ele>933.749</ele>
<time>2020-09-11T17:14:57Z</time>
</trkpt>
<trkpt lat="47.406635" lon="10.910064">
<ele>933.489</ele>
<time>2020-09-11T17:14:58Z</time>
</trkpt>
<trkpt lat="47.40659" lon="10.910001">
<ele>933.285</ele>
<time>2020-09-11T17:14:59Z</time>
</trkpt>
<trkpt lat="47.406548" lon="10.90994">
<ele>933.128</ele>
<time>2020-09-11T17:15:00Z</time>
</trkpt>
<trkpt lat="47.406498" lon="10.90988">
<ele>933.023</ele>
<time>2020-09-11T17:15:01Z</time>
</trkpt>
<trkpt lat="47.406456" lon="10.909819">
<ele>932.908</ele>
<time>2020-09-11T17:15:02Z</time>
</trkpt>
<trkpt lat="47.406406" lon="10.909757">
<ele>932.826</ele>
<time>2020-09-11T17:15:03Z</time>
</trkpt>
<trkpt lat="47.406361" lon="10.909697">
<ele>932.774</ele>
<time>2020-09-11T17:15:04Z</time>
</trkpt>
<trkpt lat="47.406315" lon="10.90964">
<ele>932.748</ele>
<time>2020-09-11T17:15:05Z</time>
</trkpt>
<trkpt lat="47.406265" lon="10.909584">
<ele>932.748</ele>
<time>2020-09-11T17:15:06Z</time>
</trkpt>
<trkpt lat="47.406219" lon="10.909527">
<ele>932.748</ele>
<time>2020-09-11T17:15:07Z</time>
</trkpt>
<trkpt lat="47.406174" lon="10.909471">
<ele>932.749</ele>
<time>2020-09-11T17:15:08Z</time>
</trkpt>
<trkpt lat="47.406128" lon="10.909414">
<ele>932.748</ele>
<time>2020-09-11T17:15:09Z</time>
</trkpt>
<trkpt lat="47.406078" lon="10.90936">
<ele>932.748</ele>
<time>2020-09-11T17:15:10Z</time>
</trkpt>
<trkpt lat="47.406033" lon="10.909307">
<ele>932.749</ele>
<time>2020-09-11T17:15:11Z</time>
</trkpt>
<trkpt lat="47.405991" lon="10.909253">
<ele>932.748</ele>
<time>2020-09-11T17:15:12Z</time>
</trkpt>
<trkpt lat="47.405941" lon="10.909202">
<ele>932.749</ele>
<time>2020-09-11T17:15:13Z</time>
</trkpt>
<trkpt lat="47.405899" lon="10.909152">
<ele>932.748</ele>
<time>2020-09-11T17:15:14Z</time>
</trkpt>
<trkpt lat="47.405849" lon="10.909103">
<ele>932.749</ele>
<time>2020-09-11T17:15:15Z</time>
</trkpt>
<trkpt lat="47.405804" lon="10.909054">
<ele>932.749</ele>
<time>2020-09-11T17:15:16Z</time>
</trkpt>
<trkpt lat="47.405754" lon="10.909003">
<ele>932.749</ele>
<time>2020-09-11T17:15:17Z</time>
</trkpt>
<trkpt lat="47.405704" lon="10.908957">
<ele>932.749</ele>
<time>2020-09-11T17:15:18Z</time>
</trkpt>
<trkpt lat="47.405647" lon="10.908914">
<ele>932.748</ele>
<time>2020-09-11T17:15:19Z</time>
</trkpt>
<trkpt lat="47.405594" lon="10.908867">
<ele>932.749</ele>
<time>2020-09-11T17:15:20Z</time>
</trkpt>
<trkpt lat="47.40554" lon="10.90882">
<ele>932.749</ele>
<time>2020-09-11T17:15:21Z</time>
</trkpt>
<trkpt lat="47.405487" lon="10.908772">
<ele>932.748</ele>
<time>2020-09-11T17:15:22Z</time>
</trkpt>
<trkpt lat="47.405434" lon="10.908727">
<ele>932.748</ele>
<time>2020-09-11T17:15:23Z</time>
</trkpt>
<trkpt lat="47.40538" lon="10.908685">
<ele>932.748</ele>
<time>2020-09-11T17:15:24Z</time>
</trkpt>
<trkpt lat="47.405331" lon="10.908642">
<ele>932.749</ele>
<time>2020-09-11T17:15:25Z</time>
</trkpt>
<trkpt lat="47.405277" lon="10.9086">
<ele>932.749</ele>
<time>2020-09-11T17:15:26Z</time>
</trkpt>
<trkpt lat="47.40522" lon="10.908557">
<ele>932.748</ele>
<time>2020-09-11T17:15:27Z</time>
</trkpt>
<trkpt lat="47.405163" lon="10.908515">
<ele>932.748</ele>
<time>2020-09-11T17:15:28Z</time>
</trkpt>
<trkpt lat="47.405109" lon="10.908475">
<ele>932.748</ele>
<time>2020-09-11T17:15:29Z</time>
</trkpt>
<trkpt lat="47.405056" lon="10.908436">
<ele>932.748</ele>
<time>2020-09-11T17:15:30Z</time>
</trkpt>
<trkpt lat="47.405006" lon="10.908394">
<ele>932.749</ele>
<time>2020-09-11T17:15:31Z</time>
</trkpt>
<trkpt lat="47.404957" lon="10.908348">
<ele>932.748</ele>
<time>2020-09-11T17:15:32Z</time>
</trkpt>
<trkpt lat="47.404911" lon="10.908303">
<ele>932.749</ele>
<time>2020-09-11T17:15:33Z</time>
</trkpt>
<trkpt lat="47.404865" lon="10.908258">
<ele>932.748</ele>
<time>2020-09-11T17:15:34Z</time>
</trkpt>
<trkpt lat="47.404819" lon="10.908216">
<ele>932.748</ele>
<time>2020-09-11T17:15:35Z</time>
</trkpt>
<trkpt lat="47.40477" lon="10.908175">
<ele>932.748</ele>
<time>2020-09-11T17:15:36Z</time>
</trkpt>
<trkpt lat="47.404724" lon="10.908134">
<ele>932.748</ele>
<time>2020-09-11T17:15:37Z</time>
</trkpt>
<trkpt lat="47.404671" lon="10.908094">
<ele>932.748</ele>
<time>2020-09-11T17:15:38Z</time>
</trkpt>
<trkpt lat="47.404621" lon="10.908054">
<ele>932.748</ele>
<time>2020-09-11T17:15:39Z</time>
</trkpt>
<trkpt lat="47.404568" lon="10.908013">
<ele>932.748</ele>
<time>2020-09-11T17:15:40Z</time>
</trkpt>
<trkpt lat="47.404514" lon="10.907973">
<ele>932.748</ele>
<time>2020-09-11T17:15:41Z</time>
</trkpt>
<trkpt lat="47.404465" lon="10.907935">
<ele>932.748</ele>
<time>2020-09-11T17:15:42Z</time>
</trkpt>
<trkpt lat="47.404411" lon="10.9079">
<ele>932.749</ele>
<time>2020-09-11T17:15:43Z</time>
</trkpt>
<trkpt lat="47.404366" lon="10.907864">
<ele>932.748</ele>
<time>2020-09-11T17:15:44Z</time>
</trkpt>
<trkpt lat="47.404312" lon="10.907824">
<ele>932.749</ele>
<time>2020-09-11T17:15:45Z</time>
</trkpt>
<trkpt lat="47.404259" lon="10.907784">
<ele>932.749</ele>
<time>2020-09-11T17:15:46Z</time>
</trkpt>
<trkpt lat="47.404205" lon="10.907744">
<ele>932.749</ele>
<time>2020-09-11T17:15:47Z</time>
</trkpt>
<trkpt lat="47.404152" lon="10.907707">
<ele>932.748</ele>
<time>2020-09-11T17:15:48Z</time>
</trkpt>
<trkpt lat="47.404102" lon="10.907663">
<ele>932.748</ele>
<time>2020-09-11T17:15:49Z</time>
</trkpt>
<trkpt lat="47.404045" lon="10.907619">
<ele>932.749</ele>
<time>2020-09-11T17:15:50Z</time>
</trkpt>
<trkpt lat="47.403996" lon="10.907575">
<ele>932.748</ele>
<time>2020-09-11T17:15:51Z</time>
</trkpt>
<trkpt lat="47.403946" lon="10.907533">
<ele>932.748</ele>
<time>2020-09-11T17:15:52Z</time>
</trkpt>
<trkpt lat="47.403896" lon="10.907494">
<ele>932.748</ele>
<time>2020-09-11T17:15:53Z</time>
</trkpt>
<trkpt lat="47.403847" lon="10.907454">
<ele>932.748</ele>
<time>2020-09-11T17:15:54Z</time>
</trkpt>
<trkpt lat="47.403793" lon="10.907413">
<ele>932.749</ele>
<time>2020-09-11T17:15:55Z</time>
</trkpt>
<trkpt lat="47.403748" lon="10.907372">
<ele>932.748</ele>
<time>2020-09-11T17:15:56Z</time>
</trkpt>
<trkpt lat="47.403694" lon="10.907328">
<ele>932.749</ele>
<time>2020-09-11T17:15:57Z</time>
</trkpt>
<trkpt lat="47.403648" lon="10.907286">
<ele>932.748</ele>
<time>2020-09-11T17:15:58Z</time>
</trkpt>
<trkpt lat="47.403595" lon="10.907246">
<ele>932.748</ele>
<time>2020-09-11T17:15:59Z</time>
</trkpt>
<trkpt lat="47.403545" lon="10.907202">
<ele>932.749</ele>
<time>2020-09-11T17:16:00Z</time>
</trkpt>
<trkpt lat="47.403492" lon="10.907155">
<ele>932.749</ele>
<time>2020-09-11T17:16:01Z</time>
</trkpt>
<trkpt lat="47.403442" lon="10.907108">
<ele>932.748</ele>
<time>2020-09-11T17:16:02Z</time>
</trkpt>
<trkpt lat="47.403393" lon="10.907062">
<ele>932.749</ele>
<time>2020-09-11T17:16:03Z</time>
</trkpt>
<trkpt lat="47.403339" lon="10.907018">
<ele>932.748</ele>
<time>2020-09-11T17:16:04Z</time>
</trkpt>
<trkpt lat="47.40329" lon="10.906977">
<ele>932.748</ele>
<time>2020-09-11T17:16:05Z</time>
</trkpt>
<trkpt lat="47.403236" lon="10.906936">
<ele>932.749</ele>
<time>2020-09-11T17:16:06Z</time>
</trkpt>
<trkpt lat="47.403191" lon="10.906895">
<ele>932.748</ele>
<time>2020-09-11T17:16:07Z</time>
</trkpt>
<trkpt lat="47.403137" lon="10.906854">
<ele>932.749</ele>
<time>2020-09-11T17:16:08Z</time>
</trkpt>
<trkpt lat="47.403091" lon="10.906808">
<ele>932.748</ele>
<time>2020-09-11T17:16:09Z</time>
</trkpt>
<trkpt lat="47.403042" lon="10.906765">
<ele>932.748</ele>
<time>2020-09-11T17:16:10Z</time>
</trkpt>
<trkpt lat="47.402992" lon="10.90672">
<ele>932.748</ele>
<time>2020-09-11T17:16:11Z</time>
</trkpt>
<trkpt lat="47.402939" lon="10.906676">
<ele>932.748</ele>
<time>2020-09-11T17:16:12Z</time>
</trkpt>
<trkpt lat="47.402889" lon="10.906633">
<ele>932.748</ele>
<time>2020-09-11T17:16:13Z</time>
</trkpt>
<trkpt lat="47.40284" lon="10.906587">
<ele>932.748</ele>
<time>2020-09-11T17:16:14Z</time>
</trkpt>
<trkpt lat="47.40279" lon="10.906545">
<ele>932.748</ele>
<time>2020-09-11T17:16:15Z</time>
</trkpt>
<trkpt lat="47.40274" lon="10.906504">
<ele>932.748</ele>
<time>2020-09-11T17:16:16Z</time>
</trkpt>
<trkpt lat="47.402695" lon="10.906462">
<ele>932.749</ele>
<time>2020-09-11T17:16:17Z</time>
</trkpt>
<trkpt lat="47.402645" lon="10.906422">
<ele>932.748</ele>
<time>2020-09-11T17:16:18Z</time>
</trkpt>
<trkpt lat="47.402603" lon="10.906382">
<ele>932.748</ele>
<time>2020-09-11T17:16:19Z</time>
</trkpt>
<trkpt lat="47.402557" lon="10.906339">
<ele>932.748</ele>
<time>2020-09-11T17:16:20Z</time>
</trkpt>
<trkpt lat="47.402512" lon="10.906299">
<ele>932.748</ele>
<time>2020-09-11T17:16:21Z</time>
</trkpt>
<trkpt lat="47.402462" lon="10.90626">
<ele>932.748</ele>
<time>2020-09-11T17:16:22Z</time>
</trkpt>
<trkpt lat="47.402416" lon="10.906221">
<ele>932.748</ele>
<time>2020-09-11T17:16:23Z</time>
</trkpt>
<trkpt lat="47.40237" lon="10.906181">
<ele>932.748</ele>
<time>2020-09-11T17:16:24Z</time>
</trkpt>
<trkpt lat="47.402317" lon="10.906141">
<ele>932.748</ele>
<time>2020-09-11T17:16:25Z</time>
</trkpt>
<trkpt lat="47.402275" lon="10.9061">
<ele>932.748</ele>
<time>2020-09-11T17:16:26Z</time>
</trkpt>
<trkpt lat="47.402225" lon="10.906056">
<ele>932.748</ele>
<time>2020-09-11T17:16:27Z</time>
</trkpt>
<trkpt lat="47.40218" lon="10.906012">
<ele>932.749</ele>
<time>2020-09-11T17:16:28Z</time>
</trkpt>
<trkpt lat="47.402134" lon="10.905968">
<ele>932.749</ele>
<time>2020-09-11T17:16:29Z</time>
</trkpt>
<trkpt lat="47.402088" lon="10.905924">
<ele>932.748</ele>
<time>2020-09-11T17:16:30Z</time>
</trkpt>
<trkpt lat="47.402039" lon="10.90588">
<ele>932.749</ele>
<time>2020-09-11T17:16:31Z</time>
</trkpt>
<trkpt lat="47.401993" lon="10.905836">
<ele>932.748</ele>
<time>2020-09-11T17:16:32Z</time>
</trkpt>
<trkpt lat="47.401943" lon="10.905793">
<ele>932.748</ele>
<time>2020-09-11T17:16:33Z</time>
</trkpt>
<trkpt lat="47.401894" lon="10.905752">
<ele>932.748</ele>
<time>2020-09-11T17:16:34Z</time>
</trkpt>
<trkpt lat="47.401844" lon="10.90571">
<ele>932.748</ele>
<time>2020-09-11T17:16:35Z</time>
</trkpt>
<trkpt lat="47.401794" lon="10.905664">
<ele>932.749</ele>
<time>2020-09-11T17:16:36Z</time>
</trkpt>
<trkpt lat="47.401752" lon="10.905622">
<ele>932.748</ele>
<time>2020-09-11T17:16:37Z</time>
</trkpt>
<trkpt lat="47.401703" lon="10.905579">
<ele>932.748</ele>
<time>2020-09-11T17:16:38Z</time>
</trkpt>
<trkpt lat="47.401661" lon="10.905535">
<ele>932.748</ele>
<time>2020-09-11T17:16:39Z</time>
</trkpt>
<trkpt lat="47.401615" lon="10.905497">
<ele>932.748</ele>
<time>2020-09-11T17:16:40Z</time>
</trkpt>
<trkpt lat="47.401569" lon="10.905457">
<ele>932.749</ele>
<time>2020-09-11T17:16:41Z</time>
</trkpt>
<trkpt lat="47.401535" lon="10.905418">
<ele>932.749</ele>
<time>2020-09-11T17:16:42Z</time>
</trkpt>
<trkpt lat="47.401493" lon="10.905378">
<ele>932.748</ele>
<time>2020-09-11T17:16:43Z</time>
</trkpt>
<trkpt lat="47.401459" lon="10.905338">
<ele>932.748</ele>
<time>2020-09-11T17:16:44Z</time>
</trkpt>
<trkpt lat="47.401421" lon="10.9053">
<ele>932.749</ele>
<time>2020-09-11T17:16:45Z</time>
</trkpt>
<trkpt lat="47.401382" lon="10.905265">
<ele>932.749</ele>
<time>2020-09-11T17:16:46Z</time>
</trkpt>
<trkpt lat="47.401348" lon="10.905232">
<ele>932.749</ele>
<time>2020-09-11T17:16:47Z</time>
</trkpt>
<trkpt lat="47.401314" lon="10.9052">
<ele>932.748</ele>
<time>2020-09-11T17:16:48Z</time>
</trkpt>
<trkpt lat="47.401276" lon="10.905168">
<ele>932.748</ele>
<time>2020-09-11T17:16:49Z</time>
</trkpt>
<trkpt lat="47.401241" lon="10.905138">
<ele>932.748</ele>
<time>2020-09-11T17:16:50Z</time>
</trkpt>
<trkpt lat="47.401211" lon="10.905108">
<ele>932.748</ele>
<time>2020-09-11T17:16:51Z</time>
</trkpt>
<trkpt lat="47.401184" lon="10.905071">
<ele>932.749</ele>
<time>2020-09-11T17:16:52Z</time>
</trkpt>
<trkpt lat="47.401176" lon="10.905028">
<ele>932.748</ele>
<time>2020-09-11T17:16:53Z</time>
</trkpt>
<trkpt lat="47.40118" lon="10.904982">
<ele>932.748</ele>
<time>2020-09-11T17:16:54Z</time>
</trkpt>
<trkpt lat="47.401196" lon="10.904935">
<ele>932.749</ele>
<time>2020-09-11T17:16:55Z</time>
</trkpt>
<trkpt lat="47.401211" lon="10.904885">
<ele>932.749</ele>
<time>2020-09-11T17:16:56Z</time>
</trkpt>
<trkpt lat="47.40123" lon="10.904828">
<ele>932.749</ele>
<time>2020-09-11T17:16:57Z</time>
</trkpt>
<trkpt lat="47.401241" lon="10.904768">
<ele>932.749</ele>
<time>2020-09-11T17:16:58Z</time>
</trkpt>
<trkpt lat="47.401253" lon="10.904703">
<ele>933.011</ele>
<time>2020-09-11T17:16:59Z</time>
</trkpt>
<trkpt lat="47.401253" lon="10.904638">
<ele>933.222</ele>
<time>2020-09-11T17:17:00Z</time>
</trkpt>
<trkpt lat="47.401253" lon="10.904565">
<ele>933.36</ele>
<time>2020-09-11T17:17:01Z</time>
</trkpt>
<trkpt lat="47.401245" lon="10.904495">
<ele>933.503</ele>
<time>2020-09-11T17:17:02Z</time>
</trkpt>
<trkpt lat="47.401241" lon="10.904422">
<ele>933.607</ele>
<time>2020-09-11T17:17:03Z</time>
</trkpt>
<trkpt lat="47.401237" lon="10.904346">
<ele>933.68</ele>
<time>2020-09-11T17:17:04Z</time>
</trkpt>
<trkpt lat="47.40123" lon="10.90427">
<ele>933.726</ele>
<time>2020-09-11T17:17:05Z</time>
</trkpt>
<trkpt lat="47.401222" lon="10.904193">
<ele>933.749</ele>
<time>2020-09-11T17:17:06Z</time>
</trkpt>
<trkpt lat="47.401211" lon="10.904117">
<ele>933.749</ele>
<time>2020-09-11T17:17:07Z</time>
</trkpt>
<trkpt lat="47.401207" lon="10.90404">
<ele>933.749</ele>
<time>2020-09-11T17:17:08Z</time>
</trkpt>
<trkpt lat="47.401203" lon="10.903963">
<ele>933.749</ele>
<time>2020-09-11T17:17:09Z</time>
</trkpt>
<trkpt lat="47.401203" lon="10.903881">
<ele>933.749</ele>
<time>2020-09-11T17:17:10Z</time>
</trkpt>
<trkpt lat="47.401211" lon="10.903806">
<ele>933.749</ele>
<time>2020-09-11T17:17:11Z</time>
</trkpt>
<trkpt lat="47.401226" lon="10.903733">
<ele>933.749</ele>
<time>2020-09-11T17:17:12Z</time>
</trkpt>
<trkpt lat="47.401241" lon="10.903669">
<ele>933.749</ele>
<time>2020-09-11T17:17:13Z</time>
</trkpt>
<trkpt lat="47.401272" lon="10.903611">
<ele>933.749</ele>
<time>2020-09-11T17:17:14Z</time>
</trkpt>
<trkpt lat="47.401299" lon="10.903559">
<ele>933.749</ele>
<time>2020-09-11T17:17:15Z</time>
</trkpt>
<trkpt lat="47.401333" lon="10.903508">
<ele>933.749</ele>
<time>2020-09-11T17:17:16Z</time>
</trkpt>
<trkpt lat="47.401367" lon="10.903457">
<ele>933.749</ele>
<time>2020-09-11T17:17:17Z</time>
</trkpt>
<trkpt lat="47.401405" lon="10.903408">
<ele>933.749</ele>
<time>2020-09-11T17:17:18Z</time>
</trkpt>
<trkpt lat="47.401443" lon="10.903357">
<ele>933.749</ele>
<time>2020-09-11T17:17:19Z</time>
</trkpt>
<trkpt lat="47.401482" lon="10.903305">
<ele>933.749</ele>
<time>2020-09-11T17:17:20Z</time>
</trkpt>
<trkpt lat="47.401516" lon="10.903247">
<ele>933.749</ele>
<time>2020-09-11T17:17:21Z</time>
</trkpt>
<trkpt lat="47.401546" lon="10.903183">
<ele>933.749</ele>
<time>2020-09-11T17:17:22Z</time>
</trkpt>
<trkpt lat="47.401577" lon="10.903112">
<ele>933.749</ele>
<time>2020-09-11T17:17:23Z</time>
</trkpt>
<trkpt lat="47.401596" lon="10.903035">
<ele>933.749</ele>
<time>2020-09-11T17:17:24Z</time>
</trkpt>
<trkpt lat="47.401604" lon="10.902955">
<ele>933.749</ele>
<time>2020-09-11T17:17:25Z</time>
</trkpt>
<trkpt lat="47.401619" lon="10.902875">
<ele>933.749</ele>
<time>2020-09-11T17:17:26Z</time>
</trkpt>
<trkpt lat="47.40163" lon="10.902799">
<ele>933.749</ele>
<time>2020-09-11T17:17:27Z</time>
</trkpt>
<trkpt lat="47.401646" lon="10.902722">
<ele>933.749</ele>
<time>2020-09-11T17:17:28Z</time>
</trkpt>
<trkpt lat="47.401661" lon="10.902643">
<ele>933.749</ele>
<time>2020-09-11T17:17:29Z</time>
</trkpt>
<trkpt lat="47.401672" lon="10.902565">
<ele>933.749</ele>
<time>2020-09-11T17:17:30Z</time>
</trkpt>
<trkpt lat="47.401688" lon="10.902484">
<ele>933.749</ele>
<time>2020-09-11T17:17:31Z</time>
</trkpt>
<trkpt lat="47.401699" lon="10.902404">
<ele>933.749</ele>
<time>2020-09-11T17:17:32Z</time>
</trkpt>
<trkpt lat="47.401714" lon="10.902322">
<ele>933.749</ele>
<time>2020-09-11T17:17:33Z</time>
</trkpt>
<trkpt lat="47.401726" lon="10.902239">
<ele>933.749</ele>
<time>2020-09-11T17:17:34Z</time>
</trkpt>
<trkpt lat="47.401733" lon="10.902157">
<ele>933.749</ele>
<time>2020-09-11T17:17:35Z</time>
</trkpt>
<trkpt lat="47.401745" lon="10.902077">
<ele>933.749</ele>
<time>2020-09-11T17:17:36Z</time>
</trkpt>
<trkpt lat="47.40176" lon="10.901999">
<ele>933.749</ele>
<time>2020-09-11T17:17:37Z</time>
</trkpt>
<trkpt lat="47.401772" lon="10.90192">
<ele>933.749</ele>
<time>2020-09-11T17:17:38Z</time>
</trkpt>
<trkpt lat="47.401787" lon="10.901842">
<ele>933.749</ele>
<time>2020-09-11T17:17:39Z</time>
</trkpt>
<trkpt lat="47.401798" lon="10.901761">
<ele>933.749</ele>
<time>2020-09-11T17:17:40Z</time>
</trkpt>
<trkpt lat="47.401814" lon="10.90168">
<ele>933.749</ele>
<time>2020-09-11T17:17:41Z</time>
</trkpt>
<trkpt lat="47.401825" lon="10.901602">
<ele>933.749</ele>
<time>2020-09-11T17:17:42Z</time>
</trkpt>
<trkpt lat="47.401833" lon="10.90152">
<ele>933.749</ele>
<time>2020-09-11T17:17:43Z</time>
</trkpt>
<trkpt lat="47.401836" lon="10.901437">
<ele>933.749</ele>
<time>2020-09-11T17:17:44Z</time>
</trkpt>
<trkpt lat="47.401844" lon="10.901353">
<ele>933.749</ele>
<time>2020-09-11T17:17:45Z</time>
</trkpt>
<trkpt lat="47.401844" lon="10.901273">
<ele>933.749</ele>
<time>2020-09-11T17:17:46Z</time>
</trkpt>
<trkpt lat="47.40184" lon="10.90119">
<ele>933.749</ele>
<time>2020-09-11T17:17:47Z</time>
</trkpt>
<trkpt lat="47.40184" lon="10.901105">
<ele>933.749</ele>
<time>2020-09-11T17:17:48Z</time>
</trkpt>
<trkpt lat="47.40184" lon="10.90102">
<ele>933.749</ele>
<time>2020-09-11T17:17:49Z</time>
</trkpt>
<trkpt lat="47.401836" lon="10.900933">
<ele>933.749</ele>
<time>2020-09-11T17:17:50Z</time>
</trkpt>
<trkpt lat="47.401836" lon="10.900847">
<ele>933.749</ele>
<time>2020-09-11T17:17:51Z</time>
</trkpt>
<trkpt lat="47.401836" lon="10.900762">
<ele>933.749</ele>
<time>2020-09-11T17:17:52Z</time>
</trkpt>
<trkpt lat="47.401833" lon="10.900676">
<ele>933.749</ele>
<time>2020-09-11T17:17:53Z</time>
</trkpt>
<trkpt lat="47.401829" lon="10.90059">
<ele>933.749</ele>
<time>2020-09-11T17:17:54Z</time>
</trkpt>
<trkpt lat="47.401829" lon="10.900506">
<ele>933.749</ele>
<time>2020-09-11T17:17:55Z</time>
</trkpt>
<trkpt lat="47.401825" lon="10.900424">
<ele>933.749</ele>
<time>2020-09-11T17:17:56Z</time>
</trkpt>
<trkpt lat="47.401825" lon="10.90034">
<ele>933.749</ele>
<time>2020-09-11T17:17:57Z</time>
</trkpt>
<trkpt lat="47.401821" lon="10.900258">
<ele>933.749</ele>
<time>2020-09-11T17:17:58Z</time>
</trkpt>
<trkpt lat="47.401817" lon="10.900175">
<ele>933.749</ele>
<time>2020-09-11T17:17:59Z</time>
</trkpt>
<trkpt lat="47.401817" lon="10.900089">
<ele>933.749</ele>
<time>2020-09-11T17:18:00Z</time>
</trkpt>
<trkpt lat="47.401814" lon="10.900007">
<ele>933.749</ele>
<time>2020-09-11T17:18:01Z</time>
</trkpt>
<trkpt lat="47.401814" lon="10.899923">
<ele>933.749</ele>
<time>2020-09-11T17:18:02Z</time>
</trkpt>
<trkpt lat="47.401814" lon="10.899838">
<ele>933.749</ele>
<time>2020-09-11T17:18:03Z</time>
</trkpt>
<trkpt lat="47.401814" lon="10.899755">
<ele>933.749</ele>
<time>2020-09-11T17:18:04Z</time>
</trkpt>
<trkpt lat="47.401814" lon="10.89967">
<ele>933.749</ele>
<time>2020-09-11T17:18:05Z</time>
</trkpt>
<trkpt lat="47.40181" lon="10.899584">
<ele>933.749</ele>
<time>2020-09-11T17:18:06Z</time>
</trkpt>
<trkpt lat="47.401806" lon="10.899494">
<ele>933.749</ele>
<time>2020-09-11T17:18:07Z</time>
</trkpt>
<trkpt lat="47.401802" lon="10.899412">
<ele>933.749</ele>
<time>2020-09-11T17:18:08Z</time>
</trkpt>
<trkpt lat="47.401798" lon="10.899326">
<ele>933.749</ele>
<time>2020-09-11T17:18:09Z</time>
</trkpt>
<trkpt lat="47.401798" lon="10.899243">
<ele>933.749</ele>
<time>2020-09-11T17:18:10Z</time>
</trkpt>
<trkpt lat="47.401794" lon="10.89916">
<ele>933.749</ele>
<time>2020-09-11T17:18:11Z</time>
</trkpt>
<trkpt lat="47.401794" lon="10.899074">
<ele>933.992</ele>
<time>2020-09-11T17:18:12Z</time>
</trkpt>
<trkpt lat="47.401791" lon="10.898989">
<ele>934.195</ele>
<time>2020-09-11T17:18:13Z</time>
</trkpt>
<trkpt lat="47.401787" lon="10.898905">
<ele>934.362</ele>
<time>2020-09-11T17:18:14Z</time>
</trkpt>
<trkpt lat="47.401787" lon="10.898822">
<ele>934.497</ele>
<time>2020-09-11T17:18:15Z</time>
</trkpt>
<trkpt lat="47.401783" lon="10.898738">
<ele>934.603</ele>
<time>2020-09-11T17:18:16Z</time>
</trkpt>
<trkpt lat="47.401779" lon="10.898655">
<ele>934.678</ele>
<time>2020-09-11T17:18:17Z</time>
</trkpt>
<trkpt lat="47.401775" lon="10.898575">
<ele>934.726</ele>
<time>2020-09-11T17:18:18Z</time>
</trkpt>
<trkpt lat="47.401772" lon="10.898492">
<ele>934.749</ele>
<time>2020-09-11T17:18:19Z</time>
</trkpt>
<trkpt lat="47.401772" lon="10.898407">
<ele>934.749</ele>
<time>2020-09-11T17:18:20Z</time>
</trkpt>
<trkpt lat="47.401768" lon="10.898323">
<ele>934.749</ele>
<time>2020-09-11T17:18:21Z</time>
</trkpt>
<trkpt lat="47.401764" lon="10.898239">
<ele>934.749</ele>
<time>2020-09-11T17:18:22Z</time>
</trkpt>
<trkpt lat="47.40176" lon="10.898157">
<ele>934.749</ele>
<time>2020-09-11T17:18:23Z</time>
</trkpt>
<trkpt lat="47.401756" lon="10.898073">
<ele>934.749</ele>
<time>2020-09-11T17:18:24Z</time>
</trkpt>
<trkpt lat="47.401752" lon="10.897992">
<ele>934.749</ele>
<time>2020-09-11T17:18:25Z</time>
</trkpt>
<trkpt lat="47.401749" lon="10.897908">
<ele>934.749</ele>
<time>2020-09-11T17:18:26Z</time>
</trkpt>
<trkpt lat="47.401741" lon="10.897821">
<ele>934.749</ele>
<time>2020-09-11T17:18:27Z</time>
</trkpt>
<trkpt lat="47.401737" lon="10.897735">
<ele>934.749</ele>
<time>2020-09-11T17:18:28Z</time>
</trkpt>
<trkpt lat="47.401737" lon="10.897652">
<ele>934.749</ele>
<time>2020-09-11T17:18:29Z</time>
</trkpt>
<trkpt lat="47.401733" lon="10.897569">
<ele>934.749</ele>
<time>2020-09-11T17:18:30Z</time>
</trkpt>
<trkpt lat="47.40173" lon="10.897485">
<ele>934.749</ele>
<time>2020-09-11T17:18:31Z</time>
</trkpt>
<trkpt lat="47.40173" lon="10.897404">
<ele>934.749</ele>
<time>2020-09-11T17:18:32Z</time>
</trkpt>
<trkpt lat="47.40173" lon="10.897315">
<ele>934.749</ele>
<time>2020-09-11T17:18:33Z</time>
</trkpt>
<trkpt lat="47.401726" lon="10.897231">
<ele>934.749</ele>
<time>2020-09-11T17:18:34Z</time>
</trkpt>
<trkpt lat="47.401726" lon="10.89715">
<ele>934.749</ele>
<time>2020-09-11T17:18:35Z</time>
</trkpt>
<trkpt lat="47.401726" lon="10.897068">
<ele>934.749</ele>
<time>2020-09-11T17:18:36Z</time>
</trkpt>
<trkpt lat="47.401726" lon="10.896988">
<ele>934.749</ele>
<time>2020-09-11T17:18:37Z</time>
</trkpt>
<trkpt lat="47.401722" lon="10.896907">
<ele>934.749</ele>
<time>2020-09-11T17:18:38Z</time>
</trkpt>
<trkpt lat="47.401722" lon="10.896825">
<ele>934.749</ele>
<time>2020-09-11T17:18:39Z</time>
</trkpt>
<trkpt lat="47.401722" lon="10.896742">
<ele>934.991</ele>
<time>2020-09-11T17:18:40Z</time>
</trkpt>
<trkpt lat="47.401722" lon="10.896658">
<ele>935.163</ele>
<time>2020-09-11T17:18:41Z</time>
</trkpt>
<trkpt lat="47.401718" lon="10.896577">
<ele>935.344</ele>
<time>2020-09-11T17:18:42Z</time>
</trkpt>
<trkpt lat="47.401718" lon="10.896495">
<ele>935.488</ele>
<time>2020-09-11T17:18:43Z</time>
</trkpt>
<trkpt lat="47.401718" lon="10.896414">
<ele>935.597</ele>
<time>2020-09-11T17:18:44Z</time>
</trkpt>
<trkpt lat="47.401714" lon="10.896332">
<ele>935.676</ele>
<time>2020-09-11T17:18:45Z</time>
</trkpt>
<trkpt lat="47.401714" lon="10.896249">
<ele>935.726</ele>
<time>2020-09-11T17:18:46Z</time>
</trkpt>
<trkpt lat="47.401711" lon="10.896167">
<ele>935.75</ele>
<time>2020-09-11T17:18:47Z</time>
</trkpt>
<trkpt lat="47.401711" lon="10.896085">
<ele>935.75</ele>
<time>2020-09-11T17:18:48Z</time>
</trkpt>
<trkpt lat="47.401707" lon="10.89601">
<ele>935.75</ele>
<time>2020-09-11T17:18:49Z</time>
</trkpt>
<trkpt lat="47.401707" lon="10.895939">
<ele>935.75</ele>
<time>2020-09-11T17:18:50Z</time>
</trkpt>
<trkpt lat="47.401703" lon="10.895872">
<ele>935.75</ele>
<time>2020-09-11T17:18:51Z</time>
</trkpt>
<trkpt lat="47.401699" lon="10.895808">
<ele>935.75</ele>
<time>2020-09-11T17:18:52Z</time>
</trkpt>
<trkpt lat="47.401699" lon="10.895743">
<ele>935.75</ele>
<time>2020-09-11T17:18:53Z</time>
</trkpt>
<trkpt lat="47.401695" lon="10.89568">
<ele>935.75</ele>
<time>2020-09-11T17:18:54Z</time>
</trkpt>
<trkpt lat="47.401684" lon="10.895614">
<ele>935.75</ele>
<time>2020-09-11T17:18:55Z</time>
</trkpt>
<trkpt lat="47.401672" lon="10.895549">
<ele>935.75</ele>
<time>2020-09-11T17:18:56Z</time>
</trkpt>
<trkpt lat="47.401669" lon="10.895482">
<ele>935.75</ele>
<time>2020-09-11T17:18:57Z</time>
</trkpt>
<trkpt lat="47.401665" lon="10.895411">
<ele>935.75</ele>
<time>2020-09-11T17:18:58Z</time>
</trkpt>
<trkpt lat="47.401665" lon="10.895337">
<ele>935.75</ele>
<time>2020-09-11T17:18:59Z</time>
</trkpt>
<trkpt lat="47.401665" lon="10.89526">
<ele>935.75</ele>
<time>2020-09-11T17:19:00Z</time>
</trkpt>
<trkpt lat="47.401665" lon="10.895182">
<ele>935.75</ele>
<time>2020-09-11T17:19:01Z</time>
</trkpt>
<trkpt lat="47.401665" lon="10.895099">
<ele>935.75</ele>
<time>2020-09-11T17:19:02Z</time>
</trkpt>
<trkpt lat="47.401669" lon="10.895019">
<ele>935.75</ele>
<time>2020-09-11T17:19:03Z</time>
</trkpt>
<trkpt lat="47.401672" lon="10.894935">
<ele>935.75</ele>
<time>2020-09-11T17:19:04Z</time>
</trkpt>
<trkpt lat="47.40168" lon="10.89485">
<ele>935.75</ele>
<time>2020-09-11T17:19:05Z</time>
</trkpt>
<trkpt lat="47.401684" lon="10.894767">
<ele>935.75</ele>
<time>2020-09-11T17:19:06Z</time>
</trkpt>
<trkpt lat="47.401691" lon="10.894682">
<ele>935.75</ele>
<time>2020-09-11T17:19:07Z</time>
</trkpt>
<trkpt lat="47.401695" lon="10.894596">
<ele>935.75</ele>
<time>2020-09-11T17:19:08Z</time>
</trkpt>
<trkpt lat="47.401699" lon="10.894515">
<ele>935.75</ele>
<time>2020-09-11T17:19:09Z</time>
</trkpt>
<trkpt lat="47.401699" lon="10.894437">
<ele>935.75</ele>
<time>2020-09-11T17:19:10Z</time>
</trkpt>
<trkpt lat="47.401703" lon="10.894355">
<ele>935.75</ele>
<time>2020-09-11T17:19:11Z</time>
</trkpt>
<trkpt lat="47.401707" lon="10.894275">
<ele>935.75</ele>
<time>2020-09-11T17:19:12Z</time>
</trkpt>
<trkpt lat="47.401711" lon="10.894197">
<ele>935.75</ele>
<time>2020-09-11T17:19:13Z</time>
</trkpt>
<trkpt lat="47.401714" lon="10.894114">
<ele>935.75</ele>
<time>2020-09-11T17:19:14Z</time>
</trkpt>
<trkpt lat="47.401714" lon="10.89403">
<ele>935.75</ele>
<time>2020-09-11T17:19:15Z</time>
</trkpt>
<trkpt lat="47.401718" lon="10.893949">
<ele>935.75</ele>
<time>2020-09-11T17:19:16Z</time>
</trkpt>
<trkpt lat="47.401722" lon="10.893867">
<ele>935.75</ele>
<time>2020-09-11T17:19:17Z</time>
</trkpt>
<trkpt lat="47.401726" lon="10.893788">
<ele>935.75</ele>
<time>2020-09-11T17:19:18Z</time>
</trkpt>
<trkpt lat="47.40173" lon="10.893705">
<ele>935.75</ele>
<time>2020-09-11T17:19:19Z</time>
</trkpt>
<trkpt lat="47.40173" lon="10.893619">
<ele>935.75</ele>
<time>2020-09-11T17:19:20Z</time>
</trkpt>
<trkpt lat="47.401737" lon="10.893541">
<ele>935.75</ele>
<time>2020-09-11T17:19:21Z</time>
</trkpt>
<trkpt lat="47.401745" lon="10.893465">
<ele>935.75</ele>
<time>2020-09-11T17:19:22Z</time>
</trkpt>
<trkpt lat="47.401752" lon="10.893395">
<ele>935.75</ele>
<time>2020-09-11T17:19:23Z</time>
</trkpt>
<trkpt lat="47.401756" lon="10.893324">
<ele>935.75</ele>
<time>2020-09-11T17:19:24Z</time>
</trkpt>
<trkpt lat="47.401756" lon="10.893251">
<ele>935.75</ele>
<time>2020-09-11T17:19:25Z</time>
</trkpt>
<trkpt lat="47.401756" lon="10.89318">
<ele>936.039</ele>
<time>2020-09-11T17:19:26Z</time>
</trkpt>
<trkpt lat="47.40176" lon="10.893106">
<ele>936.267</ele>
<time>2020-09-11T17:19:27Z</time>
</trkpt>
<trkpt lat="47.40176" lon="10.89303">
<ele>936.447</ele>
<time>2020-09-11T17:19:28Z</time>
</trkpt>
<trkpt lat="47.401756" lon="10.892949">
<ele>936.587</ele>
<time>2020-09-11T17:19:29Z</time>
</trkpt>
<trkpt lat="47.401756" lon="10.892863">
<ele>936.682</ele>
<time>2020-09-11T17:19:30Z</time>
</trkpt>
<trkpt lat="47.401749" lon="10.892778">
<ele>936.753</ele>
<time>2020-09-11T17:19:31Z</time>
</trkpt>
<trkpt lat="47.401741" lon="10.89269">
<ele>936.814</ele>
<time>2020-09-11T17:19:32Z</time>
</trkpt>
<trkpt lat="47.401737" lon="10.892608">
<ele>936.842</ele>
<time>2020-09-11T17:19:33Z</time>
</trkpt>
<trkpt lat="47.40173" lon="10.892529">
<ele>936.842</ele>
<time>2020-09-11T17:19:34Z</time>
</trkpt>
<trkpt lat="47.40173" lon="10.892445">
<ele>936.842</ele>
<time>2020-09-11T17:19:35Z</time>
</trkpt>
<trkpt lat="47.401718" lon="10.892356">
<ele>936.842</ele>
<time>2020-09-11T17:19:36Z</time>
</trkpt>
<trkpt lat="47.401711" lon="10.892272">
<ele>936.842</ele>
<time>2020-09-11T17:19:37Z</time>
</trkpt>
<trkpt lat="47.401703" lon="10.892186">
<ele>936.842</ele>
<time>2020-09-11T17:19:38Z</time>
</trkpt>
<trkpt lat="47.401699" lon="10.892107">
<ele>936.842</ele>
<time>2020-09-11T17:19:39Z</time>
</trkpt>
<trkpt lat="47.401699" lon="10.892023">
<ele>936.842</ele>
<time>2020-09-11T17:19:40Z</time>
</trkpt>
<trkpt lat="47.401695" lon="10.891943">
<ele>936.842</ele>
<time>2020-09-11T17:19:41Z</time>
</trkpt>
<trkpt lat="47.401695" lon="10.891866">
<ele>936.842</ele>
<time>2020-09-11T17:19:42Z</time>
</trkpt>
<trkpt lat="47.401699" lon="10.891782">
<ele>936.842</ele>
<time>2020-09-11T17:19:43Z</time>
</trkpt>
<trkpt lat="47.401711" lon="10.891703">
<ele>936.842</ele>
<time>2020-09-11T17:19:44Z</time>
</trkpt>
<trkpt lat="47.40173" lon="10.891623">
<ele>936.842</ele>
<time>2020-09-11T17:19:45Z</time>
</trkpt>
<trkpt lat="47.401752" lon="10.891545">
<ele>936.842</ele>
<time>2020-09-11T17:19:46Z</time>
</trkpt>
<trkpt lat="47.401775" lon="10.891468">
<ele>936.842</ele>
<time>2020-09-11T17:19:47Z</time>
</trkpt>
<trkpt lat="47.401798" lon="10.891393">
<ele>936.842</ele>
<time>2020-09-11T17:19:48Z</time>
</trkpt>
<trkpt lat="47.401829" lon="10.891321">
<ele>936.842</ele>
<time>2020-09-11T17:19:49Z</time>
</trkpt>
<trkpt lat="47.401855" lon="10.891247">
<ele>936.842</ele>
<time>2020-09-11T17:19:50Z</time>
</trkpt>
<trkpt lat="47.401882" lon="10.891171">
<ele>936.842</ele>
<time>2020-09-11T17:19:51Z</time>
</trkpt>
<trkpt lat="47.401905" lon="10.891093">
<ele>936.842</ele>
<time>2020-09-11T17:19:52Z</time>
</trkpt>
<trkpt lat="47.401928" lon="10.891024">
<ele>936.842</ele>
<time>2020-09-11T17:19:53Z</time>
</trkpt>
<trkpt lat="47.401958" lon="10.890953">
<ele>936.842</ele>
<time>2020-09-11T17:19:54Z</time>
</trkpt>
<trkpt lat="47.401985" lon="10.890885">
<ele>936.842</ele>
<time>2020-09-11T17:19:55Z</time>
</trkpt>
<trkpt lat="47.402012" lon="10.890815">
<ele>936.842</ele>
<time>2020-09-11T17:19:56Z</time>
</trkpt>
<trkpt lat="47.402039" lon="10.890743">
<ele>936.842</ele>
<time>2020-09-11T17:19:57Z</time>
</trkpt>
<trkpt lat="47.402058" lon="10.890676">
<ele>936.842</ele>
<time>2020-09-11T17:19:58Z</time>
</trkpt>
<trkpt lat="47.402081" lon="10.890605">
<ele>936.842</ele>
<time>2020-09-11T17:19:59Z</time>
</trkpt>
<trkpt lat="47.402092" lon="10.890535">
<ele>936.842</ele>
<time>2020-09-11T17:20:00Z</time>
</trkpt>
<trkpt lat="47.402107" lon="10.890467">
<ele>936.842</ele>
<time>2020-09-11T17:20:01Z</time>
</trkpt>
<trkpt lat="47.402122" lon="10.890395">
<ele>936.842</ele>
<time>2020-09-11T17:20:02Z</time>
</trkpt>
<trkpt lat="47.40213" lon="10.890322">
<ele>936.842</ele>
<time>2020-09-11T17:20:03Z</time>
</trkpt>
<trkpt lat="47.402142" lon="10.890244">
<ele>936.842</ele>
<time>2020-09-11T17:20:04Z</time>
</trkpt>
<trkpt lat="47.402149" lon="10.89017">
<ele>936.842</ele>
<time>2020-09-11T17:20:05Z</time>
</trkpt>
<trkpt lat="47.402157" lon="10.890094">
<ele>936.892</ele>
<time>2020-09-11T17:20:06Z</time>
</trkpt>
<trkpt lat="47.402161" lon="10.890018">
<ele>936.93</ele>
<time>2020-09-11T17:20:07Z</time>
</trkpt>
<trkpt lat="47.402172" lon="10.889945">
<ele>937.182</ele>
<time>2020-09-11T17:20:08Z</time>
</trkpt>
<trkpt lat="47.40218" lon="10.889875">
<ele>937.378</ele>
<time>2020-09-11T17:20:09Z</time>
</trkpt>
<trkpt lat="47.402184" lon="10.889807">
<ele>937.331</ele>
<time>2020-09-11T17:20:10Z</time>
</trkpt>
<trkpt lat="47.402187" lon="10.889742">
<ele>937.294</ele>
<time>2020-09-11T17:20:11Z</time>
</trkpt>
<trkpt lat="47.402191" lon="10.88968">
<ele>937.256</ele>
<time>2020-09-11T17:20:12Z</time>
</trkpt>
<trkpt lat="47.402199" lon="10.889628">
<ele>937.216</ele>
<time>2020-09-11T17:20:13Z</time>
</trkpt>
<trkpt lat="47.40221" lon="10.889575">
<ele>937.196</ele>
<time>2020-09-11T17:20:14Z</time>
</trkpt>
<trkpt lat="47.402214" lon="10.889524">
<ele>937.102</ele>
<time>2020-09-11T17:20:15Z</time>
</trkpt>
<trkpt lat="47.402218" lon="10.889475">
<ele>937.118</ele>
<time>2020-09-11T17:20:16Z</time>
</trkpt>
<trkpt lat="47.402229" lon="10.889432">
<ele>937.282</ele>
<time>2020-09-11T17:20:17Z</time>
</trkpt>
<trkpt lat="47.402229" lon="10.8894">
<ele>937.411</ele>
<time>2020-09-11T17:20:18Z</time>
</trkpt>
<trkpt lat="47.402233" lon="10.88937">
<ele>937.773</ele>
<time>2020-09-11T17:20:19Z</time>
</trkpt>
<trkpt lat="47.402241" lon="10.889338">
<ele>938.074</ele>
<time>2020-09-11T17:20:20Z</time>
</trkpt>
<trkpt lat="47.402245" lon="10.889298">
<ele>938.315</ele>
<time>2020-09-11T17:20:21Z</time>
</trkpt>
<trkpt lat="47.402241" lon="10.889254">
<ele>938.541</ele>
<time>2020-09-11T17:20:22Z</time>
</trkpt>
<trkpt lat="47.402229" lon="10.889205">
<ele>938.722</ele>
<time>2020-09-11T17:20:23Z</time>
</trkpt>
<trkpt lat="47.402218" lon="10.889156">
<ele>938.844</ele>
<time>2020-09-11T17:20:24Z</time>
</trkpt>
<trkpt lat="47.402199" lon="10.889109">
<ele>938.906</ele>
<time>2020-09-11T17:20:25Z</time>
</trkpt>
<trkpt lat="47.402176" lon="10.889065">
<ele>938.934</ele>
<time>2020-09-11T17:20:26Z</time>
</trkpt>
<trkpt lat="47.402153" lon="10.889023">
<ele>938.934</ele>
<time>2020-09-11T17:20:27Z</time>
</trkpt>
<trkpt lat="47.402122" lon="10.888977">
<ele>938.934</ele>
<time>2020-09-11T17:20:28Z</time>
</trkpt>
<trkpt lat="47.402096" lon="10.888928">
<ele>938.934</ele>
<time>2020-09-11T17:20:29Z</time>
</trkpt>
<trkpt lat="47.402069" lon="10.888878">
<ele>938.934</ele>
<time>2020-09-11T17:20:30Z</time>
</trkpt>
<trkpt lat="47.402039" lon="10.888826">
<ele>938.934</ele>
<time>2020-09-11T17:20:31Z</time>
</trkpt>
<trkpt lat="47.402004" lon="10.888775">
<ele>938.934</ele>
<time>2020-09-11T17:20:32Z</time>
</trkpt>
<trkpt lat="47.40197" lon="10.888725">
<ele>938.934</ele>
<time>2020-09-11T17:20:33Z</time>
</trkpt>
<trkpt lat="47.401936" lon="10.888677">
<ele>938.934</ele>
<time>2020-09-11T17:20:34Z</time>
</trkpt>
<trkpt lat="47.401897" lon="10.888627">
<ele>938.934</ele>
<time>2020-09-11T17:20:35Z</time>
</trkpt>
<trkpt lat="47.401863" lon="10.888577">
<ele>938.934</ele>
<time>2020-09-11T17:20:36Z</time>
</trkpt>
<trkpt lat="47.401825" lon="10.888527">
<ele>938.934</ele>
<time>2020-09-11T17:20:37Z</time>
</trkpt>
<trkpt lat="47.401787" lon="10.88848">
<ele>938.934</ele>
<time>2020-09-11T17:20:38Z</time>
</trkpt>
<trkpt lat="47.401745" lon="10.888436">
<ele>938.934</ele>
<time>2020-09-11T17:20:39Z</time>
</trkpt>
<trkpt lat="47.401703" lon="10.888396">
<ele>938.934</ele>
<time>2020-09-11T17:20:40Z</time>
</trkpt>
<trkpt lat="47.401665" lon="10.888361">
<ele>938.934</ele>
<time>2020-09-11T17:20:41Z</time>
</trkpt>
<trkpt lat="47.401623" lon="10.88833">
<ele>938.934</ele>
<time>2020-09-11T17:20:42Z</time>
</trkpt>
<trkpt lat="47.401581" lon="10.8883">
<ele>938.934</ele>
<time>2020-09-11T17:20:43Z</time>
</trkpt>
<trkpt lat="47.401539" lon="10.888273">
<ele>938.934</ele>
<time>2020-09-11T17:20:44Z</time>
</trkpt>
<trkpt lat="47.401501" lon="10.888247">
<ele>938.934</ele>
<time>2020-09-11T17:20:45Z</time>
</trkpt>
<trkpt lat="47.401455" lon="10.88822">
<ele>938.934</ele>
<time>2020-09-11T17:20:46Z</time>
</trkpt>
<trkpt lat="47.401409" lon="10.888197">
<ele>938.934</ele>
<time>2020-09-11T17:20:47Z</time>
</trkpt>
<trkpt lat="47.401367" lon="10.888174">
<ele>938.934</ele>
<time>2020-09-11T17:20:48Z</time>
</trkpt>
<trkpt lat="47.401318" lon="10.888146">
<ele>938.934</ele>
<time>2020-09-11T17:20:49Z</time>
</trkpt>
<trkpt lat="47.401276" lon="10.888122">
<ele>938.934</ele>
<time>2020-09-11T17:20:50Z</time>
</trkpt>
<trkpt lat="47.401226" lon="10.888099">
<ele>938.934</ele>
<time>2020-09-11T17:20:51Z</time>
</trkpt>
<trkpt lat="47.40118" lon="10.888074">
<ele>938.934</ele>
<time>2020-09-11T17:20:52Z</time>
</trkpt>
<trkpt lat="47.401134" lon="10.888046">
<ele>938.934</ele>
<time>2020-09-11T17:20:53Z</time>
</trkpt>
<trkpt lat="47.401085" lon="10.888017">
<ele>938.934</ele>
<time>2020-09-11T17:20:54Z</time>
</trkpt>
<trkpt lat="47.401047" lon="10.887983">
<ele>938.934</ele>
<time>2020-09-11T17:20:55Z</time>
</trkpt>
<trkpt lat="47.400997" lon="10.887943">
<ele>938.934</ele>
<time>2020-09-11T17:20:56Z</time>
</trkpt>
<trkpt lat="47.400955" lon="10.8879">
<ele>938.934</ele>
<time>2020-09-11T17:20:57Z</time>
</trkpt>
<trkpt lat="47.400917" lon="10.887852">
<ele>938.934</ele>
<time>2020-09-11T17:20:58Z</time>
</trkpt>
<trkpt lat="47.400883" lon="10.887798">
<ele>938.934</ele>
<time>2020-09-11T17:20:59Z</time>
</trkpt>
<trkpt lat="47.400852" lon="10.88774">
<ele>938.934</ele>
<time>2020-09-11T17:21:00Z</time>
</trkpt>
<trkpt lat="47.400833" lon="10.887676">
<ele>938.934</ele>
<time>2020-09-11T17:21:01Z</time>
</trkpt>
<trkpt lat="47.400814" lon="10.88761">
<ele>939.176</ele>
<time>2020-09-11T17:21:02Z</time>
</trkpt>
<trkpt lat="47.400803" lon="10.887542">
<ele>939.349</ele>
<time>2020-09-11T17:21:03Z</time>
</trkpt>
<trkpt lat="47.400795" lon="10.88747">
<ele>939.786</ele>
<time>2020-09-11T17:21:04Z</time>
</trkpt>
<trkpt lat="47.400787" lon="10.8874">
<ele>939.917</ele>
<time>2020-09-11T17:21:05Z</time>
</trkpt>
<trkpt lat="47.400784" lon="10.887332">
<ele>940.014</ele>
<time>2020-09-11T17:21:06Z</time>
</trkpt>
<trkpt lat="47.400784" lon="10.887263">
<ele>940.3</ele>
<time>2020-09-11T17:21:07Z</time>
</trkpt>
<trkpt lat="47.400787" lon="10.887196">
<ele>940.523</ele>
<time>2020-09-11T17:21:08Z</time>
</trkpt>
<trkpt lat="47.400787" lon="10.887129">
<ele>940.684</ele>
<time>2020-09-11T17:21:09Z</time>
</trkpt>
<trkpt lat="47.400791" lon="10.88706">
<ele>940.79</ele>
<time>2020-09-11T17:21:10Z</time>
</trkpt>
<trkpt lat="47.400795" lon="10.886993">
<ele>940.83</ele>
<time>2020-09-11T17:21:11Z</time>
</trkpt>
<trkpt lat="47.400803" lon="10.886926">
<ele>940.94</ele>
<time>2020-09-11T17:21:12Z</time>
</trkpt>
<trkpt lat="47.40081" lon="10.886855">
<ele>940.973</ele>
<time>2020-09-11T17:21:13Z</time>
</trkpt>
<trkpt lat="47.400818" lon="10.886786">
<ele>941.002</ele>
<time>2020-09-11T17:21:14Z</time>
</trkpt>
<trkpt lat="47.400826" lon="10.886715">
<ele>941.028</ele>
<time>2020-09-11T17:21:15Z</time>
</trkpt>
<trkpt lat="47.400837" lon="10.886643">
<ele>941.027</ele>
<time>2020-09-11T17:21:16Z</time>
</trkpt>
<trkpt lat="47.400848" lon="10.886574">
<ele>941.272</ele>
<time>2020-09-11T17:21:17Z</time>
</trkpt>
<trkpt lat="47.400856" lon="10.886503">
<ele>941.462</ele>
<time>2020-09-11T17:21:18Z</time>
</trkpt>
<trkpt lat="47.400871" lon="10.886434">
<ele>941.607</ele>
<time>2020-09-11T17:21:19Z</time>
</trkpt>
<trkpt lat="47.400883" lon="10.886364">
<ele>941.713</ele>
<time>2020-09-11T17:21:20Z</time>
</trkpt>
<trkpt lat="47.400902" lon="10.886295">
<ele>941.788</ele>
<time>2020-09-11T17:21:21Z</time>
</trkpt>
<trkpt lat="47.400917" lon="10.886227">
<ele>941.865</ele>
<time>2020-09-11T17:21:22Z</time>
</trkpt>
<trkpt lat="47.400932" lon="10.886163">
<ele>941.914</ele>
<time>2020-09-11T17:21:23Z</time>
</trkpt>
<trkpt lat="47.400948" lon="10.886104">
<ele>941.938</ele>
<time>2020-09-11T17:21:24Z</time>
</trkpt>
<trkpt lat="47.400967" lon="10.886039">
<ele>941.938</ele>
<time>2020-09-11T17:21:25Z</time>
</trkpt>
<trkpt lat="47.400982" lon="10.885975">
<ele>941.938</ele>
<time>2020-09-11T17:21:26Z</time>
</trkpt>
<trkpt lat="47.400993" lon="10.885912">
<ele>941.938</ele>
<time>2020-09-11T17:21:27Z</time>
</trkpt>
<trkpt lat="47.401005" lon="10.885847">
<ele>941.938</ele>
<time>2020-09-11T17:21:28Z</time>
</trkpt>
<trkpt lat="47.401016" lon="10.885777">
<ele>941.938</ele>
<time>2020-09-11T17:21:29Z</time>
</trkpt>
<trkpt lat="47.401031" lon="10.885709">
<ele>941.938</ele>
<time>2020-09-11T17:21:30Z</time>
</trkpt>
<trkpt lat="47.401043" lon="10.885637">
<ele>941.938</ele>
<time>2020-09-11T17:21:31Z</time>
</trkpt>
<trkpt lat="47.401047" lon="10.885562">
<ele>941.938</ele>
<time>2020-09-11T17:21:32Z</time>
</trkpt>
<trkpt lat="47.401054" lon="10.885489">
<ele>941.938</ele>
<time>2020-09-11T17:21:33Z</time>
</trkpt>
<trkpt lat="47.401066" lon="10.885419">
<ele>941.938</ele>
<time>2020-09-11T17:21:34Z</time>
</trkpt>
<trkpt lat="47.401077" lon="10.88535">
<ele>941.938</ele>
<time>2020-09-11T17:21:35Z</time>
</trkpt>
<trkpt lat="47.401081" lon="10.885283">
<ele>941.938</ele>
<time>2020-09-11T17:21:36Z</time>
</trkpt>
<trkpt lat="47.401085" lon="10.885217">
<ele>941.938</ele>
<time>2020-09-11T17:21:37Z</time>
</trkpt>
<trkpt lat="47.401093" lon="10.88515">
<ele>941.938</ele>
<time>2020-09-11T17:21:38Z</time>
</trkpt>
<trkpt lat="47.401093" lon="10.885077">
<ele>941.938</ele>
<time>2020-09-11T17:21:39Z</time>
</trkpt>
<trkpt lat="47.401093" lon="10.884996">
<ele>941.938</ele>
<time>2020-09-11T17:21:40Z</time>
</trkpt>
<trkpt lat="47.401096" lon="10.884918">
<ele>941.938</ele>
<time>2020-09-11T17:21:41Z</time>
</trkpt>
<trkpt lat="47.401096" lon="10.88484">
<ele>941.938</ele>
<time>2020-09-11T17:21:42Z</time>
</trkpt>
<trkpt lat="47.401096" lon="10.884769">
<ele>941.938</ele>
<time>2020-09-11T17:21:43Z</time>
</trkpt>
<trkpt lat="47.4011" lon="10.884697">
<ele>942.236</ele>
<time>2020-09-11T17:21:44Z</time>
</trkpt>
<trkpt lat="47.401104" lon="10.884624">
<ele>942.461</ele>
<time>2020-09-11T17:21:45Z</time>
</trkpt>
<trkpt lat="47.401104" lon="10.884555">
<ele>942.627</ele>
<time>2020-09-11T17:21:46Z</time>
</trkpt>
<trkpt lat="47.4011" lon="10.884483">
<ele>942.746</ele>
<time>2020-09-11T17:21:47Z</time>
</trkpt>
<trkpt lat="47.401093" lon="10.884416">
<ele>942.831</ele>
<time>2020-09-11T17:21:48Z</time>
</trkpt>
<trkpt lat="47.401085" lon="10.884349">
<ele>942.887</ele>
<time>2020-09-11T17:21:49Z</time>
</trkpt>
<trkpt lat="47.40107" lon="10.884281">
<ele>942.914</ele>
<time>2020-09-11T17:21:50Z</time>
</trkpt>
<trkpt lat="47.401047" lon="10.884218">
<ele>942.939</ele>
<time>2020-09-11T17:21:51Z</time>
</trkpt>
<trkpt lat="47.401028" lon="10.88416">
<ele>942.939</ele>
<time>2020-09-11T17:21:52Z</time>
</trkpt>
<trkpt lat="47.401009" lon="10.884097">
<ele>942.939</ele>
<time>2020-09-11T17:21:53Z</time>
</trkpt>
<trkpt lat="47.400993" lon="10.884038">
<ele>943.225</ele>
<time>2020-09-11T17:21:54Z</time>
</trkpt>
<trkpt lat="47.400986" lon="10.883984">
<ele>943.445</ele>
<time>2020-09-11T17:21:55Z</time>
</trkpt>
<trkpt lat="47.400986" lon="10.883922">
<ele>943.615</ele>
<time>2020-09-11T17:21:56Z</time>
</trkpt>
<trkpt lat="47.40099" lon="10.883863">
<ele>943.74</ele>
<time>2020-09-11T17:21:57Z</time>
</trkpt>
<trkpt lat="47.400997" lon="10.883805">
<ele>943.832</ele>
<time>2020-09-11T17:21:58Z</time>
</trkpt>
<trkpt lat="47.401012" lon="10.883737">
<ele>943.884</ele>
<time>2020-09-11T17:21:59Z</time>
</trkpt>
<trkpt lat="47.401024" lon="10.88367">
<ele>943.916</ele>
<time>2020-09-11T17:22:00Z</time>
</trkpt>
<trkpt lat="47.401047" lon="10.883603">
<ele>943.94</ele>
<time>2020-09-11T17:22:01Z</time>
</trkpt>
<trkpt lat="47.40107" lon="10.883549">
<ele>943.94</ele>
<time>2020-09-11T17:22:02Z</time>
</trkpt>
<trkpt lat="47.401089" lon="10.883488">
<ele>943.94</ele>
<time>2020-09-11T17:22:03Z</time>
</trkpt>
<trkpt lat="47.401108" lon="10.883433">
<ele>943.941</ele>
<time>2020-09-11T17:22:04Z</time>
</trkpt>
<trkpt lat="47.401123" lon="10.883382">
<ele>943.94</ele>
<time>2020-09-11T17:22:05Z</time>
</trkpt>
<trkpt lat="47.401142" lon="10.88333">
<ele>943.941</ele>
<time>2020-09-11T17:22:06Z</time>
</trkpt>
<trkpt lat="47.401161" lon="10.883276">
<ele>943.94</ele>
<time>2020-09-11T17:22:07Z</time>
</trkpt>
<trkpt lat="47.40118" lon="10.883224">
<ele>943.94</ele>
<time>2020-09-11T17:22:08Z</time>
</trkpt>
<trkpt lat="47.401207" lon="10.883162">
<ele>943.94</ele>
<time>2020-09-11T17:22:09Z</time>
</trkpt>
<trkpt lat="47.401234" lon="10.883098">
<ele>943.94</ele>
<time>2020-09-11T17:22:10Z</time>
</trkpt>
<trkpt lat="47.401253" lon="10.883041">
<ele>943.94</ele>
<time>2020-09-11T17:22:11Z</time>
</trkpt>
<trkpt lat="47.401272" lon="10.882997">
<ele>943.94</ele>
<time>2020-09-11T17:22:12Z</time>
</trkpt>
<trkpt lat="47.401295" lon="10.88295">
<ele>943.94</ele>
<time>2020-09-11T17:22:13Z</time>
</trkpt>
<trkpt lat="47.401314" lon="10.882903">
<ele>943.941</ele>
<time>2020-09-11T17:22:14Z</time>
</trkpt>
<trkpt lat="47.401329" lon="10.882851">
<ele>943.94</ele>
<time>2020-09-11T17:22:15Z</time>
</trkpt>
<trkpt lat="47.40134" lon="10.882796">
<ele>943.94</ele>
<time>2020-09-11T17:22:16Z</time>
</trkpt>
<trkpt lat="47.40136" lon="10.882754">
<ele>943.94</ele>
<time>2020-09-11T17:22:17Z</time>
</trkpt>
<trkpt lat="47.401371" lon="10.882713">
<ele>943.94</ele>
<time>2020-09-11T17:22:18Z</time>
</trkpt>
<trkpt lat="47.401394" lon="10.882667">
<ele>943.94</ele>
<time>2020-09-11T17:22:19Z</time>
</trkpt>
<trkpt lat="47.401409" lon="10.882628">
<ele>943.94</ele>
<time>2020-09-11T17:22:20Z</time>
</trkpt>
<trkpt lat="47.401436" lon="10.882583">
<ele>944.137</ele>
<time>2020-09-11T17:22:21Z</time>
</trkpt>
<trkpt lat="47.401455" lon="10.882526">
<ele>944.33</ele>
<time>2020-09-11T17:22:22Z</time>
</trkpt>
<trkpt lat="47.40147" lon="10.882459">
<ele>944.493</ele>
<time>2020-09-11T17:22:23Z</time>
</trkpt>
<trkpt lat="47.401489" lon="10.882403">
<ele>944.625</ele>
<time>2020-09-11T17:22:24Z</time>
</trkpt>
<trkpt lat="47.401501" lon="10.882348">
<ele>944.728</ele>
<time>2020-09-11T17:22:25Z</time>
</trkpt>
<trkpt lat="47.401524" lon="10.882294">
<ele>944.792</ele>
<time>2020-09-11T17:22:26Z</time>
</trkpt>
<trkpt lat="47.401543" lon="10.882235">
<ele>944.831</ele>
<time>2020-09-11T17:22:27Z</time>
</trkpt>
<trkpt lat="47.401569" lon="10.882182">
<ele>944.851</ele>
<time>2020-09-11T17:22:28Z</time>
</trkpt>
<trkpt lat="47.401596" lon="10.882125">
<ele>944.851</ele>
<time>2020-09-11T17:22:29Z</time>
</trkpt>
<trkpt lat="47.401611" lon="10.882069">
<ele>944.851</ele>
<time>2020-09-11T17:22:30Z</time>
</trkpt>
<trkpt lat="47.401627" lon="10.882015">
<ele>944.851</ele>
<time>2020-09-11T17:22:31Z</time>
</trkpt>
<trkpt lat="47.401642" lon="10.881968">
<ele>944.851</ele>
<time>2020-09-11T17:22:32Z</time>
</trkpt>
<trkpt lat="47.401657" lon="10.881904">
<ele>944.851</ele>
<time>2020-09-11T17:22:33Z</time>
</trkpt>
<trkpt lat="47.401672" lon="10.881832">
<ele>944.851</ele>
<time>2020-09-11T17:22:34Z</time>
</trkpt>
<trkpt lat="47.401684" lon="10.881774">
<ele>944.851</ele>
<time>2020-09-11T17:22:35Z</time>
</trkpt>
<trkpt lat="47.401699" lon="10.88171">
<ele>944.851</ele>
<time>2020-09-11T17:22:36Z</time>
</trkpt>
<trkpt lat="47.401714" lon="10.881645">
<ele>944.851</ele>
<time>2020-09-11T17:22:37Z</time>
</trkpt>
<trkpt lat="47.40173" lon="10.881581">
<ele>944.851</ele>
<time>2020-09-11T17:22:38Z</time>
</trkpt>
<trkpt lat="47.401741" lon="10.881527">
<ele>944.851</ele>
<time>2020-09-11T17:22:39Z</time>
</trkpt>
<trkpt lat="47.401756" lon="10.88147">
<ele>944.851</ele>
<time>2020-09-11T17:22:40Z</time>
</trkpt>
<trkpt lat="47.401772" lon="10.881413">
<ele>945.069</ele>
<time>2020-09-11T17:22:41Z</time>
</trkpt>
<trkpt lat="47.401791" lon="10.881357">
<ele>945.274</ele>
<time>2020-09-11T17:22:42Z</time>
</trkpt>
<trkpt lat="47.401806" lon="10.8813">
<ele>945.452</ele>
<time>2020-09-11T17:22:43Z</time>
</trkpt>
<trkpt lat="47.401821" lon="10.881244">
<ele>945.587</ele>
<time>2020-09-11T17:22:44Z</time>
</trkpt>
<trkpt lat="47.401836" lon="10.881186">
<ele>945.694</ele>
<time>2020-09-11T17:22:45Z</time>
</trkpt>
<trkpt lat="47.401859" lon="10.881124">
<ele>945.777</ele>
<time>2020-09-11T17:22:46Z</time>
</trkpt>
<trkpt lat="47.401878" lon="10.881066">
<ele>945.83</ele>
<time>2020-09-11T17:22:47Z</time>
</trkpt>
<trkpt lat="47.401894" lon="10.881011">
<ele>945.853</ele>
<time>2020-09-11T17:22:48Z</time>
</trkpt>
<trkpt lat="47.40192" lon="10.880948">
<ele>945.853</ele>
<time>2020-09-11T17:22:49Z</time>
</trkpt>
<trkpt lat="47.401943" lon="10.88089">
<ele>946.102</ele>
<time>2020-09-11T17:22:50Z</time>
</trkpt>
<trkpt lat="47.401966" lon="10.880839">
<ele>946.276</ele>
<time>2020-09-11T17:22:51Z</time>
</trkpt>
<trkpt lat="47.401993" lon="10.880797">
<ele>946.453</ele>
<time>2020-09-11T17:22:52Z</time>
</trkpt>
<trkpt lat="47.402027" lon="10.880752">
<ele>946.592</ele>
<time>2020-09-11T17:22:53Z</time>
</trkpt>
<trkpt lat="47.402061" lon="10.880707">
<ele>946.699</ele>
<time>2020-09-11T17:22:54Z</time>
</trkpt>
<trkpt lat="47.4021" lon="10.88066">
<ele>946.781</ele>
<time>2020-09-11T17:22:55Z</time>
</trkpt>
<trkpt lat="47.402142" lon="10.880615">
<ele>946.828</ele>
<time>2020-09-11T17:22:56Z</time>
</trkpt>
<trkpt lat="47.40218" lon="10.880571">
<ele>947.102</ele>
<time>2020-09-11T17:22:57Z</time>
</trkpt>
<trkpt lat="47.402214" lon="10.880527">
<ele>947.338</ele>
<time>2020-09-11T17:22:58Z</time>
</trkpt>
<trkpt lat="47.402248" lon="10.88048">
<ele>947.5</ele>
<time>2020-09-11T17:22:59Z</time>
</trkpt>
<trkpt lat="47.402287" lon="10.880439">
<ele>947.617</ele>
<time>2020-09-11T17:23:00Z</time>
</trkpt>
<trkpt lat="47.402321" lon="10.880397">
<ele>947.693</ele>
<time>2020-09-11T17:23:01Z</time>
</trkpt>
<trkpt lat="47.402359" lon="10.88036">
<ele>947.995</ele>
<time>2020-09-11T17:23:02Z</time>
</trkpt>
<trkpt lat="47.402393" lon="10.880315">
<ele>948.232</ele>
<time>2020-09-11T17:23:03Z</time>
</trkpt>
<trkpt lat="47.402424" lon="10.880274">
<ele>948.41</ele>
<time>2020-09-11T17:23:04Z</time>
</trkpt>
<trkpt lat="47.402458" lon="10.880236">
<ele>948.535</ele>
<time>2020-09-11T17:23:05Z</time>
</trkpt>
<trkpt lat="47.402496" lon="10.880194">
<ele>948.631</ele>
<time>2020-09-11T17:23:06Z</time>
</trkpt>
<trkpt lat="47.402531" lon="10.880155">
<ele>948.689</ele>
<time>2020-09-11T17:23:07Z</time>
</trkpt>
<trkpt lat="47.402565" lon="10.880116">
<ele>948.983</ele>
<time>2020-09-11T17:23:08Z</time>
</trkpt>
<trkpt lat="47.402599" lon="10.880078">
<ele>949.211</ele>
<time>2020-09-11T17:23:09Z</time>
</trkpt>
<trkpt lat="47.40263" lon="10.88004">
<ele>949.382</ele>
<time>2020-09-11T17:23:10Z</time>
</trkpt>
<trkpt lat="47.402664" lon="10.880001">
<ele>949.49</ele>
<time>2020-09-11T17:23:11Z</time>
</trkpt>
<trkpt lat="47.402695" lon="10.879966">
<ele>949.607</ele>
<time>2020-09-11T17:23:12Z</time>
</trkpt>
<trkpt lat="47.402725" lon="10.879926">
<ele>949.685</ele>
<time>2020-09-11T17:23:13Z</time>
</trkpt>
<trkpt lat="47.402756" lon="10.879889">
<ele>949.978</ele>
<time>2020-09-11T17:23:14Z</time>
</trkpt>
<trkpt lat="47.402786" lon="10.879853">
<ele>950.21</ele>
<time>2020-09-11T17:23:15Z</time>
</trkpt>
<trkpt lat="47.402817" lon="10.879819">
<ele>950.449</ele>
<time>2020-09-11T17:23:16Z</time>
</trkpt>
<trkpt lat="47.402847" lon="10.879786">
<ele>950.572</ele>
<time>2020-09-11T17:23:17Z</time>
</trkpt>
<trkpt lat="47.402874" lon="10.87975">
<ele>950.651</ele>
<time>2020-09-11T17:23:18Z</time>
</trkpt>
<trkpt lat="47.402905" lon="10.879717">
<ele>950.936</ele>
<time>2020-09-11T17:23:19Z</time>
</trkpt>
<trkpt lat="47.402931" lon="10.879683">
<ele>951.146</ele>
<time>2020-09-11T17:23:20Z</time>
</trkpt>
<trkpt lat="47.402958" lon="10.87965">
<ele>951.295</ele>
<time>2020-09-11T17:23:21Z</time>
</trkpt>
<trkpt lat="47.402988" lon="10.879618">
<ele>951.425</ele>
<time>2020-09-11T17:23:22Z</time>
</trkpt>
<trkpt lat="47.403015" lon="10.879584">
<ele>951.771</ele>
<time>2020-09-11T17:23:23Z</time>
</trkpt>
<trkpt lat="47.403042" lon="10.879553">
<ele>952.051</ele>
<time>2020-09-11T17:23:24Z</time>
</trkpt>
<trkpt lat="47.403072" lon="10.879521">
<ele>952.271</ele>
<time>2020-09-11T17:23:25Z</time>
</trkpt>
<trkpt lat="47.403099" lon="10.87949">
<ele>952.432</ele>
<time>2020-09-11T17:23:26Z</time>
</trkpt>
<trkpt lat="47.403133" lon="10.879458">
<ele>952.599</ele>
<time>2020-09-11T17:23:27Z</time>
</trkpt>
<trkpt lat="47.403156" lon="10.879427">
<ele>952.653</ele>
<time>2020-09-11T17:23:28Z</time>
</trkpt>
<trkpt lat="47.403187" lon="10.879396">
<ele>952.684</ele>
<time>2020-09-11T17:23:29Z</time>
</trkpt>
<trkpt lat="47.40321" lon="10.879365">
<ele>952.684</ele>
<time>2020-09-11T17:23:30Z</time>
</trkpt>
<trkpt lat="47.403236" lon="10.879333">
<ele>952.684</ele>
<time>2020-09-11T17:23:31Z</time>
</trkpt>
<trkpt lat="47.403263" lon="10.879302">
<ele>952.684</ele>
<time>2020-09-11T17:23:32Z</time>
</trkpt>
<trkpt lat="47.403294" lon="10.87927">
<ele>952.982</ele>
<time>2020-09-11T17:23:33Z</time>
</trkpt>
<trkpt lat="47.403324" lon="10.87924">
<ele>953.215</ele>
<time>2020-09-11T17:23:34Z</time>
</trkpt>
<trkpt lat="47.403351" lon="10.879209">
<ele>953.391</ele>
<time>2020-09-11T17:23:35Z</time>
</trkpt>
<trkpt lat="47.403378" lon="10.879175">
<ele>953.521</ele>
<time>2020-09-11T17:23:36Z</time>
</trkpt>
<trkpt lat="47.403408" lon="10.879142">
<ele>953.602</ele>
<time>2020-09-11T17:23:37Z</time>
</trkpt>
<trkpt lat="47.403431" lon="10.87911">
<ele>953.656</ele>
<time>2020-09-11T17:23:38Z</time>
</trkpt>
<trkpt lat="47.403458" lon="10.87908">
<ele>953.681</ele>
<time>2020-09-11T17:23:39Z</time>
</trkpt>
<trkpt lat="47.403488" lon="10.87905">
<ele>953.687</ele>
<time>2020-09-11T17:23:40Z</time>
</trkpt>
<trkpt lat="47.403515" lon="10.879021">
<ele>953.687</ele>
<time>2020-09-11T17:23:41Z</time>
</trkpt>
<trkpt lat="47.403542" lon="10.878991">
<ele>953.949</ele>
<time>2020-09-11T17:23:42Z</time>
</trkpt>
<trkpt lat="47.403568" lon="10.878962">
<ele>954.169</ele>
<time>2020-09-11T17:23:43Z</time>
</trkpt>
<trkpt lat="47.403595" lon="10.878931">
<ele>954.355</ele>
<time>2020-09-11T17:23:44Z</time>
</trkpt>
<trkpt lat="47.403622" lon="10.878901">
<ele>954.503</ele>
<time>2020-09-11T17:23:45Z</time>
</trkpt>
<trkpt lat="47.403645" lon="10.878872">
<ele>954.597</ele>
<time>2020-09-11T17:23:46Z</time>
</trkpt>
<trkpt lat="47.403671" lon="10.878841">
<ele>954.934</ele>
<time>2020-09-11T17:23:47Z</time>
</trkpt>
<trkpt lat="47.403694" lon="10.878812">
<ele>955.197</ele>
<time>2020-09-11T17:23:48Z</time>
</trkpt>
<trkpt lat="47.403721" lon="10.87878">
<ele>955.393</ele>
<time>2020-09-11T17:23:49Z</time>
</trkpt>
<trkpt lat="47.403744" lon="10.878752">
<ele>955.527</ele>
<time>2020-09-11T17:23:50Z</time>
</trkpt>
<trkpt lat="47.403767" lon="10.878723">
<ele>955.612</ele>
<time>2020-09-11T17:23:51Z</time>
</trkpt>
<trkpt lat="47.403793" lon="10.878695">
<ele>955.699</ele>
<time>2020-09-11T17:23:52Z</time>
</trkpt>
<trkpt lat="47.40382" lon="10.878665">
<ele>955.756</ele>
<time>2020-09-11T17:23:53Z</time>
</trkpt>
<trkpt lat="47.403851" lon="10.878637">
<ele>955.783</ele>
<time>2020-09-11T17:23:54Z</time>
</trkpt>
<trkpt lat="47.403877" lon="10.878604">
<ele>955.783</ele>
<time>2020-09-11T17:23:55Z</time>
</trkpt>
<trkpt lat="47.403904" lon="10.878572">
<ele>955.783</ele>
<time>2020-09-11T17:23:56Z</time>
</trkpt>
<trkpt lat="47.403927" lon="10.878545">
<ele>956.052</ele>
<time>2020-09-11T17:23:57Z</time>
</trkpt>
<trkpt lat="47.403961" lon="10.878515">
<ele>956.258</ele>
<time>2020-09-11T17:23:58Z</time>
</trkpt>
<trkpt lat="47.403988" lon="10.878485">
<ele>956.421</ele>
<time>2020-09-11T17:23:59Z</time>
</trkpt>
<trkpt lat="47.404015" lon="10.878453">
<ele>956.539</ele>
<time>2020-09-11T17:24:00Z</time>
</trkpt>
<trkpt lat="47.404045" lon="10.878424">
<ele>956.62</ele>
<time>2020-09-11T17:24:01Z</time>
</trkpt>
<trkpt lat="47.404076" lon="10.878395">
<ele>956.705</ele>
<time>2020-09-11T17:24:02Z</time>
</trkpt>
<trkpt lat="47.404102" lon="10.878362">
<ele>956.758</ele>
<time>2020-09-11T17:24:03Z</time>
</trkpt>
<trkpt lat="47.404125" lon="10.878328">
<ele>956.786</ele>
<time>2020-09-11T17:24:04Z</time>
</trkpt>
<trkpt lat="47.404148" lon="10.878295">
<ele>957.118</ele>
<time>2020-09-11T17:24:05Z</time>
</trkpt>
<trkpt lat="47.404175" lon="10.878263">
<ele>957.37</ele>
<time>2020-09-11T17:24:06Z</time>
</trkpt>
<trkpt lat="47.404202" lon="10.878231">
<ele>957.571</ele>
<time>2020-09-11T17:24:07Z</time>
</trkpt>
<trkpt lat="47.404228" lon="10.878201">
<ele>957.688</ele>
<time>2020-09-11T17:24:08Z</time>
</trkpt>
<trkpt lat="47.404259" lon="10.87817">
<ele>958.056</ele>
<time>2020-09-11T17:24:09Z</time>
</trkpt>
<trkpt lat="47.404285" lon="10.87814">
<ele>958.33</ele>
<time>2020-09-11T17:24:10Z</time>
</trkpt>
<trkpt lat="47.404316" lon="10.878108">
<ele>958.523</ele>
<time>2020-09-11T17:24:11Z</time>
</trkpt>
<trkpt lat="47.404346" lon="10.878074">
<ele>958.707</ele>
<time>2020-09-11T17:24:12Z</time>
</trkpt>
<trkpt lat="47.404373" lon="10.878038">
<ele>958.82</ele>
<time>2020-09-11T17:24:13Z</time>
</trkpt>
<trkpt lat="47.404404" lon="10.878007">
<ele>958.9</ele>
<time>2020-09-11T17:24:14Z</time>
</trkpt>
<trkpt lat="47.404438" lon="10.877972">
<ele>958.95</ele>
<time>2020-09-11T17:24:15Z</time>
</trkpt>
<trkpt lat="47.404465" lon="10.87794">
<ele>958.974</ele>
<time>2020-09-11T17:24:16Z</time>
</trkpt>
<trkpt lat="47.404491" lon="10.877907">
<ele>958.974</ele>
<time>2020-09-11T17:24:17Z</time>
</trkpt>
<trkpt lat="47.404518" lon="10.877872">
<ele>958.974</ele>
<time>2020-09-11T17:24:18Z</time>
</trkpt>
<trkpt lat="47.404545" lon="10.877839">
<ele>958.974</ele>
<time>2020-09-11T17:24:19Z</time>
</trkpt>
<trkpt lat="47.404575" lon="10.877802">
<ele>959.217</ele>
<time>2020-09-11T17:24:20Z</time>
</trkpt>
<trkpt lat="47.404602" lon="10.877764">
<ele>959.391</ele>
<time>2020-09-11T17:24:21Z</time>
</trkpt>
<trkpt lat="47.404633" lon="10.877727">
<ele>959.571</ele>
<time>2020-09-11T17:24:22Z</time>
</trkpt>
<trkpt lat="47.404663" lon="10.877692">
<ele>959.712</ele>
<time>2020-09-11T17:24:23Z</time>
</trkpt>
<trkpt lat="47.404686" lon="10.877655">
<ele>959.826</ele>
<time>2020-09-11T17:24:24Z</time>
</trkpt>
<trkpt lat="47.404709" lon="10.87762">
<ele>959.904</ele>
<time>2020-09-11T17:24:25Z</time>
</trkpt>
<trkpt lat="47.404736" lon="10.877585">
<ele>959.949</ele>
<time>2020-09-11T17:24:26Z</time>
</trkpt>
<trkpt lat="47.404762" lon="10.877548">
<ele>960.238</ele>
<time>2020-09-11T17:24:27Z</time>
</trkpt>
<trkpt lat="47.404789" lon="10.877512">
<ele>960.485</ele>
<time>2020-09-11T17:24:28Z</time>
</trkpt>
<trkpt lat="47.404808" lon="10.877477">
<ele>960.656</ele>
<time>2020-09-11T17:24:29Z</time>
</trkpt>
<trkpt lat="47.404827" lon="10.877443">
<ele>960.791</ele>
<time>2020-09-11T17:24:30Z</time>
</trkpt>
<trkpt lat="47.40485" lon="10.877408">
<ele>960.884</ele>
<time>2020-09-11T17:24:31Z</time>
</trkpt>
<trkpt lat="47.404869" lon="10.877375">
<ele>961.215</ele>
<time>2020-09-11T17:24:32Z</time>
</trkpt>
<trkpt lat="47.404892" lon="10.877342">
<ele>961.481</ele>
<time>2020-09-11T17:24:33Z</time>
</trkpt>
<trkpt lat="47.404911" lon="10.877307">
<ele>961.674</ele>
<time>2020-09-11T17:24:34Z</time>
</trkpt>
<trkpt lat="47.40493" lon="10.877272">
<ele>961.81</ele>
<time>2020-09-11T17:24:35Z</time>
</trkpt>
<trkpt lat="47.404949" lon="10.877235">
<ele>961.92</ele>
<time>2020-09-11T17:24:36Z</time>
</trkpt>
<trkpt lat="47.404972" lon="10.877196">
<ele>962.002</ele>
<time>2020-09-11T17:24:37Z</time>
</trkpt>
<trkpt lat="47.404991" lon="10.877158">
<ele>962.051</ele>
<time>2020-09-11T17:24:38Z</time>
</trkpt>
<trkpt lat="47.405014" lon="10.877118">
<ele>962.074</ele>
<time>2020-09-11T17:24:39Z</time>
</trkpt>
<trkpt lat="47.405033" lon="10.87708">
<ele>962.324</ele>
<time>2020-09-11T17:24:40Z</time>
</trkpt>
<trkpt lat="47.405052" lon="10.877041">
<ele>962.499</ele>
<time>2020-09-11T17:24:41Z</time>
</trkpt>
<trkpt lat="47.405067" lon="10.877">
<ele>962.678</ele>
<time>2020-09-11T17:24:42Z</time>
</trkpt>
<trkpt lat="47.405087" lon="10.87696">
<ele>962.818</ele>
<time>2020-09-11T17:24:43Z</time>
</trkpt>
<trkpt lat="47.405098" lon="10.87692">
<ele>962.924</ele>
<time>2020-09-11T17:24:44Z</time>
</trkpt>
<trkpt lat="47.405117" lon="10.876878">
<ele>962.993</ele>
<time>2020-09-11T17:24:45Z</time>
</trkpt>
<trkpt lat="47.405132" lon="10.876835">
<ele>963.293</ele>
<time>2020-09-11T17:24:46Z</time>
</trkpt>
<trkpt lat="47.405148" lon="10.876796">
<ele>963.523</ele>
<time>2020-09-11T17:24:47Z</time>
</trkpt>
<trkpt lat="47.405159" lon="10.876755">
<ele>963.722</ele>
<time>2020-09-11T17:24:48Z</time>
</trkpt>
<trkpt lat="47.405178" lon="10.876715">
<ele>963.844</ele>
<time>2020-09-11T17:24:49Z</time>
</trkpt>
<trkpt lat="47.40519" lon="10.876674">
<ele>963.913</ele>
<time>2020-09-11T17:24:50Z</time>
</trkpt>
<trkpt lat="47.405205" lon="10.876632">
<ele>964.22</ele>
<time>2020-09-11T17:24:51Z</time>
</trkpt>
<trkpt lat="47.405216" lon="10.876589">
<ele>964.486</ele>
<time>2020-09-11T17:24:52Z</time>
</trkpt>
<trkpt lat="47.405228" lon="10.876545">
<ele>964.685</ele>
<time>2020-09-11T17:24:53Z</time>
</trkpt>
<trkpt lat="47.405243" lon="10.876503">
<ele>964.825</ele>
<time>2020-09-11T17:24:54Z</time>
</trkpt>
<trkpt lat="47.405254" lon="10.87646">
<ele>964.935</ele>
<time>2020-09-11T17:24:55Z</time>
</trkpt>
<trkpt lat="47.405266" lon="10.876416">
<ele>965.002</ele>
<time>2020-09-11T17:24:56Z</time>
</trkpt>
<trkpt lat="47.405277" lon="10.876372">
<ele>965.325</ele>
<time>2020-09-11T17:24:57Z</time>
</trkpt>
<trkpt lat="47.405289" lon="10.876324">
<ele>965.577</ele>
<time>2020-09-11T17:24:58Z</time>
</trkpt>
<trkpt lat="47.4053" lon="10.876272">
<ele>965.78</ele>
<time>2020-09-11T17:24:59Z</time>
</trkpt>
<trkpt lat="47.405308" lon="10.876222">
<ele>965.91</ele>
<time>2020-09-11T17:25:00Z</time>
</trkpt>
<trkpt lat="47.405315" lon="10.876173">
<ele>965.999</ele>
<time>2020-09-11T17:25:01Z</time>
</trkpt>
<trkpt lat="47.405327" lon="10.87613">
<ele>966.093</ele>
<time>2020-09-11T17:25:02Z</time>
</trkpt>
<trkpt lat="47.405338" lon="10.876087">
<ele>966.15</ele>
<time>2020-09-11T17:25:03Z</time>
</trkpt>
<trkpt lat="47.40535" lon="10.876045">
<ele>966.442</ele>
<time>2020-09-11T17:25:04Z</time>
</trkpt>
<trkpt lat="47.405354" lon="10.876001">
<ele>966.728</ele>
<time>2020-09-11T17:25:05Z</time>
</trkpt>
<trkpt lat="47.405361" lon="10.875952">
<ele>966.916</ele>
<time>2020-09-11T17:25:06Z</time>
</trkpt>
<trkpt lat="47.405369" lon="10.875907">
<ele>967.03</ele>
<time>2020-09-11T17:25:07Z</time>
</trkpt>
<trkpt lat="47.405373" lon="10.875861">
<ele>967.398</ele>
<time>2020-09-11T17:25:08Z</time>
</trkpt>
<trkpt lat="47.405376" lon="10.875818">
<ele>967.672</ele>
<time>2020-09-11T17:25:09Z</time>
</trkpt>
<trkpt lat="47.40538" lon="10.875775">
<ele>967.864</ele>
<time>2020-09-11T17:25:10Z</time>
</trkpt>
<trkpt lat="47.40538" lon="10.875736">
<ele>968.001</ele>
<time>2020-09-11T17:25:11Z</time>
</trkpt>
<trkpt lat="47.405388" lon="10.875698">
<ele>968.115</ele>
<time>2020-09-11T17:25:12Z</time>
</trkpt>
<trkpt lat="47.405392" lon="10.875651">
<ele>968.196</ele>
<time>2020-09-11T17:25:13Z</time>
</trkpt>
<trkpt lat="47.405396" lon="10.875608">
<ele>968.247</ele>
<time>2020-09-11T17:25:14Z</time>
</trkpt>
<trkpt lat="47.405399" lon="10.875564">
<ele>968.521</ele>
<time>2020-09-11T17:25:15Z</time>
</trkpt>
<trkpt lat="47.405403" lon="10.875518">
<ele>968.776</ele>
<time>2020-09-11T17:25:16Z</time>
</trkpt>
<trkpt lat="47.405403" lon="10.875472">
<ele>968.946</ele>
<time>2020-09-11T17:25:17Z</time>
</trkpt>
<trkpt lat="47.405403" lon="10.875426">
<ele>969.077</ele>
<time>2020-09-11T17:25:18Z</time>
</trkpt>
<trkpt lat="47.405407" lon="10.87538">
<ele>969.164</ele>
<time>2020-09-11T17:25:19Z</time>
</trkpt>
<trkpt lat="47.405411" lon="10.875341">
<ele>969.203</ele>
<time>2020-09-11T17:25:20Z</time>
</trkpt>
<trkpt lat="47.405415" lon="10.8753">
<ele>969.473</ele>
<time>2020-09-11T17:25:21Z</time>
</trkpt>
<trkpt lat="47.405415" lon="10.87526">
<ele>969.711</ele>
<time>2020-09-11T17:25:22Z</time>
</trkpt>
<trkpt lat="47.405415" lon="10.875216">
<ele>969.881</ele>
<time>2020-09-11T17:25:23Z</time>
</trkpt>
<trkpt lat="47.405415" lon="10.87517">
<ele>970.02</ele>
<time>2020-09-11T17:25:24Z</time>
</trkpt>
<trkpt lat="47.405415" lon="10.875122">
<ele>970.128</ele>
<time>2020-09-11T17:25:25Z</time>
</trkpt>
<trkpt lat="47.405415" lon="10.875076">
<ele>970.209</ele>
<time>2020-09-11T17:25:26Z</time>
</trkpt>
<trkpt lat="47.405415" lon="10.875028">
<ele>970.26</ele>
<time>2020-09-11T17:25:27Z</time>
</trkpt>
<trkpt lat="47.405415" lon="10.87498">
<ele>970.286</ele>
<time>2020-09-11T17:25:28Z</time>
</trkpt>
<trkpt lat="47.405415" lon="10.874931">
<ele>970.286</ele>
<time>2020-09-11T17:25:29Z</time>
</trkpt>
<trkpt lat="47.405415" lon="10.874883">
<ele>970.56</ele>
<time>2020-09-11T17:25:30Z</time>
</trkpt>
<trkpt lat="47.405415" lon="10.874837">
<ele>970.748</ele>
<time>2020-09-11T17:25:31Z</time>
</trkpt>
<trkpt lat="47.405415" lon="10.87479">
<ele>970.939</ele>
<time>2020-09-11T17:25:32Z</time>
</trkpt>
<trkpt lat="47.405415" lon="10.874744">
<ele>971.094</ele>
<time>2020-09-11T17:25:33Z</time>
</trkpt>
<trkpt lat="47.405411" lon="10.874701">
<ele>971.201</ele>
<time>2020-09-11T17:25:34Z</time>
</trkpt>
<trkpt lat="47.405407" lon="10.874657">
<ele>971.531</ele>
<time>2020-09-11T17:25:35Z</time>
</trkpt>
<trkpt lat="47.405407" lon="10.87461">
<ele>971.794</ele>
<time>2020-09-11T17:25:36Z</time>
</trkpt>
<trkpt lat="47.405403" lon="10.874567">
<ele>971.992</ele>
<time>2020-09-11T17:25:37Z</time>
</trkpt>
<trkpt lat="47.405403" lon="10.874523">
<ele>972.169</ele>
<time>2020-09-11T17:25:38Z</time>
</trkpt>
<trkpt lat="47.405399" lon="10.874478">
<ele>972.239</ele>
<time>2020-09-11T17:25:39Z</time>
</trkpt>
<trkpt lat="47.405403" lon="10.874433">
<ele>972.523</ele>
<time>2020-09-11T17:25:40Z</time>
</trkpt>
<trkpt lat="47.405403" lon="10.874387">
<ele>972.738</ele>
<time>2020-09-11T17:25:41Z</time>
</trkpt>
<trkpt lat="47.405399" lon="10.87434">
<ele>972.93</ele>
<time>2020-09-11T17:25:42Z</time>
</trkpt>
<trkpt lat="47.405399" lon="10.874291">
<ele>973.059</ele>
<time>2020-09-11T17:25:43Z</time>
</trkpt>
<trkpt lat="47.405399" lon="10.874247">
<ele>973.159</ele>
<time>2020-09-11T17:25:44Z</time>
</trkpt>
<trkpt lat="47.405399" lon="10.874204">
<ele>973.225</ele>
<time>2020-09-11T17:25:45Z</time>
</trkpt>
<trkpt lat="47.405399" lon="10.874158">
<ele>973.52</ele>
<time>2020-09-11T17:25:46Z</time>
</trkpt>
<trkpt lat="47.405396" lon="10.874114">
<ele>973.746</ele>
<time>2020-09-11T17:25:47Z</time>
</trkpt>
<trkpt lat="47.405396" lon="10.874068">
<ele>973.947</ele>
<time>2020-09-11T17:25:48Z</time>
</trkpt>
<trkpt lat="47.405392" lon="10.874022">
<ele>974.067</ele>
<time>2020-09-11T17:25:49Z</time>
</trkpt>
<trkpt lat="47.405392" lon="10.873974">
<ele>974.153</ele>
<time>2020-09-11T17:25:50Z</time>
</trkpt>
<trkpt lat="47.405392" lon="10.873925">
<ele>974.216</ele>
<time>2020-09-11T17:25:51Z</time>
</trkpt>
<trkpt lat="47.405388" lon="10.873874">
<ele>974.275</ele>
<time>2020-09-11T17:25:52Z</time>
</trkpt>
<trkpt lat="47.405384" lon="10.873825">
<ele>974.555</ele>
<time>2020-09-11T17:25:53Z</time>
</trkpt>
<trkpt lat="47.405384" lon="10.873775">
<ele>974.847</ele>
<time>2020-09-11T17:25:54Z</time>
</trkpt>
<trkpt lat="47.40538" lon="10.873727">
<ele>975.016</ele>
<time>2020-09-11T17:25:55Z</time>
</trkpt>
<trkpt lat="47.40538" lon="10.873678">
<ele>975.14</ele>
<time>2020-09-11T17:25:56Z</time>
</trkpt>
<trkpt lat="47.40538" lon="10.873631">
<ele>975.224</ele>
<time>2020-09-11T17:25:57Z</time>
</trkpt>
<trkpt lat="47.40538" lon="10.87358">
<ele>975.276</ele>
<time>2020-09-11T17:25:58Z</time>
</trkpt>
<trkpt lat="47.40538" lon="10.873529">
<ele>975.301</ele>
<time>2020-09-11T17:25:59Z</time>
</trkpt>
<trkpt lat="47.40538" lon="10.873482">
<ele>975.307</ele>
<time>2020-09-11T17:26:00Z</time>
</trkpt>
<trkpt lat="47.40538" lon="10.873435">
<ele>975.531</ele>
<time>2020-09-11T17:26:01Z</time>
</trkpt>
<trkpt lat="47.40538" lon="10.873384">
<ele>975.742</ele>
<time>2020-09-11T17:26:02Z</time>
</trkpt>
<trkpt lat="47.40538" lon="10.87333">
<ele>975.918</ele>
<time>2020-09-11T17:26:03Z</time>
</trkpt>
<trkpt lat="47.405384" lon="10.873281">
<ele>976.057</ele>
<time>2020-09-11T17:26:04Z</time>
</trkpt>
<trkpt lat="47.405388" lon="10.873237">
<ele>976.162</ele>
<time>2020-09-11T17:26:05Z</time>
</trkpt>
<trkpt lat="47.405396" lon="10.873194">
<ele>976.238</ele>
<time>2020-09-11T17:26:06Z</time>
</trkpt>
<trkpt lat="47.405396" lon="10.873143">
<ele>976.288</ele>
<time>2020-09-11T17:26:07Z</time>
</trkpt>
<trkpt lat="47.405399" lon="10.873096">
<ele>976.312</ele>
<time>2020-09-11T17:26:08Z</time>
</trkpt>
<trkpt lat="47.405403" lon="10.873052">
<ele>976.536</ele>
<time>2020-09-11T17:26:09Z</time>
</trkpt>
<trkpt lat="47.405403" lon="10.873002">
<ele>976.713</ele>
<time>2020-09-11T17:26:10Z</time>
</trkpt>
<trkpt lat="47.405407" lon="10.872953">
<ele>976.839</ele>
<time>2020-09-11T17:26:11Z</time>
</trkpt>
<trkpt lat="47.405411" lon="10.872901">
<ele>976.979</ele>
<time>2020-09-11T17:26:12Z</time>
</trkpt>
<trkpt lat="47.405418" lon="10.872855">
<ele>977.087</ele>
<time>2020-09-11T17:26:13Z</time>
</trkpt>
<trkpt lat="47.405426" lon="10.872805">
<ele>977.158</ele>
<time>2020-09-11T17:26:14Z</time>
</trkpt>
<trkpt lat="47.40543" lon="10.872757">
<ele>977.202</ele>
<time>2020-09-11T17:26:15Z</time>
</trkpt>
<trkpt lat="47.405434" lon="10.872705">
<ele>977.226</ele>
<time>2020-09-11T17:26:16Z</time>
</trkpt>
<trkpt lat="47.405441" lon="10.872658">
<ele>977.226</ele>
<time>2020-09-11T17:26:17Z</time>
</trkpt>
<trkpt lat="47.405453" lon="10.872602">
<ele>977.225</ele>
<time>2020-09-11T17:26:18Z</time>
</trkpt>
<trkpt lat="47.405468" lon="10.872543">
<ele>977.226</ele>
<time>2020-09-11T17:26:19Z</time>
</trkpt>
<trkpt lat="47.405479" lon="10.872481">
<ele>977.226</ele>
<time>2020-09-11T17:26:20Z</time>
</trkpt>
<trkpt lat="47.405487" lon="10.872418">
<ele>977.226</ele>
<time>2020-09-11T17:26:21Z</time>
</trkpt>
<trkpt lat="47.405502" lon="10.872355">
<ele>977.226</ele>
<time>2020-09-11T17:26:22Z</time>
</trkpt>
<trkpt lat="47.405518" lon="10.872289">
<ele>977.226</ele>
<time>2020-09-11T17:26:23Z</time>
</trkpt>
<trkpt lat="47.405533" lon="10.872229">
<ele>977.226</ele>
<time>2020-09-11T17:26:24Z</time>
</trkpt>
<trkpt lat="47.405548" lon="10.872167">
<ele>977.226</ele>
<time>2020-09-11T17:26:25Z</time>
</trkpt>
<trkpt lat="47.405567" lon="10.872108">
<ele>977.226</ele>
<time>2020-09-11T17:26:26Z</time>
</trkpt>
<trkpt lat="47.405582" lon="10.872053">
<ele>977.226</ele>
<time>2020-09-11T17:26:27Z</time>
</trkpt>
<trkpt lat="47.405605" lon="10.871994">
<ele>977.506</ele>
<time>2020-09-11T17:26:28Z</time>
</trkpt>
<trkpt lat="47.405628" lon="10.871931">
<ele>977.726</ele>
<time>2020-09-11T17:26:29Z</time>
</trkpt>
<trkpt lat="47.405647" lon="10.871873">
<ele>977.896</ele>
<time>2020-09-11T17:26:30Z</time>
</trkpt>
<trkpt lat="47.40567" lon="10.871816">
<ele>978.012</ele>
<time>2020-09-11T17:26:31Z</time>
</trkpt>
<trkpt lat="47.405689" lon="10.871751">
<ele>978.145</ele>
<time>2020-09-11T17:26:32Z</time>
</trkpt>
<trkpt lat="47.405712" lon="10.871692">
<ele>978.236</ele>
<time>2020-09-11T17:26:33Z</time>
</trkpt>
<trkpt lat="47.405739" lon="10.871635">
<ele>978.295</ele>
<time>2020-09-11T17:26:34Z</time>
</trkpt>
<trkpt lat="47.405758" lon="10.871578">
<ele>978.322</ele>
<time>2020-09-11T17:26:35Z</time>
</trkpt>
<trkpt lat="47.405777" lon="10.87152">
<ele>978.322</ele>
<time>2020-09-11T17:26:36Z</time>
</trkpt>
<trkpt lat="47.4058" lon="10.871458">
<ele>978.322</ele>
<time>2020-09-11T17:26:37Z</time>
</trkpt>
<trkpt lat="47.405823" lon="10.871397">
<ele>978.322</ele>
<time>2020-09-11T17:26:38Z</time>
</trkpt>
<trkpt lat="47.405846" lon="10.871338">
<ele>978.322</ele>
<time>2020-09-11T17:26:39Z</time>
</trkpt>
<trkpt lat="47.405872" lon="10.87128">
<ele>978.322</ele>
<time>2020-09-11T17:26:40Z</time>
</trkpt>
<trkpt lat="47.405891" lon="10.871221">
<ele>978.322</ele>
<time>2020-09-11T17:26:41Z</time>
</trkpt>
<trkpt lat="47.405914" lon="10.87116">
<ele>978.322</ele>
<time>2020-09-11T17:26:42Z</time>
</trkpt>
<trkpt lat="47.405937" lon="10.871099">
<ele>978.322</ele>
<time>2020-09-11T17:26:43Z</time>
</trkpt>
<trkpt lat="47.405964" lon="10.871038">
<ele>978.322</ele>
<time>2020-09-11T17:26:44Z</time>
</trkpt>
<trkpt lat="47.405987" lon="10.870978">
<ele>978.322</ele>
<time>2020-09-11T17:26:45Z</time>
</trkpt>
<trkpt lat="47.40601" lon="10.870916">
<ele>978.322</ele>
<time>2020-09-11T17:26:46Z</time>
</trkpt>
<trkpt lat="47.406033" lon="10.870854">
<ele>978.322</ele>
<time>2020-09-11T17:26:47Z</time>
</trkpt>
<trkpt lat="47.406059" lon="10.870795">
<ele>978.322</ele>
<time>2020-09-11T17:26:48Z</time>
</trkpt>
<trkpt lat="47.406082" lon="10.870737">
<ele>978.322</ele>
<time>2020-09-11T17:26:49Z</time>
</trkpt>
<trkpt lat="47.406105" lon="10.870678">
<ele>978.322</ele>
<time>2020-09-11T17:26:50Z</time>
</trkpt>
<trkpt lat="47.406128" lon="10.870618">
<ele>978.322</ele>
<time>2020-09-11T17:26:51Z</time>
</trkpt>
<trkpt lat="47.406151" lon="10.870555">
<ele>978.322</ele>
<time>2020-09-11T17:26:52Z</time>
</trkpt>
<trkpt lat="47.406178" lon="10.870494">
<ele>978.322</ele>
<time>2020-09-11T17:26:53Z</time>
</trkpt>
<trkpt lat="47.4062" lon="10.87043">
<ele>978.322</ele>
<time>2020-09-11T17:26:54Z</time>
</trkpt>
<trkpt lat="47.406231" lon="10.870365">
<ele>978.322</ele>
<time>2020-09-11T17:26:55Z</time>
</trkpt>
<trkpt lat="47.406258" lon="10.8703">
<ele>978.322</ele>
<time>2020-09-11T17:26:56Z</time>
</trkpt>
<trkpt lat="47.406281" lon="10.870234">
<ele>978.322</ele>
<time>2020-09-11T17:26:57Z</time>
</trkpt>
<trkpt lat="47.406307" lon="10.870169">
<ele>978.322</ele>
<time>2020-09-11T17:26:58Z</time>
</trkpt>
<trkpt lat="47.406334" lon="10.870104">
<ele>978.322</ele>
<time>2020-09-11T17:26:59Z</time>
</trkpt>
<trkpt lat="47.406361" lon="10.870044">
<ele>978.322</ele>
<time>2020-09-11T17:27:00Z</time>
</trkpt>
<trkpt lat="47.406391" lon="10.869982">
<ele>978.322</ele>
<time>2020-09-11T17:27:01Z</time>
</trkpt>
<trkpt lat="47.406418" lon="10.869918">
<ele>978.322</ele>
<time>2020-09-11T17:27:02Z</time>
</trkpt>
<trkpt lat="47.406448" lon="10.869853">
<ele>978.322</ele>
<time>2020-09-11T17:27:03Z</time>
</trkpt>
<trkpt lat="47.406475" lon="10.869786">
<ele>978.322</ele>
<time>2020-09-11T17:27:04Z</time>
</trkpt>
<trkpt lat="47.406494" lon="10.86972">
<ele>978.322</ele>
<time>2020-09-11T17:27:05Z</time>
</trkpt>
<trkpt lat="47.406521" lon="10.869656">
<ele>978.322</ele>
<time>2020-09-11T17:27:06Z</time>
</trkpt>
<trkpt lat="47.40654" lon="10.869589">
<ele>978.322</ele>
<time>2020-09-11T17:27:07Z</time>
</trkpt>
<trkpt lat="47.406559" lon="10.869525">
<ele>978.322</ele>
<time>2020-09-11T17:27:08Z</time>
</trkpt>
<trkpt lat="47.40659" lon="10.869463">
<ele>978.322</ele>
<time>2020-09-11T17:27:09Z</time>
</trkpt>
<trkpt lat="47.406616" lon="10.869405">
<ele>978.322</ele>
<time>2020-09-11T17:27:10Z</time>
</trkpt>
<trkpt lat="47.406643" lon="10.869347">
<ele>978.322</ele>
<time>2020-09-11T17:27:11Z</time>
</trkpt>
<trkpt lat="47.40667" lon="10.869287">
<ele>978.322</ele>
<time>2020-09-11T17:27:12Z</time>
</trkpt>
<trkpt lat="47.406693" lon="10.869226">
<ele>978.322</ele>
<time>2020-09-11T17:27:13Z</time>
</trkpt>
<trkpt lat="47.406719" lon="10.869167">
<ele>978.322</ele>
<time>2020-09-11T17:27:14Z</time>
</trkpt>
<trkpt lat="47.406746" lon="10.869106">
<ele>978.322</ele>
<time>2020-09-11T17:27:15Z</time>
</trkpt>
<trkpt lat="47.406773" lon="10.869045">
<ele>978.322</ele>
<time>2020-09-11T17:27:16Z</time>
</trkpt>
<trkpt lat="47.406796" lon="10.868985">
<ele>978.322</ele>
<time>2020-09-11T17:27:17Z</time>
</trkpt>
<trkpt lat="47.406818" lon="10.868925">
<ele>978.322</ele>
<time>2020-09-11T17:27:18Z</time>
</trkpt>
<trkpt lat="47.406849" lon="10.868863">
<ele>978.322</ele>
<time>2020-09-11T17:27:19Z</time>
</trkpt>
<trkpt lat="47.406872" lon="10.868803">
<ele>978.322</ele>
<time>2020-09-11T17:27:20Z</time>
</trkpt>
<trkpt lat="47.406895" lon="10.868744">
<ele>978.322</ele>
<time>2020-09-11T17:27:21Z</time>
</trkpt>
<trkpt lat="47.406918" lon="10.868678">
<ele>978.322</ele>
<time>2020-09-11T17:27:22Z</time>
</trkpt>
<trkpt lat="47.406948" lon="10.86861">
<ele>978.322</ele>
<time>2020-09-11T17:27:23Z</time>
</trkpt>
<trkpt lat="47.406975" lon="10.868546">
<ele>978.322</ele>
<time>2020-09-11T17:27:24Z</time>
</trkpt>
<trkpt lat="47.407001" lon="10.86848">
<ele>978.322</ele>
<time>2020-09-11T17:27:25Z</time>
</trkpt>
<trkpt lat="47.407028" lon="10.868418">
<ele>978.322</ele>
<time>2020-09-11T17:27:26Z</time>
</trkpt>
<trkpt lat="47.407055" lon="10.868357">
<ele>978.322</ele>
<time>2020-09-11T17:27:27Z</time>
</trkpt>
<trkpt lat="47.407085" lon="10.868297">
<ele>978.322</ele>
<time>2020-09-11T17:27:28Z</time>
</trkpt>
<trkpt lat="47.407108" lon="10.868239">
<ele>978.322</ele>
<time>2020-09-11T17:27:29Z</time>
</trkpt>
<trkpt lat="47.407135" lon="10.868183">
<ele>978.561</ele>
<time>2020-09-11T17:27:30Z</time>
</trkpt>
<trkpt lat="47.40715" lon="10.868129">
<ele>978.732</ele>
<time>2020-09-11T17:27:31Z</time>
</trkpt>
<trkpt lat="47.407166" lon="10.868072">
<ele>978.907</ele>
<time>2020-09-11T17:27:32Z</time>
</trkpt>
<trkpt lat="47.407177" lon="10.868015">
<ele>979.049</ele>
<time>2020-09-11T17:27:33Z</time>
</trkpt>
<trkpt lat="47.407181" lon="10.867961">
<ele>979.16</ele>
<time>2020-09-11T17:27:34Z</time>
</trkpt>
<trkpt lat="47.407177" lon="10.867912">
<ele>979.235</ele>
<time>2020-09-11T17:27:35Z</time>
</trkpt>
<trkpt lat="47.407173" lon="10.867865">
<ele>979.564</ele>
<time>2020-09-11T17:27:36Z</time>
</trkpt>
<trkpt lat="47.407162" lon="10.867817">
<ele>979.831</ele>
<time>2020-09-11T17:27:37Z</time>
</trkpt>
<trkpt lat="47.407143" lon="10.867774">
<ele>980.072</ele>
<time>2020-09-11T17:27:38Z</time>
</trkpt>
<trkpt lat="47.407124" lon="10.867732">
<ele>980.221</ele>
<time>2020-09-11T17:27:39Z</time>
</trkpt>
<trkpt lat="47.407104" lon="10.867692">
<ele>980.326</ele>
<time>2020-09-11T17:27:40Z</time>
</trkpt>
<trkpt lat="47.407078" lon="10.867653">
<ele>980.407</ele>
<time>2020-09-11T17:27:41Z</time>
</trkpt>
<trkpt lat="47.407051" lon="10.867615">
<ele>980.48</ele>
<time>2020-09-11T17:27:42Z</time>
</trkpt>
<trkpt lat="47.407024" lon="10.867579">
<ele>980.514</ele>
<time>2020-09-11T17:27:43Z</time>
</trkpt>
<trkpt lat="47.406994" lon="10.867546">
<ele>980.81</ele>
<time>2020-09-11T17:27:44Z</time>
</trkpt>
<trkpt lat="47.406963" lon="10.867513">
<ele>981.039</ele>
<time>2020-09-11T17:27:45Z</time>
</trkpt>
<trkpt lat="47.406937" lon="10.867481">
<ele>981.206</ele>
<time>2020-09-11T17:27:46Z</time>
</trkpt>
<trkpt lat="47.406902" lon="10.867454">
<ele>981.329</ele>
<time>2020-09-11T17:27:47Z</time>
</trkpt>
<trkpt lat="47.406868" lon="10.867431">
<ele>981.419</ele>
<time>2020-09-11T17:27:48Z</time>
</trkpt>
<trkpt lat="47.40683" lon="10.86741">
<ele>981.465</ele>
<time>2020-09-11T17:27:49Z</time>
</trkpt>
<trkpt lat="47.406799" lon="10.867391">
<ele>981.496</ele>
<time>2020-09-11T17:27:50Z</time>
</trkpt>
<trkpt lat="47.406769" lon="10.867368">
<ele>981.519</ele>
<time>2020-09-11T17:27:51Z</time>
</trkpt>
<trkpt lat="47.406742" lon="10.867343">
<ele>981.519</ele>
<time>2020-09-11T17:27:52Z</time>
</trkpt>
<trkpt lat="47.406708" lon="10.867315">
<ele>981.519</ele>
<time>2020-09-11T17:27:53Z</time>
</trkpt>
<trkpt lat="47.406677" lon="10.867289">
<ele>981.519</ele>
<time>2020-09-11T17:27:54Z</time>
</trkpt>
<trkpt lat="47.406647" lon="10.86726">
<ele>981.519</ele>
<time>2020-09-11T17:27:55Z</time>
</trkpt>
<trkpt lat="47.40662" lon="10.867229">
<ele>981.519</ele>
<time>2020-09-11T17:27:56Z</time>
</trkpt>
<trkpt lat="47.406593" lon="10.86721">
<ele>981.519</ele>
<time>2020-09-11T17:27:57Z</time>
</trkpt>
<trkpt lat="47.406574" lon="10.86719">
<ele>981.519</ele>
<time>2020-09-11T17:27:58Z</time>
</trkpt>
<trkpt lat="47.406563" lon="10.86717">
<ele>981.728</ele>
<time>2020-09-11T17:27:59Z</time>
</trkpt>
<trkpt lat="47.406548" lon="10.867122">
<ele>981.902</ele>
<time>2020-09-11T17:28:00Z</time>
</trkpt>
<trkpt lat="47.406525" lon="10.867068">
<ele>982.025</ele>
<time>2020-09-11T17:28:01Z</time>
</trkpt>
<trkpt lat="47.406521" lon="10.86702">
<ele>982.165</ele>
<time>2020-09-11T17:28:02Z</time>
</trkpt>
<trkpt lat="47.406521" lon="10.866972">
<ele>982.277</ele>
<time>2020-09-11T17:28:03Z</time>
</trkpt>
<trkpt lat="47.406525" lon="10.866923">
<ele>982.36</ele>
<time>2020-09-11T17:28:04Z</time>
</trkpt>
<trkpt lat="47.406536" lon="10.866879">
<ele>982.41</ele>
<time>2020-09-11T17:28:05Z</time>
</trkpt>
<trkpt lat="47.406548" lon="10.866836">
<ele>982.433</ele>
<time>2020-09-11T17:28:06Z</time>
</trkpt>
<trkpt lat="47.406555" lon="10.86679">
<ele>982.433</ele>
<time>2020-09-11T17:28:07Z</time>
</trkpt>
<trkpt lat="47.406555" lon="10.866745">
<ele>982.68</ele>
<time>2020-09-11T17:28:08Z</time>
</trkpt>
<trkpt lat="47.406563" lon="10.866706">
<ele>982.881</ele>
<time>2020-09-11T17:28:09Z</time>
</trkpt>
<trkpt lat="47.40657" lon="10.866674">
<ele>983.041</ele>
<time>2020-09-11T17:28:10Z</time>
</trkpt>
<trkpt lat="47.406578" lon="10.866645">
<ele>983.151</ele>
<time>2020-09-11T17:28:11Z</time>
</trkpt>
<trkpt lat="47.406586" lon="10.866611">
<ele>983.262</ele>
<time>2020-09-11T17:28:12Z</time>
</trkpt>
<trkpt lat="47.40659" lon="10.866573">
<ele>983.58</ele>
<time>2020-09-11T17:28:13Z</time>
</trkpt>
<trkpt lat="47.40659" lon="10.866533">
<ele>983.835</ele>
<time>2020-09-11T17:28:14Z</time>
</trkpt>
<trkpt lat="47.40659" lon="10.866494">
<ele>984.038</ele>
<time>2020-09-11T17:28:15Z</time>
</trkpt>
<trkpt lat="47.40659" lon="10.866452">
<ele>984.255</ele>
<time>2020-09-11T17:28:16Z</time>
</trkpt>
<trkpt lat="47.406586" lon="10.866408">
<ele>984.364</ele>
<time>2020-09-11T17:28:17Z</time>
</trkpt>
<trkpt lat="47.406582" lon="10.866364">
<ele>984.416</ele>
<time>2020-09-11T17:28:18Z</time>
</trkpt>
<trkpt lat="47.406586" lon="10.866323">
<ele>984.708</ele>
<time>2020-09-11T17:28:19Z</time>
</trkpt>
<trkpt lat="47.40659" lon="10.866288">
<ele>984.905</ele>
<time>2020-09-11T17:28:20Z</time>
</trkpt>
<trkpt lat="47.40659" lon="10.866255">
<ele>985.036</ele>
<time>2020-09-11T17:28:21Z</time>
</trkpt>
<trkpt lat="47.406597" lon="10.86622">
<ele>985.179</ele>
<time>2020-09-11T17:28:22Z</time>
</trkpt>
<trkpt lat="47.406601" lon="10.866183">
<ele>985.281</ele>
<time>2020-09-11T17:28:23Z</time>
</trkpt>
<trkpt lat="47.406597" lon="10.866152">
<ele>985.572</ele>
<time>2020-09-11T17:28:24Z</time>
</trkpt>
<trkpt lat="47.406605" lon="10.866117">
<ele>985.811</ele>
<time>2020-09-11T17:28:25Z</time>
</trkpt>
<trkpt lat="47.406616" lon="10.866086">
<ele>985.968</ele>
<time>2020-09-11T17:28:26Z</time>
</trkpt>
<trkpt lat="47.40662" lon="10.866056">
<ele>986.418</ele>
<time>2020-09-11T17:28:27Z</time>
</trkpt>
<trkpt lat="47.406628" lon="10.866029">
<ele>986.716</ele>
<time>2020-09-11T17:28:28Z</time>
</trkpt>
<trkpt lat="47.406639" lon="10.866">
<ele>986.942</ele>
<time>2020-09-11T17:28:29Z</time>
</trkpt>
<trkpt lat="47.406643" lon="10.865973">
<ele>987.084</ele>
<time>2020-09-11T17:28:30Z</time>
</trkpt>
<trkpt lat="47.406654" lon="10.865943">
<ele>987.195</ele>
<time>2020-09-11T17:28:31Z</time>
</trkpt>
<trkpt lat="47.406662" lon="10.865911">
<ele>987.284</ele>
<time>2020-09-11T17:28:32Z</time>
</trkpt>
<trkpt lat="47.40667" lon="10.865876">
<ele>987.607</ele>
<time>2020-09-11T17:28:33Z</time>
</trkpt>
<trkpt lat="47.406681" lon="10.865843">
<ele>987.868</ele>
<time>2020-09-11T17:28:34Z</time>
</trkpt>
<trkpt lat="47.406689" lon="10.865807">
<ele>988.157</ele>
<time>2020-09-11T17:28:35Z</time>
</trkpt>
<trkpt lat="47.406696" lon="10.865773">
<ele>988.287</ele>
<time>2020-09-11T17:28:36Z</time>
</trkpt>
<trkpt lat="47.406708" lon="10.86574">
<ele>988.365</ele>
<time>2020-09-11T17:28:37Z</time>
</trkpt>
<trkpt lat="47.406719" lon="10.86571">
<ele>988.691</ele>
<time>2020-09-11T17:28:38Z</time>
</trkpt>
<trkpt lat="47.406731" lon="10.865682">
<ele>988.914</ele>
<time>2020-09-11T17:28:39Z</time>
</trkpt>
<trkpt lat="47.406746" lon="10.865652">
<ele>989.083</ele>
<time>2020-09-11T17:28:40Z</time>
</trkpt>
<trkpt lat="47.406757" lon="10.865624">
<ele>989.188</ele>
<time>2020-09-11T17:28:41Z</time>
</trkpt>
<trkpt lat="47.406769" lon="10.865593">
<ele>989.304</ele>
<time>2020-09-11T17:28:42Z</time>
</trkpt>
<trkpt lat="47.406784" lon="10.865565">
<ele>989.383</ele>
<time>2020-09-11T17:28:43Z</time>
</trkpt>
<trkpt lat="47.406796" lon="10.865537">
<ele>989.667</ele>
<time>2020-09-11T17:28:44Z</time>
</trkpt>
<trkpt lat="47.406811" lon="10.86551">
<ele>989.88</ele>
<time>2020-09-11T17:28:45Z</time>
</trkpt>
<trkpt lat="47.406822" lon="10.865483">
<ele>990.091</ele>
<time>2020-09-11T17:28:46Z</time>
</trkpt>
<trkpt lat="47.40683" lon="10.865455">
<ele>990.183</ele>
<time>2020-09-11T17:28:47Z</time>
</trkpt>
<trkpt lat="47.406841" lon="10.865426">
<ele>990.521</ele>
<time>2020-09-11T17:28:48Z</time>
</trkpt>
<trkpt lat="47.406849" lon="10.865398">
<ele>990.79</ele>
<time>2020-09-11T17:28:49Z</time>
</trkpt>
<trkpt lat="47.40686" lon="10.865372">
<ele>990.937</ele>
<time>2020-09-11T17:28:50Z</time>
</trkpt>
<trkpt lat="47.406872" lon="10.865345">
<ele>991.325</ele>
<time>2020-09-11T17:28:51Z</time>
</trkpt>
<trkpt lat="47.406879" lon="10.865316">
<ele>991.652</ele>
<time>2020-09-11T17:28:52Z</time>
</trkpt>
<trkpt lat="47.406887" lon="10.865288">
<ele>991.916</ele>
<time>2020-09-11T17:28:53Z</time>
</trkpt>
<trkpt lat="47.406898" lon="10.865262">
<ele>992.089</ele>
<time>2020-09-11T17:28:54Z</time>
</trkpt>
<trkpt lat="47.40691" lon="10.865235">
<ele>992.456</ele>
<time>2020-09-11T17:28:55Z</time>
</trkpt>
<trkpt lat="47.406914" lon="10.865208">
<ele>992.727</ele>
<time>2020-09-11T17:28:56Z</time>
</trkpt>
<trkpt lat="47.406925" lon="10.865178">
<ele>992.934</ele>
<time>2020-09-11T17:28:57Z</time>
</trkpt>
<trkpt lat="47.406937" lon="10.865151">
<ele>993.086</ele>
<time>2020-09-11T17:28:58Z</time>
</trkpt>
<trkpt lat="47.406948" lon="10.865127">
<ele>993.191</ele>
<time>2020-09-11T17:28:59Z</time>
</trkpt>
<trkpt lat="47.406956" lon="10.8651">
<ele>993.237</ele>
<time>2020-09-11T17:29:00Z</time>
</trkpt>
<trkpt lat="47.406963" lon="10.865073">
<ele>993.511</ele>
<time>2020-09-11T17:29:01Z</time>
</trkpt>
<trkpt lat="47.406975" lon="10.865044">
<ele>993.75</ele>
<time>2020-09-11T17:29:02Z</time>
</trkpt>
<trkpt lat="47.406979" lon="10.865017">
<ele>993.924</ele>
<time>2020-09-11T17:29:03Z</time>
</trkpt>
<trkpt lat="47.40699" lon="10.86499">
<ele>994.062</ele>
<time>2020-09-11T17:29:04Z</time>
</trkpt>
<trkpt lat="47.406998" lon="10.864963">
<ele>994.15</ele>
<time>2020-09-11T17:29:05Z</time>
</trkpt>
<trkpt lat="47.407005" lon="10.864942">
<ele>994.477</ele>
<time>2020-09-11T17:29:06Z</time>
</trkpt>
<trkpt lat="47.407013" lon="10.864917">
<ele>994.735</ele>
<time>2020-09-11T17:29:07Z</time>
</trkpt>
<trkpt lat="47.407021" lon="10.86489">
<ele>994.93</ele>
<time>2020-09-11T17:29:08Z</time>
</trkpt>
<trkpt lat="47.407032" lon="10.864866">
<ele>995.05</ele>
<time>2020-09-11T17:29:09Z</time>
</trkpt>
<trkpt lat="47.407036" lon="10.864845">
<ele>995.409</ele>
<time>2020-09-11T17:29:10Z</time>
</trkpt>
<trkpt lat="47.407043" lon="10.864819">
<ele>995.688</ele>
<time>2020-09-11T17:29:11Z</time>
</trkpt>
<trkpt lat="47.407051" lon="10.86479">
<ele>995.944</ele>
<time>2020-09-11T17:29:12Z</time>
</trkpt>
<trkpt lat="47.407063" lon="10.864765">
<ele>996.12</ele>
<time>2020-09-11T17:29:13Z</time>
</trkpt>
<trkpt lat="47.40707" lon="10.864737">
<ele>996.481</ele>
<time>2020-09-11T17:29:14Z</time>
</trkpt>
<trkpt lat="47.407078" lon="10.864709">
<ele>996.75</ele>
<time>2020-09-11T17:29:15Z</time>
</trkpt>
<trkpt lat="47.407082" lon="10.864682">
<ele>996.968</ele>
<time>2020-09-11T17:29:16Z</time>
</trkpt>
<trkpt lat="47.407085" lon="10.864656">
<ele>997.122</ele>
<time>2020-09-11T17:29:17Z</time>
</trkpt>
<trkpt lat="47.407093" lon="10.864635">
<ele>997.251</ele>
<time>2020-09-11T17:29:18Z</time>
</trkpt>
<trkpt lat="47.407097" lon="10.864611">
<ele>997.294</ele>
<time>2020-09-11T17:29:19Z</time>
</trkpt>
<trkpt lat="47.407104" lon="10.86459">
<ele>997.313</ele>
<time>2020-09-11T17:29:20Z</time>
</trkpt>
<trkpt lat="47.407104" lon="10.864571">
<ele>997.573</ele>
<time>2020-09-11T17:29:21Z</time>
</trkpt>
<trkpt lat="47.407108" lon="10.864553">
<ele>997.788</ele>
<time>2020-09-11T17:29:22Z</time>
</trkpt>
<trkpt lat="47.407108" lon="10.864542">
<ele>997.968</ele>
<time>2020-09-11T17:29:23Z</time>
</trkpt>
<trkpt lat="47.407108" lon="10.864537">
<ele>998.118</ele>
<time>2020-09-11T17:29:24Z</time>
</trkpt>
<trkpt lat="47.407108" lon="10.864538">
<ele>998.24</ele>
<time>2020-09-11T17:29:25Z</time>
</trkpt>
<trkpt lat="47.407108" lon="10.864535">
<ele>998.333</ele>
<time>2020-09-11T17:29:26Z</time>
</trkpt>
<trkpt lat="47.407112" lon="10.864527">
<ele>998.398</ele>
<time>2020-09-11T17:30:01Z</time>
</trkpt>
<trkpt lat="47.40712" lon="10.864516">
<ele>998.439</ele>
<time>2020-09-11T17:30:02Z</time>
</trkpt>
<trkpt lat="47.407127" lon="10.864498">
<ele>998.439</ele>
<time>2020-09-11T17:30:03Z</time>
</trkpt>
<trkpt lat="47.407131" lon="10.864475">
<ele>998.751</ele>
<time>2020-09-11T17:30:04Z</time>
</trkpt>
<trkpt lat="47.407139" lon="10.864451">
<ele>998.994</ele>
<time>2020-09-11T17:30:05Z</time>
</trkpt>
<trkpt lat="47.407143" lon="10.864427">
<ele>999.264</ele>
<time>2020-09-11T17:30:06Z</time>
</trkpt>
<trkpt lat="47.407146" lon="10.864406">
<ele>999.389</ele>
<time>2020-09-11T17:30:07Z</time>
</trkpt>
<trkpt lat="47.40715" lon="10.864383">
<ele>999.445</ele>
<time>2020-09-11T17:30:08Z</time>
</trkpt>
<trkpt lat="47.407158" lon="10.864364">
<ele>999.481</ele>
<time>2020-09-11T17:30:09Z</time>
</trkpt>
<trkpt lat="47.407158" lon="10.864342">
<ele>999.519</ele>
<time>2020-09-11T17:30:10Z</time>
</trkpt>
<trkpt lat="47.407162" lon="10.864318">
<ele>999.537</ele>
<time>2020-09-11T17:30:11Z</time>
</trkpt>
<trkpt lat="47.407166" lon="10.864295">
<ele>999.537</ele>
<time>2020-09-11T17:30:12Z</time>
</trkpt>
<trkpt lat="47.407169" lon="10.864271">
<ele>999.832</ele>
<time>2020-09-11T17:30:13Z</time>
</trkpt>
<trkpt lat="47.407169" lon="10.86425">
<ele>1000.066</ele>
<time>2020-09-11T17:30:14Z</time>
</trkpt>
<trkpt lat="47.407173" lon="10.864227">
<ele>1000.235</ele>
<time>2020-09-11T17:30:15Z</time>
</trkpt>
<trkpt lat="47.407177" lon="10.864203">
<ele>1000.411</ele>
<time>2020-09-11T17:30:16Z</time>
</trkpt>
<trkpt lat="47.407177" lon="10.86418">
<ele>1000.536</ele>
<time>2020-09-11T17:30:17Z</time>
</trkpt>
<trkpt lat="47.407181" lon="10.864159">
<ele>1000.88</ele>
<time>2020-09-11T17:30:18Z</time>
</trkpt>
<trkpt lat="47.407188" lon="10.864137">
<ele>1001.144</ele>
<time>2020-09-11T17:30:19Z</time>
</trkpt>
<trkpt lat="47.407192" lon="10.864112">
<ele>1001.347</ele>
<time>2020-09-11T17:30:20Z</time>
</trkpt>
<trkpt lat="47.4072" lon="10.864089">
<ele>1001.533</ele>
<time>2020-09-11T17:30:21Z</time>
</trkpt>
<trkpt lat="47.407204" lon="10.864061">
<ele>1001.603</ele>
<time>2020-09-11T17:30:22Z</time>
</trkpt>
<trkpt lat="47.407207" lon="10.864038">
<ele>1001.916</ele>
<time>2020-09-11T17:30:23Z</time>
</trkpt>
<trkpt lat="47.407207" lon="10.864014">
<ele>1002.166</ele>
<time>2020-09-11T17:30:24Z</time>
</trkpt>
<trkpt lat="47.407207" lon="10.86399">
<ele>1002.331</ele>
<time>2020-09-11T17:30:25Z</time>
</trkpt>
<trkpt lat="47.407215" lon="10.863972">
<ele>1002.477</ele>
<time>2020-09-11T17:30:26Z</time>
</trkpt>
<trkpt lat="47.407219" lon="10.863952">
<ele>1002.583</ele>
<time>2020-09-11T17:30:27Z</time>
</trkpt>
<trkpt lat="47.407223" lon="10.86393">
<ele>1002.66</ele>
<time>2020-09-11T17:30:28Z</time>
</trkpt>
<trkpt lat="47.407227" lon="10.863907">
<ele>1002.712</ele>
<time>2020-09-11T17:30:29Z</time>
</trkpt>
<trkpt lat="47.40723" lon="10.863885">
<ele>1003.001</ele>
<time>2020-09-11T17:30:30Z</time>
</trkpt>
<trkpt lat="47.407234" lon="10.863861">
<ele>1003.265</ele>
<time>2020-09-11T17:30:31Z</time>
</trkpt>
<trkpt lat="47.407242" lon="10.86384">
<ele>1003.444</ele>
<time>2020-09-11T17:30:32Z</time>
</trkpt>
<trkpt lat="47.407242" lon="10.863818">
<ele>1003.582</ele>
<time>2020-09-11T17:30:33Z</time>
</trkpt>
<trkpt lat="47.407249" lon="10.863793">
<ele>1003.669</ele>
<time>2020-09-11T17:30:34Z</time>
</trkpt>
<trkpt lat="47.407261" lon="10.863769">
<ele>1003.965</ele>
<time>2020-09-11T17:30:35Z</time>
</trkpt>
<trkpt lat="47.407269" lon="10.863744">
<ele>1004.219</ele>
<time>2020-09-11T17:30:36Z</time>
</trkpt>
<trkpt lat="47.407272" lon="10.863716">
<ele>1004.406</ele>
<time>2020-09-11T17:30:37Z</time>
</trkpt>
<trkpt lat="47.407276" lon="10.86369">
<ele>1004.515</ele>
<time>2020-09-11T17:30:38Z</time>
</trkpt>
<trkpt lat="47.40728" lon="10.863662">
<ele>1004.874</ele>
<time>2020-09-11T17:30:39Z</time>
</trkpt>
<trkpt lat="47.407284" lon="10.863635">
<ele>1005.156</ele>
<time>2020-09-11T17:30:40Z</time>
</trkpt>
<trkpt lat="47.407288" lon="10.863608">
<ele>1005.365</ele>
<time>2020-09-11T17:30:41Z</time>
</trkpt>
<trkpt lat="47.407295" lon="10.863584">
<ele>1005.514</ele>
<time>2020-09-11T17:30:42Z</time>
</trkpt>
<trkpt lat="47.407303" lon="10.86356">
<ele>1005.638</ele>
<time>2020-09-11T17:30:43Z</time>
</trkpt>
<trkpt lat="47.407307" lon="10.863535">
<ele>1005.681</ele>
<time>2020-09-11T17:30:44Z</time>
</trkpt>
<trkpt lat="47.40731" lon="10.863511">
<ele>1005.956</ele>
<time>2020-09-11T17:30:45Z</time>
</trkpt>
<trkpt lat="47.407314" lon="10.86349">
<ele>1006.19</ele>
<time>2020-09-11T17:30:46Z</time>
</trkpt>
<trkpt lat="47.407322" lon="10.863465">
<ele>1006.362</ele>
<time>2020-09-11T17:30:47Z</time>
</trkpt>
<trkpt lat="47.407326" lon="10.863441">
<ele>1006.506</ele>
<time>2020-09-11T17:30:48Z</time>
</trkpt>
<trkpt lat="47.407333" lon="10.863417">
<ele>1006.598</ele>
<time>2020-09-11T17:30:49Z</time>
</trkpt>
<trkpt lat="47.407337" lon="10.863392">
<ele>1006.976</ele>
<time>2020-09-11T17:30:50Z</time>
</trkpt>
<trkpt lat="47.407341" lon="10.863368">
<ele>1007.281</ele>
<time>2020-09-11T17:30:51Z</time>
</trkpt>
<trkpt lat="47.407349" lon="10.863343">
<ele>1007.505</ele>
<time>2020-09-11T17:30:52Z</time>
</trkpt>
<trkpt lat="47.407352" lon="10.86332">
<ele>1007.681</ele>
<time>2020-09-11T17:30:53Z</time>
</trkpt>
<trkpt lat="47.40736" lon="10.863297">
<ele>1007.769</ele>
<time>2020-09-11T17:30:54Z</time>
</trkpt>
<trkpt lat="47.407368" lon="10.863272">
<ele>1008.084</ele>
<time>2020-09-11T17:30:55Z</time>
</trkpt>
<trkpt lat="47.407372" lon="10.863245">
<ele>1008.37</ele>
<time>2020-09-11T17:30:56Z</time>
</trkpt>
<trkpt lat="47.407375" lon="10.863218">
<ele>1008.548</ele>
<time>2020-09-11T17:30:57Z</time>
</trkpt>
<trkpt lat="47.407379" lon="10.863194">
<ele>1008.927</ele>
<time>2020-09-11T17:30:58Z</time>
</trkpt>
<trkpt lat="47.407387" lon="10.863172">
<ele>1009.227</ele>
<time>2020-09-11T17:30:59Z</time>
</trkpt>
<trkpt lat="47.407398" lon="10.863153">
<ele>1009.461</ele>
<time>2020-09-11T17:31:00Z</time>
</trkpt>
<trkpt lat="47.407402" lon="10.863132">
<ele>1009.636</ele>
<time>2020-09-11T17:31:01Z</time>
</trkpt>
<trkpt lat="47.40741" lon="10.863111">
<ele>1009.752</ele>
<time>2020-09-11T17:31:02Z</time>
</trkpt>
<trkpt lat="47.407421" lon="10.863088">
<ele>1009.828</ele>
<time>2020-09-11T17:31:03Z</time>
</trkpt>
<trkpt lat="47.407433" lon="10.863067">
<ele>1009.863</ele>
<time>2020-09-11T17:31:04Z</time>
</trkpt>
<trkpt lat="47.40744" lon="10.863046">
<ele>1009.887</ele>
<time>2020-09-11T17:31:05Z</time>
</trkpt>
<trkpt lat="47.407448" lon="10.863023">
<ele>1010.135</ele>
<time>2020-09-11T17:31:06Z</time>
</trkpt>
<trkpt lat="47.407455" lon="10.863">
<ele>1010.347</ele>
<time>2020-09-11T17:31:07Z</time>
</trkpt>
<trkpt lat="47.407463" lon="10.862977">
<ele>1010.517</ele>
<time>2020-09-11T17:31:08Z</time>
</trkpt>
<trkpt lat="47.407467" lon="10.862953">
<ele>1010.651</ele>
<time>2020-09-11T17:31:09Z</time>
</trkpt>
<trkpt lat="47.407478" lon="10.86293">
<ele>1010.749</ele>
<time>2020-09-11T17:31:10Z</time>
</trkpt>
<trkpt lat="47.407486" lon="10.862908">
<ele>1010.811</ele>
<time>2020-09-11T17:31:11Z</time>
</trkpt>
<trkpt lat="47.407494" lon="10.862884">
<ele>1011.112</ele>
<time>2020-09-11T17:31:12Z</time>
</trkpt>
<trkpt lat="47.407501" lon="10.86286">
<ele>1011.346</ele>
<time>2020-09-11T17:31:13Z</time>
</trkpt>
<trkpt lat="47.407509" lon="10.862837">
<ele>1011.517</ele>
<time>2020-09-11T17:31:14Z</time>
</trkpt>
<trkpt lat="47.407516" lon="10.862813">
<ele>1011.622</ele>
<time>2020-09-11T17:31:15Z</time>
</trkpt>
<trkpt lat="47.407524" lon="10.86279">
<ele>1011.74</ele>
<time>2020-09-11T17:31:16Z</time>
</trkpt>
<trkpt lat="47.407532" lon="10.862767">
<ele>1011.819</ele>
<time>2020-09-11T17:31:17Z</time>
</trkpt>
<trkpt lat="47.407539" lon="10.862741">
<ele>1012.144</ele>
<time>2020-09-11T17:31:18Z</time>
</trkpt>
<trkpt lat="47.407547" lon="10.86272">
<ele>1012.397</ele>
<time>2020-09-11T17:31:19Z</time>
</trkpt>
<trkpt lat="47.407555" lon="10.862701">
<ele>1012.641</ele>
<time>2020-09-11T17:31:20Z</time>
</trkpt>
<trkpt lat="47.407566" lon="10.862681">
<ele>1012.793</ele>
<time>2020-09-11T17:31:21Z</time>
</trkpt>
<trkpt lat="47.407574" lon="10.862662">
<ele>1012.876</ele>
<time>2020-09-11T17:31:22Z</time>
</trkpt>
<trkpt lat="47.407589" lon="10.862641">
<ele>1012.935</ele>
<time>2020-09-11T17:31:23Z</time>
</trkpt>
<trkpt lat="47.407593" lon="10.86262">
<ele>1012.976</ele>
<time>2020-09-11T17:31:24Z</time>
</trkpt>
<trkpt lat="47.4076" lon="10.862598">
<ele>1013.002</ele>
<time>2020-09-11T17:31:25Z</time>
</trkpt>
<trkpt lat="47.407608" lon="10.862578">
<ele>1013.222</ele>
<time>2020-09-11T17:31:26Z</time>
</trkpt>
<trkpt lat="47.407616" lon="10.862558">
<ele>1013.414</ele>
<time>2020-09-11T17:31:27Z</time>
</trkpt>
<trkpt lat="47.407627" lon="10.862538">
<ele>1013.567</ele>
<time>2020-09-11T17:31:28Z</time>
</trkpt>
<trkpt lat="47.407635" lon="10.86252">
<ele>1013.685</ele>
<time>2020-09-11T17:31:29Z</time>
</trkpt>
<trkpt lat="47.40765" lon="10.862501">
<ele>1013.781</ele>
<time>2020-09-11T17:31:30Z</time>
</trkpt>
<trkpt lat="47.407661" lon="10.862485">
<ele>1013.85</ele>
<time>2020-09-11T17:31:31Z</time>
</trkpt>
<trkpt lat="47.407669" lon="10.862468">
<ele>1013.894</ele>
<time>2020-09-11T17:31:32Z</time>
</trkpt>
<trkpt lat="47.407677" lon="10.862447">
<ele>1014.165</ele>
<time>2020-09-11T17:31:33Z</time>
</trkpt>
<trkpt lat="47.407688" lon="10.862428">
<ele>1014.372</ele>
<time>2020-09-11T17:31:34Z</time>
</trkpt>
<trkpt lat="47.407696" lon="10.862415">
<ele>1014.506</ele>
<time>2020-09-11T17:31:35Z</time>
</trkpt>
<trkpt lat="47.4077" lon="10.8624">
<ele>1014.648</ele>
<time>2020-09-11T17:31:36Z</time>
</trkpt>
<trkpt lat="47.407711" lon="10.862384">
<ele>1014.762</ele>
<time>2020-09-11T17:31:37Z</time>
</trkpt>
<trkpt lat="47.407719" lon="10.862365">
<ele>1014.837</ele>
<time>2020-09-11T17:31:38Z</time>
</trkpt>
<trkpt lat="47.40773" lon="10.862347">
<ele>1015.14</ele>
<time>2020-09-11T17:31:39Z</time>
</trkpt>
<trkpt lat="47.407742" lon="10.862327">
<ele>1015.38</ele>
<time>2020-09-11T17:31:40Z</time>
</trkpt>
<trkpt lat="47.407757" lon="10.862309">
<ele>1015.599</ele>
<time>2020-09-11T17:31:41Z</time>
</trkpt>
<trkpt lat="47.407764" lon="10.862289">
<ele>1015.714</ele>
<time>2020-09-11T17:31:42Z</time>
</trkpt>
<trkpt lat="47.40778" lon="10.862267">
<ele>1016.118</ele>
<time>2020-09-11T17:31:43Z</time>
</trkpt>
<trkpt lat="47.407795" lon="10.862244">
<ele>1016.394</ele>
<time>2020-09-11T17:31:44Z</time>
</trkpt>
<trkpt lat="47.407806" lon="10.86222">
<ele>1016.572</ele>
<time>2020-09-11T17:31:45Z</time>
</trkpt>
<trkpt lat="47.407822" lon="10.862202">
<ele>1016.756</ele>
<time>2020-09-11T17:31:46Z</time>
</trkpt>
<trkpt lat="47.407829" lon="10.862182">
<ele>1016.87</ele>
<time>2020-09-11T17:31:47Z</time>
</trkpt>
<trkpt lat="47.407841" lon="10.862162">
<ele>1016.948</ele>
<time>2020-09-11T17:31:48Z</time>
</trkpt>
<trkpt lat="47.407833" lon="10.862148">
<ele>1017.221</ele>
<time>2020-09-11T17:31:49Z</time>
</trkpt>
<trkpt lat="47.407829" lon="10.862134">
<ele>1017.426</ele>
<time>2020-09-11T17:31:50Z</time>
</trkpt>
<trkpt lat="47.407833" lon="10.862109">
<ele>1017.619</ele>
<time>2020-09-11T17:31:51Z</time>
</trkpt>
<trkpt lat="47.407837" lon="10.862074">
<ele>1017.727</ele>
<time>2020-09-11T17:31:52Z</time>
</trkpt>
<trkpt lat="47.407841" lon="10.862034">
<ele>1017.817</ele>
<time>2020-09-11T17:31:53Z</time>
</trkpt>
<trkpt lat="47.407845" lon="10.862006">
<ele>1017.884</ele>
<time>2020-09-11T17:31:54Z</time>
</trkpt>
<trkpt lat="47.407837" lon="10.861975">
<ele>1017.928</ele>
<time>2020-09-11T17:31:55Z</time>
</trkpt>
<trkpt lat="47.407825" lon="10.861945">
<ele>1017.954</ele>
<time>2020-09-11T17:31:56Z</time>
</trkpt>
<trkpt lat="47.407814" lon="10.861921">
<ele>1018.3</ele>
<time>2020-09-11T17:31:57Z</time>
</trkpt>
<trkpt lat="47.407803" lon="10.861901">
<ele>1018.521</ele>
<time>2020-09-11T17:31:58Z</time>
</trkpt>
<trkpt lat="47.407791" lon="10.86189">
<ele>1018.656</ele>
<time>2020-09-11T17:31:59Z</time>
</trkpt>
<trkpt lat="47.407764" lon="10.861889">
<ele>1018.767</ele>
<time>2020-09-11T17:32:00Z</time>
</trkpt>
<trkpt lat="47.407738" lon="10.86189">
<ele>1018.862</ele>
<time>2020-09-11T17:32:01Z</time>
</trkpt>
<trkpt lat="47.407719" lon="10.861885">
<ele>1018.929</ele>
<time>2020-09-11T17:32:02Z</time>
</trkpt>
<trkpt lat="47.407696" lon="10.861878">
<ele>1018.952</ele>
<time>2020-09-11T17:32:03Z</time>
</trkpt>
<trkpt lat="47.407677" lon="10.861866">
<ele>1018.962</ele>
<time>2020-09-11T17:32:04Z</time>
</trkpt>
<trkpt lat="47.407658" lon="10.861862">
<ele>1018.962</ele>
<time>2020-09-11T17:32:05Z</time>
</trkpt>
<trkpt lat="47.407631" lon="10.861858">
<ele>1018.962</ele>
<time>2020-09-11T17:32:06Z</time>
</trkpt>
<trkpt lat="47.407616" lon="10.861854">
<ele>1018.962</ele>
<time>2020-09-11T17:32:07Z</time>
</trkpt>
<trkpt lat="47.4076" lon="10.861845">
<ele>1018.962</ele>
<time>2020-09-11T17:32:08Z</time>
</trkpt>
<trkpt lat="47.407581" lon="10.861838">
<ele>1018.962</ele>
<time>2020-09-11T17:32:09Z</time>
</trkpt>
<trkpt lat="47.407562" lon="10.861832">
<ele>1019.23</ele>
<time>2020-09-11T17:32:10Z</time>
</trkpt>
<trkpt lat="47.407539" lon="10.861827">
<ele>1019.443</ele>
<time>2020-09-11T17:32:11Z</time>
</trkpt>
<trkpt lat="47.40752" lon="10.861824">
<ele>1019.604</ele>
<time>2020-09-11T17:32:12Z</time>
</trkpt>
<trkpt lat="47.407501" lon="10.861818">
<ele>1019.731</ele>
<time>2020-09-11T17:32:13Z</time>
</trkpt>
<trkpt lat="47.407482" lon="10.861812">
<ele>1019.799</ele>
<time>2020-09-11T17:32:14Z</time>
</trkpt>
<trkpt lat="47.407459" lon="10.861803">
<ele>1020.139</ele>
<time>2020-09-11T17:32:15Z</time>
</trkpt>
<trkpt lat="47.407436" lon="10.861798">
<ele>1020.436</ele>
<time>2020-09-11T17:32:16Z</time>
</trkpt>
<trkpt lat="47.407413" lon="10.861792">
<ele>1020.649</ele>
<time>2020-09-11T17:32:17Z</time>
</trkpt>
<trkpt lat="47.407394" lon="10.861785">
<ele>1020.773</ele>
<time>2020-09-11T17:32:18Z</time>
</trkpt>
<trkpt lat="47.407375" lon="10.86178">
<ele>1021.151</ele>
<time>2020-09-11T17:32:19Z</time>
</trkpt>
<trkpt lat="47.40736" lon="10.861772">
<ele>1021.446</ele>
<time>2020-09-11T17:32:20Z</time>
</trkpt>
<trkpt lat="47.407341" lon="10.861761">
<ele>1021.659</ele>
<time>2020-09-11T17:32:21Z</time>
</trkpt>
<trkpt lat="47.40733" lon="10.861747">
<ele>1021.817</ele>
<time>2020-09-11T17:32:22Z</time>
</trkpt>
<trkpt lat="47.407314" lon="10.861728">
<ele>1021.914</ele>
<time>2020-09-11T17:32:23Z</time>
</trkpt>
<trkpt lat="47.407307" lon="10.861707">
<ele>1022.197</ele>
<time>2020-09-11T17:32:24Z</time>
</trkpt>
<trkpt lat="47.407295" lon="10.861685">
<ele>1022.423</ele>
<time>2020-09-11T17:32:25Z</time>
</trkpt>
<trkpt lat="47.40728" lon="10.861661">
<ele>1022.618</ele>
<time>2020-09-11T17:32:26Z</time>
</trkpt>
<trkpt lat="47.407265" lon="10.861645">
<ele>1022.74</ele>
<time>2020-09-11T17:32:27Z</time>
</trkpt>
<trkpt lat="47.407246" lon="10.861627">
<ele>1023.109</ele>
<time>2020-09-11T17:32:28Z</time>
</trkpt>
<trkpt lat="47.407234" lon="10.861609">
<ele>1023.397</ele>
<time>2020-09-11T17:32:29Z</time>
</trkpt>
<trkpt lat="47.407219" lon="10.861588">
<ele>1023.609</ele>
<time>2020-09-11T17:32:30Z</time>
</trkpt>
<trkpt lat="47.407207" lon="10.861568">
<ele>1023.738</ele>
<time>2020-09-11T17:32:31Z</time>
</trkpt>
<trkpt lat="47.407188" lon="10.86155">
<ele>1024.139</ele>
<time>2020-09-11T17:32:32Z</time>
</trkpt>
<trkpt lat="47.407177" lon="10.861535">
<ele>1024.394</ele>
<time>2020-09-11T17:32:33Z</time>
</trkpt>
<trkpt lat="47.407166" lon="10.861517">
<ele>1024.56</ele>
<time>2020-09-11T17:32:34Z</time>
</trkpt>
<trkpt lat="47.40715" lon="10.8615">
<ele>1024.931</ele>
<time>2020-09-11T17:32:35Z</time>
</trkpt>
<trkpt lat="47.407135" lon="10.861483">
<ele>1025.233</ele>
<time>2020-09-11T17:32:36Z</time>
</trkpt>
<trkpt lat="47.40712" lon="10.861466">
<ele>1025.479</ele>
<time>2020-09-11T17:32:37Z</time>
</trkpt>
<trkpt lat="47.407116" lon="10.861451">
<ele>1025.665</ele>
<time>2020-09-11T17:32:38Z</time>
</trkpt>
<trkpt lat="47.407108" lon="10.861442">
<ele>1025.793</ele>
<time>2020-09-11T17:32:39Z</time>
</trkpt>
<trkpt lat="47.407104" lon="10.861432">
<ele>1025.864</ele>
<time>2020-09-11T17:32:40Z</time>
</trkpt>
<trkpt lat="47.407093" lon="10.861432">
<ele>1025.914</ele>
<time>2020-09-11T17:32:41Z</time>
</trkpt>
<trkpt lat="47.407093" lon="10.861437">
<ele>1025.935</ele>
<time>2020-09-11T17:32:42Z</time>
</trkpt>
<trkpt lat="47.407093" lon="10.861433">
<ele>1025.935</ele>
<time>2020-09-11T17:32:43Z</time>
</trkpt>
<trkpt lat="47.407108" lon="10.861445">
<ele>1025.935</ele>
<time>2020-09-11T17:32:59Z</time>
</trkpt>
<trkpt lat="47.407116" lon="10.861453">
<ele>1025.935</ele>
<time>2020-09-11T17:33:00Z</time>
</trkpt>
<trkpt lat="47.407124" lon="10.861465">
<ele>1025.935</ele>
<time>2020-09-11T17:33:01Z</time>
</trkpt>
<trkpt lat="47.407135" lon="10.861479">
<ele>1025.935</ele>
<time>2020-09-11T17:33:02Z</time>
</trkpt>
<trkpt lat="47.407143" lon="10.861486">
<ele>1025.935</ele>
<time>2020-09-11T17:33:03Z</time>
</trkpt>
<trkpt lat="47.40715" lon="10.861493">
<ele>1025.935</ele>
<time>2020-09-11T17:33:04Z</time>
</trkpt>
<trkpt lat="47.407158" lon="10.861502">
<ele>1025.935</ele>
<time>2020-09-11T17:33:05Z</time>
</trkpt>
<trkpt lat="47.407158" lon="10.861506">
<ele>1025.935</ele>
<time>2020-09-11T17:33:06Z</time>
</trkpt>
<trkpt lat="47.407162" lon="10.86152">
<ele>1025.935</ele>
<time>2020-09-11T17:33:07Z</time>
</trkpt>
<trkpt lat="47.407169" lon="10.861526">
<ele>1025.935</ele>
<time>2020-09-11T17:33:08Z</time>
</trkpt>
<trkpt lat="47.407173" lon="10.861533">
<ele>1025.935</ele>
<time>2020-09-11T17:33:09Z</time>
</trkpt>
<trkpt lat="47.407173" lon="10.86154">
<ele>1025.935</ele>
<time>2020-09-11T17:33:10Z</time>
</trkpt>
<trkpt lat="47.407177" lon="10.86155">
<ele>1025.935</ele>
<time>2020-09-11T17:33:11Z</time>
</trkpt>
<trkpt lat="47.407185" lon="10.861556">
<ele>1025.935</ele>
<time>2020-09-11T17:33:12Z</time>
</trkpt>
<trkpt lat="47.407192" lon="10.861567">
<ele>1025.935</ele>
<time>2020-09-11T17:33:13Z</time>
</trkpt>
<trkpt lat="47.407196" lon="10.861577">
<ele>1025.935</ele>
<time>2020-09-11T17:33:14Z</time>
</trkpt>
<trkpt lat="47.407204" lon="10.861588">
<ele>1025.935</ele>
<time>2020-09-11T17:33:15Z</time>
</trkpt>
<trkpt lat="47.407207" lon="10.861596">
<ele>1025.935</ele>
<time>2020-09-11T17:33:16Z</time>
</trkpt>
<trkpt lat="47.407211" lon="10.861604">
<ele>1025.935</ele>
<time>2020-09-11T17:33:17Z</time>
</trkpt>
<trkpt lat="47.407219" lon="10.86161">
<ele>1025.668</ele>
<time>2020-09-11T17:33:18Z</time>
</trkpt>
<trkpt lat="47.407223" lon="10.861621">
<ele>1025.456</ele>
<time>2020-09-11T17:33:19Z</time>
</trkpt>
<trkpt lat="47.407234" lon="10.861629">
<ele>1025.302</ele>
<time>2020-09-11T17:33:20Z</time>
</trkpt>
<trkpt lat="47.407242" lon="10.861629">
<ele>1025.139</ele>
<time>2020-09-11T17:33:21Z</time>
</trkpt>
<trkpt lat="47.407261" lon="10.861629">
<ele>1025.004</ele>
<time>2020-09-11T17:33:22Z</time>
</trkpt>
<trkpt lat="47.407272" lon="10.861627">
<ele>1024.914</ele>
<time>2020-09-11T17:33:23Z</time>
</trkpt>
<trkpt lat="47.407291" lon="10.861619">
<ele>1024.855</ele>
<time>2020-09-11T17:33:24Z</time>
</trkpt>
<trkpt lat="47.407303" lon="10.861612">
<ele>1024.834</ele>
<time>2020-09-11T17:33:25Z</time>
</trkpt>
<trkpt lat="47.40731" lon="10.861604">
<ele>1024.834</ele>
<time>2020-09-11T17:33:26Z</time>
</trkpt>
<trkpt lat="47.407318" lon="10.861593">
<ele>1024.834</ele>
<time>2020-09-11T17:33:27Z</time>
</trkpt>
<trkpt lat="47.407326" lon="10.861584">
<ele>1024.834</ele>
<time>2020-09-11T17:33:28Z</time>
</trkpt>
<trkpt lat="47.407337" lon="10.861575">
<ele>1024.834</ele>
<time>2020-09-11T17:33:29Z</time>
</trkpt>
<trkpt lat="47.407341" lon="10.861565">
<ele>1024.834</ele>
<time>2020-09-11T17:33:30Z</time>
</trkpt>
<trkpt lat="47.407352" lon="10.861555">
<ele>1024.834</ele>
<time>2020-09-11T17:33:31Z</time>
</trkpt>
<trkpt lat="47.40736" lon="10.861544">
<ele>1024.834</ele>
<time>2020-09-11T17:33:32Z</time>
</trkpt>
<trkpt lat="47.407368" lon="10.861531">
<ele>1024.834</ele>
<time>2020-09-11T17:33:33Z</time>
</trkpt>
<trkpt lat="47.407372" lon="10.86152">
<ele>1024.834</ele>
<time>2020-09-11T17:33:34Z</time>
</trkpt>
<trkpt lat="47.407383" lon="10.861508">
<ele>1024.834</ele>
<time>2020-09-11T17:33:35Z</time>
</trkpt>
<trkpt lat="47.407391" lon="10.861495">
<ele>1024.834</ele>
<time>2020-09-11T17:33:36Z</time>
</trkpt>
<trkpt lat="47.407402" lon="10.861481">
<ele>1024.834</ele>
<time>2020-09-11T17:33:37Z</time>
</trkpt>
<trkpt lat="47.40741" lon="10.861468">
<ele>1024.834</ele>
<time>2020-09-11T17:33:38Z</time>
</trkpt>
<trkpt lat="47.407421" lon="10.861457">
<ele>1024.834</ele>
<time>2020-09-11T17:33:39Z</time>
</trkpt>
<trkpt lat="47.407429" lon="10.861445">
<ele>1024.834</ele>
<time>2020-09-11T17:33:40Z</time>
</trkpt>
<trkpt lat="47.407433" lon="10.861439">
<ele>1024.834</ele>
<time>2020-09-11T17:33:41Z</time>
</trkpt>
<trkpt lat="47.407433" lon="10.861435">
<ele>1024.834</ele>
<time>2020-09-11T17:33:42Z</time>
</trkpt>
<trkpt lat="47.407433" lon="10.861433">
<ele>1024.834</ele>
<time>2020-09-11T17:33:43Z</time>
</trkpt>
<trkpt lat="47.407425" lon="10.861442">
<ele>1024.834</ele>
<time>2020-09-11T17:35:59Z</time>
</trkpt>
<trkpt lat="47.407421" lon="10.861447">
<ele>1025.061</ele>
<time>2020-09-11T17:36:00Z</time>
</trkpt>
<trkpt lat="47.407413" lon="10.861449">
<ele>1025.259</ele>
<time>2020-09-11T17:36:01Z</time>
</trkpt>
<trkpt lat="47.407413" lon="10.861451">
<ele>1025.428</ele>
<time>2020-09-11T17:36:02Z</time>
</trkpt>
<trkpt lat="47.407402" lon="10.861449">
<ele>1025.589</ele>
<time>2020-09-11T17:36:03Z</time>
</trkpt>
<trkpt lat="47.407394" lon="10.861464">
<ele>1025.805</ele>
<time>2020-09-11T17:36:11Z</time>
</trkpt>
<trkpt lat="47.407391" lon="10.86147">
<ele>1025.837</ele>
<time>2020-09-11T17:36:12Z</time>
</trkpt>
<trkpt lat="47.407387" lon="10.861481">
<ele>1025.613</ele>
<time>2020-09-11T17:36:13Z</time>
</trkpt>
<trkpt lat="47.407379" lon="10.861488">
<ele>1025.541</ele>
<time>2020-09-11T17:36:14Z</time>
</trkpt>
<trkpt lat="47.407372" lon="10.861495">
<ele>1025.311</ele>
<time>2020-09-11T17:36:15Z</time>
</trkpt>
<trkpt lat="47.407368" lon="10.861498">
<ele>1025.182</ele>
<time>2020-09-11T17:36:16Z</time>
</trkpt>
<trkpt lat="47.40736" lon="10.861506">
<ele>1025.107</ele>
<time>2020-09-11T17:36:17Z</time>
</trkpt>
<trkpt lat="47.407352" lon="10.86151">
<ele>1025.024</ele>
<time>2020-09-11T17:36:18Z</time>
</trkpt>
<trkpt lat="47.407352" lon="10.861512">
<ele>1024.971</ele>
<time>2020-09-11T17:36:19Z</time>
</trkpt>
<trkpt lat="47.407349" lon="10.861517">
<ele>1024.942</ele>
<time>2020-09-11T17:36:20Z</time>
</trkpt>
<trkpt lat="47.407349" lon="10.861517">
<ele>1024.942</ele>
</trkpt>
</trkseg>
</trk>
</gpx>